<?xml version='1.0' encoding='UTF-8'?>
<gpx version="1.1" creator="https://www.komoot.de" xmlns="http://www.topografix.com/GPX/1/1" xmlns:xsi="http://www.w3.org/2001/XMLSchema-instance" xsi:schemaLocation="http://www.topografix.com/GPX/1/1 http://www.topografix.com/GPX/1/1/gpx.xsd">
  <metadata>
    <name>Reichswald</name>
    <author>
      <link href="https://www.komoot.de">
        <text>komoot</text>
        <type>text/html</type>
      </link>
    </author>
  </metadata>
  <trk>
    <name>Reichswald</name>
    <trkseg>
      <trkpt lat="51.649744" lon="6.036965">
        <ele>17.305940</ele>
        <time>2024-03-31T11:33:57.999Z</time>
      </trkpt>
      <trkpt lat="51.649613" lon="6.036900">
        <ele>17.305940</ele>
        <time>2024-03-31T11:34:00.998Z</time>
      </trkpt>
      <trkpt lat="51.649486" lon="6.036838">
        <ele>17.305940</ele>
        <time>2024-03-31T11:34:03.998Z</time>
      </trkpt>
      <trkpt lat="51.649391" lon="6.036765">
        <ele>17.305940</ele>
        <time>2024-03-31T11:34:05.998Z</time>
      </trkpt>
      <trkpt lat="51.649310" lon="6.036698">
        <ele>17.305940</ele>
        <time>2024-03-31T11:34:07.998Z</time>
      </trkpt>
      <trkpt lat="51.649192" lon="6.036628">
        <ele>17.305940</ele>
        <time>2024-03-31T11:34:10.998Z</time>
      </trkpt>
      <trkpt lat="51.649186" lon="6.036417">
        <ele>17.305940</ele>
        <time>2024-03-31T11:34:13.998Z</time>
      </trkpt>
      <trkpt lat="51.649182" lon="6.036259">
        <ele>17.305940</ele>
        <time>2024-03-31T11:34:15.998Z</time>
      </trkpt>
      <trkpt lat="51.649184" lon="6.036106">
        <ele>17.316409</ele>
        <time>2024-03-31T11:34:17.998Z</time>
      </trkpt>
      <trkpt lat="51.649194" lon="6.035952">
        <ele>17.376995</ele>
        <time>2024-03-31T11:34:19.998Z</time>
      </trkpt>
      <trkpt lat="51.649200" lon="6.035800">
        <ele>17.436589</ele>
        <time>2024-03-31T11:34:21.998Z</time>
      </trkpt>
      <trkpt lat="51.649188" lon="6.035589">
        <ele>17.519495</ele>
        <time>2024-03-31T11:34:24.998Z</time>
      </trkpt>
      <trkpt lat="51.649196" lon="6.035378">
        <ele>17.602208</ele>
        <time>2024-03-31T11:34:27.998Z</time>
      </trkpt>
      <trkpt lat="51.649203" lon="6.035224">
        <ele>17.662626</ele>
        <time>2024-03-31T11:34:29.998Z</time>
      </trkpt>
      <trkpt lat="51.649231" lon="6.035064">
        <ele>17.727673</ele>
        <time>2024-03-31T11:34:31.998Z</time>
      </trkpt>
      <trkpt lat="51.649223" lon="6.034876">
        <ele>17.801406</ele>
        <time>2024-03-31T11:34:34.998Z</time>
      </trkpt>
      <trkpt lat="51.649207" lon="6.034704">
        <ele>17.869457</ele>
        <time>2024-03-31T11:34:36.998Z</time>
      </trkpt>
      <trkpt lat="51.649203" lon="6.034549">
        <ele>17.930158</ele>
        <time>2024-03-31T11:34:38.998Z</time>
      </trkpt>
      <trkpt lat="51.649211" lon="6.034340">
        <ele>18.012090</ele>
        <time>2024-03-31T11:34:41.998Z</time>
      </trkpt>
      <trkpt lat="51.649262" lon="6.034206">
        <ele>18.073599</ele>
        <time>2024-03-31T11:34:43.998Z</time>
      </trkpt>
      <trkpt lat="51.649348" lon="6.034074">
        <ele>18.148490</ele>
        <time>2024-03-31T11:34:46.997Z</time>
      </trkpt>
      <trkpt lat="51.649424" lon="6.033965">
        <ele>18.212645</ele>
        <time>2024-03-31T11:34:48.997Z</time>
      </trkpt>
      <trkpt lat="51.649493" lon="6.033863">
        <ele>18.271689</ele>
        <time>2024-03-31T11:34:50.997Z</time>
      </trkpt>
      <trkpt lat="51.649530" lon="6.033711">
        <ele>18.335576</ele>
        <time>2024-03-31T11:34:53.000Z</time>
      </trkpt>
      <trkpt lat="51.649625" lon="6.033596">
        <ele>18.410500</ele>
        <time>2024-03-31T11:34:55.000Z</time>
      </trkpt>
      <trkpt lat="51.649682" lon="6.033476">
        <ele>18.411653</ele>
        <time>2024-03-31T11:34:57.000Z</time>
      </trkpt>
      <trkpt lat="51.649782" lon="6.033337">
        <ele>18.330991</ele>
        <time>2024-03-31T11:35:00.000Z</time>
      </trkpt>
      <trkpt lat="51.649855" lon="6.033207">
        <ele>18.264539</ele>
        <time>2024-03-31T11:35:02.000Z</time>
      </trkpt>
      <trkpt lat="51.649918" lon="6.033086">
        <ele>18.204673</ele>
        <time>2024-03-31T11:35:04.000Z</time>
      </trkpt>
      <trkpt lat="51.649991" lon="6.032930">
        <ele>18.130620</ele>
        <time>2024-03-31T11:35:06.000Z</time>
      </trkpt>
      <trkpt lat="51.650069" lon="6.032816">
        <ele>18.066302</ele>
        <time>2024-03-31T11:35:08.000Z</time>
      </trkpt>
      <trkpt lat="51.650119" lon="6.032673">
        <ele>18.004093</ele>
        <time>2024-03-31T11:35:10.000Z</time>
      </trkpt>
      <trkpt lat="51.650189" lon="6.032529">
        <ele>17.934762</ele>
        <time>2024-03-31T11:35:11.999Z</time>
      </trkpt>
      <trkpt lat="51.650293" lon="6.032499">
        <ele>17.870227</ele>
        <time>2024-03-31T11:35:13.999Z</time>
      </trkpt>
      <trkpt lat="51.650323" lon="6.032315">
        <ele>17.798124</ele>
        <time>2024-03-31T11:35:15.999Z</time>
      </trkpt>
      <trkpt lat="51.650395" lon="6.032193">
        <ele>17.734311</ele>
        <time>2024-03-31T11:35:17.999Z</time>
      </trkpt>
      <trkpt lat="51.650463" lon="6.032040">
        <ele>17.662984</ele>
        <time>2024-03-31T11:35:19.999Z</time>
      </trkpt>
      <trkpt lat="51.650558" lon="6.031984">
        <ele>17.601195</ele>
        <time>2024-03-31T11:35:21.999Z</time>
      </trkpt>
      <trkpt lat="51.650634" lon="6.031845">
        <ele>17.530980</ele>
        <time>2024-03-31T11:35:23.999Z</time>
      </trkpt>
      <trkpt lat="51.650685" lon="6.031675">
        <ele>17.459415</ele>
        <time>2024-03-31T11:35:25.999Z</time>
      </trkpt>
      <trkpt lat="51.650756" lon="6.031533">
        <ele>17.390298</ele>
        <time>2024-03-31T11:35:27.999Z</time>
      </trkpt>
      <trkpt lat="51.650874" lon="6.031490">
        <ele>17.338752</ele>
        <time>2024-03-31T11:35:29.999Z</time>
      </trkpt>
      <trkpt lat="51.650952" lon="6.031353">
        <ele>17.330992</ele>
        <time>2024-03-31T11:35:31.999Z</time>
      </trkpt>
      <trkpt lat="51.651018" lon="6.031236">
        <ele>17.324392</ele>
        <time>2024-03-31T11:35:33.999Z</time>
      </trkpt>
      <trkpt lat="51.651081" lon="6.031098">
        <ele>17.317242</ele>
        <time>2024-03-31T11:35:35.999Z</time>
      </trkpt>
      <trkpt lat="51.651193" lon="6.030929">
        <ele>17.306922</ele>
        <time>2024-03-31T11:35:38.999Z</time>
      </trkpt>
      <trkpt lat="51.651274" lon="6.030788">
        <ele>17.298902</ele>
        <time>2024-03-31T11:35:40.999Z</time>
      </trkpt>
      <trkpt lat="51.651368" lon="6.030611">
        <ele>17.289178</ele>
        <time>2024-03-31T11:35:43.999Z</time>
      </trkpt>
      <trkpt lat="51.651431" lon="6.030484">
        <ele>17.282392</ele>
        <time>2024-03-31T11:35:50.999Z</time>
      </trkpt>
      <trkpt lat="51.651517" lon="6.030361">
        <ele>17.274658</ele>
        <time>2024-03-31T11:35:53.999Z</time>
      </trkpt>
      <trkpt lat="51.651448" lon="6.030150">
        <ele>17.264704</ele>
        <time>2024-03-31T11:35:56.999Z</time>
      </trkpt>
      <trkpt lat="51.651378" lon="6.029983">
        <ele>17.256293</ele>
        <time>2024-03-31T11:35:59.998Z</time>
      </trkpt>
      <trkpt lat="51.651290" lon="6.029836">
        <ele>17.247767</ele>
        <time>2024-03-31T11:36:02.998Z</time>
      </trkpt>
      <trkpt lat="51.651221" lon="6.029741">
        <ele>17.241663</ele>
        <time>2024-03-31T11:36:04.998Z</time>
      </trkpt>
      <trkpt lat="51.651144" lon="6.029591">
        <ele>17.233538</ele>
        <time>2024-03-31T11:36:06.998Z</time>
      </trkpt>
      <trkpt lat="51.651068" lon="6.029464">
        <ele>17.226174</ele>
        <time>2024-03-31T11:36:08.998Z</time>
      </trkpt>
      <trkpt lat="51.650962" lon="6.029321">
        <ele>17.238240</ele>
        <time>2024-03-31T11:36:11.998Z</time>
      </trkpt>
      <trkpt lat="51.650898" lon="6.029207">
        <ele>17.269331</ele>
        <time>2024-03-31T11:36:13.998Z</time>
      </trkpt>
      <trkpt lat="51.650805" lon="6.029057">
        <ele>17.312215</ele>
        <time>2024-03-31T11:36:16.998Z</time>
      </trkpt>
      <trkpt lat="51.650743" lon="6.028919">
        <ele>17.346672</ele>
        <time>2024-03-31T11:36:18.998Z</time>
      </trkpt>
      <trkpt lat="51.650630" lon="6.028757">
        <ele>17.395966</ele>
        <time>2024-03-31T11:36:21.998Z</time>
      </trkpt>
      <trkpt lat="51.650560" lon="6.028639">
        <ele>17.428982</ele>
        <time>2024-03-31T11:36:23.998Z</time>
      </trkpt>
      <trkpt lat="51.650463" lon="6.028477">
        <ele>17.474512</ele>
        <time>2024-03-31T11:36:26.998Z</time>
      </trkpt>
      <trkpt lat="51.650395" lon="6.028356">
        <ele>17.507528</ele>
        <time>2024-03-31T11:36:28.998Z</time>
      </trkpt>
      <trkpt lat="51.650329" lon="6.028226">
        <ele>17.541498</ele>
        <time>2024-03-31T11:36:30.998Z</time>
      </trkpt>
      <trkpt lat="51.650227" lon="6.028079">
        <ele>17.586097</ele>
        <time>2024-03-31T11:36:33.998Z</time>
      </trkpt>
      <trkpt lat="51.650143" lon="6.027915">
        <ele>17.629105</ele>
        <time>2024-03-31T11:36:36.998Z</time>
      </trkpt>
      <trkpt lat="51.650125" lon="6.027771">
        <ele>17.658812</ele>
        <time>2024-03-31T11:36:38.998Z</time>
      </trkpt>
      <trkpt lat="51.650217" lon="6.027605">
        <ele>17.703826</ele>
        <time>2024-03-31T11:36:41.998Z</time>
      </trkpt>
      <trkpt lat="51.650305" lon="6.027444">
        <ele>17.747218</ele>
        <time>2024-03-31T11:36:44.998Z</time>
      </trkpt>
      <trkpt lat="51.650377" lon="6.027315">
        <ele>17.782309</ele>
        <time>2024-03-31T11:36:46.997Z</time>
      </trkpt>
      <trkpt lat="51.650436" lon="6.027174">
        <ele>17.798705</ele>
        <time>2024-03-31T11:36:48.997Z</time>
      </trkpt>
      <trkpt lat="51.650504" lon="6.027048">
        <ele>17.771167</ele>
        <time>2024-03-31T11:36:50.997Z</time>
      </trkpt>
      <trkpt lat="51.650593" lon="6.026898">
        <ele>17.736943</ele>
        <time>2024-03-31T11:36:53.997Z</time>
      </trkpt>
      <trkpt lat="51.650665" lon="6.026768">
        <ele>17.708207</ele>
        <time>2024-03-31T11:36:55.997Z</time>
      </trkpt>
      <trkpt lat="51.650727" lon="6.026652">
        <ele>17.682960</ele>
        <time>2024-03-31T11:36:58.000Z</time>
      </trkpt>
      <trkpt lat="51.650820" lon="6.026485">
        <ele>17.645956</ele>
        <time>2024-03-31T11:37:01.000Z</time>
      </trkpt>
      <trkpt lat="51.650889" lon="6.026352">
        <ele>17.617368</ele>
        <time>2024-03-31T11:37:03.000Z</time>
      </trkpt>
      <trkpt lat="51.650963" lon="6.026235">
        <ele>17.589818</ele>
        <time>2024-03-31T11:37:05.000Z</time>
      </trkpt>
      <trkpt lat="51.651042" lon="6.026111">
        <ele>17.560510</ele>
        <time>2024-03-31T11:37:07.000Z</time>
      </trkpt>
      <trkpt lat="51.651133" lon="6.025946">
        <ele>17.524107</ele>
        <time>2024-03-31T11:37:10.000Z</time>
      </trkpt>
      <trkpt lat="51.651219" lon="6.025789">
        <ele>17.489572</ele>
        <time>2024-03-31T11:37:13.000Z</time>
      </trkpt>
      <trkpt lat="51.651327" lon="6.025594">
        <ele>17.446469</ele>
        <time>2024-03-31T11:37:15.000Z</time>
      </trkpt>
      <trkpt lat="51.651412" lon="6.025440">
        <ele>17.412481</ele>
        <time>2024-03-31T11:37:17.000Z</time>
      </trkpt>
      <trkpt lat="51.651509" lon="6.025265">
        <ele>17.373786</ele>
        <time>2024-03-31T11:37:21.000Z</time>
      </trkpt>
      <trkpt lat="51.651578" lon="6.025140">
        <ele>17.346197</ele>
        <time>2024-03-31T11:37:22.999Z</time>
      </trkpt>
      <trkpt lat="51.651652" lon="6.025005">
        <ele>17.341102</ele>
        <time>2024-03-31T11:37:24.999Z</time>
      </trkpt>
      <trkpt lat="51.651734" lon="6.024856">
        <ele>17.374153</ele>
        <time>2024-03-31T11:37:27.999Z</time>
      </trkpt>
      <trkpt lat="51.651790" lon="6.024722">
        <ele>17.400963</ele>
        <time>2024-03-31T11:37:29.999Z</time>
      </trkpt>
      <trkpt lat="51.651866" lon="6.024622">
        <ele>17.427204</ele>
        <time>2024-03-31T11:37:31.999Z</time>
      </trkpt>
      <trkpt lat="51.651917" lon="6.024498">
        <ele>17.451891</ele>
        <time>2024-03-31T11:37:33.999Z</time>
      </trkpt>
      <trkpt lat="51.652004" lon="6.024375">
        <ele>17.482844</ele>
        <time>2024-03-31T11:37:35.999Z</time>
      </trkpt>
      <trkpt lat="51.652105" lon="6.024196">
        <ele>17.522994</ele>
        <time>2024-03-31T11:37:37.999Z</time>
      </trkpt>
      <trkpt lat="51.652177" lon="6.024039">
        <ele>17.555391</ele>
        <time>2024-03-31T11:37:39.999Z</time>
      </trkpt>
      <trkpt lat="51.652283" lon="6.023850">
        <ele>17.597669</ele>
        <time>2024-03-31T11:37:42.999Z</time>
      </trkpt>
      <trkpt lat="51.652346" lon="6.023737">
        <ele>17.622879</ele>
        <time>2024-03-31T11:37:44.999Z</time>
      </trkpt>
      <trkpt lat="51.652417" lon="6.023608">
        <ele>17.651494</ele>
        <time>2024-03-31T11:37:46.999Z</time>
      </trkpt>
      <trkpt lat="51.652503" lon="6.023439">
        <ele>17.687764</ele>
        <time>2024-03-31T11:37:48.999Z</time>
      </trkpt>
      <trkpt lat="51.652571" lon="6.023298">
        <ele>17.717399</ele>
        <time>2024-03-31T11:37:50.999Z</time>
      </trkpt>
      <trkpt lat="51.652664" lon="6.023150">
        <ele>17.752354</ele>
        <time>2024-03-31T11:37:52.999Z</time>
      </trkpt>
      <trkpt lat="51.652755" lon="6.022998">
        <ele>17.787405</ele>
        <time>2024-03-31T11:37:54.999Z</time>
      </trkpt>
      <trkpt lat="51.652816" lon="6.022884">
        <ele>17.812631</ele>
        <time>2024-03-31T11:37:56.999Z</time>
      </trkpt>
      <trkpt lat="51.652891" lon="6.022754">
        <ele>17.844903</ele>
        <time>2024-03-31T11:37:58.999Z</time>
      </trkpt>
      <trkpt lat="51.652971" lon="6.022645">
        <ele>17.875598</ele>
        <time>2024-03-31T11:38:00.999Z</time>
      </trkpt>
      <trkpt lat="51.653041" lon="6.022546">
        <ele>17.902886</ele>
        <time>2024-03-31T11:38:02.999Z</time>
      </trkpt>
      <trkpt lat="51.653175" lon="6.022518">
        <ele>17.942480</ele>
        <time>2024-03-31T11:38:05.999Z</time>
      </trkpt>
      <trkpt lat="51.653264" lon="6.022611">
        <ele>17.973559</ele>
        <time>2024-03-31T11:38:07.999Z</time>
      </trkpt>
      <trkpt lat="51.653363" lon="6.022713">
        <ele>18.007988</ele>
        <time>2024-03-31T11:38:10.999Z</time>
      </trkpt>
      <trkpt lat="51.653463" lon="6.022781">
        <ele>18.039791</ele>
        <time>2024-03-31T11:38:12.998Z</time>
      </trkpt>
      <trkpt lat="51.653596" lon="6.022707">
        <ele>18.081020</ele>
        <time>2024-03-31T11:38:15.998Z</time>
      </trkpt>
      <trkpt lat="51.653693" lon="6.022556">
        <ele>18.120534</ele>
        <time>2024-03-31T11:38:18.998Z</time>
      </trkpt>
      <trkpt lat="51.653767" lon="6.022446">
        <ele>18.150031</ele>
        <time>2024-03-31T11:38:20.998Z</time>
      </trkpt>
      <trkpt lat="51.653857" lon="6.022365">
        <ele>18.180236</ele>
        <time>2024-03-31T11:38:22.998Z</time>
      </trkpt>
      <trkpt lat="51.653957" lon="6.022263">
        <ele>18.214912</ele>
        <time>2024-03-31T11:38:24.998Z</time>
      </trkpt>
      <trkpt lat="51.654037" lon="6.022175">
        <ele>18.243292</ele>
        <time>2024-03-31T11:38:26.998Z</time>
      </trkpt>
      <trkpt lat="51.654112" lon="6.022075">
        <ele>18.271813</ele>
        <time>2024-03-31T11:38:28.998Z</time>
      </trkpt>
      <trkpt lat="51.654177" lon="6.021937">
        <ele>18.303311</ele>
        <time>2024-03-31T11:38:30.998Z</time>
      </trkpt>
      <trkpt lat="51.654277" lon="6.021849">
        <ele>18.336696</ele>
        <time>2024-03-31T11:38:32.998Z</time>
      </trkpt>
      <trkpt lat="51.654358" lon="6.021748">
        <ele>18.303942</ele>
        <time>2024-03-31T11:38:34.998Z</time>
      </trkpt>
      <trkpt lat="51.654437" lon="6.021645">
        <ele>18.271094</ele>
        <time>2024-03-31T11:38:36.998Z</time>
      </trkpt>
      <trkpt lat="51.654534" lon="6.021566">
        <ele>18.235962</ele>
        <time>2024-03-31T11:38:38.998Z</time>
      </trkpt>
      <trkpt lat="51.654635" lon="6.021415">
        <ele>18.191429</ele>
        <time>2024-03-31T11:38:42.998Z</time>
      </trkpt>
      <trkpt lat="51.654705" lon="6.021297">
        <ele>18.158685</ele>
        <time>2024-03-31T11:38:45.998Z</time>
      </trkpt>
      <trkpt lat="51.654784" lon="6.021181">
        <ele>18.124139</ele>
        <time>2024-03-31T11:38:48.998Z</time>
      </trkpt>
      <trkpt lat="51.654855" lon="6.021045">
        <ele>18.088491</ele>
        <time>2024-03-31T11:38:50.998Z</time>
      </trkpt>
      <trkpt lat="51.654940" lon="6.020941">
        <ele>18.053993</ele>
        <time>2024-03-31T11:38:52.998Z</time>
      </trkpt>
      <trkpt lat="51.655057" lon="6.020803">
        <ele>18.007125</ele>
        <time>2024-03-31T11:38:55.998Z</time>
      </trkpt>
      <trkpt lat="51.655137" lon="6.020672">
        <ele>17.970260</ele>
        <time>2024-03-31T11:38:57.998Z</time>
      </trkpt>
      <trkpt lat="51.655203" lon="6.020523">
        <ele>17.933542</ele>
        <time>2024-03-31T11:38:59.998Z</time>
      </trkpt>
      <trkpt lat="51.655269" lon="6.020377">
        <ele>17.897312</ele>
        <time>2024-03-31T11:39:01.997Z</time>
      </trkpt>
      <trkpt lat="51.655332" lon="6.020242">
        <ele>17.863432</ele>
        <time>2024-03-31T11:39:04.000Z</time>
      </trkpt>
      <trkpt lat="51.655412" lon="6.020065">
        <ele>17.819513</ele>
        <time>2024-03-31T11:39:06.000Z</time>
      </trkpt>
      <trkpt lat="51.655491" lon="6.019909">
        <ele>17.779126</ele>
        <time>2024-03-31T11:39:08.000Z</time>
      </trkpt>
      <trkpt lat="51.655599" lon="6.019813">
        <ele>17.743242</ele>
        <time>2024-03-31T11:39:10.000Z</time>
      </trkpt>
      <trkpt lat="51.655682" lon="6.019622">
        <ele>17.708010</ele>
        <time>2024-03-31T11:39:12.000Z</time>
      </trkpt>
      <trkpt lat="51.655774" lon="6.019481">
        <ele>17.677094</ele>
        <time>2024-03-31T11:39:14.000Z</time>
      </trkpt>
      <trkpt lat="51.655869" lon="6.019331">
        <ele>17.644709</ele>
        <time>2024-03-31T11:39:16.000Z</time>
      </trkpt>
      <trkpt lat="51.655963" lon="6.019188">
        <ele>17.613232</ele>
        <time>2024-03-31T11:39:18.000Z</time>
      </trkpt>
      <trkpt lat="51.656027" lon="6.019011">
        <ele>17.582280</ele>
        <time>2024-03-31T11:39:20.000Z</time>
      </trkpt>
      <trkpt lat="51.656125" lon="6.018892">
        <ele>17.552400</ele>
        <time>2024-03-31T11:39:22.000Z</time>
      </trkpt>
      <trkpt lat="51.656211" lon="6.018754">
        <ele>17.522848</ele>
        <time>2024-03-31T11:39:24.000Z</time>
      </trkpt>
      <trkpt lat="51.656280" lon="6.018582">
        <ele>17.491902</ele>
        <time>2024-03-31T11:39:26.000Z</time>
      </trkpt>
      <trkpt lat="51.656345" lon="6.018430">
        <ele>17.464011</ele>
        <time>2024-03-31T11:39:28.000Z</time>
      </trkpt>
      <trkpt lat="51.656425" lon="6.018287">
        <ele>17.434919</ele>
        <time>2024-03-31T11:39:30.000Z</time>
      </trkpt>
      <trkpt lat="51.656492" lon="6.018152">
        <ele>17.408800</ele>
        <time>2024-03-31T11:39:31.999Z</time>
      </trkpt>
      <trkpt lat="51.656585" lon="6.018068">
        <ele>17.382839</ele>
        <time>2024-03-31T11:39:32.999Z</time>
      </trkpt>
      <trkpt lat="51.656650" lon="6.017908">
        <ele>17.353944</ele>
        <time>2024-03-31T11:39:34.999Z</time>
      </trkpt>
      <trkpt lat="51.656738" lon="6.017779">
        <ele>17.324977</ele>
        <time>2024-03-31T11:39:37.999Z</time>
      </trkpt>
      <trkpt lat="51.656769" lon="6.017615">
        <ele>17.379973</ele>
        <time>2024-03-31T11:39:39.999Z</time>
      </trkpt>
      <trkpt lat="51.656850" lon="6.017544">
        <ele>17.456702</ele>
        <time>2024-03-31T11:39:41.999Z</time>
      </trkpt>
      <trkpt lat="51.656921" lon="6.017403">
        <ele>17.550458</ele>
        <time>2024-03-31T11:39:44.999Z</time>
      </trkpt>
      <trkpt lat="51.656990" lon="6.017225">
        <ele>17.658818</ele>
        <time>2024-03-31T11:39:47.999Z</time>
      </trkpt>
      <trkpt lat="51.657088" lon="6.017109">
        <ele>17.759999</ele>
        <time>2024-03-31T11:39:50.999Z</time>
      </trkpt>
      <trkpt lat="51.657137" lon="6.016966">
        <ele>17.844338</ele>
        <time>2024-03-31T11:39:52.999Z</time>
      </trkpt>
      <trkpt lat="51.657241" lon="6.016921">
        <ele>17.933950</ele>
        <time>2024-03-31T11:39:54.999Z</time>
      </trkpt>
      <trkpt lat="51.657313" lon="6.016787">
        <ele>18.025470</ele>
        <time>2024-03-31T11:39:56.999Z</time>
      </trkpt>
      <trkpt lat="51.657390" lon="6.016626">
        <ele>18.130422</ele>
        <time>2024-03-31T11:39:58.999Z</time>
      </trkpt>
      <trkpt lat="51.657462" lon="6.016493">
        <ele>18.221552</ele>
        <time>2024-03-31T11:40:00.999Z</time>
      </trkpt>
      <trkpt lat="51.657565" lon="6.016411">
        <ele>18.317152</ele>
        <time>2024-03-31T11:40:02.999Z</time>
      </trkpt>
      <trkpt lat="51.657666" lon="6.016342">
        <ele>18.408440</ele>
        <time>2024-03-31T11:40:04.999Z</time>
      </trkpt>
      <trkpt lat="51.657786" lon="6.016285">
        <ele>18.512549</ele>
        <time>2024-03-31T11:40:06.999Z</time>
      </trkpt>
      <trkpt lat="51.657899" lon="6.016219">
        <ele>18.612569</ele>
        <time>2024-03-31T11:40:08.999Z</time>
      </trkpt>
      <trkpt lat="51.658011" lon="6.016146">
        <ele>18.713106</ele>
        <time>2024-03-31T11:40:10.999Z</time>
      </trkpt>
      <trkpt lat="51.658121" lon="6.016098">
        <ele>18.807942</ele>
        <time>2024-03-31T11:40:12.999Z</time>
      </trkpt>
      <trkpt lat="51.658247" lon="6.015973">
        <ele>18.812279</ele>
        <time>2024-03-31T11:40:14.999Z</time>
      </trkpt>
      <trkpt lat="51.658361" lon="6.015876">
        <ele>18.810507</ele>
        <time>2024-03-31T11:40:16.998Z</time>
      </trkpt>
      <trkpt lat="51.658464" lon="6.015772">
        <ele>18.808836</ele>
        <time>2024-03-31T11:40:18.998Z</time>
      </trkpt>
      <trkpt lat="51.658580" lon="6.015679">
        <ele>18.807056</ele>
        <time>2024-03-31T11:40:20.998Z</time>
      </trkpt>
      <trkpt lat="51.658707" lon="6.015583">
        <ele>18.805128</ele>
        <time>2024-03-31T11:40:22.998Z</time>
      </trkpt>
      <trkpt lat="51.658829" lon="6.015473">
        <ele>18.803206</ele>
        <time>2024-03-31T11:40:24.998Z</time>
      </trkpt>
      <trkpt lat="51.658907" lon="6.015367">
        <ele>18.801804</ele>
        <time>2024-03-31T11:40:25.998Z</time>
      </trkpt>
      <trkpt lat="51.659045" lon="6.015234">
        <ele>18.799594</ele>
        <time>2024-03-31T11:40:27.998Z</time>
      </trkpt>
      <trkpt lat="51.659168" lon="6.015136">
        <ele>18.797708</ele>
        <time>2024-03-31T11:40:29.998Z</time>
      </trkpt>
      <trkpt lat="51.659294" lon="6.015031">
        <ele>18.795758</ele>
        <time>2024-03-31T11:40:31.998Z</time>
      </trkpt>
      <trkpt lat="51.659406" lon="6.014940">
        <ele>18.794034</ele>
        <time>2024-03-31T11:40:33.998Z</time>
      </trkpt>
      <trkpt lat="51.659527" lon="6.014848">
        <ele>18.792195</ele>
        <time>2024-03-31T11:40:35.998Z</time>
      </trkpt>
      <trkpt lat="51.659637" lon="6.014736">
        <ele>18.790407</ele>
        <time>2024-03-31T11:40:37.998Z</time>
      </trkpt>
      <trkpt lat="51.659743" lon="6.014649">
        <ele>18.772467</ele>
        <time>2024-03-31T11:40:39.998Z</time>
      </trkpt>
      <trkpt lat="51.659847" lon="6.014539">
        <ele>18.731706</ele>
        <time>2024-03-31T11:40:41.998Z</time>
      </trkpt>
      <trkpt lat="51.659973" lon="6.014438">
        <ele>18.685593</ele>
        <time>2024-03-31T11:40:43.998Z</time>
      </trkpt>
      <trkpt lat="51.660121" lon="6.014356">
        <ele>18.634309</ele>
        <time>2024-03-31T11:40:45.998Z</time>
      </trkpt>
      <trkpt lat="51.660233" lon="6.014231">
        <ele>18.589669</ele>
        <time>2024-03-31T11:40:47.998Z</time>
      </trkpt>
      <trkpt lat="51.660323" lon="6.014085">
        <ele>18.547829</ele>
        <time>2024-03-31T11:40:49.998Z</time>
      </trkpt>
      <trkpt lat="51.660406" lon="6.013955">
        <ele>18.509906</ele>
        <time>2024-03-31T11:40:51.998Z</time>
      </trkpt>
      <trkpt lat="51.660513" lon="6.013821">
        <ele>18.465505</ele>
        <time>2024-03-31T11:40:53.998Z</time>
      </trkpt>
      <trkpt lat="51.660626" lon="6.013700">
        <ele>18.421051</ele>
        <time>2024-03-31T11:40:55.998Z</time>
      </trkpt>
      <trkpt lat="51.660720" lon="6.013561">
        <ele>18.379251</ele>
        <time>2024-03-31T11:40:57.998Z</time>
      </trkpt>
      <trkpt lat="51.660829" lon="6.013413">
        <ele>18.332550</ele>
        <time>2024-03-31T11:40:59.998Z</time>
      </trkpt>
      <trkpt lat="51.660918" lon="6.013281">
        <ele>18.292919</ele>
        <time>2024-03-31T11:41:01.998Z</time>
      </trkpt>
      <trkpt lat="51.661014" lon="6.013151">
        <ele>18.251834</ele>
        <time>2024-03-31T11:41:03.998Z</time>
      </trkpt>
      <trkpt lat="51.661099" lon="6.013031">
        <ele>18.214809</ele>
        <time>2024-03-31T11:41:05.997Z</time>
      </trkpt>
      <trkpt lat="51.661183" lon="6.012899">
        <ele>18.224013</ele>
        <time>2024-03-31T11:41:07.997Z</time>
      </trkpt>
      <trkpt lat="51.661275" lon="6.012856">
        <ele>18.255711</ele>
        <time>2024-03-31T11:41:10.000Z</time>
      </trkpt>
      <trkpt lat="51.661392" lon="6.012759">
        <ele>18.299248</ele>
        <time>2024-03-31T11:41:12.000Z</time>
      </trkpt>
      <trkpt lat="51.661459" lon="6.012574">
        <ele>18.343221</ele>
        <time>2024-03-31T11:41:14.000Z</time>
      </trkpt>
      <trkpt lat="51.661531" lon="6.012402">
        <ele>18.385815</ele>
        <time>2024-03-31T11:41:16.000Z</time>
      </trkpt>
      <trkpt lat="51.661627" lon="6.012253">
        <ele>18.429913</ele>
        <time>2024-03-31T11:41:18.000Z</time>
      </trkpt>
      <trkpt lat="51.661717" lon="6.012089">
        <ele>18.474860</ele>
        <time>2024-03-31T11:41:20.000Z</time>
      </trkpt>
      <trkpt lat="51.661816" lon="6.011955">
        <ele>18.517636</ele>
        <time>2024-03-31T11:41:22.000Z</time>
      </trkpt>
      <trkpt lat="51.661899" lon="6.011798">
        <ele>18.559980</ele>
        <time>2024-03-31T11:41:24.000Z</time>
      </trkpt>
      <trkpt lat="51.661995" lon="6.011635">
        <ele>18.606117</ele>
        <time>2024-03-31T11:41:26.000Z</time>
      </trkpt>
      <trkpt lat="51.662094" lon="6.011485">
        <ele>18.651076</ele>
        <time>2024-03-31T11:41:28.000Z</time>
      </trkpt>
      <trkpt lat="51.662185" lon="6.011305">
        <ele>18.698741</ele>
        <time>2024-03-31T11:41:30.000Z</time>
      </trkpt>
      <trkpt lat="51.662275" lon="6.011129">
        <ele>18.745561</ele>
        <time>2024-03-31T11:41:32.000Z</time>
      </trkpt>
      <trkpt lat="51.662381" lon="6.010983">
        <ele>18.791697</ele>
        <time>2024-03-31T11:41:34.000Z</time>
      </trkpt>
      <trkpt lat="51.662465" lon="6.010809">
        <ele>18.726808</ele>
        <time>2024-03-31T11:41:36.000Z</time>
      </trkpt>
      <trkpt lat="51.662565" lon="6.010646">
        <ele>18.649513</ele>
        <time>2024-03-31T11:41:37.999Z</time>
      </trkpt>
      <trkpt lat="51.662664" lon="6.010491">
        <ele>18.574503</ele>
        <time>2024-03-31T11:41:39.999Z</time>
      </trkpt>
      <trkpt lat="51.662753" lon="6.010334">
        <ele>18.502795</ele>
        <time>2024-03-31T11:41:41.999Z</time>
      </trkpt>
      <trkpt lat="51.662845" lon="6.010178">
        <ele>18.430222</ele>
        <time>2024-03-31T11:41:43.999Z</time>
      </trkpt>
      <trkpt lat="51.662936" lon="6.010033">
        <ele>18.360678</ele>
        <time>2024-03-31T11:41:45.999Z</time>
      </trkpt>
      <trkpt lat="51.662967" lon="6.009873">
        <ele>18.304164</ele>
        <time>2024-03-31T11:41:47.999Z</time>
      </trkpt>
      <trkpt lat="51.663003" lon="6.009616">
        <ele>18.215334</ele>
        <time>2024-03-31T11:41:49.999Z</time>
      </trkpt>
      <trkpt lat="51.663039" lon="6.009402">
        <ele>18.140578</ele>
        <time>2024-03-31T11:41:51.999Z</time>
      </trkpt>
      <trkpt lat="51.663072" lon="6.009190">
        <ele>18.066887</ele>
        <time>2024-03-31T11:41:53.999Z</time>
      </trkpt>
      <trkpt lat="51.663108" lon="6.008975">
        <ele>17.991805</ele>
        <time>2024-03-31T11:41:55.999Z</time>
      </trkpt>
      <trkpt lat="51.663140" lon="6.008766">
        <ele>17.919226</ele>
        <time>2024-03-31T11:41:57.999Z</time>
      </trkpt>
      <trkpt lat="51.663173" lon="6.008555">
        <ele>17.845862</ele>
        <time>2024-03-31T11:41:59.999Z</time>
      </trkpt>
      <trkpt lat="51.663202" lon="6.008339">
        <ele>17.761236</ele>
        <time>2024-03-31T11:42:01.999Z</time>
      </trkpt>
      <trkpt lat="51.663246" lon="6.008120">
        <ele>17.666663</ele>
        <time>2024-03-31T11:42:03.999Z</time>
      </trkpt>
      <trkpt lat="51.663267" lon="6.007903">
        <ele>17.576436</ele>
        <time>2024-03-31T11:42:05.999Z</time>
      </trkpt>
      <trkpt lat="51.663304" lon="6.007676">
        <ele>17.480013</ele>
        <time>2024-03-31T11:42:07.999Z</time>
      </trkpt>
      <trkpt lat="51.663343" lon="6.007459">
        <ele>17.387197</ele>
        <time>2024-03-31T11:42:09.999Z</time>
      </trkpt>
      <trkpt lat="51.663376" lon="6.007246">
        <ele>17.297003</ele>
        <time>2024-03-31T11:42:11.999Z</time>
      </trkpt>
      <trkpt lat="51.663407" lon="6.007024">
        <ele>17.203518</ele>
        <time>2024-03-31T11:42:13.999Z</time>
      </trkpt>
      <trkpt lat="51.663443" lon="6.006815">
        <ele>17.114407</ele>
        <time>2024-03-31T11:42:15.999Z</time>
      </trkpt>
      <trkpt lat="51.663481" lon="6.006591">
        <ele>17.019003</ele>
        <time>2024-03-31T11:42:17.999Z</time>
      </trkpt>
      <trkpt lat="51.663524" lon="6.006363">
        <ele>16.921102</ele>
        <time>2024-03-31T11:42:19.999Z</time>
      </trkpt>
      <trkpt lat="51.663554" lon="6.006144">
        <ele>16.828964</ele>
        <time>2024-03-31T11:42:21.999Z</time>
      </trkpt>
      <trkpt lat="51.663599" lon="6.005905">
        <ele>16.726354</ele>
        <time>2024-03-31T11:42:23.999Z</time>
      </trkpt>
      <trkpt lat="51.663634" lon="6.005673">
        <ele>16.628265</ele>
        <time>2024-03-31T11:42:25.998Z</time>
      </trkpt>
      <trkpt lat="51.663669" lon="6.005435">
        <ele>16.708540</ele>
        <time>2024-03-31T11:42:27.998Z</time>
      </trkpt>
      <trkpt lat="51.663703" lon="6.005198">
        <ele>16.791836</ele>
        <time>2024-03-31T11:42:29.998Z</time>
      </trkpt>
      <trkpt lat="51.663736" lon="6.004965">
        <ele>16.873674</ele>
        <time>2024-03-31T11:42:31.998Z</time>
      </trkpt>
      <trkpt lat="51.663771" lon="6.004744">
        <ele>16.951776</ele>
        <time>2024-03-31T11:42:33.998Z</time>
      </trkpt>
      <trkpt lat="51.663806" lon="6.004501">
        <ele>17.037198</ele>
        <time>2024-03-31T11:42:35.998Z</time>
      </trkpt>
      <trkpt lat="51.663846" lon="6.004264">
        <ele>17.121303</ele>
        <time>2024-03-31T11:42:37.998Z</time>
      </trkpt>
      <trkpt lat="51.663883" lon="6.004036">
        <ele>17.202002</ele>
        <time>2024-03-31T11:42:39.998Z</time>
      </trkpt>
      <trkpt lat="51.663913" lon="6.003793">
        <ele>17.286842</ele>
        <time>2024-03-31T11:42:41.998Z</time>
      </trkpt>
      <trkpt lat="51.663951" lon="6.003558">
        <ele>17.370000</ele>
        <time>2024-03-31T11:42:43.998Z</time>
      </trkpt>
      <trkpt lat="51.664003" lon="6.003332">
        <ele>17.452540</ele>
        <time>2024-03-31T11:42:45.998Z</time>
      </trkpt>
      <trkpt lat="51.664042" lon="6.003095">
        <ele>17.536500</ele>
        <time>2024-03-31T11:42:47.998Z</time>
      </trkpt>
      <trkpt lat="51.664079" lon="6.002873">
        <ele>17.615213</ele>
        <time>2024-03-31T11:42:49.998Z</time>
      </trkpt>
      <trkpt lat="51.664118" lon="6.002636">
        <ele>17.668572</ele>
        <time>2024-03-31T11:42:51.998Z</time>
      </trkpt>
      <trkpt lat="51.664158" lon="6.002396">
        <ele>17.721065</ele>
        <time>2024-03-31T11:42:53.998Z</time>
      </trkpt>
      <trkpt lat="51.664182" lon="6.002153">
        <ele>17.773039</ele>
        <time>2024-03-31T11:42:55.998Z</time>
      </trkpt>
      <trkpt lat="51.664228" lon="6.001924">
        <ele>17.823883</ele>
        <time>2024-03-31T11:42:57.998Z</time>
      </trkpt>
      <trkpt lat="51.664278" lon="6.001709">
        <ele>17.872384</ele>
        <time>2024-03-31T11:42:59.998Z</time>
      </trkpt>
      <trkpt lat="51.664311" lon="6.001472">
        <ele>17.923690</ele>
        <time>2024-03-31T11:43:01.998Z</time>
      </trkpt>
      <trkpt lat="51.664353" lon="6.001231">
        <ele>17.976567</ele>
        <time>2024-03-31T11:43:03.998Z</time>
      </trkpt>
      <trkpt lat="51.664392" lon="6.001001">
        <ele>18.026931</ele>
        <time>2024-03-31T11:43:05.998Z</time>
      </trkpt>
      <trkpt lat="51.664434" lon="6.000767">
        <ele>18.078386</ele>
        <time>2024-03-31T11:43:07.998Z</time>
      </trkpt>
      <trkpt lat="51.664475" lon="6.000540">
        <ele>18.128325</ele>
        <time>2024-03-31T11:43:09.998Z</time>
      </trkpt>
      <trkpt lat="51.664521" lon="6.000295">
        <ele>18.182394</ele>
        <time>2024-03-31T11:43:11.997Z</time>
      </trkpt>
      <trkpt lat="51.664567" lon="6.000059">
        <ele>18.224578</ele>
        <time>2024-03-31T11:43:13.997Z</time>
      </trkpt>
      <trkpt lat="51.664609" lon="5.999853">
        <ele>18.107804</ele>
        <time>2024-03-31T11:43:16.000Z</time>
      </trkpt>
      <trkpt lat="51.664644" lon="5.999615">
        <ele>17.976083</ele>
        <time>2024-03-31T11:43:18.000Z</time>
      </trkpt>
      <trkpt lat="51.664699" lon="5.999390">
        <ele>17.845846</ele>
        <time>2024-03-31T11:43:20.000Z</time>
      </trkpt>
      <trkpt lat="51.664752" lon="5.999153">
        <ele>17.710175</ele>
        <time>2024-03-31T11:43:22.000Z</time>
      </trkpt>
      <trkpt lat="51.664804" lon="5.998919">
        <ele>17.576319</ele>
        <time>2024-03-31T11:43:24.000Z</time>
      </trkpt>
      <trkpt lat="51.664876" lon="5.998694">
        <ele>17.439977</ele>
        <time>2024-03-31T11:43:26.000Z</time>
      </trkpt>
      <trkpt lat="51.664938" lon="5.998456">
        <ele>17.300965</ele>
        <time>2024-03-31T11:43:28.000Z</time>
      </trkpt>
      <trkpt lat="51.664981" lon="5.998216">
        <ele>17.166437</ele>
        <time>2024-03-31T11:43:30.000Z</time>
      </trkpt>
      <trkpt lat="51.665054" lon="5.997990">
        <ele>17.029219</ele>
        <time>2024-03-31T11:43:32.000Z</time>
      </trkpt>
      <trkpt lat="51.665106" lon="5.997775">
        <ele>16.904947</ele>
        <time>2024-03-31T11:43:34.000Z</time>
      </trkpt>
      <trkpt lat="51.665155" lon="5.997571">
        <ele>16.787141</ele>
        <time>2024-03-31T11:43:36.000Z</time>
      </trkpt>
      <trkpt lat="51.665203" lon="5.997374">
        <ele>16.673162</ele>
        <time>2024-03-31T11:43:38.000Z</time>
      </trkpt>
      <trkpt lat="51.665248" lon="5.997179">
        <ele>16.651266</ele>
        <time>2024-03-31T11:43:40.000Z</time>
      </trkpt>
      <trkpt lat="51.665292" lon="5.996991">
        <ele>16.632478</ele>
        <time>2024-03-31T11:43:42.000Z</time>
      </trkpt>
      <trkpt lat="51.665335" lon="5.996832">
        <ele>16.616259</ele>
        <time>2024-03-31T11:43:44.000Z</time>
      </trkpt>
      <trkpt lat="51.665398" lon="5.996656">
        <ele>16.597259</ele>
        <time>2024-03-31T11:43:45.999Z</time>
      </trkpt>
      <trkpt lat="51.665454" lon="5.996499">
        <ele>16.580325</ele>
        <time>2024-03-31T11:43:47.999Z</time>
      </trkpt>
      <trkpt lat="51.665575" lon="5.996425">
        <ele>16.560817</ele>
        <time>2024-03-31T11:43:49.999Z</time>
      </trkpt>
      <trkpt lat="51.665671" lon="5.996371">
        <ele>16.545490</ele>
        <time>2024-03-31T11:43:51.999Z</time>
      </trkpt>
      <trkpt lat="51.665791" lon="5.996349">
        <ele>16.527283</ele>
        <time>2024-03-31T11:43:53.999Z</time>
      </trkpt>
      <trkpt lat="51.665905" lon="5.996403">
        <ele>16.509372</ele>
        <time>2024-03-31T11:43:55.999Z</time>
      </trkpt>
      <trkpt lat="51.665994" lon="5.996445">
        <ele>16.495392</ele>
        <time>2024-03-31T11:43:57.999Z</time>
      </trkpt>
      <trkpt lat="51.666091" lon="5.996441">
        <ele>16.480765</ele>
        <time>2024-03-31T11:43:59.999Z</time>
      </trkpt>
      <trkpt lat="51.666167" lon="5.996353">
        <ele>16.466660</ele>
        <time>2024-03-31T11:44:01.999Z</time>
      </trkpt>
      <trkpt lat="51.666251" lon="5.996284">
        <ele>16.452449</ele>
        <time>2024-03-31T11:44:03.999Z</time>
      </trkpt>
      <trkpt lat="51.666363" lon="5.996264">
        <ele>16.435462</ele>
        <time>2024-03-31T11:44:06.999Z</time>
      </trkpt>
      <trkpt lat="51.666472" lon="5.996275">
        <ele>16.418998</ele>
        <time>2024-03-31T11:44:08.999Z</time>
      </trkpt>
      <trkpt lat="51.666583" lon="5.996271">
        <ele>16.402261</ele>
        <time>2024-03-31T11:44:10.999Z</time>
      </trkpt>
      <trkpt lat="51.666691" lon="5.996195">
        <ele>16.354478</ele>
        <time>2024-03-31T11:44:12.999Z</time>
      </trkpt>
      <trkpt lat="51.666798" lon="5.996078">
        <ele>16.294831</ele>
        <time>2024-03-31T11:44:14.999Z</time>
      </trkpt>
      <trkpt lat="51.666881" lon="5.995918">
        <ele>16.235145</ele>
        <time>2024-03-31T11:44:16.999Z</time>
      </trkpt>
      <trkpt lat="51.666949" lon="5.995743">
        <ele>16.176053</ele>
        <time>2024-03-31T11:44:18.999Z</time>
      </trkpt>
      <trkpt lat="51.667013" lon="5.995567">
        <ele>16.117674</ele>
        <time>2024-03-31T11:44:20.999Z</time>
      </trkpt>
      <trkpt lat="51.667084" lon="5.995390">
        <ele>16.057357</ele>
        <time>2024-03-31T11:44:22.999Z</time>
      </trkpt>
      <trkpt lat="51.667189" lon="5.995255">
        <ele>15.995398</ele>
        <time>2024-03-31T11:44:24.999Z</time>
      </trkpt>
      <trkpt lat="51.667311" lon="5.995171">
        <ele>15.934196</ele>
        <time>2024-03-31T11:44:26.999Z</time>
      </trkpt>
      <trkpt lat="51.667445" lon="5.995143">
        <ele>15.871857</ele>
        <time>2024-03-31T11:44:28.999Z</time>
      </trkpt>
      <trkpt lat="51.667583" lon="5.995179">
        <ele>15.807363</ele>
        <time>2024-03-31T11:44:30.999Z</time>
      </trkpt>
      <trkpt lat="51.667715" lon="5.995283">
        <ele>15.739582</ele>
        <time>2024-03-31T11:44:32.998Z</time>
      </trkpt>
      <trkpt lat="51.667836" lon="5.995421">
        <ele>15.671204</ele>
        <time>2024-03-31T11:44:34.998Z</time>
      </trkpt>
      <trkpt lat="51.667970" lon="5.995559">
        <ele>15.597848</ele>
        <time>2024-03-31T11:44:36.998Z</time>
      </trkpt>
      <trkpt lat="51.668102" lon="5.995682">
        <ele>15.581127</ele>
        <time>2024-03-31T11:44:38.998Z</time>
      </trkpt>
      <trkpt lat="51.668242" lon="5.995762">
        <ele>15.600612</ele>
        <time>2024-03-31T11:44:40.998Z</time>
      </trkpt>
      <trkpt lat="51.668382" lon="5.995752">
        <ele>15.618997</ele>
        <time>2024-03-31T11:44:42.998Z</time>
      </trkpt>
      <trkpt lat="51.668517" lon="5.995732">
        <ele>15.636782</ele>
        <time>2024-03-31T11:44:44.998Z</time>
      </trkpt>
      <trkpt lat="51.668642" lon="5.995707">
        <ele>15.653306</ele>
        <time>2024-03-31T11:44:46.998Z</time>
      </trkpt>
      <trkpt lat="51.668732" lon="5.995550">
        <ele>15.670701</ele>
        <time>2024-03-31T11:44:48.998Z</time>
      </trkpt>
      <trkpt lat="51.668842" lon="5.995433">
        <ele>15.687988</ele>
        <time>2024-03-31T11:44:50.998Z</time>
      </trkpt>
      <trkpt lat="51.668965" lon="5.995330">
        <ele>15.706171</ele>
        <time>2024-03-31T11:44:52.998Z</time>
      </trkpt>
      <trkpt lat="51.669095" lon="5.995228">
        <ele>15.725138</ele>
        <time>2024-03-31T11:44:54.998Z</time>
      </trkpt>
      <trkpt lat="51.669234" lon="5.995096">
        <ele>15.746300</ele>
        <time>2024-03-31T11:44:56.998Z</time>
      </trkpt>
      <trkpt lat="51.669368" lon="5.995028">
        <ele>15.764730</ele>
        <time>2024-03-31T11:44:58.998Z</time>
      </trkpt>
      <trkpt lat="51.669511" lon="5.994942">
        <ele>15.784752</ele>
        <time>2024-03-31T11:45:00.998Z</time>
      </trkpt>
      <trkpt lat="51.669651" lon="5.994896">
        <ele>15.803496</ele>
        <time>2024-03-31T11:45:02.998Z</time>
      </trkpt>
      <trkpt lat="51.669779" lon="5.994874">
        <ele>15.821367</ele>
        <time>2024-03-31T11:45:04.998Z</time>
      </trkpt>
      <trkpt lat="51.669902" lon="5.994869">
        <ele>15.838557</ele>
        <time>2024-03-31T11:45:06.998Z</time>
      </trkpt>
      <trkpt lat="51.670008" lon="5.994928">
        <ele>15.854223</ele>
        <time>2024-03-31T11:45:08.998Z</time>
      </trkpt>
      <trkpt lat="51.670058" lon="5.995098">
        <ele>15.870524</ele>
        <time>2024-03-31T11:45:10.998Z</time>
      </trkpt>
      <trkpt lat="51.670054" lon="5.995303">
        <ele>15.888295</ele>
        <time>2024-03-31T11:45:12.998Z</time>
      </trkpt>
      <trkpt lat="51.670040" lon="5.995517">
        <ele>15.906939</ele>
        <time>2024-03-31T11:45:14.998Z</time>
      </trkpt>
      <trkpt lat="51.670035" lon="5.995736">
        <ele>15.925927</ele>
        <time>2024-03-31T11:45:16.998Z</time>
      </trkpt>
      <trkpt lat="51.670032" lon="5.995949">
        <ele>15.944387</ele>
        <time>2024-03-31T11:45:18.997Z</time>
      </trkpt>
      <trkpt lat="51.670033" lon="5.996161">
        <ele>15.962755</ele>
        <time>2024-03-31T11:45:20.997Z</time>
      </trkpt>
      <trkpt lat="51.670035" lon="5.996381">
        <ele>15.981819</ele>
        <time>2024-03-31T11:45:23.000Z</time>
      </trkpt>
      <trkpt lat="51.670042" lon="5.996597">
        <ele>16.000559</ele>
        <time>2024-03-31T11:45:25.000Z</time>
      </trkpt>
      <trkpt lat="51.670057" lon="5.996813">
        <ele>16.019391</ele>
        <time>2024-03-31T11:45:27.000Z</time>
      </trkpt>
      <trkpt lat="51.670072" lon="5.997029">
        <ele>16.038223</ele>
        <time>2024-03-31T11:45:29.000Z</time>
      </trkpt>
      <trkpt lat="51.670099" lon="5.997242">
        <ele>16.056494</ele>
        <time>2024-03-31T11:45:31.000Z</time>
      </trkpt>
      <trkpt lat="51.670122" lon="5.997454">
        <ele>16.056500</ele>
        <time>2024-03-31T11:45:33.000Z</time>
      </trkpt>
      <trkpt lat="51.670156" lon="5.997665">
        <ele>16.056505</ele>
        <time>2024-03-31T11:45:35.000Z</time>
      </trkpt>
      <trkpt lat="51.670201" lon="5.997868">
        <ele>16.056511</ele>
        <time>2024-03-31T11:45:37.000Z</time>
      </trkpt>
      <trkpt lat="51.670246" lon="5.998071">
        <ele>16.056516</ele>
        <time>2024-03-31T11:45:39.000Z</time>
      </trkpt>
      <trkpt lat="51.670298" lon="5.998271">
        <ele>16.056522</ele>
        <time>2024-03-31T11:45:41.000Z</time>
      </trkpt>
      <trkpt lat="51.670367" lon="5.998459">
        <ele>16.056528</ele>
        <time>2024-03-31T11:45:43.000Z</time>
      </trkpt>
      <trkpt lat="51.670444" lon="5.998621">
        <ele>16.056533</ele>
        <time>2024-03-31T11:45:45.000Z</time>
      </trkpt>
      <trkpt lat="51.670517" lon="5.998791">
        <ele>16.056538</ele>
        <time>2024-03-31T11:45:47.000Z</time>
      </trkpt>
      <trkpt lat="51.670584" lon="5.998937">
        <ele>16.056543</ele>
        <time>2024-03-31T11:45:49.000Z</time>
      </trkpt>
      <trkpt lat="51.670642" lon="5.999058">
        <ele>16.056547</ele>
        <time>2024-03-31T11:45:51.000Z</time>
      </trkpt>
      <trkpt lat="51.670706" lon="5.999213">
        <ele>16.056551</ele>
        <time>2024-03-31T11:45:53.999Z</time>
      </trkpt>
      <trkpt lat="51.670773" lon="5.999086">
        <ele>16.056556</ele>
        <time>2024-03-31T11:45:56.999Z</time>
      </trkpt>
      <trkpt lat="51.670749" lon="5.999303">
        <ele>16.056561</ele>
        <time>2024-03-31T11:45:57.999Z</time>
      </trkpt>
      <trkpt lat="51.670821" lon="5.999447">
        <ele>16.056566</ele>
        <time>2024-03-31T11:45:59.999Z</time>
      </trkpt>
      <trkpt lat="51.670891" lon="5.999594">
        <ele>16.033224</ele>
        <time>2024-03-31T11:46:01.999Z</time>
      </trkpt>
      <trkpt lat="51.670964" lon="5.999749">
        <ele>15.985472</ele>
        <time>2024-03-31T11:46:03.999Z</time>
      </trkpt>
      <trkpt lat="51.671039" lon="5.999905">
        <ele>15.937044</ele>
        <time>2024-03-31T11:46:05.999Z</time>
      </trkpt>
      <trkpt lat="51.671115" lon="6.000063">
        <ele>15.887985</ele>
        <time>2024-03-31T11:46:07.999Z</time>
      </trkpt>
      <trkpt lat="51.671196" lon="6.000227">
        <ele>15.836547</ele>
        <time>2024-03-31T11:46:09.999Z</time>
      </trkpt>
      <trkpt lat="51.671280" lon="6.000395">
        <ele>15.783601</ele>
        <time>2024-03-31T11:46:11.999Z</time>
      </trkpt>
      <trkpt lat="51.671362" lon="6.000560">
        <ele>15.731725</ele>
        <time>2024-03-31T11:46:13.999Z</time>
      </trkpt>
      <trkpt lat="51.671441" lon="6.000726">
        <ele>15.680388</ele>
        <time>2024-03-31T11:46:15.999Z</time>
      </trkpt>
      <trkpt lat="51.671520" lon="6.000892">
        <ele>15.629051</ele>
        <time>2024-03-31T11:46:17.999Z</time>
      </trkpt>
      <trkpt lat="51.671599" lon="6.001060">
        <ele>15.577324</ele>
        <time>2024-03-31T11:46:19.999Z</time>
      </trkpt>
      <trkpt lat="51.671680" lon="6.001231">
        <ele>15.524532</ele>
        <time>2024-03-31T11:46:21.999Z</time>
      </trkpt>
      <trkpt lat="51.671760" lon="6.001401">
        <ele>15.472175</ele>
        <time>2024-03-31T11:46:23.999Z</time>
      </trkpt>
      <trkpt lat="51.671840" lon="6.001574">
        <ele>15.419230</ele>
        <time>2024-03-31T11:46:25.999Z</time>
      </trkpt>
      <trkpt lat="51.671920" lon="6.001743">
        <ele>15.367068</ele>
        <time>2024-03-31T11:46:27.999Z</time>
      </trkpt>
      <trkpt lat="51.672002" lon="6.001911">
        <ele>15.342249</ele>
        <time>2024-03-31T11:46:29.999Z</time>
      </trkpt>
      <trkpt lat="51.672083" lon="6.002077">
        <ele>15.337548</ele>
        <time>2024-03-31T11:46:31.999Z</time>
      </trkpt>
      <trkpt lat="51.672164" lon="6.002243">
        <ele>15.332847</ele>
        <time>2024-03-31T11:46:33.999Z</time>
      </trkpt>
      <trkpt lat="51.672243" lon="6.002408">
        <ele>15.328207</ele>
        <time>2024-03-31T11:46:35.999Z</time>
      </trkpt>
      <trkpt lat="51.672324" lon="6.002572">
        <ele>15.323541</ele>
        <time>2024-03-31T11:46:37.998Z</time>
      </trkpt>
      <trkpt lat="51.672402" lon="6.002735">
        <ele>15.318959</ele>
        <time>2024-03-31T11:46:39.998Z</time>
      </trkpt>
      <trkpt lat="51.672478" lon="6.002898">
        <ele>15.314420</ele>
        <time>2024-03-31T11:46:41.998Z</time>
      </trkpt>
      <trkpt lat="51.672555" lon="6.003066">
        <ele>15.309771</ele>
        <time>2024-03-31T11:46:43.998Z</time>
      </trkpt>
      <trkpt lat="51.672632" lon="6.003235">
        <ele>15.305103</ele>
        <time>2024-03-31T11:46:45.998Z</time>
      </trkpt>
      <trkpt lat="51.672708" lon="6.003411">
        <ele>15.300330</ele>
        <time>2024-03-31T11:46:47.998Z</time>
      </trkpt>
      <trkpt lat="51.672779" lon="6.003586">
        <ele>15.295676</ele>
        <time>2024-03-31T11:46:49.998Z</time>
      </trkpt>
      <trkpt lat="51.672846" lon="6.003767">
        <ele>15.290984</ele>
        <time>2024-03-31T11:46:51.998Z</time>
      </trkpt>
      <trkpt lat="51.672909" lon="6.003959">
        <ele>15.286150</ele>
        <time>2024-03-31T11:46:53.998Z</time>
      </trkpt>
      <trkpt lat="51.672967" lon="6.004147">
        <ele>15.281477</ele>
        <time>2024-03-31T11:46:55.998Z</time>
      </trkpt>
      <trkpt lat="51.673021" lon="6.004337">
        <ele>15.295050</ele>
        <time>2024-03-31T11:46:57.998Z</time>
      </trkpt>
      <trkpt lat="51.673076" lon="6.004532">
        <ele>15.314216</ele>
        <time>2024-03-31T11:46:59.998Z</time>
      </trkpt>
      <trkpt lat="51.673130" lon="6.004727">
        <ele>15.333324</ele>
        <time>2024-03-31T11:47:01.998Z</time>
      </trkpt>
      <trkpt lat="51.673185" lon="6.004927">
        <ele>15.352898</ele>
        <time>2024-03-31T11:47:03.998Z</time>
      </trkpt>
      <trkpt lat="51.673240" lon="6.005126">
        <ele>15.372391</ele>
        <time>2024-03-31T11:47:05.998Z</time>
      </trkpt>
      <trkpt lat="51.673296" lon="6.005333">
        <ele>15.392597</ele>
        <time>2024-03-31T11:47:07.998Z</time>
      </trkpt>
      <trkpt lat="51.673352" lon="6.005535">
        <ele>15.412394</ele>
        <time>2024-03-31T11:47:09.998Z</time>
      </trkpt>
      <trkpt lat="51.673411" lon="6.005746">
        <ele>15.433103</ele>
        <time>2024-03-31T11:47:11.998Z</time>
      </trkpt>
      <trkpt lat="51.673468" lon="6.005949">
        <ele>15.453040</ele>
        <time>2024-03-31T11:47:13.998Z</time>
      </trkpt>
      <trkpt lat="51.673524" lon="6.006146">
        <ele>15.472429</ele>
        <time>2024-03-31T11:47:15.998Z</time>
      </trkpt>
      <trkpt lat="51.673581" lon="6.006348">
        <ele>15.492285</ele>
        <time>2024-03-31T11:47:17.998Z</time>
      </trkpt>
      <trkpt lat="51.673639" lon="6.006553">
        <ele>15.512446</ele>
        <time>2024-03-31T11:47:19.998Z</time>
      </trkpt>
      <trkpt lat="51.673699" lon="6.006765">
        <ele>15.533295</ele>
        <time>2024-03-31T11:47:21.998Z</time>
      </trkpt>
      <trkpt lat="51.673757" lon="6.006969">
        <ele>15.543997</ele>
        <time>2024-03-31T11:47:23.997Z</time>
      </trkpt>
      <trkpt lat="51.673817" lon="6.007182">
        <ele>15.550304</ele>
        <time>2024-03-31T11:47:25.997Z</time>
      </trkpt>
      <trkpt lat="51.673877" lon="6.007392">
        <ele>15.556537</ele>
        <time>2024-03-31T11:47:28.000Z</time>
      </trkpt>
      <trkpt lat="51.673938" lon="6.007606">
        <ele>15.562886</ele>
        <time>2024-03-31T11:47:30.000Z</time>
      </trkpt>
      <trkpt lat="51.673997" lon="6.007813">
        <ele>15.569028</ele>
        <time>2024-03-31T11:47:32.000Z</time>
      </trkpt>
      <trkpt lat="51.674056" lon="6.008017">
        <ele>15.575096</ele>
        <time>2024-03-31T11:47:34.000Z</time>
      </trkpt>
      <trkpt lat="51.674115" lon="6.008224">
        <ele>15.581237</ele>
        <time>2024-03-31T11:47:36.000Z</time>
      </trkpt>
      <trkpt lat="51.674177" lon="6.008442">
        <ele>15.587703</ele>
        <time>2024-03-31T11:47:38.000Z</time>
      </trkpt>
      <trkpt lat="51.674234" lon="6.008649">
        <ele>15.593809</ele>
        <time>2024-03-31T11:47:40.000Z</time>
      </trkpt>
      <trkpt lat="51.674296" lon="6.008871">
        <ele>15.600372</ele>
        <time>2024-03-31T11:47:42.000Z</time>
      </trkpt>
      <trkpt lat="51.674356" lon="6.009088">
        <ele>15.606777</ele>
        <time>2024-03-31T11:47:44.000Z</time>
      </trkpt>
      <trkpt lat="51.674416" lon="6.009301">
        <ele>15.613084</ele>
        <time>2024-03-31T11:47:46.000Z</time>
      </trkpt>
      <trkpt lat="51.674473" lon="6.009507">
        <ele>15.622895</ele>
        <time>2024-03-31T11:47:48.000Z</time>
      </trkpt>
      <trkpt lat="51.674533" lon="6.009716">
        <ele>15.651759</ele>
        <time>2024-03-31T11:47:50.000Z</time>
      </trkpt>
      <trkpt lat="51.674594" lon="6.009931">
        <ele>15.681390</ele>
        <time>2024-03-31T11:47:52.000Z</time>
      </trkpt>
      <trkpt lat="51.674656" lon="6.010148">
        <ele>15.711334</ele>
        <time>2024-03-31T11:47:54.000Z</time>
      </trkpt>
      <trkpt lat="51.674717" lon="6.010368">
        <ele>15.741536</ele>
        <time>2024-03-31T11:47:55.999Z</time>
      </trkpt>
      <trkpt lat="51.674778" lon="6.010582">
        <ele>15.771054</ele>
        <time>2024-03-31T11:47:57.999Z</time>
      </trkpt>
      <trkpt lat="51.674846" lon="6.010796">
        <ele>15.801190</ele>
        <time>2024-03-31T11:47:59.999Z</time>
      </trkpt>
      <trkpt lat="51.674934" lon="6.010991">
        <ele>15.831415</ele>
        <time>2024-03-31T11:48:01.999Z</time>
      </trkpt>
      <trkpt lat="51.675048" lon="6.011150">
        <ele>15.861876</ele>
        <time>2024-03-31T11:48:03.999Z</time>
      </trkpt>
      <trkpt lat="51.675186" lon="6.011267">
        <ele>15.893385</ele>
        <time>2024-03-31T11:48:05.999Z</time>
      </trkpt>
      <trkpt lat="51.675341" lon="6.011314">
        <ele>15.925259</ele>
        <time>2024-03-31T11:48:07.999Z</time>
      </trkpt>
      <trkpt lat="51.675486" lon="6.011310">
        <ele>15.954568</ele>
        <time>2024-03-31T11:48:09.999Z</time>
      </trkpt>
      <trkpt lat="51.675630" lon="6.011282">
        <ele>15.988138</ele>
        <time>2024-03-31T11:48:11.999Z</time>
      </trkpt>
      <trkpt lat="51.675758" lon="6.011254">
        <ele>16.063970</ele>
        <time>2024-03-31T11:48:13.999Z</time>
      </trkpt>
      <trkpt lat="51.675879" lon="6.011252">
        <ele>16.135009</ele>
        <time>2024-03-31T11:48:15.999Z</time>
      </trkpt>
      <trkpt lat="51.675988" lon="6.011293">
        <ele>16.200717</ele>
        <time>2024-03-31T11:48:17.999Z</time>
      </trkpt>
      <trkpt lat="51.676087" lon="6.011387">
        <ele>16.268162</ele>
        <time>2024-03-31T11:48:19.999Z</time>
      </trkpt>
      <trkpt lat="51.676156" lon="6.011490">
        <ele>16.323360</ele>
        <time>2024-03-31T11:48:21.999Z</time>
      </trkpt>
      <trkpt lat="51.676221" lon="6.011596">
        <ele>16.377630</ele>
        <time>2024-03-31T11:48:23.999Z</time>
      </trkpt>
      <trkpt lat="51.676300" lon="6.011672">
        <ele>16.431633</ele>
        <time>2024-03-31T11:48:26.999Z</time>
      </trkpt>
      <trkpt lat="51.676602" lon="6.011641">
        <ele>16.609286</ele>
        <time>2024-03-31T11:48:27.999Z</time>
      </trkpt>
      <trkpt lat="51.676575" lon="6.011396">
        <ele>16.699873</ele>
        <time>2024-03-31T11:48:28.999Z</time>
      </trkpt>
      <trkpt lat="51.676656" lon="6.011250">
        <ele>16.771189</ele>
        <time>2024-03-31T11:48:30.999Z</time>
      </trkpt>
      <trkpt lat="51.676741" lon="6.011085">
        <ele>16.849279</ele>
        <time>2024-03-31T11:48:32.999Z</time>
      </trkpt>
      <trkpt lat="51.676831" lon="6.010905">
        <ele>16.933454</ele>
        <time>2024-03-31T11:48:34.999Z</time>
      </trkpt>
      <trkpt lat="51.676919" lon="6.010723">
        <ele>17.017469</ele>
        <time>2024-03-31T11:48:36.999Z</time>
      </trkpt>
      <trkpt lat="51.677007" lon="6.010535">
        <ele>16.976600</ele>
        <time>2024-03-31T11:48:38.999Z</time>
      </trkpt>
      <trkpt lat="51.677094" lon="6.010345">
        <ele>16.896757</ele>
        <time>2024-03-31T11:48:40.998Z</time>
      </trkpt>
      <trkpt lat="51.677182" lon="6.010154">
        <ele>16.816318</ele>
        <time>2024-03-31T11:48:42.998Z</time>
      </trkpt>
      <trkpt lat="51.677272" lon="6.009958">
        <ele>16.733872</ele>
        <time>2024-03-31T11:48:44.998Z</time>
      </trkpt>
      <trkpt lat="51.677364" lon="6.009758">
        <ele>16.649690</ele>
        <time>2024-03-31T11:48:46.998Z</time>
      </trkpt>
      <trkpt lat="51.677455" lon="6.009562">
        <ele>16.566919</ele>
        <time>2024-03-31T11:48:48.998Z</time>
      </trkpt>
      <trkpt lat="51.677543" lon="6.009367">
        <ele>16.485391</ele>
        <time>2024-03-31T11:48:50.998Z</time>
      </trkpt>
      <trkpt lat="51.677633" lon="6.009169">
        <ele>16.402400</ele>
        <time>2024-03-31T11:48:52.998Z</time>
      </trkpt>
      <trkpt lat="51.677723" lon="6.008973">
        <ele>16.319955</ele>
        <time>2024-03-31T11:48:54.998Z</time>
      </trkpt>
      <trkpt lat="51.677812" lon="6.008776">
        <ele>16.237560</ele>
        <time>2024-03-31T11:48:56.998Z</time>
      </trkpt>
      <trkpt lat="51.677909" lon="6.008561">
        <ele>16.147678</ele>
        <time>2024-03-31T11:48:58.998Z</time>
      </trkpt>
      <trkpt lat="51.678002" lon="6.008357">
        <ele>16.062086</ele>
        <time>2024-03-31T11:49:00.998Z</time>
      </trkpt>
      <trkpt lat="51.678094" lon="6.008156">
        <ele>16.195064</ele>
        <time>2024-03-31T11:49:02.998Z</time>
      </trkpt>
      <trkpt lat="51.678187" lon="6.007956">
        <ele>16.342017</ele>
        <time>2024-03-31T11:49:04.998Z</time>
      </trkpt>
      <trkpt lat="51.678280" lon="6.007756">
        <ele>16.488969</ele>
        <time>2024-03-31T11:49:06.998Z</time>
      </trkpt>
      <trkpt lat="51.678371" lon="6.007562">
        <ele>16.631963</ele>
        <time>2024-03-31T11:49:08.998Z</time>
      </trkpt>
      <trkpt lat="51.678464" lon="6.007358">
        <ele>16.780803</ele>
        <time>2024-03-31T11:49:10.998Z</time>
      </trkpt>
      <trkpt lat="51.678558" lon="6.007153">
        <ele>16.930679</ele>
        <time>2024-03-31T11:49:12.998Z</time>
      </trkpt>
      <trkpt lat="51.678655" lon="6.006946">
        <ele>17.083198</ele>
        <time>2024-03-31T11:49:14.998Z</time>
      </trkpt>
      <trkpt lat="51.678744" lon="6.006725">
        <ele>17.238103</ele>
        <time>2024-03-31T11:49:16.998Z</time>
      </trkpt>
      <trkpt lat="51.678848" lon="6.006531">
        <ele>17.388852</ele>
        <time>2024-03-31T11:49:18.998Z</time>
      </trkpt>
      <trkpt lat="51.678946" lon="6.006318">
        <ele>17.544763</ele>
        <time>2024-03-31T11:49:20.998Z</time>
      </trkpt>
      <trkpt lat="51.679045" lon="6.006103">
        <ele>17.702182</ele>
        <time>2024-03-31T11:49:22.998Z</time>
      </trkpt>
      <trkpt lat="51.679143" lon="6.005889">
        <ele>17.727885</ele>
        <time>2024-03-31T11:49:24.998Z</time>
      </trkpt>
      <trkpt lat="51.679237" lon="6.005686">
        <ele>17.674977</ele>
        <time>2024-03-31T11:49:26.997Z</time>
      </trkpt>
      <trkpt lat="51.679334" lon="6.005476">
        <ele>17.620293</ele>
        <time>2024-03-31T11:49:28.997Z</time>
      </trkpt>
      <trkpt lat="51.679430" lon="6.005269">
        <ele>17.566312</ele>
        <time>2024-03-31T11:49:30.997Z</time>
      </trkpt>
      <trkpt lat="51.679529" lon="6.005055">
        <ele>17.510556</ele>
        <time>2024-03-31T11:49:32.997Z</time>
      </trkpt>
      <trkpt lat="51.679624" lon="6.004849">
        <ele>17.456945</ele>
        <time>2024-03-31T11:49:35.000Z</time>
      </trkpt>
      <trkpt lat="51.679722" lon="6.004644">
        <ele>17.402890</ele>
        <time>2024-03-31T11:49:37.000Z</time>
      </trkpt>
      <trkpt lat="51.679809" lon="6.004469">
        <ele>17.356050</ele>
        <time>2024-03-31T11:49:39.000Z</time>
      </trkpt>
      <trkpt lat="51.679911" lon="6.004281">
        <ele>17.303883</ele>
        <time>2024-03-31T11:49:41.000Z</time>
      </trkpt>
      <trkpt lat="51.680026" lon="6.004111">
        <ele>17.251345</ele>
        <time>2024-03-31T11:49:43.000Z</time>
      </trkpt>
      <trkpt lat="51.680158" lon="6.003949">
        <ele>17.195482</ele>
        <time>2024-03-31T11:49:45.000Z</time>
      </trkpt>
      <trkpt lat="51.680277" lon="6.003839">
        <ele>17.158349</ele>
        <time>2024-03-31T11:49:47.000Z</time>
      </trkpt>
      <trkpt lat="51.680422" lon="6.003737">
        <ele>17.173078</ele>
        <time>2024-03-31T11:49:49.000Z</time>
      </trkpt>
      <trkpt lat="51.680572" lon="6.003659">
        <ele>17.187752</ele>
        <time>2024-03-31T11:49:51.000Z</time>
      </trkpt>
      <trkpt lat="51.680720" lon="6.003618">
        <ele>17.201733</ele>
        <time>2024-03-31T11:49:53.000Z</time>
      </trkpt>
      <trkpt lat="51.680878" lon="6.003604">
        <ele>17.216466</ele>
        <time>2024-03-31T11:49:55.000Z</time>
      </trkpt>
      <trkpt lat="51.681038" lon="6.003610">
        <ele>17.231367</ele>
        <time>2024-03-31T11:49:57.000Z</time>
      </trkpt>
      <trkpt lat="51.681206" lon="6.003628">
        <ele>17.247043</ele>
        <time>2024-03-31T11:49:58.999Z</time>
      </trkpt>
      <trkpt lat="51.681362" lon="6.003650">
        <ele>17.261623</ele>
        <time>2024-03-31T11:50:00.999Z</time>
      </trkpt>
      <trkpt lat="51.681518" lon="6.003675">
        <ele>17.276219</ele>
        <time>2024-03-31T11:50:02.999Z</time>
      </trkpt>
      <trkpt lat="51.681682" lon="6.003691">
        <ele>17.291516</ele>
        <time>2024-03-31T11:50:04.999Z</time>
      </trkpt>
      <trkpt lat="51.681853" lon="6.003682">
        <ele>17.307446</ele>
        <time>2024-03-31T11:50:06.999Z</time>
      </trkpt>
      <trkpt lat="51.682022" lon="6.003646">
        <ele>17.323317</ele>
        <time>2024-03-31T11:50:08.999Z</time>
      </trkpt>
      <trkpt lat="51.682184" lon="6.003580">
        <ele>17.250730</ele>
        <time>2024-03-31T11:50:10.999Z</time>
      </trkpt>
      <trkpt lat="51.682335" lon="6.003516">
        <ele>17.179982</ele>
        <time>2024-03-31T11:50:12.999Z</time>
      </trkpt>
      <trkpt lat="51.682476" lon="6.003487">
        <ele>17.115570</ele>
        <time>2024-03-31T11:50:14.999Z</time>
      </trkpt>
      <trkpt lat="51.682624" lon="6.003503">
        <ele>17.048354</ele>
        <time>2024-03-31T11:50:16.999Z</time>
      </trkpt>
      <trkpt lat="51.682776" lon="6.003552">
        <ele>16.978113</ele>
        <time>2024-03-31T11:50:18.999Z</time>
      </trkpt>
      <trkpt lat="51.682923" lon="6.003629">
        <ele>16.908075</ele>
        <time>2024-03-31T11:50:20.999Z</time>
      </trkpt>
      <trkpt lat="51.683075" lon="6.003726">
        <ele>16.834001</ele>
        <time>2024-03-31T11:50:22.999Z</time>
      </trkpt>
      <trkpt lat="51.683231" lon="6.003825">
        <ele>16.758034</ele>
        <time>2024-03-31T11:50:24.999Z</time>
      </trkpt>
      <trkpt lat="51.683387" lon="6.003902">
        <ele>16.684107</ele>
        <time>2024-03-31T11:50:26.999Z</time>
      </trkpt>
      <trkpt lat="51.683547" lon="6.003947">
        <ele>16.610509</ele>
        <time>2024-03-31T11:50:28.999Z</time>
      </trkpt>
      <trkpt lat="51.683716" lon="6.003960">
        <ele>16.533840</ele>
        <time>2024-03-31T11:50:30.999Z</time>
      </trkpt>
      <trkpt lat="51.683872" lon="6.003960">
        <ele>16.438004</ele>
        <time>2024-03-31T11:50:32.999Z</time>
      </trkpt>
      <trkpt lat="51.684029" lon="6.003955">
        <ele>16.327649</ele>
        <time>2024-03-31T11:50:34.999Z</time>
      </trkpt>
      <trkpt lat="51.684187" lon="6.003954">
        <ele>16.216613</ele>
        <time>2024-03-31T11:50:36.999Z</time>
      </trkpt>
      <trkpt lat="51.684338" lon="6.003964">
        <ele>16.110407</ele>
        <time>2024-03-31T11:50:38.999Z</time>
      </trkpt>
      <trkpt lat="51.684480" lon="6.003992">
        <ele>16.009873</ele>
        <time>2024-03-31T11:50:40.999Z</time>
      </trkpt>
      <trkpt lat="51.684624" lon="6.004032">
        <ele>15.907186</ele>
        <time>2024-03-31T11:50:42.999Z</time>
      </trkpt>
      <trkpt lat="51.684772" lon="6.004094">
        <ele>15.799727</ele>
        <time>2024-03-31T11:50:44.998Z</time>
      </trkpt>
      <trkpt lat="51.684919" lon="6.004179">
        <ele>15.689984</ele>
        <time>2024-03-31T11:50:46.998Z</time>
      </trkpt>
      <trkpt lat="51.685063" lon="6.004266">
        <ele>15.581921</ele>
        <time>2024-03-31T11:50:48.998Z</time>
      </trkpt>
      <trkpt lat="51.685205" lon="6.004355">
        <ele>15.474861</ele>
        <time>2024-03-31T11:50:50.998Z</time>
      </trkpt>
      <trkpt lat="51.685346" lon="6.004445">
        <ele>15.368295</ele>
        <time>2024-03-31T11:50:52.998Z</time>
      </trkpt>
      <trkpt lat="51.685485" lon="6.004530">
        <ele>15.263827</ele>
        <time>2024-03-31T11:50:54.998Z</time>
      </trkpt>
      <trkpt lat="51.685625" lon="6.004614">
        <ele>15.425778</ele>
        <time>2024-03-31T11:50:56.998Z</time>
      </trkpt>
      <trkpt lat="51.685770" lon="6.004696">
        <ele>15.653201</ele>
        <time>2024-03-31T11:50:58.998Z</time>
      </trkpt>
      <trkpt lat="51.685916" lon="6.004777">
        <ele>15.881720</ele>
        <time>2024-03-31T11:51:00.998Z</time>
      </trkpt>
      <trkpt lat="51.686064" lon="6.004854">
        <ele>16.111888</ele>
        <time>2024-03-31T11:51:02.998Z</time>
      </trkpt>
      <trkpt lat="51.686211" lon="6.004928">
        <ele>16.339812</ele>
        <time>2024-03-31T11:51:04.998Z</time>
      </trkpt>
      <trkpt lat="51.686352" lon="6.004997">
        <ele>16.557899</ele>
        <time>2024-03-31T11:51:06.998Z</time>
      </trkpt>
      <trkpt lat="51.686505" lon="6.005070">
        <ele>16.794053</ele>
        <time>2024-03-31T11:51:08.998Z</time>
      </trkpt>
      <trkpt lat="51.686654" lon="6.005142">
        <ele>17.024271</ele>
        <time>2024-03-31T11:51:10.998Z</time>
      </trkpt>
      <trkpt lat="51.686804" lon="6.005212">
        <ele>17.255391</ele>
        <time>2024-03-31T11:51:12.998Z</time>
      </trkpt>
      <trkpt lat="51.686955" lon="6.005282">
        <ele>17.487932</ele>
        <time>2024-03-31T11:51:14.998Z</time>
      </trkpt>
      <trkpt lat="51.687103" lon="6.005350">
        <ele>17.715700</ele>
        <time>2024-03-31T11:51:16.998Z</time>
      </trkpt>
      <trkpt lat="51.687250" lon="6.005419">
        <ele>17.887028</ele>
        <time>2024-03-31T11:51:18.998Z</time>
      </trkpt>
      <trkpt lat="51.687398" lon="6.005489">
        <ele>17.758325</ele>
        <time>2024-03-31T11:51:20.998Z</time>
      </trkpt>
      <trkpt lat="51.687552" lon="6.005561">
        <ele>17.624525</ele>
        <time>2024-03-31T11:51:22.998Z</time>
      </trkpt>
      <trkpt lat="51.687700" lon="6.005631">
        <ele>17.495822</ele>
        <time>2024-03-31T11:51:24.998Z</time>
      </trkpt>
      <trkpt lat="51.687853" lon="6.005703">
        <ele>17.362823</ele>
        <time>2024-03-31T11:51:26.998Z</time>
      </trkpt>
      <trkpt lat="51.688003" lon="6.005774">
        <ele>17.232373</ele>
        <time>2024-03-31T11:51:28.998Z</time>
      </trkpt>
      <trkpt lat="51.688149" lon="6.005840">
        <ele>17.105844</ele>
        <time>2024-03-31T11:51:30.997Z</time>
      </trkpt>
      <trkpt lat="51.688294" lon="6.005906">
        <ele>16.980119</ele>
        <time>2024-03-31T11:51:32.997Z</time>
      </trkpt>
      <trkpt lat="51.688448" lon="6.005970">
        <ele>16.847412</ele>
        <time>2024-03-31T11:51:34.997Z</time>
      </trkpt>
      <trkpt lat="51.688595" lon="6.006027">
        <ele>16.721248</ele>
        <time>2024-03-31T11:51:36.997Z</time>
      </trkpt>
      <trkpt lat="51.688744" lon="6.006079">
        <ele>16.594033</ele>
        <time>2024-03-31T11:51:38.997Z</time>
      </trkpt>
      <trkpt lat="51.688895" lon="6.006127">
        <ele>16.465603</ele>
        <time>2024-03-31T11:51:41.000Z</time>
      </trkpt>
      <trkpt lat="51.689048" lon="6.006170">
        <ele>16.488331</ele>
        <time>2024-03-31T11:51:43.000Z</time>
      </trkpt>
      <trkpt lat="51.689191" lon="6.006205">
        <ele>16.630234</ele>
        <time>2024-03-31T11:51:45.000Z</time>
      </trkpt>
      <trkpt lat="51.689347" lon="6.006233">
        <ele>16.784231</ele>
        <time>2024-03-31T11:51:47.000Z</time>
      </trkpt>
      <trkpt lat="51.689494" lon="6.006257">
        <ele>16.929190</ele>
        <time>2024-03-31T11:51:49.000Z</time>
      </trkpt>
      <trkpt lat="51.689640" lon="6.006276">
        <ele>17.072896</ele>
        <time>2024-03-31T11:51:51.000Z</time>
      </trkpt>
      <trkpt lat="51.689777" lon="6.006295">
        <ele>17.207803</ele>
        <time>2024-03-31T11:51:53.000Z</time>
      </trkpt>
      <trkpt lat="51.689909" lon="6.006311">
        <ele>17.337674</ele>
        <time>2024-03-31T11:51:55.000Z</time>
      </trkpt>
      <trkpt lat="51.690040" lon="6.006326">
        <ele>17.466522</ele>
        <time>2024-03-31T11:51:57.000Z</time>
      </trkpt>
      <trkpt lat="51.690171" lon="6.006341">
        <ele>17.595370</ele>
        <time>2024-03-31T11:51:59.000Z</time>
      </trkpt>
      <trkpt lat="51.690299" lon="6.006355">
        <ele>17.721239</ele>
        <time>2024-03-31T11:52:01.000Z</time>
      </trkpt>
      <trkpt lat="51.690426" lon="6.006368">
        <ele>17.846090</ele>
        <time>2024-03-31T11:52:03.000Z</time>
      </trkpt>
      <trkpt lat="51.690546" lon="6.006382">
        <ele>17.964130</ele>
        <time>2024-03-31T11:52:04.999Z</time>
      </trkpt>
      <trkpt lat="51.690657" lon="6.006397">
        <ele>18.073414</ele>
        <time>2024-03-31T11:52:06.999Z</time>
      </trkpt>
      <trkpt lat="51.690781" lon="6.006414">
        <ele>18.147384</ele>
        <time>2024-03-31T11:52:09.999Z</time>
      </trkpt>
      <trkpt lat="51.690856" lon="6.005939">
        <ele>17.867881</ele>
        <time>2024-03-31T11:52:14.999Z</time>
      </trkpt>
      <trkpt lat="51.690884" lon="6.005763">
        <ele>17.764271</ele>
        <time>2024-03-31T11:52:16.999Z</time>
      </trkpt>
      <trkpt lat="51.690916" lon="6.005574">
        <ele>17.652552</ele>
        <time>2024-03-31T11:52:18.999Z</time>
      </trkpt>
      <trkpt lat="51.690946" lon="6.005382">
        <ele>17.539646</ele>
        <time>2024-03-31T11:52:20.999Z</time>
      </trkpt>
      <trkpt lat="51.690979" lon="6.005170">
        <ele>17.415007</ele>
        <time>2024-03-31T11:52:22.999Z</time>
      </trkpt>
      <trkpt lat="51.691015" lon="6.004954">
        <ele>17.287466</ele>
        <time>2024-03-31T11:52:24.999Z</time>
      </trkpt>
      <trkpt lat="51.691031" lon="6.004750">
        <ele>17.170215</ele>
        <time>2024-03-31T11:52:26.999Z</time>
      </trkpt>
      <trkpt lat="51.691076" lon="6.004547">
        <ele>17.047282</ele>
        <time>2024-03-31T11:52:28.999Z</time>
      </trkpt>
      <trkpt lat="51.691107" lon="6.004335">
        <ele>16.923079</ele>
        <time>2024-03-31T11:52:30.999Z</time>
      </trkpt>
      <trkpt lat="51.691148" lon="6.004117">
        <ele>16.793177</ele>
        <time>2024-03-31T11:52:32.999Z</time>
      </trkpt>
      <trkpt lat="51.691193" lon="6.003898">
        <ele>16.661618</ele>
        <time>2024-03-31T11:52:34.999Z</time>
      </trkpt>
      <trkpt lat="51.691235" lon="6.003671">
        <ele>16.526537</ele>
        <time>2024-03-31T11:52:36.999Z</time>
      </trkpt>
      <trkpt lat="51.691269" lon="6.003461">
        <ele>16.568904</ele>
        <time>2024-03-31T11:52:38.999Z</time>
      </trkpt>
      <trkpt lat="51.691315" lon="6.003229">
        <ele>16.633460</ele>
        <time>2024-03-31T11:52:40.999Z</time>
      </trkpt>
      <trkpt lat="51.691349" lon="6.003008">
        <ele>16.693809</ele>
        <time>2024-03-31T11:52:42.999Z</time>
      </trkpt>
      <trkpt lat="51.691382" lon="6.002793">
        <ele>16.752511</ele>
        <time>2024-03-31T11:52:44.999Z</time>
      </trkpt>
      <trkpt lat="51.691422" lon="6.002574">
        <ele>16.813020</ele>
        <time>2024-03-31T11:52:46.999Z</time>
      </trkpt>
      <trkpt lat="51.691455" lon="6.002355">
        <ele>16.872752</ele>
        <time>2024-03-31T11:52:48.999Z</time>
      </trkpt>
      <trkpt lat="51.691491" lon="6.002127">
        <ele>16.935109</ele>
        <time>2024-03-31T11:52:50.998Z</time>
      </trkpt>
      <trkpt lat="51.691520" lon="6.001899">
        <ele>16.996794</ele>
        <time>2024-03-31T11:52:52.998Z</time>
      </trkpt>
      <trkpt lat="51.691555" lon="6.001673">
        <ele>17.058532</ele>
        <time>2024-03-31T11:52:54.998Z</time>
      </trkpt>
      <trkpt lat="51.691602" lon="6.001448">
        <ele>17.121459</ele>
        <time>2024-03-31T11:52:56.998Z</time>
      </trkpt>
      <trkpt lat="51.691640" lon="6.001205">
        <ele>17.187878</ele>
        <time>2024-03-31T11:52:58.998Z</time>
      </trkpt>
      <trkpt lat="51.691678" lon="6.000941">
        <ele>17.259708</ele>
        <time>2024-03-31T11:53:00.998Z</time>
      </trkpt>
      <trkpt lat="51.691719" lon="6.000685">
        <ele>17.285750</ele>
        <time>2024-03-31T11:53:02.998Z</time>
      </trkpt>
      <trkpt lat="51.691761" lon="6.000435">
        <ele>17.286624</ele>
        <time>2024-03-31T11:53:04.998Z</time>
      </trkpt>
      <trkpt lat="51.691802" lon="6.000184">
        <ele>17.287500</ele>
        <time>2024-03-31T11:53:06.998Z</time>
      </trkpt>
      <trkpt lat="51.691836" lon="5.999962">
        <ele>17.288271</ele>
        <time>2024-03-31T11:53:08.998Z</time>
      </trkpt>
      <trkpt lat="51.691871" lon="5.999712">
        <ele>17.289135</ele>
        <time>2024-03-31T11:53:10.998Z</time>
      </trkpt>
      <trkpt lat="51.691916" lon="5.999467">
        <ele>17.289997</ele>
        <time>2024-03-31T11:53:12.998Z</time>
      </trkpt>
      <trkpt lat="51.691955" lon="5.999222">
        <ele>17.290850</ele>
        <time>2024-03-31T11:53:14.998Z</time>
      </trkpt>
      <trkpt lat="51.691984" lon="5.999008">
        <ele>17.291589</ele>
        <time>2024-03-31T11:53:16.998Z</time>
      </trkpt>
      <trkpt lat="51.692030" lon="5.998779">
        <ele>17.292401</ele>
        <time>2024-03-31T11:53:18.998Z</time>
      </trkpt>
      <trkpt lat="51.692070" lon="5.998550">
        <ele>17.293203</ele>
        <time>2024-03-31T11:53:20.998Z</time>
      </trkpt>
      <trkpt lat="51.692103" lon="5.998310">
        <ele>17.294032</ele>
        <time>2024-03-31T11:53:22.998Z</time>
      </trkpt>
      <trkpt lat="51.692140" lon="5.998067">
        <ele>17.294876</ele>
        <time>2024-03-31T11:53:24.998Z</time>
      </trkpt>
      <trkpt lat="51.692179" lon="5.997827">
        <ele>17.111366</ele>
        <time>2024-03-31T11:53:26.998Z</time>
      </trkpt>
      <trkpt lat="51.692233" lon="5.997604">
        <ele>16.912131</ele>
        <time>2024-03-31T11:53:28.998Z</time>
      </trkpt>
      <trkpt lat="51.692273" lon="5.997372">
        <ele>16.711735</ele>
        <time>2024-03-31T11:53:30.998Z</time>
      </trkpt>
      <trkpt lat="51.692311" lon="5.997147">
        <ele>16.517668</ele>
        <time>2024-03-31T11:53:32.998Z</time>
      </trkpt>
      <trkpt lat="51.692337" lon="5.996906">
        <ele>16.314097</ele>
        <time>2024-03-31T11:53:34.998Z</time>
      </trkpt>
      <trkpt lat="51.692374" lon="5.996693">
        <ele>16.130014</ele>
        <time>2024-03-31T11:53:36.997Z</time>
      </trkpt>
      <trkpt lat="51.692408" lon="5.996498">
        <ele>15.961441</ele>
        <time>2024-03-31T11:53:38.997Z</time>
      </trkpt>
      <trkpt lat="51.692458" lon="5.996287">
        <ele>15.773458</ele>
        <time>2024-03-31T11:53:40.997Z</time>
      </trkpt>
      <trkpt lat="51.692482" lon="5.996060">
        <ele>15.581824</ele>
        <time>2024-03-31T11:53:42.997Z</time>
      </trkpt>
      <trkpt lat="51.692516" lon="5.995875">
        <ele>15.421247</ele>
        <time>2024-03-31T11:53:44.997Z</time>
      </trkpt>
      <trkpt lat="51.692539" lon="5.995734">
        <ele>15.299915</ele>
        <time>2024-03-31T11:53:47.000Z</time>
      </trkpt>
      <trkpt lat="51.692775" lon="5.995704">
        <ele>14.982106</ele>
        <time>2024-03-31T11:53:53.000Z</time>
      </trkpt>
      <trkpt lat="51.692871" lon="5.995752">
        <ele>14.926996</ele>
        <time>2024-03-31T11:53:55.000Z</time>
      </trkpt>
      <trkpt lat="51.692962" lon="5.995761">
        <ele>15.099393</ele>
        <time>2024-03-31T11:53:57.000Z</time>
      </trkpt>
      <trkpt lat="51.693063" lon="5.995788">
        <ele>15.292980</ele>
        <time>2024-03-31T11:54:00.000Z</time>
      </trkpt>
      <trkpt lat="51.693167" lon="5.995799">
        <ele>15.490057</ele>
        <time>2024-03-31T11:54:04.000Z</time>
      </trkpt>
      <trkpt lat="51.693287" lon="5.995806">
        <ele>15.717116</ele>
        <time>2024-03-31T11:54:08.000Z</time>
      </trkpt>
      <trkpt lat="51.693409" lon="5.995855">
        <ele>15.954850</ele>
        <time>2024-03-31T11:54:11.999Z</time>
      </trkpt>
      <trkpt lat="51.693517" lon="5.995903">
        <ele>16.166677</ele>
        <time>2024-03-31T11:54:14.999Z</time>
      </trkpt>
      <trkpt lat="51.693594" lon="5.996000">
        <ele>16.351410</ele>
        <time>2024-03-31T11:54:17.999Z</time>
      </trkpt>
      <trkpt lat="51.693702" lon="5.996064">
        <ele>16.568971</ele>
        <time>2024-03-31T11:54:21.999Z</time>
      </trkpt>
      <trkpt lat="51.693816" lon="5.996057">
        <ele>16.784691</ele>
        <time>2024-03-31T11:54:24.999Z</time>
      </trkpt>
      <trkpt lat="51.693921" lon="5.996111">
        <ele>16.993082</ele>
        <time>2024-03-31T11:54:27.999Z</time>
      </trkpt>
      <trkpt lat="51.694030" lon="5.996103">
        <ele>17.199405</ele>
        <time>2024-03-31T11:54:30.999Z</time>
      </trkpt>
      <trkpt lat="51.694156" lon="5.996161">
        <ele>17.447170</ele>
        <time>2024-03-31T11:54:33.999Z</time>
      </trkpt>
      <trkpt lat="51.694252" lon="5.996174">
        <ele>17.629336</ele>
        <time>2024-03-31T11:54:35.999Z</time>
      </trkpt>
      <trkpt lat="51.694341" lon="5.996222">
        <ele>17.806783</ele>
        <time>2024-03-31T11:54:37.999Z</time>
      </trkpt>
      <trkpt lat="51.694442" lon="5.996253">
        <ele>18.001191</ele>
        <time>2024-03-31T11:54:41.999Z</time>
      </trkpt>
      <trkpt lat="51.694542" lon="5.996252">
        <ele>18.190287</ele>
        <time>2024-03-31T11:54:46.999Z</time>
      </trkpt>
      <trkpt lat="51.694642" lon="5.996238">
        <ele>18.216510</ele>
        <time>2024-03-31T11:54:50.999Z</time>
      </trkpt>
      <trkpt lat="51.694752" lon="5.996232">
        <ele>18.079653</ele>
        <time>2024-03-31T11:54:54.998Z</time>
      </trkpt>
      <trkpt lat="51.694827" lon="5.996334">
        <ele>17.957678</ele>
        <time>2024-03-31T11:54:57.998Z</time>
      </trkpt>
      <trkpt lat="51.694963" lon="5.996379">
        <ele>17.785049</ele>
        <time>2024-03-31T11:54:59.998Z</time>
      </trkpt>
      <trkpt lat="51.695054" lon="5.996327">
        <ele>17.665007</ele>
        <time>2024-03-31T11:55:01.998Z</time>
      </trkpt>
      <trkpt lat="51.695183" lon="5.996348">
        <ele>17.503787</ele>
        <time>2024-03-31T11:55:04.998Z</time>
      </trkpt>
      <trkpt lat="51.695291" lon="5.996352">
        <ele>17.369459</ele>
        <time>2024-03-31T11:55:07.998Z</time>
      </trkpt>
      <trkpt lat="51.695381" lon="5.996464">
        <ele>17.228124</ele>
        <time>2024-03-31T11:55:10.998Z</time>
      </trkpt>
      <trkpt lat="51.695394" lon="5.996661">
        <ele>17.075430</ele>
        <time>2024-03-31T11:55:13.998Z</time>
      </trkpt>
      <trkpt lat="51.695393" lon="5.996853">
        <ele>16.927442</ele>
        <time>2024-03-31T11:55:16.998Z</time>
      </trkpt>
      <trkpt lat="51.695444" lon="5.996975">
        <ele>16.814026</ele>
        <time>2024-03-31T11:55:20.998Z</time>
      </trkpt>
      <trkpt lat="51.695534" lon="5.996919">
        <ele>16.694080</ele>
        <time>2024-03-31T11:55:23.998Z</time>
      </trkpt>
      <trkpt lat="51.695622" lon="5.996838">
        <ele>16.568100</ele>
        <time>2024-03-31T11:55:26.998Z</time>
      </trkpt>
      <trkpt lat="51.695730" lon="5.996732">
        <ele>16.410909</ele>
        <time>2024-03-31T11:55:30.998Z</time>
      </trkpt>
      <trkpt lat="51.695836" lon="5.996689">
        <ele>16.275001</ele>
        <time>2024-03-31T11:55:33.998Z</time>
      </trkpt>
      <trkpt lat="51.695931" lon="5.996658">
        <ele>16.154481</ele>
        <time>2024-03-31T11:55:36.998Z</time>
      </trkpt>
      <trkpt lat="51.696055" lon="5.996672">
        <ele>16.037968</ele>
        <time>2024-03-31T11:55:40.997Z</time>
      </trkpt>
      <trkpt lat="51.696140" lon="5.996617">
        <ele>16.020456</ele>
        <time>2024-03-31T11:55:42.997Z</time>
      </trkpt>
      <trkpt lat="51.696178" lon="5.996481">
        <ele>16.002775</ele>
        <time>2024-03-31T11:55:44.997Z</time>
      </trkpt>
      <trkpt lat="51.696223" lon="5.996312">
        <ele>15.980975</ele>
        <time>2024-03-31T11:55:47.997Z</time>
      </trkpt>
      <trkpt lat="51.696288" lon="5.996205">
        <ele>15.963218</ele>
        <time>2024-03-31T11:55:49.997Z</time>
      </trkpt>
      <trkpt lat="51.696362" lon="5.996023">
        <ele>15.937420</ele>
        <time>2024-03-31T11:55:53.000Z</time>
      </trkpt>
      <trkpt lat="51.696412" lon="5.995838">
        <ele>15.913500</ele>
        <time>2024-03-31T11:55:56.000Z</time>
      </trkpt>
      <trkpt lat="51.696450" lon="5.995641">
        <ele>15.889047</ele>
        <time>2024-03-31T11:55:59.000Z</time>
      </trkpt>
      <trkpt lat="51.696485" lon="5.995499">
        <ele>15.870935</ele>
        <time>2024-03-31T11:56:01.000Z</time>
      </trkpt>
      <trkpt lat="51.696529" lon="5.995285">
        <ele>15.844213</ele>
        <time>2024-03-31T11:56:04.000Z</time>
      </trkpt>
      <trkpt lat="51.696572" lon="5.995150">
        <ele>15.826224</ele>
        <time>2024-03-31T11:56:06.000Z</time>
      </trkpt>
      <trkpt lat="51.696687" lon="5.995064">
        <ele>15.801986</ele>
        <time>2024-03-31T11:56:09.000Z</time>
      </trkpt>
      <trkpt lat="51.696773" lon="5.995130">
        <ele>15.783776</ele>
        <time>2024-03-31T11:56:11.000Z</time>
      </trkpt>
      <trkpt lat="51.696864" lon="5.995168">
        <ele>15.765802</ele>
        <time>2024-03-31T11:56:13.000Z</time>
      </trkpt>
      <trkpt lat="51.696965" lon="5.995215">
        <ele>15.745702</ele>
        <time>2024-03-31T11:56:15.000Z</time>
      </trkpt>
      <trkpt lat="51.697066" lon="5.995235">
        <ele>15.726244</ele>
        <time>2024-03-31T11:56:16.999Z</time>
      </trkpt>
      <trkpt lat="51.697175" lon="5.995288">
        <ele>15.704476</ele>
        <time>2024-03-31T11:56:19.999Z</time>
      </trkpt>
      <trkpt lat="51.697204" lon="5.995453">
        <ele>15.637196</ele>
        <time>2024-03-31T11:56:22.999Z</time>
      </trkpt>
      <trkpt lat="51.697168" lon="5.995592">
        <ele>15.569456</ele>
        <time>2024-03-31T11:56:24.999Z</time>
      </trkpt>
      <trkpt lat="51.697203" lon="5.995781">
        <ele>15.480757</ele>
        <time>2024-03-31T11:56:27.999Z</time>
      </trkpt>
      <trkpt lat="51.697291" lon="5.995866">
        <ele>15.406349</ele>
        <time>2024-03-31T11:56:29.999Z</time>
      </trkpt>
      <trkpt lat="51.697382" lon="5.995960">
        <ele>15.327959</ele>
        <time>2024-03-31T11:56:31.999Z</time>
      </trkpt>
      <trkpt lat="51.697479" lon="5.996057">
        <ele>15.245166</ele>
        <time>2024-03-31T11:56:33.999Z</time>
      </trkpt>
      <trkpt lat="51.697572" lon="5.996155">
        <ele>15.164581</ele>
        <time>2024-03-31T11:56:35.999Z</time>
      </trkpt>
      <trkpt lat="51.697675" lon="5.996252">
        <ele>15.078059</ele>
        <time>2024-03-31T11:56:37.999Z</time>
      </trkpt>
      <trkpt lat="51.697769" lon="5.996358">
        <ele>14.994858</ele>
        <time>2024-03-31T11:56:39.999Z</time>
      </trkpt>
      <trkpt lat="51.697867" lon="5.996464">
        <ele>14.909263</ele>
        <time>2024-03-31T11:56:41.999Z</time>
      </trkpt>
      <trkpt lat="51.697970" lon="5.996566">
        <ele>14.821586</ele>
        <time>2024-03-31T11:56:43.999Z</time>
      </trkpt>
      <trkpt lat="51.698071" lon="5.996670">
        <ele>14.734662</ele>
        <time>2024-03-31T11:56:45.999Z</time>
      </trkpt>
      <trkpt lat="51.698176" lon="5.996775">
        <ele>14.645042</ele>
        <time>2024-03-31T11:56:47.999Z</time>
      </trkpt>
      <trkpt lat="51.698277" lon="5.996873">
        <ele>14.559539</ele>
        <time>2024-03-31T11:56:49.999Z</time>
      </trkpt>
      <trkpt lat="51.698377" lon="5.996969">
        <ele>14.475120</ele>
        <time>2024-03-31T11:56:51.999Z</time>
      </trkpt>
      <trkpt lat="51.698475" lon="5.997075">
        <ele>14.393453</ele>
        <time>2024-03-31T11:56:53.999Z</time>
      </trkpt>
      <trkpt lat="51.698575" lon="5.997194">
        <ele>14.357306</ele>
        <time>2024-03-31T11:56:55.999Z</time>
      </trkpt>
      <trkpt lat="51.698683" lon="5.997299">
        <ele>14.320625</ele>
        <time>2024-03-31T11:56:57.999Z</time>
      </trkpt>
      <trkpt lat="51.698791" lon="5.997412">
        <ele>14.283179</ele>
        <time>2024-03-31T11:56:59.999Z</time>
      </trkpt>
      <trkpt lat="51.698901" lon="5.997526">
        <ele>14.245147</ele>
        <time>2024-03-31T11:57:01.999Z</time>
      </trkpt>
      <trkpt lat="51.699012" lon="5.997645">
        <ele>14.206378</ele>
        <time>2024-03-31T11:57:03.998Z</time>
      </trkpt>
      <trkpt lat="51.699131" lon="5.997765">
        <ele>14.165555</ele>
        <time>2024-03-31T11:57:05.998Z</time>
      </trkpt>
      <trkpt lat="51.699252" lon="5.997882">
        <ele>14.124519</ele>
        <time>2024-03-31T11:57:07.998Z</time>
      </trkpt>
      <trkpt lat="51.699372" lon="5.997996">
        <ele>14.084008</ele>
        <time>2024-03-31T11:57:09.998Z</time>
      </trkpt>
      <trkpt lat="51.699484" lon="5.998117">
        <ele>14.044797</ele>
        <time>2024-03-31T11:57:11.998Z</time>
      </trkpt>
      <trkpt lat="51.699601" lon="5.998232">
        <ele>14.004943</ele>
        <time>2024-03-31T11:57:13.998Z</time>
      </trkpt>
      <trkpt lat="51.699715" lon="5.998350">
        <ele>13.965542</ele>
        <time>2024-03-31T11:57:15.998Z</time>
      </trkpt>
      <trkpt lat="51.699827" lon="5.998468">
        <ele>13.926630</ele>
        <time>2024-03-31T11:57:17.998Z</time>
      </trkpt>
      <trkpt lat="51.699935" lon="5.998588">
        <ele>13.888483</ele>
        <time>2024-03-31T11:57:19.998Z</time>
      </trkpt>
      <trkpt lat="51.700048" lon="5.998702">
        <ele>13.884807</ele>
        <time>2024-03-31T11:57:21.998Z</time>
      </trkpt>
      <trkpt lat="51.700154" lon="5.998815">
        <ele>13.903914</ele>
        <time>2024-03-31T11:57:23.998Z</time>
      </trkpt>
      <trkpt lat="51.700252" lon="5.998915">
        <ele>13.921352</ele>
        <time>2024-03-31T11:57:25.998Z</time>
      </trkpt>
      <trkpt lat="51.700329" lon="5.999007">
        <ele>13.935761</ele>
        <time>2024-03-31T11:57:27.998Z</time>
      </trkpt>
      <trkpt lat="51.700415" lon="5.999103">
        <ele>13.951488</ele>
        <time>2024-03-31T11:57:30.998Z</time>
      </trkpt>
      <trkpt lat="51.700515" lon="5.999192">
        <ele>13.968663</ele>
        <time>2024-03-31T11:57:34.998Z</time>
      </trkpt>
      <trkpt lat="51.700584" lon="5.999077">
        <ele>13.983582</ele>
        <time>2024-03-31T11:57:37.998Z</time>
      </trkpt>
      <trkpt lat="51.700590" lon="5.998881">
        <ele>14.001873</ele>
        <time>2024-03-31T11:57:39.998Z</time>
      </trkpt>
      <trkpt lat="51.700615" lon="5.998680">
        <ele>14.020981</ele>
        <time>2024-03-31T11:57:41.998Z</time>
      </trkpt>
      <trkpt lat="51.700649" lon="5.998467">
        <ele>14.041482</ele>
        <time>2024-03-31T11:57:43.998Z</time>
      </trkpt>
      <trkpt lat="51.700687" lon="5.998256">
        <ele>14.061962</ele>
        <time>2024-03-31T11:57:45.998Z</time>
      </trkpt>
      <trkpt lat="51.700719" lon="5.998034">
        <ele>14.083206</ele>
        <time>2024-03-31T11:57:47.998Z</time>
      </trkpt>
      <trkpt lat="51.700759" lon="5.997811">
        <ele>14.104844</ele>
        <time>2024-03-31T11:57:49.997Z</time>
      </trkpt>
      <trkpt lat="51.700801" lon="5.997589">
        <ele>14.126479</ele>
        <time>2024-03-31T11:57:51.997Z</time>
      </trkpt>
      <trkpt lat="51.700854" lon="5.997365">
        <ele>14.147149</ele>
        <time>2024-03-31T11:57:53.997Z</time>
      </trkpt>
      <trkpt lat="51.700919" lon="5.997148">
        <ele>14.162739</ele>
        <time>2024-03-31T11:57:55.997Z</time>
      </trkpt>
      <trkpt lat="51.701006" lon="5.996940">
        <ele>14.178971</ele>
        <time>2024-03-31T11:57:58.000Z</time>
      </trkpt>
      <trkpt lat="51.701134" lon="5.996790">
        <ele>14.195482</ele>
        <time>2024-03-31T11:58:00.000Z</time>
      </trkpt>
      <trkpt lat="51.701226" lon="5.996583">
        <ele>14.211959</ele>
        <time>2024-03-31T11:58:02.000Z</time>
      </trkpt>
      <trkpt lat="51.701315" lon="5.996378">
        <ele>14.228149</ele>
        <time>2024-03-31T11:58:04.000Z</time>
      </trkpt>
      <trkpt lat="51.701408" lon="5.996167">
        <ele>14.244897</ele>
        <time>2024-03-31T11:58:06.000Z</time>
      </trkpt>
      <trkpt lat="51.701500" lon="5.995962">
        <ele>14.261269</ele>
        <time>2024-03-31T11:58:08.000Z</time>
      </trkpt>
      <trkpt lat="51.701592" lon="5.995760">
        <ele>14.277484</ele>
        <time>2024-03-31T11:58:10.000Z</time>
      </trkpt>
      <trkpt lat="51.701684" lon="5.995555">
        <ele>14.293856</ele>
        <time>2024-03-31T11:58:12.000Z</time>
      </trkpt>
      <trkpt lat="51.701777" lon="5.995343">
        <ele>14.310657</ele>
        <time>2024-03-31T11:58:14.000Z</time>
      </trkpt>
      <trkpt lat="51.701866" lon="5.995144">
        <ele>14.326530</ele>
        <time>2024-03-31T11:58:16.000Z</time>
      </trkpt>
      <trkpt lat="51.701956" lon="5.994942">
        <ele>14.340317</ele>
        <time>2024-03-31T11:58:18.000Z</time>
      </trkpt>
      <trkpt lat="51.702050" lon="5.994736">
        <ele>14.353562</ele>
        <time>2024-03-31T11:58:20.000Z</time>
      </trkpt>
      <trkpt lat="51.702140" lon="5.994534">
        <ele>14.366444</ele>
        <time>2024-03-31T11:58:22.000Z</time>
      </trkpt>
      <trkpt lat="51.702228" lon="5.994337">
        <ele>14.379017</ele>
        <time>2024-03-31T11:58:23.999Z</time>
      </trkpt>
      <trkpt lat="51.702317" lon="5.994141">
        <ele>14.391598</ele>
        <time>2024-03-31T11:58:25.999Z</time>
      </trkpt>
      <trkpt lat="51.702404" lon="5.993947">
        <ele>14.403996</ele>
        <time>2024-03-31T11:58:27.999Z</time>
      </trkpt>
      <trkpt lat="51.702484" lon="5.993767">
        <ele>14.415465</ele>
        <time>2024-03-31T11:58:29.999Z</time>
      </trkpt>
      <trkpt lat="51.702574" lon="5.993567">
        <ele>14.428262</ele>
        <time>2024-03-31T11:58:31.999Z</time>
      </trkpt>
      <trkpt lat="51.702654" lon="5.993385">
        <ele>14.439815</ele>
        <time>2024-03-31T11:58:33.999Z</time>
      </trkpt>
      <trkpt lat="51.702739" lon="5.993198">
        <ele>14.451822</ele>
        <time>2024-03-31T11:58:35.999Z</time>
      </trkpt>
      <trkpt lat="51.702820" lon="5.993016">
        <ele>14.463423</ele>
        <time>2024-03-31T11:58:37.999Z</time>
      </trkpt>
      <trkpt lat="51.702894" lon="5.992849">
        <ele>14.474053</ele>
        <time>2024-03-31T11:58:39.999Z</time>
      </trkpt>
      <trkpt lat="51.702969" lon="5.992690">
        <ele>14.478717</ele>
        <time>2024-03-31T11:58:41.999Z</time>
      </trkpt>
      <trkpt lat="51.703044" lon="5.992537">
        <ele>14.470075</ele>
        <time>2024-03-31T11:58:43.999Z</time>
      </trkpt>
      <trkpt lat="51.703115" lon="5.992372">
        <ele>14.461176</ele>
        <time>2024-03-31T11:58:45.999Z</time>
      </trkpt>
      <trkpt lat="51.703189" lon="5.992203">
        <ele>14.452010</ele>
        <time>2024-03-31T11:58:47.999Z</time>
      </trkpt>
      <trkpt lat="51.703268" lon="5.992027">
        <ele>14.442383</ele>
        <time>2024-03-31T11:58:49.999Z</time>
      </trkpt>
      <trkpt lat="51.703349" lon="5.991849">
        <ele>14.432600</ele>
        <time>2024-03-31T11:58:51.999Z</time>
      </trkpt>
      <trkpt lat="51.703426" lon="5.991698">
        <ele>14.423938</ele>
        <time>2024-03-31T11:58:53.999Z</time>
      </trkpt>
      <trkpt lat="51.703514" lon="5.991569">
        <ele>14.415439</ele>
        <time>2024-03-31T11:58:55.999Z</time>
      </trkpt>
      <trkpt lat="51.703602" lon="5.991486">
        <ele>14.408153</ele>
        <time>2024-03-31T11:58:57.999Z</time>
      </trkpt>
      <trkpt lat="51.703682" lon="5.991413">
        <ele>14.401583</ele>
        <time>2024-03-31T11:58:59.999Z</time>
      </trkpt>
      <trkpt lat="51.703779" lon="5.991336">
        <ele>14.393856</ele>
        <time>2024-03-31T11:59:02.999Z</time>
      </trkpt>
      <trkpt lat="51.703864" lon="5.991281">
        <ele>14.387310</ele>
        <time>2024-03-31T11:59:06.999Z</time>
      </trkpt>
      <trkpt lat="51.703767" lon="5.990827">
        <ele>14.366037</ele>
        <time>2024-03-31T11:59:09.999Z</time>
      </trkpt>
      <trkpt lat="51.703730" lon="5.990666">
        <ele>14.358430</ele>
        <time>2024-03-31T11:59:11.998Z</time>
      </trkpt>
      <trkpt lat="51.703660" lon="5.990519">
        <ele>14.337897</ele>
        <time>2024-03-31T11:59:13.998Z</time>
      </trkpt>
      <trkpt lat="51.703600" lon="5.990352">
        <ele>14.288028</ele>
        <time>2024-03-31T11:59:15.998Z</time>
      </trkpt>
      <trkpt lat="51.703549" lon="5.990153">
        <ele>14.232395</ele>
        <time>2024-03-31T11:59:17.998Z</time>
      </trkpt>
      <trkpt lat="51.703502" lon="5.989955">
        <ele>14.177619</ele>
        <time>2024-03-31T11:59:19.998Z</time>
      </trkpt>
      <trkpt lat="51.703454" lon="5.989752">
        <ele>14.121488</ele>
        <time>2024-03-31T11:59:21.998Z</time>
      </trkpt>
      <trkpt lat="51.703386" lon="5.989554">
        <ele>14.063007</ele>
        <time>2024-03-31T11:59:23.998Z</time>
      </trkpt>
      <trkpt lat="51.703330" lon="5.989347">
        <ele>14.004657</ele>
        <time>2024-03-31T11:59:25.998Z</time>
      </trkpt>
      <trkpt lat="51.703272" lon="5.989139">
        <ele>13.945732</ele>
        <time>2024-03-31T11:59:27.998Z</time>
      </trkpt>
      <trkpt lat="51.703246" lon="5.988914">
        <ele>13.886603</ele>
        <time>2024-03-31T11:59:29.998Z</time>
      </trkpt>
      <trkpt lat="51.703185" lon="5.988702">
        <ele>13.826219</ele>
        <time>2024-03-31T11:59:31.998Z</time>
      </trkpt>
      <trkpt lat="51.703100" lon="5.988523">
        <ele>13.767961</ele>
        <time>2024-03-31T11:59:33.998Z</time>
      </trkpt>
      <trkpt lat="51.703038" lon="5.988315">
        <ele>13.708333</ele>
        <time>2024-03-31T11:59:35.998Z</time>
      </trkpt>
      <trkpt lat="51.702978" lon="5.988106">
        <ele>13.648827</ele>
        <time>2024-03-31T11:59:37.998Z</time>
      </trkpt>
      <trkpt lat="51.702919" lon="5.987892">
        <ele>13.615210</ele>
        <time>2024-03-31T11:59:39.998Z</time>
      </trkpt>
      <trkpt lat="51.702865" lon="5.987680">
        <ele>13.664589</ele>
        <time>2024-03-31T11:59:41.998Z</time>
      </trkpt>
      <trkpt lat="51.702794" lon="5.987476">
        <ele>13.714994</ele>
        <time>2024-03-31T11:59:43.998Z</time>
      </trkpt>
      <trkpt lat="51.702735" lon="5.987257">
        <ele>13.766440</ele>
        <time>2024-03-31T11:59:45.998Z</time>
      </trkpt>
      <trkpt lat="51.702676" lon="5.987036">
        <ele>13.818281</ele>
        <time>2024-03-31T11:59:47.998Z</time>
      </trkpt>
      <trkpt lat="51.702615" lon="5.986827">
        <ele>13.868051</ele>
        <time>2024-03-31T11:59:49.998Z</time>
      </trkpt>
      <trkpt lat="51.702558" lon="5.986600">
        <ele>13.920817</ele>
        <time>2024-03-31T11:59:51.998Z</time>
      </trkpt>
      <trkpt lat="51.702492" lon="5.986395">
        <ele>13.970586</ele>
        <time>2024-03-31T11:59:53.998Z</time>
      </trkpt>
      <trkpt lat="51.702430" lon="5.986185">
        <ele>14.020699</ele>
        <time>2024-03-31T11:59:55.998Z</time>
      </trkpt>
      <trkpt lat="51.702366" lon="5.985980">
        <ele>14.070151</ele>
        <time>2024-03-31T11:59:57.997Z</time>
      </trkpt>
      <trkpt lat="51.702304" lon="5.985771">
        <ele>14.120070</ele>
        <time>2024-03-31T11:59:59.997Z</time>
      </trkpt>
      <trkpt lat="51.702247" lon="5.985573">
        <ele>14.167104</ele>
        <time>2024-03-31T12:00:01.997Z</time>
      </trkpt>
      <trkpt lat="51.702197" lon="5.985368">
        <ele>14.214567</ele>
        <time>2024-03-31T12:00:04.000Z</time>
      </trkpt>
      <trkpt lat="51.702168" lon="5.985156">
        <ele>14.233525</ele>
        <time>2024-03-31T12:00:06.000Z</time>
      </trkpt>
      <trkpt lat="51.702149" lon="5.984943">
        <ele>14.240937</ele>
        <time>2024-03-31T12:00:08.000Z</time>
      </trkpt>
      <trkpt lat="51.702140" lon="5.984722">
        <ele>14.248566</ele>
        <time>2024-03-31T12:00:10.000Z</time>
      </trkpt>
      <trkpt lat="51.702152" lon="5.984500">
        <ele>14.256242</ele>
        <time>2024-03-31T12:00:12.000Z</time>
      </trkpt>
      <trkpt lat="51.702180" lon="5.984278">
        <ele>14.264045</ele>
        <time>2024-03-31T12:00:14.000Z</time>
      </trkpt>
      <trkpt lat="51.702217" lon="5.984052">
        <ele>14.272097</ele>
        <time>2024-03-31T12:00:16.000Z</time>
      </trkpt>
      <trkpt lat="51.702245" lon="5.983818">
        <ele>14.280305</ele>
        <time>2024-03-31T12:00:18.000Z</time>
      </trkpt>
      <trkpt lat="51.702280" lon="5.983595">
        <ele>14.288229</ele>
        <time>2024-03-31T12:00:20.000Z</time>
      </trkpt>
      <trkpt lat="51.702315" lon="5.983371">
        <ele>14.296186</ele>
        <time>2024-03-31T12:00:22.000Z</time>
      </trkpt>
      <trkpt lat="51.702363" lon="5.983142">
        <ele>14.304513</ele>
        <time>2024-03-31T12:00:24.000Z</time>
      </trkpt>
      <trkpt lat="51.702423" lon="5.982921">
        <ele>14.312823</ele>
        <time>2024-03-31T12:00:26.000Z</time>
      </trkpt>
      <trkpt lat="51.702460" lon="5.982706">
        <ele>14.320509</ele>
        <time>2024-03-31T12:00:27.999Z</time>
      </trkpt>
      <trkpt lat="51.702466" lon="5.982449">
        <ele>14.321237</ele>
        <time>2024-03-31T12:00:29.999Z</time>
      </trkpt>
      <trkpt lat="51.702485" lon="5.982218">
        <ele>14.273506</ele>
        <time>2024-03-31T12:00:31.999Z</time>
      </trkpt>
      <trkpt lat="51.702549" lon="5.981997">
        <ele>14.223540</ele>
        <time>2024-03-31T12:00:33.999Z</time>
      </trkpt>
      <trkpt lat="51.702640" lon="5.981789">
        <ele>14.171388</ele>
        <time>2024-03-31T12:00:35.999Z</time>
      </trkpt>
      <trkpt lat="51.702739" lon="5.981587">
        <ele>14.118638</ele>
        <time>2024-03-31T12:00:37.999Z</time>
      </trkpt>
      <trkpt lat="51.702842" lon="5.981394">
        <ele>14.066468</ele>
        <time>2024-03-31T12:00:39.999Z</time>
      </trkpt>
      <trkpt lat="51.702929" lon="5.981198">
        <ele>14.017086</ele>
        <time>2024-03-31T12:00:41.999Z</time>
      </trkpt>
      <trkpt lat="51.703024" lon="5.981010">
        <ele>13.967400</ele>
        <time>2024-03-31T12:00:43.999Z</time>
      </trkpt>
      <trkpt lat="51.703131" lon="5.980843">
        <ele>13.918199</ele>
        <time>2024-03-31T12:00:45.999Z</time>
      </trkpt>
      <trkpt lat="51.703217" lon="5.980643">
        <ele>13.868338</ele>
        <time>2024-03-31T12:00:47.999Z</time>
      </trkpt>
      <trkpt lat="51.703295" lon="5.980430">
        <ele>13.817663</ele>
        <time>2024-03-31T12:00:49.999Z</time>
      </trkpt>
      <trkpt lat="51.703372" lon="5.980215">
        <ele>13.766800</ele>
        <time>2024-03-31T12:00:51.999Z</time>
      </trkpt>
      <trkpt lat="51.703467" lon="5.980017">
        <ele>13.737320</ele>
        <time>2024-03-31T12:00:53.999Z</time>
      </trkpt>
      <trkpt lat="51.703561" lon="5.979812">
        <ele>13.747617</ele>
        <time>2024-03-31T12:00:55.999Z</time>
      </trkpt>
      <trkpt lat="51.703648" lon="5.979612">
        <ele>13.757483</ele>
        <time>2024-03-31T12:00:57.999Z</time>
      </trkpt>
      <trkpt lat="51.703735" lon="5.979399">
        <ele>13.767784</ele>
        <time>2024-03-31T12:00:59.999Z</time>
      </trkpt>
      <trkpt lat="51.703822" lon="5.979195">
        <ele>13.777783</ele>
        <time>2024-03-31T12:01:01.999Z</time>
      </trkpt>
      <trkpt lat="51.703910" lon="5.978994">
        <ele>13.787720</ele>
        <time>2024-03-31T12:01:03.999Z</time>
      </trkpt>
      <trkpt lat="51.703996" lon="5.978788">
        <ele>13.797749</ele>
        <time>2024-03-31T12:01:05.999Z</time>
      </trkpt>
      <trkpt lat="51.704078" lon="5.978576">
        <ele>13.807840</ele>
        <time>2024-03-31T12:01:07.999Z</time>
      </trkpt>
      <trkpt lat="51.704166" lon="5.978372">
        <ele>13.817876</ele>
        <time>2024-03-31T12:01:09.999Z</time>
      </trkpt>
      <trkpt lat="51.704251" lon="5.978168">
        <ele>13.827802</ele>
        <time>2024-03-31T12:01:11.998Z</time>
      </trkpt>
      <trkpt lat="51.704336" lon="5.977963">
        <ele>13.837761</ele>
        <time>2024-03-31T12:01:13.998Z</time>
      </trkpt>
      <trkpt lat="51.704424" lon="5.977763">
        <ele>13.847665</ele>
        <time>2024-03-31T12:01:15.998Z</time>
      </trkpt>
      <trkpt lat="51.704513" lon="5.977561">
        <ele>13.902543</ele>
        <time>2024-03-31T12:01:17.998Z</time>
      </trkpt>
      <trkpt lat="51.704601" lon="5.977360">
        <ele>13.978497</ele>
        <time>2024-03-31T12:01:19.998Z</time>
      </trkpt>
      <trkpt lat="51.704687" lon="5.977155">
        <ele>14.054901</ele>
        <time>2024-03-31T12:01:21.998Z</time>
      </trkpt>
      <trkpt lat="51.704776" lon="5.976955">
        <ele>14.130892</ele>
        <time>2024-03-31T12:01:23.998Z</time>
      </trkpt>
      <trkpt lat="51.704859" lon="5.976750">
        <ele>14.206468</ele>
        <time>2024-03-31T12:01:25.998Z</time>
      </trkpt>
      <trkpt lat="51.704952" lon="5.976552">
        <ele>14.283146</ele>
        <time>2024-03-31T12:01:27.998Z</time>
      </trkpt>
      <trkpt lat="51.705045" lon="5.976348">
        <ele>14.361307</ele>
        <time>2024-03-31T12:01:29.998Z</time>
      </trkpt>
      <trkpt lat="51.705140" lon="5.976148">
        <ele>14.439080</ele>
        <time>2024-03-31T12:01:31.998Z</time>
      </trkpt>
      <trkpt lat="51.705229" lon="5.975941">
        <ele>14.516836</ele>
        <time>2024-03-31T12:01:33.998Z</time>
      </trkpt>
      <trkpt lat="51.705314" lon="5.975735">
        <ele>14.593217</ele>
        <time>2024-03-31T12:01:35.998Z</time>
      </trkpt>
      <trkpt lat="51.705397" lon="5.975524">
        <ele>14.670349</ele>
        <time>2024-03-31T12:01:37.998Z</time>
      </trkpt>
      <trkpt lat="51.705482" lon="5.975313">
        <ele>14.746854</ele>
        <time>2024-03-31T12:01:39.998Z</time>
      </trkpt>
      <trkpt lat="51.705560" lon="5.975105">
        <ele>14.756409</ele>
        <time>2024-03-31T12:01:41.998Z</time>
      </trkpt>
      <trkpt lat="51.705638" lon="5.974891">
        <ele>14.766166</ele>
        <time>2024-03-31T12:01:43.998Z</time>
      </trkpt>
      <trkpt lat="51.705707" lon="5.974672">
        <ele>14.775821</ele>
        <time>2024-03-31T12:01:45.998Z</time>
      </trkpt>
      <trkpt lat="51.705774" lon="5.974454">
        <ele>14.785384</ele>
        <time>2024-03-31T12:01:47.998Z</time>
      </trkpt>
      <trkpt lat="51.705843" lon="5.974247">
        <ele>14.794622</ele>
        <time>2024-03-31T12:01:49.998Z</time>
      </trkpt>
      <trkpt lat="51.705905" lon="5.974035">
        <ele>14.803834</ele>
        <time>2024-03-31T12:01:51.998Z</time>
      </trkpt>
      <trkpt lat="51.705951" lon="5.973825">
        <ele>14.812588</ele>
        <time>2024-03-31T12:01:53.998Z</time>
      </trkpt>
      <trkpt lat="51.706007" lon="5.973631">
        <ele>14.820998</ele>
        <time>2024-03-31T12:01:55.998Z</time>
      </trkpt>
      <trkpt lat="51.706057" lon="5.973448">
        <ele>14.828858</ele>
        <time>2024-03-31T12:01:57.997Z</time>
      </trkpt>
      <trkpt lat="51.706114" lon="5.973282">
        <ele>14.836316</ele>
        <time>2024-03-31T12:01:59.997Z</time>
      </trkpt>
      <trkpt lat="51.706165" lon="5.973116">
        <ele>14.843598</ele>
        <time>2024-03-31T12:02:01.997Z</time>
      </trkpt>
      <trkpt lat="51.706204" lon="5.972956">
        <ele>14.850355</ele>
        <time>2024-03-31T12:02:03.997Z</time>
      </trkpt>
      <trkpt lat="51.706137" lon="5.972807">
        <ele>14.857589</ele>
        <time>2024-03-31T12:02:05.997Z</time>
      </trkpt>
      <trkpt lat="51.706020" lon="5.972729">
        <ele>14.852988</ele>
        <time>2024-03-31T12:02:07.997Z</time>
      </trkpt>
      <trkpt lat="51.705896" lon="5.972703">
        <ele>14.840343</ele>
        <time>2024-03-31T12:02:10.000Z</time>
      </trkpt>
      <trkpt lat="51.705763" lon="5.972689">
        <ele>14.826864</ele>
        <time>2024-03-31T12:02:12.000Z</time>
      </trkpt>
      <trkpt lat="51.705626" lon="5.972679">
        <ele>14.812996</ele>
        <time>2024-03-31T12:02:14.000Z</time>
      </trkpt>
      <trkpt lat="51.705494" lon="5.972665">
        <ele>14.799618</ele>
        <time>2024-03-31T12:02:16.000Z</time>
      </trkpt>
      <trkpt lat="51.705359" lon="5.972642">
        <ele>14.785890</ele>
        <time>2024-03-31T12:02:18.000Z</time>
      </trkpt>
      <trkpt lat="51.705223" lon="5.972599">
        <ele>14.771875</ele>
        <time>2024-03-31T12:02:20.000Z</time>
      </trkpt>
      <trkpt lat="51.705087" lon="5.972549">
        <ele>14.757770</ele>
        <time>2024-03-31T12:02:22.000Z</time>
      </trkpt>
      <trkpt lat="51.704954" lon="5.972486">
        <ele>14.743752</ele>
        <time>2024-03-31T12:02:24.000Z</time>
      </trkpt>
      <trkpt lat="51.704824" lon="5.972402">
        <ele>14.729591</ele>
        <time>2024-03-31T12:02:26.000Z</time>
      </trkpt>
      <trkpt lat="51.704693" lon="5.972306">
        <ele>14.715041</ele>
        <time>2024-03-31T12:02:28.000Z</time>
      </trkpt>
      <trkpt lat="51.704562" lon="5.972198">
        <ele>14.700165</ele>
        <time>2024-03-31T12:02:30.000Z</time>
      </trkpt>
      <trkpt lat="51.704435" lon="5.972094">
        <ele>14.685763</ele>
        <time>2024-03-31T12:02:32.000Z</time>
      </trkpt>
      <trkpt lat="51.704308" lon="5.971994">
        <ele>14.639285</ele>
        <time>2024-03-31T12:02:33.999Z</time>
      </trkpt>
      <trkpt lat="51.704183" lon="5.971893">
        <ele>14.563550</ele>
        <time>2024-03-31T12:02:35.999Z</time>
      </trkpt>
      <trkpt lat="51.704054" lon="5.971793">
        <ele>14.486016</ele>
        <time>2024-03-31T12:02:37.999Z</time>
      </trkpt>
      <trkpt lat="51.703929" lon="5.971662">
        <ele>14.405267</ele>
        <time>2024-03-31T12:02:39.999Z</time>
      </trkpt>
      <trkpt lat="51.703797" lon="5.971556">
        <ele>14.325389</ele>
        <time>2024-03-31T12:02:41.999Z</time>
      </trkpt>
      <trkpt lat="51.703668" lon="5.971453">
        <ele>14.247414</ele>
        <time>2024-03-31T12:02:43.999Z</time>
      </trkpt>
      <trkpt lat="51.703540" lon="5.971350">
        <ele>14.169924</ele>
        <time>2024-03-31T12:02:45.999Z</time>
      </trkpt>
      <trkpt lat="51.703410" lon="5.971245">
        <ele>14.091165</ele>
        <time>2024-03-31T12:02:47.999Z</time>
      </trkpt>
      <trkpt lat="51.703277" lon="5.971131">
        <ele>14.009576</ele>
        <time>2024-03-31T12:02:49.999Z</time>
      </trkpt>
      <trkpt lat="51.703152" lon="5.971008">
        <ele>13.930257</ele>
        <time>2024-03-31T12:02:51.999Z</time>
      </trkpt>
      <trkpt lat="51.703027" lon="5.970887">
        <ele>13.851286</ele>
        <time>2024-03-31T12:02:53.999Z</time>
      </trkpt>
      <trkpt lat="51.702914" lon="5.970746">
        <ele>13.773898</ele>
        <time>2024-03-31T12:02:55.999Z</time>
      </trkpt>
      <trkpt lat="51.702803" lon="5.970610">
        <ele>13.700731</ele>
        <time>2024-03-31T12:02:57.999Z</time>
      </trkpt>
      <trkpt lat="51.702697" lon="5.970485">
        <ele>13.657179</ele>
        <time>2024-03-31T12:02:59.999Z</time>
      </trkpt>
      <trkpt lat="51.702595" lon="5.970359">
        <ele>13.614567</ele>
        <time>2024-03-31T12:03:01.999Z</time>
      </trkpt>
      <trkpt lat="51.702498" lon="5.970238">
        <ele>13.573896</ele>
        <time>2024-03-31T12:03:03.999Z</time>
      </trkpt>
      <trkpt lat="51.702409" lon="5.970124">
        <ele>13.536202</ele>
        <time>2024-03-31T12:03:05.999Z</time>
      </trkpt>
      <trkpt lat="51.702336" lon="5.970041">
        <ele>13.506578</ele>
        <time>2024-03-31T12:03:07.999Z</time>
      </trkpt>
      <trkpt lat="51.702331" lon="5.969850">
        <ele>13.467277</ele>
        <time>2024-03-31T12:03:12.999Z</time>
      </trkpt>
      <trkpt lat="51.702399" lon="5.969736">
        <ele>13.434749</ele>
        <time>2024-03-31T12:03:14.999Z</time>
      </trkpt>
      <trkpt lat="51.702475" lon="5.969623">
        <ele>13.400467</ele>
        <time>2024-03-31T12:03:16.999Z</time>
      </trkpt>
      <trkpt lat="51.702552" lon="5.969484">
        <ele>13.362140</ele>
        <time>2024-03-31T12:03:18.999Z</time>
      </trkpt>
      <trkpt lat="51.702627" lon="5.969352">
        <ele>13.325325</ele>
        <time>2024-03-31T12:03:20.999Z</time>
      </trkpt>
      <trkpt lat="51.702696" lon="5.969213">
        <ele>13.288712</ele>
        <time>2024-03-31T12:03:22.998Z</time>
      </trkpt>
      <trkpt lat="51.702812" lon="5.969138">
        <ele>13.247259</ele>
        <time>2024-03-31T12:03:24.998Z</time>
      </trkpt>
      <trkpt lat="51.702905" lon="5.969012">
        <ele>13.206976</ele>
        <time>2024-03-31T12:03:26.998Z</time>
      </trkpt>
      <trkpt lat="51.702989" lon="5.968869">
        <ele>13.166471</ele>
        <time>2024-03-31T12:03:28.998Z</time>
      </trkpt>
      <trkpt lat="51.703085" lon="5.968729">
        <ele>13.123548</ele>
        <time>2024-03-31T12:03:30.998Z</time>
      </trkpt>
      <trkpt lat="51.703178" lon="5.968583">
        <ele>13.123505</ele>
        <time>2024-03-31T12:03:32.998Z</time>
      </trkpt>
      <trkpt lat="51.703288" lon="5.968416">
        <ele>13.152385</ele>
        <time>2024-03-31T12:03:34.998Z</time>
      </trkpt>
      <trkpt lat="51.703387" lon="5.968229">
        <ele>13.181530</ele>
        <time>2024-03-31T12:03:36.998Z</time>
      </trkpt>
      <trkpt lat="51.703481" lon="5.968057">
        <ele>13.208705</ele>
        <time>2024-03-31T12:03:38.998Z</time>
      </trkpt>
      <trkpt lat="51.703584" lon="5.967890">
        <ele>13.236625</ele>
        <time>2024-03-31T12:03:40.998Z</time>
      </trkpt>
      <trkpt lat="51.703696" lon="5.967732">
        <ele>13.265072</ele>
        <time>2024-03-31T12:03:42.998Z</time>
      </trkpt>
      <trkpt lat="51.703813" lon="5.967589">
        <ele>13.293137</ele>
        <time>2024-03-31T12:03:44.998Z</time>
      </trkpt>
      <trkpt lat="51.703936" lon="5.967439">
        <ele>13.322618</ele>
        <time>2024-03-31T12:03:46.998Z</time>
      </trkpt>
      <trkpt lat="51.704051" lon="5.967307">
        <ele>13.349604</ele>
        <time>2024-03-31T12:03:48.998Z</time>
      </trkpt>
      <trkpt lat="51.704156" lon="5.967150">
        <ele>13.376976</ele>
        <time>2024-03-31T12:03:50.998Z</time>
      </trkpt>
      <trkpt lat="51.704238" lon="5.966950">
        <ele>13.405394</ele>
        <time>2024-03-31T12:03:52.998Z</time>
      </trkpt>
      <trkpt lat="51.704294" lon="5.966755">
        <ele>13.430862</ele>
        <time>2024-03-31T12:03:54.998Z</time>
      </trkpt>
      <trkpt lat="51.704334" lon="5.966555">
        <ele>13.455322</ele>
        <time>2024-03-31T12:03:56.998Z</time>
      </trkpt>
      <trkpt lat="51.704368" lon="5.966368">
        <ele>13.475889</ele>
        <time>2024-03-31T12:03:58.998Z</time>
      </trkpt>
      <trkpt lat="51.704411" lon="5.966201">
        <ele>13.494975</ele>
        <time>2024-03-31T12:04:00.998Z</time>
      </trkpt>
      <trkpt lat="51.704456" lon="5.966069">
        <ele>13.510874</ele>
        <time>2024-03-31T12:04:02.998Z</time>
      </trkpt>
      <trkpt lat="51.704564" lon="5.966124">
        <ele>13.530161</ele>
        <time>2024-03-31T12:04:03.998Z</time>
      </trkpt>
      <trkpt lat="51.704678" lon="5.966190">
        <ele>13.550787</ele>
        <time>2024-03-31T12:04:05.998Z</time>
      </trkpt>
      <trkpt lat="51.704788" lon="5.966256">
        <ele>13.570773</ele>
        <time>2024-03-31T12:04:07.997Z</time>
      </trkpt>
      <trkpt lat="51.704895" lon="5.966312">
        <ele>13.589929</ele>
        <time>2024-03-31T12:04:09.997Z</time>
      </trkpt>
      <trkpt lat="51.705009" lon="5.966381">
        <ele>13.610664</ele>
        <time>2024-03-31T12:04:11.997Z</time>
      </trkpt>
      <trkpt lat="51.705134" lon="5.966437">
        <ele>13.632757</ele>
        <time>2024-03-31T12:04:13.997Z</time>
      </trkpt>
      <trkpt lat="51.705263" lon="5.966514">
        <ele>13.656180</ele>
        <time>2024-03-31T12:04:16.000Z</time>
      </trkpt>
      <trkpt lat="51.705397" lon="5.966567">
        <ele>13.679676</ele>
        <time>2024-03-31T12:04:18.000Z</time>
      </trkpt>
      <trkpt lat="51.705526" lon="5.966549">
        <ele>13.701726</ele>
        <time>2024-03-31T12:04:20.000Z</time>
      </trkpt>
      <trkpt lat="51.705640" lon="5.966468">
        <ele>13.722939</ele>
        <time>2024-03-31T12:04:22.000Z</time>
      </trkpt>
      <trkpt lat="51.705726" lon="5.966323">
        <ele>13.744121</ele>
        <time>2024-03-31T12:04:24.000Z</time>
      </trkpt>
      <trkpt lat="51.705793" lon="5.966141">
        <ele>13.765985</ele>
        <time>2024-03-31T12:04:26.000Z</time>
      </trkpt>
      <trkpt lat="51.705857" lon="5.965945">
        <ele>13.788044</ele>
        <time>2024-03-31T12:04:28.000Z</time>
      </trkpt>
      <trkpt lat="51.705903" lon="5.965739">
        <ele>13.809846</ele>
        <time>2024-03-31T12:04:30.000Z</time>
      </trkpt>
      <trkpt lat="51.705956" lon="5.965531">
        <ele>13.832239</ele>
        <time>2024-03-31T12:04:32.000Z</time>
      </trkpt>
      <trkpt lat="51.705992" lon="5.965325">
        <ele>13.853550</ele>
        <time>2024-03-31T12:04:34.000Z</time>
      </trkpt>
      <trkpt lat="51.706033" lon="5.965118">
        <ele>13.875188</ele>
        <time>2024-03-31T12:04:36.000Z</time>
      </trkpt>
      <trkpt lat="51.706077" lon="5.964919">
        <ele>13.896225</ele>
        <time>2024-03-31T12:04:38.000Z</time>
      </trkpt>
      <trkpt lat="51.706117" lon="5.964705">
        <ele>13.918481</ele>
        <time>2024-03-31T12:04:39.999Z</time>
      </trkpt>
      <trkpt lat="51.706154" lon="5.964494">
        <ele>13.940315</ele>
        <time>2024-03-31T12:04:41.999Z</time>
      </trkpt>
      <trkpt lat="51.706168" lon="5.964282">
        <ele>13.961543</ele>
        <time>2024-03-31T12:04:43.999Z</time>
      </trkpt>
      <trkpt lat="51.706155" lon="5.964066">
        <ele>13.983151</ele>
        <time>2024-03-31T12:04:45.999Z</time>
      </trkpt>
      <trkpt lat="51.706142" lon="5.963850">
        <ele>14.004759</ele>
        <time>2024-03-31T12:04:47.999Z</time>
      </trkpt>
      <trkpt lat="51.706113" lon="5.963688">
        <ele>14.021549</ele>
        <time>2024-03-31T12:04:49.999Z</time>
      </trkpt>
      <trkpt lat="51.706196" lon="5.963513">
        <ele>14.043491</ele>
        <time>2024-03-31T12:04:52.999Z</time>
      </trkpt>
      <trkpt lat="51.706327" lon="5.963486">
        <ele>14.069498</ele>
        <time>2024-03-31T12:04:54.999Z</time>
      </trkpt>
      <trkpt lat="51.706464" lon="5.963452">
        <ele>14.097794</ele>
        <time>2024-03-31T12:04:56.999Z</time>
      </trkpt>
      <trkpt lat="51.706596" lon="5.963358">
        <ele>14.127248</ele>
        <time>2024-03-31T12:04:58.999Z</time>
      </trkpt>
      <trkpt lat="51.706719" lon="5.963245">
        <ele>14.156141</ele>
        <time>2024-03-31T12:05:00.999Z</time>
      </trkpt>
      <trkpt lat="51.706837" lon="5.963129">
        <ele>14.184347</ele>
        <time>2024-03-31T12:05:02.999Z</time>
      </trkpt>
      <trkpt lat="51.706949" lon="5.962977">
        <ele>14.214222</ele>
        <time>2024-03-31T12:05:04.999Z</time>
      </trkpt>
      <trkpt lat="51.707055" lon="5.962840">
        <ele>14.241945</ele>
        <time>2024-03-31T12:05:06.999Z</time>
      </trkpt>
      <trkpt lat="51.707165" lon="5.962693">
        <ele>14.271101</ele>
        <time>2024-03-31T12:05:08.999Z</time>
      </trkpt>
      <trkpt lat="51.707275" lon="5.962566">
        <ele>14.298712</ele>
        <time>2024-03-31T12:05:10.999Z</time>
      </trkpt>
      <trkpt lat="51.707390" lon="5.962442">
        <ele>14.326947</ele>
        <time>2024-03-31T12:05:12.999Z</time>
      </trkpt>
      <trkpt lat="51.707505" lon="5.962318">
        <ele>14.355181</ele>
        <time>2024-03-31T12:05:14.999Z</time>
      </trkpt>
      <trkpt lat="51.707619" lon="5.962196">
        <ele>14.383105</ele>
        <time>2024-03-31T12:05:16.999Z</time>
      </trkpt>
      <trkpt lat="51.707735" lon="5.962082">
        <ele>14.410831</ele>
        <time>2024-03-31T12:05:18.999Z</time>
      </trkpt>
      <trkpt lat="51.707849" lon="5.961971">
        <ele>14.442298</ele>
        <time>2024-03-31T12:05:20.999Z</time>
      </trkpt>
      <trkpt lat="51.707962" lon="5.961865">
        <ele>14.473782</ele>
        <time>2024-03-31T12:05:22.998Z</time>
      </trkpt>
      <trkpt lat="51.708077" lon="5.961752">
        <ele>14.506214</ele>
        <time>2024-03-31T12:05:24.998Z</time>
      </trkpt>
      <trkpt lat="51.708189" lon="5.961640">
        <ele>14.537952</ele>
        <time>2024-03-31T12:05:26.998Z</time>
      </trkpt>
      <trkpt lat="51.708300" lon="5.961534">
        <ele>14.569020</ele>
        <time>2024-03-31T12:05:28.998Z</time>
      </trkpt>
      <trkpt lat="51.708412" lon="5.961422">
        <ele>14.600758</ele>
        <time>2024-03-31T12:05:30.998Z</time>
      </trkpt>
      <trkpt lat="51.708524" lon="5.961303">
        <ele>14.633058</ele>
        <time>2024-03-31T12:05:32.998Z</time>
      </trkpt>
      <trkpt lat="51.708634" lon="5.961177">
        <ele>14.665551</ele>
        <time>2024-03-31T12:05:34.998Z</time>
      </trkpt>
      <trkpt lat="51.708748" lon="5.961066">
        <ele>14.697622</ele>
        <time>2024-03-31T12:05:36.998Z</time>
      </trkpt>
      <trkpt lat="51.708855" lon="5.960971">
        <ele>14.727039</ele>
        <time>2024-03-31T12:05:38.998Z</time>
      </trkpt>
      <trkpt lat="51.708968" lon="5.960880">
        <ele>14.757459</ele>
        <time>2024-03-31T12:05:40.998Z</time>
      </trkpt>
      <trkpt lat="51.709073" lon="5.960775">
        <ele>14.787213</ele>
        <time>2024-03-31T12:05:42.998Z</time>
      </trkpt>
      <trkpt lat="51.709176" lon="5.960680">
        <ele>14.815790</ele>
        <time>2024-03-31T12:05:44.998Z</time>
      </trkpt>
      <trkpt lat="51.709276" lon="5.960585">
        <ele>14.843741</ele>
        <time>2024-03-31T12:05:46.998Z</time>
      </trkpt>
      <trkpt lat="51.709364" lon="5.960494">
        <ele>14.789830</ele>
        <time>2024-03-31T12:05:48.998Z</time>
      </trkpt>
      <trkpt lat="51.709447" lon="5.960401">
        <ele>14.724538</ele>
        <time>2024-03-31T12:05:50.998Z</time>
      </trkpt>
      <trkpt lat="51.709515" lon="5.960291">
        <ele>14.662324</ele>
        <time>2024-03-31T12:05:52.998Z</time>
      </trkpt>
      <trkpt lat="51.709631" lon="5.960207">
        <ele>14.580168</ele>
        <time>2024-03-31T12:05:55.998Z</time>
      </trkpt>
      <trkpt lat="51.709714" lon="5.960126">
        <ele>14.517492</ele>
        <time>2024-03-31T12:05:57.998Z</time>
      </trkpt>
      <trkpt lat="51.709808" lon="5.960008">
        <ele>14.440540</ele>
        <time>2024-03-31T12:05:59.998Z</time>
      </trkpt>
      <trkpt lat="51.709930" lon="5.959877">
        <ele>14.345852</ele>
        <time>2024-03-31T12:06:01.998Z</time>
      </trkpt>
      <trkpt lat="51.710071" lon="5.959762">
        <ele>14.243768</ele>
        <time>2024-03-31T12:06:03.998Z</time>
      </trkpt>
      <trkpt lat="51.710210" lon="5.959636">
        <ele>14.140751</ele>
        <time>2024-03-31T12:06:05.998Z</time>
      </trkpt>
      <trkpt lat="51.710346" lon="5.959504">
        <ele>14.038203</ele>
        <time>2024-03-31T12:06:07.998Z</time>
      </trkpt>
      <trkpt lat="51.710481" lon="5.959355">
        <ele>13.932521</ele>
        <time>2024-03-31T12:06:09.997Z</time>
      </trkpt>
      <trkpt lat="51.710613" lon="5.959195">
        <ele>13.825847</ele>
        <time>2024-03-31T12:06:11.997Z</time>
      </trkpt>
      <trkpt lat="51.710750" lon="5.959037">
        <ele>13.717041</ele>
        <time>2024-03-31T12:06:13.997Z</time>
      </trkpt>
      <trkpt lat="51.710882" lon="5.958879">
        <ele>13.680627</ele>
        <time>2024-03-31T12:06:15.997Z</time>
      </trkpt>
      <trkpt lat="51.711008" lon="5.958725">
        <ele>13.674335</ele>
        <time>2024-03-31T12:06:17.997Z</time>
      </trkpt>
      <trkpt lat="51.711138" lon="5.958563">
        <ele>13.667797</ele>
        <time>2024-03-31T12:06:19.997Z</time>
      </trkpt>
      <trkpt lat="51.711260" lon="5.958422">
        <ele>13.661824</ele>
        <time>2024-03-31T12:06:22.000Z</time>
      </trkpt>
      <trkpt lat="51.711382" lon="5.958276">
        <ele>13.655777</ele>
        <time>2024-03-31T12:06:24.000Z</time>
      </trkpt>
      <trkpt lat="51.711508" lon="5.958118">
        <ele>13.649425</ele>
        <time>2024-03-31T12:06:26.000Z</time>
      </trkpt>
      <trkpt lat="51.711628" lon="5.957954">
        <ele>13.643166</ele>
        <time>2024-03-31T12:06:28.000Z</time>
      </trkpt>
      <trkpt lat="51.711749" lon="5.957782">
        <ele>13.636747</ele>
        <time>2024-03-31T12:06:30.000Z</time>
      </trkpt>
      <trkpt lat="51.711858" lon="5.957597">
        <ele>13.630450</ele>
        <time>2024-03-31T12:06:32.000Z</time>
      </trkpt>
      <trkpt lat="51.711957" lon="5.957409">
        <ele>13.624364</ele>
        <time>2024-03-31T12:06:34.000Z</time>
      </trkpt>
      <trkpt lat="51.712066" lon="5.957214">
        <ele>13.617887</ele>
        <time>2024-03-31T12:06:36.000Z</time>
      </trkpt>
      <trkpt lat="51.712162" lon="5.957016">
        <ele>13.619750</ele>
        <time>2024-03-31T12:06:38.000Z</time>
      </trkpt>
      <trkpt lat="51.712251" lon="5.956829">
        <ele>13.638339</ele>
        <time>2024-03-31T12:06:40.000Z</time>
      </trkpt>
      <trkpt lat="51.712345" lon="5.956627">
        <ele>13.658253</ele>
        <time>2024-03-31T12:06:42.000Z</time>
      </trkpt>
      <trkpt lat="51.712439" lon="5.956419">
        <ele>13.678548</ele>
        <time>2024-03-31T12:06:44.000Z</time>
      </trkpt>
      <trkpt lat="51.712532" lon="5.956218">
        <ele>13.698323</ele>
        <time>2024-03-31T12:06:45.999Z</time>
      </trkpt>
      <trkpt lat="51.712631" lon="5.956012">
        <ele>13.718874</ele>
        <time>2024-03-31T12:06:47.999Z</time>
      </trkpt>
      <trkpt lat="51.712715" lon="5.955820">
        <ele>13.737402</ele>
        <time>2024-03-31T12:06:49.999Z</time>
      </trkpt>
      <trkpt lat="51.712799" lon="5.955644">
        <ele>13.754915</ele>
        <time>2024-03-31T12:06:51.999Z</time>
      </trkpt>
      <trkpt lat="51.712880" lon="5.955469">
        <ele>13.772135</ele>
        <time>2024-03-31T12:06:53.999Z</time>
      </trkpt>
      <trkpt lat="51.712958" lon="5.955292">
        <ele>13.789257</ele>
        <time>2024-03-31T12:06:55.999Z</time>
      </trkpt>
      <trkpt lat="51.713032" lon="5.955134">
        <ele>13.804870</ele>
        <time>2024-03-31T12:06:57.999Z</time>
      </trkpt>
      <trkpt lat="51.713108" lon="5.954975">
        <ele>13.820700</ele>
        <time>2024-03-31T12:06:59.999Z</time>
      </trkpt>
      <trkpt lat="51.713168" lon="5.954832">
        <ele>13.834314</ele>
        <time>2024-03-31T12:07:01.999Z</time>
      </trkpt>
      <trkpt lat="51.713235" lon="5.954704">
        <ele>13.841505</ele>
        <time>2024-03-31T12:07:03.999Z</time>
      </trkpt>
      <trkpt lat="51.713324" lon="5.954537">
        <ele>13.838301</ele>
        <time>2024-03-31T12:07:06.999Z</time>
      </trkpt>
      <trkpt lat="51.713385" lon="5.954413">
        <ele>13.835999</ele>
        <time>2024-03-31T12:07:08.999Z</time>
      </trkpt>
      <trkpt lat="51.713437" lon="5.954270">
        <ele>13.833587</ele>
        <time>2024-03-31T12:07:10.999Z</time>
      </trkpt>
      <trkpt lat="51.713428" lon="5.954116">
        <ele>13.831338</ele>
        <time>2024-03-31T12:07:12.999Z</time>
      </trkpt>
      <trkpt lat="51.713426" lon="5.953945">
        <ele>13.828851</ele>
        <time>2024-03-31T12:07:14.999Z</time>
      </trkpt>
      <trkpt lat="51.713368" lon="5.953765">
        <ele>13.825900</ele>
        <time>2024-03-31T12:07:16.999Z</time>
      </trkpt>
      <trkpt lat="51.713301" lon="5.953630">
        <ele>13.823385</ele>
        <time>2024-03-31T12:07:18.999Z</time>
      </trkpt>
      <trkpt lat="51.713354" lon="5.953453">
        <ele>13.820526</ele>
        <time>2024-03-31T12:07:21.999Z</time>
      </trkpt>
      <trkpt lat="51.713470" lon="5.953474">
        <ele>13.817787</ele>
        <time>2024-03-31T12:07:23.999Z</time>
      </trkpt>
      <trkpt lat="51.713593" lon="5.953452">
        <ele>13.814882</ele>
        <time>2024-03-31T12:07:25.999Z</time>
      </trkpt>
      <trkpt lat="51.713717" lon="5.953503">
        <ele>13.811879</ele>
        <time>2024-03-31T12:07:27.999Z</time>
      </trkpt>
      <trkpt lat="51.713842" lon="5.953580">
        <ele>13.808738</ele>
        <time>2024-03-31T12:07:29.999Z</time>
      </trkpt>
      <trkpt lat="51.713975" lon="5.953650">
        <ele>13.805455</ele>
        <time>2024-03-31T12:07:31.998Z</time>
      </trkpt>
      <trkpt lat="51.714085" lon="5.953722">
        <ele>13.802669</ele>
        <time>2024-03-31T12:07:33.998Z</time>
      </trkpt>
      <trkpt lat="51.714204" lon="5.953738">
        <ele>13.792874</ele>
        <time>2024-03-31T12:07:35.998Z</time>
      </trkpt>
      <trkpt lat="51.714299" lon="5.953649">
        <ele>13.740250</ele>
        <time>2024-03-31T12:07:37.998Z</time>
      </trkpt>
      <trkpt lat="51.714353" lon="5.953469">
        <ele>13.680887</ele>
        <time>2024-03-31T12:07:39.998Z</time>
      </trkpt>
      <trkpt lat="51.714364" lon="5.953254">
        <ele>13.616851</ele>
        <time>2024-03-31T12:07:41.998Z</time>
      </trkpt>
      <trkpt lat="51.714411" lon="5.953058">
        <ele>13.554468</ele>
        <time>2024-03-31T12:07:43.998Z</time>
      </trkpt>
      <trkpt lat="51.714458" lon="5.952862">
        <ele>13.492084</ele>
        <time>2024-03-31T12:07:45.998Z</time>
      </trkpt>
      <trkpt lat="51.714509" lon="5.952678">
        <ele>13.432251</ele>
        <time>2024-03-31T12:07:47.998Z</time>
      </trkpt>
      <trkpt lat="51.714558" lon="5.952504">
        <ele>13.375518</ele>
        <time>2024-03-31T12:07:49.998Z</time>
      </trkpt>
      <trkpt lat="51.714636" lon="5.952373">
        <ele>13.321589</ele>
        <time>2024-03-31T12:07:51.998Z</time>
      </trkpt>
      <trkpt lat="51.714744" lon="5.952351">
        <ele>13.269438</ele>
        <time>2024-03-31T12:07:53.998Z</time>
      </trkpt>
      <trkpt lat="51.714857" lon="5.952339">
        <ele>13.215185</ele>
        <time>2024-03-31T12:07:55.998Z</time>
      </trkpt>
      <trkpt lat="51.714947" lon="5.952327">
        <ele>13.171921</ele>
        <time>2024-03-31T12:07:57.998Z</time>
      </trkpt>
      <trkpt lat="51.715051" lon="5.952314">
        <ele>13.121947</ele>
        <time>2024-03-31T12:07:59.998Z</time>
      </trkpt>
      <trkpt lat="51.715147" lon="5.952279">
        <ele>13.074797</ele>
        <time>2024-03-31T12:08:01.998Z</time>
      </trkpt>
      <trkpt lat="51.715248" lon="5.952251">
        <ele>13.025701</ele>
        <time>2024-03-31T12:08:03.998Z</time>
      </trkpt>
      <trkpt lat="51.715353" lon="5.952191">
        <ele>12.972338</ele>
        <time>2024-03-31T12:08:06.997Z</time>
      </trkpt>
      <trkpt lat="51.715408" lon="5.952068">
        <ele>12.966545</ele>
        <time>2024-03-31T12:08:08.997Z</time>
      </trkpt>
      <trkpt lat="51.715487" lon="5.951991">
        <ele>13.076943</ele>
        <time>2024-03-31T12:08:10.997Z</time>
      </trkpt>
      <trkpt lat="51.715586" lon="5.952049">
        <ele>13.202931</ele>
        <time>2024-03-31T12:08:12.997Z</time>
      </trkpt>
      <trkpt lat="51.715682" lon="5.952115">
        <ele>13.327754</ele>
        <time>2024-03-31T12:08:14.997Z</time>
      </trkpt>
      <trkpt lat="51.715786" lon="5.952171">
        <ele>13.458903</ele>
        <time>2024-03-31T12:08:16.997Z</time>
      </trkpt>
      <trkpt lat="51.715885" lon="5.952222">
        <ele>13.583217</ele>
        <time>2024-03-31T12:08:18.997Z</time>
      </trkpt>
      <trkpt lat="51.715989" lon="5.952234">
        <ele>13.707943</ele>
        <time>2024-03-31T12:08:20.997Z</time>
      </trkpt>
      <trkpt lat="51.716082" lon="5.952183">
        <ele>13.825439</ele>
        <time>2024-03-31T12:08:22.997Z</time>
      </trkpt>
      <trkpt lat="51.716161" lon="5.952087">
        <ele>13.943731</ele>
        <time>2024-03-31T12:08:24.997Z</time>
      </trkpt>
      <trkpt lat="51.716209" lon="5.951931">
        <ele>14.072822</ele>
        <time>2024-03-31T12:08:26.997Z</time>
      </trkpt>
      <trkpt lat="51.716252" lon="5.951782">
        <ele>14.194644</ele>
        <time>2024-03-31T12:08:29.000Z</time>
      </trkpt>
      <trkpt lat="51.716270" lon="5.951585">
        <ele>14.342228</ele>
        <time>2024-03-31T12:08:31.000Z</time>
      </trkpt>
      <trkpt lat="51.716286" lon="5.951382">
        <ele>14.493891</ele>
        <time>2024-03-31T12:08:33.000Z</time>
      </trkpt>
      <trkpt lat="51.716323" lon="5.951178">
        <ele>14.651429</ele>
        <time>2024-03-31T12:08:35.000Z</time>
      </trkpt>
      <trkpt lat="51.716384" lon="5.951006">
        <ele>14.798312</ele>
        <time>2024-03-31T12:08:37.000Z</time>
      </trkpt>
      <trkpt lat="51.716453" lon="5.950858">
        <ele>14.935587</ele>
        <time>2024-03-31T12:08:39.000Z</time>
      </trkpt>
      <trkpt lat="51.716563" lon="5.950814">
        <ele>15.071154</ele>
        <time>2024-03-31T12:08:41.000Z</time>
      </trkpt>
      <trkpt lat="51.716666" lon="5.950883">
        <ele>15.002902</ele>
        <time>2024-03-31T12:08:43.000Z</time>
      </trkpt>
      <trkpt lat="51.716756" lon="5.950985">
        <ele>14.902598</ele>
        <time>2024-03-31T12:08:45.000Z</time>
      </trkpt>
      <trkpt lat="51.716838" lon="5.951088">
        <ele>14.807828</ele>
        <time>2024-03-31T12:08:47.000Z</time>
      </trkpt>
      <trkpt lat="51.716916" lon="5.951184">
        <ele>14.718361</ele>
        <time>2024-03-31T12:08:49.000Z</time>
      </trkpt>
      <trkpt lat="51.717009" lon="5.951302">
        <ele>14.610466</ele>
        <time>2024-03-31T12:08:51.999Z</time>
      </trkpt>
      <trkpt lat="51.717120" lon="5.951357">
        <ele>14.504560</ele>
        <time>2024-03-31T12:08:55.999Z</time>
      </trkpt>
      <trkpt lat="51.717206" lon="5.951217">
        <ele>14.393153</ele>
        <time>2024-03-31T12:08:58.999Z</time>
      </trkpt>
      <trkpt lat="51.717220" lon="5.951063">
        <ele>14.305199</ele>
        <time>2024-03-31T12:09:00.999Z</time>
      </trkpt>
      <trkpt lat="51.717278" lon="5.950944">
        <ele>14.219639</ele>
        <time>2024-03-31T12:09:02.999Z</time>
      </trkpt>
      <trkpt lat="51.717400" lon="5.950978">
        <ele>14.106717</ele>
        <time>2024-03-31T12:09:04.999Z</time>
      </trkpt>
      <trkpt lat="51.717511" lon="5.951057">
        <ele>13.996070</ele>
        <time>2024-03-31T12:09:06.999Z</time>
      </trkpt>
      <trkpt lat="51.717615" lon="5.951135">
        <ele>13.891472</ele>
        <time>2024-03-31T12:09:08.999Z</time>
      </trkpt>
      <trkpt lat="51.717720" lon="5.951253">
        <ele>13.774776</ele>
        <time>2024-03-31T12:09:10.999Z</time>
      </trkpt>
      <trkpt lat="51.717813" lon="5.951367">
        <ele>13.668263</ele>
        <time>2024-03-31T12:09:12.999Z</time>
      </trkpt>
      <trkpt lat="51.717914" lon="5.951475">
        <ele>13.557761</ele>
        <time>2024-03-31T12:09:14.999Z</time>
      </trkpt>
      <trkpt lat="51.718014" lon="5.951596">
        <ele>13.452549</ele>
        <time>2024-03-31T12:09:16.999Z</time>
      </trkpt>
      <trkpt lat="51.718094" lon="5.951711">
        <ele>13.501740</ele>
        <time>2024-03-31T12:09:18.999Z</time>
      </trkpt>
      <trkpt lat="51.718193" lon="5.951815">
        <ele>13.555979</ele>
        <time>2024-03-31T12:09:20.999Z</time>
      </trkpt>
      <trkpt lat="51.718282" lon="5.951924">
        <ele>13.607278</ele>
        <time>2024-03-31T12:09:22.999Z</time>
      </trkpt>
      <trkpt lat="51.718370" lon="5.952054">
        <ele>13.662056</ele>
        <time>2024-03-31T12:09:24.999Z</time>
      </trkpt>
      <trkpt lat="51.718472" lon="5.952155">
        <ele>13.717003</ele>
        <time>2024-03-31T12:09:26.999Z</time>
      </trkpt>
      <trkpt lat="51.718577" lon="5.952266">
        <ele>13.774638</ele>
        <time>2024-03-31T12:09:28.999Z</time>
      </trkpt>
      <trkpt lat="51.718701" lon="5.952346">
        <ele>13.835957</ele>
        <time>2024-03-31T12:09:30.999Z</time>
      </trkpt>
      <trkpt lat="51.718837" lon="5.952398">
        <ele>13.900134</ele>
        <time>2024-03-31T12:09:32.999Z</time>
      </trkpt>
      <trkpt lat="51.718970" lon="5.952434">
        <ele>13.962058</ele>
        <time>2024-03-31T12:09:34.999Z</time>
      </trkpt>
      <trkpt lat="51.719107" lon="5.952468">
        <ele>14.025706</ele>
        <time>2024-03-31T12:09:36.999Z</time>
      </trkpt>
      <trkpt lat="51.719243" lon="5.952474">
        <ele>14.088179</ele>
        <time>2024-03-31T12:09:38.998Z</time>
      </trkpt>
      <trkpt lat="51.719374" lon="5.952484">
        <ele>14.148399</ele>
        <time>2024-03-31T12:09:40.998Z</time>
      </trkpt>
      <trkpt lat="51.719515" lon="5.952500">
        <ele>14.213304</ele>
        <time>2024-03-31T12:09:42.998Z</time>
      </trkpt>
      <trkpt lat="51.719653" lon="5.952463">
        <ele>14.281189</ele>
        <time>2024-03-31T12:09:44.998Z</time>
      </trkpt>
      <trkpt lat="51.719788" lon="5.952455">
        <ele>14.455312</ele>
        <time>2024-03-31T12:09:46.998Z</time>
      </trkpt>
      <trkpt lat="51.719923" lon="5.952446">
        <ele>14.629466</ele>
        <time>2024-03-31T12:09:48.998Z</time>
      </trkpt>
      <trkpt lat="51.720059" lon="5.952443">
        <ele>14.804776</ele>
        <time>2024-03-31T12:09:50.998Z</time>
      </trkpt>
      <trkpt lat="51.720189" lon="5.952437">
        <ele>14.972406</ele>
        <time>2024-03-31T12:09:52.998Z</time>
      </trkpt>
      <trkpt lat="51.720314" lon="5.952435">
        <ele>15.133530</ele>
        <time>2024-03-31T12:09:54.998Z</time>
      </trkpt>
      <trkpt lat="51.720434" lon="5.952438">
        <ele>15.288220</ele>
        <time>2024-03-31T12:09:56.998Z</time>
      </trkpt>
      <trkpt lat="51.720536" lon="5.952431">
        <ele>15.419809</ele>
        <time>2024-03-31T12:09:58.998Z</time>
      </trkpt>
      <trkpt lat="51.720667" lon="5.952436">
        <ele>15.588706</ele>
        <time>2024-03-31T12:10:00.998Z</time>
      </trkpt>
      <trkpt lat="51.720754" lon="5.952311">
        <ele>15.738829</ele>
        <time>2024-03-31T12:10:02.998Z</time>
      </trkpt>
      <trkpt lat="51.720841" lon="5.952185">
        <ele>15.889483</ele>
        <time>2024-03-31T12:10:04.998Z</time>
      </trkpt>
      <trkpt lat="51.720931" lon="5.952057">
        <ele>16.044089</ele>
        <time>2024-03-31T12:10:06.998Z</time>
      </trkpt>
      <trkpt lat="51.721030" lon="5.951921">
        <ele>16.211646</ele>
        <time>2024-03-31T12:10:08.998Z</time>
      </trkpt>
      <trkpt lat="51.721119" lon="5.951744">
        <ele>16.393673</ele>
        <time>2024-03-31T12:10:10.998Z</time>
      </trkpt>
      <trkpt lat="51.721217" lon="5.951632">
        <ele>16.548441</ele>
        <time>2024-03-31T12:10:12.998Z</time>
      </trkpt>
      <trkpt lat="51.721315" lon="5.951484">
        <ele>16.528634</ele>
        <time>2024-03-31T12:10:14.998Z</time>
      </trkpt>
      <trkpt lat="51.721409" lon="5.951344">
        <ele>16.444370</ele>
        <time>2024-03-31T12:10:16.998Z</time>
      </trkpt>
      <trkpt lat="51.721501" lon="5.951208">
        <ele>16.362180</ele>
        <time>2024-03-31T12:10:18.998Z</time>
      </trkpt>
      <trkpt lat="51.721589" lon="5.951079">
        <ele>16.283863</ele>
        <time>2024-03-31T12:10:20.998Z</time>
      </trkpt>
      <trkpt lat="51.721670" lon="5.950960">
        <ele>16.211704</ele>
        <time>2024-03-31T12:10:22.998Z</time>
      </trkpt>
      <trkpt lat="51.721751" lon="5.950847">
        <ele>16.141170</ele>
        <time>2024-03-31T12:10:24.997Z</time>
      </trkpt>
      <trkpt lat="51.721839" lon="5.950732">
        <ele>16.066575</ele>
        <time>2024-03-31T12:10:26.997Z</time>
      </trkpt>
      <trkpt lat="51.721930" lon="5.950621">
        <ele>15.991428</ele>
        <time>2024-03-31T12:10:28.997Z</time>
      </trkpt>
      <trkpt lat="51.721997" lon="5.950516">
        <ele>15.929905</ele>
        <time>2024-03-31T12:10:31.997Z</time>
      </trkpt>
      <trkpt lat="51.722104" lon="5.950389">
        <ele>15.842404</ele>
        <time>2024-03-31T12:10:36.000Z</time>
      </trkpt>
      <trkpt lat="51.722185" lon="5.950452">
        <ele>15.783166</ele>
        <time>2024-03-31T12:10:38.000Z</time>
      </trkpt>
      <trkpt lat="51.722290" lon="5.950459">
        <ele>15.713929</ele>
        <time>2024-03-31T12:10:41.000Z</time>
      </trkpt>
      <trkpt lat="51.722379" lon="5.950407">
        <ele>15.651569</ele>
        <time>2024-03-31T12:10:43.000Z</time>
      </trkpt>
      <trkpt lat="51.722521" lon="5.950471">
        <ele>15.554435</ele>
        <time>2024-03-31T12:10:45.000Z</time>
      </trkpt>
      <trkpt lat="51.722636" lon="5.950510">
        <ele>15.477014</ele>
        <time>2024-03-31T12:10:47.000Z</time>
      </trkpt>
      <trkpt lat="51.722725" lon="5.950703">
        <ele>15.392622</ele>
        <time>2024-03-31T12:10:49.000Z</time>
      </trkpt>
      <trkpt lat="51.722807" lon="5.950857">
        <ele>15.347880</ele>
        <time>2024-03-31T12:10:51.000Z</time>
      </trkpt>
      <trkpt lat="51.722898" lon="5.951011">
        <ele>15.300988</ele>
        <time>2024-03-31T12:10:53.000Z</time>
      </trkpt>
      <trkpt lat="51.722996" lon="5.951154">
        <ele>15.254003</ele>
        <time>2024-03-31T12:10:54.999Z</time>
      </trkpt>
      <trkpt lat="51.723104" lon="5.951275">
        <ele>15.207246</ele>
        <time>2024-03-31T12:10:56.999Z</time>
      </trkpt>
      <trkpt lat="51.723219" lon="5.951371">
        <ele>15.161199</ele>
        <time>2024-03-31T12:10:58.999Z</time>
      </trkpt>
      <trkpt lat="51.723341" lon="5.951455">
        <ele>15.114025</ele>
        <time>2024-03-31T12:11:00.999Z</time>
      </trkpt>
      <trkpt lat="51.723461" lon="5.951533">
        <ele>15.068015</ele>
        <time>2024-03-31T12:11:02.999Z</time>
      </trkpt>
      <trkpt lat="51.723583" lon="5.951618">
        <ele>15.020755</ele>
        <time>2024-03-31T12:11:04.999Z</time>
      </trkpt>
      <trkpt lat="51.723706" lon="5.951708">
        <ele>14.972723</ele>
        <time>2024-03-31T12:11:06.999Z</time>
      </trkpt>
      <trkpt lat="51.723833" lon="5.951794">
        <ele>14.923740</ele>
        <time>2024-03-31T12:11:08.999Z</time>
      </trkpt>
      <trkpt lat="51.723956" lon="5.951894">
        <ele>14.874758</ele>
        <time>2024-03-31T12:11:10.999Z</time>
      </trkpt>
      <trkpt lat="51.724077" lon="5.951999">
        <ele>14.825898</ele>
        <time>2024-03-31T12:11:12.999Z</time>
      </trkpt>
      <trkpt lat="51.724207" lon="5.952090">
        <ele>14.775501</ele>
        <time>2024-03-31T12:11:14.999Z</time>
      </trkpt>
      <trkpt lat="51.724329" lon="5.952201">
        <ele>14.654854</ele>
        <time>2024-03-31T12:11:16.999Z</time>
      </trkpt>
      <trkpt lat="51.724450" lon="5.952313">
        <ele>14.524278</ele>
        <time>2024-03-31T12:11:18.999Z</time>
      </trkpt>
      <trkpt lat="51.724568" lon="5.952424">
        <ele>14.396424</ele>
        <time>2024-03-31T12:11:20.999Z</time>
      </trkpt>
      <trkpt lat="51.724681" lon="5.952556">
        <ele>14.265846</ele>
        <time>2024-03-31T12:11:22.999Z</time>
      </trkpt>
      <trkpt lat="51.724810" lon="5.952656">
        <ele>14.131879</ele>
        <time>2024-03-31T12:11:24.999Z</time>
      </trkpt>
      <trkpt lat="51.724935" lon="5.952764">
        <ele>13.999152</ele>
        <time>2024-03-31T12:11:26.999Z</time>
      </trkpt>
      <trkpt lat="51.725058" lon="5.952866">
        <ele>13.869699</ele>
        <time>2024-03-31T12:11:28.999Z</time>
      </trkpt>
      <trkpt lat="51.725181" lon="5.952975">
        <ele>13.738341</ele>
        <time>2024-03-31T12:11:30.999Z</time>
      </trkpt>
      <trkpt lat="51.725301" lon="5.953095">
        <ele>13.606194</ele>
        <time>2024-03-31T12:11:32.999Z</time>
      </trkpt>
      <trkpt lat="51.725421" lon="5.953219">
        <ele>13.472811</ele>
        <time>2024-03-31T12:11:34.999Z</time>
      </trkpt>
      <trkpt lat="51.725533" lon="5.953359">
        <ele>13.340203</ele>
        <time>2024-03-31T12:11:36.999Z</time>
      </trkpt>
      <trkpt lat="51.725639" lon="5.953514">
        <ele>13.206314</ele>
        <time>2024-03-31T12:11:38.999Z</time>
      </trkpt>
      <trkpt lat="51.725746" lon="5.953680">
        <ele>13.098911</ele>
        <time>2024-03-31T12:11:40.998Z</time>
      </trkpt>
      <trkpt lat="51.725852" lon="5.953821">
        <ele>13.197192</ele>
        <time>2024-03-31T12:11:42.998Z</time>
      </trkpt>
      <trkpt lat="51.725959" lon="5.953961">
        <ele>13.295746</ele>
        <time>2024-03-31T12:11:44.998Z</time>
      </trkpt>
      <trkpt lat="51.726064" lon="5.954096">
        <ele>13.391796</ele>
        <time>2024-03-31T12:11:46.998Z</time>
      </trkpt>
      <trkpt lat="51.726180" lon="5.954202">
        <ele>13.487176</ele>
        <time>2024-03-31T12:11:48.998Z</time>
      </trkpt>
      <trkpt lat="51.726307" lon="5.954295">
        <ele>13.586964</ele>
        <time>2024-03-31T12:11:50.998Z</time>
      </trkpt>
      <trkpt lat="51.726443" lon="5.954349">
        <ele>13.687181</ele>
        <time>2024-03-31T12:11:52.998Z</time>
      </trkpt>
      <trkpt lat="51.726566" lon="5.954429">
        <ele>13.782070</ele>
        <time>2024-03-31T12:11:54.998Z</time>
      </trkpt>
      <trkpt lat="51.726695" lon="5.954491">
        <ele>13.878381</ele>
        <time>2024-03-31T12:11:56.998Z</time>
      </trkpt>
      <trkpt lat="51.726826" lon="5.954560">
        <ele>13.976983</ele>
        <time>2024-03-31T12:11:58.998Z</time>
      </trkpt>
      <trkpt lat="51.726955" lon="5.954640">
        <ele>14.075867</ele>
        <time>2024-03-31T12:12:00.998Z</time>
      </trkpt>
      <trkpt lat="51.727087" lon="5.954713">
        <ele>14.175710</ele>
        <time>2024-03-31T12:12:02.998Z</time>
      </trkpt>
      <trkpt lat="51.727217" lon="5.954788">
        <ele>14.274494</ele>
        <time>2024-03-31T12:12:04.998Z</time>
      </trkpt>
      <trkpt lat="51.727350" lon="5.954850">
        <ele>14.373076</ele>
        <time>2024-03-31T12:12:06.998Z</time>
      </trkpt>
      <trkpt lat="51.727484" lon="5.954923">
        <ele>14.435775</ele>
        <time>2024-03-31T12:12:08.998Z</time>
      </trkpt>
      <trkpt lat="51.727616" lon="5.954999">
        <ele>14.497906</ele>
        <time>2024-03-31T12:12:10.998Z</time>
      </trkpt>
      <trkpt lat="51.727749" lon="5.955080">
        <ele>14.560925</ele>
        <time>2024-03-31T12:12:12.998Z</time>
      </trkpt>
      <trkpt lat="51.727882" lon="5.955151">
        <ele>14.623029</ele>
        <time>2024-03-31T12:12:14.998Z</time>
      </trkpt>
      <trkpt lat="51.728017" lon="5.955221">
        <ele>14.685891</ele>
        <time>2024-03-31T12:12:16.998Z</time>
      </trkpt>
      <trkpt lat="51.728153" lon="5.955300">
        <ele>14.749969</ele>
        <time>2024-03-31T12:12:18.998Z</time>
      </trkpt>
      <trkpt lat="51.728292" lon="5.955362">
        <ele>14.813902</ele>
        <time>2024-03-31T12:12:20.998Z</time>
      </trkpt>
      <trkpt lat="51.728426" lon="5.955452">
        <ele>14.878245</ele>
        <time>2024-03-31T12:12:22.998Z</time>
      </trkpt>
      <trkpt lat="51.728561" lon="5.955525">
        <ele>14.941363</ele>
        <time>2024-03-31T12:12:24.998Z</time>
      </trkpt>
      <trkpt lat="51.728696" lon="5.955598">
        <ele>15.004482</ele>
        <time>2024-03-31T12:12:26.997Z</time>
      </trkpt>
      <trkpt lat="51.728828" lon="5.955670">
        <ele>15.066252</ele>
        <time>2024-03-31T12:12:28.997Z</time>
      </trkpt>
      <trkpt lat="51.728963" lon="5.955741">
        <ele>15.129198</ele>
        <time>2024-03-31T12:12:30.997Z</time>
      </trkpt>
      <trkpt lat="51.729098" lon="5.955817">
        <ele>15.138699</ele>
        <time>2024-03-31T12:12:32.997Z</time>
      </trkpt>
      <trkpt lat="51.729232" lon="5.955892">
        <ele>15.053455</ele>
        <time>2024-03-31T12:12:34.997Z</time>
      </trkpt>
      <trkpt lat="51.729361" lon="5.955965">
        <ele>14.971295</ele>
        <time>2024-03-31T12:12:36.997Z</time>
      </trkpt>
      <trkpt lat="51.729487" lon="5.956046">
        <ele>14.889780</ele>
        <time>2024-03-31T12:12:38.997Z</time>
      </trkpt>
      <trkpt lat="51.729614" lon="5.956116">
        <ele>14.809121</ele>
        <time>2024-03-31T12:12:41.000Z</time>
      </trkpt>
      <trkpt lat="51.729736" lon="5.956128">
        <ele>14.735657</ele>
        <time>2024-03-31T12:12:43.000Z</time>
      </trkpt>
      <trkpt lat="51.729863" lon="5.956065">
        <ele>14.655801</ele>
        <time>2024-03-31T12:12:45.000Z</time>
      </trkpt>
      <trkpt lat="51.729986" lon="5.955955">
        <ele>14.571288</ele>
        <time>2024-03-31T12:12:47.000Z</time>
      </trkpt>
      <trkpt lat="51.730137" lon="5.955926">
        <ele>14.479890</ele>
        <time>2024-03-31T12:12:49.000Z</time>
      </trkpt>
      <trkpt lat="51.730305" lon="5.955908">
        <ele>14.378691</ele>
        <time>2024-03-31T12:12:51.000Z</time>
      </trkpt>
      <trkpt lat="51.730438" lon="5.955923">
        <ele>14.298556</ele>
        <time>2024-03-31T12:12:53.000Z</time>
      </trkpt>
      <trkpt lat="51.730586" lon="5.955919">
        <ele>14.209588</ele>
        <time>2024-03-31T12:12:55.000Z</time>
      </trkpt>
      <trkpt lat="51.730732" lon="5.955900">
        <ele>14.121550</ele>
        <time>2024-03-31T12:12:57.000Z</time>
      </trkpt>
      <trkpt lat="51.730878" lon="5.955897">
        <ele>14.013879</ele>
        <time>2024-03-31T12:12:59.000Z</time>
      </trkpt>
      <trkpt lat="51.731024" lon="5.955887">
        <ele>13.894159</ele>
        <time>2024-03-31T12:13:01.000Z</time>
      </trkpt>
      <trkpt lat="51.731172" lon="5.955883">
        <ele>13.772892</ele>
        <time>2024-03-31T12:13:03.000Z</time>
      </trkpt>
      <trkpt lat="51.731320" lon="5.955874">
        <ele>13.651555</ele>
        <time>2024-03-31T12:13:04.999Z</time>
      </trkpt>
      <trkpt lat="51.731466" lon="5.955868">
        <ele>13.531904</ele>
        <time>2024-03-31T12:13:06.999Z</time>
      </trkpt>
      <trkpt lat="51.731611" lon="5.955856">
        <ele>13.412955</ele>
        <time>2024-03-31T12:13:08.999Z</time>
      </trkpt>
      <trkpt lat="51.731757" lon="5.955853">
        <ele>13.293333</ele>
        <time>2024-03-31T12:13:10.999Z</time>
      </trkpt>
      <trkpt lat="51.731902" lon="5.955843">
        <ele>13.174432</ele>
        <time>2024-03-31T12:13:12.999Z</time>
      </trkpt>
      <trkpt lat="51.732053" lon="5.955838">
        <ele>13.050698</ele>
        <time>2024-03-31T12:13:14.999Z</time>
      </trkpt>
      <trkpt lat="51.732197" lon="5.955832">
        <ele>12.932685</ele>
        <time>2024-03-31T12:13:16.999Z</time>
      </trkpt>
      <trkpt lat="51.732342" lon="5.955829">
        <ele>12.813882</ele>
        <time>2024-03-31T12:13:18.999Z</time>
      </trkpt>
      <trkpt lat="51.732489" lon="5.955822">
        <ele>12.693398</ele>
        <time>2024-03-31T12:13:20.999Z</time>
      </trkpt>
      <trkpt lat="51.732636" lon="5.955810">
        <ele>12.647478</ele>
        <time>2024-03-31T12:13:22.999Z</time>
      </trkpt>
      <trkpt lat="51.732786" lon="5.955801">
        <ele>12.741774</ele>
        <time>2024-03-31T12:13:24.999Z</time>
      </trkpt>
      <trkpt lat="51.732933" lon="5.955795">
        <ele>12.834149</ele>
        <time>2024-03-31T12:13:26.999Z</time>
      </trkpt>
      <trkpt lat="51.733080" lon="5.955785">
        <ele>12.926577</ele>
        <time>2024-03-31T12:13:28.999Z</time>
      </trkpt>
      <trkpt lat="51.733223" lon="5.955777">
        <ele>13.016465</ele>
        <time>2024-03-31T12:13:30.999Z</time>
      </trkpt>
      <trkpt lat="51.733371" lon="5.955768">
        <ele>13.109505</ele>
        <time>2024-03-31T12:13:32.999Z</time>
      </trkpt>
      <trkpt lat="51.733518" lon="5.955756">
        <ele>13.201969</ele>
        <time>2024-03-31T12:13:34.999Z</time>
      </trkpt>
      <trkpt lat="51.733662" lon="5.955748">
        <ele>13.292484</ele>
        <time>2024-03-31T12:13:36.999Z</time>
      </trkpt>
      <trkpt lat="51.733809" lon="5.955742">
        <ele>13.384860</ele>
        <time>2024-03-31T12:13:38.999Z</time>
      </trkpt>
      <trkpt lat="51.733959" lon="5.955755">
        <ele>13.479227</ele>
        <time>2024-03-31T12:13:40.999Z</time>
      </trkpt>
      <trkpt lat="51.734106" lon="5.955758">
        <ele>13.571580</ele>
        <time>2024-03-31T12:13:42.999Z</time>
      </trkpt>
      <trkpt lat="51.734251" lon="5.955748">
        <ele>13.662753</ele>
        <time>2024-03-31T12:13:44.999Z</time>
      </trkpt>
      <trkpt lat="51.734395" lon="5.955730">
        <ele>13.743259</ele>
        <time>2024-03-31T12:13:46.999Z</time>
      </trkpt>
      <trkpt lat="51.734538" lon="5.955701">
        <ele>13.724799</ele>
        <time>2024-03-31T12:13:48.999Z</time>
      </trkpt>
      <trkpt lat="51.734678" lon="5.955683">
        <ele>13.706811</ele>
        <time>2024-03-31T12:13:50.999Z</time>
      </trkpt>
      <trkpt lat="51.734824" lon="5.955668">
        <ele>13.688073</ele>
        <time>2024-03-31T12:13:52.998Z</time>
      </trkpt>
      <trkpt lat="51.734968" lon="5.955656">
        <ele>13.669605</ele>
        <time>2024-03-31T12:13:54.998Z</time>
      </trkpt>
      <trkpt lat="51.735114" lon="5.955650">
        <ele>13.650899</ele>
        <time>2024-03-31T12:13:56.998Z</time>
      </trkpt>
      <trkpt lat="51.735259" lon="5.955650">
        <ele>13.632327</ele>
        <time>2024-03-31T12:13:58.998Z</time>
      </trkpt>
      <trkpt lat="51.735402" lon="5.955649">
        <ele>13.614012</ele>
        <time>2024-03-31T12:14:00.998Z</time>
      </trkpt>
      <trkpt lat="51.735545" lon="5.955649">
        <ele>13.595696</ele>
        <time>2024-03-31T12:14:02.998Z</time>
      </trkpt>
      <trkpt lat="51.735690" lon="5.955645">
        <ele>13.577121</ele>
        <time>2024-03-31T12:14:04.998Z</time>
      </trkpt>
      <trkpt lat="51.735834" lon="5.955639">
        <ele>13.558672</ele>
        <time>2024-03-31T12:14:06.998Z</time>
      </trkpt>
      <trkpt lat="51.735979" lon="5.955633">
        <ele>13.540094</ele>
        <time>2024-03-31T12:14:08.998Z</time>
      </trkpt>
      <trkpt lat="51.736122" lon="5.955631">
        <ele>13.521777</ele>
        <time>2024-03-31T12:14:10.998Z</time>
      </trkpt>
      <trkpt lat="51.736266" lon="5.955630">
        <ele>13.539802</ele>
        <time>2024-03-31T12:14:12.998Z</time>
      </trkpt>
      <trkpt lat="51.736409" lon="5.955636">
        <ele>13.580691</ele>
        <time>2024-03-31T12:14:14.998Z</time>
      </trkpt>
      <trkpt lat="51.736552" lon="5.955645">
        <ele>13.621598</ele>
        <time>2024-03-31T12:14:16.998Z</time>
      </trkpt>
      <trkpt lat="51.736693" lon="5.955648">
        <ele>13.661905</ele>
        <time>2024-03-31T12:14:18.998Z</time>
      </trkpt>
      <trkpt lat="51.736832" lon="5.955645">
        <ele>13.701641</ele>
        <time>2024-03-31T12:14:20.998Z</time>
      </trkpt>
      <trkpt lat="51.736972" lon="5.955633">
        <ele>13.741715</ele>
        <time>2024-03-31T12:14:22.998Z</time>
      </trkpt>
      <trkpt lat="51.737110" lon="5.955609">
        <ele>13.781389</ele>
        <time>2024-03-31T12:14:24.998Z</time>
      </trkpt>
      <trkpt lat="51.737247" lon="5.955575">
        <ele>13.821010</ele>
        <time>2024-03-31T12:14:26.998Z</time>
      </trkpt>
      <trkpt lat="51.737382" lon="5.955537">
        <ele>13.860180</ele>
        <time>2024-03-31T12:14:28.998Z</time>
      </trkpt>
      <trkpt lat="51.737512" lon="5.955505">
        <ele>13.897769</ele>
        <time>2024-03-31T12:14:30.998Z</time>
      </trkpt>
      <trkpt lat="51.737628" lon="5.955433">
        <ele>13.933292</ele>
        <time>2024-03-31T12:14:32.998Z</time>
      </trkpt>
      <trkpt lat="51.737743" lon="5.955379">
        <ele>13.967525</ele>
        <time>2024-03-31T12:14:34.998Z</time>
      </trkpt>
      <trkpt lat="51.737858" lon="5.955320">
        <ele>14.002016</ele>
        <time>2024-03-31T12:14:36.998Z</time>
      </trkpt>
      <trkpt lat="51.737965" lon="5.955248">
        <ele>14.035865</ele>
        <time>2024-03-31T12:14:38.998Z</time>
      </trkpt>
      <trkpt lat="51.738047" lon="5.955185">
        <ele>14.064716</ele>
        <time>2024-03-31T12:14:40.997Z</time>
      </trkpt>
      <trkpt lat="51.738107" lon="5.955339">
        <ele>14.100514</ele>
        <time>2024-03-31T12:14:43.997Z</time>
      </trkpt>
      <trkpt lat="51.738174" lon="5.955486">
        <ele>14.136426</ele>
        <time>2024-03-31T12:14:46.000Z</time>
      </trkpt>
      <trkpt lat="51.738246" lon="5.955643">
        <ele>14.174864</ele>
        <time>2024-03-31T12:14:48.000Z</time>
      </trkpt>
      <trkpt lat="51.738309" lon="5.955800">
        <ele>14.211672</ele>
        <time>2024-03-31T12:14:50.000Z</time>
      </trkpt>
      <trkpt lat="51.738371" lon="5.955976">
        <ele>14.251510</ele>
        <time>2024-03-31T12:14:52.000Z</time>
      </trkpt>
      <trkpt lat="51.738430" lon="5.956151">
        <ele>14.290714</ele>
        <time>2024-03-31T12:14:54.000Z</time>
      </trkpt>
      <trkpt lat="51.738473" lon="5.956309">
        <ele>14.324670</ele>
        <time>2024-03-31T12:14:56.000Z</time>
      </trkpt>
      <trkpt lat="51.738505" lon="5.956488">
        <ele>14.361326</ele>
        <time>2024-03-31T12:14:58.000Z</time>
      </trkpt>
      <trkpt lat="51.738532" lon="5.956671">
        <ele>14.398339</ele>
        <time>2024-03-31T12:15:00.000Z</time>
      </trkpt>
      <trkpt lat="51.738550" lon="5.956859">
        <ele>14.435767</ele>
        <time>2024-03-31T12:15:02.000Z</time>
      </trkpt>
      <trkpt lat="51.738554" lon="5.957057">
        <ele>14.474744</ele>
        <time>2024-03-31T12:15:04.000Z</time>
      </trkpt>
      <trkpt lat="51.738543" lon="5.957262">
        <ele>14.515229</ele>
        <time>2024-03-31T12:15:06.000Z</time>
      </trkpt>
      <trkpt lat="51.738521" lon="5.957450">
        <ele>14.552872</ele>
        <time>2024-03-31T12:15:08.000Z</time>
      </trkpt>
      <trkpt lat="51.738490" lon="5.957640">
        <ele>14.591530</ele>
        <time>2024-03-31T12:15:10.000Z</time>
      </trkpt>
      <trkpt lat="51.738464" lon="5.957848">
        <ele>14.600347</ele>
        <time>2024-03-31T12:15:11.999Z</time>
      </trkpt>
      <trkpt lat="51.738431" lon="5.958034">
        <ele>14.600501</ele>
        <time>2024-03-31T12:15:13.999Z</time>
      </trkpt>
      <trkpt lat="51.738395" lon="5.958218">
        <ele>14.600655</ele>
        <time>2024-03-31T12:15:15.999Z</time>
      </trkpt>
      <trkpt lat="51.738360" lon="5.958407">
        <ele>14.600813</ele>
        <time>2024-03-31T12:15:17.999Z</time>
      </trkpt>
      <trkpt lat="51.738311" lon="5.958586">
        <ele>14.600969</ele>
        <time>2024-03-31T12:15:19.999Z</time>
      </trkpt>
      <trkpt lat="51.738298" lon="5.958772">
        <ele>14.601119</ele>
        <time>2024-03-31T12:15:21.999Z</time>
      </trkpt>
      <trkpt lat="51.738276" lon="5.958962">
        <ele>14.601273</ele>
        <time>2024-03-31T12:15:23.999Z</time>
      </trkpt>
      <trkpt lat="51.738265" lon="5.959132">
        <ele>14.601409</ele>
        <time>2024-03-31T12:15:25.999Z</time>
      </trkpt>
      <trkpt lat="51.738274" lon="5.959300">
        <ele>14.601544</ele>
        <time>2024-03-31T12:15:27.999Z</time>
      </trkpt>
      <trkpt lat="51.738321" lon="5.959464">
        <ele>14.601688</ele>
        <time>2024-03-31T12:15:29.999Z</time>
      </trkpt>
      <trkpt lat="51.738377" lon="5.959626">
        <ele>14.601837</ele>
        <time>2024-03-31T12:15:31.999Z</time>
      </trkpt>
      <trkpt lat="51.738411" lon="5.959809">
        <ele>14.601989</ele>
        <time>2024-03-31T12:15:33.999Z</time>
      </trkpt>
      <trkpt lat="51.738456" lon="5.959980">
        <ele>14.602137</ele>
        <time>2024-03-31T12:15:35.999Z</time>
      </trkpt>
      <trkpt lat="51.738513" lon="5.960142">
        <ele>14.602286</ele>
        <time>2024-03-31T12:15:37.999Z</time>
      </trkpt>
      <trkpt lat="51.738560" lon="5.960342">
        <ele>14.602457</ele>
        <time>2024-03-31T12:15:39.999Z</time>
      </trkpt>
      <trkpt lat="51.738608" lon="5.960522">
        <ele>14.685759</ele>
        <time>2024-03-31T12:15:41.999Z</time>
      </trkpt>
      <trkpt lat="51.738654" lon="5.960703">
        <ele>14.844920</ele>
        <time>2024-03-31T12:15:43.999Z</time>
      </trkpt>
      <trkpt lat="51.738696" lon="5.960878">
        <ele>14.997600</ele>
        <time>2024-03-31T12:15:45.999Z</time>
      </trkpt>
      <trkpt lat="51.738731" lon="5.961050">
        <ele>15.144882</ele>
        <time>2024-03-31T12:15:47.999Z</time>
      </trkpt>
      <trkpt lat="51.738739" lon="5.961230">
        <ele>15.291688</ele>
        <time>2024-03-31T12:15:49.999Z</time>
      </trkpt>
      <trkpt lat="51.738735" lon="5.961405">
        <ele>15.434147</ele>
        <time>2024-03-31T12:15:51.999Z</time>
      </trkpt>
      <trkpt lat="51.738718" lon="5.961635">
        <ele>15.622579</ele>
        <time>2024-03-31T12:15:54.999Z</time>
      </trkpt>
      <trkpt lat="51.738709" lon="5.961805">
        <ele>15.761378</ele>
        <time>2024-03-31T12:15:56.998Z</time>
      </trkpt>
      <trkpt lat="51.738700" lon="5.961974">
        <ele>15.899366</ele>
        <time>2024-03-31T12:15:58.998Z</time>
      </trkpt>
      <trkpt lat="51.738693" lon="5.962140">
        <ele>16.034719</ele>
        <time>2024-03-31T12:16:00.998Z</time>
      </trkpt>
      <trkpt lat="51.738703" lon="5.962301">
        <ele>16.166349</ele>
        <time>2024-03-31T12:16:02.998Z</time>
      </trkpt>
      <trkpt lat="51.738680" lon="5.962469">
        <ele>16.306317</ele>
        <time>2024-03-31T12:16:04.998Z</time>
      </trkpt>
      <trkpt lat="51.738692" lon="5.962641">
        <ele>16.447124</ele>
        <time>2024-03-31T12:16:06.998Z</time>
      </trkpt>
      <trkpt lat="51.738678" lon="5.962797">
        <ele>16.575355</ele>
        <time>2024-03-31T12:16:08.998Z</time>
      </trkpt>
      <trkpt lat="51.738678" lon="5.962950">
        <ele>16.699820</ele>
        <time>2024-03-31T12:16:10.998Z</time>
      </trkpt>
      <trkpt lat="51.738677" lon="5.963098">
        <ele>16.820225</ele>
        <time>2024-03-31T12:16:12.998Z</time>
      </trkpt>
      <trkpt lat="51.738677" lon="5.963250">
        <ele>16.943876</ele>
        <time>2024-03-31T12:16:14.998Z</time>
      </trkpt>
      <trkpt lat="51.738676" lon="5.963452">
        <ele>16.936557</ele>
        <time>2024-03-31T12:16:17.998Z</time>
      </trkpt>
      <trkpt lat="51.738681" lon="5.963612">
        <ele>16.910257</ele>
        <time>2024-03-31T12:16:19.998Z</time>
      </trkpt>
      <trkpt lat="51.738693" lon="5.963824">
        <ele>16.875310</ele>
        <time>2024-03-31T12:16:22.998Z</time>
      </trkpt>
      <trkpt lat="51.738699" lon="5.963972">
        <ele>16.850962</ele>
        <time>2024-03-31T12:16:24.998Z</time>
      </trkpt>
      <trkpt lat="51.738707" lon="5.964191">
        <ele>16.814949</ele>
        <time>2024-03-31T12:16:27.998Z</time>
      </trkpt>
      <trkpt lat="51.738712" lon="5.964338">
        <ele>16.790781</ele>
        <time>2024-03-31T12:16:29.998Z</time>
      </trkpt>
      <trkpt lat="51.738716" lon="5.964503">
        <ele>16.763673</ele>
        <time>2024-03-31T12:16:31.998Z</time>
      </trkpt>
      <trkpt lat="51.738720" lon="5.964651">
        <ele>16.739354</ele>
        <time>2024-03-31T12:16:33.998Z</time>
      </trkpt>
      <trkpt lat="51.738738" lon="5.964794">
        <ele>16.715399</ele>
        <time>2024-03-31T12:16:35.998Z</time>
      </trkpt>
      <trkpt lat="51.738744" lon="5.964977">
        <ele>16.685316</ele>
        <time>2024-03-31T12:16:38.998Z</time>
      </trkpt>
      <trkpt lat="51.738732" lon="5.965147">
        <ele>16.657228</ele>
        <time>2024-03-31T12:16:41.997Z</time>
      </trkpt>
      <trkpt lat="51.738735" lon="5.965341">
        <ele>16.625371</ele>
        <time>2024-03-31T12:16:44.997Z</time>
      </trkpt>
      <trkpt lat="51.738737" lon="5.965514">
        <ele>16.596966</ele>
        <time>2024-03-31T12:16:47.997Z</time>
      </trkpt>
      <trkpt lat="51.738736" lon="5.965686">
        <ele>16.568729</ele>
        <time>2024-03-31T12:16:50.997Z</time>
      </trkpt>
      <trkpt lat="51.738719" lon="5.965921">
        <ele>16.529889</ele>
        <time>2024-03-31T12:16:54.000Z</time>
      </trkpt>
      <trkpt lat="51.738701" lon="5.966079">
        <ele>16.503516</ele>
        <time>2024-03-31T12:16:56.000Z</time>
      </trkpt>
      <trkpt lat="51.738677" lon="5.966286">
        <ele>16.450645</ele>
        <time>2024-03-31T12:16:59.000Z</time>
      </trkpt>
      <trkpt lat="51.738657" lon="5.966463">
        <ele>16.393560</ele>
        <time>2024-03-31T12:17:01.000Z</time>
      </trkpt>
      <trkpt lat="51.738639" lon="5.966625">
        <ele>16.341341</ele>
        <time>2024-03-31T12:17:03.000Z</time>
      </trkpt>
      <trkpt lat="51.738623" lon="5.966784">
        <ele>16.290233</ele>
        <time>2024-03-31T12:17:05.000Z</time>
      </trkpt>
      <trkpt lat="51.738603" lon="5.966992">
        <ele>16.223449</ele>
        <time>2024-03-31T12:17:08.000Z</time>
      </trkpt>
      <trkpt lat="51.738588" lon="5.967146">
        <ele>16.173988</ele>
        <time>2024-03-31T12:17:10.000Z</time>
      </trkpt>
      <trkpt lat="51.738566" lon="5.967370">
        <ele>16.102030</ele>
        <time>2024-03-31T12:17:13.000Z</time>
      </trkpt>
      <trkpt lat="51.738549" lon="5.967538">
        <ele>16.048021</ele>
        <time>2024-03-31T12:17:15.000Z</time>
      </trkpt>
      <trkpt lat="51.738522" lon="5.967709">
        <ele>15.992032</ele>
        <time>2024-03-31T12:17:17.000Z</time>
      </trkpt>
      <trkpt lat="51.738484" lon="5.967938">
        <ele>15.916813</ele>
        <time>2024-03-31T12:17:19.000Z</time>
      </trkpt>
      <trkpt lat="51.738465" lon="5.968119">
        <ele>15.858567</ele>
        <time>2024-03-31T12:17:20.999Z</time>
      </trkpt>
      <trkpt lat="51.738459" lon="5.968322">
        <ele>15.794086</ele>
        <time>2024-03-31T12:17:22.999Z</time>
      </trkpt>
      <trkpt lat="51.738467" lon="5.968514">
        <ele>15.733032</ele>
        <time>2024-03-31T12:17:24.999Z</time>
      </trkpt>
      <trkpt lat="51.738497" lon="5.968731">
        <ele>15.662489</ele>
        <time>2024-03-31T12:17:26.999Z</time>
      </trkpt>
      <trkpt lat="51.738547" lon="5.968913">
        <ele>15.599317</ele>
        <time>2024-03-31T12:17:28.999Z</time>
      </trkpt>
      <trkpt lat="51.738618" lon="5.969088">
        <ele>15.544452</ele>
        <time>2024-03-31T12:17:30.999Z</time>
      </trkpt>
      <trkpt lat="51.738700" lon="5.969211">
        <ele>15.506477</ele>
        <time>2024-03-31T12:17:32.999Z</time>
      </trkpt>
      <trkpt lat="51.738765" lon="5.969340">
        <ele>15.471533</ele>
        <time>2024-03-31T12:17:34.999Z</time>
      </trkpt>
      <trkpt lat="51.738815" lon="5.969464">
        <ele>15.440442</ele>
        <time>2024-03-31T12:17:36.999Z</time>
      </trkpt>
      <trkpt lat="51.738868" lon="5.969637">
        <ele>15.399887</ele>
        <time>2024-03-31T12:17:38.999Z</time>
      </trkpt>
      <trkpt lat="51.738899" lon="5.969795">
        <ele>15.365063</ele>
        <time>2024-03-31T12:17:40.999Z</time>
      </trkpt>
      <trkpt lat="51.738929" lon="5.969983">
        <ele>15.324271</ele>
        <time>2024-03-31T12:17:42.999Z</time>
      </trkpt>
      <trkpt lat="51.738973" lon="5.970231">
        <ele>15.270066</ele>
        <time>2024-03-31T12:17:44.999Z</time>
      </trkpt>
      <trkpt lat="51.739012" lon="5.970423">
        <ele>15.227609</ele>
        <time>2024-03-31T12:17:46.999Z</time>
      </trkpt>
      <trkpt lat="51.739053" lon="5.970636">
        <ele>15.180743</ele>
        <time>2024-03-31T12:17:48.999Z</time>
      </trkpt>
      <trkpt lat="51.739086" lon="5.970857">
        <ele>15.132976</ele>
        <time>2024-03-31T12:17:50.999Z</time>
      </trkpt>
      <trkpt lat="51.739111" lon="5.971049">
        <ele>15.091752</ele>
        <time>2024-03-31T12:17:52.999Z</time>
      </trkpt>
      <trkpt lat="51.739128" lon="5.971230">
        <ele>15.053287</ele>
        <time>2024-03-31T12:17:54.999Z</time>
      </trkpt>
      <trkpt lat="51.739156" lon="5.971419">
        <ele>15.012455</ele>
        <time>2024-03-31T12:17:56.999Z</time>
      </trkpt>
      <trkpt lat="51.739157" lon="5.971675">
        <ele>14.958665</ele>
        <time>2024-03-31T12:17:58.999Z</time>
      </trkpt>
      <trkpt lat="51.739172" lon="5.971900">
        <ele>14.921666</ele>
        <time>2024-03-31T12:18:00.999Z</time>
      </trkpt>
      <trkpt lat="51.739186" lon="5.972104">
        <ele>14.888514</ele>
        <time>2024-03-31T12:18:02.999Z</time>
      </trkpt>
      <trkpt lat="51.739201" lon="5.972314">
        <ele>14.854370</ele>
        <time>2024-03-31T12:18:04.999Z</time>
      </trkpt>
      <trkpt lat="51.739214" lon="5.972502">
        <ele>14.823815</ele>
        <time>2024-03-31T12:18:06.998Z</time>
      </trkpt>
      <trkpt lat="51.739240" lon="5.972712">
        <ele>14.789225</ele>
        <time>2024-03-31T12:18:08.998Z</time>
      </trkpt>
      <trkpt lat="51.739246" lon="5.972929">
        <ele>14.754140</ele>
        <time>2024-03-31T12:18:10.998Z</time>
      </trkpt>
      <trkpt lat="51.739264" lon="5.973158">
        <ele>14.716855</ele>
        <time>2024-03-31T12:18:12.998Z</time>
      </trkpt>
      <trkpt lat="51.739285" lon="5.973344">
        <ele>14.686317</ele>
        <time>2024-03-31T12:18:14.998Z</time>
      </trkpt>
      <trkpt lat="51.739276" lon="5.973541">
        <ele>14.654411</ele>
        <time>2024-03-31T12:18:16.998Z</time>
      </trkpt>
      <trkpt lat="51.739252" lon="5.973757">
        <ele>14.618965</ele>
        <time>2024-03-31T12:18:18.998Z</time>
      </trkpt>
      <trkpt lat="51.739234" lon="5.973959">
        <ele>14.586002</ele>
        <time>2024-03-31T12:18:20.998Z</time>
      </trkpt>
      <trkpt lat="51.739208" lon="5.974161">
        <ele>14.552677</ele>
        <time>2024-03-31T12:18:22.998Z</time>
      </trkpt>
      <trkpt lat="51.739195" lon="5.974389">
        <ele>14.515695</ele>
        <time>2024-03-31T12:18:24.998Z</time>
      </trkpt>
      <trkpt lat="51.739180" lon="5.974615">
        <ele>14.495147</ele>
        <time>2024-03-31T12:18:26.998Z</time>
      </trkpt>
      <trkpt lat="51.739150" lon="5.974832">
        <ele>14.526731</ele>
        <time>2024-03-31T12:18:28.998Z</time>
      </trkpt>
      <trkpt lat="51.739146" lon="5.975029">
        <ele>14.554729</ele>
        <time>2024-03-31T12:18:30.998Z</time>
      </trkpt>
      <trkpt lat="51.739116" lon="5.975222">
        <ele>14.582994</ele>
        <time>2024-03-31T12:18:32.998Z</time>
      </trkpt>
      <trkpt lat="51.739091" lon="5.975424">
        <ele>14.612255</ele>
        <time>2024-03-31T12:18:34.998Z</time>
      </trkpt>
      <trkpt lat="51.739067" lon="5.975628">
        <ele>14.641751</ele>
        <time>2024-03-31T12:18:36.998Z</time>
      </trkpt>
      <trkpt lat="51.739044" lon="5.975827">
        <ele>14.670507</ele>
        <time>2024-03-31T12:18:38.998Z</time>
      </trkpt>
      <trkpt lat="51.739019" lon="5.976032">
        <ele>14.700186</ele>
        <time>2024-03-31T12:18:40.998Z</time>
      </trkpt>
      <trkpt lat="51.738994" lon="5.976235">
        <ele>14.729586</ele>
        <time>2024-03-31T12:18:42.998Z</time>
      </trkpt>
      <trkpt lat="51.738982" lon="5.976431">
        <ele>14.757563</ele>
        <time>2024-03-31T12:18:44.998Z</time>
      </trkpt>
      <trkpt lat="51.738959" lon="5.976607">
        <ele>14.783114</ele>
        <time>2024-03-31T12:18:46.998Z</time>
      </trkpt>
      <trkpt lat="51.738933" lon="5.976791">
        <ele>14.809923</ele>
        <time>2024-03-31T12:18:48.998Z</time>
      </trkpt>
      <trkpt lat="51.738915" lon="5.976992">
        <ele>14.838772</ele>
        <time>2024-03-31T12:18:50.998Z</time>
      </trkpt>
      <trkpt lat="51.738873" lon="5.977200">
        <ele>14.869849</ele>
        <time>2024-03-31T12:18:52.997Z</time>
      </trkpt>
      <trkpt lat="51.738847" lon="5.977404">
        <ele>14.899434</ele>
        <time>2024-03-31T12:18:54.997Z</time>
      </trkpt>
      <trkpt lat="51.738834" lon="5.977608">
        <ele>14.980340</ele>
        <time>2024-03-31T12:18:56.997Z</time>
      </trkpt>
      <trkpt lat="51.738802" lon="5.977811">
        <ele>15.064354</ele>
        <time>2024-03-31T12:18:59.000Z</time>
      </trkpt>
      <trkpt lat="51.738780" lon="5.978007">
        <ele>15.144245</ele>
        <time>2024-03-31T12:19:01.000Z</time>
      </trkpt>
      <trkpt lat="51.738762" lon="5.978207">
        <ele>15.225302</ele>
        <time>2024-03-31T12:19:03.000Z</time>
      </trkpt>
      <trkpt lat="51.738755" lon="5.978392">
        <ele>15.299639</ele>
        <time>2024-03-31T12:19:05.000Z</time>
      </trkpt>
      <trkpt lat="51.738734" lon="5.978551">
        <ele>15.364843</ele>
        <time>2024-03-31T12:19:07.000Z</time>
      </trkpt>
      <trkpt lat="51.738718" lon="5.978715">
        <ele>15.431430</ele>
        <time>2024-03-31T12:19:09.000Z</time>
      </trkpt>
      <trkpt lat="51.738733" lon="5.978885">
        <ele>15.500301</ele>
        <time>2024-03-31T12:19:11.000Z</time>
      </trkpt>
      <trkpt lat="51.738726" lon="5.979056">
        <ele>15.569034</ele>
        <time>2024-03-31T12:19:13.000Z</time>
      </trkpt>
      <trkpt lat="51.738732" lon="5.979234">
        <ele>15.640531</ele>
        <time>2024-03-31T12:19:15.000Z</time>
      </trkpt>
      <trkpt lat="51.738715" lon="5.979415">
        <ele>15.713955</ele>
        <time>2024-03-31T12:19:17.000Z</time>
      </trkpt>
      <trkpt lat="51.738715" lon="5.979605">
        <ele>15.790158</ele>
        <time>2024-03-31T12:19:19.000Z</time>
      </trkpt>
      <trkpt lat="51.738715" lon="5.979777">
        <ele>15.859143</ele>
        <time>2024-03-31T12:19:21.000Z</time>
      </trkpt>
      <trkpt lat="51.738715" lon="5.979948">
        <ele>15.927726</ele>
        <time>2024-03-31T12:19:23.000Z</time>
      </trkpt>
      <trkpt lat="51.738719" lon="5.980111">
        <ele>15.993152</ele>
        <time>2024-03-31T12:19:24.999Z</time>
      </trkpt>
      <trkpt lat="51.738723" lon="5.980271">
        <ele>16.057376</ele>
        <time>2024-03-31T12:19:26.999Z</time>
      </trkpt>
      <trkpt lat="51.738726" lon="5.980423">
        <ele>16.086980</ele>
        <time>2024-03-31T12:19:28.999Z</time>
      </trkpt>
      <trkpt lat="51.738744" lon="5.980590">
        <ele>16.114899</ele>
        <time>2024-03-31T12:19:30.999Z</time>
      </trkpt>
      <trkpt lat="51.738761" lon="5.980750">
        <ele>16.141637</ele>
        <time>2024-03-31T12:19:32.999Z</time>
      </trkpt>
      <trkpt lat="51.738756" lon="5.980917">
        <ele>16.169175</ele>
        <time>2024-03-31T12:19:34.999Z</time>
      </trkpt>
      <trkpt lat="51.738766" lon="5.981075">
        <ele>16.195333</ele>
        <time>2024-03-31T12:19:36.999Z</time>
      </trkpt>
      <trkpt lat="51.738780" lon="5.981227">
        <ele>16.220644</ele>
        <time>2024-03-31T12:19:38.999Z</time>
      </trkpt>
      <trkpt lat="51.738789" lon="5.981417">
        <ele>16.252029</ele>
        <time>2024-03-31T12:19:41.999Z</time>
      </trkpt>
      <trkpt lat="51.738797" lon="5.981590">
        <ele>16.280602</ele>
        <time>2024-03-31T12:19:44.999Z</time>
      </trkpt>
      <trkpt lat="51.738814" lon="5.981796">
        <ele>16.314831</ele>
        <time>2024-03-31T12:19:47.999Z</time>
      </trkpt>
      <trkpt lat="51.738824" lon="5.981942">
        <ele>16.339024</ele>
        <time>2024-03-31T12:19:49.999Z</time>
      </trkpt>
      <trkpt lat="51.738835" lon="5.982091">
        <ele>16.363739</ele>
        <time>2024-03-31T12:19:52.999Z</time>
      </trkpt>
      <trkpt lat="51.738849" lon="5.982273">
        <ele>16.393946</ele>
        <time>2024-03-31T12:19:55.999Z</time>
      </trkpt>
      <trkpt lat="51.738877" lon="5.982430">
        <ele>16.420855</ele>
        <time>2024-03-31T12:19:57.999Z</time>
      </trkpt>
      <trkpt lat="51.738893" lon="5.982645">
        <ele>16.456521</ele>
        <time>2024-03-31T12:20:00.999Z</time>
      </trkpt>
      <trkpt lat="51.738917" lon="5.982832">
        <ele>16.487975</ele>
        <time>2024-03-31T12:20:02.999Z</time>
      </trkpt>
      <trkpt lat="51.738943" lon="5.983011">
        <ele>16.518257</ele>
        <time>2024-03-31T12:20:04.999Z</time>
      </trkpt>
      <trkpt lat="51.738949" lon="5.983182">
        <ele>16.534436</ele>
        <time>2024-03-31T12:20:06.999Z</time>
      </trkpt>
      <trkpt lat="51.738973" lon="5.983375">
        <ele>16.435376</ele>
        <time>2024-03-31T12:20:08.999Z</time>
      </trkpt>
      <trkpt lat="51.738993" lon="5.983530">
        <ele>16.355702</ele>
        <time>2024-03-31T12:20:10.998Z</time>
      </trkpt>
      <trkpt lat="51.739026" lon="5.983678">
        <ele>16.276544</ele>
        <time>2024-03-31T12:20:12.998Z</time>
      </trkpt>
      <trkpt lat="51.739051" lon="5.983851">
        <ele>16.187149</ele>
        <time>2024-03-31T12:20:14.998Z</time>
      </trkpt>
      <trkpt lat="51.739087" lon="5.984020">
        <ele>16.097214</ele>
        <time>2024-03-31T12:20:16.998Z</time>
      </trkpt>
      <trkpt lat="51.739130" lon="5.984180">
        <ele>16.009443</ele>
        <time>2024-03-31T12:20:18.998Z</time>
      </trkpt>
      <trkpt lat="51.739149" lon="5.984352">
        <ele>15.921524</ele>
        <time>2024-03-31T12:20:20.998Z</time>
      </trkpt>
      <trkpt lat="51.739176" lon="5.984496">
        <ele>15.845812</ele>
        <time>2024-03-31T12:20:22.998Z</time>
      </trkpt>
      <trkpt lat="51.739201" lon="5.984653">
        <ele>15.764236</ele>
        <time>2024-03-31T12:20:24.998Z</time>
      </trkpt>
      <trkpt lat="51.739225" lon="5.984842">
        <ele>15.667149</ele>
        <time>2024-03-31T12:20:27.998Z</time>
      </trkpt>
      <trkpt lat="51.739253" lon="5.985011">
        <ele>15.579115</ele>
        <time>2024-03-31T12:20:30.998Z</time>
      </trkpt>
      <trkpt lat="51.739242" lon="5.985207">
        <ele>15.480080</ele>
        <time>2024-03-31T12:20:33.998Z</time>
      </trkpt>
      <trkpt lat="51.739232" lon="5.985360">
        <ele>15.402661</ele>
        <time>2024-03-31T12:20:35.998Z</time>
      </trkpt>
      <trkpt lat="51.739211" lon="5.985545">
        <ele>15.308015</ele>
        <time>2024-03-31T12:20:38.998Z</time>
      </trkpt>
      <trkpt lat="51.739193" lon="5.985745">
        <ele>15.206314</ele>
        <time>2024-03-31T12:20:41.998Z</time>
      </trkpt>
      <trkpt lat="51.739160" lon="5.985910">
        <ele>15.119060</ele>
        <time>2024-03-31T12:20:43.998Z</time>
      </trkpt>
      <trkpt lat="51.739129" lon="5.986066">
        <ele>15.112397</ele>
        <time>2024-03-31T12:20:45.998Z</time>
      </trkpt>
      <trkpt lat="51.739080" lon="5.986208">
        <ele>15.167595</ele>
        <time>2024-03-31T12:20:47.998Z</time>
      </trkpt>
      <trkpt lat="51.739039" lon="5.986373">
        <ele>15.227963</ele>
        <time>2024-03-31T12:20:49.998Z</time>
      </trkpt>
      <trkpt lat="51.739005" lon="5.986530">
        <ele>15.284439</ele>
        <time>2024-03-31T12:20:51.998Z</time>
      </trkpt>
      <trkpt lat="51.738975" lon="5.986697">
        <ele>15.343483</ele>
        <time>2024-03-31T12:20:53.998Z</time>
      </trkpt>
      <trkpt lat="51.738952" lon="5.986841">
        <ele>15.393979</ele>
        <time>2024-03-31T12:20:55.997Z</time>
      </trkpt>
      <trkpt lat="51.738928" lon="5.987005">
        <ele>15.451200</ele>
        <time>2024-03-31T12:20:57.997Z</time>
      </trkpt>
      <trkpt lat="51.738905" lon="5.987188">
        <ele>15.514605</ele>
        <time>2024-03-31T12:20:59.997Z</time>
      </trkpt>
      <trkpt lat="51.738888" lon="5.987357">
        <ele>15.572742</ele>
        <time>2024-03-31T12:21:01.997Z</time>
      </trkpt>
      <trkpt lat="51.738887" lon="5.987535">
        <ele>15.633186</ele>
        <time>2024-03-31T12:21:04.000Z</time>
      </trkpt>
      <trkpt lat="51.738874" lon="5.987711">
        <ele>15.693371</ele>
        <time>2024-03-31T12:21:06.000Z</time>
      </trkpt>
      <trkpt lat="51.738867" lon="5.987903">
        <ele>15.758679</ele>
        <time>2024-03-31T12:21:08.000Z</time>
      </trkpt>
      <trkpt lat="51.738846" lon="5.988078">
        <ele>15.819206</ele>
        <time>2024-03-31T12:21:10.000Z</time>
      </trkpt>
      <trkpt lat="51.738870" lon="5.988257">
        <ele>15.881395</ele>
        <time>2024-03-31T12:21:12.000Z</time>
      </trkpt>
      <trkpt lat="51.738841" lon="5.988427">
        <ele>15.941270</ele>
        <time>2024-03-31T12:21:14.000Z</time>
      </trkpt>
      <trkpt lat="51.738832" lon="5.988604">
        <ele>16.001573</ele>
        <time>2024-03-31T12:21:16.000Z</time>
      </trkpt>
      <trkpt lat="51.738823" lon="5.988780">
        <ele>16.061539</ele>
        <time>2024-03-31T12:21:18.000Z</time>
      </trkpt>
      <trkpt lat="51.738814" lon="5.988960">
        <ele>16.097215</ele>
        <time>2024-03-31T12:21:20.000Z</time>
      </trkpt>
      <trkpt lat="51.738803" lon="5.989130">
        <ele>16.128062</ele>
        <time>2024-03-31T12:21:22.000Z</time>
      </trkpt>
      <trkpt lat="51.738789" lon="5.989313">
        <ele>16.161339</ele>
        <time>2024-03-31T12:21:24.000Z</time>
      </trkpt>
      <trkpt lat="51.738778" lon="5.989475">
        <ele>16.190751</ele>
        <time>2024-03-31T12:21:26.000Z</time>
      </trkpt>
      <trkpt lat="51.738771" lon="5.989666">
        <ele>16.225281</ele>
        <time>2024-03-31T12:21:29.000Z</time>
      </trkpt>
      <trkpt lat="51.738765" lon="5.989825">
        <ele>16.254029</ele>
        <time>2024-03-31T12:21:30.999Z</time>
      </trkpt>
      <trkpt lat="51.738758" lon="5.989987">
        <ele>16.283336</ele>
        <time>2024-03-31T12:21:32.999Z</time>
      </trkpt>
      <trkpt lat="51.738752" lon="5.990160">
        <ele>16.314606</ele>
        <time>2024-03-31T12:21:34.999Z</time>
      </trkpt>
      <trkpt lat="51.738756" lon="5.990320">
        <ele>16.343505</ele>
        <time>2024-03-31T12:21:36.999Z</time>
      </trkpt>
      <trkpt lat="51.738746" lon="5.990485">
        <ele>16.373425</ele>
        <time>2024-03-31T12:21:38.999Z</time>
      </trkpt>
      <trkpt lat="51.738739" lon="5.990638">
        <ele>16.401112</ele>
        <time>2024-03-31T12:21:40.999Z</time>
      </trkpt>
      <trkpt lat="51.738728" lon="5.990808">
        <ele>16.431959</ele>
        <time>2024-03-31T12:21:42.999Z</time>
      </trkpt>
      <trkpt lat="51.738723" lon="5.990995">
        <ele>16.465739</ele>
        <time>2024-03-31T12:21:44.999Z</time>
      </trkpt>
      <trkpt lat="51.738717" lon="5.991174">
        <ele>16.498090</ele>
        <time>2024-03-31T12:21:46.999Z</time>
      </trkpt>
      <trkpt lat="51.738705" lon="5.991355">
        <ele>16.530942</ele>
        <time>2024-03-31T12:21:48.999Z</time>
      </trkpt>
      <trkpt lat="51.738679" lon="5.991524">
        <ele>16.562369</ele>
        <time>2024-03-31T12:21:50.999Z</time>
      </trkpt>
      <trkpt lat="51.738656" lon="5.991703">
        <ele>16.585952</ele>
        <time>2024-03-31T12:21:52.999Z</time>
      </trkpt>
      <trkpt lat="51.738633" lon="5.991884">
        <ele>16.516364</ele>
        <time>2024-03-31T12:21:54.999Z</time>
      </trkpt>
      <trkpt lat="51.738624" lon="5.992066">
        <ele>16.447602</ele>
        <time>2024-03-31T12:21:56.999Z</time>
      </trkpt>
      <trkpt lat="51.738585" lon="5.992241">
        <ele>16.377557</ele>
        <time>2024-03-31T12:21:58.999Z</time>
      </trkpt>
      <trkpt lat="51.738557" lon="5.992426">
        <ele>16.305832</ele>
        <time>2024-03-31T12:22:00.999Z</time>
      </trkpt>
      <trkpt lat="51.738531" lon="5.992599">
        <ele>16.238787</ele>
        <time>2024-03-31T12:22:02.999Z</time>
      </trkpt>
      <trkpt lat="51.738519" lon="5.992756">
        <ele>16.179209</ele>
        <time>2024-03-31T12:22:04.999Z</time>
      </trkpt>
      <trkpt lat="51.738491" lon="5.992931">
        <ele>16.111137</ele>
        <time>2024-03-31T12:22:06.999Z</time>
      </trkpt>
      <trkpt lat="51.738460" lon="5.993100">
        <ele>16.044756</ele>
        <time>2024-03-31T12:22:08.999Z</time>
      </trkpt>
      <trkpt lat="51.738435" lon="5.993277">
        <ele>15.976383</ele>
        <time>2024-03-31T12:22:10.999Z</time>
      </trkpt>
      <trkpt lat="51.738407" lon="5.993463">
        <ele>15.904292</ele>
        <time>2024-03-31T12:22:12.999Z</time>
      </trkpt>
      <trkpt lat="51.738378" lon="5.993642">
        <ele>15.834609</ele>
        <time>2024-03-31T12:22:14.998Z</time>
      </trkpt>
      <trkpt lat="51.738335" lon="5.993815">
        <ele>15.764402</ele>
        <time>2024-03-31T12:22:16.998Z</time>
      </trkpt>
      <trkpt lat="51.738302" lon="5.993989">
        <ele>15.695866</ele>
        <time>2024-03-31T12:22:18.998Z</time>
      </trkpt>
      <trkpt lat="51.738265" lon="5.994162">
        <ele>15.626935</ele>
        <time>2024-03-31T12:22:20.998Z</time>
      </trkpt>
      <trkpt lat="51.738220" lon="5.994320">
        <ele>15.561438</ele>
        <time>2024-03-31T12:22:22.998Z</time>
      </trkpt>
      <trkpt lat="51.738175" lon="5.994487">
        <ele>15.498140</ele>
        <time>2024-03-31T12:22:24.998Z</time>
      </trkpt>
      <trkpt lat="51.738111" lon="5.994626">
        <ele>15.494881</ele>
        <time>2024-03-31T12:22:26.998Z</time>
      </trkpt>
      <trkpt lat="51.738025" lon="5.994754">
        <ele>15.491328</ele>
        <time>2024-03-31T12:22:28.998Z</time>
      </trkpt>
      <trkpt lat="51.737951" lon="5.994883">
        <ele>15.488019</ele>
        <time>2024-03-31T12:22:30.998Z</time>
      </trkpt>
      <trkpt lat="51.737895" lon="5.995000">
        <ele>15.485237</ele>
        <time>2024-03-31T12:22:32.998Z</time>
      </trkpt>
      <trkpt lat="51.737806" lon="5.995155">
        <ele>15.481260</ele>
        <time>2024-03-31T12:22:34.998Z</time>
      </trkpt>
      <trkpt lat="51.737730" lon="5.995287">
        <ele>15.477869</ele>
        <time>2024-03-31T12:22:36.998Z</time>
      </trkpt>
      <trkpt lat="51.737643" lon="5.995421">
        <ele>15.474217</ele>
        <time>2024-03-31T12:22:38.998Z</time>
      </trkpt>
      <trkpt lat="51.737546" lon="5.995600">
        <ele>15.469742</ele>
        <time>2024-03-31T12:22:40.998Z</time>
      </trkpt>
      <trkpt lat="51.737468" lon="5.995729">
        <ele>15.466349</ele>
        <time>2024-03-31T12:22:42.998Z</time>
      </trkpt>
      <trkpt lat="51.737406" lon="5.995848">
        <ele>15.463424</ele>
        <time>2024-03-31T12:22:44.998Z</time>
      </trkpt>
      <trkpt lat="51.737324" lon="5.995993">
        <ele>15.459729</ele>
        <time>2024-03-31T12:22:46.998Z</time>
      </trkpt>
      <trkpt lat="51.737244" lon="5.996127">
        <ele>15.456227</ele>
        <time>2024-03-31T12:22:48.998Z</time>
      </trkpt>
      <trkpt lat="51.737134" lon="5.996256">
        <ele>15.452097</ele>
        <time>2024-03-31T12:22:50.998Z</time>
      </trkpt>
      <trkpt lat="51.737057" lon="5.996404">
        <ele>15.448460</ele>
        <time>2024-03-31T12:22:52.998Z</time>
      </trkpt>
      <trkpt lat="51.736983" lon="5.996526">
        <ele>15.445247</ele>
        <time>2024-03-31T12:22:54.998Z</time>
      </trkpt>
      <trkpt lat="51.736901" lon="5.996702">
        <ele>15.398435</ele>
        <time>2024-03-31T12:22:56.998Z</time>
      </trkpt>
      <trkpt lat="51.736841" lon="5.996852">
        <ele>15.341371</ele>
        <time>2024-03-31T12:22:58.997Z</time>
      </trkpt>
      <trkpt lat="51.736765" lon="5.997001">
        <ele>15.279685</ele>
        <time>2024-03-31T12:23:00.997Z</time>
      </trkpt>
      <trkpt lat="51.736700" lon="5.997142">
        <ele>15.223514</ele>
        <time>2024-03-31T12:23:02.997Z</time>
      </trkpt>
      <trkpt lat="51.736622" lon="5.997309">
        <ele>15.156671</ele>
        <time>2024-03-31T12:23:04.997Z</time>
      </trkpt>
      <trkpt lat="51.736544" lon="5.997475">
        <ele>15.090082</ele>
        <time>2024-03-31T12:23:06.997Z</time>
      </trkpt>
      <trkpt lat="51.736471" lon="5.997633">
        <ele>15.027088</ele>
        <time>2024-03-31T12:23:08.997Z</time>
      </trkpt>
      <trkpt lat="51.736404" lon="5.997775">
        <ele>14.970040</ele>
        <time>2024-03-31T12:23:11.000Z</time>
      </trkpt>
      <trkpt lat="51.736344" lon="5.997930">
        <ele>14.911627</ele>
        <time>2024-03-31T12:23:13.000Z</time>
      </trkpt>
      <trkpt lat="51.736275" lon="5.998084">
        <ele>14.850885</ele>
        <time>2024-03-31T12:23:15.000Z</time>
      </trkpt>
      <trkpt lat="51.736210" lon="5.998229">
        <ele>14.793683</ele>
        <time>2024-03-31T12:23:17.000Z</time>
      </trkpt>
      <trkpt lat="51.736137" lon="5.998358">
        <ele>14.737840</ele>
        <time>2024-03-31T12:23:19.000Z</time>
      </trkpt>
      <trkpt lat="51.736054" lon="5.998550">
        <ele>14.663014</ele>
        <time>2024-03-31T12:23:21.000Z</time>
      </trkpt>
      <trkpt lat="51.735980" lon="5.998747">
        <ele>14.589384</ele>
        <time>2024-03-31T12:23:23.000Z</time>
      </trkpt>
      <trkpt lat="51.735906" lon="5.998888">
        <ele>14.530321</ele>
        <time>2024-03-31T12:23:25.000Z</time>
      </trkpt>
      <trkpt lat="51.735835" lon="5.999032">
        <ele>14.616313</ele>
        <time>2024-03-31T12:23:27.000Z</time>
      </trkpt>
      <trkpt lat="51.735759" lon="5.999180">
        <ele>14.756467</ele>
        <time>2024-03-31T12:23:29.000Z</time>
      </trkpt>
      <trkpt lat="51.735681" lon="5.999322">
        <ele>14.894834</ele>
        <time>2024-03-31T12:23:31.000Z</time>
      </trkpt>
      <trkpt lat="51.735604" lon="5.999436">
        <ele>15.017804</ele>
        <time>2024-03-31T12:23:33.000Z</time>
      </trkpt>
      <trkpt lat="51.735507" lon="5.999615">
        <ele>15.191195</ele>
        <time>2024-03-31T12:23:35.999Z</time>
      </trkpt>
      <trkpt lat="51.735428" lon="5.999774">
        <ele>15.339797</ele>
        <time>2024-03-31T12:23:37.999Z</time>
      </trkpt>
      <trkpt lat="51.735358" lon="5.999941">
        <ele>15.486801</ele>
        <time>2024-03-31T12:23:39.999Z</time>
      </trkpt>
      <trkpt lat="51.735298" lon="6.000121">
        <ele>15.635819</ele>
        <time>2024-03-31T12:23:41.999Z</time>
      </trkpt>
      <trkpt lat="51.735238" lon="6.000288">
        <ele>15.776563</ele>
        <time>2024-03-31T12:23:43.999Z</time>
      </trkpt>
      <trkpt lat="51.735194" lon="6.000465">
        <ele>15.915601</ele>
        <time>2024-03-31T12:23:45.999Z</time>
      </trkpt>
      <trkpt lat="51.735150" lon="6.000644">
        <ele>16.055993</ele>
        <time>2024-03-31T12:23:47.999Z</time>
      </trkpt>
      <trkpt lat="51.735099" lon="6.000810">
        <ele>16.191078</ele>
        <time>2024-03-31T12:23:49.999Z</time>
      </trkpt>
      <trkpt lat="51.735051" lon="6.000982">
        <ele>16.328607</ele>
        <time>2024-03-31T12:23:51.999Z</time>
      </trkpt>
      <trkpt lat="51.735009" lon="6.001131">
        <ele>16.447949</ele>
        <time>2024-03-31T12:23:53.999Z</time>
      </trkpt>
      <trkpt lat="51.734965" lon="6.001278">
        <ele>16.566971</ele>
        <time>2024-03-31T12:23:55.999Z</time>
      </trkpt>
      <trkpt lat="51.734927" lon="6.001410">
        <ele>16.709410</ele>
        <time>2024-03-31T12:23:57.999Z</time>
      </trkpt>
      <trkpt lat="51.734876" lon="6.001532">
        <ele>16.913602</ele>
        <time>2024-03-31T12:24:01.999Z</time>
      </trkpt>
      <trkpt lat="51.735110" lon="6.001678">
        <ele>17.475534</ele>
        <time>2024-03-31T12:24:20.998Z</time>
      </trkpt>
      <trkpt lat="51.735183" lon="6.001767">
        <ele>17.680430</ele>
        <time>2024-03-31T12:24:32.998Z</time>
      </trkpt>
      <trkpt lat="51.735223" lon="6.001950">
        <ele>17.949642</ele>
        <time>2024-03-31T12:24:36.998Z</time>
      </trkpt>
      <trkpt lat="51.735132" lon="6.002057">
        <ele>18.201800</ele>
        <time>2024-03-31T12:24:38.998Z</time>
      </trkpt>
      <trkpt lat="51.735133" lon="6.002208">
        <ele>18.411284</ele>
        <time>2024-03-31T12:24:40.998Z</time>
      </trkpt>
      <trkpt lat="51.735083" lon="6.002422">
        <ele>18.728578</ele>
        <time>2024-03-31T12:24:44.998Z</time>
      </trkpt>
      <trkpt lat="51.735073" lon="6.002578">
        <ele>18.946143</ele>
        <time>2024-03-31T12:24:46.998Z</time>
      </trkpt>
      <trkpt lat="51.735037" lon="6.002713">
        <ele>19.150043</ele>
        <time>2024-03-31T12:24:48.998Z</time>
      </trkpt>
      <trkpt lat="51.735009" lon="6.002872">
        <ele>19.379358</ele>
        <time>2024-03-31T12:24:51.998Z</time>
      </trkpt>
      <trkpt lat="51.735001" lon="6.003028">
        <ele>19.596508</ele>
        <time>2024-03-31T12:24:53.998Z</time>
      </trkpt>
      <trkpt lat="51.734969" lon="6.003196">
        <ele>19.840338</ele>
        <time>2024-03-31T12:24:56.998Z</time>
      </trkpt>
      <trkpt lat="51.734985" lon="6.003391">
        <ele>20.113214</ele>
        <time>2024-03-31T12:24:59.998Z</time>
      </trkpt>
      <trkpt lat="51.734939" lon="6.003580">
        <ele>20.394923</ele>
        <time>2024-03-31T12:25:02.998Z</time>
      </trkpt>
      <trkpt lat="51.734918" lon="6.003735">
        <ele>20.615031</ele>
        <time>2024-03-31T12:25:05.997Z</time>
      </trkpt>
      <trkpt lat="51.734913" lon="6.003880">
        <ele>20.831984</ele>
        <time>2024-03-31T12:25:08.997Z</time>
      </trkpt>
      <trkpt lat="51.734946" lon="6.004042">
        <ele>21.092259</ele>
        <time>2024-03-31T12:25:10.997Z</time>
      </trkpt>
      <trkpt lat="51.735041" lon="6.004114">
        <ele>21.350882</ele>
        <time>2024-03-31T12:25:12.997Z</time>
      </trkpt>
      <trkpt lat="51.735124" lon="6.004208">
        <ele>21.600722</ele>
        <time>2024-03-31T12:25:17.000Z</time>
      </trkpt>
      <trkpt lat="51.735196" lon="6.004332">
        <ele>21.860141</ele>
        <time>2024-03-31T12:25:21.000Z</time>
      </trkpt>
      <trkpt lat="51.735297" lon="6.004355">
        <ele>22.111508</ele>
        <time>2024-03-31T12:25:23.000Z</time>
      </trkpt>
      <trkpt lat="51.735400" lon="6.004419">
        <ele>22.383485</ele>
        <time>2024-03-31T12:25:27.000Z</time>
      </trkpt>
      <trkpt lat="51.735511" lon="6.004466">
        <ele>22.666281</ele>
        <time>2024-03-31T12:25:29.000Z</time>
      </trkpt>
      <trkpt lat="51.735627" lon="6.004514">
        <ele>22.961387</ele>
        <time>2024-03-31T12:25:32.000Z</time>
      </trkpt>
      <trkpt lat="51.735742" lon="6.004597">
        <ele>23.271813</ele>
        <time>2024-03-31T12:25:35.000Z</time>
      </trkpt>
      <trkpt lat="51.735842" lon="6.004687">
        <ele>23.553946</ele>
        <time>2024-03-31T12:25:38.000Z</time>
      </trkpt>
      <trkpt lat="51.735944" lon="6.004746">
        <ele>23.820955</ele>
        <time>2024-03-31T12:25:40.000Z</time>
      </trkpt>
      <trkpt lat="51.736034" lon="6.004793">
        <ele>24.054060</ele>
        <time>2024-03-31T12:25:41.999Z</time>
      </trkpt>
      <trkpt lat="51.736127" lon="6.004835">
        <ele>24.292043</ele>
        <time>2024-03-31T12:25:43.999Z</time>
      </trkpt>
      <trkpt lat="51.736199" lon="6.004934">
        <ele>24.525092</ele>
        <time>2024-03-31T12:25:46.999Z</time>
      </trkpt>
      <trkpt lat="51.736318" lon="6.005025">
        <ele>24.849577</ele>
        <time>2024-03-31T12:25:49.999Z</time>
      </trkpt>
      <trkpt lat="51.736445" lon="6.005116">
        <ele>25.159539</ele>
        <time>2024-03-31T12:25:52.999Z</time>
      </trkpt>
      <trkpt lat="51.736563" lon="6.005213">
        <ele>25.377351</ele>
        <time>2024-03-31T12:25:55.999Z</time>
      </trkpt>
      <trkpt lat="51.736686" lon="6.005274">
        <ele>25.589012</ele>
        <time>2024-03-31T12:25:58.999Z</time>
      </trkpt>
      <trkpt lat="51.736802" lon="6.005350">
        <ele>25.794938</ele>
        <time>2024-03-31T12:26:01.999Z</time>
      </trkpt>
      <trkpt lat="51.736918" lon="6.005377">
        <ele>25.987729</ele>
        <time>2024-03-31T12:26:04.999Z</time>
      </trkpt>
      <trkpt lat="51.737018" lon="6.005422">
        <ele>26.158496</ele>
        <time>2024-03-31T12:26:06.999Z</time>
      </trkpt>
      <trkpt lat="51.737125" lon="6.005497">
        <ele>26.350376</ele>
        <time>2024-03-31T12:26:08.999Z</time>
      </trkpt>
      <trkpt lat="51.737239" lon="6.005597">
        <ele>26.563787</ele>
        <time>2024-03-31T12:26:11.999Z</time>
      </trkpt>
      <trkpt lat="51.737326" lon="6.005644">
        <ele>26.714697</ele>
        <time>2024-03-31T12:26:13.999Z</time>
      </trkpt>
      <trkpt lat="51.737414" lon="6.005705">
        <ele>26.872229</ele>
        <time>2024-03-31T12:26:15.999Z</time>
      </trkpt>
      <trkpt lat="51.737503" lon="6.005791">
        <ele>27.042843</ele>
        <time>2024-03-31T12:26:17.999Z</time>
      </trkpt>
      <trkpt lat="51.737600" lon="6.005873">
        <ele>27.222949</ele>
        <time>2024-03-31T12:26:19.999Z</time>
      </trkpt>
      <trkpt lat="51.737702" lon="6.005946">
        <ele>27.406478</ele>
        <time>2024-03-31T12:26:21.999Z</time>
      </trkpt>
      <trkpt lat="51.737813" lon="6.006031">
        <ele>27.608562</ele>
        <time>2024-03-31T12:26:24.998Z</time>
      </trkpt>
      <trkpt lat="51.737932" lon="6.006101">
        <ele>27.816898</ele>
        <time>2024-03-31T12:26:27.998Z</time>
      </trkpt>
      <trkpt lat="51.738031" lon="6.006179">
        <ele>27.998101</ele>
        <time>2024-03-31T12:26:30.998Z</time>
      </trkpt>
      <trkpt lat="51.738123" lon="6.006201">
        <ele>28.135505</ele>
        <time>2024-03-31T12:26:32.998Z</time>
      </trkpt>
      <trkpt lat="51.738215" lon="6.006248">
        <ele>28.268978</ele>
        <time>2024-03-31T12:26:34.998Z</time>
      </trkpt>
      <trkpt lat="51.738334" lon="6.006321">
        <ele>28.445058</ele>
        <time>2024-03-31T12:26:37.998Z</time>
      </trkpt>
      <trkpt lat="51.738421" lon="6.006363">
        <ele>28.570661</ele>
        <time>2024-03-31T12:26:39.998Z</time>
      </trkpt>
      <trkpt lat="51.738530" lon="6.006457">
        <ele>28.741585</ele>
        <time>2024-03-31T12:26:42.998Z</time>
      </trkpt>
      <trkpt lat="51.738625" lon="6.006570">
        <ele>28.904791</ele>
        <time>2024-03-31T12:26:45.998Z</time>
      </trkpt>
      <trkpt lat="51.738756" lon="6.006610">
        <ele>29.089205</ele>
        <time>2024-03-31T12:26:47.998Z</time>
      </trkpt>
      <trkpt lat="51.738872" lon="6.006686">
        <ele>29.262361</ele>
        <time>2024-03-31T12:26:50.998Z</time>
      </trkpt>
      <trkpt lat="51.738974" lon="6.006782">
        <ele>29.425664</ele>
        <time>2024-03-31T12:26:53.998Z</time>
      </trkpt>
      <trkpt lat="51.739045" lon="6.006870">
        <ele>29.549465</ele>
        <time>2024-03-31T12:26:55.998Z</time>
      </trkpt>
      <trkpt lat="51.739145" lon="6.006916">
        <ele>29.693290</ele>
        <time>2024-03-31T12:26:57.998Z</time>
      </trkpt>
      <trkpt lat="51.739243" lon="6.006960">
        <ele>29.833987</ele>
        <time>2024-03-31T12:26:59.998Z</time>
      </trkpt>
      <trkpt lat="51.739350" lon="6.006979">
        <ele>29.982885</ele>
        <time>2024-03-31T12:27:01.998Z</time>
      </trkpt>
      <trkpt lat="51.739444" lon="6.007019">
        <ele>30.117346</ele>
        <time>2024-03-31T12:27:03.998Z</time>
      </trkpt>
      <trkpt lat="51.739555" lon="6.007095">
        <ele>30.284114</ele>
        <time>2024-03-31T12:27:06.998Z</time>
      </trkpt>
      <trkpt lat="51.739670" lon="6.007143">
        <ele>30.448412</ele>
        <time>2024-03-31T12:27:12.997Z</time>
      </trkpt>
      <trkpt lat="51.739769" lon="6.007266">
        <ele>30.538234</ele>
        <time>2024-03-31T12:27:15.997Z</time>
      </trkpt>
      <trkpt lat="51.739879" lon="6.007357">
        <ele>30.532175</ele>
        <time>2024-03-31T12:27:17.997Z</time>
      </trkpt>
      <trkpt lat="51.739971" lon="6.007382">
        <ele>30.527601</ele>
        <time>2024-03-31T12:27:19.997Z</time>
      </trkpt>
      <trkpt lat="51.740090" lon="6.007472">
        <ele>30.521160</ele>
        <time>2024-03-31T12:27:23.000Z</time>
      </trkpt>
      <trkpt lat="51.740201" lon="6.007551">
        <ele>30.515213</ele>
        <time>2024-03-31T12:27:26.000Z</time>
      </trkpt>
      <trkpt lat="51.740329" lon="6.007626">
        <ele>30.508538</ele>
        <time>2024-03-31T12:27:29.000Z</time>
      </trkpt>
      <trkpt lat="51.740450" lon="6.007694">
        <ele>30.502257</ele>
        <time>2024-03-31T12:27:32.000Z</time>
      </trkpt>
      <trkpt lat="51.740502" lon="6.007862">
        <ele>30.496555</ele>
        <time>2024-03-31T12:27:34.000Z</time>
      </trkpt>
      <trkpt lat="51.740617" lon="6.007936">
        <ele>30.490486</ele>
        <time>2024-03-31T12:27:37.000Z</time>
      </trkpt>
      <trkpt lat="51.740751" lon="6.008033">
        <ele>30.483288</ele>
        <time>2024-03-31T12:27:40.000Z</time>
      </trkpt>
      <trkpt lat="51.740868" lon="6.008087">
        <ele>30.477322</ele>
        <time>2024-03-31T12:27:42.000Z</time>
      </trkpt>
      <trkpt lat="51.740955" lon="6.008147">
        <ele>30.472684</ele>
        <time>2024-03-31T12:27:44.000Z</time>
      </trkpt>
      <trkpt lat="51.741037" lon="6.008210">
        <ele>30.468233</ele>
        <time>2024-03-31T12:27:45.999Z</time>
      </trkpt>
      <trkpt lat="51.741149" lon="6.008256">
        <ele>30.462567</ele>
        <time>2024-03-31T12:27:48.999Z</time>
      </trkpt>
      <trkpt lat="51.741253" lon="6.008332">
        <ele>30.456971</ele>
        <time>2024-03-31T12:27:50.999Z</time>
      </trkpt>
      <trkpt lat="51.741388" lon="6.008417">
        <ele>30.393334</ele>
        <time>2024-03-31T12:27:53.999Z</time>
      </trkpt>
      <trkpt lat="51.741496" lon="6.008487">
        <ele>30.281169</ele>
        <time>2024-03-31T12:27:55.999Z</time>
      </trkpt>
      <trkpt lat="51.741611" lon="6.008561">
        <ele>30.161853</ele>
        <time>2024-03-31T12:27:57.999Z</time>
      </trkpt>
      <trkpt lat="51.741706" lon="6.008644">
        <ele>30.057748</ele>
        <time>2024-03-31T12:27:59.999Z</time>
      </trkpt>
      <trkpt lat="51.741811" lon="6.008712">
        <ele>29.948712</ele>
        <time>2024-03-31T12:28:01.999Z</time>
      </trkpt>
      <trkpt lat="51.741904" lon="6.008773">
        <ele>29.851964</ele>
        <time>2024-03-31T12:28:03.999Z</time>
      </trkpt>
      <trkpt lat="51.742012" lon="6.008816">
        <ele>29.744753</ele>
        <time>2024-03-31T12:28:05.999Z</time>
      </trkpt>
      <trkpt lat="51.742096" lon="6.008923">
        <ele>29.641637</ele>
        <time>2024-03-31T12:28:07.999Z</time>
      </trkpt>
      <trkpt lat="51.742208" lon="6.008960">
        <ele>29.531452</ele>
        <time>2024-03-31T12:28:09.999Z</time>
      </trkpt>
      <trkpt lat="51.742308" lon="6.009030">
        <ele>29.426404</ele>
        <time>2024-03-31T12:28:11.999Z</time>
      </trkpt>
      <trkpt lat="51.742408" lon="6.009076">
        <ele>29.326187</ele>
        <time>2024-03-31T12:28:13.999Z</time>
      </trkpt>
      <trkpt lat="51.742507" lon="6.009163">
        <ele>29.217556</ele>
        <time>2024-03-31T12:28:15.999Z</time>
      </trkpt>
      <trkpt lat="51.742639" lon="6.009248">
        <ele>29.080589</ele>
        <time>2024-03-31T12:28:18.999Z</time>
      </trkpt>
      <trkpt lat="51.742734" lon="6.009309">
        <ele>28.982053</ele>
        <time>2024-03-31T12:28:20.999Z</time>
      </trkpt>
      <trkpt lat="51.742855" lon="6.009388">
        <ele>28.856259</ele>
        <time>2024-03-31T12:28:23.999Z</time>
      </trkpt>
      <trkpt lat="51.742950" lon="6.009420">
        <ele>28.762724</ele>
        <time>2024-03-31T12:28:25.999Z</time>
      </trkpt>
      <trkpt lat="51.743041" lon="6.009486">
        <ele>28.706060</ele>
        <time>2024-03-31T12:28:27.999Z</time>
      </trkpt>
      <trkpt lat="51.743144" lon="6.009551">
        <ele>28.679295</ele>
        <time>2024-03-31T12:28:29.998Z</time>
      </trkpt>
      <trkpt lat="51.743223" lon="6.009637">
        <ele>28.656236</ele>
        <time>2024-03-31T12:28:31.998Z</time>
      </trkpt>
      <trkpt lat="51.743343" lon="6.009727">
        <ele>28.624213</ele>
        <time>2024-03-31T12:28:34.998Z</time>
      </trkpt>
      <trkpt lat="51.743436" lon="6.009796">
        <ele>28.599442</ele>
        <time>2024-03-31T12:28:36.998Z</time>
      </trkpt>
      <trkpt lat="51.743545" lon="6.009877">
        <ele>28.570402</ele>
        <time>2024-03-31T12:28:38.998Z</time>
      </trkpt>
      <trkpt lat="51.743650" lon="6.009955">
        <ele>28.542429</ele>
        <time>2024-03-31T12:28:40.998Z</time>
      </trkpt>
      <trkpt lat="51.743744" lon="6.010023">
        <ele>28.517500</ele>
        <time>2024-03-31T12:28:42.998Z</time>
      </trkpt>
      <trkpt lat="51.743841" lon="6.010094">
        <ele>28.491724</ele>
        <time>2024-03-31T12:28:44.998Z</time>
      </trkpt>
      <trkpt lat="51.743942" lon="6.010150">
        <ele>28.465878</ele>
        <time>2024-03-31T12:28:47.998Z</time>
      </trkpt>
      <trkpt lat="51.744053" lon="6.010232">
        <ele>28.436335</ele>
        <time>2024-03-31T12:28:50.998Z</time>
      </trkpt>
      <trkpt lat="51.744141" lon="6.010291">
        <ele>28.413274</ele>
        <time>2024-03-31T12:28:52.998Z</time>
      </trkpt>
      <trkpt lat="51.744229" lon="6.010352">
        <ele>28.390096</ele>
        <time>2024-03-31T12:28:54.998Z</time>
      </trkpt>
      <trkpt lat="51.744312" lon="6.010409">
        <ele>28.368266</ele>
        <time>2024-03-31T12:28:56.998Z</time>
      </trkpt>
      <trkpt lat="51.744414" lon="6.010501">
        <ele>28.339990</ele>
        <time>2024-03-31T12:28:59.998Z</time>
      </trkpt>
      <trkpt lat="51.744534" lon="6.010556">
        <ele>28.309799</ele>
        <time>2024-03-31T12:29:02.998Z</time>
      </trkpt>
      <trkpt lat="51.744647" lon="6.010644">
        <ele>28.431107</ele>
        <time>2024-03-31T12:29:05.998Z</time>
      </trkpt>
      <trkpt lat="51.744735" lon="6.010721">
        <ele>29.217686</ele>
        <time>2024-03-31T12:29:07.998Z</time>
      </trkpt>
      <trkpt lat="51.744857" lon="6.010804">
        <ele>30.258093</ele>
        <time>2024-03-31T12:29:10.998Z</time>
      </trkpt>
      <trkpt lat="51.744984" lon="6.010871">
        <ele>31.308100</ele>
        <time>2024-03-31T12:29:13.998Z</time>
      </trkpt>
      <trkpt lat="51.745070" lon="6.010923">
        <ele>32.029797</ele>
        <time>2024-03-31T12:29:15.997Z</time>
      </trkpt>
      <trkpt lat="51.745157" lon="6.011004">
        <ele>32.819012</ele>
        <time>2024-03-31T12:29:17.997Z</time>
      </trkpt>
      <trkpt lat="51.745276" lon="6.011082">
        <ele>33.828331</ele>
        <time>2024-03-31T12:29:20.997Z</time>
      </trkpt>
      <trkpt lat="51.745360" lon="6.011137">
        <ele>34.540684</ele>
        <time>2024-03-31T12:29:23.997Z</time>
      </trkpt>
      <trkpt lat="51.745446" lon="6.011193">
        <ele>35.269433</ele>
        <time>2024-03-31T12:29:26.997Z</time>
      </trkpt>
      <trkpt lat="51.745555" lon="6.011264">
        <ele>36.193122</ele>
        <time>2024-03-31T12:29:31.000Z</time>
      </trkpt>
      <trkpt lat="51.745659" lon="6.011332">
        <ele>37.074908</ele>
        <time>2024-03-31T12:29:34.000Z</time>
      </trkpt>
      <trkpt lat="51.745777" lon="6.011409">
        <ele>38.075114</ele>
        <time>2024-03-31T12:29:37.000Z</time>
      </trkpt>
      <trkpt lat="51.745894" lon="6.011484">
        <ele>39.064407</ele>
        <time>2024-03-31T12:29:40.000Z</time>
      </trkpt>
      <trkpt lat="51.746012" lon="6.011540">
        <ele>40.030988</ele>
        <time>2024-03-31T12:29:42.000Z</time>
      </trkpt>
      <trkpt lat="51.746110" lon="6.011644">
        <ele>40.952561</ele>
        <time>2024-03-31T12:29:45.000Z</time>
      </trkpt>
      <trkpt lat="51.746207" lon="6.011670">
        <ele>41.725322</ele>
        <time>2024-03-31T12:29:48.000Z</time>
      </trkpt>
      <trkpt lat="51.746306" lon="6.011751">
        <ele>42.593771</ele>
        <time>2024-03-31T12:29:51.999Z</time>
      </trkpt>
      <trkpt lat="51.746402" lon="6.011813">
        <ele>43.389233</ele>
        <time>2024-03-31T12:29:54.999Z</time>
      </trkpt>
      <trkpt lat="51.746502" lon="6.011878">
        <ele>44.218579</ele>
        <time>2024-03-31T12:29:56.999Z</time>
      </trkpt>
      <trkpt lat="51.746589" lon="6.011934">
        <ele>44.939135</ele>
        <time>2024-03-31T12:29:58.999Z</time>
      </trkpt>
      <trkpt lat="51.746694" lon="6.012001">
        <ele>45.807742</ele>
        <time>2024-03-31T12:30:00.999Z</time>
      </trkpt>
      <trkpt lat="51.746812" lon="6.012076">
        <ele>46.783374</ele>
        <time>2024-03-31T12:30:03.999Z</time>
      </trkpt>
      <trkpt lat="51.746906" lon="6.012136">
        <ele>47.561016</ele>
        <time>2024-03-31T12:30:06.999Z</time>
      </trkpt>
      <trkpt lat="51.747004" lon="6.012199">
        <ele>48.372535</ele>
        <time>2024-03-31T12:30:09.999Z</time>
      </trkpt>
      <trkpt lat="51.747095" lon="6.012257">
        <ele>49.125210</ele>
        <time>2024-03-31T12:30:13.999Z</time>
      </trkpt>
      <trkpt lat="51.747195" lon="6.012322">
        <ele>49.954553</ele>
        <time>2024-03-31T12:30:17.999Z</time>
      </trkpt>
      <trkpt lat="51.747305" lon="6.012392">
        <ele>50.864187</ele>
        <time>2024-03-31T12:30:22.999Z</time>
      </trkpt>
      <trkpt lat="51.747419" lon="6.012466">
        <ele>51.809461</ele>
        <time>2024-03-31T12:30:26.999Z</time>
      </trkpt>
      <trkpt lat="51.747530" lon="6.012536">
        <ele>52.726257</ele>
        <time>2024-03-31T12:30:29.999Z</time>
      </trkpt>
      <trkpt lat="51.747625" lon="6.012598">
        <ele>53.514578</ele>
        <time>2024-03-31T12:30:33.998Z</time>
      </trkpt>
      <trkpt lat="51.747750" lon="6.012677">
        <ele>54.547302</ele>
        <time>2024-03-31T12:30:37.998Z</time>
      </trkpt>
      <trkpt lat="51.747881" lon="6.012743">
        <ele>55.603082</ele>
        <time>2024-03-31T12:30:41.998Z</time>
      </trkpt>
      <trkpt lat="51.747973" lon="6.012799">
        <ele>56.223791</ele>
        <time>2024-03-31T12:30:44.998Z</time>
      </trkpt>
      <trkpt lat="51.748080" lon="6.012865">
        <ele>55.925744</ele>
        <time>2024-03-31T12:30:48.998Z</time>
      </trkpt>
      <trkpt lat="51.748163" lon="6.012942">
        <ele>55.676672</ele>
        <time>2024-03-31T12:30:50.998Z</time>
      </trkpt>
      <trkpt lat="51.748257" lon="6.013002">
        <ele>55.413660</ele>
        <time>2024-03-31T12:30:53.998Z</time>
      </trkpt>
      <trkpt lat="51.748359" lon="6.013067">
        <ele>55.128326</ele>
        <time>2024-03-31T12:30:56.998Z</time>
      </trkpt>
      <trkpt lat="51.748462" lon="6.013107">
        <ele>54.852663</ele>
        <time>2024-03-31T12:30:59.998Z</time>
      </trkpt>
      <trkpt lat="51.748565" lon="6.013173">
        <ele>54.564317</ele>
        <time>2024-03-31T12:31:02.998Z</time>
      </trkpt>
      <trkpt lat="51.748653" lon="6.013254">
        <ele>54.300752</ele>
        <time>2024-03-31T12:31:05.998Z</time>
      </trkpt>
      <trkpt lat="51.748744" lon="6.013293">
        <ele>54.055760</ele>
        <time>2024-03-31T12:31:08.998Z</time>
      </trkpt>
      <trkpt lat="51.748844" lon="6.013376">
        <ele>53.763196</ele>
        <time>2024-03-31T12:31:12.998Z</time>
      </trkpt>
      <trkpt lat="51.748948" lon="6.013443">
        <ele>53.471837</ele>
        <time>2024-03-31T12:31:15.998Z</time>
      </trkpt>
      <trkpt lat="51.749042" lon="6.013503">
        <ele>53.208825</ele>
        <time>2024-03-31T12:31:18.997Z</time>
      </trkpt>
      <trkpt lat="51.749146" lon="6.013570">
        <ele>52.917466</ele>
        <time>2024-03-31T12:31:21.997Z</time>
      </trkpt>
      <trkpt lat="51.749267" lon="6.013650">
        <ele>52.577246</ele>
        <time>2024-03-31T12:31:23.997Z</time>
      </trkpt>
      <trkpt lat="51.749380" lon="6.013724">
        <ele>52.259951</ele>
        <time>2024-03-31T12:31:25.997Z</time>
      </trkpt>
      <trkpt lat="51.749483" lon="6.013791">
        <ele>51.971008</ele>
        <time>2024-03-31T12:31:27.997Z</time>
      </trkpt>
      <trkpt lat="51.749599" lon="6.013866">
        <ele>51.645870</ele>
        <time>2024-03-31T12:31:29.997Z</time>
      </trkpt>
      <trkpt lat="51.749691" lon="6.013927">
        <ele>51.500905</ele>
        <time>2024-03-31T12:31:31.997Z</time>
      </trkpt>
      <trkpt lat="51.749820" lon="6.013983">
        <ele>51.360878</ele>
        <time>2024-03-31T12:31:34.000Z</time>
      </trkpt>
      <trkpt lat="51.749954" lon="6.014102">
        <ele>51.200578</ele>
        <time>2024-03-31T12:31:36.000Z</time>
      </trkpt>
      <trkpt lat="51.750114" lon="6.014206">
        <ele>51.019782</ele>
        <time>2024-03-31T12:31:38.000Z</time>
      </trkpt>
      <trkpt lat="51.750214" lon="6.014278">
        <ele>50.905012</ele>
        <time>2024-03-31T12:31:39.000Z</time>
      </trkpt>
      <trkpt lat="51.750319" lon="6.014333">
        <ele>50.789299</ele>
        <time>2024-03-31T12:31:40.000Z</time>
      </trkpt>
      <trkpt lat="51.750431" lon="6.014407">
        <ele>50.662450</ele>
        <time>2024-03-31T12:31:41.000Z</time>
      </trkpt>
      <trkpt lat="51.750550" lon="6.014489">
        <ele>50.526827</ele>
        <time>2024-03-31T12:31:42.000Z</time>
      </trkpt>
      <trkpt lat="51.750670" lon="6.014568">
        <ele>50.390987</ele>
        <time>2024-03-31T12:31:43.000Z</time>
      </trkpt>
      <trkpt lat="51.750469" lon="6.014436">
        <ele>50.163534</ele>
        <time>2024-03-31T12:31:44.000Z</time>
      </trkpt>
      <trkpt lat="51.750568" lon="6.014488">
        <ele>50.054406</ele>
        <time>2024-03-31T12:31:49.000Z</time>
      </trkpt>
      <trkpt lat="51.750666" lon="6.014542">
        <ele>49.945861</ele>
        <time>2024-03-31T12:31:54.000Z</time>
      </trkpt>
      <trkpt lat="51.750755" lon="6.014624">
        <ele>49.838454</ele>
        <time>2024-03-31T12:31:57.999Z</time>
      </trkpt>
      <trkpt lat="51.750855" lon="6.014674">
        <ele>49.728719</ele>
        <time>2024-03-31T12:32:01.999Z</time>
      </trkpt>
      <trkpt lat="51.750948" lon="6.014750">
        <ele>49.956784</ele>
        <time>2024-03-31T12:32:04.999Z</time>
      </trkpt>
      <trkpt lat="51.751046" lon="6.014814">
        <ele>50.359813</ele>
        <time>2024-03-31T12:32:08.999Z</time>
      </trkpt>
      <trkpt lat="51.751141" lon="6.014847">
        <ele>50.730302</ele>
        <time>2024-03-31T12:32:12.999Z</time>
      </trkpt>
      <trkpt lat="51.751231" lon="6.014913">
        <ele>51.107154</ele>
        <time>2024-03-31T12:32:15.999Z</time>
      </trkpt>
      <trkpt lat="51.751382" lon="6.015006">
        <ele>51.723304</ele>
        <time>2024-03-31T12:32:18.999Z</time>
      </trkpt>
      <trkpt lat="51.751521" lon="6.015105">
        <ele>52.302501</ele>
        <time>2024-03-31T12:32:20.999Z</time>
      </trkpt>
      <trkpt lat="51.751630" lon="6.015184">
        <ele>52.758004</ele>
        <time>2024-03-31T12:32:22.999Z</time>
      </trkpt>
      <trkpt lat="51.751732" lon="6.015237">
        <ele>53.166526</ele>
        <time>2024-03-31T12:32:24.999Z</time>
      </trkpt>
      <trkpt lat="51.751851" lon="6.015321">
        <ele>53.661669</ele>
        <time>2024-03-31T12:32:27.999Z</time>
      </trkpt>
      <trkpt lat="51.751963" lon="6.015397">
        <ele>54.124842</ele>
        <time>2024-03-31T12:32:30.999Z</time>
      </trkpt>
      <trkpt lat="51.752070" lon="6.015467">
        <ele>54.564991</ele>
        <time>2024-03-31T12:32:33.999Z</time>
      </trkpt>
      <trkpt lat="51.752177" lon="6.015534">
        <ele>55.002530</ele>
        <time>2024-03-31T12:32:36.999Z</time>
      </trkpt>
      <trkpt lat="51.752267" lon="6.015613">
        <ele>55.393065</ele>
        <time>2024-03-31T12:32:39.999Z</time>
      </trkpt>
      <trkpt lat="51.752376" lon="6.015685">
        <ele>55.842056</ele>
        <time>2024-03-31T12:32:42.998Z</time>
      </trkpt>
      <trkpt lat="51.752485" lon="6.015756">
        <ele>56.290158</ele>
        <time>2024-03-31T12:32:46.998Z</time>
      </trkpt>
      <trkpt lat="51.752575" lon="6.015815">
        <ele>56.692737</ele>
        <time>2024-03-31T12:32:49.998Z</time>
      </trkpt>
      <trkpt lat="51.752680" lon="6.015880">
        <ele>57.246542</ele>
        <time>2024-03-31T12:32:53.998Z</time>
      </trkpt>
      <trkpt lat="51.752769" lon="6.015936">
        <ele>57.716952</ele>
        <time>2024-03-31T12:32:56.998Z</time>
      </trkpt>
      <trkpt lat="51.752856" lon="6.015991">
        <ele>58.177078</ele>
        <time>2024-03-31T12:32:59.998Z</time>
      </trkpt>
      <trkpt lat="51.752951" lon="6.016023">
        <ele>58.655023</ele>
        <time>2024-03-31T12:33:02.998Z</time>
      </trkpt>
      <trkpt lat="51.753054" lon="6.016114">
        <ele>59.233220</ele>
        <time>2024-03-31T12:33:06.998Z</time>
      </trkpt>
      <trkpt lat="51.753154" lon="6.016157">
        <ele>59.742877</ele>
        <time>2024-03-31T12:33:09.998Z</time>
      </trkpt>
      <trkpt lat="51.753241" lon="6.016232">
        <ele>60.228555</ele>
        <time>2024-03-31T12:33:12.998Z</time>
      </trkpt>
      <trkpt lat="51.753330" lon="6.016287">
        <ele>60.697866</ele>
        <time>2024-03-31T12:33:15.998Z</time>
      </trkpt>
      <trkpt lat="51.753423" lon="6.016327">
        <ele>61.171855</ele>
        <time>2024-03-31T12:33:18.998Z</time>
      </trkpt>
      <trkpt lat="51.753519" lon="6.016406">
        <ele>61.702476</ele>
        <time>2024-03-31T12:33:21.998Z</time>
      </trkpt>
      <trkpt lat="51.753633" lon="6.016449">
        <ele>62.279036</ele>
        <time>2024-03-31T12:33:24.998Z</time>
      </trkpt>
      <trkpt lat="51.753710" lon="6.016525">
        <ele>62.723452</ele>
        <time>2024-03-31T12:33:27.997Z</time>
      </trkpt>
      <trkpt lat="51.753808" lon="6.016586">
        <ele>63.240700</ele>
        <time>2024-03-31T12:33:30.997Z</time>
      </trkpt>
      <trkpt lat="51.753900" lon="6.016628">
        <ele>63.711552</ele>
        <time>2024-03-31T12:33:33.997Z</time>
      </trkpt>
      <trkpt lat="51.753998" lon="6.016688">
        <ele>64.227711</ele>
        <time>2024-03-31T12:33:36.997Z</time>
      </trkpt>
      <trkpt lat="51.754089" lon="6.016741">
        <ele>64.704132</ele>
        <time>2024-03-31T12:33:40.000Z</time>
      </trkpt>
      <trkpt lat="51.754181" lon="6.016802">
        <ele>65.193920</ele>
        <time>2024-03-31T12:33:43.000Z</time>
      </trkpt>
      <trkpt lat="51.754286" lon="6.016865">
        <ele>65.707649</ele>
        <time>2024-03-31T12:33:46.000Z</time>
      </trkpt>
      <trkpt lat="51.754388" lon="6.016933">
        <ele>66.189989</ele>
        <time>2024-03-31T12:33:49.000Z</time>
      </trkpt>
      <trkpt lat="51.754490" lon="6.016998">
        <ele>66.669291</ele>
        <time>2024-03-31T12:33:52.000Z</time>
      </trkpt>
      <trkpt lat="51.754578" lon="6.017047">
        <ele>67.076168</ele>
        <time>2024-03-31T12:33:55.000Z</time>
      </trkpt>
      <trkpt lat="51.754675" lon="6.017114">
        <ele>67.537309</ele>
        <time>2024-03-31T12:33:58.000Z</time>
      </trkpt>
      <trkpt lat="51.754775" lon="6.017198">
        <ele>68.029994</ele>
        <time>2024-03-31T12:34:01.000Z</time>
      </trkpt>
      <trkpt lat="51.754871" lon="6.017284">
        <ele>68.509835</ele>
        <time>2024-03-31T12:34:03.999Z</time>
      </trkpt>
      <trkpt lat="51.754976" lon="6.017354">
        <ele>69.006361</ele>
        <time>2024-03-31T12:34:06.999Z</time>
      </trkpt>
      <trkpt lat="51.755079" lon="6.017421">
        <ele>69.491726</ele>
        <time>2024-03-31T12:34:09.999Z</time>
      </trkpt>
      <trkpt lat="51.755187" lon="6.017488">
        <ele>69.997431</ele>
        <time>2024-03-31T12:34:12.999Z</time>
      </trkpt>
      <trkpt lat="51.755293" lon="6.017559">
        <ele>70.499030</ele>
        <time>2024-03-31T12:34:15.999Z</time>
      </trkpt>
      <trkpt lat="51.755400" lon="6.017651">
        <ele>71.028872</ele>
        <time>2024-03-31T12:34:19.999Z</time>
      </trkpt>
      <trkpt lat="51.755490" lon="6.017761">
        <ele>71.522191</ele>
        <time>2024-03-31T12:34:22.999Z</time>
      </trkpt>
      <trkpt lat="51.755583" lon="6.017794">
        <ele>71.938405</ele>
        <time>2024-03-31T12:34:25.999Z</time>
      </trkpt>
      <trkpt lat="51.755684" lon="6.017853">
        <ele>72.407876</ele>
        <time>2024-03-31T12:34:28.999Z</time>
      </trkpt>
      <trkpt lat="51.755778" lon="6.017896">
        <ele>72.834926</ele>
        <time>2024-03-31T12:34:31.999Z</time>
      </trkpt>
      <trkpt lat="51.755871" lon="6.017960">
        <ele>73.275332</ele>
        <time>2024-03-31T12:34:34.999Z</time>
      </trkpt>
      <trkpt lat="51.755956" lon="6.018033">
        <ele>73.596355</ele>
        <time>2024-03-31T12:34:37.999Z</time>
      </trkpt>
      <trkpt lat="51.756045" lon="6.018099">
        <ele>73.922928</ele>
        <time>2024-03-31T12:34:40.999Z</time>
      </trkpt>
      <trkpt lat="51.756155" lon="6.018115">
        <ele>74.291238</ele>
        <time>2024-03-31T12:34:44.999Z</time>
      </trkpt>
      <trkpt lat="51.756263" lon="6.018183">
        <ele>74.677782</ele>
        <time>2024-03-31T12:34:48.998Z</time>
      </trkpt>
      <trkpt lat="51.756365" lon="6.018272">
        <ele>75.064374</ele>
        <time>2024-03-31T12:34:52.998Z</time>
      </trkpt>
      <trkpt lat="51.756449" lon="6.018350">
        <ele>75.387473</ele>
        <time>2024-03-31T12:34:55.998Z</time>
      </trkpt>
      <trkpt lat="51.756538" lon="6.018457">
        <ele>75.757437</ele>
        <time>2024-03-31T12:34:58.998Z</time>
      </trkpt>
      <trkpt lat="51.756647" lon="6.018539">
        <ele>76.158407</ele>
        <time>2024-03-31T12:35:02.998Z</time>
      </trkpt>
      <trkpt lat="51.756743" lon="6.018662">
        <ele>76.567009</ele>
        <time>2024-03-31T12:35:05.998Z</time>
      </trkpt>
      <trkpt lat="51.756827" lon="6.018799">
        <ele>76.965059</ele>
        <time>2024-03-31T12:35:08.998Z</time>
      </trkpt>
      <trkpt lat="51.756923" lon="6.018990">
        <ele>77.472933</ele>
        <time>2024-03-31T12:35:11.998Z</time>
      </trkpt>
      <trkpt lat="51.756993" lon="6.019135">
        <ele>77.852512</ele>
        <time>2024-03-31T12:35:13.998Z</time>
      </trkpt>
      <trkpt lat="51.757064" lon="6.019291">
        <ele>78.252207</ele>
        <time>2024-03-31T12:35:15.998Z</time>
      </trkpt>
      <trkpt lat="51.757116" lon="6.019460">
        <ele>78.641782</ele>
        <time>2024-03-31T12:35:17.998Z</time>
      </trkpt>
      <trkpt lat="51.757189" lon="6.019699">
        <ele>79.191923</ele>
        <time>2024-03-31T12:35:19.998Z</time>
      </trkpt>
      <trkpt lat="51.757305" lon="6.019863">
        <ele>77.995118</ele>
        <time>2024-03-31T12:35:21.998Z</time>
      </trkpt>
      <trkpt lat="51.757403" lon="6.020000">
        <ele>76.736348</ele>
        <time>2024-03-31T12:35:23.998Z</time>
      </trkpt>
      <trkpt lat="51.757531" lon="6.020012">
        <ele>75.490997</ele>
        <time>2024-03-31T12:35:26.998Z</time>
      </trkpt>
      <trkpt lat="51.757620" lon="6.020030">
        <ele>74.619796</ele>
        <time>2024-03-31T12:35:28.998Z</time>
      </trkpt>
      <trkpt lat="51.757716" lon="6.020043">
        <ele>73.684082</ele>
        <time>2024-03-31T12:35:30.998Z</time>
      </trkpt>
      <trkpt lat="51.757830" lon="6.020100">
        <ele>72.524986</ele>
        <time>2024-03-31T12:35:33.997Z</time>
      </trkpt>
      <trkpt lat="51.757915" lon="6.020226">
        <ele>71.404505</ele>
        <time>2024-03-31T12:35:35.997Z</time>
      </trkpt>
      <trkpt lat="51.758038" lon="6.020377">
        <ele>69.904018</ele>
        <time>2024-03-31T12:35:37.997Z</time>
      </trkpt>
      <trkpt lat="51.758187" lon="6.020491">
        <ele>68.302696</ele>
        <time>2024-03-31T12:35:39.997Z</time>
      </trkpt>
      <trkpt lat="51.758277" lon="6.020534">
        <ele>67.391104</ele>
        <time>2024-03-31T12:35:40.997Z</time>
      </trkpt>
      <trkpt lat="51.758436" lon="6.020628">
        <ele>65.746588</ele>
        <time>2024-03-31T12:35:42.997Z</time>
      </trkpt>
      <trkpt lat="51.758571" lon="6.020730">
        <ele>64.299028</ele>
        <time>2024-03-31T12:35:44.997Z</time>
      </trkpt>
      <trkpt lat="51.758656" lon="6.020781">
        <ele>63.418328</ele>
        <time>2024-03-31T12:35:46.000Z</time>
      </trkpt>
      <trkpt lat="51.758778" lon="6.020947">
        <ele>61.869073</ele>
        <time>2024-03-31T12:35:48.000Z</time>
      </trkpt>
      <trkpt lat="51.758900" lon="6.021096">
        <ele>60.486858</ele>
        <time>2024-03-31T12:35:50.000Z</time>
      </trkpt>
      <trkpt lat="51.758995" lon="6.021223">
        <ele>59.376591</ele>
        <time>2024-03-31T12:35:52.000Z</time>
      </trkpt>
      <trkpt lat="51.759101" lon="6.021386">
        <ele>58.058930</ele>
        <time>2024-03-31T12:35:54.000Z</time>
      </trkpt>
      <trkpt lat="51.759172" lon="6.021597">
        <ele>56.720429</ele>
        <time>2024-03-31T12:35:56.000Z</time>
      </trkpt>
      <trkpt lat="51.759241" lon="6.021795">
        <ele>55.454046</ele>
        <time>2024-03-31T12:35:58.000Z</time>
      </trkpt>
      <trkpt lat="51.759358" lon="6.021992">
        <ele>53.932439</ele>
        <time>2024-03-31T12:36:00.000Z</time>
      </trkpt>
      <trkpt lat="51.759496" lon="6.022158">
        <ele>52.383277</ele>
        <time>2024-03-31T12:36:02.000Z</time>
      </trkpt>
      <trkpt lat="51.759635" lon="6.022313">
        <ele>50.862527</ele>
        <time>2024-03-31T12:36:04.000Z</time>
      </trkpt>
      <trkpt lat="51.759748" lon="6.022476">
        <ele>49.498528</ele>
        <time>2024-03-31T12:36:06.000Z</time>
      </trkpt>
      <trkpt lat="51.759862" lon="6.022645">
        <ele>48.105415</ele>
        <time>2024-03-31T12:36:08.000Z</time>
      </trkpt>
      <trkpt lat="51.759999" lon="6.022839">
        <ele>46.465086</ele>
        <time>2024-03-31T12:36:09.999Z</time>
      </trkpt>
      <trkpt lat="51.760122" lon="6.023013">
        <ele>45.288455</ele>
        <time>2024-03-31T12:36:11.999Z</time>
      </trkpt>
      <trkpt lat="51.760233" lon="6.023221">
        <ele>44.498788</ele>
        <time>2024-03-31T12:36:13.999Z</time>
      </trkpt>
      <trkpt lat="51.760312" lon="6.023303">
        <ele>44.062586</ele>
        <time>2024-03-31T12:36:14.999Z</time>
      </trkpt>
      <trkpt lat="51.760387" lon="6.023387">
        <ele>43.638648</ele>
        <time>2024-03-31T12:36:15.999Z</time>
      </trkpt>
      <trkpt lat="51.760514" lon="6.023560">
        <ele>42.866961</ele>
        <time>2024-03-31T12:36:17.999Z</time>
      </trkpt>
      <trkpt lat="51.760637" lon="6.023694">
        <ele>42.177806</ele>
        <time>2024-03-31T12:36:19.999Z</time>
      </trkpt>
      <trkpt lat="51.760766" lon="6.023836">
        <ele>41.452674</ele>
        <time>2024-03-31T12:36:21.999Z</time>
      </trkpt>
      <trkpt lat="51.760905" lon="6.023964">
        <ele>40.709437</ele>
        <time>2024-03-31T12:36:23.999Z</time>
      </trkpt>
      <trkpt lat="51.761012" lon="6.024061">
        <ele>40.139474</ele>
        <time>2024-03-31T12:36:25.999Z</time>
      </trkpt>
      <trkpt lat="51.761108" lon="6.024159">
        <ele>39.611951</ele>
        <time>2024-03-31T12:36:27.999Z</time>
      </trkpt>
      <trkpt lat="51.761231" lon="6.024272">
        <ele>38.954647</ele>
        <time>2024-03-31T12:36:29.999Z</time>
      </trkpt>
      <trkpt lat="51.761347" lon="6.024401">
        <ele>38.300464</ele>
        <time>2024-03-31T12:36:31.999Z</time>
      </trkpt>
      <trkpt lat="51.761426" lon="6.024492">
        <ele>37.849752</ele>
        <time>2024-03-31T12:36:32.999Z</time>
      </trkpt>
      <trkpt lat="51.761508" lon="6.024621">
        <ele>37.318079</ele>
        <time>2024-03-31T12:36:33.999Z</time>
      </trkpt>
      <trkpt lat="51.761625" lon="6.024821">
        <ele>37.352160</ele>
        <time>2024-03-31T12:36:35.999Z</time>
      </trkpt>
      <trkpt lat="51.761745" lon="6.024965">
        <ele>37.452656</ele>
        <time>2024-03-31T12:36:37.999Z</time>
      </trkpt>
      <trkpt lat="51.761849" lon="6.025065">
        <ele>37.534021</ele>
        <time>2024-03-31T12:36:39.999Z</time>
      </trkpt>
      <trkpt lat="51.761942" lon="6.025133">
        <ele>37.602651</ele>
        <time>2024-03-31T12:36:41.999Z</time>
      </trkpt>
      <trkpt lat="51.762031" lon="6.025251">
        <ele>37.680054</ele>
        <time>2024-03-31T12:36:44.999Z</time>
      </trkpt>
      <trkpt lat="51.762121" lon="6.025273">
        <ele>37.741250</ele>
        <time>2024-03-31T12:36:51.999Z</time>
      </trkpt>
      <trkpt lat="51.762120" lon="6.025466">
        <ele>37.821563</ele>
        <time>2024-03-31T12:36:57.998Z</time>
      </trkpt>
      <trkpt lat="51.762203" lon="6.025661">
        <ele>37.920040</ele>
        <time>2024-03-31T12:37:00.998Z</time>
      </trkpt>
      <trkpt lat="51.762415" lon="6.025836">
        <ele>38.080094</ele>
        <time>2024-03-31T12:37:06.998Z</time>
      </trkpt>
      <trkpt lat="51.762508" lon="6.025863">
        <ele>38.143620</ele>
        <time>2024-03-31T12:37:08.998Z</time>
      </trkpt>
      <trkpt lat="51.762613" lon="6.025933">
        <ele>38.219986</ele>
        <time>2024-03-31T12:37:11.998Z</time>
      </trkpt>
      <trkpt lat="51.762748" lon="6.025922">
        <ele>38.310863</ele>
        <time>2024-03-31T12:37:14.998Z</time>
      </trkpt>
      <trkpt lat="51.762833" lon="6.025857">
        <ele>38.374087</ele>
        <time>2024-03-31T12:37:16.998Z</time>
      </trkpt>
      <trkpt lat="51.762917" lon="6.025795">
        <ele>38.436175</ele>
        <time>2024-03-31T12:37:18.998Z</time>
      </trkpt>
      <trkpt lat="51.763000" lon="6.025701">
        <ele>38.577477</ele>
        <time>2024-03-31T12:37:20.998Z</time>
      </trkpt>
      <trkpt lat="51.763111" lon="6.025631">
        <ele>38.781598</ele>
        <time>2024-03-31T12:37:22.998Z</time>
      </trkpt>
      <trkpt lat="51.763214" lon="6.025569">
        <ele>38.969891</ele>
        <time>2024-03-31T12:37:24.998Z</time>
      </trkpt>
      <trkpt lat="51.763315" lon="6.025485">
        <ele>39.164487</ele>
        <time>2024-03-31T12:37:26.998Z</time>
      </trkpt>
      <trkpt lat="51.763405" lon="6.025406">
        <ele>39.339946</ele>
        <time>2024-03-31T12:37:28.998Z</time>
      </trkpt>
      <trkpt lat="51.763543" lon="6.025352">
        <ele>39.583183</ele>
        <time>2024-03-31T12:37:30.998Z</time>
      </trkpt>
      <trkpt lat="51.763646" lon="6.025289">
        <ele>39.771849</ele>
        <time>2024-03-31T12:37:32.998Z</time>
      </trkpt>
      <trkpt lat="51.763750" lon="6.025224">
        <ele>39.962872</ele>
        <time>2024-03-31T12:37:34.998Z</time>
      </trkpt>
      <trkpt lat="51.763865" lon="6.025153">
        <ele>40.173766</ele>
        <time>2024-03-31T12:37:36.998Z</time>
      </trkpt>
      <trkpt lat="51.763985" lon="6.025097">
        <ele>40.387737</ele>
        <time>2024-03-31T12:37:38.998Z</time>
      </trkpt>
      <trkpt lat="51.764101" lon="6.025041">
        <ele>40.595133</ele>
        <time>2024-03-31T12:37:40.997Z</time>
      </trkpt>
      <trkpt lat="51.764217" lon="6.024993">
        <ele>40.800261</ele>
        <time>2024-03-31T12:37:42.997Z</time>
      </trkpt>
      <trkpt lat="51.764332" lon="6.024949">
        <ele>41.002712</ele>
        <time>2024-03-31T12:37:44.997Z</time>
      </trkpt>
      <trkpt lat="51.764451" lon="6.024899">
        <ele>41.213347</ele>
        <time>2024-03-31T12:37:46.997Z</time>
      </trkpt>
      <trkpt lat="51.764564" lon="6.024839">
        <ele>41.417107</ele>
        <time>2024-03-31T12:37:48.997Z</time>
      </trkpt>
      <trkpt lat="51.764682" lon="6.024781">
        <ele>41.556552</ele>
        <time>2024-03-31T12:37:50.997Z</time>
      </trkpt>
      <trkpt lat="51.764788" lon="6.024730">
        <ele>41.595006</ele>
        <time>2024-03-31T12:37:53.000Z</time>
      </trkpt>
      <trkpt lat="51.764892" lon="6.024693">
        <ele>41.632032</ele>
        <time>2024-03-31T12:37:55.000Z</time>
      </trkpt>
      <trkpt lat="51.765014" lon="6.024652">
        <ele>41.675357</ele>
        <time>2024-03-31T12:37:57.000Z</time>
      </trkpt>
      <trkpt lat="51.765128" lon="6.024615">
        <ele>41.715785</ele>
        <time>2024-03-31T12:37:59.000Z</time>
      </trkpt>
      <trkpt lat="51.765243" lon="6.024573">
        <ele>41.756778</ele>
        <time>2024-03-31T12:38:01.000Z</time>
      </trkpt>
      <trkpt lat="51.765368" lon="6.024554">
        <ele>41.800430</ele>
        <time>2024-03-31T12:38:03.000Z</time>
      </trkpt>
      <trkpt lat="51.765486" lon="6.024522">
        <ele>41.842031</ele>
        <time>2024-03-31T12:38:05.000Z</time>
      </trkpt>
      <trkpt lat="51.765604" lon="6.024499">
        <ele>41.883356</ele>
        <time>2024-03-31T12:38:07.000Z</time>
      </trkpt>
      <trkpt lat="51.765725" lon="6.024477">
        <ele>41.925691</ele>
        <time>2024-03-31T12:38:09.000Z</time>
      </trkpt>
      <trkpt lat="51.765845" lon="6.024444">
        <ele>41.968014</ele>
        <time>2024-03-31T12:38:11.000Z</time>
      </trkpt>
      <trkpt lat="51.765969" lon="6.024420">
        <ele>42.011435</ele>
        <time>2024-03-31T12:38:13.000Z</time>
      </trkpt>
      <trkpt lat="51.766093" lon="6.024398">
        <ele>42.054807</ele>
        <time>2024-03-31T12:38:15.000Z</time>
      </trkpt>
      <trkpt lat="51.766226" lon="6.024377">
        <ele>42.101270</ele>
        <time>2024-03-31T12:38:16.999Z</time>
      </trkpt>
      <trkpt lat="51.766362" lon="6.024342">
        <ele>42.149151</ele>
        <time>2024-03-31T12:38:18.999Z</time>
      </trkpt>
      <trkpt lat="51.766491" lon="6.024315">
        <ele>41.871569</ele>
        <time>2024-03-31T12:38:20.999Z</time>
      </trkpt>
      <trkpt lat="51.766621" lon="6.024283">
        <ele>41.437408</ele>
        <time>2024-03-31T12:38:22.999Z</time>
      </trkpt>
      <trkpt lat="51.766751" lon="6.024258">
        <ele>41.005170</ele>
        <time>2024-03-31T12:38:24.999Z</time>
      </trkpt>
      <trkpt lat="51.766882" lon="6.024224">
        <ele>40.567116</ele>
        <time>2024-03-31T12:38:26.999Z</time>
      </trkpt>
      <trkpt lat="51.767021" lon="6.024213">
        <ele>40.107642</ele>
        <time>2024-03-31T12:38:28.999Z</time>
      </trkpt>
      <trkpt lat="51.767158" lon="6.024178">
        <ele>39.649704</ele>
        <time>2024-03-31T12:38:30.999Z</time>
      </trkpt>
      <trkpt lat="51.767304" lon="6.024137">
        <ele>39.160444</ele>
        <time>2024-03-31T12:38:32.999Z</time>
      </trkpt>
      <trkpt lat="51.767462" lon="6.024109">
        <ele>38.635662</ele>
        <time>2024-03-31T12:38:34.999Z</time>
      </trkpt>
      <trkpt lat="51.767598" lon="6.024079">
        <ele>38.182479</ele>
        <time>2024-03-31T12:38:36.999Z</time>
      </trkpt>
      <trkpt lat="51.767745" lon="6.024032">
        <ele>37.687734</ele>
        <time>2024-03-31T12:38:38.999Z</time>
      </trkpt>
      <trkpt lat="51.767899" lon="6.023985">
        <ele>37.170297</ele>
        <time>2024-03-31T12:38:40.999Z</time>
      </trkpt>
      <trkpt lat="51.768047" lon="6.023955">
        <ele>36.677829</ele>
        <time>2024-03-31T12:38:42.999Z</time>
      </trkpt>
      <trkpt lat="51.768200" lon="6.023904">
        <ele>36.166118</ele>
        <time>2024-03-31T12:38:44.999Z</time>
      </trkpt>
      <trkpt lat="51.768352" lon="6.023853">
        <ele>35.686598</ele>
        <time>2024-03-31T12:38:46.999Z</time>
      </trkpt>
      <trkpt lat="51.768509" lon="6.023790">
        <ele>35.186920</ele>
        <time>2024-03-31T12:38:48.999Z</time>
      </trkpt>
      <trkpt lat="51.768659" lon="6.023729">
        <ele>34.709146</ele>
        <time>2024-03-31T12:38:50.999Z</time>
      </trkpt>
      <trkpt lat="51.768813" lon="6.023694">
        <ele>34.228781</ele>
        <time>2024-03-31T12:38:52.999Z</time>
      </trkpt>
      <trkpt lat="51.768971" lon="6.023682">
        <ele>33.740204</ele>
        <time>2024-03-31T12:38:54.999Z</time>
      </trkpt>
      <trkpt lat="51.769118" lon="6.023675">
        <ele>33.285946</ele>
        <time>2024-03-31T12:38:56.999Z</time>
      </trkpt>
      <trkpt lat="51.769272" lon="6.023668">
        <ele>32.810075</ele>
        <time>2024-03-31T12:38:58.999Z</time>
      </trkpt>
      <trkpt lat="51.769417" lon="6.023652">
        <ele>32.361149</ele>
        <time>2024-03-31T12:39:00.998Z</time>
      </trkpt>
      <trkpt lat="51.769571" lon="6.023611">
        <ele>31.879054</ele>
        <time>2024-03-31T12:39:02.998Z</time>
      </trkpt>
      <trkpt lat="51.769722" lon="6.023550">
        <ele>31.398284</ele>
        <time>2024-03-31T12:39:04.998Z</time>
      </trkpt>
      <trkpt lat="51.769870" lon="6.023508">
        <ele>30.934138</ele>
        <time>2024-03-31T12:39:06.998Z</time>
      </trkpt>
      <trkpt lat="51.770013" lon="6.023484">
        <ele>30.609563</ele>
        <time>2024-03-31T12:39:08.998Z</time>
      </trkpt>
      <trkpt lat="51.770150" lon="6.023443">
        <ele>30.465861</ele>
        <time>2024-03-31T12:39:10.998Z</time>
      </trkpt>
      <trkpt lat="51.770287" lon="6.023412">
        <ele>30.323184</ele>
        <time>2024-03-31T12:39:12.998Z</time>
      </trkpt>
      <trkpt lat="51.770422" lon="6.023355">
        <ele>30.179274</ele>
        <time>2024-03-31T12:39:14.998Z</time>
      </trkpt>
      <trkpt lat="51.770548" lon="6.023282">
        <ele>30.041220</ele>
        <time>2024-03-31T12:39:16.998Z</time>
      </trkpt>
      <trkpt lat="51.770686" lon="6.023274">
        <ele>29.898799</ele>
        <time>2024-03-31T12:39:18.998Z</time>
      </trkpt>
      <trkpt lat="51.770823" lon="6.023237">
        <ele>29.755540</ele>
        <time>2024-03-31T12:39:20.998Z</time>
      </trkpt>
      <trkpt lat="51.770960" lon="6.023198">
        <ele>29.612066</ele>
        <time>2024-03-31T12:39:22.998Z</time>
      </trkpt>
      <trkpt lat="51.771118" lon="6.023152">
        <ele>29.446485</ele>
        <time>2024-03-31T12:39:24.998Z</time>
      </trkpt>
      <trkpt lat="51.771260" lon="6.023089">
        <ele>29.294610</ele>
        <time>2024-03-31T12:39:26.998Z</time>
      </trkpt>
      <trkpt lat="51.771401" lon="6.023052">
        <ele>29.147281</ele>
        <time>2024-03-31T12:39:28.998Z</time>
      </trkpt>
      <trkpt lat="51.771542" lon="6.023019">
        <ele>29.000339</ele>
        <time>2024-03-31T12:39:30.998Z</time>
      </trkpt>
      <trkpt lat="51.771672" lon="6.022977">
        <ele>28.863607</ele>
        <time>2024-03-31T12:39:32.998Z</time>
      </trkpt>
      <trkpt lat="51.771793" lon="6.022933">
        <ele>28.773304</ele>
        <time>2024-03-31T12:39:34.998Z</time>
      </trkpt>
      <trkpt lat="51.771915" lon="6.022914">
        <ele>28.707313</ele>
        <time>2024-03-31T12:39:36.998Z</time>
      </trkpt>
      <trkpt lat="51.772039" lon="6.022871">
        <ele>28.639029</ele>
        <time>2024-03-31T12:39:38.998Z</time>
      </trkpt>
      <trkpt lat="51.772166" lon="6.022821">
        <ele>28.568651</ele>
        <time>2024-03-31T12:39:40.998Z</time>
      </trkpt>
      <trkpt lat="51.772302" lon="6.022799">
        <ele>28.495060</ele>
        <time>2024-03-31T12:39:42.998Z</time>
      </trkpt>
      <trkpt lat="51.772439" lon="6.022748">
        <ele>28.419365</ele>
        <time>2024-03-31T12:39:44.997Z</time>
      </trkpt>
      <trkpt lat="51.772567" lon="6.022662">
        <ele>28.344729</ele>
        <time>2024-03-31T12:39:46.997Z</time>
      </trkpt>
      <trkpt lat="51.772693" lon="6.022590">
        <ele>28.272772</ele>
        <time>2024-03-31T12:39:48.997Z</time>
      </trkpt>
      <trkpt lat="51.772826" lon="6.022532">
        <ele>28.198602</ele>
        <time>2024-03-31T12:39:50.997Z</time>
      </trkpt>
      <trkpt lat="51.772950" lon="6.022433">
        <ele>28.124135</ele>
        <time>2024-03-31T12:39:52.997Z</time>
      </trkpt>
      <trkpt lat="51.773077" lon="6.022360">
        <ele>28.051560</ele>
        <time>2024-03-31T12:39:54.997Z</time>
      </trkpt>
      <trkpt lat="51.773202" lon="6.022296">
        <ele>27.980961</ele>
        <time>2024-03-31T12:39:56.997Z</time>
      </trkpt>
      <trkpt lat="51.773322" lon="6.022240">
        <ele>27.913711</ele>
        <time>2024-03-31T12:39:59.000Z</time>
      </trkpt>
      <trkpt lat="51.773439" lon="6.022194">
        <ele>27.848879</ele>
        <time>2024-03-31T12:40:01.000Z</time>
      </trkpt>
      <trkpt lat="51.773551" lon="6.022150">
        <ele>27.796178</ele>
        <time>2024-03-31T12:40:03.000Z</time>
      </trkpt>
      <trkpt lat="51.773668" lon="6.022103">
        <ele>27.741536</ele>
        <time>2024-03-31T12:40:05.000Z</time>
      </trkpt>
      <trkpt lat="51.773784" lon="6.022063">
        <ele>27.687778</ele>
        <time>2024-03-31T12:40:07.000Z</time>
      </trkpt>
      <trkpt lat="51.773893" lon="6.022016">
        <ele>27.636648</ele>
        <time>2024-03-31T12:40:09.000Z</time>
      </trkpt>
      <trkpt lat="51.774011" lon="6.021950">
        <ele>27.580054</ele>
        <time>2024-03-31T12:40:11.000Z</time>
      </trkpt>
      <trkpt lat="51.774127" lon="6.021899">
        <ele>27.525568</ele>
        <time>2024-03-31T12:40:13.000Z</time>
      </trkpt>
      <trkpt lat="51.774246" lon="6.021837">
        <ele>27.468900</ele>
        <time>2024-03-31T12:40:15.000Z</time>
      </trkpt>
      <trkpt lat="51.774375" lon="6.021780">
        <ele>27.408287</ele>
        <time>2024-03-31T12:40:17.000Z</time>
      </trkpt>
      <trkpt lat="51.774493" lon="6.021716">
        <ele>27.351875</ele>
        <time>2024-03-31T12:40:19.000Z</time>
      </trkpt>
      <trkpt lat="51.774620" lon="6.021664">
        <ele>27.292496</ele>
        <time>2024-03-31T12:40:21.000Z</time>
      </trkpt>
      <trkpt lat="51.774744" lon="6.021612">
        <ele>27.234434</ele>
        <time>2024-03-31T12:40:23.000Z</time>
      </trkpt>
      <trkpt lat="51.774873" lon="6.021549">
        <ele>27.173356</ele>
        <time>2024-03-31T12:40:24.999Z</time>
      </trkpt>
      <trkpt lat="51.774990" lon="6.021494">
        <ele>27.118130</ele>
        <time>2024-03-31T12:40:26.999Z</time>
      </trkpt>
      <trkpt lat="51.775111" lon="6.021441">
        <ele>27.061311</ele>
        <time>2024-03-31T12:40:28.999Z</time>
      </trkpt>
      <trkpt lat="51.775237" lon="6.021391">
        <ele>26.958912</ele>
        <time>2024-03-31T12:40:30.999Z</time>
      </trkpt>
      <trkpt lat="51.775354" lon="6.021343">
        <ele>26.819797</ele>
        <time>2024-03-31T12:40:32.999Z</time>
      </trkpt>
      <trkpt lat="51.775472" lon="6.021277">
        <ele>26.675892</ele>
        <time>2024-03-31T12:40:34.999Z</time>
      </trkpt>
      <trkpt lat="51.775587" lon="6.021229">
        <ele>26.539010</ele>
        <time>2024-03-31T12:40:36.999Z</time>
      </trkpt>
      <trkpt lat="51.775709" lon="6.021189">
        <ele>26.395545</ele>
        <time>2024-03-31T12:40:38.999Z</time>
      </trkpt>
      <trkpt lat="51.775836" lon="6.021175">
        <ele>26.248842</ele>
        <time>2024-03-31T12:40:40.999Z</time>
      </trkpt>
      <trkpt lat="51.775964" lon="6.021176">
        <ele>26.101324</ele>
        <time>2024-03-31T12:40:42.999Z</time>
      </trkpt>
      <trkpt lat="51.776087" lon="6.021172">
        <ele>25.959542</ele>
        <time>2024-03-31T12:40:44.999Z</time>
      </trkpt>
      <trkpt lat="51.776216" lon="6.021149">
        <ele>25.809972</ele>
        <time>2024-03-31T12:40:46.999Z</time>
      </trkpt>
      <trkpt lat="51.776347" lon="6.021137">
        <ele>25.658757</ele>
        <time>2024-03-31T12:40:48.999Z</time>
      </trkpt>
      <trkpt lat="51.776481" lon="6.021139">
        <ele>25.504320</ele>
        <time>2024-03-31T12:40:50.999Z</time>
      </trkpt>
      <trkpt lat="51.776605" lon="6.021132">
        <ele>25.361327</ele>
        <time>2024-03-31T12:40:52.999Z</time>
      </trkpt>
      <trkpt lat="51.776727" lon="6.021146">
        <ele>25.220372</ele>
        <time>2024-03-31T12:40:54.999Z</time>
      </trkpt>
      <trkpt lat="51.776855" lon="6.021156">
        <ele>25.072684</ele>
        <time>2024-03-31T12:40:56.999Z</time>
      </trkpt>
      <trkpt lat="51.776984" lon="6.021145">
        <ele>24.929952</ele>
        <time>2024-03-31T12:40:58.999Z</time>
      </trkpt>
      <trkpt lat="51.777118" lon="6.021120">
        <ele>24.802515</ele>
        <time>2024-03-31T12:41:00.999Z</time>
      </trkpt>
      <trkpt lat="51.777257" lon="6.021100">
        <ele>24.670675</ele>
        <time>2024-03-31T12:41:02.999Z</time>
      </trkpt>
      <trkpt lat="51.777405" lon="6.021070">
        <ele>24.529757</ele>
        <time>2024-03-31T12:41:04.999Z</time>
      </trkpt>
      <trkpt lat="51.777550" lon="6.021026">
        <ele>24.390374</ele>
        <time>2024-03-31T12:41:06.999Z</time>
      </trkpt>
      <trkpt lat="51.777688" lon="6.020982">
        <ele>24.257486</ele>
        <time>2024-03-31T12:41:08.998Z</time>
      </trkpt>
      <trkpt lat="51.777823" lon="6.020923">
        <ele>24.125365</ele>
        <time>2024-03-31T12:41:10.998Z</time>
      </trkpt>
      <trkpt lat="51.777953" lon="6.020872">
        <ele>23.998981</ele>
        <time>2024-03-31T12:41:12.998Z</time>
      </trkpt>
      <trkpt lat="51.778082" lon="6.020819">
        <ele>23.873232</ele>
        <time>2024-03-31T12:41:14.998Z</time>
      </trkpt>
      <trkpt lat="51.778201" lon="6.020765">
        <ele>23.756460</ele>
        <time>2024-03-31T12:41:16.998Z</time>
      </trkpt>
      <trkpt lat="51.778307" lon="6.020701">
        <ele>23.649557</ele>
        <time>2024-03-31T12:41:18.998Z</time>
      </trkpt>
      <trkpt lat="51.778430" lon="6.020647">
        <ele>23.529143</ele>
        <time>2024-03-31T12:41:20.998Z</time>
      </trkpt>
      <trkpt lat="51.778547" lon="6.020598">
        <ele>23.414956</ele>
        <time>2024-03-31T12:41:22.998Z</time>
      </trkpt>
      <trkpt lat="51.778673" lon="6.020526">
        <ele>23.288697</ele>
        <time>2024-03-31T12:41:24.998Z</time>
      </trkpt>
      <trkpt lat="51.778810" lon="6.020463">
        <ele>23.173006</ele>
        <time>2024-03-31T12:41:26.998Z</time>
      </trkpt>
      <trkpt lat="51.778944" lon="6.020408">
        <ele>23.065986</ele>
        <time>2024-03-31T12:41:28.998Z</time>
      </trkpt>
      <trkpt lat="51.779077" lon="6.020345">
        <ele>22.958703</ele>
        <time>2024-03-31T12:41:30.998Z</time>
      </trkpt>
      <trkpt lat="51.779206" lon="6.020252">
        <ele>22.849363</ele>
        <time>2024-03-31T12:41:32.998Z</time>
      </trkpt>
      <trkpt lat="51.779333" lon="6.020154">
        <ele>22.740425</ele>
        <time>2024-03-31T12:41:34.998Z</time>
      </trkpt>
      <trkpt lat="51.779452" lon="6.020065">
        <ele>22.638925</ele>
        <time>2024-03-31T12:41:36.998Z</time>
      </trkpt>
      <trkpt lat="51.779569" lon="6.019963">
        <ele>22.536023</ele>
        <time>2024-03-31T12:41:38.998Z</time>
      </trkpt>
      <trkpt lat="51.779683" lon="6.019884">
        <ele>22.440009</ele>
        <time>2024-03-31T12:41:40.998Z</time>
      </trkpt>
      <trkpt lat="51.779792" lon="6.019797">
        <ele>22.345906</ele>
        <time>2024-03-31T12:41:42.998Z</time>
      </trkpt>
      <trkpt lat="51.779904" lon="6.019710">
        <ele>22.249716</ele>
        <time>2024-03-31T12:41:44.998Z</time>
      </trkpt>
      <trkpt lat="51.780015" lon="6.019628">
        <ele>22.155244</ele>
        <time>2024-03-31T12:41:46.998Z</time>
      </trkpt>
      <trkpt lat="51.780132" lon="6.019552">
        <ele>22.057636</ele>
        <time>2024-03-31T12:41:48.998Z</time>
      </trkpt>
      <trkpt lat="51.780245" lon="6.019531">
        <ele>21.969588</ele>
        <time>2024-03-31T12:41:50.998Z</time>
      </trkpt>
      <trkpt lat="51.780331" lon="6.019453">
        <ele>21.893252</ele>
        <time>2024-03-31T12:41:52.998Z</time>
      </trkpt>
      <trkpt lat="51.780368" lon="6.019285">
        <ele>21.805288</ele>
        <time>2024-03-31T12:41:54.997Z</time>
      </trkpt>
      <trkpt lat="51.780378" lon="6.019077">
        <ele>21.700998</ele>
        <time>2024-03-31T12:41:56.997Z</time>
      </trkpt>
      <trkpt lat="51.780378" lon="6.018861">
        <ele>21.593023</ele>
        <time>2024-03-31T12:41:58.997Z</time>
      </trkpt>
      <trkpt lat="51.780375" lon="6.018660">
        <ele>21.492516</ele>
        <time>2024-03-31T12:42:00.997Z</time>
      </trkpt>
      <trkpt lat="51.780384" lon="6.018455">
        <ele>21.389782</ele>
        <time>2024-03-31T12:42:02.997Z</time>
      </trkpt>
      <trkpt lat="51.780398" lon="6.018242">
        <ele>21.282706</ele>
        <time>2024-03-31T12:42:05.000Z</time>
      </trkpt>
      <trkpt lat="51.780402" lon="6.018019">
        <ele>21.171185</ele>
        <time>2024-03-31T12:42:07.000Z</time>
      </trkpt>
      <trkpt lat="51.780416" lon="6.017799">
        <ele>21.060629</ele>
        <time>2024-03-31T12:42:09.000Z</time>
      </trkpt>
      <trkpt lat="51.780427" lon="6.017583">
        <ele>20.952289</ele>
        <time>2024-03-31T12:42:11.000Z</time>
      </trkpt>
      <trkpt lat="51.780436" lon="6.017376">
        <ele>20.848557</ele>
        <time>2024-03-31T12:42:13.000Z</time>
      </trkpt>
      <trkpt lat="51.780451" lon="6.017162">
        <ele>20.740897</ele>
        <time>2024-03-31T12:42:15.000Z</time>
      </trkpt>
      <trkpt lat="51.780480" lon="6.016959">
        <ele>20.636750</ele>
        <time>2024-03-31T12:42:17.000Z</time>
      </trkpt>
      <trkpt lat="51.780516" lon="6.016757">
        <ele>20.531667</ele>
        <time>2024-03-31T12:42:19.000Z</time>
      </trkpt>
      <trkpt lat="51.780574" lon="6.016553">
        <ele>20.419437</ele>
        <time>2024-03-31T12:42:21.000Z</time>
      </trkpt>
      <trkpt lat="51.780627" lon="6.016344">
        <ele>20.207580</ele>
        <time>2024-03-31T12:42:23.000Z</time>
      </trkpt>
      <trkpt lat="51.780680" lon="6.016151">
        <ele>20.003959</ele>
        <time>2024-03-31T12:42:25.000Z</time>
      </trkpt>
      <trkpt lat="51.780736" lon="6.015960">
        <ele>19.800140</ele>
        <time>2024-03-31T12:42:27.000Z</time>
      </trkpt>
      <trkpt lat="51.780789" lon="6.015770">
        <ele>19.599160</ele>
        <time>2024-03-31T12:42:28.999Z</time>
      </trkpt>
      <trkpt lat="51.780834" lon="6.015580">
        <ele>19.402975</ele>
        <time>2024-03-31T12:42:30.999Z</time>
      </trkpt>
      <trkpt lat="51.780872" lon="6.015384">
        <ele>19.204909</ele>
        <time>2024-03-31T12:42:32.999Z</time>
      </trkpt>
      <trkpt lat="51.780904" lon="6.015187">
        <ele>19.008503</ele>
        <time>2024-03-31T12:42:34.999Z</time>
      </trkpt>
      <trkpt lat="51.780955" lon="6.015000">
        <ele>18.811434</ele>
        <time>2024-03-31T12:42:36.999Z</time>
      </trkpt>
      <trkpt lat="51.781070" lon="6.014893">
        <ele>18.604612</ele>
        <time>2024-03-31T12:42:38.999Z</time>
      </trkpt>
      <trkpt lat="51.781196" lon="6.014955">
        <ele>18.399321</ele>
        <time>2024-03-31T12:42:40.999Z</time>
      </trkpt>
      <trkpt lat="51.781316" lon="6.015036">
        <ele>18.196627</ele>
        <time>2024-03-31T12:42:42.999Z</time>
      </trkpt>
      <trkpt lat="51.781440" lon="6.015107">
        <ele>17.991584</ele>
        <time>2024-03-31T12:42:44.999Z</time>
      </trkpt>
      <trkpt lat="51.781559" lon="6.015170">
        <ele>17.796407</ele>
        <time>2024-03-31T12:42:46.999Z</time>
      </trkpt>
      <trkpt lat="51.781680" lon="6.015234">
        <ele>17.609037</ele>
        <time>2024-03-31T12:42:48.999Z</time>
      </trkpt>
      <trkpt lat="51.781808" lon="6.015287">
        <ele>17.600126</ele>
        <time>2024-03-31T12:42:50.999Z</time>
      </trkpt>
      <trkpt lat="51.781937" lon="6.015338">
        <ele>17.591170</ele>
        <time>2024-03-31T12:42:52.999Z</time>
      </trkpt>
      <trkpt lat="51.782066" lon="6.015389">
        <ele>17.582213</ele>
        <time>2024-03-31T12:42:54.999Z</time>
      </trkpt>
      <trkpt lat="51.782187" lon="6.015435">
        <ele>17.573830</ele>
        <time>2024-03-31T12:42:56.999Z</time>
      </trkpt>
      <trkpt lat="51.782322" lon="6.015510">
        <ele>17.564203</ele>
        <time>2024-03-31T12:42:58.999Z</time>
      </trkpt>
      <trkpt lat="51.782458" lon="6.015573">
        <ele>17.554662</ele>
        <time>2024-03-31T12:43:00.999Z</time>
      </trkpt>
      <trkpt lat="51.782586" lon="6.015629">
        <ele>17.545719</ele>
        <time>2024-03-31T12:43:02.999Z</time>
      </trkpt>
      <trkpt lat="51.782711" lon="6.015684">
        <ele>17.536982</ele>
        <time>2024-03-31T12:43:04.999Z</time>
      </trkpt>
      <trkpt lat="51.782833" lon="6.015738">
        <ele>17.528451</ele>
        <time>2024-03-31T12:43:06.999Z</time>
      </trkpt>
      <trkpt lat="51.782949" lon="6.015784">
        <ele>17.520396</ele>
        <time>2024-03-31T12:43:08.999Z</time>
      </trkpt>
      <trkpt lat="51.783066" lon="6.015843">
        <ele>17.512131</ele>
        <time>2024-03-31T12:43:10.999Z</time>
      </trkpt>
      <trkpt lat="51.783179" lon="6.015912">
        <ele>17.503984</ele>
        <time>2024-03-31T12:43:12.999Z</time>
      </trkpt>
      <trkpt lat="51.783280" lon="6.015981">
        <ele>17.496589</ele>
        <time>2024-03-31T12:43:14.998Z</time>
      </trkpt>
      <trkpt lat="51.783384" lon="6.016008">
        <ele>17.489486</ele>
        <time>2024-03-31T12:43:16.998Z</time>
      </trkpt>
      <trkpt lat="51.783488" lon="6.015993">
        <ele>17.517135</ele>
        <time>2024-03-31T12:43:18.998Z</time>
      </trkpt>
      <trkpt lat="51.783584" lon="6.016092">
        <ele>17.555454</ele>
        <time>2024-03-31T12:43:20.998Z</time>
      </trkpt>
      <trkpt lat="51.783648" lon="6.016233">
        <ele>17.591860</ele>
        <time>2024-03-31T12:43:22.998Z</time>
      </trkpt>
      <trkpt lat="51.783706" lon="6.016358">
        <ele>17.624388</ele>
        <time>2024-03-31T12:43:24.998Z</time>
      </trkpt>
      <trkpt lat="51.783783" lon="6.016521">
        <ele>17.667082</ele>
        <time>2024-03-31T12:43:27.998Z</time>
      </trkpt>
      <trkpt lat="51.783754" lon="6.016667">
        <ele>17.699004</ele>
        <time>2024-03-31T12:43:29.998Z</time>
      </trkpt>
      <trkpt lat="51.783697" lon="6.016805">
        <ele>17.733546</ele>
        <time>2024-03-31T12:43:31.998Z</time>
      </trkpt>
      <trkpt lat="51.783653" lon="6.016945">
        <ele>17.766236</ele>
        <time>2024-03-31T12:43:33.998Z</time>
      </trkpt>
      <trkpt lat="51.783597" lon="6.017112">
        <ele>17.805780</ele>
        <time>2024-03-31T12:43:35.998Z</time>
      </trkpt>
      <trkpt lat="51.783543" lon="6.017279">
        <ele>17.845008</ele>
        <time>2024-03-31T12:43:37.998Z</time>
      </trkpt>
      <trkpt lat="51.783490" lon="6.017447">
        <ele>17.884266</ele>
        <time>2024-03-31T12:43:39.998Z</time>
      </trkpt>
      <trkpt lat="51.783434" lon="6.017612">
        <ele>17.923445</ele>
        <time>2024-03-31T12:43:41.998Z</time>
      </trkpt>
      <trkpt lat="51.783380" lon="6.017786">
        <ele>17.963970</ele>
        <time>2024-03-31T12:43:43.998Z</time>
      </trkpt>
      <trkpt lat="51.783322" lon="6.017959">
        <ele>18.004933</ele>
        <time>2024-03-31T12:43:45.998Z</time>
      </trkpt>
      <trkpt lat="51.783265" lon="6.018128">
        <ele>18.045004</ele>
        <time>2024-03-31T12:43:47.998Z</time>
      </trkpt>
      <trkpt lat="51.783211" lon="6.018298">
        <ele>18.084786</ele>
        <time>2024-03-31T12:43:49.998Z</time>
      </trkpt>
      <trkpt lat="51.783156" lon="6.018472">
        <ele>18.170049</ele>
        <time>2024-03-31T12:43:51.998Z</time>
      </trkpt>
      <trkpt lat="51.783100" lon="6.018647">
        <ele>18.268266</ele>
        <time>2024-03-31T12:43:53.998Z</time>
      </trkpt>
      <trkpt lat="51.783044" lon="6.018820">
        <ele>18.365598</ele>
        <time>2024-03-31T12:43:55.998Z</time>
      </trkpt>
      <trkpt lat="51.782988" lon="6.018993">
        <ele>18.462930</ele>
        <time>2024-03-31T12:43:57.998Z</time>
      </trkpt>
      <trkpt lat="51.782931" lon="6.019164">
        <ele>18.559760</ele>
        <time>2024-03-31T12:43:59.997Z</time>
      </trkpt>
      <trkpt lat="51.782875" lon="6.019338">
        <ele>18.657535</ele>
        <time>2024-03-31T12:44:01.997Z</time>
      </trkpt>
      <trkpt lat="51.782819" lon="6.019510">
        <ele>18.754426</ele>
        <time>2024-03-31T12:44:03.997Z</time>
      </trkpt>
      <trkpt lat="51.782766" lon="6.019674">
        <ele>18.846663</ele>
        <time>2024-03-31T12:44:05.997Z</time>
      </trkpt>
      <trkpt lat="51.782721" lon="6.019827">
        <ele>18.931114</ele>
        <time>2024-03-31T12:44:07.997Z</time>
      </trkpt>
      <trkpt lat="51.782677" lon="6.019958">
        <ele>19.005422</ele>
        <time>2024-03-31T12:44:10.000Z</time>
      </trkpt>
      <trkpt lat="51.782621" lon="6.020157">
        <ele>19.114405</ele>
        <time>2024-03-31T12:44:13.000Z</time>
      </trkpt>
      <trkpt lat="51.782580" lon="6.020297">
        <ele>19.191620</ele>
        <time>2024-03-31T12:44:15.000Z</time>
      </trkpt>
      <trkpt lat="51.782533" lon="6.020439">
        <ele>19.271902</ele>
        <time>2024-03-31T12:44:17.000Z</time>
      </trkpt>
      <trkpt lat="51.782483" lon="6.020586">
        <ele>19.355527</ele>
        <time>2024-03-31T12:44:19.000Z</time>
      </trkpt>
      <trkpt lat="51.782427" lon="6.020751">
        <ele>19.449345</ele>
        <time>2024-03-31T12:44:21.000Z</time>
      </trkpt>
      <trkpt lat="51.782376" lon="6.020919">
        <ele>19.542633</ele>
        <time>2024-03-31T12:44:23.000Z</time>
      </trkpt>
      <trkpt lat="51.782325" lon="6.021095">
        <ele>19.573089</ele>
        <time>2024-03-31T12:44:25.000Z</time>
      </trkpt>
      <trkpt lat="51.782280" lon="6.021259">
        <ele>19.601079</ele>
        <time>2024-03-31T12:44:27.000Z</time>
      </trkpt>
      <trkpt lat="51.782231" lon="6.021435">
        <ele>19.631189</ele>
        <time>2024-03-31T12:44:29.000Z</time>
      </trkpt>
      <trkpt lat="51.782184" lon="6.021604">
        <ele>19.660097</ele>
        <time>2024-03-31T12:44:31.000Z</time>
      </trkpt>
      <trkpt lat="51.782140" lon="6.021775">
        <ele>19.688991</ele>
        <time>2024-03-31T12:44:33.000Z</time>
      </trkpt>
      <trkpt lat="51.782101" lon="6.021942">
        <ele>19.716839</ele>
        <time>2024-03-31T12:44:34.999Z</time>
      </trkpt>
      <trkpt lat="51.782066" lon="6.022099">
        <ele>19.742875</ele>
        <time>2024-03-31T12:44:36.999Z</time>
      </trkpt>
      <trkpt lat="51.782021" lon="6.022238">
        <ele>19.767350</ele>
        <time>2024-03-31T12:44:38.999Z</time>
      </trkpt>
      <trkpt lat="51.781991" lon="6.022379">
        <ele>19.790613</ele>
        <time>2024-03-31T12:44:40.999Z</time>
      </trkpt>
      <trkpt lat="51.781957" lon="6.022534">
        <ele>19.816270</ele>
        <time>2024-03-31T12:44:42.999Z</time>
      </trkpt>
      <trkpt lat="51.781927" lon="6.022703">
        <ele>19.843700</ele>
        <time>2024-03-31T12:44:44.999Z</time>
      </trkpt>
      <trkpt lat="51.781889" lon="6.022883">
        <ele>19.873372</ele>
        <time>2024-03-31T12:44:46.999Z</time>
      </trkpt>
      <trkpt lat="51.781855" lon="6.023067">
        <ele>19.903332</ele>
        <time>2024-03-31T12:44:48.999Z</time>
      </trkpt>
      <trkpt lat="51.781828" lon="6.023247">
        <ele>19.932228</ele>
        <time>2024-03-31T12:44:50.999Z</time>
      </trkpt>
      <trkpt lat="51.781808" lon="6.023424">
        <ele>19.960299</ele>
        <time>2024-03-31T12:44:52.999Z</time>
      </trkpt>
      <trkpt lat="51.781782" lon="6.023616">
        <ele>19.990963</ele>
        <time>2024-03-31T12:44:54.999Z</time>
      </trkpt>
      <trkpt lat="51.781755" lon="6.023795">
        <ele>19.945971</ele>
        <time>2024-03-31T12:44:56.999Z</time>
      </trkpt>
      <trkpt lat="51.781729" lon="6.023984">
        <ele>19.880563</ele>
        <time>2024-03-31T12:44:58.999Z</time>
      </trkpt>
      <trkpt lat="51.781703" lon="6.024173">
        <ele>19.815155</ele>
        <time>2024-03-31T12:45:00.999Z</time>
      </trkpt>
      <trkpt lat="51.781684" lon="6.024362">
        <ele>19.750468</ele>
        <time>2024-03-31T12:45:02.999Z</time>
      </trkpt>
      <trkpt lat="51.781664" lon="6.024546">
        <ele>19.687356</ele>
        <time>2024-03-31T12:45:04.999Z</time>
      </trkpt>
      <trkpt lat="51.781647" lon="6.024740">
        <ele>19.621164</ele>
        <time>2024-03-31T12:45:06.999Z</time>
      </trkpt>
      <trkpt lat="51.781630" lon="6.024938">
        <ele>19.553633</ele>
        <time>2024-03-31T12:45:08.999Z</time>
      </trkpt>
      <trkpt lat="51.781623" lon="6.025139">
        <ele>19.485623</ele>
        <time>2024-03-31T12:45:10.999Z</time>
      </trkpt>
      <trkpt lat="51.781616" lon="6.025342">
        <ele>19.416938</ele>
        <time>2024-03-31T12:45:12.999Z</time>
      </trkpt>
      <trkpt lat="51.781605" lon="6.025545">
        <ele>19.348096</ele>
        <time>2024-03-31T12:45:14.999Z</time>
      </trkpt>
      <trkpt lat="51.781601" lon="6.025755">
        <ele>19.277119</ele>
        <time>2024-03-31T12:45:16.999Z</time>
      </trkpt>
      <trkpt lat="51.781600" lon="6.025958">
        <ele>19.208539</ele>
        <time>2024-03-31T12:45:18.999Z</time>
      </trkpt>
      <trkpt lat="51.781599" lon="6.026160">
        <ele>19.140296</ele>
        <time>2024-03-31T12:45:20.998Z</time>
      </trkpt>
      <trkpt lat="51.781595" lon="6.026365">
        <ele>19.071007</ele>
        <time>2024-03-31T12:45:22.998Z</time>
      </trkpt>
      <trkpt lat="51.781603" lon="6.026569">
        <ele>19.001228</ele>
        <time>2024-03-31T12:45:24.998Z</time>
      </trkpt>
      <trkpt lat="51.781604" lon="6.026778">
        <ele>18.926465</ele>
        <time>2024-03-31T12:45:26.998Z</time>
      </trkpt>
      <trkpt lat="51.781598" lon="6.026989">
        <ele>18.850909</ele>
        <time>2024-03-31T12:45:28.998Z</time>
      </trkpt>
      <trkpt lat="51.781593" lon="6.027202">
        <ele>18.774663</ele>
        <time>2024-03-31T12:45:30.998Z</time>
      </trkpt>
      <trkpt lat="51.781590" lon="6.027417">
        <ele>18.697736</ele>
        <time>2024-03-31T12:45:32.998Z</time>
      </trkpt>
      <trkpt lat="51.781588" lon="6.027632">
        <ele>18.620820</ele>
        <time>2024-03-31T12:45:34.998Z</time>
      </trkpt>
      <trkpt lat="51.781579" lon="6.027852">
        <ele>18.541952</ele>
        <time>2024-03-31T12:45:36.998Z</time>
      </trkpt>
      <trkpt lat="51.781581" lon="6.028060">
        <ele>18.467540</ele>
        <time>2024-03-31T12:45:38.998Z</time>
      </trkpt>
      <trkpt lat="51.781589" lon="6.028262">
        <ele>18.395135</ele>
        <time>2024-03-31T12:45:40.998Z</time>
      </trkpt>
      <trkpt lat="51.781591" lon="6.028471">
        <ele>18.320365</ele>
        <time>2024-03-31T12:45:42.998Z</time>
      </trkpt>
      <trkpt lat="51.781594" lon="6.028688">
        <ele>18.242723</ele>
        <time>2024-03-31T12:45:44.998Z</time>
      </trkpt>
      <trkpt lat="51.781585" lon="6.028902">
        <ele>18.165997</ele>
        <time>2024-03-31T12:45:46.998Z</time>
      </trkpt>
      <trkpt lat="51.781590" lon="6.029106">
        <ele>18.092968</ele>
        <time>2024-03-31T12:45:48.998Z</time>
      </trkpt>
      <trkpt lat="51.781588" lon="6.029316">
        <ele>18.017840</ele>
        <time>2024-03-31T12:45:50.998Z</time>
      </trkpt>
      <trkpt lat="51.781590" lon="6.029527">
        <ele>17.991787</ele>
        <time>2024-03-31T12:45:52.998Z</time>
      </trkpt>
      <trkpt lat="51.781581" lon="6.029738">
        <ele>18.033292</ele>
        <time>2024-03-31T12:45:54.998Z</time>
      </trkpt>
      <trkpt lat="51.781585" lon="6.029950">
        <ele>18.074914</ele>
        <time>2024-03-31T12:45:56.998Z</time>
      </trkpt>
      <trkpt lat="51.781581" lon="6.030159">
        <ele>18.115948</ele>
        <time>2024-03-31T12:45:58.998Z</time>
      </trkpt>
      <trkpt lat="51.781582" lon="6.030369">
        <ele>18.157160</ele>
        <time>2024-03-31T12:46:00.998Z</time>
      </trkpt>
      <trkpt lat="51.781581" lon="6.030580">
        <ele>18.198568</ele>
        <time>2024-03-31T12:46:02.998Z</time>
      </trkpt>
      <trkpt lat="51.781584" lon="6.030790">
        <ele>18.239789</ele>
        <time>2024-03-31T12:46:04.997Z</time>
      </trkpt>
      <trkpt lat="51.781584" lon="6.030995">
        <ele>18.280018</ele>
        <time>2024-03-31T12:46:06.997Z</time>
      </trkpt>
      <trkpt lat="51.781578" lon="6.031204">
        <ele>18.321077</ele>
        <time>2024-03-31T12:46:08.997Z</time>
      </trkpt>
      <trkpt lat="51.781584" lon="6.031409">
        <ele>18.361351</ele>
        <time>2024-03-31T12:46:10.997Z</time>
      </trkpt>
      <trkpt lat="51.781580" lon="6.031617">
        <ele>18.402189</ele>
        <time>2024-03-31T12:46:12.997Z</time>
      </trkpt>
      <trkpt lat="51.781579" lon="6.031821">
        <ele>18.442223</ele>
        <time>2024-03-31T12:46:14.997Z</time>
      </trkpt>
      <trkpt lat="51.781584" lon="6.032024">
        <ele>18.482092</ele>
        <time>2024-03-31T12:46:17.000Z</time>
      </trkpt>
      <trkpt lat="51.781591" lon="6.032206">
        <ele>18.517876</ele>
        <time>2024-03-31T12:46:19.000Z</time>
      </trkpt>
      <trkpt lat="51.781594" lon="6.032386">
        <ele>18.536275</ele>
        <time>2024-03-31T12:46:21.000Z</time>
      </trkpt>
      <trkpt lat="51.781586" lon="6.032581">
        <ele>18.497336</ele>
        <time>2024-03-31T12:46:23.000Z</time>
      </trkpt>
      <trkpt lat="51.781587" lon="6.032788">
        <ele>18.456091</ele>
        <time>2024-03-31T12:46:25.000Z</time>
      </trkpt>
      <trkpt lat="51.781585" lon="6.032993">
        <ele>18.415240</ele>
        <time>2024-03-31T12:46:27.000Z</time>
      </trkpt>
      <trkpt lat="51.781588" lon="6.033199">
        <ele>18.374183</ele>
        <time>2024-03-31T12:46:29.000Z</time>
      </trkpt>
      <trkpt lat="51.781585" lon="6.033408">
        <ele>18.332529</ele>
        <time>2024-03-31T12:46:31.000Z</time>
      </trkpt>
      <trkpt lat="51.781586" lon="6.033620">
        <ele>18.290287</ele>
        <time>2024-03-31T12:46:33.000Z</time>
      </trkpt>
      <trkpt lat="51.781580" lon="6.033833">
        <ele>18.247803</ele>
        <time>2024-03-31T12:46:35.000Z</time>
      </trkpt>
      <trkpt lat="51.781590" lon="6.034044">
        <ele>18.205638</ele>
        <time>2024-03-31T12:46:37.000Z</time>
      </trkpt>
      <trkpt lat="51.781581" lon="6.034258">
        <ele>18.162900</ele>
        <time>2024-03-31T12:46:39.000Z</time>
      </trkpt>
      <trkpt lat="51.781580" lon="6.034472">
        <ele>18.120260</ele>
        <time>2024-03-31T12:46:40.999Z</time>
      </trkpt>
      <trkpt lat="51.781582" lon="6.034683">
        <ele>18.078213</ele>
        <time>2024-03-31T12:46:42.999Z</time>
      </trkpt>
      <trkpt lat="51.781577" lon="6.034899">
        <ele>18.035145</ele>
        <time>2024-03-31T12:46:44.999Z</time>
      </trkpt>
      <trkpt lat="51.781583" lon="6.035101">
        <ele>17.994851</ele>
        <time>2024-03-31T12:46:46.999Z</time>
      </trkpt>
      <trkpt lat="51.781575" lon="6.035308">
        <ele>17.973197</ele>
        <time>2024-03-31T12:46:48.999Z</time>
      </trkpt>
      <trkpt lat="51.781578" lon="6.035512">
        <ele>17.999175</ele>
        <time>2024-03-31T12:46:50.999Z</time>
      </trkpt>
      <trkpt lat="51.781581" lon="6.035714">
        <ele>18.024899</ele>
        <time>2024-03-31T12:46:52.999Z</time>
      </trkpt>
      <trkpt lat="51.781589" lon="6.035935">
        <ele>18.053081</ele>
        <time>2024-03-31T12:46:54.999Z</time>
      </trkpt>
      <trkpt lat="51.781598" lon="6.036151">
        <ele>18.080642</ele>
        <time>2024-03-31T12:46:56.999Z</time>
      </trkpt>
      <trkpt lat="51.781603" lon="6.036368">
        <ele>18.108286</ele>
        <time>2024-03-31T12:46:58.999Z</time>
      </trkpt>
      <trkpt lat="51.781614" lon="6.036583">
        <ele>18.135751</ele>
        <time>2024-03-31T12:47:00.999Z</time>
      </trkpt>
      <trkpt lat="51.781633" lon="6.036798">
        <ele>18.163399</ele>
        <time>2024-03-31T12:47:02.999Z</time>
      </trkpt>
      <trkpt lat="51.781650" lon="6.037016">
        <ele>18.191372</ele>
        <time>2024-03-31T12:47:04.999Z</time>
      </trkpt>
      <trkpt lat="51.781678" lon="6.037222">
        <ele>18.218222</ele>
        <time>2024-03-31T12:47:06.999Z</time>
      </trkpt>
      <trkpt lat="51.781693" lon="6.037411">
        <ele>18.242480</ele>
        <time>2024-03-31T12:47:08.999Z</time>
      </trkpt>
      <trkpt lat="51.781712" lon="6.037586">
        <ele>18.265099</ele>
        <time>2024-03-31T12:47:10.999Z</time>
      </trkpt>
      <trkpt lat="51.781738" lon="6.037767">
        <ele>18.288755</ele>
        <time>2024-03-31T12:47:12.999Z</time>
      </trkpt>
      <trkpt lat="51.781763" lon="6.037958">
        <ele>18.313608</ele>
        <time>2024-03-31T12:47:14.999Z</time>
      </trkpt>
      <trkpt lat="51.781791" lon="6.038149">
        <ele>18.341554</ele>
        <time>2024-03-31T12:47:16.999Z</time>
      </trkpt>
      <trkpt lat="51.781820" lon="6.038343">
        <ele>18.392438</ele>
        <time>2024-03-31T12:47:18.999Z</time>
      </trkpt>
      <trkpt lat="51.781855" lon="6.038530">
        <ele>18.442249</ele>
        <time>2024-03-31T12:47:20.999Z</time>
      </trkpt>
      <trkpt lat="51.781893" lon="6.038724">
        <ele>18.494130</ele>
        <time>2024-03-31T12:47:22.999Z</time>
      </trkpt>
      <trkpt lat="51.781936" lon="6.038920">
        <ele>18.547150</ele>
        <time>2024-03-31T12:47:24.999Z</time>
      </trkpt>
      <trkpt lat="51.781972" lon="6.039117">
        <ele>18.599521</ele>
        <time>2024-03-31T12:47:26.998Z</time>
      </trkpt>
      <trkpt lat="51.782010" lon="6.039307">
        <ele>18.650431</ele>
        <time>2024-03-31T12:47:28.998Z</time>
      </trkpt>
      <trkpt lat="51.782058" lon="6.039502">
        <ele>18.703937</ele>
        <time>2024-03-31T12:47:30.998Z</time>
      </trkpt>
      <trkpt lat="51.782105" lon="6.039684">
        <ele>18.754219</ele>
        <time>2024-03-31T12:47:32.998Z</time>
      </trkpt>
      <trkpt lat="51.782152" lon="6.039872">
        <ele>18.805916</ele>
        <time>2024-03-31T12:47:34.998Z</time>
      </trkpt>
      <trkpt lat="51.782204" lon="6.040050">
        <ele>18.856103</ele>
        <time>2024-03-31T12:47:36.998Z</time>
      </trkpt>
      <trkpt lat="51.782257" lon="6.040229">
        <ele>18.906697</ele>
        <time>2024-03-31T12:47:38.998Z</time>
      </trkpt>
      <trkpt lat="51.782309" lon="6.040411">
        <ele>18.957807</ele>
        <time>2024-03-31T12:47:40.998Z</time>
      </trkpt>
      <trkpt lat="51.782356" lon="6.040591">
        <ele>19.007619</ele>
        <time>2024-03-31T12:47:42.998Z</time>
      </trkpt>
      <trkpt lat="51.782416" lon="6.040746">
        <ele>19.054234</ele>
        <time>2024-03-31T12:47:44.998Z</time>
      </trkpt>
      <trkpt lat="51.782478" lon="6.040890">
        <ele>19.030592</ele>
        <time>2024-03-31T12:47:46.998Z</time>
      </trkpt>
      <trkpt lat="51.782537" lon="6.041030">
        <ele>18.940036</ele>
        <time>2024-03-31T12:47:48.998Z</time>
      </trkpt>
      <trkpt lat="51.782582" lon="6.041171">
        <ele>18.855221</ele>
        <time>2024-03-31T12:47:50.998Z</time>
      </trkpt>
      <trkpt lat="51.782626" lon="6.041300">
        <ele>18.776474</ele>
        <time>2024-03-31T12:47:52.998Z</time>
      </trkpt>
      <trkpt lat="51.782683" lon="6.041443">
        <ele>18.685536</ele>
        <time>2024-03-31T12:47:55.998Z</time>
      </trkpt>
      <trkpt lat="51.782745" lon="6.041569">
        <ele>18.599471</ele>
        <time>2024-03-31T12:47:57.998Z</time>
      </trkpt>
      <trkpt lat="51.782810" lon="6.041718">
        <ele>18.502007</ele>
        <time>2024-03-31T12:47:59.998Z</time>
      </trkpt>
      <trkpt lat="51.782868" lon="6.041872">
        <ele>18.405626</ele>
        <time>2024-03-31T12:48:01.998Z</time>
      </trkpt>
      <trkpt lat="51.782936" lon="6.042041">
        <ele>18.297855</ele>
        <time>2024-03-31T12:48:03.998Z</time>
      </trkpt>
      <trkpt lat="51.782998" lon="6.042223">
        <ele>18.186787</ele>
        <time>2024-03-31T12:48:05.998Z</time>
      </trkpt>
      <trkpt lat="51.783068" lon="6.042387">
        <ele>18.080275</ele>
        <time>2024-03-31T12:48:07.998Z</time>
      </trkpt>
      <trkpt lat="51.783140" lon="6.042544">
        <ele>17.975802</ele>
        <time>2024-03-31T12:48:09.998Z</time>
      </trkpt>
      <trkpt lat="51.783214" lon="6.042705">
        <ele>17.868582</ele>
        <time>2024-03-31T12:48:11.997Z</time>
      </trkpt>
      <trkpt lat="51.783282" lon="6.042868">
        <ele>17.763485</ele>
        <time>2024-03-31T12:48:13.997Z</time>
      </trkpt>
      <trkpt lat="51.783343" lon="6.043042">
        <ele>17.656573</ele>
        <time>2024-03-31T12:48:15.997Z</time>
      </trkpt>
      <trkpt lat="51.783419" lon="6.043201">
        <ele>17.549161</ele>
        <time>2024-03-31T12:48:17.997Z</time>
      </trkpt>
      <trkpt lat="51.783477" lon="6.043366">
        <ele>17.623089</ele>
        <time>2024-03-31T12:48:19.997Z</time>
      </trkpt>
      <trkpt lat="51.783547" lon="6.043524">
        <ele>17.762297</ele>
        <time>2024-03-31T12:48:22.000Z</time>
      </trkpt>
      <trkpt lat="51.783624" lon="6.043675">
        <ele>17.902470</ele>
        <time>2024-03-31T12:48:24.000Z</time>
      </trkpt>
      <trkpt lat="51.783680" lon="6.043831">
        <ele>18.031665</ele>
        <time>2024-03-31T12:48:26.000Z</time>
      </trkpt>
      <trkpt lat="51.783745" lon="6.043961">
        <ele>18.151398</ele>
        <time>2024-03-31T12:48:28.000Z</time>
      </trkpt>
      <trkpt lat="51.783808" lon="6.044096">
        <ele>18.272528</ele>
        <time>2024-03-31T12:48:30.000Z</time>
      </trkpt>
      <trkpt lat="51.783850" lon="6.044231">
        <ele>18.380770</ele>
        <time>2024-03-31T12:48:32.000Z</time>
      </trkpt>
      <trkpt lat="51.783920" lon="6.044353">
        <ele>18.499961</ele>
        <time>2024-03-31T12:48:34.000Z</time>
      </trkpt>
      <trkpt lat="51.783983" lon="6.044486">
        <ele>18.619950</ele>
        <time>2024-03-31T12:48:36.000Z</time>
      </trkpt>
      <trkpt lat="51.784057" lon="6.044686">
        <ele>18.786880</ele>
        <time>2024-03-31T12:48:39.000Z</time>
      </trkpt>
      <trkpt lat="51.784126" lon="6.044858">
        <ele>18.933722</ele>
        <time>2024-03-31T12:48:41.000Z</time>
      </trkpt>
      <trkpt lat="51.784203" lon="6.044971">
        <ele>19.054141</ele>
        <time>2024-03-31T12:48:43.000Z</time>
      </trkpt>
      <trkpt lat="51.784256" lon="6.045161">
        <ele>19.203435</ele>
        <time>2024-03-31T12:48:45.000Z</time>
      </trkpt>
      <trkpt lat="51.784331" lon="6.045329">
        <ele>19.351836</ele>
        <time>2024-03-31T12:48:46.999Z</time>
      </trkpt>
      <trkpt lat="51.784389" lon="6.045503">
        <ele>19.493415</ele>
        <time>2024-03-31T12:48:48.999Z</time>
      </trkpt>
      <trkpt lat="51.784471" lon="6.045650">
        <ele>19.572398</ele>
        <time>2024-03-31T12:48:50.999Z</time>
      </trkpt>
      <trkpt lat="51.784537" lon="6.045820">
        <ele>19.414163</ele>
        <time>2024-03-31T12:48:52.999Z</time>
      </trkpt>
      <trkpt lat="51.784604" lon="6.045985">
        <ele>19.258557</ele>
        <time>2024-03-31T12:48:54.999Z</time>
      </trkpt>
      <trkpt lat="51.784669" lon="6.046146">
        <ele>19.106986</ele>
        <time>2024-03-31T12:48:56.999Z</time>
      </trkpt>
      <trkpt lat="51.784731" lon="6.046316">
        <ele>18.951402</ele>
        <time>2024-03-31T12:48:58.999Z</time>
      </trkpt>
      <trkpt lat="51.784797" lon="6.046482">
        <ele>18.795830</ele>
        <time>2024-03-31T12:49:00.999Z</time>
      </trkpt>
      <trkpt lat="51.784864" lon="6.046645">
        <ele>18.641541</ele>
        <time>2024-03-31T12:49:02.999Z</time>
      </trkpt>
      <trkpt lat="51.784930" lon="6.046804">
        <ele>18.490582</ele>
        <time>2024-03-31T12:49:04.999Z</time>
      </trkpt>
      <trkpt lat="51.784997" lon="6.046964">
        <ele>18.338258</ele>
        <time>2024-03-31T12:49:06.999Z</time>
      </trkpt>
      <trkpt lat="51.785064" lon="6.047123">
        <ele>18.186585</ele>
        <time>2024-03-31T12:49:08.999Z</time>
      </trkpt>
      <trkpt lat="51.785131" lon="6.047284">
        <ele>18.033608</ele>
        <time>2024-03-31T12:49:10.999Z</time>
      </trkpt>
      <trkpt lat="51.785197" lon="6.047444">
        <ele>17.881994</ele>
        <time>2024-03-31T12:49:12.999Z</time>
      </trkpt>
      <trkpt lat="51.785263" lon="6.047602">
        <ele>17.731690</ele>
        <time>2024-03-31T12:49:14.999Z</time>
      </trkpt>
      <trkpt lat="51.785331" lon="6.047757">
        <ele>17.581881</ele>
        <time>2024-03-31T12:49:16.999Z</time>
      </trkpt>
      <trkpt lat="51.785397" lon="6.047919">
        <ele>17.428954</ele>
        <time>2024-03-31T12:49:18.999Z</time>
      </trkpt>
      <trkpt lat="51.785462" lon="6.048082">
        <ele>17.329676</ele>
        <time>2024-03-31T12:49:20.999Z</time>
      </trkpt>
      <trkpt lat="51.785534" lon="6.048241">
        <ele>17.399555</ele>
        <time>2024-03-31T12:49:22.999Z</time>
      </trkpt>
      <trkpt lat="51.785601" lon="6.048401">
        <ele>17.468074</ele>
        <time>2024-03-31T12:49:24.999Z</time>
      </trkpt>
      <trkpt lat="51.785667" lon="6.048559">
        <ele>17.535684</ele>
        <time>2024-03-31T12:49:26.999Z</time>
      </trkpt>
      <trkpt lat="51.785737" lon="6.048720">
        <ele>17.605472</ele>
        <time>2024-03-31T12:49:28.999Z</time>
      </trkpt>
      <trkpt lat="51.785806" lon="6.048877">
        <ele>17.673770</ele>
        <time>2024-03-31T12:49:30.999Z</time>
      </trkpt>
      <trkpt lat="51.785878" lon="6.049031">
        <ele>17.742226</ele>
        <time>2024-03-31T12:49:32.998Z</time>
      </trkpt>
      <trkpt lat="51.785938" lon="6.049200">
        <ele>17.811328</ele>
        <time>2024-03-31T12:49:34.998Z</time>
      </trkpt>
      <trkpt lat="51.786010" lon="6.049346">
        <ele>17.877543</ele>
        <time>2024-03-31T12:49:36.998Z</time>
      </trkpt>
      <trkpt lat="51.786073" lon="6.049518">
        <ele>17.948430</ele>
        <time>2024-03-31T12:49:38.998Z</time>
      </trkpt>
      <trkpt lat="51.786140" lon="6.049678">
        <ele>18.016948</ele>
        <time>2024-03-31T12:49:40.998Z</time>
      </trkpt>
      <trkpt lat="51.786208" lon="6.049841">
        <ele>18.086669</ele>
        <time>2024-03-31T12:49:42.998Z</time>
      </trkpt>
      <trkpt lat="51.786273" lon="6.050009">
        <ele>18.156940</ele>
        <time>2024-03-31T12:49:44.998Z</time>
      </trkpt>
      <trkpt lat="51.786341" lon="6.050163">
        <ele>18.224038</ele>
        <time>2024-03-31T12:49:46.998Z</time>
      </trkpt>
      <trkpt lat="51.786402" lon="6.050316">
        <ele>18.288589</ele>
        <time>2024-03-31T12:49:48.998Z</time>
      </trkpt>
      <trkpt lat="51.786473" lon="6.050473">
        <ele>18.353372</ele>
        <time>2024-03-31T12:49:50.998Z</time>
      </trkpt>
      <trkpt lat="51.786535" lon="6.050632">
        <ele>18.399204</ele>
        <time>2024-03-31T12:49:52.998Z</time>
      </trkpt>
      <trkpt lat="51.786598" lon="6.050791">
        <ele>18.445247</ele>
        <time>2024-03-31T12:49:54.998Z</time>
      </trkpt>
      <trkpt lat="51.786657" lon="6.050930">
        <ele>18.486354</ele>
        <time>2024-03-31T12:49:56.998Z</time>
      </trkpt>
      <trkpt lat="51.786717" lon="6.051086">
        <ele>18.531148</ele>
        <time>2024-03-31T12:49:58.998Z</time>
      </trkpt>
      <trkpt lat="51.786803" lon="6.051277">
        <ele>18.588754</ele>
        <time>2024-03-31T12:50:01.998Z</time>
      </trkpt>
      <trkpt lat="51.786857" lon="6.051437">
        <ele>18.633198</ele>
        <time>2024-03-31T12:50:03.998Z</time>
      </trkpt>
      <trkpt lat="51.786928" lon="6.051583">
        <ele>18.678484</ele>
        <time>2024-03-31T12:50:05.998Z</time>
      </trkpt>
      <trkpt lat="51.786991" lon="6.051734">
        <ele>18.722897</ele>
        <time>2024-03-31T12:50:07.998Z</time>
      </trkpt>
      <trkpt lat="51.787054" lon="6.051887">
        <ele>18.767715</ele>
        <time>2024-03-31T12:50:09.998Z</time>
      </trkpt>
      <trkpt lat="51.787117" lon="6.052039">
        <ele>18.812330</ele>
        <time>2024-03-31T12:50:11.998Z</time>
      </trkpt>
      <trkpt lat="51.787181" lon="6.052193">
        <ele>18.857570</ele>
        <time>2024-03-31T12:50:13.998Z</time>
      </trkpt>
      <trkpt lat="51.787247" lon="6.052344">
        <ele>18.902655</ele>
        <time>2024-03-31T12:50:15.998Z</time>
      </trkpt>
      <trkpt lat="51.787316" lon="6.052497">
        <ele>18.948825</ele>
        <time>2024-03-31T12:50:17.997Z</time>
      </trkpt>
      <trkpt lat="51.787382" lon="6.052654">
        <ele>18.995112</ele>
        <time>2024-03-31T12:50:19.997Z</time>
      </trkpt>
      <trkpt lat="51.787447" lon="6.052809">
        <ele>19.040775</ele>
        <time>2024-03-31T12:50:21.997Z</time>
      </trkpt>
      <trkpt lat="51.787512" lon="6.052966">
        <ele>19.141084</ele>
        <time>2024-03-31T12:50:23.997Z</time>
      </trkpt>
      <trkpt lat="51.787581" lon="6.053122">
        <ele>19.263204</ele>
        <time>2024-03-31T12:50:25.997Z</time>
      </trkpt>
      <trkpt lat="51.787652" lon="6.053280">
        <ele>19.387562</ele>
        <time>2024-03-31T12:50:28.000Z</time>
      </trkpt>
      <trkpt lat="51.787718" lon="6.053438">
        <ele>19.508966</ele>
        <time>2024-03-31T12:50:30.000Z</time>
      </trkpt>
      <trkpt lat="51.787786" lon="6.053601">
        <ele>19.634160</ele>
        <time>2024-03-31T12:50:32.000Z</time>
      </trkpt>
      <trkpt lat="51.787849" lon="6.053769">
        <ele>19.759263</ele>
        <time>2024-03-31T12:50:34.000Z</time>
      </trkpt>
      <trkpt lat="51.787916" lon="6.053934">
        <ele>19.884947</ele>
        <time>2024-03-31T12:50:36.000Z</time>
      </trkpt>
      <trkpt lat="51.787985" lon="6.054098">
        <ele>20.011245</ele>
        <time>2024-03-31T12:50:38.000Z</time>
      </trkpt>
      <trkpt lat="51.788051" lon="6.054266">
        <ele>20.137976</ele>
        <time>2024-03-31T12:50:40.000Z</time>
      </trkpt>
      <trkpt lat="51.788125" lon="6.054427">
        <ele>20.265701</ele>
        <time>2024-03-31T12:50:42.000Z</time>
      </trkpt>
      <trkpt lat="51.788194" lon="6.054594">
        <ele>20.393583</ele>
        <time>2024-03-31T12:50:44.000Z</time>
      </trkpt>
      <trkpt lat="51.788262" lon="6.054761">
        <ele>20.520896</ele>
        <time>2024-03-31T12:50:46.000Z</time>
      </trkpt>
      <trkpt lat="51.788331" lon="6.054925">
        <ele>20.647194</ele>
        <time>2024-03-31T12:50:48.000Z</time>
      </trkpt>
      <trkpt lat="51.788398" lon="6.055094">
        <ele>20.775014</ele>
        <time>2024-03-31T12:50:50.000Z</time>
      </trkpt>
      <trkpt lat="51.788469" lon="6.055258">
        <ele>20.902481</ele>
        <time>2024-03-31T12:50:51.999Z</time>
      </trkpt>
      <trkpt lat="51.788538" lon="6.055427">
        <ele>21.087721</ele>
        <time>2024-03-31T12:50:53.999Z</time>
      </trkpt>
      <trkpt lat="51.788609" lon="6.055589">
        <ele>21.270337</ele>
        <time>2024-03-31T12:50:55.999Z</time>
      </trkpt>
      <trkpt lat="51.788683" lon="6.055752">
        <ele>21.456308</ele>
        <time>2024-03-31T12:50:57.999Z</time>
      </trkpt>
      <trkpt lat="51.788754" lon="6.055915">
        <ele>21.639675</ele>
        <time>2024-03-31T12:50:59.999Z</time>
      </trkpt>
      <trkpt lat="51.788823" lon="6.056083">
        <ele>21.825159</ele>
        <time>2024-03-31T12:51:01.999Z</time>
      </trkpt>
      <trkpt lat="51.788896" lon="6.056247">
        <ele>22.011000</ele>
        <time>2024-03-31T12:51:03.999Z</time>
      </trkpt>
      <trkpt lat="51.788968" lon="6.056412">
        <ele>22.196726</ele>
        <time>2024-03-31T12:51:05.999Z</time>
      </trkpt>
      <trkpt lat="51.789038" lon="6.056580">
        <ele>22.383036</ele>
        <time>2024-03-31T12:51:07.999Z</time>
      </trkpt>
      <trkpt lat="51.789108" lon="6.056751">
        <ele>22.571641</ele>
        <time>2024-03-31T12:51:09.999Z</time>
      </trkpt>
      <trkpt lat="51.789171" lon="6.056923">
        <ele>22.755498</ele>
        <time>2024-03-31T12:51:11.999Z</time>
      </trkpt>
      <trkpt lat="51.789234" lon="6.057099">
        <ele>22.942530</ele>
        <time>2024-03-31T12:51:13.999Z</time>
      </trkpt>
      <trkpt lat="51.789305" lon="6.057269">
        <ele>23.131196</ele>
        <time>2024-03-31T12:51:15.999Z</time>
      </trkpt>
      <trkpt lat="51.789372" lon="6.057440">
        <ele>23.317375</ele>
        <time>2024-03-31T12:51:17.999Z</time>
      </trkpt>
      <trkpt lat="51.789444" lon="6.057610">
        <ele>23.506876</ele>
        <time>2024-03-31T12:51:19.999Z</time>
      </trkpt>
      <trkpt lat="51.789512" lon="6.057781">
        <ele>23.576401</ele>
        <time>2024-03-31T12:51:21.999Z</time>
      </trkpt>
      <trkpt lat="51.789584" lon="6.057946">
        <ele>23.571730</ele>
        <time>2024-03-31T12:51:23.999Z</time>
      </trkpt>
      <trkpt lat="51.789658" lon="6.058112">
        <ele>23.566997</ele>
        <time>2024-03-31T12:51:25.999Z</time>
      </trkpt>
      <trkpt lat="51.789723" lon="6.058284">
        <ele>23.562335</ele>
        <time>2024-03-31T12:51:27.999Z</time>
      </trkpt>
      <trkpt lat="51.789793" lon="6.058455">
        <ele>23.557592</ele>
        <time>2024-03-31T12:51:29.999Z</time>
      </trkpt>
      <trkpt lat="51.789864" lon="6.058627">
        <ele>23.552809</ele>
        <time>2024-03-31T12:51:31.999Z</time>
      </trkpt>
      <trkpt lat="51.789940" lon="6.058790">
        <ele>23.548087</ele>
        <time>2024-03-31T12:51:33.999Z</time>
      </trkpt>
      <trkpt lat="51.790010" lon="6.058964">
        <ele>23.543286</ele>
        <time>2024-03-31T12:51:35.998Z</time>
      </trkpt>
      <trkpt lat="51.790077" lon="6.059143">
        <ele>23.538447</ele>
        <time>2024-03-31T12:51:37.998Z</time>
      </trkpt>
      <trkpt lat="51.790147" lon="6.059317">
        <ele>23.533646</ele>
        <time>2024-03-31T12:51:39.998Z</time>
      </trkpt>
      <trkpt lat="51.790220" lon="6.059493">
        <ele>23.528744</ele>
        <time>2024-03-31T12:51:41.998Z</time>
      </trkpt>
      <trkpt lat="51.790296" lon="6.059668">
        <ele>23.523798</ele>
        <time>2024-03-31T12:51:43.998Z</time>
      </trkpt>
      <trkpt lat="51.790372" lon="6.059852">
        <ele>23.518681</ele>
        <time>2024-03-31T12:51:45.998Z</time>
      </trkpt>
      <trkpt lat="51.790450" lon="6.060032">
        <ele>23.513597</ele>
        <time>2024-03-31T12:51:47.998Z</time>
      </trkpt>
      <trkpt lat="51.790529" lon="6.060210">
        <ele>23.453593</ele>
        <time>2024-03-31T12:51:49.998Z</time>
      </trkpt>
      <trkpt lat="51.790600" lon="6.060398">
        <ele>23.368345</ele>
        <time>2024-03-31T12:51:51.998Z</time>
      </trkpt>
      <trkpt lat="51.790680" lon="6.060580">
        <ele>23.281934</ele>
        <time>2024-03-31T12:51:53.998Z</time>
      </trkpt>
      <trkpt lat="51.790759" lon="6.060765">
        <ele>23.194932</ele>
        <time>2024-03-31T12:51:55.998Z</time>
      </trkpt>
      <trkpt lat="51.790837" lon="6.060947">
        <ele>23.109241</ele>
        <time>2024-03-31T12:51:57.998Z</time>
      </trkpt>
      <trkpt lat="51.790912" lon="6.061131">
        <ele>23.023959</ele>
        <time>2024-03-31T12:51:59.998Z</time>
      </trkpt>
      <trkpt lat="51.790990" lon="6.061311">
        <ele>22.938903</ele>
        <time>2024-03-31T12:52:01.998Z</time>
      </trkpt>
      <trkpt lat="51.791074" lon="6.061493">
        <ele>22.851020</ele>
        <time>2024-03-31T12:52:03.998Z</time>
      </trkpt>
      <trkpt lat="51.791151" lon="6.061679">
        <ele>22.764401</ele>
        <time>2024-03-31T12:52:05.998Z</time>
      </trkpt>
      <trkpt lat="51.791231" lon="6.061868">
        <ele>22.675770</ele>
        <time>2024-03-31T12:52:07.998Z</time>
      </trkpt>
      <trkpt lat="51.791307" lon="6.062047">
        <ele>22.591745</ele>
        <time>2024-03-31T12:52:09.998Z</time>
      </trkpt>
      <trkpt lat="51.791378" lon="6.062221">
        <ele>22.511073</ele>
        <time>2024-03-31T12:52:11.998Z</time>
      </trkpt>
      <trkpt lat="51.791450" lon="6.062389">
        <ele>22.431974</ele>
        <time>2024-03-31T12:52:13.998Z</time>
      </trkpt>
      <trkpt lat="51.791521" lon="6.062564">
        <ele>22.394169</ele>
        <time>2024-03-31T12:52:15.998Z</time>
      </trkpt>
      <trkpt lat="51.791596" lon="6.062738">
        <ele>22.411521</ele>
        <time>2024-03-31T12:52:17.998Z</time>
      </trkpt>
      <trkpt lat="51.791671" lon="6.062918">
        <ele>22.429278</ele>
        <time>2024-03-31T12:52:19.997Z</time>
      </trkpt>
      <trkpt lat="51.791751" lon="6.063090">
        <ele>22.446886</ele>
        <time>2024-03-31T12:52:21.997Z</time>
      </trkpt>
      <trkpt lat="51.791818" lon="6.063278">
        <ele>22.464638</ele>
        <time>2024-03-31T12:52:23.997Z</time>
      </trkpt>
      <trkpt lat="51.791893" lon="6.063462">
        <ele>22.482668</ele>
        <time>2024-03-31T12:52:25.997Z</time>
      </trkpt>
      <trkpt lat="51.791973" lon="6.063642">
        <ele>22.500803</ele>
        <time>2024-03-31T12:52:27.997Z</time>
      </trkpt>
      <trkpt lat="51.792048" lon="6.063825">
        <ele>22.518764</ele>
        <time>2024-03-31T12:52:29.997Z</time>
      </trkpt>
      <trkpt lat="51.792125" lon="6.064013">
        <ele>22.537213</ele>
        <time>2024-03-31T12:52:31.997Z</time>
      </trkpt>
      <trkpt lat="51.792198" lon="6.064195">
        <ele>22.554960</ele>
        <time>2024-03-31T12:52:34.000Z</time>
      </trkpt>
      <trkpt lat="51.792264" lon="6.064385">
        <ele>22.572790</ele>
        <time>2024-03-31T12:52:36.000Z</time>
      </trkpt>
      <trkpt lat="51.792328" lon="6.064519">
        <ele>22.586641</ele>
        <time>2024-03-31T12:52:38.000Z</time>
      </trkpt>
      <trkpt lat="51.792394" lon="6.064682">
        <ele>22.602581</ele>
        <time>2024-03-31T12:52:40.000Z</time>
      </trkpt>
      <trkpt lat="51.792463" lon="6.064847">
        <ele>22.618877</ele>
        <time>2024-03-31T12:52:42.000Z</time>
      </trkpt>
      <trkpt lat="51.792535" lon="6.065014">
        <ele>22.507070</ele>
        <time>2024-03-31T12:52:44.000Z</time>
      </trkpt>
      <trkpt lat="51.792609" lon="6.065186">
        <ele>22.323578</ele>
        <time>2024-03-31T12:52:46.000Z</time>
      </trkpt>
      <trkpt lat="51.792676" lon="6.065371">
        <ele>22.135828</ele>
        <time>2024-03-31T12:52:48.000Z</time>
      </trkpt>
      <trkpt lat="51.792754" lon="6.065551">
        <ele>21.943350</ele>
        <time>2024-03-31T12:52:50.000Z</time>
      </trkpt>
      <trkpt lat="51.792827" lon="6.065731">
        <ele>21.754846</ele>
        <time>2024-03-31T12:52:52.000Z</time>
      </trkpt>
      <trkpt lat="51.792904" lon="6.065913">
        <ele>21.561734</ele>
        <time>2024-03-31T12:52:54.000Z</time>
      </trkpt>
      <trkpt lat="51.792981" lon="6.066095">
        <ele>21.368622</ele>
        <time>2024-03-31T12:52:56.000Z</time>
      </trkpt>
      <trkpt lat="51.793061" lon="6.066278">
        <ele>21.172366</ele>
        <time>2024-03-31T12:52:58.000Z</time>
      </trkpt>
      <trkpt lat="51.793137" lon="6.066460">
        <ele>20.980051</ele>
        <time>2024-03-31T12:52:59.999Z</time>
      </trkpt>
      <trkpt lat="51.793218" lon="6.066643">
        <ele>20.782975</ele>
        <time>2024-03-31T12:53:01.999Z</time>
      </trkpt>
      <trkpt lat="51.793292" lon="6.066825">
        <ele>20.592231</ele>
        <time>2024-03-31T12:53:03.999Z</time>
      </trkpt>
      <trkpt lat="51.793374" lon="6.067002">
        <ele>20.398559</ele>
        <time>2024-03-31T12:53:05.999Z</time>
      </trkpt>
      <trkpt lat="51.793444" lon="6.067168">
        <ele>20.222609</ele>
        <time>2024-03-31T12:53:07.999Z</time>
      </trkpt>
      <trkpt lat="51.793500" lon="6.067309">
        <ele>20.077193</ele>
        <time>2024-03-31T12:53:09.999Z</time>
      </trkpt>
      <trkpt lat="51.793506" lon="6.067471">
        <ele>20.033688</ele>
        <time>2024-03-31T12:53:13.999Z</time>
      </trkpt>
      <trkpt lat="51.793414" lon="6.067618">
        <ele>19.977627</ele>
        <time>2024-03-31T12:53:15.999Z</time>
      </trkpt>
      <trkpt lat="51.793364" lon="6.067770">
        <ele>19.931476</ele>
        <time>2024-03-31T12:53:17.999Z</time>
      </trkpt>
      <trkpt lat="51.793304" lon="6.067898">
        <ele>19.888422</ele>
        <time>2024-03-31T12:53:19.999Z</time>
      </trkpt>
      <trkpt lat="51.793247" lon="6.068027">
        <ele>19.845923</ele>
        <time>2024-03-31T12:53:21.999Z</time>
      </trkpt>
      <trkpt lat="51.793216" lon="6.068171">
        <ele>19.805049</ele>
        <time>2024-03-31T12:53:23.999Z</time>
      </trkpt>
      <trkpt lat="51.793166" lon="6.068314">
        <ele>19.761014</ele>
        <time>2024-03-31T12:53:25.999Z</time>
      </trkpt>
      <trkpt lat="51.793052" lon="6.068355">
        <ele>19.710396</ele>
        <time>2024-03-31T12:53:27.999Z</time>
      </trkpt>
      <trkpt lat="51.792944" lon="6.068425">
        <ele>19.659966</ele>
        <time>2024-03-31T12:53:29.999Z</time>
      </trkpt>
      <trkpt lat="51.792845" lon="6.068516">
        <ele>19.610608</ele>
        <time>2024-03-31T12:53:31.999Z</time>
      </trkpt>
      <trkpt lat="51.792755" lon="6.068641">
        <ele>19.559183</ele>
        <time>2024-03-31T12:53:33.999Z</time>
      </trkpt>
      <trkpt lat="51.792676" lon="6.068781">
        <ele>19.508381</ele>
        <time>2024-03-31T12:53:35.999Z</time>
      </trkpt>
      <trkpt lat="51.792602" lon="6.068928">
        <ele>19.457572</ele>
        <time>2024-03-31T12:53:37.999Z</time>
      </trkpt>
      <trkpt lat="51.792524" lon="6.069074">
        <ele>19.405854</ele>
        <time>2024-03-31T12:53:39.999Z</time>
      </trkpt>
      <trkpt lat="51.792457" lon="6.069224">
        <ele>19.356253</ele>
        <time>2024-03-31T12:53:41.999Z</time>
      </trkpt>
      <trkpt lat="51.792389" lon="6.069373">
        <ele>19.306614</ele>
        <time>2024-03-31T12:53:43.999Z</time>
      </trkpt>
      <trkpt lat="51.792320" lon="6.069523">
        <ele>19.333545</ele>
        <time>2024-03-31T12:53:45.998Z</time>
      </trkpt>
      <trkpt lat="51.792236" lon="6.069662">
        <ele>19.377669</ele>
        <time>2024-03-31T12:53:47.998Z</time>
      </trkpt>
      <trkpt lat="51.792175" lon="6.069792">
        <ele>19.414720</ele>
        <time>2024-03-31T12:53:49.998Z</time>
      </trkpt>
      <trkpt lat="51.792071" lon="6.069852">
        <ele>19.455256</ele>
        <time>2024-03-31T12:53:52.998Z</time>
      </trkpt>
      <trkpt lat="51.791976" lon="6.069759">
        <ele>19.496025</ele>
        <time>2024-03-31T12:53:55.998Z</time>
      </trkpt>
      <trkpt lat="51.791880" lon="6.069778">
        <ele>19.531530</ele>
        <time>2024-03-31T12:54:05.998Z</time>
      </trkpt>
      <trkpt lat="51.791809" lon="6.069884">
        <ele>19.567007</ele>
        <time>2024-03-31T12:54:09.998Z</time>
      </trkpt>
      <trkpt lat="51.791799" lon="6.070032">
        <ele>19.600811</ele>
        <time>2024-03-31T12:54:11.998Z</time>
      </trkpt>
      <trkpt lat="51.791791" lon="6.070178">
        <ele>19.634092</ele>
        <time>2024-03-31T12:54:13.998Z</time>
      </trkpt>
      <trkpt lat="51.791736" lon="6.070310">
        <ele>19.670230</ele>
        <time>2024-03-31T12:54:15.998Z</time>
      </trkpt>
      <trkpt lat="51.791662" lon="6.070438">
        <ele>19.710012</ele>
        <time>2024-03-31T12:54:17.998Z</time>
      </trkpt>
      <trkpt lat="51.791590" lon="6.070576">
        <ele>19.751005</ele>
        <time>2024-03-31T12:54:19.998Z</time>
      </trkpt>
      <trkpt lat="51.791511" lon="6.070712">
        <ele>19.793368</ele>
        <time>2024-03-31T12:54:21.998Z</time>
      </trkpt>
      <trkpt lat="51.791427" lon="6.070847">
        <ele>19.836848</ele>
        <time>2024-03-31T12:54:23.998Z</time>
      </trkpt>
      <trkpt lat="51.791344" lon="6.070974">
        <ele>19.878800</ele>
        <time>2024-03-31T12:54:25.998Z</time>
      </trkpt>
      <trkpt lat="51.791264" lon="6.071108">
        <ele>19.921087</ele>
        <time>2024-03-31T12:54:27.998Z</time>
      </trkpt>
      <trkpt lat="51.791186" lon="6.071236">
        <ele>19.974737</ele>
        <time>2024-03-31T12:54:29.998Z</time>
      </trkpt>
      <trkpt lat="51.791105" lon="6.071359">
        <ele>20.170083</ele>
        <time>2024-03-31T12:54:31.997Z</time>
      </trkpt>
      <trkpt lat="51.791023" lon="6.071492">
        <ele>20.374266</ele>
        <time>2024-03-31T12:54:33.997Z</time>
      </trkpt>
      <trkpt lat="51.790944" lon="6.071626">
        <ele>20.575546</ele>
        <time>2024-03-31T12:54:35.997Z</time>
      </trkpt>
      <trkpt lat="51.790866" lon="6.071762">
        <ele>20.777206</ele>
        <time>2024-03-31T12:54:37.997Z</time>
      </trkpt>
      <trkpt lat="51.790795" lon="6.071902">
        <ele>20.974054</ele>
        <time>2024-03-31T12:54:40.000Z</time>
      </trkpt>
      <trkpt lat="51.790715" lon="6.072028">
        <ele>21.170386</ele>
        <time>2024-03-31T12:54:42.000Z</time>
      </trkpt>
      <trkpt lat="51.790629" lon="6.072149">
        <ele>21.370796</ele>
        <time>2024-03-31T12:54:44.000Z</time>
      </trkpt>
      <trkpt lat="51.790538" lon="6.072255">
        <ele>21.567958</ele>
        <time>2024-03-31T12:54:46.000Z</time>
      </trkpt>
      <trkpt lat="51.790447" lon="6.072376">
        <ele>21.775079</ele>
        <time>2024-03-31T12:54:48.000Z</time>
      </trkpt>
      <trkpt lat="51.790354" lon="6.072491">
        <ele>21.980899</ele>
        <time>2024-03-31T12:54:50.000Z</time>
      </trkpt>
      <trkpt lat="51.790265" lon="6.072609">
        <ele>22.183232</ele>
        <time>2024-03-31T12:54:52.000Z</time>
      </trkpt>
      <trkpt lat="51.790178" lon="6.072717">
        <ele>22.376052</ele>
        <time>2024-03-31T12:54:54.000Z</time>
      </trkpt>
      <trkpt lat="51.790084" lon="6.072810">
        <ele>22.569778</ele>
        <time>2024-03-31T12:54:56.000Z</time>
      </trkpt>
      <trkpt lat="51.790001" lon="6.072916">
        <ele>22.755714</ele>
        <time>2024-03-31T12:54:58.000Z</time>
      </trkpt>
      <trkpt lat="51.789924" lon="6.073032">
        <ele>22.940728</ele>
        <time>2024-03-31T12:55:00.000Z</time>
      </trkpt>
      <trkpt lat="51.789839" lon="6.073153">
        <ele>23.133035</ele>
        <time>2024-03-31T12:55:02.000Z</time>
      </trkpt>
      <trkpt lat="51.789764" lon="6.073268">
        <ele>23.251640</ele>
        <time>2024-03-31T12:55:04.000Z</time>
      </trkpt>
      <trkpt lat="51.789688" lon="6.073387">
        <ele>23.373038</ele>
        <time>2024-03-31T12:55:05.999Z</time>
      </trkpt>
      <trkpt lat="51.789606" lon="6.073500">
        <ele>23.496668</ele>
        <time>2024-03-31T12:55:07.999Z</time>
      </trkpt>
      <trkpt lat="51.789525" lon="6.073622">
        <ele>23.623692</ele>
        <time>2024-03-31T12:55:09.999Z</time>
      </trkpt>
      <trkpt lat="51.789464" lon="6.073753">
        <ele>23.740067</ele>
        <time>2024-03-31T12:55:11.999Z</time>
      </trkpt>
      <trkpt lat="51.789406" lon="6.073885">
        <ele>23.854983</ele>
        <time>2024-03-31T12:55:13.999Z</time>
      </trkpt>
      <trkpt lat="51.789353" lon="6.074036">
        <ele>23.978204</ele>
        <time>2024-03-31T12:55:15.999Z</time>
      </trkpt>
      <trkpt lat="51.789312" lon="6.074192">
        <ele>24.098503</ele>
        <time>2024-03-31T12:55:17.999Z</time>
      </trkpt>
      <trkpt lat="51.789286" lon="6.074338">
        <ele>24.206333</ele>
        <time>2024-03-31T12:55:19.999Z</time>
      </trkpt>
      <trkpt lat="51.789217" lon="6.074490">
        <ele>24.340146</ele>
        <time>2024-03-31T12:55:22.999Z</time>
      </trkpt>
      <trkpt lat="51.789142" lon="6.074601">
        <ele>24.456817</ele>
        <time>2024-03-31T12:55:25.999Z</time>
      </trkpt>
      <trkpt lat="51.789102" lon="6.074791">
        <ele>24.599263</ele>
        <time>2024-03-31T12:55:28.999Z</time>
      </trkpt>
      <trkpt lat="51.789056" lon="6.074919">
        <ele>24.704329</ele>
        <time>2024-03-31T12:55:30.999Z</time>
      </trkpt>
      <trkpt lat="51.789013" lon="6.075068">
        <ele>24.821024</ele>
        <time>2024-03-31T12:55:32.999Z</time>
      </trkpt>
      <trkpt lat="51.788976" lon="6.075222">
        <ele>24.938279</ele>
        <time>2024-03-31T12:55:34.999Z</time>
      </trkpt>
      <trkpt lat="51.788935" lon="6.075377">
        <ele>25.057925</ele>
        <time>2024-03-31T12:55:36.999Z</time>
      </trkpt>
      <trkpt lat="51.788893" lon="6.075533">
        <ele>25.178678</ele>
        <time>2024-03-31T12:55:38.999Z</time>
      </trkpt>
      <trkpt lat="51.788853" lon="6.075675">
        <ele>25.355357</ele>
        <time>2024-03-31T12:55:40.999Z</time>
      </trkpt>
      <trkpt lat="51.788800" lon="6.075817">
        <ele>25.546737</ele>
        <time>2024-03-31T12:55:42.999Z</time>
      </trkpt>
      <trkpt lat="51.788751" lon="6.075961">
        <ele>25.736389</ele>
        <time>2024-03-31T12:55:44.999Z</time>
      </trkpt>
      <trkpt lat="51.788701" lon="6.076096">
        <ele>25.917963</ele>
        <time>2024-03-31T12:55:46.999Z</time>
      </trkpt>
      <trkpt lat="51.788653" lon="6.076242">
        <ele>26.108758</ele>
        <time>2024-03-31T12:55:48.999Z</time>
      </trkpt>
      <trkpt lat="51.788602" lon="6.076391">
        <ele>26.305265</ele>
        <time>2024-03-31T12:55:50.999Z</time>
      </trkpt>
      <trkpt lat="51.788549" lon="6.076538">
        <ele>26.501609</ele>
        <time>2024-03-31T12:55:52.998Z</time>
      </trkpt>
      <trkpt lat="51.788504" lon="6.076677">
        <ele>26.682649</ele>
        <time>2024-03-31T12:55:54.998Z</time>
      </trkpt>
      <trkpt lat="51.788454" lon="6.076821">
        <ele>26.873208</ele>
        <time>2024-03-31T12:55:56.998Z</time>
      </trkpt>
      <trkpt lat="51.788406" lon="6.076963">
        <ele>27.059941</ele>
        <time>2024-03-31T12:55:58.998Z</time>
      </trkpt>
      <trkpt lat="51.788356" lon="6.077102">
        <ele>27.245491</ele>
        <time>2024-03-31T12:56:00.998Z</time>
      </trkpt>
      <trkpt lat="51.788304" lon="6.077245">
        <ele>27.436909</ele>
        <time>2024-03-31T12:56:02.998Z</time>
      </trkpt>
      <trkpt lat="51.788256" lon="6.077392">
        <ele>27.628726</ele>
        <time>2024-03-31T12:56:04.998Z</time>
      </trkpt>
      <trkpt lat="51.788198" lon="6.077528">
        <ele>27.819349</ele>
        <time>2024-03-31T12:56:06.998Z</time>
      </trkpt>
      <trkpt lat="51.788142" lon="6.077669">
        <ele>28.012709</ele>
        <time>2024-03-31T12:56:08.998Z</time>
      </trkpt>
      <trkpt lat="51.788088" lon="6.077809">
        <ele>28.203099</ele>
        <time>2024-03-31T12:56:10.998Z</time>
      </trkpt>
      <trkpt lat="51.788028" lon="6.077941">
        <ele>28.392127</ele>
        <time>2024-03-31T12:56:12.998Z</time>
      </trkpt>
      <trkpt lat="51.787968" lon="6.078077">
        <ele>28.613348</ele>
        <time>2024-03-31T12:56:14.998Z</time>
      </trkpt>
      <trkpt lat="51.787929" lon="6.078237">
        <ele>28.936187</ele>
        <time>2024-03-31T12:56:16.998Z</time>
      </trkpt>
      <trkpt lat="51.787884" lon="6.078386">
        <ele>29.247458</ele>
        <time>2024-03-31T12:56:18.998Z</time>
      </trkpt>
      <trkpt lat="51.787832" lon="6.078530">
        <ele>29.560475</ele>
        <time>2024-03-31T12:56:20.998Z</time>
      </trkpt>
      <trkpt lat="51.787783" lon="6.078675">
        <ele>29.870650</ele>
        <time>2024-03-31T12:56:22.998Z</time>
      </trkpt>
      <trkpt lat="51.787735" lon="6.078832">
        <ele>30.199415</ele>
        <time>2024-03-31T12:56:24.998Z</time>
      </trkpt>
      <trkpt lat="51.787695" lon="6.078978">
        <ele>30.499176</ele>
        <time>2024-03-31T12:56:26.998Z</time>
      </trkpt>
      <trkpt lat="51.787654" lon="6.079122">
        <ele>30.796764</ele>
        <time>2024-03-31T12:56:28.998Z</time>
      </trkpt>
      <trkpt lat="51.787608" lon="6.079279">
        <ele>31.122886</ele>
        <time>2024-03-31T12:56:30.998Z</time>
      </trkpt>
      <trkpt lat="51.787549" lon="6.079422">
        <ele>31.445571</ele>
        <time>2024-03-31T12:56:32.998Z</time>
      </trkpt>
      <trkpt lat="51.787507" lon="6.079577">
        <ele>31.763242</ele>
        <time>2024-03-31T12:56:34.998Z</time>
      </trkpt>
      <trkpt lat="51.787454" lon="6.079704">
        <ele>32.050840</ele>
        <time>2024-03-31T12:56:36.998Z</time>
      </trkpt>
      <trkpt lat="51.787406" lon="6.079836">
        <ele>32.338286</ele>
        <time>2024-03-31T12:56:38.997Z</time>
      </trkpt>
      <trkpt lat="51.787318" lon="6.079935">
        <ele>32.663653</ele>
        <time>2024-03-31T12:56:40.997Z</time>
      </trkpt>
      <trkpt lat="51.787227" lon="6.079955">
        <ele>32.942362</ele>
        <time>2024-03-31T12:56:42.997Z</time>
      </trkpt>
      <trkpt lat="51.787143" lon="6.079891">
        <ele>33.224181</ele>
        <time>2024-03-31T12:56:44.997Z</time>
      </trkpt>
      <trkpt lat="51.787114" lon="6.079727">
        <ele>33.544389</ele>
        <time>2024-03-31T12:56:47.000Z</time>
      </trkpt>
      <trkpt lat="51.787089" lon="6.079561">
        <ele>33.865123</ele>
        <time>2024-03-31T12:56:49.000Z</time>
      </trkpt>
      <trkpt lat="51.787065" lon="6.079396">
        <ele>34.235096</ele>
        <time>2024-03-31T12:56:51.000Z</time>
      </trkpt>
      <trkpt lat="51.787047" lon="6.079242">
        <ele>34.611530</ele>
        <time>2024-03-31T12:56:53.000Z</time>
      </trkpt>
      <trkpt lat="51.787014" lon="6.079093">
        <ele>34.991656</ele>
        <time>2024-03-31T12:56:55.000Z</time>
      </trkpt>
      <trkpt lat="51.786933" lon="6.078942">
        <ele>35.471714</ele>
        <time>2024-03-31T12:56:58.000Z</time>
      </trkpt>
      <trkpt lat="51.786810" lon="6.078894">
        <ele>35.963022</ele>
        <time>2024-03-31T12:57:01.000Z</time>
      </trkpt>
      <trkpt lat="51.786708" lon="6.078931">
        <ele>36.368921</ele>
        <time>2024-03-31T12:57:04.000Z</time>
      </trkpt>
      <trkpt lat="51.786608" lon="6.078948">
        <ele>36.759346</ele>
        <time>2024-03-31T12:57:07.000Z</time>
      </trkpt>
      <trkpt lat="51.786512" lon="6.078988">
        <ele>37.144282</ele>
        <time>2024-03-31T12:57:09.000Z</time>
      </trkpt>
      <trkpt lat="51.786421" lon="6.078973">
        <ele>37.499452</ele>
        <time>2024-03-31T12:57:12.000Z</time>
      </trkpt>
      <trkpt lat="51.786318" lon="6.079029">
        <ele>37.921398</ele>
        <time>2024-03-31T12:57:15.000Z</time>
      </trkpt>
      <trkpt lat="51.786212" lon="6.079063">
        <ele>38.341003</ele>
        <time>2024-03-31T12:57:17.999Z</time>
      </trkpt>
      <trkpt lat="51.786088" lon="6.079065">
        <ele>38.822500</ele>
        <time>2024-03-31T12:57:21.999Z</time>
      </trkpt>
      <trkpt lat="51.785983" lon="6.079057">
        <ele>39.230651</ele>
        <time>2024-03-31T12:57:24.999Z</time>
      </trkpt>
      <trkpt lat="51.785873" lon="6.079093">
        <ele>39.666429</ele>
        <time>2024-03-31T12:57:27.999Z</time>
      </trkpt>
      <trkpt lat="51.785758" lon="6.079131">
        <ele>40.122189</ele>
        <time>2024-03-31T12:57:30.999Z</time>
      </trkpt>
      <trkpt lat="51.785636" lon="6.079169">
        <ele>40.604609</ele>
        <time>2024-03-31T12:57:33.999Z</time>
      </trkpt>
      <trkpt lat="51.785513" lon="6.079253">
        <ele>40.942205</ele>
        <time>2024-03-31T12:57:36.999Z</time>
      </trkpt>
      <trkpt lat="51.785423" lon="6.079356">
        <ele>40.821813</ele>
        <time>2024-03-31T12:57:38.999Z</time>
      </trkpt>
      <trkpt lat="51.785335" lon="6.079435">
        <ele>40.711916</ele>
        <time>2024-03-31T12:57:41.999Z</time>
      </trkpt>
      <trkpt lat="51.785227" lon="6.079527">
        <ele>40.578635</ele>
        <time>2024-03-31T12:57:44.999Z</time>
      </trkpt>
      <trkpt lat="51.785138" lon="6.079605">
        <ele>40.468105</ele>
        <time>2024-03-31T12:57:46.999Z</time>
      </trkpt>
      <trkpt lat="51.785034" lon="6.079769">
        <ele>40.309484</ele>
        <time>2024-03-31T12:57:49.999Z</time>
      </trkpt>
      <trkpt lat="51.784973" lon="6.079948">
        <ele>40.171459</ele>
        <time>2024-03-31T12:57:52.999Z</time>
      </trkpt>
      <trkpt lat="51.784906" lon="6.080154">
        <ele>40.014272</ele>
        <time>2024-03-31T12:57:55.999Z</time>
      </trkpt>
      <trkpt lat="51.784819" lon="6.080337">
        <ele>39.858394</ele>
        <time>2024-03-31T12:57:57.999Z</time>
      </trkpt>
      <trkpt lat="51.784723" lon="6.080510">
        <ele>39.701431</ele>
        <time>2024-03-31T12:57:59.999Z</time>
      </trkpt>
      <trkpt lat="51.784600" lon="6.080603">
        <ele>39.553179</ele>
        <time>2024-03-31T12:58:01.999Z</time>
      </trkpt>
      <trkpt lat="51.784481" lon="6.080593">
        <ele>39.423082</ele>
        <time>2024-03-31T12:58:03.998Z</time>
      </trkpt>
      <trkpt lat="51.784369" lon="6.080612">
        <ele>39.300132</ele>
        <time>2024-03-31T12:58:05.998Z</time>
      </trkpt>
      <trkpt lat="51.784264" lon="6.080625">
        <ele>39.185160</ele>
        <time>2024-03-31T12:58:07.998Z</time>
      </trkpt>
      <trkpt lat="51.784116" lon="6.080695">
        <ele>39.020173</ele>
        <time>2024-03-31T12:58:10.998Z</time>
      </trkpt>
      <trkpt lat="51.784087" lon="6.080848">
        <ele>39.175186</ele>
        <time>2024-03-31T12:58:12.998Z</time>
      </trkpt>
      <trkpt lat="51.784112" lon="6.081011">
        <ele>39.337866</ele>
        <time>2024-03-31T12:58:14.998Z</time>
      </trkpt>
      <trkpt lat="51.784101" lon="6.081198">
        <ele>39.519831</ele>
        <time>2024-03-31T12:58:16.998Z</time>
      </trkpt>
      <trkpt lat="51.784059" lon="6.081349">
        <ele>39.680212</ele>
        <time>2024-03-31T12:58:18.998Z</time>
      </trkpt>
      <trkpt lat="51.784024" lon="6.081504">
        <ele>39.840051</ele>
        <time>2024-03-31T12:58:20.998Z</time>
      </trkpt>
      <trkpt lat="51.783987" lon="6.081660">
        <ele>40.001896</ele>
        <time>2024-03-31T12:58:22.998Z</time>
      </trkpt>
      <trkpt lat="51.783964" lon="6.081857">
        <ele>40.196101</ele>
        <time>2024-03-31T12:58:24.998Z</time>
      </trkpt>
      <trkpt lat="51.783943" lon="6.082041">
        <ele>40.377352</ele>
        <time>2024-03-31T12:58:26.998Z</time>
      </trkpt>
      <trkpt lat="51.783935" lon="6.082198">
        <ele>40.529955</ele>
        <time>2024-03-31T12:58:28.998Z</time>
      </trkpt>
      <trkpt lat="51.783898" lon="6.082380">
        <ele>40.715537</ele>
        <time>2024-03-31T12:58:30.998Z</time>
      </trkpt>
      <trkpt lat="51.783891" lon="6.082547">
        <ele>40.877683</ele>
        <time>2024-03-31T12:58:32.998Z</time>
      </trkpt>
      <trkpt lat="51.783873" lon="6.082712">
        <ele>41.039986</ele>
        <time>2024-03-31T12:58:34.998Z</time>
      </trkpt>
      <trkpt lat="51.783857" lon="6.082916">
        <ele>41.239186</ele>
        <time>2024-03-31T12:58:37.998Z</time>
      </trkpt>
      <trkpt lat="51.783825" lon="6.083063">
        <ele>41.390146</ele>
        <time>2024-03-31T12:58:39.998Z</time>
      </trkpt>
      <trkpt lat="51.783740" lon="6.083184">
        <ele>41.567502</ele>
        <time>2024-03-31T12:58:41.998Z</time>
      </trkpt>
      <trkpt lat="51.783649" lon="6.083282">
        <ele>41.738727</ele>
        <time>2024-03-31T12:58:43.998Z</time>
      </trkpt>
      <trkpt lat="51.783543" lon="6.083430">
        <ele>42.074875</ele>
        <time>2024-03-31T12:58:46.998Z</time>
      </trkpt>
      <trkpt lat="51.783449" lon="6.083478">
        <ele>42.375402</ele>
        <time>2024-03-31T12:58:48.997Z</time>
      </trkpt>
      <trkpt lat="51.783350" lon="6.083438">
        <ele>42.686499</ele>
        <time>2024-03-31T12:58:50.997Z</time>
      </trkpt>
      <trkpt lat="51.783258" lon="6.083367">
        <ele>42.997295</ele>
        <time>2024-03-31T12:58:53.000Z</time>
      </trkpt>
      <trkpt lat="51.783173" lon="6.083306">
        <ele>43.280816</ele>
        <time>2024-03-31T12:58:55.000Z</time>
      </trkpt>
      <trkpt lat="51.783053" lon="6.083246">
        <ele>43.663749</ele>
        <time>2024-03-31T12:58:58.000Z</time>
      </trkpt>
      <trkpt lat="51.782949" lon="6.083198">
        <ele>43.993474</ele>
        <time>2024-03-31T12:59:00.000Z</time>
      </trkpt>
      <trkpt lat="51.782820" lon="6.083143">
        <ele>44.400193</ele>
        <time>2024-03-31T12:59:03.000Z</time>
      </trkpt>
      <trkpt lat="51.782729" lon="6.083096">
        <ele>44.691433</ele>
        <time>2024-03-31T12:59:05.000Z</time>
      </trkpt>
      <trkpt lat="51.782637" lon="6.083054">
        <ele>44.982875</ele>
        <time>2024-03-31T12:59:07.000Z</time>
      </trkpt>
      <trkpt lat="51.782561" lon="6.082975">
        <ele>45.258341</ele>
        <time>2024-03-31T12:59:09.000Z</time>
      </trkpt>
      <trkpt lat="51.782476" lon="6.082907">
        <ele>45.547471</ele>
        <time>2024-03-31T12:59:11.000Z</time>
      </trkpt>
      <trkpt lat="51.782386" lon="6.082842">
        <ele>45.847987</ele>
        <time>2024-03-31T12:59:13.000Z</time>
      </trkpt>
      <trkpt lat="51.782293" lon="6.082774">
        <ele>46.159164</ele>
        <time>2024-03-31T12:59:15.000Z</time>
      </trkpt>
      <trkpt lat="51.782176" lon="6.082654">
        <ele>46.581594</ele>
        <time>2024-03-31T12:59:18.000Z</time>
      </trkpt>
      <trkpt lat="51.782064" lon="6.082554">
        <ele>46.971663</ele>
        <time>2024-03-31T12:59:20.999Z</time>
      </trkpt>
      <trkpt lat="51.781980" lon="6.082485">
        <ele>47.258915</ele>
        <time>2024-03-31T12:59:22.999Z</time>
      </trkpt>
      <trkpt lat="51.781893" lon="6.082441">
        <ele>47.631139</ele>
        <time>2024-03-31T12:59:24.999Z</time>
      </trkpt>
      <trkpt lat="51.781778" lon="6.082381">
        <ele>48.158347</ele>
        <time>2024-03-31T12:59:27.999Z</time>
      </trkpt>
      <trkpt lat="51.781631" lon="6.082323">
        <ele>48.818504</ele>
        <time>2024-03-31T12:59:30.999Z</time>
      </trkpt>
      <trkpt lat="51.781572" lon="6.082212">
        <ele>49.213491</ele>
        <time>2024-03-31T12:59:32.999Z</time>
      </trkpt>
      <trkpt lat="51.781456" lon="6.082136">
        <ele>49.759565</ele>
        <time>2024-03-31T12:59:35.999Z</time>
      </trkpt>
      <trkpt lat="51.781375" lon="6.082071">
        <ele>50.154103</ele>
        <time>2024-03-31T12:59:37.999Z</time>
      </trkpt>
      <trkpt lat="51.781276" lon="6.081969">
        <ele>50.666298</ele>
        <time>2024-03-31T12:59:40.999Z</time>
      </trkpt>
      <trkpt lat="51.781184" lon="6.081917">
        <ele>51.091505</ele>
        <time>2024-03-31T12:59:42.999Z</time>
      </trkpt>
      <trkpt lat="51.781051" lon="6.081873">
        <ele>51.683783</ele>
        <time>2024-03-31T12:59:45.999Z</time>
      </trkpt>
      <trkpt lat="51.780945" lon="6.081824">
        <ele>52.164777</ele>
        <time>2024-03-31T12:59:48.999Z</time>
      </trkpt>
      <trkpt lat="51.780852" lon="6.081795">
        <ele>52.577996</ele>
        <time>2024-03-31T12:59:50.999Z</time>
      </trkpt>
      <trkpt lat="51.780750" lon="6.081736">
        <ele>53.050634</ele>
        <time>2024-03-31T12:59:53.999Z</time>
      </trkpt>
      <trkpt lat="51.780650" lon="6.081663">
        <ele>53.529342</ele>
        <time>2024-03-31T12:59:56.999Z</time>
      </trkpt>
      <trkpt lat="51.780568" lon="6.081571">
        <ele>53.964826</ele>
        <time>2024-03-31T12:59:58.999Z</time>
      </trkpt>
      <trkpt lat="51.780486" lon="6.081507">
        <ele>54.362096</ele>
        <time>2024-03-31T13:00:00.999Z</time>
      </trkpt>
      <trkpt lat="51.780366" lon="6.081426">
        <ele>54.929446</ele>
        <time>2024-03-31T13:00:03.999Z</time>
      </trkpt>
      <trkpt lat="51.780267" lon="6.081383">
        <ele>55.115231</ele>
        <time>2024-03-31T13:00:05.998Z</time>
      </trkpt>
      <trkpt lat="51.780176" lon="6.081333">
        <ele>55.016408</ele>
        <time>2024-03-31T13:00:07.998Z</time>
      </trkpt>
      <trkpt lat="51.780078" lon="6.081286">
        <ele>54.911305</ele>
        <time>2024-03-31T13:00:09.998Z</time>
      </trkpt>
      <trkpt lat="51.779984" lon="6.081227">
        <ele>54.807625</ele>
        <time>2024-03-31T13:00:11.998Z</time>
      </trkpt>
      <trkpt lat="51.779873" lon="6.081183">
        <ele>54.690115</ele>
        <time>2024-03-31T13:00:13.998Z</time>
      </trkpt>
      <trkpt lat="51.779768" lon="6.081136">
        <ele>54.578093</ele>
        <time>2024-03-31T13:00:15.998Z</time>
      </trkpt>
      <trkpt lat="51.779680" lon="6.081088">
        <ele>54.482600</ele>
        <time>2024-03-31T13:00:17.998Z</time>
      </trkpt>
      <trkpt lat="51.779593" lon="6.081040">
        <ele>54.388081</ele>
        <time>2024-03-31T13:00:19.998Z</time>
      </trkpt>
      <trkpt lat="51.779507" lon="6.080982">
        <ele>54.292269</ele>
        <time>2024-03-31T13:00:21.998Z</time>
      </trkpt>
      <trkpt lat="51.779408" lon="6.080933">
        <ele>54.185814</ele>
        <time>2024-03-31T13:00:23.998Z</time>
      </trkpt>
      <trkpt lat="51.779321" lon="6.080870">
        <ele>54.087796</ele>
        <time>2024-03-31T13:00:25.998Z</time>
      </trkpt>
      <trkpt lat="51.779236" lon="6.080808">
        <ele>53.991913</ele>
        <time>2024-03-31T13:00:27.998Z</time>
      </trkpt>
      <trkpt lat="51.779156" lon="6.080727">
        <ele>53.894853</ele>
        <time>2024-03-31T13:00:29.998Z</time>
      </trkpt>
      <trkpt lat="51.779060" lon="6.080652">
        <ele>53.785222</ele>
        <time>2024-03-31T13:00:31.998Z</time>
      </trkpt>
      <trkpt lat="51.778957" lon="6.080581">
        <ele>53.670091</ele>
        <time>2024-03-31T13:00:33.998Z</time>
      </trkpt>
      <trkpt lat="51.778856" lon="6.080497">
        <ele>53.553304</ele>
        <time>2024-03-31T13:00:35.998Z</time>
      </trkpt>
      <trkpt lat="51.778757" lon="6.080419">
        <ele>53.440065</ele>
        <time>2024-03-31T13:00:37.998Z</time>
      </trkpt>
      <trkpt lat="51.778658" lon="6.080338">
        <ele>53.325977</ele>
        <time>2024-03-31T13:00:39.998Z</time>
      </trkpt>
      <trkpt lat="51.778560" lon="6.080272">
        <ele>53.165878</ele>
        <time>2024-03-31T13:00:41.998Z</time>
      </trkpt>
      <trkpt lat="51.778456" lon="6.080212">
        <ele>52.993892</ele>
        <time>2024-03-31T13:00:43.998Z</time>
      </trkpt>
      <trkpt lat="51.778361" lon="6.080138">
        <ele>52.829647</ele>
        <time>2024-03-31T13:00:45.998Z</time>
      </trkpt>
      <trkpt lat="51.778251" lon="6.080070">
        <ele>52.646222</ele>
        <time>2024-03-31T13:00:47.998Z</time>
      </trkpt>
      <trkpt lat="51.778149" lon="6.080013">
        <ele>52.478133</ele>
        <time>2024-03-31T13:00:49.998Z</time>
      </trkpt>
      <trkpt lat="51.778037" lon="6.079935">
        <ele>52.288192</ele>
        <time>2024-03-31T13:00:51.997Z</time>
      </trkpt>
      <trkpt lat="51.777921" lon="6.079872">
        <ele>52.097599</ele>
        <time>2024-03-31T13:00:53.997Z</time>
      </trkpt>
      <trkpt lat="51.777812" lon="6.079792">
        <ele>51.911151</ele>
        <time>2024-03-31T13:00:55.997Z</time>
      </trkpt>
      <trkpt lat="51.777710" lon="6.079734">
        <ele>51.742745</ele>
        <time>2024-03-31T13:00:58.000Z</time>
      </trkpt>
      <trkpt lat="51.777594" lon="6.079664">
        <ele>51.549897</ele>
        <time>2024-03-31T13:01:00.000Z</time>
      </trkpt>
      <trkpt lat="51.777466" lon="6.079607">
        <ele>51.343113</ele>
        <time>2024-03-31T13:01:02.000Z</time>
      </trkpt>
      <trkpt lat="51.777351" lon="6.079554">
        <ele>51.156864</ele>
        <time>2024-03-31T13:01:04.000Z</time>
      </trkpt>
      <trkpt lat="51.777240" lon="6.079468">
        <ele>50.965148</ele>
        <time>2024-03-31T13:01:06.000Z</time>
      </trkpt>
      <trkpt lat="51.777140" lon="6.079404">
        <ele>50.797636</ele>
        <time>2024-03-31T13:01:08.000Z</time>
      </trkpt>
      <trkpt lat="51.777043" lon="6.079338">
        <ele>50.633719</ele>
        <time>2024-03-31T13:01:10.000Z</time>
      </trkpt>
      <trkpt lat="51.776952" lon="6.079244">
        <ele>50.384471</ele>
        <time>2024-03-31T13:01:12.000Z</time>
      </trkpt>
      <trkpt lat="51.776852" lon="6.079168">
        <ele>49.927276</ele>
        <time>2024-03-31T13:01:14.000Z</time>
      </trkpt>
      <trkpt lat="51.776748" lon="6.079059">
        <ele>49.414439</ele>
        <time>2024-03-31T13:01:16.000Z</time>
      </trkpt>
      <trkpt lat="51.776641" lon="6.078961">
        <ele>48.905601</ele>
        <time>2024-03-31T13:01:18.000Z</time>
      </trkpt>
      <trkpt lat="51.776534" lon="6.078891">
        <ele>48.428012</ele>
        <time>2024-03-31T13:01:20.000Z</time>
      </trkpt>
      <trkpt lat="51.776402" lon="6.078827">
        <ele>47.857836</ele>
        <time>2024-03-31T13:01:22.000Z</time>
      </trkpt>
      <trkpt lat="51.776251" lon="6.078728">
        <ele>47.183648</ele>
        <time>2024-03-31T13:01:24.000Z</time>
      </trkpt>
      <trkpt lat="51.776096" lon="6.078632">
        <ele>46.496882</ele>
        <time>2024-03-31T13:01:25.999Z</time>
      </trkpt>
      <trkpt lat="51.775940" lon="6.078531">
        <ele>45.801593</ele>
        <time>2024-03-31T13:01:27.999Z</time>
      </trkpt>
      <trkpt lat="51.775855" lon="6.078460">
        <ele>45.405725</ele>
        <time>2024-03-31T13:01:28.999Z</time>
      </trkpt>
      <trkpt lat="51.775705" lon="6.078344">
        <ele>44.717735</ele>
        <time>2024-03-31T13:01:30.999Z</time>
      </trkpt>
      <trkpt lat="51.775544" lon="6.078243">
        <ele>44.003201</ele>
        <time>2024-03-31T13:01:32.999Z</time>
      </trkpt>
      <trkpt lat="51.775392" lon="6.078172">
        <ele>43.348583</ele>
        <time>2024-03-31T13:01:34.999Z</time>
      </trkpt>
      <trkpt lat="51.775261" lon="6.078113">
        <ele>43.381768</ele>
        <time>2024-03-31T13:01:36.999Z</time>
      </trkpt>
      <trkpt lat="51.775139" lon="6.078068">
        <ele>43.939354</ele>
        <time>2024-03-31T13:01:38.999Z</time>
      </trkpt>
      <trkpt lat="51.775003" lon="6.078059">
        <ele>44.545850</ele>
        <time>2024-03-31T13:01:40.999Z</time>
      </trkpt>
      <trkpt lat="51.774904" lon="6.078061">
        <ele>44.987009</ele>
        <time>2024-03-31T13:01:41.999Z</time>
      </trkpt>
      <trkpt lat="51.774732" lon="6.078020">
        <ele>45.761697</ele>
        <time>2024-03-31T13:01:43.999Z</time>
      </trkpt>
      <trkpt lat="51.774591" lon="6.077939">
        <ele>46.428475</ele>
        <time>2024-03-31T13:01:45.999Z</time>
      </trkpt>
      <trkpt lat="51.774451" lon="6.077862">
        <ele>47.087421</ele>
        <time>2024-03-31T13:01:47.999Z</time>
      </trkpt>
      <trkpt lat="51.774341" lon="6.077722">
        <ele>47.711298</ele>
        <time>2024-03-31T13:01:49.999Z</time>
      </trkpt>
      <trkpt lat="51.774231" lon="6.077574">
        <ele>48.349058</ele>
        <time>2024-03-31T13:01:51.999Z</time>
      </trkpt>
      <trkpt lat="51.774123" lon="6.077433">
        <ele>48.967689</ele>
        <time>2024-03-31T13:01:53.999Z</time>
      </trkpt>
      <trkpt lat="51.774032" lon="6.077384">
        <ele>49.395080</ele>
        <time>2024-03-31T13:01:55.999Z</time>
      </trkpt>
      <trkpt lat="51.773924" lon="6.077479">
        <ele>49.942970</ele>
        <time>2024-03-31T13:01:58.999Z</time>
      </trkpt>
      <trkpt lat="51.773890" lon="6.077628">
        <ele>50.380822</ele>
        <time>2024-03-31T13:02:00.999Z</time>
      </trkpt>
      <trkpt lat="51.773855" lon="6.077822">
        <ele>50.937971</ele>
        <time>2024-03-31T13:02:03.999Z</time>
      </trkpt>
      <trkpt lat="51.773826" lon="6.077996">
        <ele>51.653755</ele>
        <time>2024-03-31T13:02:06.999Z</time>
      </trkpt>
      <trkpt lat="51.773793" lon="6.078164">
        <ele>52.445838</ele>
        <time>2024-03-31T13:02:08.999Z</time>
      </trkpt>
      <trkpt lat="51.773732" lon="6.078339">
        <ele>53.348447</ele>
        <time>2024-03-31T13:02:10.998Z</time>
      </trkpt>
      <trkpt lat="51.773676" lon="6.078502">
        <ele>54.186268</ele>
        <time>2024-03-31T13:02:12.998Z</time>
      </trkpt>
      <trkpt lat="51.773624" lon="6.078637">
        <ele>54.900872</ele>
        <time>2024-03-31T13:02:14.998Z</time>
      </trkpt>
      <trkpt lat="51.773533" lon="6.078814">
        <ele>55.935007</ele>
        <time>2024-03-31T13:02:17.998Z</time>
      </trkpt>
      <trkpt lat="51.773449" lon="6.078976">
        <ele>56.884817</ele>
        <time>2024-03-31T13:02:19.998Z</time>
      </trkpt>
      <trkpt lat="51.773386" lon="6.079124">
        <ele>57.692083</ele>
        <time>2024-03-31T13:02:21.998Z</time>
      </trkpt>
      <trkpt lat="51.773367" lon="6.079312">
        <ele>58.548117</ele>
        <time>2024-03-31T13:02:23.998Z</time>
      </trkpt>
      <trkpt lat="51.773349" lon="6.079513">
        <ele>59.460787</ele>
        <time>2024-03-31T13:02:25.998Z</time>
      </trkpt>
      <trkpt lat="51.773312" lon="6.079653">
        <ele>60.144906</ele>
        <time>2024-03-31T13:02:27.998Z</time>
      </trkpt>
      <trkpt lat="51.773257" lon="6.079842">
        <ele>61.083479</ele>
        <time>2024-03-31T13:02:30.998Z</time>
      </trkpt>
      <trkpt lat="51.773153" lon="6.079940">
        <ele>61.957792</ele>
        <time>2024-03-31T13:02:32.998Z</time>
      </trkpt>
      <trkpt lat="51.773045" lon="6.080038">
        <ele>62.857320</ele>
        <time>2024-03-31T13:02:35.998Z</time>
      </trkpt>
      <trkpt lat="51.772954" lon="6.080116">
        <ele>63.605407</ele>
        <time>2024-03-31T13:02:39.998Z</time>
      </trkpt>
      <trkpt lat="51.772889" lon="6.080231">
        <ele>64.240677</ele>
        <time>2024-03-31T13:02:52.998Z</time>
      </trkpt>
      <trkpt lat="51.772773" lon="6.080285">
        <ele>64.752863</ele>
        <time>2024-03-31T13:02:56.997Z</time>
      </trkpt>
      <trkpt lat="51.772676" lon="6.080360">
        <ele>65.209101</ele>
        <time>2024-03-31T13:02:59.997Z</time>
      </trkpt>
      <trkpt lat="51.772565" lon="6.080414">
        <ele>65.700937</ele>
        <time>2024-03-31T13:03:05.000Z</time>
      </trkpt>
      <trkpt lat="51.772475" lon="6.080501">
        <ele>66.145896</ele>
        <time>2024-03-31T13:03:07.000Z</time>
      </trkpt>
      <trkpt lat="51.772387" lon="6.080564">
        <ele>66.554266</ele>
        <time>2024-03-31T13:03:10.000Z</time>
      </trkpt>
      <trkpt lat="51.772271" lon="6.080659">
        <ele>67.106030</ele>
        <time>2024-03-31T13:03:13.000Z</time>
      </trkpt>
      <trkpt lat="51.772169" lon="6.080779">
        <ele>67.641335</ele>
        <time>2024-03-31T13:03:17.000Z</time>
      </trkpt>
      <trkpt lat="51.772085" lon="6.080858">
        <ele>68.053696</ele>
        <time>2024-03-31T13:03:19.000Z</time>
      </trkpt>
      <trkpt lat="51.772002" lon="6.080954">
        <ele>68.486757</ele>
        <time>2024-03-31T13:03:21.000Z</time>
      </trkpt>
      <trkpt lat="51.771897" lon="6.081017">
        <ele>68.961974</ele>
        <time>2024-03-31T13:03:24.000Z</time>
      </trkpt>
      <trkpt lat="51.771797" lon="6.081113">
        <ele>69.455479</ele>
        <time>2024-03-31T13:03:27.000Z</time>
      </trkpt>
      <trkpt lat="51.771702" lon="6.081203">
        <ele>69.922707</ele>
        <time>2024-03-31T13:03:30.000Z</time>
      </trkpt>
      <trkpt lat="51.771613" lon="6.081333">
        <ele>70.431714</ele>
        <time>2024-03-31T13:03:32.999Z</time>
      </trkpt>
      <trkpt lat="51.771519" lon="6.081426">
        <ele>70.899352</ele>
        <time>2024-03-31T13:03:35.999Z</time>
      </trkpt>
      <trkpt lat="51.771424" lon="6.081512">
        <ele>71.361358</ele>
        <time>2024-03-31T13:03:39.999Z</time>
      </trkpt>
      <trkpt lat="51.771341" lon="6.081594">
        <ele>71.774113</ele>
        <time>2024-03-31T13:03:42.999Z</time>
      </trkpt>
      <trkpt lat="51.771239" lon="6.081738">
        <ele>71.381744</ele>
        <time>2024-03-31T13:03:47.999Z</time>
      </trkpt>
      <trkpt lat="51.771175" lon="6.081876">
        <ele>71.063035</ele>
        <time>2024-03-31T13:03:50.999Z</time>
      </trkpt>
      <trkpt lat="51.771104" lon="6.081985">
        <ele>70.770563</ele>
        <time>2024-03-31T13:03:53.999Z</time>
      </trkpt>
      <trkpt lat="51.771006" lon="6.082121">
        <ele>70.384776</ele>
        <time>2024-03-31T13:03:56.999Z</time>
      </trkpt>
      <trkpt lat="51.770937" lon="6.082274">
        <ele>70.034897</ele>
        <time>2024-03-31T13:03:59.999Z</time>
      </trkpt>
      <trkpt lat="51.770884" lon="6.082420">
        <ele>69.722076</ele>
        <time>2024-03-31T13:04:04.999Z</time>
      </trkpt>
      <trkpt lat="51.770811" lon="6.082533">
        <ele>69.420179</ele>
        <time>2024-03-31T13:04:07.999Z</time>
      </trkpt>
      <trkpt lat="51.770723" lon="6.082678">
        <ele>69.044839</ele>
        <time>2024-03-31T13:04:10.999Z</time>
      </trkpt>
      <trkpt lat="51.770649" lon="6.082775">
        <ele>68.760273</ele>
        <time>2024-03-31T13:04:12.999Z</time>
      </trkpt>
      <trkpt lat="51.770542" lon="6.082879">
        <ele>68.387368</ele>
        <time>2024-03-31T13:04:15.999Z</time>
      </trkpt>
      <trkpt lat="51.770420" lon="6.082970">
        <ele>67.986073</ele>
        <time>2024-03-31T13:04:18.998Z</time>
      </trkpt>
      <trkpt lat="51.770296" lon="6.083028">
        <ele>67.600544</ele>
        <time>2024-03-31T13:04:21.998Z</time>
      </trkpt>
      <trkpt lat="51.770205" lon="6.083082">
        <ele>67.311027</ele>
        <time>2024-03-31T13:04:23.998Z</time>
      </trkpt>
      <trkpt lat="51.770084" lon="6.083142">
        <ele>66.933028</ele>
        <time>2024-03-31T13:04:27.998Z</time>
      </trkpt>
      <trkpt lat="51.769971" lon="6.083232">
        <ele>66.556789</ele>
        <time>2024-03-31T13:04:29.998Z</time>
      </trkpt>
      <trkpt lat="51.769862" lon="6.083294">
        <ele>66.321447</ele>
        <time>2024-03-31T13:04:31.998Z</time>
      </trkpt>
      <trkpt lat="51.769767" lon="6.083349">
        <ele>66.187253</ele>
        <time>2024-03-31T13:04:33.998Z</time>
      </trkpt>
      <trkpt lat="51.769678" lon="6.083391">
        <ele>66.063958</ele>
        <time>2024-03-31T13:04:35.998Z</time>
      </trkpt>
      <trkpt lat="51.769583" lon="6.083468">
        <ele>65.922627</ele>
        <time>2024-03-31T13:04:37.998Z</time>
      </trkpt>
      <trkpt lat="51.769488" lon="6.083560">
        <ele>65.775348</ele>
        <time>2024-03-31T13:04:39.998Z</time>
      </trkpt>
      <trkpt lat="51.769372" lon="6.083652">
        <ele>65.603514</ele>
        <time>2024-03-31T13:04:41.998Z</time>
      </trkpt>
      <trkpt lat="51.769247" lon="6.083722">
        <ele>65.427591</ele>
        <time>2024-03-31T13:04:43.998Z</time>
      </trkpt>
      <trkpt lat="51.769127" lon="6.083779">
        <ele>65.261265</ele>
        <time>2024-03-31T13:04:45.998Z</time>
      </trkpt>
      <trkpt lat="51.769016" lon="6.083843">
        <ele>65.104543</ele>
        <time>2024-03-31T13:04:47.998Z</time>
      </trkpt>
      <trkpt lat="51.768913" lon="6.083914">
        <ele>64.955632</ele>
        <time>2024-03-31T13:04:49.998Z</time>
      </trkpt>
      <trkpt lat="51.768816" lon="6.083992">
        <ele>64.811554</ele>
        <time>2024-03-31T13:04:51.998Z</time>
      </trkpt>
      <trkpt lat="51.768709" lon="6.084096">
        <ele>64.645510</ele>
        <time>2024-03-31T13:04:53.998Z</time>
      </trkpt>
      <trkpt lat="51.768593" lon="6.084186">
        <ele>64.474394</ele>
        <time>2024-03-31T13:04:55.998Z</time>
      </trkpt>
      <trkpt lat="51.768476" lon="6.084256">
        <ele>64.308486</ele>
        <time>2024-03-31T13:04:57.998Z</time>
      </trkpt>
      <trkpt lat="51.768364" lon="6.084317">
        <ele>64.151317</ele>
        <time>2024-03-31T13:04:59.998Z</time>
      </trkpt>
      <trkpt lat="51.768261" lon="6.084360">
        <ele>64.009500</ele>
        <time>2024-03-31T13:05:01.998Z</time>
      </trkpt>
      <trkpt lat="51.768138" lon="6.084375">
        <ele>63.838163</ele>
        <time>2024-03-31T13:05:03.997Z</time>
      </trkpt>
      <trkpt lat="51.768022" lon="6.084388">
        <ele>63.676648</ele>
        <time>2024-03-31T13:05:05.997Z</time>
      </trkpt>
      <trkpt lat="51.767897" lon="6.084414">
        <ele>63.501587</ele>
        <time>2024-03-31T13:05:07.997Z</time>
      </trkpt>
      <trkpt lat="51.767765" lon="6.084466">
        <ele>63.312865</ele>
        <time>2024-03-31T13:05:10.000Z</time>
      </trkpt>
      <trkpt lat="51.767660" lon="6.084484">
        <ele>63.166198</ele>
        <time>2024-03-31T13:05:12.000Z</time>
      </trkpt>
      <trkpt lat="51.767564" lon="6.084500">
        <ele>63.032144</ele>
        <time>2024-03-31T13:05:14.000Z</time>
      </trkpt>
      <trkpt lat="51.767458" lon="6.084482">
        <ele>62.884096</ele>
        <time>2024-03-31T13:05:16.000Z</time>
      </trkpt>
      <trkpt lat="51.767354" lon="6.084485">
        <ele>62.739613</ele>
        <time>2024-03-31T13:05:18.000Z</time>
      </trkpt>
      <trkpt lat="51.767221" lon="6.084491">
        <ele>62.554800</ele>
        <time>2024-03-31T13:05:21.000Z</time>
      </trkpt>
      <trkpt lat="51.767094" lon="6.084500">
        <ele>62.378224</ele>
        <time>2024-03-31T13:05:24.000Z</time>
      </trkpt>
      <trkpt lat="51.766958" lon="6.084490">
        <ele>62.189120</ele>
        <time>2024-03-31T13:05:27.000Z</time>
      </trkpt>
      <trkpt lat="51.766861" lon="6.084427">
        <ele>62.043907</ele>
        <time>2024-03-31T13:05:29.000Z</time>
      </trkpt>
      <trkpt lat="51.766728" lon="6.084348">
        <ele>61.847080</ele>
        <time>2024-03-31T13:05:31.000Z</time>
      </trkpt>
      <trkpt lat="51.766617" lon="6.084282">
        <ele>61.682790</ele>
        <time>2024-03-31T13:05:33.000Z</time>
      </trkpt>
      <trkpt lat="51.766510" lon="6.084211">
        <ele>61.522120</ele>
        <time>2024-03-31T13:05:35.000Z</time>
      </trkpt>
      <trkpt lat="51.766397" lon="6.084100">
        <ele>61.858930</ele>
        <time>2024-03-31T13:05:36.999Z</time>
      </trkpt>
      <trkpt lat="51.766290" lon="6.084021">
        <ele>62.165640</ele>
        <time>2024-03-31T13:05:38.999Z</time>
      </trkpt>
      <trkpt lat="51.766181" lon="6.083996">
        <ele>62.452671</ele>
        <time>2024-03-31T13:05:40.999Z</time>
      </trkpt>
      <trkpt lat="51.766073" lon="6.083947">
        <ele>62.745135</ele>
        <time>2024-03-31T13:05:42.999Z</time>
      </trkpt>
      <trkpt lat="51.765939" lon="6.083861">
        <ele>63.121046</ele>
        <time>2024-03-31T13:05:45.999Z</time>
      </trkpt>
      <trkpt lat="51.765831" lon="6.083793">
        <ele>63.423243</ele>
        <time>2024-03-31T13:05:47.999Z</time>
      </trkpt>
      <trkpt lat="51.765732" lon="6.083729">
        <ele>63.701244</ele>
        <time>2024-03-31T13:05:49.999Z</time>
      </trkpt>
      <trkpt lat="51.765630" lon="6.083673">
        <ele>63.982108</ele>
        <time>2024-03-31T13:05:51.999Z</time>
      </trkpt>
      <trkpt lat="51.765524" lon="6.083594">
        <ele>64.286449</ele>
        <time>2024-03-31T13:05:53.999Z</time>
      </trkpt>
      <trkpt lat="51.765420" lon="6.083533">
        <ele>64.574907</ele>
        <time>2024-03-31T13:05:55.999Z</time>
      </trkpt>
      <trkpt lat="51.765325" lon="6.083473">
        <ele>64.840838</ele>
        <time>2024-03-31T13:05:57.999Z</time>
      </trkpt>
      <trkpt lat="51.765234" lon="6.083416">
        <ele>65.095294</ele>
        <time>2024-03-31T13:05:59.999Z</time>
      </trkpt>
      <trkpt lat="51.765120" lon="6.083336">
        <ele>65.419333</ele>
        <time>2024-03-31T13:06:02.999Z</time>
      </trkpt>
      <trkpt lat="51.765032" lon="6.083278">
        <ele>65.667118</ele>
        <time>2024-03-31T13:06:05.999Z</time>
      </trkpt>
      <trkpt lat="51.764982" lon="6.083463">
        <ele>65.992847</ele>
        <time>2024-03-31T13:06:11.999Z</time>
      </trkpt>
      <trkpt lat="51.764981" lon="6.083656">
        <ele>66.179892</ele>
        <time>2024-03-31T13:06:13.999Z</time>
      </trkpt>
      <trkpt lat="51.764973" lon="6.083446">
        <ele>66.077407</ele>
        <time>2024-03-31T13:06:20.998Z</time>
      </trkpt>
      <trkpt lat="51.765040" lon="6.083170">
        <ele>65.932995</ele>
        <time>2024-03-31T13:06:23.998Z</time>
      </trkpt>
      <trkpt lat="51.765131" lon="6.082652">
        <ele>65.670708</ele>
        <time>2024-03-31T13:06:24.998Z</time>
      </trkpt>
      <trkpt lat="51.765134" lon="6.082833">
        <ele>65.582511</ele>
        <time>2024-03-31T13:06:29.998Z</time>
      </trkpt>
      <trkpt lat="51.765109" lon="6.082988">
        <ele>65.504489</ele>
        <time>2024-03-31T13:06:32.998Z</time>
      </trkpt>
      <trkpt lat="51.765015" lon="6.083030">
        <ele>65.427729</ele>
        <time>2024-03-31T13:06:37.998Z</time>
      </trkpt>
      <trkpt lat="51.764974" lon="6.082892">
        <ele>65.353165</ele>
        <time>2024-03-31T13:06:41.998Z</time>
      </trkpt>
      <trkpt lat="51.764941" lon="6.082708">
        <ele>65.259850</ele>
        <time>2024-03-31T13:06:46.998Z</time>
      </trkpt>
      <trkpt lat="51.764881" lon="6.082592">
        <ele>65.186211</ele>
        <time>2024-03-31T13:06:51.998Z</time>
      </trkpt>
      <trkpt lat="51.764835" lon="6.082443">
        <ele>65.105104</ele>
        <time>2024-03-31T13:06:54.998Z</time>
      </trkpt>
      <trkpt lat="51.764792" lon="6.082297">
        <ele>65.026344</ele>
        <time>2024-03-31T13:06:57.998Z</time>
      </trkpt>
      <trkpt lat="51.764704" lon="6.082136">
        <ele>64.921714</ele>
        <time>2024-03-31T13:07:01.998Z</time>
      </trkpt>
      <trkpt lat="51.764673" lon="6.081986">
        <ele>64.844682</ele>
        <time>2024-03-31T13:07:05.997Z</time>
      </trkpt>
      <trkpt lat="51.764640" lon="6.081844">
        <ele>64.807194</ele>
        <time>2024-03-31T13:07:08.997Z</time>
      </trkpt>
      <trkpt lat="51.764576" lon="6.081708">
        <ele>64.859816</ele>
        <time>2024-03-31T13:07:11.997Z</time>
      </trkpt>
      <trkpt lat="51.764484" lon="6.081586">
        <ele>64.919047</ele>
        <time>2024-03-31T13:07:16.000Z</time>
      </trkpt>
      <trkpt lat="51.764458" lon="6.081441">
        <ele>64.965544</ele>
        <time>2024-03-31T13:07:19.000Z</time>
      </trkpt>
      <trkpt lat="51.764399" lon="6.081322">
        <ele>65.012507</ele>
        <time>2024-03-31T13:07:22.000Z</time>
      </trkpt>
      <trkpt lat="51.764366" lon="6.081181">
        <ele>65.058937</ele>
        <time>2024-03-31T13:07:25.000Z</time>
      </trkpt>
      <trkpt lat="51.764307" lon="6.081052">
        <ele>65.108342</ele>
        <time>2024-03-31T13:07:29.000Z</time>
      </trkpt>
      <trkpt lat="51.764247" lon="6.080918">
        <ele>65.159284</ele>
        <time>2024-03-31T13:07:34.000Z</time>
      </trkpt>
      <trkpt lat="51.764213" lon="6.080764">
        <ele>65.209644</ele>
        <time>2024-03-31T13:07:37.000Z</time>
      </trkpt>
      <trkpt lat="51.764189" lon="6.080618">
        <ele>65.256172</ele>
        <time>2024-03-31T13:07:40.000Z</time>
      </trkpt>
      <trkpt lat="51.764152" lon="6.080460">
        <ele>65.308204</ele>
        <time>2024-03-31T13:07:43.999Z</time>
      </trkpt>
      <trkpt lat="51.764116" lon="6.080244">
        <ele>65.377103</ele>
        <time>2024-03-31T13:07:46.999Z</time>
      </trkpt>
      <trkpt lat="51.764064" lon="6.080116">
        <ele>65.424263</ele>
        <time>2024-03-31T13:07:50.999Z</time>
      </trkpt>
      <trkpt lat="51.764002" lon="6.079968">
        <ele>65.479309</ele>
        <time>2024-03-31T13:07:55.999Z</time>
      </trkpt>
      <trkpt lat="51.763964" lon="6.079780">
        <ele>65.540224</ele>
        <time>2024-03-31T13:07:59.999Z</time>
      </trkpt>
      <trkpt lat="51.763927" lon="6.079616">
        <ele>65.593988</ele>
        <time>2024-03-31T13:08:02.999Z</time>
      </trkpt>
      <trkpt lat="51.763885" lon="6.079460">
        <ele>65.646387</ele>
        <time>2024-03-31T13:08:05.999Z</time>
      </trkpt>
      <trkpt lat="51.763814" lon="6.079293">
        <ele>65.586156</ele>
        <time>2024-03-31T13:08:08.999Z</time>
      </trkpt>
      <trkpt lat="51.763806" lon="6.079126">
        <ele>65.330206</ele>
        <time>2024-03-31T13:08:13.999Z</time>
      </trkpt>
      <trkpt lat="51.763764" lon="6.078971">
        <ele>65.071651</ele>
        <time>2024-03-31T13:08:17.999Z</time>
      </trkpt>
      <trkpt lat="51.763747" lon="6.078784">
        <ele>64.782837</ele>
        <time>2024-03-31T13:08:20.999Z</time>
      </trkpt>
      <trkpt lat="51.763714" lon="6.078621">
        <ele>64.520776</ele>
        <time>2024-03-31T13:08:23.999Z</time>
      </trkpt>
      <trkpt lat="51.763684" lon="6.078474">
        <ele>64.284253</ele>
        <time>2024-03-31T13:08:25.998Z</time>
      </trkpt>
      <trkpt lat="51.763654" lon="6.078323">
        <ele>64.041918</ele>
        <time>2024-03-31T13:08:27.998Z</time>
      </trkpt>
      <trkpt lat="51.763647" lon="6.078114">
        <ele>63.722085</ele>
        <time>2024-03-31T13:08:30.998Z</time>
      </trkpt>
      <trkpt lat="51.763645" lon="6.077925">
        <ele>63.433238</ele>
        <time>2024-03-31T13:08:34.998Z</time>
      </trkpt>
      <trkpt lat="51.763628" lon="6.077778">
        <ele>63.204725</ele>
        <time>2024-03-31T13:08:36.998Z</time>
      </trkpt>
      <trkpt lat="51.763602" lon="6.077589">
        <ele>62.908872</ele>
        <time>2024-03-31T13:08:40.998Z</time>
      </trkpt>
      <trkpt lat="51.763587" lon="6.077441">
        <ele>62.679706</ele>
        <time>2024-03-31T13:08:42.998Z</time>
      </trkpt>
      <trkpt lat="51.763583" lon="6.077272">
        <ele>62.421273</ele>
        <time>2024-03-31T13:08:45.998Z</time>
      </trkpt>
      <trkpt lat="51.763594" lon="6.077097">
        <ele>62.152486</ele>
        <time>2024-03-31T13:08:48.998Z</time>
      </trkpt>
      <trkpt lat="51.763592" lon="6.076946">
        <ele>61.921695</ele>
        <time>2024-03-31T13:08:50.998Z</time>
      </trkpt>
      <trkpt lat="51.763547" lon="6.076804">
        <ele>61.677918</ele>
        <time>2024-03-31T13:08:52.998Z</time>
      </trkpt>
      <trkpt lat="51.763537" lon="6.076598">
        <ele>61.362169</ele>
        <time>2024-03-31T13:08:55.998Z</time>
      </trkpt>
      <trkpt lat="51.763498" lon="6.076399">
        <ele>61.065402</ele>
        <time>2024-03-31T13:08:58.998Z</time>
      </trkpt>
      <trkpt lat="51.763480" lon="6.076228">
        <ele>60.829163</ele>
        <time>2024-03-31T13:09:03.998Z</time>
      </trkpt>
      <trkpt lat="51.763383" lon="6.076220">
        <ele>60.615430</ele>
        <time>2024-03-31T13:09:07.998Z</time>
      </trkpt>
      <trkpt lat="51.763291" lon="6.076169">
        <ele>60.401393</ele>
        <time>2024-03-31T13:09:10.997Z</time>
      </trkpt>
      <trkpt lat="51.763213" lon="6.076084">
        <ele>60.194358</ele>
        <time>2024-03-31T13:09:14.997Z</time>
      </trkpt>
      <trkpt lat="51.763083" lon="6.076030">
        <ele>59.898981</ele>
        <time>2024-03-31T13:09:18.997Z</time>
      </trkpt>
      <trkpt lat="51.762979" lon="6.075975">
        <ele>59.658174</ele>
        <time>2024-03-31T13:09:23.000Z</time>
      </trkpt>
      <trkpt lat="51.762874" lon="6.075931">
        <ele>59.419470</ele>
        <time>2024-03-31T13:09:27.000Z</time>
      </trkpt>
      <trkpt lat="51.762795" lon="6.075850">
        <ele>59.213575</ele>
        <time>2024-03-31T13:09:29.000Z</time>
      </trkpt>
      <trkpt lat="51.762702" lon="6.075795">
        <ele>58.995644</ele>
        <time>2024-03-31T13:09:32.000Z</time>
      </trkpt>
      <trkpt lat="51.762584" lon="6.075715">
        <ele>58.714043</ele>
        <time>2024-03-31T13:09:36.000Z</time>
      </trkpt>
      <trkpt lat="51.762499" lon="6.075654">
        <ele>58.509373</ele>
        <time>2024-03-31T13:09:39.000Z</time>
      </trkpt>
      <trkpt lat="51.762406" lon="6.075602">
        <ele>58.292812</ele>
        <time>2024-03-31T13:09:41.000Z</time>
      </trkpt>
      <trkpt lat="51.762317" lon="6.075536">
        <ele>58.077317</ele>
        <time>2024-03-31T13:09:43.000Z</time>
      </trkpt>
      <trkpt lat="51.762204" lon="6.075438">
        <ele>57.795095</ele>
        <time>2024-03-31T13:09:45.999Z</time>
      </trkpt>
      <trkpt lat="51.762115" lon="6.075394">
        <ele>57.590280</ele>
        <time>2024-03-31T13:09:48.999Z</time>
      </trkpt>
      <trkpt lat="51.762001" lon="6.075343">
        <ele>57.329976</ele>
        <time>2024-03-31T13:09:52.999Z</time>
      </trkpt>
      <trkpt lat="51.761896" lon="6.075260">
        <ele>57.096165</ele>
        <time>2024-03-31T13:09:55.999Z</time>
      </trkpt>
      <trkpt lat="51.761785" lon="6.075195">
        <ele>56.864444</ele>
        <time>2024-03-31T13:09:58.999Z</time>
      </trkpt>
      <trkpt lat="51.761674" lon="6.075119">
        <ele>56.627835</ele>
        <time>2024-03-31T13:10:01.999Z</time>
      </trkpt>
      <trkpt lat="51.761588" lon="6.075056">
        <ele>56.442507</ele>
        <time>2024-03-31T13:10:03.999Z</time>
      </trkpt>
      <trkpt lat="51.761501" lon="6.074996">
        <ele>56.256851</ele>
        <time>2024-03-31T13:10:05.999Z</time>
      </trkpt>
      <trkpt lat="51.761411" lon="6.074931">
        <ele>56.063368</ele>
        <time>2024-03-31T13:10:07.999Z</time>
      </trkpt>
      <trkpt lat="51.761293" lon="6.074897">
        <ele>55.828121</ele>
        <time>2024-03-31T13:10:10.999Z</time>
      </trkpt>
      <trkpt lat="51.761183" lon="6.074816">
        <ele>55.590863</ele>
        <time>2024-03-31T13:10:14.999Z</time>
      </trkpt>
      <trkpt lat="51.761104" lon="6.074739">
        <ele>55.409785</ele>
        <time>2024-03-31T13:10:21.999Z</time>
      </trkpt>
      <trkpt lat="51.761012" lon="6.074674">
        <ele>55.212711</ele>
        <time>2024-03-31T13:10:28.999Z</time>
      </trkpt>
      <trkpt lat="51.760913" lon="6.074578">
        <ele>54.986098</ele>
        <time>2024-03-31T13:10:34.998Z</time>
      </trkpt>
      <trkpt lat="51.760831" lon="6.074474">
        <ele>54.781496</ele>
        <time>2024-03-31T13:10:39.998Z</time>
      </trkpt>
      <trkpt lat="51.760722" lon="6.074432">
        <ele>54.561567</ele>
        <time>2024-03-31T13:10:42.998Z</time>
      </trkpt>
      <trkpt lat="51.760645" lon="6.074340">
        <ele>54.373608</ele>
        <time>2024-03-31T13:10:45.998Z</time>
      </trkpt>
      <trkpt lat="51.760532" lon="6.074277">
        <ele>54.138995</ele>
        <time>2024-03-31T13:10:50.998Z</time>
      </trkpt>
      <trkpt lat="51.760433" lon="6.074212">
        <ele>53.929261</ele>
        <time>2024-03-31T13:10:54.998Z</time>
      </trkpt>
      <trkpt lat="51.760333" lon="6.074133">
        <ele>53.916342</ele>
        <time>2024-03-31T13:10:59.998Z</time>
      </trkpt>
      <trkpt lat="51.760253" lon="6.074062">
        <ele>54.496936</ele>
        <time>2024-03-31T13:11:04.998Z</time>
      </trkpt>
      <trkpt lat="51.760144" lon="6.074051">
        <ele>55.191626</ele>
        <time>2024-03-31T13:11:08.998Z</time>
      </trkpt>
      <trkpt lat="51.760047" lon="6.074034">
        <ele>55.812253</ele>
        <time>2024-03-31T13:11:12.998Z</time>
      </trkpt>
      <trkpt lat="51.759947" lon="6.073962">
        <ele>56.508650</ele>
        <time>2024-03-31T13:11:16.997Z</time>
      </trkpt>
      <trkpt lat="51.759849" lon="6.073872">
        <ele>57.225690</ele>
        <time>2024-03-31T13:11:20.997Z</time>
      </trkpt>
      <trkpt lat="51.759757" lon="6.073855">
        <ele>57.814708</ele>
        <time>2024-03-31T13:11:23.997Z</time>
      </trkpt>
      <trkpt lat="51.759661" lon="6.073806">
        <ele>58.455105</ele>
        <time>2024-03-31T13:11:28.000Z</time>
      </trkpt>
      <trkpt lat="51.759553" lon="6.073797">
        <ele>59.142996</ele>
        <time>2024-03-31T13:11:31.000Z</time>
      </trkpt>
      <trkpt lat="51.759474" lon="6.073709">
        <ele>59.753372</ele>
        <time>2024-03-31T13:11:35.000Z</time>
      </trkpt>
      <trkpt lat="51.759378" lon="6.073642">
        <ele>60.418560</ele>
        <time>2024-03-31T13:11:39.000Z</time>
      </trkpt>
      <trkpt lat="51.759278" lon="6.073560">
        <ele>61.131892</ele>
        <time>2024-03-31T13:11:44.000Z</time>
      </trkpt>
      <trkpt lat="51.759192" lon="6.073507">
        <ele>61.717378</ele>
        <time>2024-03-31T13:11:49.000Z</time>
      </trkpt>
      <trkpt lat="51.759101" lon="6.073444">
        <ele>62.347127</ele>
        <time>2024-03-31T13:11:53.999Z</time>
      </trkpt>
      <trkpt lat="51.758995" lon="6.073376">
        <ele>63.072593</ele>
        <time>2024-03-31T13:11:58.999Z</time>
      </trkpt>
      <trkpt lat="51.758888" lon="6.073318">
        <ele>63.790497</ele>
        <time>2024-03-31T13:12:03.999Z</time>
      </trkpt>
      <trkpt lat="51.758777" lon="6.073230">
        <ele>64.576988</ele>
        <time>2024-03-31T13:12:08.999Z</time>
      </trkpt>
      <trkpt lat="51.758665" lon="6.073179">
        <ele>65.127681</ele>
        <time>2024-03-31T13:12:12.999Z</time>
      </trkpt>
      <trkpt lat="51.758582" lon="6.073115">
        <ele>64.764546</ele>
        <time>2024-03-31T13:12:15.999Z</time>
      </trkpt>
      <trkpt lat="51.758497" lon="6.073058">
        <ele>64.401165</ele>
        <time>2024-03-31T13:12:18.999Z</time>
      </trkpt>
      <trkpt lat="51.758396" lon="6.072987">
        <ele>63.966255</ele>
        <time>2024-03-31T13:12:22.999Z</time>
      </trkpt>
      <trkpt lat="51.758309" lon="6.072941">
        <ele>63.604811</ele>
        <time>2024-03-31T13:12:25.999Z</time>
      </trkpt>
      <trkpt lat="51.758205" lon="6.072869">
        <ele>63.158057</ele>
        <time>2024-03-31T13:12:29.999Z</time>
      </trkpt>
      <trkpt lat="51.758124" lon="6.072807">
        <ele>62.804152</ele>
        <time>2024-03-31T13:12:32.999Z</time>
      </trkpt>
      <trkpt lat="51.758020" lon="6.072751">
        <ele>62.371305</ele>
        <time>2024-03-31T13:12:36.999Z</time>
      </trkpt>
      <trkpt lat="51.757930" lon="6.072720">
        <ele>62.007958</ele>
        <time>2024-03-31T13:12:38.999Z</time>
      </trkpt>
      <trkpt lat="51.757849" lon="6.072646">
        <ele>61.640538</ele>
        <time>2024-03-31T13:12:40.998Z</time>
      </trkpt>
      <trkpt lat="51.757758" lon="6.072576">
        <ele>61.242578</ele>
        <time>2024-03-31T13:12:42.998Z</time>
      </trkpt>
      <trkpt lat="51.757672" lon="6.072494">
        <ele>60.848281</ele>
        <time>2024-03-31T13:12:44.998Z</time>
      </trkpt>
      <trkpt lat="51.757571" lon="6.072381">
        <ele>60.363194</ele>
        <time>2024-03-31T13:12:46.998Z</time>
      </trkpt>
      <trkpt lat="51.757419" lon="6.072289">
        <ele>59.722291</ele>
        <time>2024-03-31T13:12:48.998Z</time>
      </trkpt>
      <trkpt lat="51.757256" lon="6.072204">
        <ele>59.045996</ele>
        <time>2024-03-31T13:12:50.998Z</time>
      </trkpt>
      <trkpt lat="51.757088" lon="6.072109">
        <ele>58.343195</ele>
        <time>2024-03-31T13:12:52.998Z</time>
      </trkpt>
      <trkpt lat="51.756997" lon="6.072086">
        <ele>58.052547</ele>
        <time>2024-03-31T13:12:53.998Z</time>
      </trkpt>
      <trkpt lat="51.756838" lon="6.071985">
        <ele>57.792348</ele>
        <time>2024-03-31T13:12:55.998Z</time>
      </trkpt>
      <trkpt lat="51.756668" lon="6.071935">
        <ele>57.529187</ele>
        <time>2024-03-31T13:12:57.998Z</time>
      </trkpt>
      <trkpt lat="51.756613" lon="6.071813">
        <ele>57.386905</ele>
        <time>2024-03-31T13:12:58.998Z</time>
      </trkpt>
      <trkpt lat="51.756527" lon="6.071748">
        <ele>57.242303</ele>
        <time>2024-03-31T13:12:59.998Z</time>
      </trkpt>
      <trkpt lat="51.756437" lon="6.071680">
        <ele>57.090986</ele>
        <time>2024-03-31T13:13:00.998Z</time>
      </trkpt>
      <trkpt lat="51.756297" lon="6.071550">
        <ele>56.845057</ele>
        <time>2024-03-31T13:13:02.998Z</time>
      </trkpt>
      <trkpt lat="51.756215" lon="6.071482">
        <ele>56.704681</ele>
        <time>2024-03-31T13:13:03.998Z</time>
      </trkpt>
      <trkpt lat="51.756054" lon="6.071430">
        <ele>56.454630</ele>
        <time>2024-03-31T13:13:05.998Z</time>
      </trkpt>
      <trkpt lat="51.755914" lon="6.071335">
        <ele>56.223368</ele>
        <time>2024-03-31T13:13:07.998Z</time>
      </trkpt>
      <trkpt lat="51.755791" lon="6.071291">
        <ele>56.031504</ele>
        <time>2024-03-31T13:13:09.998Z</time>
      </trkpt>
      <trkpt lat="51.755674" lon="6.071221">
        <ele>55.841489</ele>
        <time>2024-03-31T13:13:11.998Z</time>
      </trkpt>
      <trkpt lat="51.755550" lon="6.071154">
        <ele>55.642357</ele>
        <time>2024-03-31T13:13:13.998Z</time>
      </trkpt>
      <trkpt lat="51.755423" lon="6.071041">
        <ele>55.421542</ele>
        <time>2024-03-31T13:13:15.998Z</time>
      </trkpt>
      <trkpt lat="51.755287" lon="6.070964">
        <ele>55.334532</ele>
        <time>2024-03-31T13:13:17.998Z</time>
      </trkpt>
      <trkpt lat="51.755199" lon="6.070929">
        <ele>55.312923</ele>
        <time>2024-03-31T13:13:18.998Z</time>
      </trkpt>
      <trkpt lat="51.755113" lon="6.070874">
        <ele>55.290869</ele>
        <time>2024-03-31T13:13:19.998Z</time>
      </trkpt>
      <trkpt lat="51.754957" lon="6.070748">
        <ele>55.249283</ele>
        <time>2024-03-31T13:13:21.998Z</time>
      </trkpt>
      <trkpt lat="51.754810" lon="6.070628">
        <ele>55.210012</ele>
        <time>2024-03-31T13:13:23.998Z</time>
      </trkpt>
      <trkpt lat="51.754656" lon="6.070523">
        <ele>55.170156</ele>
        <time>2024-03-31T13:13:25.997Z</time>
      </trkpt>
      <trkpt lat="51.754538" lon="6.070450">
        <ele>55.140028</ele>
        <time>2024-03-31T13:13:27.997Z</time>
      </trkpt>
      <trkpt lat="51.754416" lon="6.070365">
        <ele>55.108349</ele>
        <time>2024-03-31T13:13:29.997Z</time>
      </trkpt>
      <trkpt lat="51.754277" lon="6.070299">
        <ele>55.073805</ele>
        <time>2024-03-31T13:13:31.997Z</time>
      </trkpt>
      <trkpt lat="51.754142" lon="6.070215">
        <ele>55.039310</ele>
        <time>2024-03-31T13:13:34.000Z</time>
      </trkpt>
      <trkpt lat="51.754029" lon="6.070162">
        <ele>55.011255</ele>
        <time>2024-03-31T13:13:36.000Z</time>
      </trkpt>
      <trkpt lat="51.753932" lon="6.070104">
        <ele>54.986593</ele>
        <time>2024-03-31T13:13:38.000Z</time>
      </trkpt>
      <trkpt lat="51.753833" lon="6.070029">
        <ele>54.960521</ele>
        <time>2024-03-31T13:13:40.000Z</time>
      </trkpt>
      <trkpt lat="51.753732" lon="6.069901">
        <ele>54.925615</ele>
        <time>2024-03-31T13:13:42.000Z</time>
      </trkpt>
      <trkpt lat="51.753563" lon="6.069792">
        <ele>54.345708</ele>
        <time>2024-03-31T13:13:44.000Z</time>
      </trkpt>
      <trkpt lat="51.753484" lon="6.069723">
        <ele>54.059509</ele>
        <time>2024-03-31T13:13:45.000Z</time>
      </trkpt>
      <trkpt lat="51.753363" lon="6.069623">
        <ele>53.626374</ele>
        <time>2024-03-31T13:13:47.000Z</time>
      </trkpt>
      <trkpt lat="51.753214" lon="6.069547">
        <ele>53.128434</ele>
        <time>2024-03-31T13:13:49.000Z</time>
      </trkpt>
      <trkpt lat="51.753072" lon="6.069429">
        <ele>52.619545</ele>
        <time>2024-03-31T13:13:51.000Z</time>
      </trkpt>
      <trkpt lat="51.752921" lon="6.069328">
        <ele>52.098720</ele>
        <time>2024-03-31T13:13:53.000Z</time>
      </trkpt>
      <trkpt lat="51.752769" lon="6.069236">
        <ele>51.581442</ele>
        <time>2024-03-31T13:13:55.000Z</time>
      </trkpt>
      <trkpt lat="51.752612" lon="6.069132">
        <ele>51.040683</ele>
        <time>2024-03-31T13:13:56.999Z</time>
      </trkpt>
      <trkpt lat="51.752471" lon="6.069063">
        <ele>50.571180</ele>
        <time>2024-03-31T13:13:58.999Z</time>
      </trkpt>
      <trkpt lat="51.752305" lon="6.069020">
        <ele>50.035415</ele>
        <time>2024-03-31T13:14:00.999Z</time>
      </trkpt>
      <trkpt lat="51.752197" lon="6.069032">
        <ele>49.690429</ele>
        <time>2024-03-31T13:14:02.999Z</time>
      </trkpt>
      <trkpt lat="51.752082" lon="6.069009">
        <ele>49.321150</ele>
        <time>2024-03-31T13:14:04.999Z</time>
      </trkpt>
      <trkpt lat="51.751969" lon="6.068882">
        <ele>49.128732</ele>
        <time>2024-03-31T13:14:07.999Z</time>
      </trkpt>
      <trkpt lat="51.751917" lon="6.068760">
        <ele>49.064317</ele>
        <time>2024-03-31T13:14:09.999Z</time>
      </trkpt>
      <trkpt lat="51.751836" lon="6.068684">
        <ele>48.998514</ele>
        <time>2024-03-31T13:14:11.999Z</time>
      </trkpt>
      <trkpt lat="51.751762" lon="6.068589">
        <ele>48.932113</ele>
        <time>2024-03-31T13:14:13.999Z</time>
      </trkpt>
      <trkpt lat="51.751641" lon="6.068491">
        <ele>48.837027</ele>
        <time>2024-03-31T13:14:15.999Z</time>
      </trkpt>
      <trkpt lat="51.751516" lon="6.068402">
        <ele>48.741065</ele>
        <time>2024-03-31T13:14:17.999Z</time>
      </trkpt>
      <trkpt lat="51.751420" lon="6.068337">
        <ele>48.667943</ele>
        <time>2024-03-31T13:14:18.999Z</time>
      </trkpt>
      <trkpt lat="51.751328" lon="6.068301">
        <ele>48.601446</ele>
        <time>2024-03-31T13:14:19.999Z</time>
      </trkpt>
      <trkpt lat="51.751192" lon="6.068237">
        <ele>48.501937</ele>
        <time>2024-03-31T13:14:21.999Z</time>
      </trkpt>
      <trkpt lat="51.751066" lon="6.068172">
        <ele>48.409020</ele>
        <time>2024-03-31T13:14:23.999Z</time>
      </trkpt>
      <trkpt lat="51.750934" lon="6.068115">
        <ele>48.313037</ele>
        <time>2024-03-31T13:14:25.999Z</time>
      </trkpt>
      <trkpt lat="51.750833" lon="6.068026">
        <ele>48.232216</ele>
        <time>2024-03-31T13:14:27.999Z</time>
      </trkpt>
      <trkpt lat="51.750719" lon="6.067964">
        <ele>48.147716</ele>
        <time>2024-03-31T13:14:29.999Z</time>
      </trkpt>
      <trkpt lat="51.750617" lon="6.067882">
        <ele>48.067679</ele>
        <time>2024-03-31T13:14:31.999Z</time>
      </trkpt>
      <trkpt lat="51.750528" lon="6.067835">
        <ele>48.001902</ele>
        <time>2024-03-31T13:14:32.999Z</time>
      </trkpt>
      <trkpt lat="51.750424" lon="6.067769">
        <ele>47.891387</ele>
        <time>2024-03-31T13:14:34.999Z</time>
      </trkpt>
      <trkpt lat="51.750314" lon="6.067682">
        <ele>47.564813</ele>
        <time>2024-03-31T13:14:36.999Z</time>
      </trkpt>
      <trkpt lat="51.750227" lon="6.067612">
        <ele>47.305653</ele>
        <time>2024-03-31T13:14:38.998Z</time>
      </trkpt>
      <trkpt lat="51.750111" lon="6.067535">
        <ele>46.971255</ele>
        <time>2024-03-31T13:14:40.998Z</time>
      </trkpt>
      <trkpt lat="51.749979" lon="6.067462">
        <ele>46.599236</ele>
        <time>2024-03-31T13:14:42.998Z</time>
      </trkpt>
      <trkpt lat="51.749856" lon="6.067379">
        <ele>46.243804</ele>
        <time>2024-03-31T13:14:44.998Z</time>
      </trkpt>
      <trkpt lat="51.749742" lon="6.067291">
        <ele>45.906909</ele>
        <time>2024-03-31T13:14:46.998Z</time>
      </trkpt>
      <trkpt lat="51.749632" lon="6.067205">
        <ele>45.581058</ele>
        <time>2024-03-31T13:14:48.998Z</time>
      </trkpt>
      <trkpt lat="51.749518" lon="6.067104">
        <ele>45.234369</ele>
        <time>2024-03-31T13:14:50.998Z</time>
      </trkpt>
      <trkpt lat="51.749378" lon="6.067031">
        <ele>44.842108</ele>
        <time>2024-03-31T13:14:52.998Z</time>
      </trkpt>
      <trkpt lat="51.749263" lon="6.066916">
        <ele>44.481467</ele>
        <time>2024-03-31T13:14:54.998Z</time>
      </trkpt>
      <trkpt lat="51.749151" lon="6.066799">
        <ele>44.125820</ele>
        <time>2024-03-31T13:14:56.998Z</time>
      </trkpt>
      <trkpt lat="51.749044" lon="6.066702">
        <ele>43.798655</ele>
        <time>2024-03-31T13:14:58.998Z</time>
      </trkpt>
      <trkpt lat="51.748907" lon="6.066655">
        <ele>43.425213</ele>
        <time>2024-03-31T13:15:00.998Z</time>
      </trkpt>
      <trkpt lat="51.748815" lon="6.066602">
        <ele>43.164771</ele>
        <time>2024-03-31T13:15:02.998Z</time>
      </trkpt>
      <trkpt lat="51.748698" lon="6.066546">
        <ele>43.291899</ele>
        <time>2024-03-31T13:15:04.998Z</time>
      </trkpt>
      <trkpt lat="51.748592" lon="6.066533">
        <ele>43.436542</ele>
        <time>2024-03-31T13:15:06.998Z</time>
      </trkpt>
      <trkpt lat="51.748466" lon="6.066494">
        <ele>43.611102</ele>
        <time>2024-03-31T13:15:09.998Z</time>
      </trkpt>
      <trkpt lat="51.748318" lon="6.066481">
        <ele>43.812774</ele>
        <time>2024-03-31T13:15:12.998Z</time>
      </trkpt>
      <trkpt lat="51.748210" lon="6.066454">
        <ele>43.961472</ele>
        <time>2024-03-31T13:15:14.998Z</time>
      </trkpt>
      <trkpt lat="51.748058" lon="6.066353">
        <ele>44.185107</ele>
        <time>2024-03-31T13:15:16.998Z</time>
      </trkpt>
      <trkpt lat="51.747963" lon="6.066282">
        <ele>44.327534</ele>
        <time>2024-03-31T13:15:17.998Z</time>
      </trkpt>
      <trkpt lat="51.747890" lon="6.066177">
        <ele>44.460536</ele>
        <time>2024-03-31T13:15:18.998Z</time>
      </trkpt>
      <trkpt lat="51.747749" lon="6.066055">
        <ele>44.678180</ele>
        <time>2024-03-31T13:15:20.998Z</time>
      </trkpt>
      <trkpt lat="51.747636" lon="6.065993">
        <ele>44.840561</ele>
        <time>2024-03-31T13:15:22.998Z</time>
      </trkpt>
      <trkpt lat="51.747506" lon="6.065885">
        <ele>45.039470</ele>
        <time>2024-03-31T13:15:25.997Z</time>
      </trkpt>
      <trkpt lat="51.747401" lon="6.065826">
        <ele>45.190736</ele>
        <time>2024-03-31T13:15:27.997Z</time>
      </trkpt>
      <trkpt lat="51.747267" lon="6.065759">
        <ele>45.381597</ele>
        <time>2024-03-31T13:15:29.997Z</time>
      </trkpt>
      <trkpt lat="51.747180" lon="6.065709">
        <ele>45.507243</ele>
        <time>2024-03-31T13:15:30.997Z</time>
      </trkpt>
      <trkpt lat="51.747023" lon="6.065577">
        <ele>45.520518</ele>
        <time>2024-03-31T13:15:32.997Z</time>
      </trkpt>
      <trkpt lat="51.747378" lon="6.065285">
        <ele>45.300052</ele>
        <time>2024-03-31T13:15:33.997Z</time>
      </trkpt>
      <trkpt lat="51.747389" lon="6.065119">
        <ele>45.242851</ele>
        <time>2024-03-31T13:15:35.997Z</time>
      </trkpt>
      <trkpt lat="51.747439" lon="6.064955">
        <ele>45.180217</ele>
        <time>2024-03-31T13:15:38.997Z</time>
      </trkpt>
      <trkpt lat="51.747494" lon="6.064793">
        <ele>45.116913</ele>
        <time>2024-03-31T13:15:41.000Z</time>
      </trkpt>
      <trkpt lat="51.747543" lon="6.064604">
        <ele>45.046709</ele>
        <time>2024-03-31T13:15:43.000Z</time>
      </trkpt>
      <trkpt lat="51.747584" lon="6.064438">
        <ele>44.985474</ele>
        <time>2024-03-31T13:15:45.000Z</time>
      </trkpt>
      <trkpt lat="51.747614" lon="6.064261">
        <ele>44.922597</ele>
        <time>2024-03-31T13:15:47.000Z</time>
      </trkpt>
      <trkpt lat="51.747666" lon="6.064064">
        <ele>44.849222</ele>
        <time>2024-03-31T13:15:49.000Z</time>
      </trkpt>
      <trkpt lat="51.747728" lon="6.063848">
        <ele>44.767648</ele>
        <time>2024-03-31T13:15:52.000Z</time>
      </trkpt>
      <trkpt lat="51.747774" lon="6.063677">
        <ele>44.703767</ele>
        <time>2024-03-31T13:15:54.000Z</time>
      </trkpt>
      <trkpt lat="51.747806" lon="6.063530">
        <ele>44.650379</ele>
        <time>2024-03-31T13:15:56.000Z</time>
      </trkpt>
      <trkpt lat="51.747829" lon="6.063385">
        <ele>44.599094</ele>
        <time>2024-03-31T13:15:58.000Z</time>
      </trkpt>
      <trkpt lat="51.747861" lon="6.063241">
        <ele>45.037630</ele>
        <time>2024-03-31T13:16:00.000Z</time>
      </trkpt>
      <trkpt lat="51.747907" lon="6.063109">
        <ele>45.561385</ele>
        <time>2024-03-31T13:16:02.000Z</time>
      </trkpt>
      <trkpt lat="51.747953" lon="6.062961">
        <ele>46.133993</ele>
        <time>2024-03-31T13:16:03.999Z</time>
      </trkpt>
      <trkpt lat="51.748000" lon="6.062811">
        <ele>46.715291</ele>
        <time>2024-03-31T13:16:05.999Z</time>
      </trkpt>
      <trkpt lat="51.748026" lon="6.062668">
        <ele>47.230625</ele>
        <time>2024-03-31T13:16:07.999Z</time>
      </trkpt>
      <trkpt lat="51.748051" lon="6.062499">
        <ele>47.831428</ele>
        <time>2024-03-31T13:16:09.999Z</time>
      </trkpt>
      <trkpt lat="51.748094" lon="6.062305">
        <ele>48.543917</ele>
        <time>2024-03-31T13:16:12.999Z</time>
      </trkpt>
      <trkpt lat="51.748130" lon="6.062104">
        <ele>49.267414</ele>
        <time>2024-03-31T13:16:15.999Z</time>
      </trkpt>
      <trkpt lat="51.748194" lon="6.061938">
        <ele>49.943587</ele>
        <time>2024-03-31T13:16:18.999Z</time>
      </trkpt>
      <trkpt lat="51.748259" lon="6.061741">
        <ele>50.715449</ele>
        <time>2024-03-31T13:16:21.999Z</time>
      </trkpt>
      <trkpt lat="51.748275" lon="6.061577">
        <ele>51.289508</ele>
        <time>2024-03-31T13:16:23.999Z</time>
      </trkpt>
      <trkpt lat="51.748317" lon="6.061431">
        <ele>51.846166</ele>
        <time>2024-03-31T13:16:25.999Z</time>
      </trkpt>
      <trkpt lat="51.748376" lon="6.061241">
        <ele>52.581131</ele>
        <time>2024-03-31T13:16:28.999Z</time>
      </trkpt>
      <trkpt lat="51.748416" lon="6.061083">
        <ele>53.171356</ele>
        <time>2024-03-31T13:16:30.999Z</time>
      </trkpt>
      <trkpt lat="51.748480" lon="6.060922">
        <ele>53.832914</ele>
        <time>2024-03-31T13:16:33.999Z</time>
      </trkpt>
      <trkpt lat="51.748508" lon="6.060768">
        <ele>54.387884</ele>
        <time>2024-03-31T13:16:36.999Z</time>
      </trkpt>
      <trkpt lat="51.748512" lon="6.060602">
        <ele>54.632085</ele>
        <time>2024-03-31T13:16:39.999Z</time>
      </trkpt>
      <trkpt lat="51.748413" lon="6.060551">
        <ele>54.624863</ele>
        <time>2024-03-31T13:16:45.999Z</time>
      </trkpt>
      <trkpt lat="51.748301" lon="6.060506">
        <ele>54.616841</ele>
        <time>2024-03-31T13:16:48.998Z</time>
      </trkpt>
      <trkpt lat="51.748187" lon="6.060429">
        <ele>54.608252</ele>
        <time>2024-03-31T13:16:50.998Z</time>
      </trkpt>
      <trkpt lat="51.748084" lon="6.060399">
        <ele>54.600977</ele>
        <time>2024-03-31T13:16:52.998Z</time>
      </trkpt>
      <trkpt lat="51.748017" lon="6.060298">
        <ele>54.594607</ele>
        <time>2024-03-31T13:16:54.998Z</time>
      </trkpt>
      <trkpt lat="51.747916" lon="6.060270">
        <ele>54.587484</ele>
        <time>2024-03-31T13:16:56.998Z</time>
      </trkpt>
      <trkpt lat="51.747816" lon="6.060214">
        <ele>54.580128</ele>
        <time>2024-03-31T13:16:58.998Z</time>
      </trkpt>
      <trkpt lat="51.747725" lon="6.060116">
        <ele>54.572526</ele>
        <time>2024-03-31T13:17:01.998Z</time>
      </trkpt>
      <trkpt lat="51.747609" lon="6.060055">
        <ele>54.564046</ele>
        <time>2024-03-31T13:17:04.998Z</time>
      </trkpt>
      <trkpt lat="51.747497" lon="6.059964">
        <ele>54.555332</ele>
        <time>2024-03-31T13:17:07.998Z</time>
      </trkpt>
      <trkpt lat="51.747386" lon="6.059901">
        <ele>54.547154</ele>
        <time>2024-03-31T13:17:10.998Z</time>
      </trkpt>
      <trkpt lat="51.747269" lon="6.059800">
        <ele>54.537933</ele>
        <time>2024-03-31T13:17:13.998Z</time>
      </trkpt>
      <trkpt lat="51.747201" lon="6.059702">
        <ele>54.531599</ele>
        <time>2024-03-31T13:17:15.998Z</time>
      </trkpt>
      <trkpt lat="51.747106" lon="6.059668">
        <ele>54.524836</ele>
        <time>2024-03-31T13:17:17.998Z</time>
      </trkpt>
      <trkpt lat="51.747019" lon="6.059601">
        <ele>54.518136</ele>
        <time>2024-03-31T13:17:19.998Z</time>
      </trkpt>
      <trkpt lat="51.746933" lon="6.059535">
        <ele>54.511518</ele>
        <time>2024-03-31T13:17:21.998Z</time>
      </trkpt>
      <trkpt lat="51.746831" lon="6.059433">
        <ele>54.032887</ele>
        <time>2024-03-31T13:17:24.998Z</time>
      </trkpt>
      <trkpt lat="51.746714" lon="6.059390">
        <ele>53.530972</ele>
        <time>2024-03-31T13:17:27.998Z</time>
      </trkpt>
      <trkpt lat="51.746598" lon="6.059308">
        <ele>53.001312</ele>
        <time>2024-03-31T13:17:30.998Z</time>
      </trkpt>
      <trkpt lat="51.746480" lon="6.059276">
        <ele>52.500815</ele>
        <time>2024-03-31T13:17:33.997Z</time>
      </trkpt>
      <trkpt lat="51.746373" lon="6.059230">
        <ele>52.037655</ele>
        <time>2024-03-31T13:17:35.997Z</time>
      </trkpt>
      <trkpt lat="51.746276" lon="6.059205">
        <ele>51.626776</ele>
        <time>2024-03-31T13:17:37.997Z</time>
      </trkpt>
      <trkpt lat="51.746189" lon="6.059156">
        <ele>51.241368</ele>
        <time>2024-03-31T13:17:39.997Z</time>
      </trkpt>
      <trkpt lat="51.746088" lon="6.059086">
        <ele>50.781636</ele>
        <time>2024-03-31T13:17:41.997Z</time>
      </trkpt>
      <trkpt lat="51.745995" lon="6.059051">
        <ele>50.382200</ele>
        <time>2024-03-31T13:17:44.997Z</time>
      </trkpt>
      <trkpt lat="51.745887" lon="6.058986">
        <ele>49.900096</ele>
        <time>2024-03-31T13:17:47.000Z</time>
      </trkpt>
      <trkpt lat="51.745791" lon="6.058873">
        <ele>49.403205</ele>
        <time>2024-03-31T13:17:49.000Z</time>
      </trkpt>
      <trkpt lat="51.745693" lon="6.058849">
        <ele>48.988591</ele>
        <time>2024-03-31T13:17:51.000Z</time>
      </trkpt>
      <trkpt lat="51.745585" lon="6.058730">
        <ele>48.441717</ele>
        <time>2024-03-31T13:17:54.000Z</time>
      </trkpt>
      <trkpt lat="51.745481" lon="6.058672">
        <ele>47.981486</ele>
        <time>2024-03-31T13:17:56.000Z</time>
      </trkpt>
      <trkpt lat="51.745396" lon="6.058576">
        <ele>47.547627</ele>
        <time>2024-03-31T13:17:58.000Z</time>
      </trkpt>
      <trkpt lat="51.745298" lon="6.058557">
        <ele>47.134756</ele>
        <time>2024-03-31T13:18:02.000Z</time>
      </trkpt>
      <trkpt lat="51.745210" lon="6.058500">
        <ele>46.881710</ele>
        <time>2024-03-31T13:18:04.000Z</time>
      </trkpt>
      <trkpt lat="51.745074" lon="6.058404">
        <ele>46.618310</ele>
        <time>2024-03-31T13:18:06.000Z</time>
      </trkpt>
      <trkpt lat="51.744965" lon="6.058318">
        <ele>46.403023</ele>
        <time>2024-03-31T13:18:08.000Z</time>
      </trkpt>
      <trkpt lat="51.744845" lon="6.058269">
        <ele>46.183362</ele>
        <time>2024-03-31T13:18:10.000Z</time>
      </trkpt>
      <trkpt lat="51.744740" lon="6.058229">
        <ele>45.991908</ele>
        <time>2024-03-31T13:18:11.999Z</time>
      </trkpt>
      <trkpt lat="51.744670" lon="6.058132">
        <ele>45.828223</ele>
        <time>2024-03-31T13:18:14.999Z</time>
      </trkpt>
      <trkpt lat="51.744554" lon="6.058037">
        <ele>45.597407</ele>
        <time>2024-03-31T13:18:17.999Z</time>
      </trkpt>
      <trkpt lat="51.744464" lon="6.057963">
        <ele>45.418180</ele>
        <time>2024-03-31T13:18:19.999Z</time>
      </trkpt>
      <trkpt lat="51.744340" lon="6.057924">
        <ele>45.193987</ele>
        <time>2024-03-31T13:18:21.999Z</time>
      </trkpt>
      <trkpt lat="51.744224" lon="6.057861">
        <ele>44.976797</ele>
        <time>2024-03-31T13:18:23.999Z</time>
      </trkpt>
      <trkpt lat="51.744124" lon="6.057773">
        <ele>44.774696</ele>
        <time>2024-03-31T13:18:25.999Z</time>
      </trkpt>
      <trkpt lat="51.744035" lon="6.057668">
        <ele>44.579098</ele>
        <time>2024-03-31T13:18:28.999Z</time>
      </trkpt>
      <trkpt lat="51.743916" lon="6.057576">
        <ele>44.344963</ele>
        <time>2024-03-31T13:18:31.999Z</time>
      </trkpt>
      <trkpt lat="51.743796" lon="6.057521">
        <ele>44.123593</ele>
        <time>2024-03-31T13:18:34.999Z</time>
      </trkpt>
      <trkpt lat="51.743688" lon="6.057455">
        <ele>43.918666</ele>
        <time>2024-03-31T13:18:39.999Z</time>
      </trkpt>
      <trkpt lat="51.743599" lon="6.057412">
        <ele>43.739642</ele>
        <time>2024-03-31T13:18:41.999Z</time>
      </trkpt>
      <trkpt lat="51.743496" lon="6.057351">
        <ele>43.478810</ele>
        <time>2024-03-31T13:18:45.999Z</time>
      </trkpt>
      <trkpt lat="51.743416" lon="6.057281">
        <ele>43.262486</ele>
        <time>2024-03-31T13:18:48.999Z</time>
      </trkpt>
      <trkpt lat="51.743320" lon="6.057226">
        <ele>43.020307</ele>
        <time>2024-03-31T13:18:52.999Z</time>
      </trkpt>
      <trkpt lat="51.743232" lon="6.057177">
        <ele>42.798998</ele>
        <time>2024-03-31T13:18:54.998Z</time>
      </trkpt>
      <trkpt lat="51.743131" lon="6.057123">
        <ele>42.546051</ele>
        <time>2024-03-31T13:18:57.998Z</time>
      </trkpt>
      <trkpt lat="51.743048" lon="6.057053">
        <ele>42.323429</ele>
        <time>2024-03-31T13:19:00.998Z</time>
      </trkpt>
      <trkpt lat="51.742962" lon="6.056978">
        <ele>42.091055</ele>
        <time>2024-03-31T13:19:04.998Z</time>
      </trkpt>
      <trkpt lat="51.742851" lon="6.056882">
        <ele>41.791690</ele>
        <time>2024-03-31T13:19:07.998Z</time>
      </trkpt>
      <trkpt lat="51.742744" lon="6.056789">
        <ele>41.502792</ele>
        <time>2024-03-31T13:19:10.998Z</time>
      </trkpt>
      <trkpt lat="51.742657" lon="6.056749">
        <ele>41.287728</ele>
        <time>2024-03-31T13:19:12.998Z</time>
      </trkpt>
      <trkpt lat="51.742554" lon="6.056661">
        <ele>41.010686</ele>
        <time>2024-03-31T13:19:15.998Z</time>
      </trkpt>
      <trkpt lat="51.742460" lon="6.056601">
        <ele>40.770376</ele>
        <time>2024-03-31T13:19:19.998Z</time>
      </trkpt>
      <trkpt lat="51.742358" lon="6.056517">
        <ele>40.498158</ele>
        <time>2024-03-31T13:19:22.998Z</time>
      </trkpt>
      <trkpt lat="51.742258" lon="6.056453">
        <ele>40.242417</ele>
        <time>2024-03-31T13:19:26.998Z</time>
      </trkpt>
      <trkpt lat="51.742128" lon="6.056366">
        <ele>39.907851</ele>
        <time>2024-03-31T13:19:29.998Z</time>
      </trkpt>
      <trkpt lat="51.741995" lon="6.056323">
        <ele>39.585365</ele>
        <time>2024-03-31T13:19:32.998Z</time>
      </trkpt>
      <trkpt lat="51.741901" lon="6.056292">
        <ele>39.408280</ele>
        <time>2024-03-31T13:19:34.998Z</time>
      </trkpt>
      <trkpt lat="51.741800" lon="6.056252">
        <ele>39.238943</ele>
        <time>2024-03-31T13:19:36.998Z</time>
      </trkpt>
      <trkpt lat="51.741703" lon="6.056204">
        <ele>39.073745</ele>
        <time>2024-03-31T13:19:38.998Z</time>
      </trkpt>
      <trkpt lat="51.741571" lon="6.056147">
        <ele>38.851251</ele>
        <time>2024-03-31T13:19:41.997Z</time>
      </trkpt>
      <trkpt lat="51.741477" lon="6.056045">
        <ele>38.666844</ele>
        <time>2024-03-31T13:19:44.997Z</time>
      </trkpt>
      <trkpt lat="51.741366" lon="6.056016">
        <ele>38.483747</ele>
        <time>2024-03-31T13:19:47.997Z</time>
      </trkpt>
      <trkpt lat="51.741249" lon="6.055955">
        <ele>38.283547</ele>
        <time>2024-03-31T13:19:52.000Z</time>
      </trkpt>
      <trkpt lat="51.741146" lon="6.055895">
        <ele>38.105250</ele>
        <time>2024-03-31T13:19:55.000Z</time>
      </trkpt>
      <trkpt lat="51.741041" lon="6.055820">
        <ele>37.918296</ele>
        <time>2024-03-31T13:19:58.000Z</time>
      </trkpt>
      <trkpt lat="51.740966" lon="6.055712">
        <ele>37.754670</ele>
        <time>2024-03-31T13:20:00.999Z</time>
      </trkpt>
      <trkpt lat="51.740857" lon="6.055646">
        <ele>37.565114</ele>
        <time>2024-03-31T13:20:04.000Z</time>
      </trkpt>
      <trkpt lat="51.740746" lon="6.055582">
        <ele>37.373193</ele>
        <time>2024-03-31T13:20:08.000Z</time>
      </trkpt>
      <trkpt lat="51.740647" lon="6.055467">
        <ele>37.174614</ele>
        <time>2024-03-31T13:20:11.999Z</time>
      </trkpt>
      <trkpt lat="51.740549" lon="6.055388">
        <ele>36.996259</ele>
        <time>2024-03-31T13:20:17.999Z</time>
      </trkpt>
      <trkpt lat="51.740459" lon="6.055323">
        <ele>36.835720</ele>
        <time>2024-03-31T13:20:20.999Z</time>
      </trkpt>
      <trkpt lat="51.740342" lon="6.055294">
        <ele>36.642972</ele>
        <time>2024-03-31T13:20:24.999Z</time>
      </trkpt>
      <trkpt lat="51.740257" lon="6.055229">
        <ele>36.420409</ele>
        <time>2024-03-31T13:20:27.999Z</time>
      </trkpt>
      <trkpt lat="51.740167" lon="6.055147">
        <ele>36.135925</ele>
        <time>2024-03-31T13:20:30.999Z</time>
      </trkpt>
      <trkpt lat="51.740071" lon="6.055106">
        <ele>35.862550</ele>
        <time>2024-03-31T13:20:33.999Z</time>
      </trkpt>
      <trkpt lat="51.739972" lon="6.054992">
        <ele>35.527810</ele>
        <time>2024-03-31T13:20:37.999Z</time>
      </trkpt>
      <trkpt lat="51.739873" lon="6.054941">
        <ele>35.241731</ele>
        <time>2024-03-31T13:20:39.999Z</time>
      </trkpt>
      <trkpt lat="51.739785" lon="6.054911">
        <ele>34.994127</ele>
        <time>2024-03-31T13:20:42.999Z</time>
      </trkpt>
      <trkpt lat="51.739683" lon="6.054896">
        <ele>34.712159</ele>
        <time>2024-03-31T13:20:45.999Z</time>
      </trkpt>
      <trkpt lat="51.739595" lon="6.054854">
        <ele>34.459535</ele>
        <time>2024-03-31T13:20:48.999Z</time>
      </trkpt>
      <trkpt lat="51.739508" lon="6.054811">
        <ele>34.209057</ele>
        <time>2024-03-31T13:20:51.999Z</time>
      </trkpt>
      <trkpt lat="51.739403" lon="6.054727">
        <ele>33.886465</ele>
        <time>2024-03-31T13:20:54.999Z</time>
      </trkpt>
      <trkpt lat="51.739307" lon="6.054636">
        <ele>33.580009</ele>
        <time>2024-03-31T13:20:58.999Z</time>
      </trkpt>
      <trkpt lat="51.739247" lon="6.054525">
        <ele>33.328827</ele>
        <time>2024-03-31T13:21:09.998Z</time>
      </trkpt>
      <trkpt lat="51.739078" lon="6.054526">
        <ele>32.863565</ele>
        <time>2024-03-31T13:22:42.999Z</time>
      </trkpt>
      <trkpt lat="51.738982" lon="6.054495">
        <ele>32.594044</ele>
        <time>2024-03-31T13:22:52.999Z</time>
      </trkpt>
      <trkpt lat="51.738897" lon="6.054437">
        <ele>32.340006</ele>
        <time>2024-03-31T13:23:00.999Z</time>
      </trkpt>
      <trkpt lat="51.738813" lon="6.054355">
        <ele>32.069784</ele>
        <time>2024-03-31T13:23:12.998Z</time>
      </trkpt>
      <trkpt lat="51.738734" lon="6.054274">
        <ele>31.812162</ele>
        <time>2024-03-31T13:23:20.998Z</time>
      </trkpt>
      <trkpt lat="51.738653" lon="6.054139">
        <ele>31.584534</ele>
        <time>2024-03-31T13:23:32.998Z</time>
      </trkpt>
      <trkpt lat="51.738556" lon="6.054057">
        <ele>31.473517</ele>
        <time>2024-03-31T13:23:36.998Z</time>
      </trkpt>
      <trkpt lat="51.738461" lon="6.054018">
        <ele>31.374125</ele>
        <time>2024-03-31T13:23:40.998Z</time>
      </trkpt>
      <trkpt lat="51.738412" lon="6.053892">
        <ele>31.280702</ele>
        <time>2024-03-31T13:23:55.997Z</time>
      </trkpt>
      <trkpt lat="51.738319" lon="6.053892">
        <ele>31.186403</ele>
        <time>2024-03-31T13:24:21.000Z</time>
      </trkpt>
      <trkpt lat="51.738210" lon="6.053803">
        <ele>31.062555</ele>
        <time>2024-03-31T13:24:26.000Z</time>
      </trkpt>
      <trkpt lat="51.738096" lon="6.053734">
        <ele>30.939109</ele>
        <time>2024-03-31T13:24:29.999Z</time>
      </trkpt>
      <trkpt lat="51.738004" lon="6.053725">
        <ele>30.845653</ele>
        <time>2024-03-31T13:24:31.999Z</time>
      </trkpt>
      <trkpt lat="51.737905" lon="6.053639">
        <ele>30.731667</ele>
        <time>2024-03-31T13:24:36.999Z</time>
      </trkpt>
      <trkpt lat="51.737812" lon="6.053627">
        <ele>30.637067</ele>
        <time>2024-03-31T13:24:38.999Z</time>
      </trkpt>
      <trkpt lat="51.737707" lon="6.053614">
        <ele>30.530288</ele>
        <time>2024-03-31T13:24:41.999Z</time>
      </trkpt>
      <trkpt lat="51.737620" lon="6.053534">
        <ele>30.428772</ele>
        <time>2024-03-31T13:24:44.999Z</time>
      </trkpt>
      <trkpt lat="51.737455" lon="6.053490">
        <ele>30.259201</ele>
        <time>2024-03-31T13:24:48.999Z</time>
      </trkpt>
      <trkpt lat="51.737378" lon="6.053394">
        <ele>30.160563</ele>
        <time>2024-03-31T13:24:51.999Z</time>
      </trkpt>
      <trkpt lat="51.737255" lon="6.053295">
        <ele>30.021210</ele>
        <time>2024-03-31T13:24:55.999Z</time>
      </trkpt>
      <trkpt lat="51.737144" lon="6.053197">
        <ele>29.892936</ele>
        <time>2024-03-31T13:24:58.999Z</time>
      </trkpt>
      <trkpt lat="51.737048" lon="6.053133">
        <ele>29.838923</ele>
        <time>2024-03-31T13:25:01.999Z</time>
      </trkpt>
      <trkpt lat="51.736957" lon="6.053032">
        <ele>29.937642</ele>
        <time>2024-03-31T13:25:05.999Z</time>
      </trkpt>
      <trkpt lat="51.736866" lon="6.052955">
        <ele>30.029489</ele>
        <time>2024-03-31T13:25:08.999Z</time>
      </trkpt>
      <trkpt lat="51.736777" lon="6.052904">
        <ele>30.113917</ele>
        <time>2024-03-31T13:25:11.999Z</time>
      </trkpt>
      <trkpt lat="51.736686" lon="6.052856">
        <ele>30.199501</ele>
        <time>2024-03-31T13:25:14.998Z</time>
      </trkpt>
      <trkpt lat="51.736574" lon="6.052818">
        <ele>30.301817</ele>
        <time>2024-03-31T13:25:19.998Z</time>
      </trkpt>
      <trkpt lat="51.736448" lon="6.052741">
        <ele>30.422258</ele>
        <time>2024-03-31T13:25:21.998Z</time>
      </trkpt>
      <trkpt lat="51.736344" lon="6.052635">
        <ele>30.532207</ele>
        <time>2024-03-31T13:25:24.998Z</time>
      </trkpt>
      <trkpt lat="51.736256" lon="6.052592">
        <ele>30.614403</ele>
        <time>2024-03-31T13:25:26.998Z</time>
      </trkpt>
      <trkpt lat="51.736160" lon="6.052538">
        <ele>30.705285</ele>
        <time>2024-03-31T13:25:29.998Z</time>
      </trkpt>
      <trkpt lat="51.736059" lon="6.052457">
        <ele>30.806103</ele>
        <time>2024-03-31T13:25:32.998Z</time>
      </trkpt>
      <trkpt lat="51.735978" lon="6.052356">
        <ele>30.897595</ele>
        <time>2024-03-31T13:25:35.998Z</time>
      </trkpt>
      <trkpt lat="51.735864" lon="6.052307">
        <ele>31.003060</ele>
        <time>2024-03-31T13:25:38.998Z</time>
      </trkpt>
      <trkpt lat="51.735773" lon="6.052241">
        <ele>31.092244</ele>
        <time>2024-03-31T13:25:40.998Z</time>
      </trkpt>
      <trkpt lat="51.735650" lon="6.052164">
        <ele>31.210182</ele>
        <time>2024-03-31T13:25:43.998Z</time>
      </trkpt>
      <trkpt lat="51.735558" lon="6.052129">
        <ele>31.294682</ele>
        <time>2024-03-31T13:25:45.998Z</time>
      </trkpt>
      <trkpt lat="51.735431" lon="6.052107">
        <ele>31.408873</ele>
        <time>2024-03-31T13:25:48.998Z</time>
      </trkpt>
      <trkpt lat="51.735285" lon="6.052052">
        <ele>31.314901</ele>
        <time>2024-03-31T13:25:51.998Z</time>
      </trkpt>
      <trkpt lat="51.735200" lon="6.051964">
        <ele>31.233682</ele>
        <time>2024-03-31T13:25:53.998Z</time>
      </trkpt>
      <trkpt lat="51.735073" lon="6.051886">
        <ele>31.124386</ele>
        <time>2024-03-31T13:25:56.998Z</time>
      </trkpt>
      <trkpt lat="51.734980" lon="6.051822">
        <ele>31.043068</ele>
        <time>2024-03-31T13:25:58.997Z</time>
      </trkpt>
      <trkpt lat="51.734899" lon="6.051744">
        <ele>30.967207</ele>
        <time>2024-03-31T13:26:00.997Z</time>
      </trkpt>
      <trkpt lat="51.734814" lon="6.051680">
        <ele>30.891766</ele>
        <time>2024-03-31T13:26:02.997Z</time>
      </trkpt>
      <trkpt lat="51.734701" lon="6.051575">
        <ele>30.786896</ele>
        <time>2024-03-31T13:26:05.997Z</time>
      </trkpt>
      <trkpt lat="51.734584" lon="6.051499">
        <ele>30.685453</ele>
        <time>2024-03-31T13:26:08.997Z</time>
      </trkpt>
      <trkpt lat="51.734469" lon="6.051416">
        <ele>30.584129</ele>
        <time>2024-03-31T13:26:12.000Z</time>
      </trkpt>
      <trkpt lat="51.734371" lon="6.051381">
        <ele>30.503395</ele>
        <time>2024-03-31T13:26:14.000Z</time>
      </trkpt>
      <trkpt lat="51.734279" lon="6.051284">
        <ele>30.415013</ele>
        <time>2024-03-31T13:26:16.000Z</time>
      </trkpt>
      <trkpt lat="51.734189" lon="6.051219">
        <ele>30.335707</ele>
        <time>2024-03-31T13:26:18.000Z</time>
      </trkpt>
      <trkpt lat="51.734083" lon="6.051135">
        <ele>30.240727</ele>
        <time>2024-03-31T13:26:21.000Z</time>
      </trkpt>
      <trkpt lat="51.733989" lon="6.051134">
        <ele>30.165114</ele>
        <time>2024-03-31T13:26:23.000Z</time>
      </trkpt>
      <trkpt lat="51.733858" lon="6.051089">
        <ele>30.057382</ele>
        <time>2024-03-31T13:26:26.000Z</time>
      </trkpt>
      <trkpt lat="51.733765" lon="6.051027">
        <ele>29.976449</ele>
        <time>2024-03-31T13:26:27.000Z</time>
      </trkpt>
      <trkpt lat="51.733641" lon="6.050936">
        <ele>29.956894</ele>
        <time>2024-03-31T13:26:29.000Z</time>
      </trkpt>
      <trkpt lat="51.733535" lon="6.050838">
        <ele>29.939622</ele>
        <time>2024-03-31T13:26:31.000Z</time>
      </trkpt>
      <trkpt lat="51.733422" lon="6.050779">
        <ele>29.922829</ele>
        <time>2024-03-31T13:26:33.000Z</time>
      </trkpt>
      <trkpt lat="51.733322" lon="6.050698">
        <ele>29.907009</ele>
        <time>2024-03-31T13:26:34.999Z</time>
      </trkpt>
      <trkpt lat="51.733221" lon="6.050658">
        <ele>29.892304</ele>
        <time>2024-03-31T13:26:36.999Z</time>
      </trkpt>
      <trkpt lat="51.733122" lon="6.050546">
        <ele>29.875211</ele>
        <time>2024-03-31T13:26:38.999Z</time>
      </trkpt>
      <trkpt lat="51.733017" lon="6.050477">
        <ele>29.859181</ele>
        <time>2024-03-31T13:26:40.999Z</time>
      </trkpt>
      <trkpt lat="51.732910" lon="6.050406">
        <ele>29.842823</ele>
        <time>2024-03-31T13:26:42.999Z</time>
      </trkpt>
      <trkpt lat="51.732806" lon="6.050370">
        <ele>29.827783</ele>
        <time>2024-03-31T13:26:44.999Z</time>
      </trkpt>
      <trkpt lat="51.732706" lon="6.050346">
        <ele>29.813487</ele>
        <time>2024-03-31T13:26:46.999Z</time>
      </trkpt>
      <trkpt lat="51.732585" lon="6.050303">
        <ele>29.795968</ele>
        <time>2024-03-31T13:26:48.999Z</time>
      </trkpt>
      <trkpt lat="51.732476" lon="6.050182">
        <ele>29.777264</ele>
        <time>2024-03-31T13:26:51.999Z</time>
      </trkpt>
      <trkpt lat="51.732388" lon="6.050104">
        <ele>29.763068</ele>
        <time>2024-03-31T13:26:53.999Z</time>
      </trkpt>
      <trkpt lat="51.732302" lon="6.050043">
        <ele>29.749786</ele>
        <time>2024-03-31T13:26:55.999Z</time>
      </trkpt>
      <trkpt lat="51.732207" lon="6.049997">
        <ele>29.735762</ele>
        <time>2024-03-31T13:26:57.999Z</time>
      </trkpt>
      <trkpt lat="51.732097" lon="6.049954">
        <ele>29.720938</ele>
        <time>2024-03-31T13:26:59.999Z</time>
      </trkpt>
      <trkpt lat="51.732005" lon="6.049887">
        <ele>29.715094</ele>
        <time>2024-03-31T13:27:01.999Z</time>
      </trkpt>
      <trkpt lat="51.731882" lon="6.049806">
        <ele>29.707402</ele>
        <time>2024-03-31T13:27:03.999Z</time>
      </trkpt>
      <trkpt lat="51.731786" lon="6.049723">
        <ele>29.701096</ele>
        <time>2024-03-31T13:27:05.999Z</time>
      </trkpt>
      <trkpt lat="51.731686" lon="6.049649">
        <ele>29.694726</ele>
        <time>2024-03-31T13:27:09.999Z</time>
      </trkpt>
      <trkpt lat="51.731554" lon="6.049555">
        <ele>29.686372</ele>
        <time>2024-03-31T13:27:12.999Z</time>
      </trkpt>
      <trkpt lat="51.731461" lon="6.049478">
        <ele>29.680320</ele>
        <time>2024-03-31T13:27:14.999Z</time>
      </trkpt>
      <trkpt lat="51.731388" lon="6.049384">
        <ele>29.674913</ele>
        <time>2024-03-31T13:27:16.999Z</time>
      </trkpt>
      <trkpt lat="51.731269" lon="6.049333">
        <ele>29.667784</ele>
        <time>2024-03-31T13:27:18.999Z</time>
      </trkpt>
      <trkpt lat="51.731166" lon="6.049288">
        <ele>29.661605</ele>
        <time>2024-03-31T13:27:20.999Z</time>
      </trkpt>
      <trkpt lat="51.731085" lon="6.049181">
        <ele>29.655545</ele>
        <time>2024-03-31T13:27:22.999Z</time>
      </trkpt>
      <trkpt lat="51.730950" lon="6.049109">
        <ele>29.647312</ele>
        <time>2024-03-31T13:27:24.998Z</time>
      </trkpt>
      <trkpt lat="51.730852" lon="6.049059">
        <ele>29.641360</ele>
        <time>2024-03-31T13:27:26.998Z</time>
      </trkpt>
      <trkpt lat="51.730750" lon="6.048980">
        <ele>29.634810</ele>
        <time>2024-03-31T13:27:28.998Z</time>
      </trkpt>
      <trkpt lat="51.730642" lon="6.048912">
        <ele>29.628097</ele>
        <time>2024-03-31T13:27:30.998Z</time>
      </trkpt>
      <trkpt lat="51.730521" lon="6.048818">
        <ele>29.620321</ele>
        <time>2024-03-31T13:27:32.998Z</time>
      </trkpt>
      <trkpt lat="51.730405" lon="6.048769">
        <ele>29.561075</ele>
        <time>2024-03-31T13:27:34.998Z</time>
      </trkpt>
      <trkpt lat="51.730323" lon="6.048661">
        <ele>29.479100</ele>
        <time>2024-03-31T13:27:36.998Z</time>
      </trkpt>
      <trkpt lat="51.730227" lon="6.048629">
        <ele>29.403166</ele>
        <time>2024-03-31T13:27:38.998Z</time>
      </trkpt>
      <trkpt lat="51.730119" lon="6.048561">
        <ele>29.313368</ele>
        <time>2024-03-31T13:27:40.998Z</time>
      </trkpt>
      <trkpt lat="51.730051" lon="6.048435">
        <ele>29.233184</ele>
        <time>2024-03-31T13:27:43.998Z</time>
      </trkpt>
      <trkpt lat="51.729917" lon="6.048397">
        <ele>29.127793</ele>
        <time>2024-03-31T13:27:45.998Z</time>
      </trkpt>
      <trkpt lat="51.729812" lon="6.048330">
        <ele>29.040333</ele>
        <time>2024-03-31T13:27:47.998Z</time>
      </trkpt>
      <trkpt lat="51.729703" lon="6.048304">
        <ele>28.954980</ele>
        <time>2024-03-31T13:27:50.998Z</time>
      </trkpt>
      <trkpt lat="51.729585" lon="6.048226">
        <ele>28.856208</ele>
        <time>2024-03-31T13:27:52.998Z</time>
      </trkpt>
      <trkpt lat="51.729467" lon="6.048151">
        <ele>28.757972</ele>
        <time>2024-03-31T13:27:54.998Z</time>
      </trkpt>
      <trkpt lat="51.729375" lon="6.048144">
        <ele>28.686625</ele>
        <time>2024-03-31T13:27:56.998Z</time>
      </trkpt>
      <trkpt lat="51.729274" lon="6.048082">
        <ele>28.602922</ele>
        <time>2024-03-31T13:27:58.998Z</time>
      </trkpt>
      <trkpt lat="51.729137" lon="6.048079">
        <ele>28.496786</ele>
        <time>2024-03-31T13:28:00.998Z</time>
      </trkpt>
      <trkpt lat="51.729063" lon="6.047978">
        <ele>28.421723</ele>
        <time>2024-03-31T13:28:01.998Z</time>
      </trkpt>
      <trkpt lat="51.728939" lon="6.047877">
        <ele>28.314136</ele>
        <time>2024-03-31T13:28:03.998Z</time>
      </trkpt>
      <trkpt lat="51.728850" lon="6.047821">
        <ele>28.240141</ele>
        <time>2024-03-31T13:28:05.998Z</time>
      </trkpt>
      <trkpt lat="51.728755" lon="6.047757">
        <ele>27.913346</ele>
        <time>2024-03-31T13:28:07.998Z</time>
      </trkpt>
      <trkpt lat="51.728651" lon="6.047665">
        <ele>27.466274</ele>
        <time>2024-03-31T13:28:10.997Z</time>
      </trkpt>
      <trkpt lat="51.728548" lon="6.047704">
        <ele>27.067432</ele>
        <time>2024-03-31T13:28:13.997Z</time>
      </trkpt>
      <trkpt lat="51.728501" lon="6.047891">
        <ele>26.596193</ele>
        <time>2024-03-31T13:28:17.000Z</time>
      </trkpt>
      <trkpt lat="51.728428" lon="6.048146">
        <ele>25.940227</ele>
        <time>2024-03-31T13:28:20.000Z</time>
      </trkpt>
      <trkpt lat="51.728394" lon="6.048354">
        <ele>25.437903</ele>
        <time>2024-03-31T13:28:22.000Z</time>
      </trkpt>
      <trkpt lat="51.728344" lon="6.048547">
        <ele>24.949400</ele>
        <time>2024-03-31T13:28:24.000Z</time>
      </trkpt>
      <trkpt lat="51.728287" lon="6.048764">
        <ele>24.399006</ele>
        <time>2024-03-31T13:28:26.000Z</time>
      </trkpt>
      <trkpt lat="51.728232" lon="6.048985">
        <ele>23.842855</ele>
        <time>2024-03-31T13:28:28.000Z</time>
      </trkpt>
      <trkpt lat="51.728186" lon="6.049192">
        <ele>23.329325</ele>
        <time>2024-03-31T13:28:30.000Z</time>
      </trkpt>
      <trkpt lat="51.728134" lon="6.049429">
        <ele>22.742214</ele>
        <time>2024-03-31T13:28:32.000Z</time>
      </trkpt>
      <trkpt lat="51.728049" lon="6.049593">
        <ele>22.242874</ele>
        <time>2024-03-31T13:28:34.000Z</time>
      </trkpt>
      <trkpt lat="51.727998" lon="6.049786">
        <ele>21.752901</ele>
        <time>2024-03-31T13:28:36.000Z</time>
      </trkpt>
      <trkpt lat="51.728000" lon="6.049968">
        <ele>21.524151</ele>
        <time>2024-03-31T13:28:39.000Z</time>
      </trkpt>
      <trkpt lat="51.727941" lon="6.050195">
        <ele>21.925170</ele>
        <time>2024-03-31T13:28:40.999Z</time>
      </trkpt>
      <trkpt lat="51.727900" lon="6.050382">
        <ele>22.248315</ele>
        <time>2024-03-31T13:28:42.999Z</time>
      </trkpt>
      <trkpt lat="51.727865" lon="6.050530">
        <ele>22.506382</ele>
        <time>2024-03-31T13:28:44.999Z</time>
      </trkpt>
      <trkpt lat="51.727806" lon="6.050674">
        <ele>22.787635</ele>
        <time>2024-03-31T13:28:47.999Z</time>
      </trkpt>
      <trkpt lat="51.727776" lon="6.050845">
        <ele>23.077153</ele>
        <time>2024-03-31T13:28:49.999Z</time>
      </trkpt>
      <trkpt lat="51.727710" lon="6.051020">
        <ele>23.410916</ele>
        <time>2024-03-31T13:28:51.999Z</time>
      </trkpt>
      <trkpt lat="51.727685" lon="6.051224">
        <ele>23.749676</ele>
        <time>2024-03-31T13:28:53.999Z</time>
      </trkpt>
      <trkpt lat="51.727663" lon="6.051384">
        <ele>24.016662</ele>
        <time>2024-03-31T13:28:55.999Z</time>
      </trkpt>
      <trkpt lat="51.727608" lon="6.051539">
        <ele>24.307657</ele>
        <time>2024-03-31T13:28:57.999Z</time>
      </trkpt>
      <trkpt lat="51.727580" lon="6.051702">
        <ele>24.583208</ele>
        <time>2024-03-31T13:28:59.999Z</time>
      </trkpt>
      <trkpt lat="51.727515" lon="6.051853">
        <ele>24.882757</ele>
        <time>2024-03-31T13:29:02.999Z</time>
      </trkpt>
      <trkpt lat="51.727483" lon="6.052063">
        <ele>25.235051</ele>
        <time>2024-03-31T13:29:04.999Z</time>
      </trkpt>
      <trkpt lat="51.727446" lon="6.052263">
        <ele>25.575076</ele>
        <time>2024-03-31T13:29:06.999Z</time>
      </trkpt>
      <trkpt lat="51.727398" lon="6.052446">
        <ele>25.898813</ele>
        <time>2024-03-31T13:29:08.999Z</time>
      </trkpt>
      <trkpt lat="51.727353" lon="6.052638">
        <ele>26.265318</ele>
        <time>2024-03-31T13:29:10.999Z</time>
      </trkpt>
      <trkpt lat="51.727318" lon="6.052822">
        <ele>26.748411</ele>
        <time>2024-03-31T13:29:12.999Z</time>
      </trkpt>
      <trkpt lat="51.727280" lon="6.052992">
        <ele>27.202015</ele>
        <time>2024-03-31T13:29:14.999Z</time>
      </trkpt>
      <trkpt lat="51.727244" lon="6.053155">
        <ele>27.636346</ele>
        <time>2024-03-31T13:29:16.999Z</time>
      </trkpt>
      <trkpt lat="51.727195" lon="6.053331">
        <ele>28.120647</ele>
        <time>2024-03-31T13:29:18.999Z</time>
      </trkpt>
      <trkpt lat="51.727165" lon="6.053510">
        <ele>28.586062</ele>
        <time>2024-03-31T13:29:20.999Z</time>
      </trkpt>
      <trkpt lat="51.727148" lon="6.053671">
        <ele>28.995975</ele>
        <time>2024-03-31T13:29:22.999Z</time>
      </trkpt>
      <trkpt lat="51.727099" lon="6.053830">
        <ele>29.441703</ele>
        <time>2024-03-31T13:29:24.999Z</time>
      </trkpt>
      <trkpt lat="51.727039" lon="6.054059">
        <ele>30.065761</ele>
        <time>2024-03-31T13:29:27.998Z</time>
      </trkpt>
      <trkpt lat="51.727037" lon="6.054207">
        <ele>30.437306</ele>
        <time>2024-03-31T13:29:28.998Z</time>
      </trkpt>
      <trkpt lat="51.726983" lon="6.054345">
        <ele>30.846990</ele>
        <time>2024-03-31T13:29:30.998Z</time>
      </trkpt>
      <trkpt lat="51.726950" lon="6.054495">
        <ele>31.246508</ele>
        <time>2024-03-31T13:29:32.998Z</time>
      </trkpt>
      <trkpt lat="51.726887" lon="6.054680">
        <ele>31.776377</ele>
        <time>2024-03-31T13:29:35.998Z</time>
      </trkpt>
      <trkpt lat="51.726857" lon="6.054877">
        <ele>32.285541</ele>
        <time>2024-03-31T13:29:37.998Z</time>
      </trkpt>
      <trkpt lat="51.726803" lon="6.055045">
        <ele>32.760589</ele>
        <time>2024-03-31T13:29:39.998Z</time>
      </trkpt>
      <trkpt lat="51.726783" lon="6.055271">
        <ele>33.333576</ele>
        <time>2024-03-31T13:29:42.998Z</time>
      </trkpt>
      <trkpt lat="51.726701" lon="6.055451">
        <ele>33.371032</ele>
        <time>2024-03-31T13:29:44.998Z</time>
      </trkpt>
      <trkpt lat="51.726684" lon="6.055632">
        <ele>33.274396</ele>
        <time>2024-03-31T13:29:46.998Z</time>
      </trkpt>
      <trkpt lat="51.726642" lon="6.055778">
        <ele>33.189422</ele>
        <time>2024-03-31T13:29:48.998Z</time>
      </trkpt>
      <trkpt lat="51.726601" lon="6.055911">
        <ele>33.111002</ele>
        <time>2024-03-31T13:29:50.998Z</time>
      </trkpt>
      <trkpt lat="51.726554" lon="6.056068">
        <ele>33.018956</ele>
        <time>2024-03-31T13:29:52.998Z</time>
      </trkpt>
      <trkpt lat="51.726504" lon="6.056237">
        <ele>32.920093</ele>
        <time>2024-03-31T13:29:54.998Z</time>
      </trkpt>
      <trkpt lat="51.726465" lon="6.056379">
        <ele>32.838098</ele>
        <time>2024-03-31T13:29:56.998Z</time>
      </trkpt>
      <trkpt lat="51.726439" lon="6.056560">
        <ele>32.740019</ele>
        <time>2024-03-31T13:29:58.998Z</time>
      </trkpt>
      <trkpt lat="51.726384" lon="6.056722">
        <ele>32.642502</ele>
        <time>2024-03-31T13:30:00.998Z</time>
      </trkpt>
      <trkpt lat="51.726336" lon="6.056915">
        <ele>32.532718</ele>
        <time>2024-03-31T13:30:03.998Z</time>
      </trkpt>
      <trkpt lat="51.726291" lon="6.057092">
        <ele>32.431722</ele>
        <time>2024-03-31T13:30:05.998Z</time>
      </trkpt>
      <trkpt lat="51.726263" lon="6.057275">
        <ele>32.332218</ele>
        <time>2024-03-31T13:30:07.998Z</time>
      </trkpt>
      <trkpt lat="51.726215" lon="6.057438">
        <ele>32.236947</ele>
        <time>2024-03-31T13:30:09.998Z</time>
      </trkpt>
      <trkpt lat="51.726177" lon="6.057587">
        <ele>32.151889</ele>
        <time>2024-03-31T13:30:11.998Z</time>
      </trkpt>
      <trkpt lat="51.726144" lon="6.057810">
        <ele>32.030861</ele>
        <time>2024-03-31T13:30:14.997Z</time>
      </trkpt>
      <trkpt lat="51.726097" lon="6.057964">
        <ele>31.940238</ele>
        <time>2024-03-31T13:30:16.997Z</time>
      </trkpt>
      <trkpt lat="51.726045" lon="6.058125">
        <ele>31.873481</ele>
        <time>2024-03-31T13:30:18.997Z</time>
      </trkpt>
      <trkpt lat="51.726034" lon="6.058305">
        <ele>31.810764</ele>
        <time>2024-03-31T13:30:21.000Z</time>
      </trkpt>
      <trkpt lat="51.725957" lon="6.058391">
        <ele>31.758351</ele>
        <time>2024-03-31T13:30:23.000Z</time>
      </trkpt>
      <trkpt lat="51.725911" lon="6.058517">
        <ele>31.707637</ele>
        <time>2024-03-31T13:30:25.000Z</time>
      </trkpt>
      <trkpt lat="51.725866" lon="6.058722">
        <ele>31.632223</ele>
        <time>2024-03-31T13:30:27.000Z</time>
      </trkpt>
      <trkpt lat="51.725806" lon="6.058857">
        <ele>31.574609</ele>
        <time>2024-03-31T13:30:29.000Z</time>
      </trkpt>
      <trkpt lat="51.725785" lon="6.059003">
        <ele>31.522637</ele>
        <time>2024-03-31T13:30:31.000Z</time>
      </trkpt>
      <trkpt lat="51.725763" lon="6.059219">
        <ele>31.446734</ele>
        <time>2024-03-31T13:30:33.000Z</time>
      </trkpt>
      <trkpt lat="51.725729" lon="6.059370">
        <ele>31.391023</ele>
        <time>2024-03-31T13:30:35.000Z</time>
      </trkpt>
      <trkpt lat="51.725675" lon="6.059517">
        <ele>31.331761</ele>
        <time>2024-03-31T13:30:38.000Z</time>
      </trkpt>
      <trkpt lat="51.725630" lon="6.059754">
        <ele>31.245808</ele>
        <time>2024-03-31T13:30:40.000Z</time>
      </trkpt>
      <trkpt lat="51.725598" lon="6.059920">
        <ele>31.185525</ele>
        <time>2024-03-31T13:30:42.000Z</time>
      </trkpt>
      <trkpt lat="51.725556" lon="6.060082">
        <ele>31.124630</ele>
        <time>2024-03-31T13:30:45.999Z</time>
      </trkpt>
      <trkpt lat="51.725513" lon="6.060263">
        <ele>31.057410</ele>
        <time>2024-03-31T13:30:48.999Z</time>
      </trkpt>
      <trkpt lat="51.725482" lon="6.060404">
        <ele>31.005530</ele>
        <time>2024-03-31T13:30:49.999Z</time>
      </trkpt>
      <trkpt lat="51.725447" lon="6.060550">
        <ele>30.951246</ele>
        <time>2024-03-31T13:30:51.999Z</time>
      </trkpt>
      <trkpt lat="51.725425" lon="6.060727">
        <ele>31.044259</ele>
        <time>2024-03-31T13:30:55.999Z</time>
      </trkpt>
      <trkpt lat="51.725389" lon="6.060866">
        <ele>31.233495</ele>
        <time>2024-03-31T13:30:57.999Z</time>
      </trkpt>
      <trkpt lat="51.725318" lon="6.060971">
        <ele>31.428740</ele>
        <time>2024-03-31T13:30:59.999Z</time>
      </trkpt>
      <trkpt lat="51.725323" lon="6.061184">
        <ele>31.696470</ele>
        <time>2024-03-31T13:31:05.999Z</time>
      </trkpt>
      <trkpt lat="51.725247" lon="6.061338">
        <ele>31.943785</ele>
        <time>2024-03-31T13:31:07.999Z</time>
      </trkpt>
      <trkpt lat="51.725258" lon="6.061527">
        <ele>32.182223</ele>
        <time>2024-03-31T13:31:10.999Z</time>
      </trkpt>
      <trkpt lat="51.725169" lon="6.061680">
        <ele>32.445852</ele>
        <time>2024-03-31T13:31:12.999Z</time>
      </trkpt>
      <trkpt lat="51.725111" lon="6.061837">
        <ele>32.675459</ele>
        <time>2024-03-31T13:31:14.999Z</time>
      </trkpt>
      <trkpt lat="51.725114" lon="6.062070">
        <ele>32.968182</ele>
        <time>2024-03-31T13:31:17.999Z</time>
      </trkpt>
      <trkpt lat="51.725106" lon="6.062216">
        <ele>33.152281</ele>
        <time>2024-03-31T13:31:19.999Z</time>
      </trkpt>
      <trkpt lat="51.725077" lon="6.062389">
        <ele>33.377394</ele>
        <time>2024-03-31T13:31:21.999Z</time>
      </trkpt>
      <trkpt lat="51.725027" lon="6.062538">
        <ele>33.590244</ele>
        <time>2024-03-31T13:31:23.999Z</time>
      </trkpt>
      <trkpt lat="51.724972" lon="6.062731">
        <ele>33.857085</ele>
        <time>2024-03-31T13:31:25.999Z</time>
      </trkpt>
      <trkpt lat="51.724934" lon="6.062909">
        <ele>34.093568</ele>
        <time>2024-03-31T13:31:27.999Z</time>
      </trkpt>
      <trkpt lat="51.724902" lon="6.063052">
        <ele>34.284545</ele>
        <time>2024-03-31T13:31:29.998Z</time>
      </trkpt>
      <trkpt lat="51.724833" lon="6.063187">
        <ele>34.504384</ele>
        <time>2024-03-31T13:31:31.998Z</time>
      </trkpt>
      <trkpt lat="51.724797" lon="6.063392">
        <ele>34.612100</ele>
        <time>2024-03-31T13:31:33.998Z</time>
      </trkpt>
      <trkpt lat="51.724778" lon="6.063548">
        <ele>34.654117</ele>
        <time>2024-03-31T13:31:36.998Z</time>
      </trkpt>
      <trkpt lat="51.724732" lon="6.063731">
        <ele>34.706312</ele>
        <time>2024-03-31T13:31:38.998Z</time>
      </trkpt>
      <trkpt lat="51.724683" lon="6.063949">
        <ele>34.767602</ele>
        <time>2024-03-31T13:31:40.998Z</time>
      </trkpt>
      <trkpt lat="51.724613" lon="6.064118">
        <ele>34.821331</ele>
        <time>2024-03-31T13:31:43.998Z</time>
      </trkpt>
      <trkpt lat="51.724576" lon="6.064267">
        <ele>34.863756</ele>
        <time>2024-03-31T13:31:44.998Z</time>
      </trkpt>
      <trkpt lat="51.724556" lon="6.064462">
        <ele>34.915994</ele>
        <time>2024-03-31T13:31:46.998Z</time>
      </trkpt>
      <trkpt lat="51.724512" lon="6.064674">
        <ele>34.975084</ele>
        <time>2024-03-31T13:31:49.998Z</time>
      </trkpt>
      <trkpt lat="51.724447" lon="6.064872">
        <ele>35.034307</ele>
        <time>2024-03-31T13:31:51.998Z</time>
      </trkpt>
      <trkpt lat="51.724394" lon="6.065058">
        <ele>35.088416</ele>
        <time>2024-03-31T13:31:53.998Z</time>
      </trkpt>
      <trkpt lat="51.724350" lon="6.065232">
        <ele>35.138086</ele>
        <time>2024-03-31T13:31:55.998Z</time>
      </trkpt>
      <trkpt lat="51.724303" lon="6.065392">
        <ele>35.184886</ele>
        <time>2024-03-31T13:31:57.998Z</time>
      </trkpt>
      <trkpt lat="51.724264" lon="6.065545">
        <ele>35.228612</ele>
        <time>2024-03-31T13:31:59.998Z</time>
      </trkpt>
      <trkpt lat="51.724195" lon="6.065746">
        <ele>35.289345</ele>
        <time>2024-03-31T13:32:01.998Z</time>
      </trkpt>
      <trkpt lat="51.724166" lon="6.065906">
        <ele>35.333405</ele>
        <time>2024-03-31T13:32:03.998Z</time>
      </trkpt>
      <trkpt lat="51.724120" lon="6.066066">
        <ele>35.322684</ele>
        <time>2024-03-31T13:32:05.998Z</time>
      </trkpt>
      <trkpt lat="51.724084" lon="6.066273">
        <ele>35.303991</ele>
        <time>2024-03-31T13:32:07.998Z</time>
      </trkpt>
      <trkpt lat="51.724052" lon="6.066445">
        <ele>35.288376</ele>
        <time>2024-03-31T13:32:09.998Z</time>
      </trkpt>
      <trkpt lat="51.723999" lon="6.066624">
        <ele>35.271127</ele>
        <time>2024-03-31T13:32:11.998Z</time>
      </trkpt>
      <trkpt lat="51.723971" lon="6.066791">
        <ele>35.256085</ele>
        <time>2024-03-31T13:32:13.998Z</time>
      </trkpt>
      <trkpt lat="51.723935" lon="6.066962">
        <ele>35.240382</ele>
        <time>2024-03-31T13:32:15.998Z</time>
      </trkpt>
      <trkpt lat="51.723895" lon="6.067142">
        <ele>35.223756</ele>
        <time>2024-03-31T13:32:17.997Z</time>
      </trkpt>
      <trkpt lat="51.723852" lon="6.067339">
        <ele>35.205595</ele>
        <time>2024-03-31T13:32:21.997Z</time>
      </trkpt>
      <trkpt lat="51.723803" lon="6.067535">
        <ele>35.187219</ele>
        <time>2024-03-31T13:32:23.997Z</time>
      </trkpt>
      <trkpt lat="51.723739" lon="6.067771">
        <ele>35.164819</ele>
        <time>2024-03-31T13:32:25.997Z</time>
      </trkpt>
      <trkpt lat="51.723667" lon="6.067984">
        <ele>35.143722</ele>
        <time>2024-03-31T13:32:28.000Z</time>
      </trkpt>
      <trkpt lat="51.723633" lon="6.068151">
        <ele>35.128438</ele>
        <time>2024-03-31T13:32:30.000Z</time>
      </trkpt>
      <trkpt lat="51.723584" lon="6.068322">
        <ele>35.112057</ele>
        <time>2024-03-31T13:32:32.000Z</time>
      </trkpt>
      <trkpt lat="51.723525" lon="6.068515">
        <ele>35.093345</ele>
        <time>2024-03-31T13:32:34.000Z</time>
      </trkpt>
      <trkpt lat="51.723520" lon="6.068736">
        <ele>35.150124</ele>
        <time>2024-03-31T13:32:36.000Z</time>
      </trkpt>
      <trkpt lat="51.723457" lon="6.068913">
        <ele>35.263245</ele>
        <time>2024-03-31T13:32:38.000Z</time>
      </trkpt>
      <trkpt lat="51.723391" lon="6.069055">
        <ele>35.361620</ele>
        <time>2024-03-31T13:32:40.000Z</time>
      </trkpt>
      <trkpt lat="51.723372" lon="6.069213">
        <ele>35.450809</ele>
        <time>2024-03-31T13:32:42.000Z</time>
      </trkpt>
      <trkpt lat="51.723349" lon="6.069390">
        <ele>35.551027</ele>
        <time>2024-03-31T13:32:44.000Z</time>
      </trkpt>
      <trkpt lat="51.723299" lon="6.069554">
        <ele>35.652317</ele>
        <time>2024-03-31T13:32:46.000Z</time>
      </trkpt>
      <trkpt lat="51.723251" lon="6.069778">
        <ele>35.783663</ele>
        <time>2024-03-31T13:32:48.000Z</time>
      </trkpt>
      <trkpt lat="51.723201" lon="6.069941">
        <ele>35.884456</ele>
        <time>2024-03-31T13:32:50.000Z</time>
      </trkpt>
      <trkpt lat="51.723168" lon="6.070108">
        <ele>35.981592</ele>
        <time>2024-03-31T13:32:51.999Z</time>
      </trkpt>
      <trkpt lat="51.723124" lon="6.070285">
        <ele>36.087279</ele>
        <time>2024-03-31T13:32:53.999Z</time>
      </trkpt>
      <trkpt lat="51.723068" lon="6.070495">
        <ele>36.213974</ele>
        <time>2024-03-31T13:32:56.999Z</time>
      </trkpt>
      <trkpt lat="51.723054" lon="6.070696">
        <ele>36.326059</ele>
        <time>2024-03-31T13:32:58.999Z</time>
      </trkpt>
      <trkpt lat="51.723009" lon="6.070873">
        <ele>36.432083</ele>
        <time>2024-03-31T13:33:00.999Z</time>
      </trkpt>
      <trkpt lat="51.722956" lon="6.071017">
        <ele>36.524902</ele>
        <time>2024-03-31T13:33:02.999Z</time>
      </trkpt>
      <trkpt lat="51.722838" lon="6.071214">
        <ele>36.676757</ele>
        <time>2024-03-31T13:33:04.999Z</time>
      </trkpt>
      <trkpt lat="51.722798" lon="6.071415">
        <ele>36.484806</ele>
        <time>2024-03-31T13:33:06.999Z</time>
      </trkpt>
      <trkpt lat="51.722791" lon="6.071588">
        <ele>36.285049</ele>
        <time>2024-03-31T13:33:08.999Z</time>
      </trkpt>
      <trkpt lat="51.722804" lon="6.071782">
        <ele>36.060217</ele>
        <time>2024-03-31T13:33:10.999Z</time>
      </trkpt>
      <trkpt lat="51.722726" lon="6.071893">
        <ele>35.866812</ele>
        <time>2024-03-31T13:33:11.999Z</time>
      </trkpt>
      <trkpt lat="51.722646" lon="6.072061">
        <ele>35.622657</ele>
        <time>2024-03-31T13:33:13.999Z</time>
      </trkpt>
      <trkpt lat="51.722644" lon="6.072270">
        <ele>35.381815</ele>
        <time>2024-03-31T13:33:15.999Z</time>
      </trkpt>
      <trkpt lat="51.722625" lon="6.072480">
        <ele>35.137283</ele>
        <time>2024-03-31T13:33:17.999Z</time>
      </trkpt>
      <trkpt lat="51.722566" lon="6.072671">
        <ele>34.891366</ele>
        <time>2024-03-31T13:33:19.999Z</time>
      </trkpt>
      <trkpt lat="51.722513" lon="6.072855">
        <ele>34.657560</ele>
        <time>2024-03-31T13:33:21.999Z</time>
      </trkpt>
      <trkpt lat="51.722469" lon="6.073041">
        <ele>34.428153</ele>
        <time>2024-03-31T13:33:23.999Z</time>
      </trkpt>
      <trkpt lat="51.722443" lon="6.073201">
        <ele>34.237561</ele>
        <time>2024-03-31T13:33:25.999Z</time>
      </trkpt>
      <trkpt lat="51.722411" lon="6.073396">
        <ele>34.005128</ele>
        <time>2024-03-31T13:33:27.999Z</time>
      </trkpt>
      <trkpt lat="51.722319" lon="6.073560">
        <ele>33.750197</ele>
        <time>2024-03-31T13:33:29.999Z</time>
      </trkpt>
      <trkpt lat="51.722305" lon="6.073756">
        <ele>33.522865</ele>
        <time>2024-03-31T13:33:31.999Z</time>
      </trkpt>
      <trkpt lat="51.722258" lon="6.073918">
        <ele>33.378617</ele>
        <time>2024-03-31T13:33:33.999Z</time>
      </trkpt>
      <trkpt lat="51.722208" lon="6.074128">
        <ele>33.633639</ele>
        <time>2024-03-31T13:33:35.999Z</time>
      </trkpt>
      <trkpt lat="51.722159" lon="6.074327">
        <ele>33.876381</ele>
        <time>2024-03-31T13:33:37.998Z</time>
      </trkpt>
      <trkpt lat="51.722143" lon="6.074511">
        <ele>34.086998</ele>
        <time>2024-03-31T13:33:39.998Z</time>
      </trkpt>
      <trkpt lat="51.722070" lon="6.074686">
        <ele>34.326151</ele>
        <time>2024-03-31T13:33:41.998Z</time>
      </trkpt>
      <trkpt lat="51.722028" lon="6.074887">
        <ele>34.566607</ele>
        <time>2024-03-31T13:33:43.998Z</time>
      </trkpt>
      <trkpt lat="51.721948" lon="6.075005">
        <ele>34.764902</ele>
        <time>2024-03-31T13:33:45.998Z</time>
      </trkpt>
      <trkpt lat="51.721905" lon="6.075238">
        <ele>35.040491</ele>
        <time>2024-03-31T13:33:47.998Z</time>
      </trkpt>
      <trkpt lat="51.721882" lon="6.075422">
        <ele>35.253268</ele>
        <time>2024-03-31T13:33:49.998Z</time>
      </trkpt>
      <trkpt lat="51.721809" lon="6.075623">
        <ele>35.517383</ele>
        <time>2024-03-31T13:33:51.998Z</time>
      </trkpt>
      <trkpt lat="51.721718" lon="6.075828">
        <ele>35.803263</ele>
        <time>2024-03-31T13:33:53.998Z</time>
      </trkpt>
      <trkpt lat="51.721721" lon="6.076018">
        <ele>36.018709</ele>
        <time>2024-03-31T13:33:56.998Z</time>
      </trkpt>
      <trkpt lat="51.721680" lon="6.076168">
        <ele>36.204558</ele>
        <time>2024-03-31T13:33:57.998Z</time>
      </trkpt>
      <trkpt lat="51.721640" lon="6.076342">
        <ele>36.414940</ele>
        <time>2024-03-31T13:33:59.998Z</time>
      </trkpt>
      <trkpt lat="51.721586" lon="6.076579">
        <ele>36.561181</ele>
        <time>2024-03-31T13:34:01.998Z</time>
      </trkpt>
      <trkpt lat="51.721547" lon="6.076753">
        <ele>36.297350</ele>
        <time>2024-03-31T13:34:03.998Z</time>
      </trkpt>
      <trkpt lat="51.721524" lon="6.076922">
        <ele>36.050641</ele>
        <time>2024-03-31T13:34:05.998Z</time>
      </trkpt>
      <trkpt lat="51.721466" lon="6.077098">
        <ele>35.766399</ele>
        <time>2024-03-31T13:34:07.998Z</time>
      </trkpt>
      <trkpt lat="51.721440" lon="6.077270">
        <ele>35.513963</ele>
        <time>2024-03-31T13:34:09.998Z</time>
      </trkpt>
      <trkpt lat="51.721443" lon="6.077453">
        <ele>35.252947</ele>
        <time>2024-03-31T13:34:11.998Z</time>
      </trkpt>
      <trkpt lat="51.721381" lon="6.077566">
        <ele>35.037721</ele>
        <time>2024-03-31T13:34:13.998Z</time>
      </trkpt>
      <trkpt lat="51.721362" lon="6.077716">
        <ele>34.819422</ele>
        <time>2024-03-31T13:34:14.998Z</time>
      </trkpt>
      <trkpt lat="51.721317" lon="6.077907">
        <ele>34.528060</ele>
        <time>2024-03-31T13:34:16.998Z</time>
      </trkpt>
      <trkpt lat="51.721255" lon="6.078059">
        <ele>34.268574</ele>
        <time>2024-03-31T13:34:18.998Z</time>
      </trkpt>
      <trkpt lat="51.721238" lon="6.078216">
        <ele>34.041326</ele>
        <time>2024-03-31T13:34:20.998Z</time>
      </trkpt>
      <trkpt lat="51.721202" lon="6.078361">
        <ele>33.818595</ele>
        <time>2024-03-31T13:34:22.998Z</time>
      </trkpt>
      <trkpt lat="51.721124" lon="6.078520">
        <ele>33.529414</ele>
        <time>2024-03-31T13:34:24.997Z</time>
      </trkpt>
      <trkpt lat="51.721077" lon="6.078687">
        <ele>33.267880</ele>
        <time>2024-03-31T13:34:26.997Z</time>
      </trkpt>
      <trkpt lat="51.721040" lon="6.078855">
        <ele>33.013653</ele>
        <time>2024-03-31T13:34:28.997Z</time>
      </trkpt>
      <trkpt lat="51.721006" lon="6.079019">
        <ele>32.767070</ele>
        <time>2024-03-31T13:34:30.997Z</time>
      </trkpt>
      <trkpt lat="51.720968" lon="6.079169">
        <ele>32.536003</ele>
        <time>2024-03-31T13:34:33.000Z</time>
      </trkpt>
      <trkpt lat="51.720938" lon="6.079345">
        <ele>32.527384</ele>
        <time>2024-03-31T13:34:35.000Z</time>
      </trkpt>
      <trkpt lat="51.720920" lon="6.079507">
        <ele>32.556755</ele>
        <time>2024-03-31T13:34:38.000Z</time>
      </trkpt>
      <trkpt lat="51.720872" lon="6.079630">
        <ele>32.582698</ele>
        <time>2024-03-31T13:34:39.000Z</time>
      </trkpt>
      <trkpt lat="51.720850" lon="6.079831">
        <ele>32.619124</ele>
        <time>2024-03-31T13:34:41.000Z</time>
      </trkpt>
      <trkpt lat="51.720820" lon="6.079995">
        <ele>32.649641</ele>
        <time>2024-03-31T13:34:43.000Z</time>
      </trkpt>
      <trkpt lat="51.720739" lon="6.080148">
        <ele>32.685557</ele>
        <time>2024-03-31T13:34:45.000Z</time>
      </trkpt>
      <trkpt lat="51.720710" lon="6.080334">
        <ele>32.719786</ele>
        <time>2024-03-31T13:34:47.000Z</time>
      </trkpt>
      <trkpt lat="51.720673" lon="6.080518">
        <ele>32.754309</ele>
        <time>2024-03-31T13:34:49.000Z</time>
      </trkpt>
      <trkpt lat="51.720662" lon="6.080663">
        <ele>32.780379</ele>
        <time>2024-03-31T13:34:51.000Z</time>
      </trkpt>
      <trkpt lat="51.720613" lon="6.080814">
        <ele>32.810800</ele>
        <time>2024-03-31T13:34:53.000Z</time>
      </trkpt>
      <trkpt lat="51.720578" lon="6.081006">
        <ele>32.846517</ele>
        <time>2024-03-31T13:34:55.000Z</time>
      </trkpt>
      <trkpt lat="51.720531" lon="6.081183">
        <ele>32.880884</ele>
        <time>2024-03-31T13:34:57.000Z</time>
      </trkpt>
      <trkpt lat="51.720494" lon="6.081348">
        <ele>32.912200</ele>
        <time>2024-03-31T13:34:59.000Z</time>
      </trkpt>
      <trkpt lat="51.720478" lon="6.081496">
        <ele>32.939012</ele>
        <time>2024-03-31T13:35:02.999Z</time>
      </trkpt>
      <trkpt lat="51.720427" lon="6.081744">
        <ele>32.985645</ele>
        <time>2024-03-31T13:35:05.999Z</time>
      </trkpt>
      <trkpt lat="51.720371" lon="6.081872">
        <ele>33.013610</ele>
        <time>2024-03-31T13:35:06.999Z</time>
      </trkpt>
      <trkpt lat="51.720325" lon="6.082019">
        <ele>32.855458</ele>
        <time>2024-03-31T13:35:07.999Z</time>
      </trkpt>
      <trkpt lat="51.720297" lon="6.082237">
        <ele>32.602620</ele>
        <time>2024-03-31T13:35:09.999Z</time>
      </trkpt>
      <trkpt lat="51.720237" lon="6.082461">
        <ele>32.325472</ele>
        <time>2024-03-31T13:35:11.999Z</time>
      </trkpt>
      <trkpt lat="51.720177" lon="6.082641">
        <ele>32.093341</ele>
        <time>2024-03-31T13:35:13.999Z</time>
      </trkpt>
      <trkpt lat="51.720140" lon="6.082861">
        <ele>31.834453</ele>
        <time>2024-03-31T13:35:15.999Z</time>
      </trkpt>
      <trkpt lat="51.720084" lon="6.083052">
        <ele>31.594475</ele>
        <time>2024-03-31T13:35:17.999Z</time>
      </trkpt>
      <trkpt lat="51.720041" lon="6.083270">
        <ele>31.334655</ele>
        <time>2024-03-31T13:35:19.999Z</time>
      </trkpt>
      <trkpt lat="51.719989" lon="6.083462">
        <ele>31.096681</ele>
        <time>2024-03-31T13:35:21.999Z</time>
      </trkpt>
      <trkpt lat="51.719933" lon="6.083629">
        <ele>30.881023</ele>
        <time>2024-03-31T13:35:23.999Z</time>
      </trkpt>
      <trkpt lat="51.719896" lon="6.083801">
        <ele>30.674247</ele>
        <time>2024-03-31T13:35:25.999Z</time>
      </trkpt>
      <trkpt lat="51.719886" lon="6.084010">
        <ele>30.436186</ele>
        <time>2024-03-31T13:35:27.999Z</time>
      </trkpt>
      <trkpt lat="51.719827" lon="6.084200">
        <ele>30.194820</ele>
        <time>2024-03-31T13:35:29.999Z</time>
      </trkpt>
      <trkpt lat="51.719786" lon="6.084383">
        <ele>29.973819</ele>
        <time>2024-03-31T13:35:31.999Z</time>
      </trkpt>
      <trkpt lat="51.719744" lon="6.084566">
        <ele>29.752188</ele>
        <time>2024-03-31T13:35:33.999Z</time>
      </trkpt>
      <trkpt lat="51.719706" lon="6.084746">
        <ele>29.568345</ele>
        <time>2024-03-31T13:35:35.999Z</time>
      </trkpt>
      <trkpt lat="51.719635" lon="6.084956">
        <ele>29.344062</ele>
        <time>2024-03-31T13:35:37.999Z</time>
      </trkpt>
      <trkpt lat="51.719594" lon="6.085163">
        <ele>29.140324</ele>
        <time>2024-03-31T13:35:39.999Z</time>
      </trkpt>
      <trkpt lat="51.719578" lon="6.085359">
        <ele>28.954987</ele>
        <time>2024-03-31T13:35:41.999Z</time>
      </trkpt>
      <trkpt lat="51.719538" lon="6.085542">
        <ele>28.773060</ele>
        <time>2024-03-31T13:35:43.999Z</time>
      </trkpt>
      <trkpt lat="51.719479" lon="6.085739">
        <ele>28.567924</ele>
        <time>2024-03-31T13:35:45.999Z</time>
      </trkpt>
      <trkpt lat="51.719412" lon="6.085928">
        <ele>28.363779</ele>
        <time>2024-03-31T13:35:47.998Z</time>
      </trkpt>
      <trkpt lat="51.719336" lon="6.086110">
        <ele>28.158013</ele>
        <time>2024-03-31T13:35:49.998Z</time>
      </trkpt>
      <trkpt lat="51.719267" lon="6.086347">
        <ele>27.912513</ele>
        <time>2024-03-31T13:35:51.998Z</time>
      </trkpt>
      <trkpt lat="51.719211" lon="6.086556">
        <ele>27.699035</ele>
        <time>2024-03-31T13:35:53.998Z</time>
      </trkpt>
      <trkpt lat="51.719139" lon="6.086732">
        <ele>27.501306</ele>
        <time>2024-03-31T13:35:55.998Z</time>
      </trkpt>
      <trkpt lat="51.719072" lon="6.086930">
        <ele>27.289795</ele>
        <time>2024-03-31T13:35:57.998Z</time>
      </trkpt>
      <trkpt lat="51.719016" lon="6.087127">
        <ele>27.086593</ele>
        <time>2024-03-31T13:35:59.998Z</time>
      </trkpt>
      <trkpt lat="51.719000" lon="6.087322">
        <ele>26.919731</ele>
        <time>2024-03-31T13:36:01.998Z</time>
      </trkpt>
      <trkpt lat="51.718979" lon="6.087464">
        <ele>26.807816</ele>
        <time>2024-03-31T13:36:03.998Z</time>
      </trkpt>
      <trkpt lat="51.718950" lon="6.087617">
        <ele>26.685160</ele>
        <time>2024-03-31T13:36:05.998Z</time>
      </trkpt>
      <trkpt lat="51.718933" lon="6.087806">
        <ele>26.538754</ele>
        <time>2024-03-31T13:36:08.998Z</time>
      </trkpt>
      <trkpt lat="51.718932" lon="6.087970">
        <ele>26.413026</ele>
        <time>2024-03-31T13:36:19.998Z</time>
      </trkpt>
      <trkpt lat="51.718862" lon="6.088070">
        <ele>26.297356</ele>
        <time>2024-03-31T13:36:23.998Z</time>
      </trkpt>
      <trkpt lat="51.718776" lon="6.087991">
        <ele>26.174913</ele>
        <time>2024-03-31T13:36:26.998Z</time>
      </trkpt>
      <trkpt lat="51.718686" lon="6.087872">
        <ele>26.030953</ele>
        <time>2024-03-31T13:36:29.998Z</time>
      </trkpt>
      <trkpt lat="51.718575" lon="6.087774">
        <ele>25.874397</ele>
        <time>2024-03-31T13:36:33.997Z</time>
      </trkpt>
      <trkpt lat="51.718499" lon="6.087684">
        <ele>25.757760</ele>
        <time>2024-03-31T13:36:35.997Z</time>
      </trkpt>
      <trkpt lat="51.718364" lon="6.087586">
        <ele>25.574594</ele>
        <time>2024-03-31T13:36:39.000Z</time>
      </trkpt>
      <trkpt lat="51.718273" lon="6.087488">
        <ele>25.439228</ele>
        <time>2024-03-31T13:36:41.000Z</time>
      </trkpt>
      <trkpt lat="51.718179" lon="6.087397">
        <ele>25.303596</ele>
        <time>2024-03-31T13:36:43.000Z</time>
      </trkpt>
      <trkpt lat="51.718095" lon="6.087315">
        <ele>25.182123</ele>
        <time>2024-03-31T13:36:45.000Z</time>
      </trkpt>
      <trkpt lat="51.718018" lon="6.087224">
        <ele>25.064034</ele>
        <time>2024-03-31T13:36:47.000Z</time>
      </trkpt>
      <trkpt lat="51.717936" lon="6.087141">
        <ele>24.944267</ele>
        <time>2024-03-31T13:36:49.000Z</time>
      </trkpt>
      <trkpt lat="51.717842" lon="6.087040">
        <ele>24.804536</ele>
        <time>2024-03-31T13:36:51.000Z</time>
      </trkpt>
      <trkpt lat="51.717740" lon="6.086977">
        <ele>24.765181</ele>
        <time>2024-03-31T13:36:54.000Z</time>
      </trkpt>
      <trkpt lat="51.717653" lon="6.086893">
        <ele>24.755947</ele>
        <time>2024-03-31T13:36:56.000Z</time>
      </trkpt>
      <trkpt lat="51.717537" lon="6.086793">
        <ele>24.743970</ele>
        <time>2024-03-31T13:36:59.000Z</time>
      </trkpt>
      <trkpt lat="51.717445" lon="6.086713">
        <ele>24.734452</ele>
        <time>2024-03-31T13:37:01.000Z</time>
      </trkpt>
      <trkpt lat="51.717347" lon="6.086636">
        <ele>24.724525</ele>
        <time>2024-03-31T13:37:03.000Z</time>
      </trkpt>
      <trkpt lat="51.717252" lon="6.086566">
        <ele>24.715014</ele>
        <time>2024-03-31T13:37:04.999Z</time>
      </trkpt>
      <trkpt lat="51.717152" lon="6.086502">
        <ele>24.705216</ele>
        <time>2024-03-31T13:37:06.999Z</time>
      </trkpt>
      <trkpt lat="51.717064" lon="6.086398">
        <ele>24.695283</ele>
        <time>2024-03-31T13:37:08.999Z</time>
      </trkpt>
      <trkpt lat="51.716989" lon="6.086298">
        <ele>24.686423</ele>
        <time>2024-03-31T13:37:10.999Z</time>
      </trkpt>
      <trkpt lat="51.716880" lon="6.086212">
        <ele>24.675373</ele>
        <time>2024-03-31T13:37:12.999Z</time>
      </trkpt>
      <trkpt lat="51.716801" lon="6.086144">
        <ele>24.667218</ele>
        <time>2024-03-31T13:37:14.999Z</time>
      </trkpt>
      <trkpt lat="51.716691" lon="6.086020">
        <ele>24.654998</ele>
        <time>2024-03-31T13:37:17.999Z</time>
      </trkpt>
      <trkpt lat="51.716601" lon="6.085941">
        <ele>24.645668</ele>
        <time>2024-03-31T13:37:19.999Z</time>
      </trkpt>
      <trkpt lat="51.716508" lon="6.085875">
        <ele>24.636415</ele>
        <time>2024-03-31T13:37:21.999Z</time>
      </trkpt>
      <trkpt lat="51.716415" lon="6.085796">
        <ele>24.626843</ele>
        <time>2024-03-31T13:37:23.999Z</time>
      </trkpt>
      <trkpt lat="51.716289" lon="6.085647">
        <ele>24.612617</ele>
        <time>2024-03-31T13:37:26.999Z</time>
      </trkpt>
      <trkpt lat="51.716192" lon="6.085565">
        <ele>24.614919</ele>
        <time>2024-03-31T13:37:28.999Z</time>
      </trkpt>
      <trkpt lat="51.716103" lon="6.085482">
        <ele>24.623711</ele>
        <time>2024-03-31T13:37:30.999Z</time>
      </trkpt>
      <trkpt lat="51.716021" lon="6.085323">
        <ele>24.634673</ele>
        <time>2024-03-31T13:37:32.999Z</time>
      </trkpt>
      <trkpt lat="51.715956" lon="6.085211">
        <ele>24.642805</ele>
        <time>2024-03-31T13:37:34.999Z</time>
      </trkpt>
      <trkpt lat="51.715876" lon="6.085033">
        <ele>24.654458</ele>
        <time>2024-03-31T13:37:36.999Z</time>
      </trkpt>
      <trkpt lat="51.715808" lon="6.084872">
        <ele>24.664784</ele>
        <time>2024-03-31T13:37:38.999Z</time>
      </trkpt>
      <trkpt lat="51.715753" lon="6.084717">
        <ele>24.674249</ele>
        <time>2024-03-31T13:37:40.999Z</time>
      </trkpt>
      <trkpt lat="51.715696" lon="6.084562">
        <ele>24.683800</ele>
        <time>2024-03-31T13:37:42.999Z</time>
      </trkpt>
      <trkpt lat="51.715639" lon="6.084387">
        <ele>24.694277</ele>
        <time>2024-03-31T13:37:44.999Z</time>
      </trkpt>
      <trkpt lat="51.715592" lon="6.084190">
        <ele>24.705464</ele>
        <time>2024-03-31T13:37:46.999Z</time>
      </trkpt>
      <trkpt lat="51.715554" lon="6.084013">
        <ele>24.715390</ele>
        <time>2024-03-31T13:37:48.999Z</time>
      </trkpt>
      <trkpt lat="51.715522" lon="6.083849">
        <ele>24.724502</ele>
        <time>2024-03-31T13:37:50.998Z</time>
      </trkpt>
      <trkpt lat="51.715487" lon="6.083670">
        <ele>24.734448</ele>
        <time>2024-03-31T13:37:52.998Z</time>
      </trkpt>
      <trkpt lat="51.715471" lon="6.083498">
        <ele>24.743665</ele>
        <time>2024-03-31T13:37:54.998Z</time>
      </trkpt>
      <trkpt lat="51.715454" lon="6.083344">
        <ele>24.751954</ele>
        <time>2024-03-31T13:37:56.998Z</time>
      </trkpt>
      <trkpt lat="51.715429" lon="6.083175">
        <ele>24.761162</ele>
        <time>2024-03-31T13:37:58.998Z</time>
      </trkpt>
      <trkpt lat="51.715424" lon="6.083000">
        <ele>24.716670</ele>
        <time>2024-03-31T13:38:00.998Z</time>
      </trkpt>
      <trkpt lat="51.715385" lon="6.082813">
        <ele>24.653463</ele>
        <time>2024-03-31T13:38:02.998Z</time>
      </trkpt>
      <trkpt lat="51.715339" lon="6.082618">
        <ele>24.586621</ele>
        <time>2024-03-31T13:38:04.998Z</time>
      </trkpt>
      <trkpt lat="51.715326" lon="6.082443">
        <ele>24.530159</ele>
        <time>2024-03-31T13:38:06.998Z</time>
      </trkpt>
      <trkpt lat="51.715293" lon="6.082254">
        <ele>24.467255</ele>
        <time>2024-03-31T13:38:08.998Z</time>
      </trkpt>
      <trkpt lat="51.715246" lon="6.082061">
        <ele>24.400824</ele>
        <time>2024-03-31T13:38:10.998Z</time>
      </trkpt>
      <trkpt lat="51.715211" lon="6.081875">
        <ele>24.338552</ele>
        <time>2024-03-31T13:38:12.998Z</time>
      </trkpt>
      <trkpt lat="51.715162" lon="6.081681">
        <ele>24.271439</ele>
        <time>2024-03-31T13:38:14.998Z</time>
      </trkpt>
      <trkpt lat="51.715135" lon="6.081505">
        <ele>24.213356</ele>
        <time>2024-03-31T13:38:16.998Z</time>
      </trkpt>
      <trkpt lat="51.715097" lon="6.081328">
        <ele>24.153347</ele>
        <time>2024-03-31T13:38:18.998Z</time>
      </trkpt>
      <trkpt lat="51.715059" lon="6.081153">
        <ele>24.093943</ele>
        <time>2024-03-31T13:38:20.998Z</time>
      </trkpt>
      <trkpt lat="51.715052" lon="6.080976">
        <ele>24.037126</ele>
        <time>2024-03-31T13:38:22.998Z</time>
      </trkpt>
      <trkpt lat="51.715023" lon="6.080811">
        <ele>23.982183</ele>
        <time>2024-03-31T13:38:24.998Z</time>
      </trkpt>
      <trkpt lat="51.714989" lon="6.080661">
        <ele>23.931016</ele>
        <time>2024-03-31T13:38:26.998Z</time>
      </trkpt>
      <trkpt lat="51.714945" lon="6.080502">
        <ele>23.875231</ele>
        <time>2024-03-31T13:38:28.998Z</time>
      </trkpt>
      <trkpt lat="51.714905" lon="6.080294">
        <ele>23.671187</ele>
        <time>2024-03-31T13:38:31.998Z</time>
      </trkpt>
      <trkpt lat="51.714839" lon="6.080102">
        <ele>23.255756</ele>
        <time>2024-03-31T13:38:33.998Z</time>
      </trkpt>
      <trkpt lat="51.714762" lon="6.079989">
        <ele>22.937953</ele>
        <time>2024-03-31T13:38:35.997Z</time>
      </trkpt>
      <trkpt lat="51.714659" lon="6.079948">
        <ele>22.613995</ele>
        <time>2024-03-31T13:38:37.997Z</time>
      </trkpt>
      <trkpt lat="51.714539" lon="6.079883">
        <ele>22.227462</ele>
        <time>2024-03-31T13:38:39.997Z</time>
      </trkpt>
      <trkpt lat="51.714418" lon="6.079819">
        <ele>21.838626</ele>
        <time>2024-03-31T13:38:41.997Z</time>
      </trkpt>
      <trkpt lat="51.714317" lon="6.079755">
        <ele>21.507281</ele>
        <time>2024-03-31T13:38:43.997Z</time>
      </trkpt>
      <trkpt lat="51.714208" lon="6.079692">
        <ele>21.153726</ele>
        <time>2024-03-31T13:38:46.000Z</time>
      </trkpt>
      <trkpt lat="51.714115" lon="6.079580">
        <ele>20.799383</ele>
        <time>2024-03-31T13:38:49.000Z</time>
      </trkpt>
      <trkpt lat="51.713991" lon="6.079475">
        <ele>20.371770</ele>
        <time>2024-03-31T13:38:52.000Z</time>
      </trkpt>
      <trkpt lat="51.713896" lon="6.079433">
        <ele>20.070980</ele>
        <time>2024-03-31T13:38:54.000Z</time>
      </trkpt>
      <trkpt lat="51.713807" lon="6.079480">
        <ele>19.785020</ele>
        <time>2024-03-31T13:38:56.000Z</time>
      </trkpt>
      <trkpt lat="51.713713" lon="6.079518">
        <ele>19.489103</ele>
        <time>2024-03-31T13:38:58.000Z</time>
      </trkpt>
      <trkpt lat="51.713635" lon="6.079599">
        <ele>19.205867</ele>
        <time>2024-03-31T13:39:00.000Z</time>
      </trkpt>
      <trkpt lat="51.713557" lon="6.079671">
        <ele>18.931472</ele>
        <time>2024-03-31T13:39:02.000Z</time>
      </trkpt>
      <trkpt lat="51.713454" lon="6.079756">
        <ele>18.578207</ele>
        <time>2024-03-31T13:39:05.000Z</time>
      </trkpt>
      <trkpt lat="51.713365" lon="6.079786">
        <ele>18.315003</ele>
        <time>2024-03-31T13:39:08.000Z</time>
      </trkpt>
      <trkpt lat="51.713242" lon="6.079789">
        <ele>18.075958</ele>
        <time>2024-03-31T13:39:12.000Z</time>
      </trkpt>
      <trkpt lat="51.713135" lon="6.079813">
        <ele>17.866033</ele>
        <time>2024-03-31T13:39:13.999Z</time>
      </trkpt>
      <trkpt lat="51.713035" lon="6.079787">
        <ele>17.669204</ele>
        <time>2024-03-31T13:39:15.999Z</time>
      </trkpt>
      <trkpt lat="51.712940" lon="6.079750">
        <ele>17.479298</ele>
        <time>2024-03-31T13:39:17.999Z</time>
      </trkpt>
      <trkpt lat="51.712840" lon="6.079734">
        <ele>17.284021</ele>
        <time>2024-03-31T13:39:19.999Z</time>
      </trkpt>
      <trkpt lat="51.712743" lon="6.079690">
        <ele>17.088224</ele>
        <time>2024-03-31T13:39:21.999Z</time>
      </trkpt>
      <trkpt lat="51.712635" lon="6.079637">
        <ele>16.868867</ele>
        <time>2024-03-31T13:39:23.999Z</time>
      </trkpt>
      <trkpt lat="51.712541" lon="6.079565">
        <ele>16.666676</ele>
        <time>2024-03-31T13:39:25.999Z</time>
      </trkpt>
      <trkpt lat="51.712451" lon="6.079563">
        <ele>16.491768</ele>
        <time>2024-03-31T13:39:27.999Z</time>
      </trkpt>
      <trkpt lat="51.712359" lon="6.079555">
        <ele>16.312731</ele>
        <time>2024-03-31T13:39:29.999Z</time>
      </trkpt>
      <trkpt lat="51.712258" lon="6.079487">
        <ele>16.100071</ele>
        <time>2024-03-31T13:39:32.999Z</time>
      </trkpt>
      <trkpt lat="51.712154" lon="6.079458">
        <ele>15.894980</ele>
        <time>2024-03-31T13:39:36.999Z</time>
      </trkpt>
      <trkpt lat="51.712050" lon="6.079460">
        <ele>15.692870</ele>
        <time>2024-03-31T13:39:40.999Z</time>
      </trkpt>
      <trkpt lat="51.711995" lon="6.079303">
        <ele>15.475711</ele>
        <time>2024-03-31T13:39:48.999Z</time>
      </trkpt>
      <trkpt lat="51.711982" lon="6.079132">
        <ele>15.268273</ele>
        <time>2024-03-31T13:39:50.999Z</time>
      </trkpt>
      <trkpt lat="51.711899" lon="6.079049">
        <ele>15.078533</ele>
        <time>2024-03-31T13:39:52.999Z</time>
      </trkpt>
      <trkpt lat="51.711801" lon="6.079051">
        <ele>14.888081</ele>
        <time>2024-03-31T13:39:54.999Z</time>
      </trkpt>
      <trkpt lat="51.711703" lon="6.079042">
        <ele>14.798562</ele>
        <time>2024-03-31T13:39:56.999Z</time>
      </trkpt>
      <trkpt lat="51.711606" lon="6.079030">
        <ele>14.739034</ele>
        <time>2024-03-31T13:39:58.998Z</time>
      </trkpt>
      <trkpt lat="51.711511" lon="6.079028">
        <ele>14.680898</ele>
        <time>2024-03-31T13:40:00.998Z</time>
      </trkpt>
      <trkpt lat="51.711415" lon="6.079034">
        <ele>14.622112</ele>
        <time>2024-03-31T13:40:02.998Z</time>
      </trkpt>
      <trkpt lat="51.711316" lon="6.079025">
        <ele>14.561438</ele>
        <time>2024-03-31T13:40:04.998Z</time>
      </trkpt>
      <trkpt lat="51.711212" lon="6.079009">
        <ele>14.497512</ele>
        <time>2024-03-31T13:40:06.998Z</time>
      </trkpt>
      <trkpt lat="51.711106" lon="6.078988">
        <ele>14.432164</ele>
        <time>2024-03-31T13:40:08.998Z</time>
      </trkpt>
      <trkpt lat="51.711003" lon="6.078984">
        <ele>14.369120</ele>
        <time>2024-03-31T13:40:10.998Z</time>
      </trkpt>
      <trkpt lat="51.710902" lon="6.078971">
        <ele>14.307122</ele>
        <time>2024-03-31T13:40:12.998Z</time>
      </trkpt>
      <trkpt lat="51.710810" lon="6.078981">
        <ele>14.250699</ele>
        <time>2024-03-31T13:40:14.998Z</time>
      </trkpt>
      <trkpt lat="51.710729" lon="6.079158">
        <ele>14.167271</ele>
        <time>2024-03-31T13:40:17.998Z</time>
      </trkpt>
      <trkpt lat="51.710737" lon="6.079322">
        <ele>14.104898</ele>
        <time>2024-03-31T13:40:19.998Z</time>
      </trkpt>
      <trkpt lat="51.710726" lon="6.079483">
        <ele>14.043484</ele>
        <time>2024-03-31T13:40:21.998Z</time>
      </trkpt>
      <trkpt lat="51.710723" lon="6.079654">
        <ele>13.978623</ele>
        <time>2024-03-31T13:40:23.998Z</time>
      </trkpt>
      <trkpt lat="51.710716" lon="6.079821">
        <ele>13.915160</ele>
        <time>2024-03-31T13:40:25.998Z</time>
      </trkpt>
      <trkpt lat="51.710706" lon="6.079986">
        <ele>13.852301</ele>
        <time>2024-03-31T13:40:27.998Z</time>
      </trkpt>
      <trkpt lat="51.710697" lon="6.080139">
        <ele>13.794030</ele>
        <time>2024-03-31T13:40:29.998Z</time>
      </trkpt>
      <trkpt lat="51.710687" lon="6.080354">
        <ele>13.707134</ele>
        <time>2024-03-31T13:40:32.998Z</time>
      </trkpt>
      <trkpt lat="51.710724" lon="6.080572">
        <ele>13.607739</ele>
        <time>2024-03-31T13:40:35.998Z</time>
      </trkpt>
      <trkpt lat="51.710759" lon="6.080728">
        <ele>13.534780</ele>
        <time>2024-03-31T13:40:37.998Z</time>
      </trkpt>
      <trkpt lat="51.710779" lon="6.080897">
        <ele>13.459120</ele>
        <time>2024-03-31T13:40:39.998Z</time>
      </trkpt>
      <trkpt lat="51.710810" lon="6.081063">
        <ele>13.382879</ele>
        <time>2024-03-31T13:40:41.998Z</time>
      </trkpt>
      <trkpt lat="51.710836" lon="6.081228">
        <ele>13.308012</ele>
        <time>2024-03-31T13:40:43.997Z</time>
      </trkpt>
      <trkpt lat="51.710852" lon="6.081403">
        <ele>13.230223</ele>
        <time>2024-03-31T13:40:45.997Z</time>
      </trkpt>
      <trkpt lat="51.710867" lon="6.081576">
        <ele>13.153406</ele>
        <time>2024-03-31T13:40:47.997Z</time>
      </trkpt>
      <trkpt lat="51.710878" lon="6.081751">
        <ele>13.076056</ele>
        <time>2024-03-31T13:40:49.997Z</time>
      </trkpt>
      <trkpt lat="51.710881" lon="6.081927">
        <ele>12.998632</ele>
        <time>2024-03-31T13:40:52.000Z</time>
      </trkpt>
      <trkpt lat="51.710896" lon="6.082097">
        <ele>12.923122</ele>
        <time>2024-03-31T13:40:54.000Z</time>
      </trkpt>
      <trkpt lat="51.710921" lon="6.082269">
        <ele>12.845433</ele>
        <time>2024-03-31T13:40:56.000Z</time>
      </trkpt>
      <trkpt lat="51.710968" lon="6.082431">
        <ele>12.766772</ele>
        <time>2024-03-31T13:40:58.000Z</time>
      </trkpt>
      <trkpt lat="51.711056" lon="6.082548">
        <ele>12.685856</ele>
        <time>2024-03-31T13:41:00.000Z</time>
      </trkpt>
      <trkpt lat="51.711146" lon="6.082637">
        <ele>12.610947</ele>
        <time>2024-03-31T13:41:02.000Z</time>
      </trkpt>
      <trkpt lat="51.711250" lon="6.082709">
        <ele>12.530636</ele>
        <time>2024-03-31T13:41:04.000Z</time>
      </trkpt>
      <trkpt lat="51.711359" lon="6.082763">
        <ele>12.463992</ele>
        <time>2024-03-31T13:41:06.000Z</time>
      </trkpt>
      <trkpt lat="51.711464" lon="6.082842">
        <ele>12.445886</ele>
        <time>2024-03-31T13:41:08.000Z</time>
      </trkpt>
      <trkpt lat="51.711556" lon="6.082946">
        <ele>12.428331</ele>
        <time>2024-03-31T13:41:10.000Z</time>
      </trkpt>
      <trkpt lat="51.711611" lon="6.083102">
        <ele>12.410949</ele>
        <time>2024-03-31T13:41:12.000Z</time>
      </trkpt>
      <trkpt lat="51.711665" lon="6.083271">
        <ele>12.392535</ele>
        <time>2024-03-31T13:41:14.000Z</time>
      </trkpt>
      <trkpt lat="51.711688" lon="6.083457">
        <ele>12.374168</ele>
        <time>2024-03-31T13:41:15.999Z</time>
      </trkpt>
      <trkpt lat="51.711695" lon="6.083637">
        <ele>12.356702</ele>
        <time>2024-03-31T13:41:17.999Z</time>
      </trkpt>
      <trkpt lat="51.711696" lon="6.083811">
        <ele>12.339851</ele>
        <time>2024-03-31T13:41:19.999Z</time>
      </trkpt>
      <trkpt lat="51.711693" lon="6.083973">
        <ele>12.324156</ele>
        <time>2024-03-31T13:41:21.999Z</time>
      </trkpt>
      <trkpt lat="51.711679" lon="6.084141">
        <ele>12.307740</ele>
        <time>2024-03-31T13:41:23.999Z</time>
      </trkpt>
      <trkpt lat="51.711667" lon="6.084314">
        <ele>12.290882</ele>
        <time>2024-03-31T13:41:25.999Z</time>
      </trkpt>
      <trkpt lat="51.711653" lon="6.084483">
        <ele>12.274370</ele>
        <time>2024-03-31T13:41:27.999Z</time>
      </trkpt>
      <trkpt lat="51.711641" lon="6.084648">
        <ele>12.258281</ele>
        <time>2024-03-31T13:41:29.999Z</time>
      </trkpt>
      <trkpt lat="51.711634" lon="6.084830">
        <ele>12.240622</ele>
        <time>2024-03-31T13:41:31.999Z</time>
      </trkpt>
      <trkpt lat="51.711634" lon="6.085005">
        <ele>12.223675</ele>
        <time>2024-03-31T13:41:33.999Z</time>
      </trkpt>
      <trkpt lat="51.711619" lon="6.085164">
        <ele>12.208100</ele>
        <time>2024-03-31T13:41:35.999Z</time>
      </trkpt>
      <trkpt lat="51.711606" lon="6.085342">
        <ele>12.190743</ele>
        <time>2024-03-31T13:41:37.999Z</time>
      </trkpt>
      <trkpt lat="51.711597" lon="6.085518">
        <ele>12.202930</ele>
        <time>2024-03-31T13:41:39.999Z</time>
      </trkpt>
      <trkpt lat="51.711589" lon="6.085694">
        <ele>12.223558</ele>
        <time>2024-03-31T13:41:41.999Z</time>
      </trkpt>
      <trkpt lat="51.711584" lon="6.085863">
        <ele>12.243335</ele>
        <time>2024-03-31T13:41:43.999Z</time>
      </trkpt>
      <trkpt lat="51.711590" lon="6.086037">
        <ele>12.263705</ele>
        <time>2024-03-31T13:41:45.999Z</time>
      </trkpt>
      <trkpt lat="51.711594" lon="6.086214">
        <ele>12.284409</ele>
        <time>2024-03-31T13:41:47.999Z</time>
      </trkpt>
      <trkpt lat="51.711602" lon="6.086392">
        <ele>12.305270</ele>
        <time>2024-03-31T13:41:49.999Z</time>
      </trkpt>
      <trkpt lat="51.711617" lon="6.086573">
        <ele>12.326615</ele>
        <time>2024-03-31T13:41:51.999Z</time>
      </trkpt>
      <trkpt lat="51.711641" lon="6.086737">
        <ele>12.346313</ele>
        <time>2024-03-31T13:41:53.999Z</time>
      </trkpt>
      <trkpt lat="51.711636" lon="6.086907">
        <ele>12.366207</ele>
        <time>2024-03-31T13:41:55.999Z</time>
      </trkpt>
      <trkpt lat="51.711650" lon="6.087084">
        <ele>12.387064</ele>
        <time>2024-03-31T13:41:57.999Z</time>
      </trkpt>
      <trkpt lat="51.711669" lon="6.087261">
        <ele>12.408062</ele>
        <time>2024-03-31T13:41:59.999Z</time>
      </trkpt>
      <trkpt lat="51.711690" lon="6.087443">
        <ele>12.429702</ele>
        <time>2024-03-31T13:42:01.998Z</time>
      </trkpt>
      <trkpt lat="51.711717" lon="6.087619">
        <ele>12.450895</ele>
        <time>2024-03-31T13:42:03.998Z</time>
      </trkpt>
      <trkpt lat="51.711749" lon="6.087782">
        <ele>12.470882</ele>
        <time>2024-03-31T13:42:05.998Z</time>
      </trkpt>
      <trkpt lat="51.711778" lon="6.087958">
        <ele>12.492169</ele>
        <time>2024-03-31T13:42:07.998Z</time>
      </trkpt>
      <trkpt lat="51.711807" lon="6.088124">
        <ele>12.512330</ele>
        <time>2024-03-31T13:42:09.998Z</time>
      </trkpt>
      <trkpt lat="51.711839" lon="6.088297">
        <ele>12.590182</ele>
        <time>2024-03-31T13:42:11.998Z</time>
      </trkpt>
      <trkpt lat="51.711871" lon="6.088465">
        <ele>12.772416</ele>
        <time>2024-03-31T13:42:13.998Z</time>
      </trkpt>
      <trkpt lat="51.711905" lon="6.088632">
        <ele>12.954675</ele>
        <time>2024-03-31T13:42:15.998Z</time>
      </trkpt>
      <trkpt lat="51.711945" lon="6.088798">
        <ele>13.139347</ele>
        <time>2024-03-31T13:42:17.998Z</time>
      </trkpt>
      <trkpt lat="51.711992" lon="6.088963">
        <ele>13.327636</ele>
        <time>2024-03-31T13:42:19.998Z</time>
      </trkpt>
      <trkpt lat="51.712035" lon="6.089121">
        <ele>13.506562</ele>
        <time>2024-03-31T13:42:21.998Z</time>
      </trkpt>
      <trkpt lat="51.712088" lon="6.089285">
        <ele>13.698341</ele>
        <time>2024-03-31T13:42:23.998Z</time>
      </trkpt>
      <trkpt lat="51.712139" lon="6.089432">
        <ele>13.873021</ele>
        <time>2024-03-31T13:42:25.998Z</time>
      </trkpt>
      <trkpt lat="51.712192" lon="6.089595">
        <ele>14.063881</ele>
        <time>2024-03-31T13:42:27.998Z</time>
      </trkpt>
      <trkpt lat="51.712243" lon="6.089756">
        <ele>14.251360</ele>
        <time>2024-03-31T13:42:29.998Z</time>
      </trkpt>
      <trkpt lat="51.712299" lon="6.089920">
        <ele>14.445511</ele>
        <time>2024-03-31T13:42:31.998Z</time>
      </trkpt>
      <trkpt lat="51.712343" lon="6.090058">
        <ele>14.606426</ele>
        <time>2024-03-31T13:42:33.998Z</time>
      </trkpt>
      <trkpt lat="51.712390" lon="6.090219">
        <ele>14.790954</ele>
        <time>2024-03-31T13:42:37.998Z</time>
      </trkpt>
      <trkpt lat="51.712437" lon="6.090374">
        <ele>14.969874</ele>
        <time>2024-03-31T13:42:42.998Z</time>
      </trkpt>
      <trkpt lat="51.712384" lon="6.090517">
        <ele>15.142641</ele>
        <time>2024-03-31T13:42:48.997Z</time>
      </trkpt>
      <trkpt lat="51.712316" lon="6.090634">
        <ele>15.308964</ele>
        <time>2024-03-31T13:42:51.997Z</time>
      </trkpt>
      <trkpt lat="51.712229" lon="6.090762">
        <ele>15.505959</ele>
        <time>2024-03-31T13:42:53.997Z</time>
      </trkpt>
      <trkpt lat="51.712146" lon="6.090862">
        <ele>15.398522</ele>
        <time>2024-03-31T13:42:55.997Z</time>
      </trkpt>
      <trkpt lat="51.712061" lon="6.090957">
        <ele>15.232548</ele>
        <time>2024-03-31T13:42:58.000Z</time>
      </trkpt>
      <trkpt lat="51.711977" lon="6.091061">
        <ele>15.062597</ele>
        <time>2024-03-31T13:43:00.000Z</time>
      </trkpt>
      <trkpt lat="51.711899" lon="6.091167">
        <ele>14.898907</ele>
        <time>2024-03-31T13:43:02.000Z</time>
      </trkpt>
      <trkpt lat="51.711827" lon="6.091275">
        <ele>14.741114</ele>
        <time>2024-03-31T13:43:04.000Z</time>
      </trkpt>
      <trkpt lat="51.711757" lon="6.091385">
        <ele>14.584276</ele>
        <time>2024-03-31T13:43:06.000Z</time>
      </trkpt>
      <trkpt lat="51.711692" lon="6.091506">
        <ele>14.424988</ele>
        <time>2024-03-31T13:43:08.000Z</time>
      </trkpt>
      <trkpt lat="51.711632" lon="6.091639">
        <ele>14.261349</ele>
        <time>2024-03-31T13:43:10.000Z</time>
      </trkpt>
      <trkpt lat="51.711565" lon="6.091769">
        <ele>14.093159</ele>
        <time>2024-03-31T13:43:12.000Z</time>
      </trkpt>
      <trkpt lat="51.711501" lon="6.091903">
        <ele>13.924873</ele>
        <time>2024-03-31T13:43:14.000Z</time>
      </trkpt>
      <trkpt lat="51.711432" lon="6.092015">
        <ele>13.767777</ele>
        <time>2024-03-31T13:43:16.000Z</time>
      </trkpt>
      <trkpt lat="51.711357" lon="6.092112">
        <ele>13.613490</ele>
        <time>2024-03-31T13:43:18.000Z</time>
      </trkpt>
      <trkpt lat="51.711274" lon="6.092186">
        <ele>13.461272</ele>
        <time>2024-03-31T13:43:20.000Z</time>
      </trkpt>
      <trkpt lat="51.711178" lon="6.092247">
        <ele>13.295651</ele>
        <time>2024-03-31T13:43:21.999Z</time>
      </trkpt>
      <trkpt lat="51.711075" lon="6.092289">
        <ele>13.125111</ele>
        <time>2024-03-31T13:43:23.999Z</time>
      </trkpt>
      <trkpt lat="51.710982" lon="6.092342">
        <ele>12.966785</ele>
        <time>2024-03-31T13:43:25.999Z</time>
      </trkpt>
      <trkpt lat="51.710885" lon="6.092323">
        <ele>12.809930</ele>
        <time>2024-03-31T13:43:27.999Z</time>
      </trkpt>
      <trkpt lat="51.710817" lon="6.092221">
        <ele>12.660902</ele>
        <time>2024-03-31T13:43:29.999Z</time>
      </trkpt>
      <trkpt lat="51.710746" lon="6.092092">
        <ele>12.896561</ele>
        <time>2024-03-31T13:43:31.999Z</time>
      </trkpt>
      <trkpt lat="51.710651" lon="6.091946">
        <ele>13.224121</ele>
        <time>2024-03-31T13:43:34.999Z</time>
      </trkpt>
      <trkpt lat="51.710590" lon="6.091825">
        <ele>13.465466</ele>
        <time>2024-03-31T13:43:37.999Z</time>
      </trkpt>
      <trkpt lat="51.710466" lon="6.091671">
        <ele>13.856155</ele>
        <time>2024-03-31T13:44:12.998Z</time>
      </trkpt>
      <trkpt lat="51.710392" lon="6.091537">
        <ele>14.133869</ele>
        <time>2024-03-31T13:44:15.998Z</time>
      </trkpt>
      <trkpt lat="51.710296" lon="6.091389">
        <ele>14.465373</ele>
        <time>2024-03-31T13:44:18.998Z</time>
      </trkpt>
      <trkpt lat="51.710225" lon="6.091271">
        <ele>14.719856</ele>
        <time>2024-03-31T13:44:20.998Z</time>
      </trkpt>
      <trkpt lat="51.710131" lon="6.091137">
        <ele>15.033024</ele>
        <time>2024-03-31T13:44:23.998Z</time>
      </trkpt>
      <trkpt lat="51.710049" lon="6.091004">
        <ele>15.323314</ele>
        <time>2024-03-31T13:44:26.998Z</time>
      </trkpt>
      <trkpt lat="51.709972" lon="6.090856">
        <ele>15.622315</ele>
        <time>2024-03-31T13:44:29.998Z</time>
      </trkpt>
      <trkpt lat="51.709875" lon="6.090693">
        <ele>15.971981</ele>
        <time>2024-03-31T13:44:32.998Z</time>
      </trkpt>
      <trkpt lat="51.709763" lon="6.090712">
        <ele>16.253180</ele>
        <time>2024-03-31T13:44:34.998Z</time>
      </trkpt>
      <trkpt lat="51.709671" lon="6.090706">
        <ele>16.483087</ele>
        <time>2024-03-31T13:44:36.998Z</time>
      </trkpt>
      <trkpt lat="51.709549" lon="6.090714">
        <ele>16.787967</ele>
        <time>2024-03-31T13:44:39.998Z</time>
      </trkpt>
      <trkpt lat="51.709515" lon="6.090867">
        <ele>17.039457</ele>
        <time>2024-03-31T13:44:42.998Z</time>
      </trkpt>
      <trkpt lat="51.709542" lon="6.091012">
        <ele>17.141273</ele>
        <time>2024-03-31T13:44:44.998Z</time>
      </trkpt>
      <trkpt lat="51.709557" lon="6.091161">
        <ele>17.143870</ele>
        <time>2024-03-31T13:44:46.998Z</time>
      </trkpt>
      <trkpt lat="51.709549" lon="6.091354">
        <ele>17.147197</ele>
        <time>2024-03-31T13:44:49.998Z</time>
      </trkpt>
      <trkpt lat="51.709602" lon="6.091527">
        <ele>17.150517</ele>
        <time>2024-03-31T13:44:52.997Z</time>
      </trkpt>
      <trkpt lat="51.709583" lon="6.091725">
        <ele>17.153964</ele>
        <time>2024-03-31T13:44:55.997Z</time>
      </trkpt>
      <trkpt lat="51.709594" lon="6.091885">
        <ele>17.156733</ele>
        <time>2024-03-31T13:44:58.997Z</time>
      </trkpt>
      <trkpt lat="51.709608" lon="6.092030">
        <ele>17.159258</ele>
        <time>2024-03-31T13:45:01.997Z</time>
      </trkpt>
      <trkpt lat="51.709620" lon="6.092196">
        <ele>17.162133</ele>
        <time>2024-03-31T13:45:05.000Z</time>
      </trkpt>
      <trkpt lat="51.709673" lon="6.092355">
        <ele>17.165239</ele>
        <time>2024-03-31T13:45:08.000Z</time>
      </trkpt>
      <trkpt lat="51.709668" lon="6.092544">
        <ele>17.168493</ele>
        <time>2024-03-31T13:45:10.000Z</time>
      </trkpt>
      <trkpt lat="51.709670" lon="6.092755">
        <ele>17.172123</ele>
        <time>2024-03-31T13:45:12.000Z</time>
      </trkpt>
      <trkpt lat="51.709689" lon="6.092936">
        <ele>17.175281</ele>
        <time>2024-03-31T13:45:14.000Z</time>
      </trkpt>
      <trkpt lat="51.709720" lon="6.093130">
        <ele>17.178727</ele>
        <time>2024-03-31T13:45:16.000Z</time>
      </trkpt>
      <trkpt lat="51.709744" lon="6.093321">
        <ele>17.182080</ele>
        <time>2024-03-31T13:45:18.000Z</time>
      </trkpt>
      <trkpt lat="51.709766" lon="6.093494">
        <ele>17.185118</ele>
        <time>2024-03-31T13:45:20.000Z</time>
      </trkpt>
      <trkpt lat="51.709777" lon="6.093686">
        <ele>17.188435</ele>
        <time>2024-03-31T13:45:22.000Z</time>
      </trkpt>
      <trkpt lat="51.709797" lon="6.093855">
        <ele>17.114290</ele>
        <time>2024-03-31T13:45:24.000Z</time>
      </trkpt>
      <trkpt lat="51.709793" lon="6.094042">
        <ele>16.969534</ele>
        <time>2024-03-31T13:45:26.000Z</time>
      </trkpt>
      <trkpt lat="51.709787" lon="6.094225">
        <ele>16.827761</ele>
        <time>2024-03-31T13:45:28.000Z</time>
      </trkpt>
      <trkpt lat="51.709818" lon="6.094407">
        <ele>16.681738</ele>
        <time>2024-03-31T13:45:29.999Z</time>
      </trkpt>
      <trkpt lat="51.709818" lon="6.094589">
        <ele>16.540936</ele>
        <time>2024-03-31T13:45:31.999Z</time>
      </trkpt>
      <trkpt lat="51.709841" lon="6.094762">
        <ele>16.404052</ele>
        <time>2024-03-31T13:45:33.999Z</time>
      </trkpt>
      <trkpt lat="51.709820" lon="6.094932">
        <ele>16.269947</ele>
        <time>2024-03-31T13:45:35.999Z</time>
      </trkpt>
      <trkpt lat="51.709777" lon="6.095131">
        <ele>16.106902</ele>
        <time>2024-03-31T13:45:38.999Z</time>
      </trkpt>
      <trkpt lat="51.709714" lon="6.095268">
        <ele>15.974916</ele>
        <time>2024-03-31T13:45:40.999Z</time>
      </trkpt>
      <trkpt lat="51.709617" lon="6.095361">
        <ele>15.834051</ele>
        <time>2024-03-31T13:45:42.999Z</time>
      </trkpt>
      <trkpt lat="51.709519" lon="6.095483">
        <ele>15.679523</ele>
        <time>2024-03-31T13:45:45.999Z</time>
      </trkpt>
      <trkpt lat="51.709487" lon="6.095667">
        <ele>15.531673</ele>
        <time>2024-03-31T13:45:48.999Z</time>
      </trkpt>
      <trkpt lat="51.709450" lon="6.095824">
        <ele>15.401724</ele>
        <time>2024-03-31T13:45:50.999Z</time>
      </trkpt>
      <trkpt lat="51.709392" lon="6.095949">
        <ele>15.280912</ele>
        <time>2024-03-31T13:45:52.999Z</time>
      </trkpt>
      <trkpt lat="51.709329" lon="6.096092">
        <ele>15.145170</ele>
        <time>2024-03-31T13:45:54.999Z</time>
      </trkpt>
      <trkpt lat="51.709258" lon="6.096224">
        <ele>15.009943</ele>
        <time>2024-03-31T13:45:56.999Z</time>
      </trkpt>
      <trkpt lat="51.709204" lon="6.096358">
        <ele>14.954552</ele>
        <time>2024-03-31T13:45:58.999Z</time>
      </trkpt>
      <trkpt lat="51.709143" lon="6.096493">
        <ele>14.977936</ele>
        <time>2024-03-31T13:46:00.999Z</time>
      </trkpt>
      <trkpt lat="51.709077" lon="6.096613">
        <ele>15.000392</ele>
        <time>2024-03-31T13:46:02.999Z</time>
      </trkpt>
      <trkpt lat="51.709016" lon="6.096734">
        <ele>15.022224</ele>
        <time>2024-03-31T13:46:04.999Z</time>
      </trkpt>
      <trkpt lat="51.708958" lon="6.096926">
        <ele>15.052118</ele>
        <time>2024-03-31T13:46:06.999Z</time>
      </trkpt>
      <trkpt lat="51.708899" lon="6.097077">
        <ele>15.077102</ele>
        <time>2024-03-31T13:46:08.999Z</time>
      </trkpt>
      <trkpt lat="51.708841" lon="6.097226">
        <ele>15.101729</ele>
        <time>2024-03-31T13:46:10.999Z</time>
      </trkpt>
      <trkpt lat="51.708790" lon="6.097379">
        <ele>15.126044</ele>
        <time>2024-03-31T13:46:12.999Z</time>
      </trkpt>
      <trkpt lat="51.708737" lon="6.097540">
        <ele>15.151560</ele>
        <time>2024-03-31T13:46:14.998Z</time>
      </trkpt>
      <trkpt lat="51.708689" lon="6.097701">
        <ele>15.176566</ele>
        <time>2024-03-31T13:46:16.998Z</time>
      </trkpt>
      <trkpt lat="51.708651" lon="6.097870">
        <ele>15.201728</ele>
        <time>2024-03-31T13:46:18.998Z</time>
      </trkpt>
      <trkpt lat="51.708617" lon="6.098042">
        <ele>15.226996</ele>
        <time>2024-03-31T13:46:20.998Z</time>
      </trkpt>
      <trkpt lat="51.708574" lon="6.098208">
        <ele>15.252177</ele>
        <time>2024-03-31T13:46:22.998Z</time>
      </trkpt>
      <trkpt lat="51.708514" lon="6.098362">
        <ele>15.277637</ele>
        <time>2024-03-31T13:46:24.998Z</time>
      </trkpt>
      <trkpt lat="51.708471" lon="6.098521">
        <ele>15.301917</ele>
        <time>2024-03-31T13:46:26.998Z</time>
      </trkpt>
      <trkpt lat="51.708423" lon="6.098693">
        <ele>15.328319</ele>
        <time>2024-03-31T13:46:28.998Z</time>
      </trkpt>
      <trkpt lat="51.708369" lon="6.098867">
        <ele>15.354480</ele>
        <time>2024-03-31T13:46:30.998Z</time>
      </trkpt>
      <trkpt lat="51.708309" lon="6.099043">
        <ele>15.376800</ele>
        <time>2024-03-31T13:46:32.998Z</time>
      </trkpt>
      <trkpt lat="51.708245" lon="6.099187">
        <ele>15.396490</ele>
        <time>2024-03-31T13:46:34.998Z</time>
      </trkpt>
      <trkpt lat="51.708182" lon="6.099344">
        <ele>15.417273</ele>
        <time>2024-03-31T13:46:36.998Z</time>
      </trkpt>
      <trkpt lat="51.708119" lon="6.099499">
        <ele>15.437869</ele>
        <time>2024-03-31T13:46:38.998Z</time>
      </trkpt>
      <trkpt lat="51.708031" lon="6.099603">
        <ele>15.457427</ele>
        <time>2024-03-31T13:46:40.998Z</time>
      </trkpt>
      <trkpt lat="51.707941" lon="6.099687">
        <ele>15.476070</ele>
        <time>2024-03-31T13:46:42.998Z</time>
      </trkpt>
      <trkpt lat="51.707826" lon="6.099761">
        <ele>15.498270</ele>
        <time>2024-03-31T13:46:44.998Z</time>
      </trkpt>
      <trkpt lat="51.707725" lon="6.099822">
        <ele>15.517607</ele>
        <time>2024-03-31T13:46:46.998Z</time>
      </trkpt>
      <trkpt lat="51.707621" lon="6.099931">
        <ele>15.539843</ele>
        <time>2024-03-31T13:46:48.998Z</time>
      </trkpt>
      <trkpt lat="51.707527" lon="6.100046">
        <ele>15.560994</ele>
        <time>2024-03-31T13:46:50.998Z</time>
      </trkpt>
      <trkpt lat="51.707429" lon="6.100162">
        <ele>15.582787</ele>
        <time>2024-03-31T13:46:52.998Z</time>
      </trkpt>
      <trkpt lat="51.707342" lon="6.100298">
        <ele>15.604506</ele>
        <time>2024-03-31T13:46:54.998Z</time>
      </trkpt>
      <trkpt lat="51.707263" lon="6.100437">
        <ele>15.625463</ele>
        <time>2024-03-31T13:46:56.998Z</time>
      </trkpt>
      <trkpt lat="51.707181" lon="6.100572">
        <ele>15.646468</ele>
        <time>2024-03-31T13:46:58.998Z</time>
      </trkpt>
      <trkpt lat="51.707099" lon="6.100700">
        <ele>15.666924</ele>
        <time>2024-03-31T13:47:00.997Z</time>
      </trkpt>
      <trkpt lat="51.707020" lon="6.100845">
        <ele>15.643477</ele>
        <time>2024-03-31T13:47:02.997Z</time>
      </trkpt>
      <trkpt lat="51.706945" lon="6.101007">
        <ele>15.600959</ele>
        <time>2024-03-31T13:47:04.997Z</time>
      </trkpt>
      <trkpt lat="51.706870" lon="6.101162">
        <ele>15.559610</ele>
        <time>2024-03-31T13:47:06.997Z</time>
      </trkpt>
      <trkpt lat="51.706771" lon="6.101284">
        <ele>15.517344</ele>
        <time>2024-03-31T13:47:09.000Z</time>
      </trkpt>
      <trkpt lat="51.706660" lon="6.101365">
        <ele>15.476010</ele>
        <time>2024-03-31T13:47:11.000Z</time>
      </trkpt>
      <trkpt lat="51.706550" lon="6.101433">
        <ele>15.436042</ele>
        <time>2024-03-31T13:47:13.000Z</time>
      </trkpt>
      <trkpt lat="51.706477" lon="6.101542">
        <ele>15.402296</ele>
        <time>2024-03-31T13:47:15.000Z</time>
      </trkpt>
      <trkpt lat="51.706452" lon="6.101699">
        <ele>15.368212</ele>
        <time>2024-03-31T13:47:17.000Z</time>
      </trkpt>
      <trkpt lat="51.706362" lon="6.101813">
        <ele>15.329391</ele>
        <time>2024-03-31T13:47:19.000Z</time>
      </trkpt>
      <trkpt lat="51.706245" lon="6.101873">
        <ele>15.287736</ele>
        <time>2024-03-31T13:47:21.000Z</time>
      </trkpt>
      <trkpt lat="51.706137" lon="6.101936">
        <ele>15.248771</ele>
        <time>2024-03-31T13:47:23.000Z</time>
      </trkpt>
      <trkpt lat="51.706028" lon="6.102009">
        <ele>15.208728</ele>
        <time>2024-03-31T13:47:25.000Z</time>
      </trkpt>
      <trkpt lat="51.705911" lon="6.102059">
        <ele>15.167661</ele>
        <time>2024-03-31T13:47:27.000Z</time>
      </trkpt>
      <trkpt lat="51.705796" lon="6.102105">
        <ele>15.127460</ele>
        <time>2024-03-31T13:47:29.000Z</time>
      </trkpt>
      <trkpt lat="51.705689" lon="6.102173">
        <ele>15.088441</ele>
        <time>2024-03-31T13:47:31.000Z</time>
      </trkpt>
      <trkpt lat="51.705589" lon="6.102259">
        <ele>15.082712</ele>
        <time>2024-03-31T13:47:33.000Z</time>
      </trkpt>
      <trkpt lat="51.705488" lon="6.102359">
        <ele>15.147113</ele>
        <time>2024-03-31T13:47:34.999Z</time>
      </trkpt>
      <trkpt lat="51.705390" lon="6.102486">
        <ele>15.215424</ele>
        <time>2024-03-31T13:47:36.999Z</time>
      </trkpt>
      <trkpt lat="51.705297" lon="6.102578">
        <ele>15.274710</ele>
        <time>2024-03-31T13:47:38.999Z</time>
      </trkpt>
      <trkpt lat="51.705211" lon="6.102704">
        <ele>15.337841</ele>
        <time>2024-03-31T13:47:40.999Z</time>
      </trkpt>
      <trkpt lat="51.705127" lon="6.102820">
        <ele>15.397929</ele>
        <time>2024-03-31T13:47:42.999Z</time>
      </trkpt>
      <trkpt lat="51.705022" lon="6.102876">
        <ele>15.458031</ele>
        <time>2024-03-31T13:47:44.999Z</time>
      </trkpt>
      <trkpt lat="51.704921" lon="6.102919">
        <ele>15.514802</ele>
        <time>2024-03-31T13:47:46.999Z</time>
      </trkpt>
      <trkpt lat="51.704817" lon="6.102930">
        <ele>15.571446</ele>
        <time>2024-03-31T13:47:48.999Z</time>
      </trkpt>
      <trkpt lat="51.704724" lon="6.102936">
        <ele>15.622030</ele>
        <time>2024-03-31T13:47:50.999Z</time>
      </trkpt>
      <trkpt lat="51.704614" lon="6.103029">
        <ele>15.689523</ele>
        <time>2024-03-31T13:47:53.999Z</time>
      </trkpt>
      <trkpt lat="51.704524" lon="6.103120">
        <ele>15.747246</ele>
        <time>2024-03-31T13:47:57.999Z</time>
      </trkpt>
      <trkpt lat="51.704466" lon="6.103234">
        <ele>15.796924</ele>
        <time>2024-03-31T13:48:03.999Z</time>
      </trkpt>
      <trkpt lat="51.704435" lon="6.103402">
        <ele>15.855963</ele>
        <time>2024-03-31T13:48:10.999Z</time>
      </trkpt>
      <trkpt lat="51.704426" lon="6.103572">
        <ele>15.913429</ele>
        <time>2024-03-31T13:48:16.999Z</time>
      </trkpt>
      <trkpt lat="51.704445" lon="6.103759">
        <ele>15.977253</ele>
        <time>2024-03-31T13:48:20.998Z</time>
      </trkpt>
      <trkpt lat="51.704439" lon="6.103909">
        <ele>16.027879</ele>
        <time>2024-03-31T13:48:23.998Z</time>
      </trkpt>
      <trkpt lat="51.704454" lon="6.104080">
        <ele>16.076449</ele>
        <time>2024-03-31T13:48:26.998Z</time>
      </trkpt>
      <trkpt lat="51.704451" lon="6.104262">
        <ele>16.124957</ele>
        <time>2024-03-31T13:48:29.998Z</time>
      </trkpt>
      <trkpt lat="51.704462" lon="6.104460">
        <ele>16.177923</ele>
        <time>2024-03-31T13:48:32.998Z</time>
      </trkpt>
      <trkpt lat="51.704454" lon="6.104647">
        <ele>16.227865</ele>
        <time>2024-03-31T13:48:35.998Z</time>
      </trkpt>
      <trkpt lat="51.704460" lon="6.104831">
        <ele>16.276957</ele>
        <time>2024-03-31T13:48:38.998Z</time>
      </trkpt>
      <trkpt lat="51.704452" lon="6.105007">
        <ele>16.323975</ele>
        <time>2024-03-31T13:48:41.998Z</time>
      </trkpt>
      <trkpt lat="51.704469" lon="6.105173">
        <ele>16.368803</ele>
        <time>2024-03-31T13:48:44.998Z</time>
      </trkpt>
      <trkpt lat="51.704475" lon="6.105347">
        <ele>16.415235</ele>
        <time>2024-03-31T13:48:47.998Z</time>
      </trkpt>
      <trkpt lat="51.704483" lon="6.105528">
        <ele>16.463582</ele>
        <time>2024-03-31T13:48:50.998Z</time>
      </trkpt>
      <trkpt lat="51.704488" lon="6.105693">
        <ele>16.507596</ele>
        <time>2024-03-31T13:48:53.998Z</time>
      </trkpt>
      <trkpt lat="51.704479" lon="6.105858">
        <ele>16.551728</ele>
        <time>2024-03-31T13:48:56.998Z</time>
      </trkpt>
      <trkpt lat="51.704402" lon="6.105998">
        <ele>16.601601</ele>
        <time>2024-03-31T13:48:59.998Z</time>
      </trkpt>
      <trkpt lat="51.704310" lon="6.106024">
        <ele>16.641756</ele>
        <time>2024-03-31T13:49:01.998Z</time>
      </trkpt>
      <trkpt lat="51.704215" lon="6.106061">
        <ele>16.683773</ele>
        <time>2024-03-31T13:49:03.998Z</time>
      </trkpt>
      <trkpt lat="51.704125" lon="6.106101">
        <ele>16.723907</ele>
        <time>2024-03-31T13:49:05.997Z</time>
      </trkpt>
      <trkpt lat="51.704034" lon="6.106145">
        <ele>16.764749</ele>
        <time>2024-03-31T13:49:07.997Z</time>
      </trkpt>
      <trkpt lat="51.703941" lon="6.106192">
        <ele>16.806648</ele>
        <time>2024-03-31T13:49:09.997Z</time>
      </trkpt>
      <trkpt lat="51.703848" lon="6.106239">
        <ele>16.807857</ele>
        <time>2024-03-31T13:49:11.997Z</time>
      </trkpt>
      <trkpt lat="51.703755" lon="6.106280">
        <ele>16.801324</ele>
        <time>2024-03-31T13:49:13.997Z</time>
      </trkpt>
      <trkpt lat="51.703664" lon="6.106317">
        <ele>16.794964</ele>
        <time>2024-03-31T13:49:16.000Z</time>
      </trkpt>
      <trkpt lat="51.703575" lon="6.106347">
        <ele>16.788803</ele>
        <time>2024-03-31T13:49:18.000Z</time>
      </trkpt>
      <trkpt lat="51.703482" lon="6.106392">
        <ele>16.782223</ele>
        <time>2024-03-31T13:49:20.000Z</time>
      </trkpt>
      <trkpt lat="51.703381" lon="6.106451">
        <ele>16.774944</ele>
        <time>2024-03-31T13:49:22.000Z</time>
      </trkpt>
      <trkpt lat="51.703287" lon="6.106503">
        <ele>16.768210</ele>
        <time>2024-03-31T13:49:24.000Z</time>
      </trkpt>
      <trkpt lat="51.703196" lon="6.106539">
        <ele>16.761860</ele>
        <time>2024-03-31T13:49:26.000Z</time>
      </trkpt>
      <trkpt lat="51.703110" lon="6.106580">
        <ele>16.755783</ele>
        <time>2024-03-31T13:49:28.000Z</time>
      </trkpt>
      <trkpt lat="51.702990" lon="6.106638">
        <ele>16.747294</ele>
        <time>2024-03-31T13:49:31.000Z</time>
      </trkpt>
      <trkpt lat="51.702883" lon="6.106604">
        <ele>16.739904</ele>
        <time>2024-03-31T13:49:34.000Z</time>
      </trkpt>
      <trkpt lat="51.702762" lon="6.106477">
        <ele>16.730122</ele>
        <time>2024-03-31T13:50:01.999Z</time>
      </trkpt>
      <trkpt lat="51.702769" lon="6.106328">
        <ele>16.723846</ele>
        <time>2024-03-31T13:50:03.999Z</time>
      </trkpt>
      <trkpt lat="51.702772" lon="6.106176">
        <ele>16.717459</ele>
        <time>2024-03-31T13:50:05.999Z</time>
      </trkpt>
      <trkpt lat="51.702775" lon="6.106003">
        <ele>16.710191</ele>
        <time>2024-03-31T13:50:07.999Z</time>
      </trkpt>
      <trkpt lat="51.702775" lon="6.105827">
        <ele>16.702799</ele>
        <time>2024-03-31T13:50:09.999Z</time>
      </trkpt>
      <trkpt lat="51.702774" lon="6.105642">
        <ele>16.695029</ele>
        <time>2024-03-31T13:50:11.999Z</time>
      </trkpt>
      <trkpt lat="51.702783" lon="6.105449">
        <ele>16.680942</ele>
        <time>2024-03-31T13:50:13.999Z</time>
      </trkpt>
      <trkpt lat="51.702785" lon="6.105254">
        <ele>16.662159</ele>
        <time>2024-03-31T13:50:15.999Z</time>
      </trkpt>
      <trkpt lat="51.702786" lon="6.105054">
        <ele>16.642897</ele>
        <time>2024-03-31T13:50:17.999Z</time>
      </trkpt>
      <trkpt lat="51.702791" lon="6.104851">
        <ele>16.623330</ele>
        <time>2024-03-31T13:50:19.999Z</time>
      </trkpt>
      <trkpt lat="51.702788" lon="6.104641">
        <ele>16.603100</ele>
        <time>2024-03-31T13:50:21.999Z</time>
      </trkpt>
      <trkpt lat="51.702786" lon="6.104440">
        <ele>16.583739</ele>
        <time>2024-03-31T13:50:23.999Z</time>
      </trkpt>
      <trkpt lat="51.702777" lon="6.104230">
        <ele>16.563466</ele>
        <time>2024-03-31T13:50:25.998Z</time>
      </trkpt>
      <trkpt lat="51.702772" lon="6.104013">
        <ele>16.542553</ele>
        <time>2024-03-31T13:50:27.998Z</time>
      </trkpt>
      <trkpt lat="51.702769" lon="6.103801">
        <ele>16.522130</ele>
        <time>2024-03-31T13:50:29.998Z</time>
      </trkpt>
      <trkpt lat="51.702758" lon="6.103592">
        <ele>16.501929</ele>
        <time>2024-03-31T13:50:31.998Z</time>
      </trkpt>
      <trkpt lat="51.702742" lon="6.103392">
        <ele>16.482507</ele>
        <time>2024-03-31T13:50:33.998Z</time>
      </trkpt>
      <trkpt lat="51.702724" lon="6.103199">
        <ele>16.463710</ele>
        <time>2024-03-31T13:50:35.998Z</time>
      </trkpt>
      <trkpt lat="51.702708" lon="6.103026">
        <ele>16.446864</ele>
        <time>2024-03-31T13:50:37.998Z</time>
      </trkpt>
      <trkpt lat="51.702681" lon="6.102863">
        <ele>16.430614</ele>
        <time>2024-03-31T13:50:39.998Z</time>
      </trkpt>
      <trkpt lat="51.702666" lon="6.102701">
        <ele>16.414839</ele>
        <time>2024-03-31T13:50:41.998Z</time>
      </trkpt>
      <trkpt lat="51.702566" lon="6.102607">
        <ele>16.467102</ele>
        <time>2024-03-31T13:50:44.998Z</time>
      </trkpt>
      <trkpt lat="51.702430" lon="6.102617">
        <ele>16.544105</ele>
        <time>2024-03-31T13:50:46.998Z</time>
      </trkpt>
      <trkpt lat="51.702300" lon="6.102612">
        <ele>16.617656</ele>
        <time>2024-03-31T13:50:48.998Z</time>
      </trkpt>
      <trkpt lat="51.702173" lon="6.102614">
        <ele>16.689493</ele>
        <time>2024-03-31T13:50:50.998Z</time>
      </trkpt>
      <trkpt lat="51.702050" lon="6.102601">
        <ele>16.759213</ele>
        <time>2024-03-31T13:50:52.998Z</time>
      </trkpt>
      <trkpt lat="51.701922" lon="6.102618">
        <ele>16.831857</ele>
        <time>2024-03-31T13:50:54.998Z</time>
      </trkpt>
      <trkpt lat="51.701796" lon="6.102605">
        <ele>16.903270</ele>
        <time>2024-03-31T13:50:56.998Z</time>
      </trkpt>
      <trkpt lat="51.701673" lon="6.102590">
        <ele>16.973039</ele>
        <time>2024-03-31T13:50:58.998Z</time>
      </trkpt>
      <trkpt lat="51.701547" lon="6.102575">
        <ele>17.044500</ele>
        <time>2024-03-31T13:51:00.998Z</time>
      </trkpt>
      <trkpt lat="51.701416" lon="6.102573">
        <ele>17.118600</ele>
        <time>2024-03-31T13:51:02.998Z</time>
      </trkpt>
      <trkpt lat="51.701283" lon="6.102565">
        <ele>17.193879</ele>
        <time>2024-03-31T13:51:04.998Z</time>
      </trkpt>
      <trkpt lat="51.701153" lon="6.102549">
        <ele>17.267623</ele>
        <time>2024-03-31T13:51:06.998Z</time>
      </trkpt>
      <trkpt lat="51.701025" lon="6.102537">
        <ele>17.340144</ele>
        <time>2024-03-31T13:51:08.998Z</time>
      </trkpt>
      <trkpt lat="51.700896" lon="6.102570">
        <ele>17.414019</ele>
        <time>2024-03-31T13:51:10.997Z</time>
      </trkpt>
      <trkpt lat="51.700773" lon="6.102580">
        <ele>17.397475</ele>
        <time>2024-03-31T13:51:12.997Z</time>
      </trkpt>
      <trkpt lat="51.700651" lon="6.102593">
        <ele>17.356928</ele>
        <time>2024-03-31T13:51:14.997Z</time>
      </trkpt>
      <trkpt lat="51.700538" lon="6.102627">
        <ele>17.318808</ele>
        <time>2024-03-31T13:51:16.997Z</time>
      </trkpt>
      <trkpt lat="51.700394" lon="6.102647">
        <ele>17.270877</ele>
        <time>2024-03-31T13:51:18.997Z</time>
      </trkpt>
      <trkpt lat="51.700263" lon="6.102672">
        <ele>17.227130</ele>
        <time>2024-03-31T13:51:21.000Z</time>
      </trkpt>
      <trkpt lat="51.700135" lon="6.102703">
        <ele>17.184206</ele>
        <time>2024-03-31T13:51:23.000Z</time>
      </trkpt>
      <trkpt lat="51.700009" lon="6.102751">
        <ele>17.141272</ele>
        <time>2024-03-31T13:51:25.000Z</time>
      </trkpt>
      <trkpt lat="51.699884" lon="6.102843">
        <ele>17.095709</ele>
        <time>2024-03-31T13:51:27.000Z</time>
      </trkpt>
      <trkpt lat="51.699741" lon="6.102913">
        <ele>17.046151</ele>
        <time>2024-03-31T13:51:29.000Z</time>
      </trkpt>
      <trkpt lat="51.699629" lon="6.102990">
        <ele>17.005777</ele>
        <time>2024-03-31T13:51:31.000Z</time>
      </trkpt>
      <trkpt lat="51.699507" lon="6.103066">
        <ele>16.962407</ele>
        <time>2024-03-31T13:51:33.000Z</time>
      </trkpt>
      <trkpt lat="51.699388" lon="6.103158">
        <ele>16.918647</ele>
        <time>2024-03-31T13:51:35.000Z</time>
      </trkpt>
      <trkpt lat="51.699272" lon="6.103267">
        <ele>16.874129</ele>
        <time>2024-03-31T13:51:37.000Z</time>
      </trkpt>
      <trkpt lat="51.699172" lon="6.103389">
        <ele>16.832679</ele>
        <time>2024-03-31T13:51:39.000Z</time>
      </trkpt>
      <trkpt lat="51.699065" lon="6.103534">
        <ele>16.805936</ele>
        <time>2024-03-31T13:51:41.000Z</time>
      </trkpt>
      <trkpt lat="51.698960" lon="6.103683">
        <ele>16.779174</ele>
        <time>2024-03-31T13:51:43.000Z</time>
      </trkpt>
      <trkpt lat="51.698868" lon="6.103822">
        <ele>16.755052</ele>
        <time>2024-03-31T13:51:44.999Z</time>
      </trkpt>
      <trkpt lat="51.698771" lon="6.103963">
        <ele>16.730064</ele>
        <time>2024-03-31T13:51:46.999Z</time>
      </trkpt>
      <trkpt lat="51.698687" lon="6.104110">
        <ele>16.706347</ele>
        <time>2024-03-31T13:51:48.999Z</time>
      </trkpt>
      <trkpt lat="51.698616" lon="6.104268">
        <ele>16.683197</ele>
        <time>2024-03-31T13:51:50.999Z</time>
      </trkpt>
      <trkpt lat="51.698543" lon="6.104424">
        <ele>16.660011</ele>
        <time>2024-03-31T13:51:52.999Z</time>
      </trkpt>
      <trkpt lat="51.698464" lon="6.104579">
        <ele>16.636206</ele>
        <time>2024-03-31T13:51:54.999Z</time>
      </trkpt>
      <trkpt lat="51.698420" lon="6.104741">
        <ele>16.615226</ele>
        <time>2024-03-31T13:51:56.999Z</time>
      </trkpt>
      <trkpt lat="51.698353" lon="6.104872">
        <ele>16.595079</ele>
        <time>2024-03-31T13:51:58.999Z</time>
      </trkpt>
      <trkpt lat="51.698241" lon="6.104905">
        <ele>16.573289</ele>
        <time>2024-03-31T13:52:00.999Z</time>
      </trkpt>
      <trkpt lat="51.698136" lon="6.104801">
        <ele>16.549709</ele>
        <time>2024-03-31T13:52:02.999Z</time>
      </trkpt>
      <trkpt lat="51.698039" lon="6.104698">
        <ele>16.527485</ele>
        <time>2024-03-31T13:52:04.999Z</time>
      </trkpt>
      <trkpt lat="51.697933" lon="6.104622">
        <ele>16.505285</ele>
        <time>2024-03-31T13:52:06.999Z</time>
      </trkpt>
      <trkpt lat="51.697834" lon="6.104523">
        <ele>16.489505</ele>
        <time>2024-03-31T13:52:08.999Z</time>
      </trkpt>
      <trkpt lat="51.697726" lon="6.104431">
        <ele>16.493194</ele>
        <time>2024-03-31T13:52:10.999Z</time>
      </trkpt>
      <trkpt lat="51.697622" lon="6.104334">
        <ele>16.496823</ele>
        <time>2024-03-31T13:52:12.999Z</time>
      </trkpt>
      <trkpt lat="51.697515" lon="6.104236">
        <ele>16.500540</ele>
        <time>2024-03-31T13:52:14.999Z</time>
      </trkpt>
      <trkpt lat="51.697410" lon="6.104147">
        <ele>16.504123</ele>
        <time>2024-03-31T13:52:16.999Z</time>
      </trkpt>
      <trkpt lat="51.697300" lon="6.104052">
        <ele>16.507892</ele>
        <time>2024-03-31T13:52:18.999Z</time>
      </trkpt>
      <trkpt lat="51.697192" lon="6.103955">
        <ele>16.511626</ele>
        <time>2024-03-31T13:52:20.999Z</time>
      </trkpt>
      <trkpt lat="51.697082" lon="6.103847">
        <ele>16.515516</ele>
        <time>2024-03-31T13:52:22.999Z</time>
      </trkpt>
      <trkpt lat="51.696969" lon="6.103744">
        <ele>16.519437</ele>
        <time>2024-03-31T13:52:24.999Z</time>
      </trkpt>
      <trkpt lat="51.696857" lon="6.103646">
        <ele>16.523286</ele>
        <time>2024-03-31T13:52:26.999Z</time>
      </trkpt>
      <trkpt lat="51.696743" lon="6.103543">
        <ele>16.527233</ele>
        <time>2024-03-31T13:52:28.998Z</time>
      </trkpt>
      <trkpt lat="51.696636" lon="6.103449">
        <ele>16.530913</ele>
        <time>2024-03-31T13:52:30.998Z</time>
      </trkpt>
      <trkpt lat="51.696531" lon="6.103366">
        <ele>16.534446</ele>
        <time>2024-03-31T13:52:32.998Z</time>
      </trkpt>
      <trkpt lat="51.696442" lon="6.103284">
        <ele>16.537542</ele>
        <time>2024-03-31T13:52:34.998Z</time>
      </trkpt>
      <trkpt lat="51.696346" lon="6.103218">
        <ele>16.540694</ele>
        <time>2024-03-31T13:52:36.998Z</time>
      </trkpt>
      <trkpt lat="51.696250" lon="6.103126">
        <ele>16.551999</ele>
        <time>2024-03-31T13:52:38.998Z</time>
      </trkpt>
      <trkpt lat="51.696160" lon="6.103035">
        <ele>16.578033</ele>
        <time>2024-03-31T13:52:40.998Z</time>
      </trkpt>
      <trkpt lat="51.696078" lon="6.102945">
        <ele>16.602343</ele>
        <time>2024-03-31T13:52:42.998Z</time>
      </trkpt>
      <trkpt lat="51.695999" lon="6.102872">
        <ele>16.624658</ele>
        <time>2024-03-31T13:52:44.998Z</time>
      </trkpt>
      <trkpt lat="51.695885" lon="6.102794">
        <ele>16.655009</ele>
        <time>2024-03-31T13:52:47.998Z</time>
      </trkpt>
      <trkpt lat="51.695818" lon="6.102688">
        <ele>16.678011</ele>
        <time>2024-03-31T13:52:55.998Z</time>
      </trkpt>
      <trkpt lat="51.695739" lon="6.102564">
        <ele>16.705027</ele>
        <time>2024-03-31T13:52:59.998Z</time>
      </trkpt>
      <trkpt lat="51.695624" lon="6.102464">
        <ele>16.737048</ele>
        <time>2024-03-31T13:53:02.998Z</time>
      </trkpt>
      <trkpt lat="51.695544" lon="6.102363">
        <ele>16.761948</ele>
        <time>2024-03-31T13:53:04.998Z</time>
      </trkpt>
      <trkpt lat="51.695458" lon="6.102257">
        <ele>16.788475</ele>
        <time>2024-03-31T13:53:06.998Z</time>
      </trkpt>
      <trkpt lat="51.695369" lon="6.102156">
        <ele>16.815146</ele>
        <time>2024-03-31T13:53:08.998Z</time>
      </trkpt>
      <trkpt lat="51.695273" lon="6.102058">
        <ele>16.842992</ele>
        <time>2024-03-31T13:53:10.998Z</time>
      </trkpt>
      <trkpt lat="51.695176" lon="6.101947">
        <ele>16.872141</ele>
        <time>2024-03-31T13:53:12.998Z</time>
      </trkpt>
      <trkpt lat="51.695075" lon="6.101858">
        <ele>16.900350</ele>
        <time>2024-03-31T13:53:14.997Z</time>
      </trkpt>
      <trkpt lat="51.694980" lon="6.101749">
        <ele>16.928924</ele>
        <time>2024-03-31T13:53:16.997Z</time>
      </trkpt>
      <trkpt lat="51.694884" lon="6.101638">
        <ele>16.957874</ele>
        <time>2024-03-31T13:53:18.997Z</time>
      </trkpt>
      <trkpt lat="51.694783" lon="6.101530">
        <ele>16.981518</ele>
        <time>2024-03-31T13:53:20.997Z</time>
      </trkpt>
      <trkpt lat="51.694671" lon="6.101450">
        <ele>16.963108</ele>
        <time>2024-03-31T13:53:22.997Z</time>
      </trkpt>
      <trkpt lat="51.694557" lon="6.101380">
        <ele>16.944775</ele>
        <time>2024-03-31T13:53:24.997Z</time>
      </trkpt>
      <trkpt lat="51.694443" lon="6.101320">
        <ele>16.926751</ele>
        <time>2024-03-31T13:53:27.000Z</time>
      </trkpt>
      <trkpt lat="51.694335" lon="6.101253">
        <ele>16.909360</ele>
        <time>2024-03-31T13:53:29.000Z</time>
      </trkpt>
      <trkpt lat="51.694232" lon="6.101201">
        <ele>16.893139</ele>
        <time>2024-03-31T13:53:31.000Z</time>
      </trkpt>
      <trkpt lat="51.694118" lon="6.101131">
        <ele>16.874805</ele>
        <time>2024-03-31T13:53:33.000Z</time>
      </trkpt>
      <trkpt lat="51.694002" lon="6.101065">
        <ele>16.856317</ele>
        <time>2024-03-31T13:53:35.000Z</time>
      </trkpt>
      <trkpt lat="51.693892" lon="6.100994">
        <ele>16.838510</ele>
        <time>2024-03-31T13:53:37.000Z</time>
      </trkpt>
      <trkpt lat="51.693775" lon="6.100923">
        <ele>16.819722</ele>
        <time>2024-03-31T13:53:39.000Z</time>
      </trkpt>
      <trkpt lat="51.693657" lon="6.100852">
        <ele>16.800793</ele>
        <time>2024-03-31T13:53:41.000Z</time>
      </trkpt>
      <trkpt lat="51.693535" lon="6.100782">
        <ele>16.781330</ele>
        <time>2024-03-31T13:53:43.000Z</time>
      </trkpt>
      <trkpt lat="51.693409" lon="6.100717">
        <ele>16.761448</ele>
        <time>2024-03-31T13:53:45.000Z</time>
      </trkpt>
      <trkpt lat="51.693291" lon="6.100654">
        <ele>16.742766</ele>
        <time>2024-03-31T13:53:47.000Z</time>
      </trkpt>
      <trkpt lat="51.693171" lon="6.100593">
        <ele>16.723855</ele>
        <time>2024-03-31T13:53:49.000Z</time>
      </trkpt>
      <trkpt lat="51.693057" lon="6.100520">
        <ele>16.702587</ele>
        <time>2024-03-31T13:53:51.000Z</time>
      </trkpt>
      <trkpt lat="51.692947" lon="6.100461">
        <ele>16.679039</ele>
        <time>2024-03-31T13:53:52.999Z</time>
      </trkpt>
      <trkpt lat="51.692834" lon="6.100390">
        <ele>16.654405</ele>
        <time>2024-03-31T13:53:54.999Z</time>
      </trkpt>
      <trkpt lat="51.692723" lon="6.100325">
        <ele>16.630417</ele>
        <time>2024-03-31T13:53:56.999Z</time>
      </trkpt>
      <trkpt lat="51.692614" lon="6.100259">
        <ele>16.606767</ele>
        <time>2024-03-31T13:53:58.999Z</time>
      </trkpt>
      <trkpt lat="51.692514" lon="6.100199">
        <ele>16.585094</ele>
        <time>2024-03-31T13:54:00.999Z</time>
      </trkpt>
      <trkpt lat="51.692398" lon="6.100135">
        <ele>16.560189</ele>
        <time>2024-03-31T13:54:03.999Z</time>
      </trkpt>
      <trkpt lat="51.692300" lon="6.100083">
        <ele>16.539233</ele>
        <time>2024-03-31T13:54:07.999Z</time>
      </trkpt>
      <trkpt lat="51.692197" lon="6.100043">
        <ele>16.517712</ele>
        <time>2024-03-31T13:54:13.999Z</time>
      </trkpt>
      <trkpt lat="51.692168" lon="6.100198">
        <ele>16.497324</ele>
        <time>2024-03-31T13:54:15.999Z</time>
      </trkpt>
      <trkpt lat="51.692163" lon="6.100352">
        <ele>16.477905</ele>
        <time>2024-03-31T13:54:17.999Z</time>
      </trkpt>
      <trkpt lat="51.692155" lon="6.100512">
        <ele>16.457692</ele>
        <time>2024-03-31T13:54:19.999Z</time>
      </trkpt>
      <trkpt lat="51.692142" lon="6.100678">
        <ele>16.436623</ele>
        <time>2024-03-31T13:54:21.999Z</time>
      </trkpt>
      <trkpt lat="51.692129" lon="6.100848">
        <ele>16.415054</ele>
        <time>2024-03-31T13:54:23.999Z</time>
      </trkpt>
      <trkpt lat="51.692117" lon="6.101022">
        <ele>16.393008</ele>
        <time>2024-03-31T13:54:25.999Z</time>
      </trkpt>
      <trkpt lat="51.692111" lon="6.101202">
        <ele>16.370309</ele>
        <time>2024-03-31T13:54:27.999Z</time>
      </trkpt>
      <trkpt lat="51.692093" lon="6.101384">
        <ele>16.348929</ele>
        <time>2024-03-31T13:54:29.999Z</time>
      </trkpt>
      <trkpt lat="51.692074" lon="6.101571">
        <ele>16.368451</ele>
        <time>2024-03-31T13:54:31.999Z</time>
      </trkpt>
      <trkpt lat="51.692061" lon="6.101755">
        <ele>16.387530</ele>
        <time>2024-03-31T13:54:33.999Z</time>
      </trkpt>
      <trkpt lat="51.692053" lon="6.101945">
        <ele>16.407149</ele>
        <time>2024-03-31T13:54:35.999Z</time>
      </trkpt>
      <trkpt lat="51.692043" lon="6.102138">
        <ele>16.427102</ele>
        <time>2024-03-31T13:54:37.998Z</time>
      </trkpt>
      <trkpt lat="51.692024" lon="6.102336">
        <ele>16.447743</ele>
        <time>2024-03-31T13:54:39.998Z</time>
      </trkpt>
      <trkpt lat="51.692007" lon="6.102542">
        <ele>16.469153</ele>
        <time>2024-03-31T13:54:41.998Z</time>
      </trkpt>
      <trkpt lat="51.691993" lon="6.102756">
        <ele>16.491322</ele>
        <time>2024-03-31T13:54:43.998Z</time>
      </trkpt>
      <trkpt lat="51.691984" lon="6.102956">
        <ele>16.511981</ele>
        <time>2024-03-31T13:54:45.998Z</time>
      </trkpt>
      <trkpt lat="51.691968" lon="6.103160">
        <ele>16.533165</ele>
        <time>2024-03-31T13:54:47.998Z</time>
      </trkpt>
      <trkpt lat="51.691951" lon="6.103360">
        <ele>16.553962</ele>
        <time>2024-03-31T13:54:49.998Z</time>
      </trkpt>
      <trkpt lat="51.691934" lon="6.103562">
        <ele>16.574964</ele>
        <time>2024-03-31T13:54:51.998Z</time>
      </trkpt>
      <trkpt lat="51.691921" lon="6.103764">
        <ele>16.595886</ele>
        <time>2024-03-31T13:54:53.998Z</time>
      </trkpt>
      <trkpt lat="51.691915" lon="6.103965">
        <ele>16.616618</ele>
        <time>2024-03-31T13:54:55.998Z</time>
      </trkpt>
      <trkpt lat="51.691897" lon="6.104159">
        <ele>16.636826</ele>
        <time>2024-03-31T13:54:57.998Z</time>
      </trkpt>
      <trkpt lat="51.691878" lon="6.104358">
        <ele>16.678023</ele>
        <time>2024-03-31T13:54:59.998Z</time>
      </trkpt>
      <trkpt lat="51.691868" lon="6.104561">
        <ele>16.739721</ele>
        <time>2024-03-31T13:55:01.998Z</time>
      </trkpt>
      <trkpt lat="51.691856" lon="6.104759">
        <ele>16.799996</ele>
        <time>2024-03-31T13:55:03.998Z</time>
      </trkpt>
      <trkpt lat="51.691840" lon="6.104960">
        <ele>16.861395</ele>
        <time>2024-03-31T13:55:05.998Z</time>
      </trkpt>
      <trkpt lat="51.691826" lon="6.105160">
        <ele>16.922375</ele>
        <time>2024-03-31T13:55:07.998Z</time>
      </trkpt>
      <trkpt lat="51.691814" lon="6.105364">
        <ele>16.984460</ele>
        <time>2024-03-31T13:55:09.998Z</time>
      </trkpt>
      <trkpt lat="51.691799" lon="6.105555">
        <ele>17.042791</ele>
        <time>2024-03-31T13:55:11.998Z</time>
      </trkpt>
      <trkpt lat="51.691781" lon="6.105759">
        <ele>17.105221</ele>
        <time>2024-03-31T13:55:13.998Z</time>
      </trkpt>
      <trkpt lat="51.691767" lon="6.105961">
        <ele>17.166804</ele>
        <time>2024-03-31T13:55:15.998Z</time>
      </trkpt>
      <trkpt lat="51.691754" lon="6.106153">
        <ele>17.225321</ele>
        <time>2024-03-31T13:55:17.998Z</time>
      </trkpt>
      <trkpt lat="51.691741" lon="6.106358">
        <ele>17.287756</ele>
        <time>2024-03-31T13:55:19.998Z</time>
      </trkpt>
      <trkpt lat="51.691728" lon="6.106558">
        <ele>17.348683</ele>
        <time>2024-03-31T13:55:21.998Z</time>
      </trkpt>
      <trkpt lat="51.691715" lon="6.106759">
        <ele>17.409912</ele>
        <time>2024-03-31T13:55:23.997Z</time>
      </trkpt>
      <trkpt lat="51.691701" lon="6.106963">
        <ele>17.472097</ele>
        <time>2024-03-31T13:55:25.997Z</time>
      </trkpt>
      <trkpt lat="51.691686" lon="6.107164">
        <ele>17.524314</ele>
        <time>2024-03-31T13:55:27.997Z</time>
      </trkpt>
      <trkpt lat="51.691671" lon="6.107366">
        <ele>17.508971</ele>
        <time>2024-03-31T13:55:29.997Z</time>
      </trkpt>
      <trkpt lat="51.691654" lon="6.107566">
        <ele>17.493746</ele>
        <time>2024-03-31T13:55:31.997Z</time>
      </trkpt>
      <trkpt lat="51.691640" lon="6.107772">
        <ele>17.478117</ele>
        <time>2024-03-31T13:55:34.000Z</time>
      </trkpt>
      <trkpt lat="51.691631" lon="6.107971">
        <ele>17.463070</ele>
        <time>2024-03-31T13:55:36.000Z</time>
      </trkpt>
      <trkpt lat="51.691619" lon="6.108179">
        <ele>17.447315</ele>
        <time>2024-03-31T13:55:38.000Z</time>
      </trkpt>
      <trkpt lat="51.691599" lon="6.108383">
        <ele>17.431739</ele>
        <time>2024-03-31T13:55:40.000Z</time>
      </trkpt>
      <trkpt lat="51.691585" lon="6.108581">
        <ele>17.416710</ele>
        <time>2024-03-31T13:55:42.000Z</time>
      </trkpt>
      <trkpt lat="51.691571" lon="6.108778">
        <ele>17.401755</ele>
        <time>2024-03-31T13:55:44.000Z</time>
      </trkpt>
      <trkpt lat="51.691556" lon="6.108971">
        <ele>17.387086</ele>
        <time>2024-03-31T13:55:46.000Z</time>
      </trkpt>
      <trkpt lat="51.691547" lon="6.109142">
        <ele>17.374143</ele>
        <time>2024-03-31T13:55:48.000Z</time>
      </trkpt>
      <trkpt lat="51.691556" lon="6.109309">
        <ele>17.361501</ele>
        <time>2024-03-31T13:55:50.000Z</time>
      </trkpt>
      <trkpt lat="51.691592" lon="6.109457">
        <ele>17.349511</ele>
        <time>2024-03-31T13:55:52.000Z</time>
      </trkpt>
      <trkpt lat="51.691639" lon="6.109626">
        <ele>17.335542</ele>
        <time>2024-03-31T13:55:55.000Z</time>
      </trkpt>
      <trkpt lat="51.691717" lon="6.109783">
        <ele>17.320368</ele>
        <time>2024-03-31T13:55:58.000Z</time>
      </trkpt>
      <trkpt lat="51.691778" lon="6.109902">
        <ele>17.308722</ele>
        <time>2024-03-31T13:55:59.999Z</time>
      </trkpt>
      <trkpt lat="51.691848" lon="6.110020">
        <ele>17.332442</ele>
        <time>2024-03-31T13:56:01.999Z</time>
      </trkpt>
      <trkpt lat="51.691943" lon="6.110096">
        <ele>17.362182</ele>
        <time>2024-03-31T13:56:03.999Z</time>
      </trkpt>
      <trkpt lat="51.692047" lon="6.110139">
        <ele>17.392292</ele>
        <time>2024-03-31T13:56:05.999Z</time>
      </trkpt>
      <trkpt lat="51.692156" lon="6.110202">
        <ele>17.424765</ele>
        <time>2024-03-31T13:56:07.999Z</time>
      </trkpt>
      <trkpt lat="51.692259" lon="6.110272">
        <ele>17.456111</ele>
        <time>2024-03-31T13:56:09.999Z</time>
      </trkpt>
      <trkpt lat="51.692365" lon="6.110325">
        <ele>17.487234</ele>
        <time>2024-03-31T13:56:11.999Z</time>
      </trkpt>
      <trkpt lat="51.692463" lon="6.110373">
        <ele>17.515958</ele>
        <time>2024-03-31T13:56:13.999Z</time>
      </trkpt>
      <trkpt lat="51.692548" lon="6.110424">
        <ele>17.541392</ele>
        <time>2024-03-31T13:56:15.999Z</time>
      </trkpt>
      <trkpt lat="51.692659" lon="6.110501">
        <ele>17.575279</ele>
        <time>2024-03-31T13:56:18.999Z</time>
      </trkpt>
      <trkpt lat="51.692747" lon="6.110572">
        <ele>17.602873</ele>
        <time>2024-03-31T13:56:21.999Z</time>
      </trkpt>
      <trkpt lat="51.692825" lon="6.110711">
        <ele>17.635469</ele>
        <time>2024-03-31T13:56:25.999Z</time>
      </trkpt>
      <trkpt lat="51.692832" lon="6.110909">
        <ele>17.669947</ele>
        <time>2024-03-31T13:56:29.999Z</time>
      </trkpt>
      <trkpt lat="51.692792" lon="6.111063">
        <ele>17.698975</ele>
        <time>2024-03-31T13:56:31.999Z</time>
      </trkpt>
      <trkpt lat="51.692730" lon="6.111200">
        <ele>17.728464</ele>
        <time>2024-03-31T13:56:33.999Z</time>
      </trkpt>
      <trkpt lat="51.692641" lon="6.111340">
        <ele>17.763327</ele>
        <time>2024-03-31T13:56:35.999Z</time>
      </trkpt>
      <trkpt lat="51.692572" lon="6.111488">
        <ele>17.795521</ele>
        <time>2024-03-31T13:56:37.999Z</time>
      </trkpt>
      <trkpt lat="51.692486" lon="6.111629">
        <ele>17.807482</ele>
        <time>2024-03-31T13:56:39.999Z</time>
      </trkpt>
      <trkpt lat="51.692403" lon="6.111781">
        <ele>17.799211</ele>
        <time>2024-03-31T13:56:41.999Z</time>
      </trkpt>
      <trkpt lat="51.692319" lon="6.111922">
        <ele>17.791226</ele>
        <time>2024-03-31T13:56:43.998Z</time>
      </trkpt>
      <trkpt lat="51.692240" lon="6.112079">
        <ele>17.782969</ele>
        <time>2024-03-31T13:56:45.998Z</time>
      </trkpt>
      <trkpt lat="51.692156" lon="6.112233">
        <ele>17.774593</ele>
        <time>2024-03-31T13:56:47.998Z</time>
      </trkpt>
      <trkpt lat="51.692073" lon="6.112377">
        <ele>17.766564</ele>
        <time>2024-03-31T13:56:49.998Z</time>
      </trkpt>
      <trkpt lat="51.691989" lon="6.112533">
        <ele>17.758127</ele>
        <time>2024-03-31T13:56:51.998Z</time>
      </trkpt>
      <trkpt lat="51.691906" lon="6.112685">
        <ele>17.749856</ele>
        <time>2024-03-31T13:56:53.998Z</time>
      </trkpt>
      <trkpt lat="51.691821" lon="6.112843">
        <ele>17.741313</ele>
        <time>2024-03-31T13:56:55.998Z</time>
      </trkpt>
      <trkpt lat="51.691737" lon="6.112989">
        <ele>17.733180</ele>
        <time>2024-03-31T13:56:57.998Z</time>
      </trkpt>
      <trkpt lat="51.691657" lon="6.113135">
        <ele>17.725223</ele>
        <time>2024-03-31T13:56:59.998Z</time>
      </trkpt>
      <trkpt lat="51.691577" lon="6.113283">
        <ele>17.717205</ele>
        <time>2024-03-31T13:57:01.998Z</time>
      </trkpt>
      <trkpt lat="51.691503" lon="6.113433">
        <ele>17.709377</ele>
        <time>2024-03-31T13:57:03.998Z</time>
      </trkpt>
      <trkpt lat="51.691436" lon="6.113592">
        <ele>17.701526</ele>
        <time>2024-03-31T13:57:05.998Z</time>
      </trkpt>
      <trkpt lat="51.691395" lon="6.113819">
        <ele>17.698643</ele>
        <time>2024-03-31T13:57:07.998Z</time>
      </trkpt>
      <trkpt lat="51.691332" lon="6.113949">
        <ele>17.724538</ele>
        <time>2024-03-31T13:57:09.998Z</time>
      </trkpt>
      <trkpt lat="51.691259" lon="6.114111">
        <ele>17.755967</ele>
        <time>2024-03-31T13:57:11.998Z</time>
      </trkpt>
      <trkpt lat="51.691198" lon="6.114277">
        <ele>17.786249</ele>
        <time>2024-03-31T13:57:13.998Z</time>
      </trkpt>
      <trkpt lat="51.691152" lon="6.114456">
        <ele>17.816657</ele>
        <time>2024-03-31T13:57:15.998Z</time>
      </trkpt>
      <trkpt lat="51.691118" lon="6.114640">
        <ele>17.846787</ele>
        <time>2024-03-31T13:57:17.998Z</time>
      </trkpt>
      <trkpt lat="51.691084" lon="6.114830">
        <ele>17.877821</ele>
        <time>2024-03-31T13:57:19.998Z</time>
      </trkpt>
      <trkpt lat="51.691049" lon="6.115016">
        <ele>17.908324</ele>
        <time>2024-03-31T13:57:21.998Z</time>
      </trkpt>
      <trkpt lat="51.691017" lon="6.115207">
        <ele>17.939373</ele>
        <time>2024-03-31T13:57:23.998Z</time>
      </trkpt>
      <trkpt lat="51.690988" lon="6.115400">
        <ele>17.970537</ele>
        <time>2024-03-31T13:57:25.998Z</time>
      </trkpt>
      <trkpt lat="51.690970" lon="6.115599">
        <ele>18.002096</ele>
        <time>2024-03-31T13:57:27.998Z</time>
      </trkpt>
      <trkpt lat="51.690953" lon="6.115803">
        <ele>18.034397</ele>
        <time>2024-03-31T13:57:29.997Z</time>
      </trkpt>
      <trkpt lat="51.690936" lon="6.116002">
        <ele>18.065921</ele>
        <time>2024-03-31T13:57:31.997Z</time>
      </trkpt>
      <trkpt lat="51.690920" lon="6.116203">
        <ele>18.097722</ele>
        <time>2024-03-31T13:57:33.997Z</time>
      </trkpt>
      <trkpt lat="51.690905" lon="6.116410">
        <ele>18.130427</ele>
        <time>2024-03-31T13:57:35.997Z</time>
      </trkpt>
      <trkpt lat="51.690887" lon="6.116613">
        <ele>18.163692</ele>
        <time>2024-03-31T13:57:37.997Z</time>
      </trkpt>
      <trkpt lat="51.690873" lon="6.116819">
        <ele>18.198731</ele>
        <time>2024-03-31T13:57:40.000Z</time>
      </trkpt>
      <trkpt lat="51.690857" lon="6.117024">
        <ele>18.233665</ele>
        <time>2024-03-31T13:57:42.000Z</time>
      </trkpt>
      <trkpt lat="51.690842" lon="6.117229">
        <ele>18.268566</ele>
        <time>2024-03-31T13:57:44.000Z</time>
      </trkpt>
      <trkpt lat="51.690822" lon="6.117437">
        <ele>18.304154</ele>
        <time>2024-03-31T13:57:46.000Z</time>
      </trkpt>
      <trkpt lat="51.690806" lon="6.117646">
        <ele>18.339760</ele>
        <time>2024-03-31T13:57:48.000Z</time>
      </trkpt>
      <trkpt lat="51.690787" lon="6.117856">
        <ele>18.375642</ele>
        <time>2024-03-31T13:57:50.000Z</time>
      </trkpt>
      <trkpt lat="51.690770" lon="6.118070">
        <ele>18.412120</ele>
        <time>2024-03-31T13:57:52.000Z</time>
      </trkpt>
      <trkpt lat="51.690756" lon="6.118266">
        <ele>18.445478</ele>
        <time>2024-03-31T13:57:54.000Z</time>
      </trkpt>
      <trkpt lat="51.690739" lon="6.118469">
        <ele>18.480112</ele>
        <time>2024-03-31T13:57:56.000Z</time>
      </trkpt>
      <trkpt lat="51.690722" lon="6.118676">
        <ele>18.515417</ele>
        <time>2024-03-31T13:57:58.000Z</time>
      </trkpt>
      <trkpt lat="51.690702" lon="6.118878">
        <ele>18.550003</ele>
        <time>2024-03-31T13:58:00.000Z</time>
      </trkpt>
      <trkpt lat="51.690679" lon="6.119077">
        <ele>18.584229</ele>
        <time>2024-03-31T13:58:02.000Z</time>
      </trkpt>
      <trkpt lat="51.690656" lon="6.119285">
        <ele>18.619952</ele>
        <time>2024-03-31T13:58:03.999Z</time>
      </trkpt>
      <trkpt lat="51.690626" lon="6.119492">
        <ele>18.642896</ele>
        <time>2024-03-31T13:58:05.999Z</time>
      </trkpt>
      <trkpt lat="51.690589" lon="6.119689">
        <ele>18.650661</ele>
        <time>2024-03-31T13:58:07.999Z</time>
      </trkpt>
      <trkpt lat="51.690547" lon="6.119890">
        <ele>18.658663</ele>
        <time>2024-03-31T13:58:09.999Z</time>
      </trkpt>
      <trkpt lat="51.690510" lon="6.120089">
        <ele>18.666500</ele>
        <time>2024-03-31T13:58:11.999Z</time>
      </trkpt>
      <trkpt lat="51.690461" lon="6.120275">
        <ele>18.674124</ele>
        <time>2024-03-31T13:58:13.999Z</time>
      </trkpt>
      <trkpt lat="51.690410" lon="6.120466">
        <ele>18.681969</ele>
        <time>2024-03-31T13:58:15.999Z</time>
      </trkpt>
      <trkpt lat="51.690369" lon="6.120657">
        <ele>18.689594</ele>
        <time>2024-03-31T13:58:17.999Z</time>
      </trkpt>
      <trkpt lat="51.690304" lon="6.120844">
        <ele>18.697682</ele>
        <time>2024-03-31T13:58:19.999Z</time>
      </trkpt>
      <trkpt lat="51.690243" lon="6.121031">
        <ele>18.705653</ele>
        <time>2024-03-31T13:58:21.999Z</time>
      </trkpt>
      <trkpt lat="51.690180" lon="6.121218">
        <ele>18.713682</ele>
        <time>2024-03-31T13:58:23.999Z</time>
      </trkpt>
      <trkpt lat="51.690114" lon="6.121400">
        <ele>18.721636</ele>
        <time>2024-03-31T13:58:25.999Z</time>
      </trkpt>
      <trkpt lat="51.690049" lon="6.121583">
        <ele>18.729593</ele>
        <time>2024-03-31T13:58:27.999Z</time>
      </trkpt>
      <trkpt lat="51.689978" lon="6.121755">
        <ele>18.737388</ele>
        <time>2024-03-31T13:58:29.999Z</time>
      </trkpt>
      <trkpt lat="51.689907" lon="6.121932">
        <ele>18.745341</ele>
        <time>2024-03-31T13:58:31.999Z</time>
      </trkpt>
      <trkpt lat="51.689837" lon="6.122105">
        <ele>18.690531</ele>
        <time>2024-03-31T13:58:33.999Z</time>
      </trkpt>
      <trkpt lat="51.689765" lon="6.122272">
        <ele>18.591871</ele>
        <time>2024-03-31T13:58:35.999Z</time>
      </trkpt>
      <trkpt lat="51.689695" lon="6.122440">
        <ele>18.493695</ele>
        <time>2024-03-31T13:58:37.999Z</time>
      </trkpt>
      <trkpt lat="51.689623" lon="6.122604">
        <ele>18.396226</ele>
        <time>2024-03-31T13:58:39.999Z</time>
      </trkpt>
      <trkpt lat="51.689548" lon="6.122771">
        <ele>18.296208</ele>
        <time>2024-03-31T13:58:41.999Z</time>
      </trkpt>
      <trkpt lat="51.689470" lon="6.122935">
        <ele>18.195953</ele>
        <time>2024-03-31T13:58:43.999Z</time>
      </trkpt>
      <trkpt lat="51.689389" lon="6.123106">
        <ele>18.091576</ele>
        <time>2024-03-31T13:58:45.999Z</time>
      </trkpt>
      <trkpt lat="51.689312" lon="6.123276">
        <ele>17.989460</ele>
        <time>2024-03-31T13:58:47.998Z</time>
      </trkpt>
      <trkpt lat="51.689224" lon="6.123437">
        <ele>17.885355</ele>
        <time>2024-03-31T13:58:49.998Z</time>
      </trkpt>
      <trkpt lat="51.689152" lon="6.123601">
        <ele>17.787886</ele>
        <time>2024-03-31T13:58:51.998Z</time>
      </trkpt>
      <trkpt lat="51.689077" lon="6.123772">
        <ele>17.686289</ele>
        <time>2024-03-31T13:58:53.998Z</time>
      </trkpt>
      <trkpt lat="51.689000" lon="6.123943">
        <ele>17.583781</ele>
        <time>2024-03-31T13:58:55.998Z</time>
      </trkpt>
      <trkpt lat="51.688923" lon="6.124122">
        <ele>17.478109</ele>
        <time>2024-03-31T13:58:57.998Z</time>
      </trkpt>
      <trkpt lat="51.688847" lon="6.124294">
        <ele>17.375664</ele>
        <time>2024-03-31T13:58:59.998Z</time>
      </trkpt>
      <trkpt lat="51.688774" lon="6.124472">
        <ele>17.354542</ele>
        <time>2024-03-31T13:59:01.998Z</time>
      </trkpt>
      <trkpt lat="51.688698" lon="6.124649">
        <ele>17.374357</ele>
        <time>2024-03-31T13:59:03.998Z</time>
      </trkpt>
      <trkpt lat="51.688619" lon="6.124825">
        <ele>17.394355</ele>
        <time>2024-03-31T13:59:05.998Z</time>
      </trkpt>
      <trkpt lat="51.688544" lon="6.124997">
        <ele>17.413709</ele>
        <time>2024-03-31T13:59:07.998Z</time>
      </trkpt>
      <trkpt lat="51.688471" lon="6.125170">
        <ele>17.432969</ele>
        <time>2024-03-31T13:59:09.998Z</time>
      </trkpt>
      <trkpt lat="51.688399" lon="6.125349">
        <ele>17.452607</ele>
        <time>2024-03-31T13:59:11.998Z</time>
      </trkpt>
      <trkpt lat="51.688325" lon="6.125525">
        <ele>17.472179</ele>
        <time>2024-03-31T13:59:13.998Z</time>
      </trkpt>
      <trkpt lat="51.688253" lon="6.125688">
        <ele>17.490600</ele>
        <time>2024-03-31T13:59:15.998Z</time>
      </trkpt>
      <trkpt lat="51.688197" lon="6.125850">
        <ele>17.507670</ele>
        <time>2024-03-31T13:59:17.998Z</time>
      </trkpt>
      <trkpt lat="51.688141" lon="6.125998">
        <ele>17.523628</ele>
        <time>2024-03-31T13:59:19.998Z</time>
      </trkpt>
      <trkpt lat="51.688082" lon="6.126129">
        <ele>17.538531</ele>
        <time>2024-03-31T13:59:21.998Z</time>
      </trkpt>
      <trkpt lat="51.688035" lon="6.126266">
        <ele>17.552941</ele>
        <time>2024-03-31T13:59:23.998Z</time>
      </trkpt>
      <trkpt lat="51.687977" lon="6.126402">
        <ele>17.568134</ele>
        <time>2024-03-31T13:59:25.998Z</time>
      </trkpt>
      <trkpt lat="51.687919" lon="6.126551">
        <ele>17.584326</ele>
        <time>2024-03-31T13:59:27.998Z</time>
      </trkpt>
      <trkpt lat="51.687858" lon="6.126706">
        <ele>17.601224</ele>
        <time>2024-03-31T13:59:29.998Z</time>
      </trkpt>
      <trkpt lat="51.687795" lon="6.126870">
        <ele>17.611598</ele>
        <time>2024-03-31T13:59:31.997Z</time>
      </trkpt>
      <trkpt lat="51.687734" lon="6.127044">
        <ele>17.617132</ele>
        <time>2024-03-31T13:59:33.997Z</time>
      </trkpt>
      <trkpt lat="51.687673" lon="6.127220">
        <ele>17.622713</ele>
        <time>2024-03-31T13:59:35.997Z</time>
      </trkpt>
      <trkpt lat="51.687610" lon="6.127395">
        <ele>17.628315</ele>
        <time>2024-03-31T13:59:37.997Z</time>
      </trkpt>
      <trkpt lat="51.687552" lon="6.127567">
        <ele>17.633735</ele>
        <time>2024-03-31T13:59:39.997Z</time>
      </trkpt>
      <trkpt lat="51.687490" lon="6.127719">
        <ele>17.638772</ele>
        <time>2024-03-31T13:59:41.997Z</time>
      </trkpt>
      <trkpt lat="51.687440" lon="6.127877">
        <ele>17.643683</ele>
        <time>2024-03-31T13:59:43.997Z</time>
      </trkpt>
      <trkpt lat="51.687392" lon="6.128028">
        <ele>17.648380</ele>
        <time>2024-03-31T13:59:46.000Z</time>
      </trkpt>
      <trkpt lat="51.687341" lon="6.128169">
        <ele>17.652899</ele>
        <time>2024-03-31T13:59:48.000Z</time>
      </trkpt>
      <trkpt lat="51.687280" lon="6.128323">
        <ele>17.657958</ele>
        <time>2024-03-31T13:59:50.000Z</time>
      </trkpt>
      <trkpt lat="51.687217" lon="6.128478">
        <ele>17.663088</ele>
        <time>2024-03-31T13:59:52.000Z</time>
      </trkpt>
      <trkpt lat="51.687160" lon="6.128649">
        <ele>17.668463</ele>
        <time>2024-03-31T13:59:54.000Z</time>
      </trkpt>
      <trkpt lat="51.687104" lon="6.128825">
        <ele>17.673939</ele>
        <time>2024-03-31T13:59:56.000Z</time>
      </trkpt>
      <trkpt lat="51.687080" lon="6.129011">
        <ele>17.679198</ele>
        <time>2024-03-31T13:59:58.000Z</time>
      </trkpt>
      <trkpt lat="51.687073" lon="6.129202">
        <ele>17.684495</ele>
        <time>2024-03-31T14:00:00.000Z</time>
      </trkpt>
      <trkpt lat="51.686975" lon="6.129324">
        <ele>17.696256</ele>
        <time>2024-03-31T14:00:02.000Z</time>
      </trkpt>
      <trkpt lat="51.686889" lon="6.129466">
        <ele>17.728373</ele>
        <time>2024-03-31T14:00:04.000Z</time>
      </trkpt>
      <trkpt lat="51.686817" lon="6.129635">
        <ele>17.761549</ele>
        <time>2024-03-31T14:00:06.000Z</time>
      </trkpt>
      <trkpt lat="51.686753" lon="6.129799">
        <ele>17.792901</ele>
        <time>2024-03-31T14:00:08.000Z</time>
      </trkpt>
      <trkpt lat="51.686706" lon="6.129968">
        <ele>17.822868</ele>
        <time>2024-03-31T14:00:10.000Z</time>
      </trkpt>
      <trkpt lat="51.686645" lon="6.130118">
        <ele>17.851891</ele>
        <time>2024-03-31T14:00:11.999Z</time>
      </trkpt>
      <trkpt lat="51.686591" lon="6.130278">
        <ele>17.881365</ele>
        <time>2024-03-31T14:00:13.999Z</time>
      </trkpt>
      <trkpt lat="51.686534" lon="6.130440">
        <ele>17.911502</ele>
        <time>2024-03-31T14:00:15.999Z</time>
      </trkpt>
      <trkpt lat="51.686484" lon="6.130620">
        <ele>17.943413</ele>
        <time>2024-03-31T14:00:17.999Z</time>
      </trkpt>
      <trkpt lat="51.686427" lon="6.130797">
        <ele>17.975683</ele>
        <time>2024-03-31T14:00:19.999Z</time>
      </trkpt>
      <trkpt lat="51.686370" lon="6.130983">
        <ele>18.009251</ele>
        <time>2024-03-31T14:00:21.999Z</time>
      </trkpt>
      <trkpt lat="51.686314" lon="6.131161">
        <ele>18.041546</ele>
        <time>2024-03-31T14:00:23.999Z</time>
      </trkpt>
      <trkpt lat="51.686257" lon="6.131329">
        <ele>18.072530</ele>
        <time>2024-03-31T14:00:25.999Z</time>
      </trkpt>
      <trkpt lat="51.686192" lon="6.131500">
        <ele>18.104983</ele>
        <time>2024-03-31T14:00:27.999Z</time>
      </trkpt>
      <trkpt lat="51.686132" lon="6.131664">
        <ele>18.135792</ele>
        <time>2024-03-31T14:00:29.999Z</time>
      </trkpt>
      <trkpt lat="51.686081" lon="6.131847">
        <ele>18.146629</ele>
        <time>2024-03-31T14:00:31.999Z</time>
      </trkpt>
      <trkpt lat="51.686030" lon="6.132026">
        <ele>18.110497</ele>
        <time>2024-03-31T14:00:33.999Z</time>
      </trkpt>
      <trkpt lat="51.685961" lon="6.132192">
        <ele>18.073841</ele>
        <time>2024-03-31T14:00:35.999Z</time>
      </trkpt>
      <trkpt lat="51.685885" lon="6.132343">
        <ele>18.038168</ele>
        <time>2024-03-31T14:00:37.999Z</time>
      </trkpt>
      <trkpt lat="51.685810" lon="6.132505">
        <ele>18.001084</ele>
        <time>2024-03-31T14:00:39.999Z</time>
      </trkpt>
      <trkpt lat="51.685735" lon="6.132668">
        <ele>17.963854</ele>
        <time>2024-03-31T14:00:41.999Z</time>
      </trkpt>
      <trkpt lat="51.685664" lon="6.132829">
        <ele>17.927615</ele>
        <time>2024-03-31T14:00:43.999Z</time>
      </trkpt>
      <trkpt lat="51.685586" lon="6.133006">
        <ele>17.887785</ele>
        <time>2024-03-31T14:00:45.999Z</time>
      </trkpt>
      <trkpt lat="51.685515" lon="6.133175">
        <ele>17.850341</ele>
        <time>2024-03-31T14:00:47.999Z</time>
      </trkpt>
      <trkpt lat="51.685440" lon="6.133341">
        <ele>17.812667</ele>
        <time>2024-03-31T14:00:49.999Z</time>
      </trkpt>
      <trkpt lat="51.685369" lon="6.133511">
        <ele>17.775072</ele>
        <time>2024-03-31T14:00:51.999Z</time>
      </trkpt>
      <trkpt lat="51.685296" lon="6.133687">
        <ele>17.736232</ele>
        <time>2024-03-31T14:00:53.999Z</time>
      </trkpt>
      <trkpt lat="51.685226" lon="6.133865">
        <ele>17.697570</ele>
        <time>2024-03-31T14:00:55.999Z</time>
      </trkpt>
      <trkpt lat="51.685153" lon="6.134043">
        <ele>17.658425</ele>
        <time>2024-03-31T14:00:57.998Z</time>
      </trkpt>
      <trkpt lat="51.685087" lon="6.134220">
        <ele>17.628252</ele>
        <time>2024-03-31T14:00:59.998Z</time>
      </trkpt>
      <trkpt lat="51.685015" lon="6.134401">
        <ele>17.644490</ele>
        <time>2024-03-31T14:01:01.998Z</time>
      </trkpt>
      <trkpt lat="51.684946" lon="6.134584">
        <ele>17.660662</ele>
        <time>2024-03-31T14:01:03.998Z</time>
      </trkpt>
      <trkpt lat="51.684874" lon="6.134763">
        <ele>17.676773</ele>
        <time>2024-03-31T14:01:05.998Z</time>
      </trkpt>
      <trkpt lat="51.684802" lon="6.134938">
        <ele>17.692631</ele>
        <time>2024-03-31T14:01:07.998Z</time>
      </trkpt>
      <trkpt lat="51.684729" lon="6.135113">
        <ele>17.708557</ele>
        <time>2024-03-31T14:01:09.998Z</time>
      </trkpt>
      <trkpt lat="51.684658" lon="6.135298">
        <ele>17.724986</ele>
        <time>2024-03-31T14:01:11.998Z</time>
      </trkpt>
      <trkpt lat="51.684596" lon="6.135472">
        <ele>17.740139</ele>
        <time>2024-03-31T14:01:13.998Z</time>
      </trkpt>
      <trkpt lat="51.684537" lon="6.135640">
        <ele>17.754718</ele>
        <time>2024-03-31T14:01:15.998Z</time>
      </trkpt>
      <trkpt lat="51.684466" lon="6.135803">
        <ele>17.769760</ele>
        <time>2024-03-31T14:01:17.998Z</time>
      </trkpt>
      <trkpt lat="51.684393" lon="6.135968">
        <ele>17.785065</ele>
        <time>2024-03-31T14:01:19.998Z</time>
      </trkpt>
      <trkpt lat="51.684313" lon="6.136139">
        <ele>17.801241</ele>
        <time>2024-03-31T14:01:21.998Z</time>
      </trkpt>
      <trkpt lat="51.684264" lon="6.136294">
        <ele>17.814378</ele>
        <time>2024-03-31T14:01:23.998Z</time>
      </trkpt>
      <trkpt lat="51.684280" lon="6.136461">
        <ele>17.827137</ele>
        <time>2024-03-31T14:01:25.998Z</time>
      </trkpt>
      <trkpt lat="51.684182" lon="6.136540">
        <ele>17.840480</ele>
        <time>2024-03-31T14:01:27.998Z</time>
      </trkpt>
      <trkpt lat="51.684100" lon="6.136662">
        <ele>17.856834</ele>
        <time>2024-03-31T14:01:29.998Z</time>
      </trkpt>
      <trkpt lat="51.684021" lon="6.136805">
        <ele>17.875737</ele>
        <time>2024-03-31T14:01:31.998Z</time>
      </trkpt>
      <trkpt lat="51.683944" lon="6.136959">
        <ele>17.895263</ele>
        <time>2024-03-31T14:01:33.998Z</time>
      </trkpt>
      <trkpt lat="51.683888" lon="6.137127">
        <ele>17.914089</ele>
        <time>2024-03-31T14:01:35.998Z</time>
      </trkpt>
      <trkpt lat="51.683826" lon="6.137281">
        <ele>17.932211</ele>
        <time>2024-03-31T14:01:37.998Z</time>
      </trkpt>
      <trkpt lat="51.683762" lon="6.137447">
        <ele>17.951504</ele>
        <time>2024-03-31T14:01:39.998Z</time>
      </trkpt>
      <trkpt lat="51.683686" lon="6.137602">
        <ele>17.971008</ele>
        <time>2024-03-31T14:01:41.997Z</time>
      </trkpt>
      <trkpt lat="51.683592" lon="6.137745">
        <ele>17.991578</ele>
        <time>2024-03-31T14:01:43.997Z</time>
      </trkpt>
      <trkpt lat="51.683514" lon="6.137906">
        <ele>18.011744</ele>
        <time>2024-03-31T14:01:45.997Z</time>
      </trkpt>
      <trkpt lat="51.683452" lon="6.138076">
        <ele>18.031210</ele>
        <time>2024-03-31T14:01:47.997Z</time>
      </trkpt>
      <trkpt lat="51.683382" lon="6.138243">
        <ele>18.051106</ele>
        <time>2024-03-31T14:01:49.997Z</time>
      </trkpt>
      <trkpt lat="51.683312" lon="6.138411">
        <ele>18.071083</ele>
        <time>2024-03-31T14:01:52.000Z</time>
      </trkpt>
      <trkpt lat="51.683244" lon="6.138579">
        <ele>18.090885</ele>
        <time>2024-03-31T14:01:54.000Z</time>
      </trkpt>
      <trkpt lat="51.683174" lon="6.138745">
        <ele>18.110699</ele>
        <time>2024-03-31T14:01:56.000Z</time>
      </trkpt>
      <trkpt lat="51.683104" lon="6.138916">
        <ele>18.130924</ele>
        <time>2024-03-31T14:01:58.000Z</time>
      </trkpt>
      <trkpt lat="51.683044" lon="6.139094">
        <ele>18.080786</ele>
        <time>2024-03-31T14:02:00.000Z</time>
      </trkpt>
      <trkpt lat="51.682976" lon="6.139264">
        <ele>18.029095</ele>
        <time>2024-03-31T14:02:02.000Z</time>
      </trkpt>
      <trkpt lat="51.682895" lon="6.139429">
        <ele>17.975322</ele>
        <time>2024-03-31T14:02:04.000Z</time>
      </trkpt>
      <trkpt lat="51.682817" lon="6.139585">
        <ele>17.924117</ele>
        <time>2024-03-31T14:02:06.000Z</time>
      </trkpt>
      <trkpt lat="51.682740" lon="6.139764">
        <ele>17.868452</ele>
        <time>2024-03-31T14:02:08.000Z</time>
      </trkpt>
      <trkpt lat="51.682666" lon="6.139948">
        <ele>17.812414</ele>
        <time>2024-03-31T14:02:10.000Z</time>
      </trkpt>
      <trkpt lat="51.682596" lon="6.140121">
        <ele>17.759631</ele>
        <time>2024-03-31T14:02:12.000Z</time>
      </trkpt>
      <trkpt lat="51.682528" lon="6.140295">
        <ele>17.707078</ele>
        <time>2024-03-31T14:02:14.000Z</time>
      </trkpt>
      <trkpt lat="51.682462" lon="6.140466">
        <ele>17.655613</ele>
        <time>2024-03-31T14:02:16.000Z</time>
      </trkpt>
      <trkpt lat="51.682400" lon="6.140636">
        <ele>17.605219</ele>
        <time>2024-03-31T14:02:17.999Z</time>
      </trkpt>
      <trkpt lat="51.682332" lon="6.140808">
        <ele>17.553097</ele>
        <time>2024-03-31T14:02:19.999Z</time>
      </trkpt>
      <trkpt lat="51.682265" lon="6.140979">
        <ele>17.501412</ele>
        <time>2024-03-31T14:02:21.999Z</time>
      </trkpt>
      <trkpt lat="51.682192" lon="6.141154">
        <ele>17.447520</ele>
        <time>2024-03-31T14:02:23.999Z</time>
      </trkpt>
      <trkpt lat="51.682124" lon="6.141331">
        <ele>17.394317</ele>
        <time>2024-03-31T14:02:25.999Z</time>
      </trkpt>
      <trkpt lat="51.682056" lon="6.141514">
        <ele>17.421434</ele>
        <time>2024-03-31T14:02:27.999Z</time>
      </trkpt>
      <trkpt lat="51.681988" lon="6.141687">
        <ele>17.453937</ele>
        <time>2024-03-31T14:02:29.999Z</time>
      </trkpt>
      <trkpt lat="51.681920" lon="6.141863">
        <ele>17.486843</ele>
        <time>2024-03-31T14:02:31.999Z</time>
      </trkpt>
      <trkpt lat="51.681855" lon="6.142037">
        <ele>17.519077</ele>
        <time>2024-03-31T14:02:33.999Z</time>
      </trkpt>
      <trkpt lat="51.681789" lon="6.142213">
        <ele>17.551715</ele>
        <time>2024-03-31T14:02:35.999Z</time>
      </trkpt>
      <trkpt lat="51.681722" lon="6.142385">
        <ele>17.583948</ele>
        <time>2024-03-31T14:02:37.999Z</time>
      </trkpt>
      <trkpt lat="51.681661" lon="6.142563">
        <ele>17.616220</ele>
        <time>2024-03-31T14:02:39.999Z</time>
      </trkpt>
      <trkpt lat="51.681600" lon="6.142738">
        <ele>17.648076</ele>
        <time>2024-03-31T14:02:41.999Z</time>
      </trkpt>
      <trkpt lat="51.681532" lon="6.142914">
        <ele>17.680983</ele>
        <time>2024-03-31T14:02:43.999Z</time>
      </trkpt>
      <trkpt lat="51.681468" lon="6.143091">
        <ele>17.713496</ele>
        <time>2024-03-31T14:02:45.999Z</time>
      </trkpt>
      <trkpt lat="51.681402" lon="6.143266">
        <ele>17.745999</ele>
        <time>2024-03-31T14:02:47.999Z</time>
      </trkpt>
      <trkpt lat="51.681337" lon="6.143442">
        <ele>17.778506</ele>
        <time>2024-03-31T14:02:49.999Z</time>
      </trkpt>
      <trkpt lat="51.681273" lon="6.143613">
        <ele>17.810200</ele>
        <time>2024-03-31T14:02:51.999Z</time>
      </trkpt>
      <trkpt lat="51.681214" lon="6.143789">
        <ele>17.841949</ele>
        <time>2024-03-31T14:02:53.999Z</time>
      </trkpt>
      <trkpt lat="51.681161" lon="6.143950">
        <ele>17.858477</ele>
        <time>2024-03-31T14:02:55.999Z</time>
      </trkpt>
      <trkpt lat="51.681107" lon="6.144097">
        <ele>17.869112</ele>
        <time>2024-03-31T14:02:57.999Z</time>
      </trkpt>
      <trkpt lat="51.681055" lon="6.144242">
        <ele>17.879538</ele>
        <time>2024-03-31T14:02:59.999Z</time>
      </trkpt>
      <trkpt lat="51.681007" lon="6.144376">
        <ele>17.889171</ele>
        <time>2024-03-31T14:03:01.999Z</time>
      </trkpt>
      <trkpt lat="51.680960" lon="6.144509">
        <ele>17.898700</ele>
        <time>2024-03-31T14:03:03.998Z</time>
      </trkpt>
      <trkpt lat="51.680909" lon="6.144642">
        <ele>17.908433</ele>
        <time>2024-03-31T14:03:05.998Z</time>
      </trkpt>
      <trkpt lat="51.680846" lon="6.144821">
        <ele>17.921245</ele>
        <time>2024-03-31T14:03:08.998Z</time>
      </trkpt>
      <trkpt lat="51.680802" lon="6.144963">
        <ele>17.931126</ele>
        <time>2024-03-31T14:03:11.998Z</time>
      </trkpt>
      <trkpt lat="51.680800" lon="6.145110">
        <ele>17.940278</ele>
        <time>2024-03-31T14:03:14.998Z</time>
      </trkpt>
      <trkpt lat="51.680645" lon="6.145370">
        <ele>17.962728</ele>
        <time>2024-03-31T14:04:10.000Z</time>
      </trkpt>
      <trkpt lat="51.680553" lon="6.145522">
        <ele>17.975950</ele>
        <time>2024-03-31T14:04:13.000Z</time>
      </trkpt>
      <trkpt lat="51.680504" lon="6.145651">
        <ele>17.985366</ele>
        <time>2024-03-31T14:04:15.000Z</time>
      </trkpt>
      <trkpt lat="51.680460" lon="6.145781">
        <ele>17.994585</ele>
        <time>2024-03-31T14:04:17.000Z</time>
      </trkpt>
      <trkpt lat="51.680405" lon="6.145898">
        <ele>18.003724</ele>
        <time>2024-03-31T14:04:19.000Z</time>
      </trkpt>
      <trkpt lat="51.680320" lon="6.146064">
        <ele>18.017125</ele>
        <time>2024-03-31T14:04:21.999Z</time>
      </trkpt>
      <trkpt lat="51.680261" lon="6.146187">
        <ele>18.026804</ele>
        <time>2024-03-31T14:04:23.999Z</time>
      </trkpt>
      <trkpt lat="51.680194" lon="6.146309">
        <ele>18.016447</ele>
        <time>2024-03-31T14:04:25.999Z</time>
      </trkpt>
      <trkpt lat="51.680124" lon="6.146429">
        <ele>17.991140</ele>
        <time>2024-03-31T14:04:27.999Z</time>
      </trkpt>
      <trkpt lat="51.680046" lon="6.146543">
        <ele>17.965063</ele>
        <time>2024-03-31T14:04:29.999Z</time>
      </trkpt>
      <trkpt lat="51.679969" lon="6.146661">
        <ele>17.938751</ele>
        <time>2024-03-31T14:04:31.999Z</time>
      </trkpt>
      <trkpt lat="51.679889" lon="6.146790">
        <ele>17.910726</ele>
        <time>2024-03-31T14:04:33.999Z</time>
      </trkpt>
      <trkpt lat="51.679814" lon="6.146909">
        <ele>17.884663</ele>
        <time>2024-03-31T14:04:35.999Z</time>
      </trkpt>
      <trkpt lat="51.679734" lon="6.147035">
        <ele>17.856962</ele>
        <time>2024-03-31T14:04:37.999Z</time>
      </trkpt>
      <trkpt lat="51.679653" lon="6.147160">
        <ele>17.829190</ele>
        <time>2024-03-31T14:04:39.999Z</time>
      </trkpt>
      <trkpt lat="51.679577" lon="6.147283">
        <ele>17.802518</ele>
        <time>2024-03-31T14:04:41.999Z</time>
      </trkpt>
      <trkpt lat="51.679502" lon="6.147406">
        <ele>17.776019</ele>
        <time>2024-03-31T14:04:43.999Z</time>
      </trkpt>
      <trkpt lat="51.679431" lon="6.147516">
        <ele>17.751630</ele>
        <time>2024-03-31T14:04:45.999Z</time>
      </trkpt>
      <trkpt lat="51.679370" lon="6.147654">
        <ele>17.725598</ele>
        <time>2024-03-31T14:04:47.999Z</time>
      </trkpt>
      <trkpt lat="51.679319" lon="6.147810">
        <ele>17.698509</ele>
        <time>2024-03-31T14:04:49.999Z</time>
      </trkpt>
      <trkpt lat="51.679276" lon="6.147967">
        <ele>17.672145</ele>
        <time>2024-03-31T14:04:51.999Z</time>
      </trkpt>
      <trkpt lat="51.679242" lon="6.148132">
        <ele>17.645438</ele>
        <time>2024-03-31T14:04:53.999Z</time>
      </trkpt>
      <trkpt lat="51.679222" lon="6.148303">
        <ele>17.618708</ele>
        <time>2024-03-31T14:04:55.999Z</time>
      </trkpt>
      <trkpt lat="51.679206" lon="6.148479">
        <ele>17.591385</ele>
        <time>2024-03-31T14:04:57.999Z</time>
      </trkpt>
      <trkpt lat="51.679186" lon="6.148652">
        <ele>17.509417</ele>
        <time>2024-03-31T14:04:59.999Z</time>
      </trkpt>
      <trkpt lat="51.679175" lon="6.148834">
        <ele>17.408250</ele>
        <time>2024-03-31T14:05:01.999Z</time>
      </trkpt>
      <trkpt lat="51.679169" lon="6.149015">
        <ele>17.307971</ele>
        <time>2024-03-31T14:05:03.998Z</time>
      </trkpt>
      <trkpt lat="51.679151" lon="6.149179">
        <ele>17.215830</ele>
        <time>2024-03-31T14:05:05.998Z</time>
      </trkpt>
      <trkpt lat="51.679138" lon="6.149359">
        <ele>17.115574</ele>
        <time>2024-03-31T14:05:07.998Z</time>
      </trkpt>
      <trkpt lat="51.679121" lon="6.149527">
        <ele>17.021401</ele>
        <time>2024-03-31T14:05:09.998Z</time>
      </trkpt>
      <trkpt lat="51.679104" lon="6.149695">
        <ele>16.927227</ele>
        <time>2024-03-31T14:05:11.998Z</time>
      </trkpt>
      <trkpt lat="51.679085" lon="6.149861">
        <ele>16.833838</ele>
        <time>2024-03-31T14:05:13.998Z</time>
      </trkpt>
      <trkpt lat="51.679064" lon="6.150029">
        <ele>16.739024</ele>
        <time>2024-03-31T14:05:15.998Z</time>
      </trkpt>
      <trkpt lat="51.679053" lon="6.150186">
        <ele>16.651613</ele>
        <time>2024-03-31T14:05:17.998Z</time>
      </trkpt>
      <trkpt lat="51.679031" lon="6.150332">
        <ele>16.568489</ele>
        <time>2024-03-31T14:05:19.998Z</time>
      </trkpt>
      <trkpt lat="51.678981" lon="6.150479">
        <ele>16.475731</ele>
        <time>2024-03-31T14:05:21.998Z</time>
      </trkpt>
      <trkpt lat="51.678931" lon="6.150641">
        <ele>16.375617</ele>
        <time>2024-03-31T14:05:23.998Z</time>
      </trkpt>
      <trkpt lat="51.678897" lon="6.150818">
        <ele>16.273102</ele>
        <time>2024-03-31T14:05:25.998Z</time>
      </trkpt>
      <trkpt lat="51.678866" lon="6.150996">
        <ele>16.170815</ele>
        <time>2024-03-31T14:05:27.998Z</time>
      </trkpt>
      <trkpt lat="51.678837" lon="6.151170">
        <ele>16.071134</ele>
        <time>2024-03-31T14:05:29.998Z</time>
      </trkpt>
      <trkpt lat="51.678797" lon="6.151341">
        <ele>15.980783</ele>
        <time>2024-03-31T14:05:31.998Z</time>
      </trkpt>
      <trkpt lat="51.678744" lon="6.151505">
        <ele>15.981842</ele>
        <time>2024-03-31T14:05:33.998Z</time>
      </trkpt>
      <trkpt lat="51.678690" lon="6.151652">
        <ele>15.982820</ele>
        <time>2024-03-31T14:05:35.998Z</time>
      </trkpt>
      <trkpt lat="51.678623" lon="6.151790">
        <ele>15.983824</ele>
        <time>2024-03-31T14:05:37.998Z</time>
      </trkpt>
      <trkpt lat="51.678597" lon="6.151953">
        <ele>15.984787</ele>
        <time>2024-03-31T14:05:40.998Z</time>
      </trkpt>
      <trkpt lat="51.678676" lon="6.152046">
        <ele>15.985690</ele>
        <time>2024-03-31T14:05:42.998Z</time>
      </trkpt>
      <trkpt lat="51.678759" lon="6.152157">
        <ele>15.986686</ele>
        <time>2024-03-31T14:05:44.998Z</time>
      </trkpt>
      <trkpt lat="51.678843" lon="6.152236">
        <ele>15.987584</ele>
        <time>2024-03-31T14:05:46.998Z</time>
      </trkpt>
      <trkpt lat="51.678936" lon="6.152362">
        <ele>15.988705</ele>
        <time>2024-03-31T14:05:48.997Z</time>
      </trkpt>
      <trkpt lat="51.679027" lon="6.152467">
        <ele>15.989739</ele>
        <time>2024-03-31T14:05:50.997Z</time>
      </trkpt>
      <trkpt lat="51.679103" lon="6.152589">
        <ele>15.990729</ele>
        <time>2024-03-31T14:05:52.997Z</time>
      </trkpt>
      <trkpt lat="51.679155" lon="6.152729">
        <ele>15.991663</ele>
        <time>2024-03-31T14:05:54.997Z</time>
      </trkpt>
      <trkpt lat="51.679192" lon="6.152899">
        <ele>15.992695</ele>
        <time>2024-03-31T14:05:57.997Z</time>
      </trkpt>
      <trkpt lat="51.679303" lon="6.152889">
        <ele>15.993721</ele>
        <time>2024-03-31T14:06:03.000Z</time>
      </trkpt>
      <trkpt lat="51.679388" lon="6.152939">
        <ele>15.994556</ele>
        <time>2024-03-31T14:06:05.000Z</time>
      </trkpt>
      <trkpt lat="51.679480" lon="6.152985">
        <ele>15.995446</ele>
        <time>2024-03-31T14:06:07.000Z</time>
      </trkpt>
      <trkpt lat="51.679576" lon="6.153033">
        <ele>15.996374</ele>
        <time>2024-03-31T14:06:08.999Z</time>
      </trkpt>
      <trkpt lat="51.679662" lon="6.153103">
        <ele>15.997263</ele>
        <time>2024-03-31T14:06:10.999Z</time>
      </trkpt>
      <trkpt lat="51.679771" lon="6.153243">
        <ele>15.999486</ele>
        <time>2024-03-31T14:06:14.000Z</time>
      </trkpt>
      <trkpt lat="51.679858" lon="6.153334">
        <ele>16.001150</ele>
        <time>2024-03-31T14:06:16.000Z</time>
      </trkpt>
      <trkpt lat="51.679986" lon="6.153274">
        <ele>16.003289</ele>
        <time>2024-03-31T14:06:19.000Z</time>
      </trkpt>
      <trkpt lat="51.680068" lon="6.153191">
        <ele>16.004842</ele>
        <time>2024-03-31T14:06:21.000Z</time>
      </trkpt>
      <trkpt lat="51.680162" lon="6.153069">
        <ele>16.006778</ele>
        <time>2024-03-31T14:06:23.999Z</time>
      </trkpt>
      <trkpt lat="51.680287" lon="6.153084">
        <ele>16.008789</ele>
        <time>2024-03-31T14:06:26.999Z</time>
      </trkpt>
      <trkpt lat="51.680320" lon="6.153238">
        <ele>16.010410</ele>
        <time>2024-03-31T14:06:28.999Z</time>
      </trkpt>
      <trkpt lat="51.680373" lon="6.153377">
        <ele>16.012033</ele>
        <time>2024-03-31T14:06:31.999Z</time>
      </trkpt>
      <trkpt lat="51.680423" lon="6.153536">
        <ele>16.013807</ele>
        <time>2024-03-31T14:06:34.999Z</time>
      </trkpt>
      <trkpt lat="51.680465" lon="6.153675">
        <ele>16.015345</ele>
        <time>2024-03-31T14:06:36.999Z</time>
      </trkpt>
      <trkpt lat="51.680519" lon="6.153812">
        <ele>16.016960</ele>
        <time>2024-03-31T14:06:38.999Z</time>
      </trkpt>
      <trkpt lat="51.680566" lon="6.153948">
        <ele>16.018509</ele>
        <time>2024-03-31T14:06:40.999Z</time>
      </trkpt>
      <trkpt lat="51.680610" lon="6.154077">
        <ele>16.019974</ele>
        <time>2024-03-31T14:06:42.999Z</time>
      </trkpt>
      <trkpt lat="51.680670" lon="6.154224">
        <ele>16.021725</ele>
        <time>2024-03-31T14:06:45.999Z</time>
      </trkpt>
      <trkpt lat="51.680684" lon="6.154393">
        <ele>16.023421</ele>
        <time>2024-03-31T14:06:49.999Z</time>
      </trkpt>
      <trkpt lat="51.680596" lon="6.154480">
        <ele>16.025077</ele>
        <time>2024-03-31T14:06:51.999Z</time>
      </trkpt>
      <trkpt lat="51.680532" lon="6.154583">
        <ele>16.025698</ele>
        <time>2024-03-31T14:06:53.999Z</time>
      </trkpt>
      <trkpt lat="51.680447" lon="6.154678">
        <ele>16.023815</ele>
        <time>2024-03-31T14:06:55.999Z</time>
      </trkpt>
      <trkpt lat="51.680376" lon="6.154798">
        <ele>16.021943</ele>
        <time>2024-03-31T14:06:57.999Z</time>
      </trkpt>
      <trkpt lat="51.680305" lon="6.154922">
        <ele>16.020037</ele>
        <time>2024-03-31T14:06:59.999Z</time>
      </trkpt>
      <trkpt lat="51.680230" lon="6.155053">
        <ele>16.018024</ele>
        <time>2024-03-31T14:07:01.999Z</time>
      </trkpt>
      <trkpt lat="51.680153" lon="6.155188">
        <ele>16.015954</ele>
        <time>2024-03-31T14:07:03.999Z</time>
      </trkpt>
      <trkpt lat="51.680075" lon="6.155320">
        <ele>16.013895</ele>
        <time>2024-03-31T14:07:05.999Z</time>
      </trkpt>
      <trkpt lat="51.679996" lon="6.155459">
        <ele>16.011767</ele>
        <time>2024-03-31T14:07:07.999Z</time>
      </trkpt>
      <trkpt lat="51.679916" lon="6.155600">
        <ele>16.009609</ele>
        <time>2024-03-31T14:07:09.999Z</time>
      </trkpt>
      <trkpt lat="51.679835" lon="6.155741">
        <ele>16.007439</ele>
        <time>2024-03-31T14:07:11.998Z</time>
      </trkpt>
      <trkpt lat="51.679755" lon="6.155880">
        <ele>16.005298</ele>
        <time>2024-03-31T14:07:13.998Z</time>
      </trkpt>
      <trkpt lat="51.679672" lon="6.156022">
        <ele>16.003095</ele>
        <time>2024-03-31T14:07:15.998Z</time>
      </trkpt>
      <trkpt lat="51.679591" lon="6.156163">
        <ele>16.000925</ele>
        <time>2024-03-31T14:07:17.998Z</time>
      </trkpt>
      <trkpt lat="51.679512" lon="6.156320">
        <ele>15.998643</ele>
        <time>2024-03-31T14:07:19.998Z</time>
      </trkpt>
      <trkpt lat="51.679432" lon="6.156471">
        <ele>15.996401</ele>
        <time>2024-03-31T14:07:21.998Z</time>
      </trkpt>
      <trkpt lat="51.679361" lon="6.156614">
        <ele>15.994333</ele>
        <time>2024-03-31T14:07:23.998Z</time>
      </trkpt>
      <trkpt lat="51.679287" lon="6.156744">
        <ele>16.018840</ele>
        <time>2024-03-31T14:07:25.998Z</time>
      </trkpt>
      <trkpt lat="51.679223" lon="6.156881">
        <ele>16.065687</ele>
        <time>2024-03-31T14:07:27.998Z</time>
      </trkpt>
      <trkpt lat="51.679145" lon="6.157007">
        <ele>16.114314</ele>
        <time>2024-03-31T14:07:29.998Z</time>
      </trkpt>
      <trkpt lat="51.679068" lon="6.157146">
        <ele>16.165221</ele>
        <time>2024-03-31T14:07:31.998Z</time>
      </trkpt>
      <trkpt lat="51.678987" lon="6.157283">
        <ele>16.216921</ele>
        <time>2024-03-31T14:07:33.998Z</time>
      </trkpt>
      <trkpt lat="51.678909" lon="6.157423">
        <ele>16.268326</ele>
        <time>2024-03-31T14:07:35.998Z</time>
      </trkpt>
      <trkpt lat="51.678847" lon="6.157561">
        <ele>16.314870</ele>
        <time>2024-03-31T14:07:37.998Z</time>
      </trkpt>
      <trkpt lat="51.678779" lon="6.157675">
        <ele>16.358073</ele>
        <time>2024-03-31T14:07:39.998Z</time>
      </trkpt>
      <trkpt lat="51.678696" lon="6.157824">
        <ele>16.412777</ele>
        <time>2024-03-31T14:07:42.998Z</time>
      </trkpt>
      <trkpt lat="51.678638" lon="6.157936">
        <ele>16.452632</ele>
        <time>2024-03-31T14:07:45.998Z</time>
      </trkpt>
      <trkpt lat="51.678561" lon="6.158080">
        <ele>16.504565</ele>
        <time>2024-03-31T14:07:48.998Z</time>
      </trkpt>
      <trkpt lat="51.678508" lon="6.158206">
        <ele>16.546149</ele>
        <time>2024-03-31T14:07:50.998Z</time>
      </trkpt>
      <trkpt lat="51.678445" lon="6.158348">
        <ele>16.593837</ele>
        <time>2024-03-31T14:07:52.998Z</time>
      </trkpt>
      <trkpt lat="51.678378" lon="6.158487">
        <ele>16.641922</ele>
        <time>2024-03-31T14:07:54.998Z</time>
      </trkpt>
      <trkpt lat="51.678305" lon="6.158627">
        <ele>16.691882</ele>
        <time>2024-03-31T14:07:56.997Z</time>
      </trkpt>
      <trkpt lat="51.678229" lon="6.158785">
        <ele>16.746497</ele>
        <time>2024-03-31T14:07:58.997Z</time>
      </trkpt>
      <trkpt lat="51.678163" lon="6.158946">
        <ele>16.775130</ele>
        <time>2024-03-31T14:08:00.997Z</time>
      </trkpt>
      <trkpt lat="51.678099" lon="6.159104">
        <ele>16.735263</ele>
        <time>2024-03-31T14:08:02.997Z</time>
      </trkpt>
      <trkpt lat="51.678030" lon="6.159252">
        <ele>16.696148</ele>
        <time>2024-03-31T14:08:04.997Z</time>
      </trkpt>
      <trkpt lat="51.677975" lon="6.159378">
        <ele>16.663598</ele>
        <time>2024-03-31T14:08:06.997Z</time>
      </trkpt>
      <trkpt lat="51.677918" lon="6.159520">
        <ele>16.627864</ele>
        <time>2024-03-31T14:08:09.000Z</time>
      </trkpt>
      <trkpt lat="51.677860" lon="6.159682">
        <ele>16.588348</ele>
        <time>2024-03-31T14:08:12.000Z</time>
      </trkpt>
      <trkpt lat="51.677764" lon="6.159652">
        <ele>16.555035</ele>
        <time>2024-03-31T14:08:14.000Z</time>
      </trkpt>
      <trkpt lat="51.677683" lon="6.159566">
        <ele>16.521998</ele>
        <time>2024-03-31T14:08:16.000Z</time>
      </trkpt>
      <trkpt lat="51.677586" lon="6.159485">
        <ele>16.484785</ele>
        <time>2024-03-31T14:08:18.000Z</time>
      </trkpt>
      <trkpt lat="51.677496" lon="6.159413">
        <ele>16.450560</ele>
        <time>2024-03-31T14:08:20.000Z</time>
      </trkpt>
      <trkpt lat="51.677413" lon="6.159351">
        <ele>16.419398</ele>
        <time>2024-03-31T14:08:22.000Z</time>
      </trkpt>
      <trkpt lat="51.677309" lon="6.159428">
        <ele>16.380412</ele>
        <time>2024-03-31T14:08:26.000Z</time>
      </trkpt>
      <trkpt lat="51.677260" lon="6.159561">
        <ele>16.347732</ele>
        <time>2024-03-31T14:08:29.000Z</time>
      </trkpt>
      <trkpt lat="51.677226" lon="6.159746">
        <ele>16.306971</ele>
        <time>2024-03-31T14:08:32.000Z</time>
      </trkpt>
      <trkpt lat="51.677177" lon="6.159913">
        <ele>16.267942</ele>
        <time>2024-03-31T14:08:34.999Z</time>
      </trkpt>
      <trkpt lat="51.677080" lon="6.160006">
        <ele>16.229498</ele>
        <time>2024-03-31T14:08:37.999Z</time>
      </trkpt>
      <trkpt lat="51.676979" lon="6.160070">
        <ele>16.192529</ele>
        <time>2024-03-31T14:08:40.999Z</time>
      </trkpt>
      <trkpt lat="51.676859" lon="6.160107">
        <ele>16.164626</ele>
        <time>2024-03-31T14:08:43.999Z</time>
      </trkpt>
      <trkpt lat="51.676748" lon="6.160170">
        <ele>16.149560</ele>
        <time>2024-03-31T14:08:46.999Z</time>
      </trkpt>
      <trkpt lat="51.676640" lon="6.160266">
        <ele>16.133771</ele>
        <time>2024-03-31T14:08:49.999Z</time>
      </trkpt>
      <trkpt lat="51.676590" lon="6.160405">
        <ele>16.121013</ele>
        <time>2024-03-31T14:08:51.999Z</time>
      </trkpt>
      <trkpt lat="51.676528" lon="6.160551">
        <ele>16.106965</ele>
        <time>2024-03-31T14:08:53.999Z</time>
      </trkpt>
      <trkpt lat="51.676474" lon="6.160698">
        <ele>16.093400</ele>
        <time>2024-03-31T14:08:55.999Z</time>
      </trkpt>
      <trkpt lat="51.676433" lon="6.160852">
        <ele>16.080094</ele>
        <time>2024-03-31T14:08:57.999Z</time>
      </trkpt>
      <trkpt lat="51.676396" lon="6.160992">
        <ele>16.068012</ele>
        <time>2024-03-31T14:08:59.999Z</time>
      </trkpt>
      <trkpt lat="51.676345" lon="6.161139">
        <ele>16.054639</ele>
        <time>2024-03-31T14:09:01.999Z</time>
      </trkpt>
      <trkpt lat="51.676300" lon="6.161294">
        <ele>16.041051</ele>
        <time>2024-03-31T14:09:03.999Z</time>
      </trkpt>
      <trkpt lat="51.676259" lon="6.161458">
        <ele>16.027012</ele>
        <time>2024-03-31T14:09:05.999Z</time>
      </trkpt>
      <trkpt lat="51.676212" lon="6.161617">
        <ele>16.013028</ele>
        <time>2024-03-31T14:09:07.999Z</time>
      </trkpt>
      <trkpt lat="51.676172" lon="6.161779">
        <ele>15.999184</ele>
        <time>2024-03-31T14:09:09.999Z</time>
      </trkpt>
      <trkpt lat="51.676131" lon="6.161947">
        <ele>15.984850</ele>
        <time>2024-03-31T14:09:11.999Z</time>
      </trkpt>
      <trkpt lat="51.676099" lon="6.162112">
        <ele>15.971125</ele>
        <time>2024-03-31T14:09:13.999Z</time>
      </trkpt>
      <trkpt lat="51.676075" lon="6.162264">
        <ele>15.958672</ele>
        <time>2024-03-31T14:09:15.999Z</time>
      </trkpt>
      <trkpt lat="51.676059" lon="6.162416">
        <ele>15.946432</ele>
        <time>2024-03-31T14:09:17.998Z</time>
      </trkpt>
      <trkpt lat="51.676024" lon="6.162577">
        <ele>15.890919</ele>
        <time>2024-03-31T14:09:21.998Z</time>
      </trkpt>
      <trkpt lat="51.676053" lon="6.162372">
        <ele>15.802120</ele>
        <time>2024-03-31T14:09:33.998Z</time>
      </trkpt>
      <trkpt lat="51.676082" lon="6.162225">
        <ele>15.736973</ele>
        <time>2024-03-31T14:09:35.998Z</time>
      </trkpt>
      <trkpt lat="51.676094" lon="6.162069">
        <ele>15.670586</ele>
        <time>2024-03-31T14:09:37.998Z</time>
      </trkpt>
      <trkpt lat="51.676131" lon="6.161931">
        <ele>15.607092</ele>
        <time>2024-03-31T14:09:39.998Z</time>
      </trkpt>
      <trkpt lat="51.676038" lon="6.161997">
        <ele>15.537893</ele>
        <time>2024-03-31T14:09:45.998Z</time>
      </trkpt>
      <trkpt lat="51.676002" lon="6.162143">
        <ele>15.471539</ele>
        <time>2024-03-31T14:09:47.998Z</time>
      </trkpt>
      <trkpt lat="51.675969" lon="6.162296">
        <ele>15.403127</ele>
        <time>2024-03-31T14:09:49.998Z</time>
      </trkpt>
      <trkpt lat="51.675935" lon="6.162446">
        <ele>15.335679</ele>
        <time>2024-03-31T14:09:51.998Z</time>
      </trkpt>
      <trkpt lat="51.675903" lon="6.162626">
        <ele>15.256599</ele>
        <time>2024-03-31T14:09:54.998Z</time>
      </trkpt>
      <trkpt lat="51.675863" lon="6.162768">
        <ele>15.190732</ele>
        <time>2024-03-31T14:09:57.998Z</time>
      </trkpt>
      <trkpt lat="51.675844" lon="6.162949">
        <ele>15.113205</ele>
        <time>2024-03-31T14:10:02.997Z</time>
      </trkpt>
      <trkpt lat="51.675885" lon="6.163079">
        <ele>15.051610</ele>
        <time>2024-03-31T14:10:08.997Z</time>
      </trkpt>
      <trkpt lat="51.675904" lon="6.163282">
        <ele>14.964908</ele>
        <time>2024-03-31T14:10:11.997Z</time>
      </trkpt>
      <trkpt lat="51.675906" lon="6.163431">
        <ele>14.901967</ele>
        <time>2024-03-31T14:10:13.997Z</time>
      </trkpt>
      <trkpt lat="51.675922" lon="6.163584">
        <ele>14.836440</ele>
        <time>2024-03-31T14:10:16.000Z</time>
      </trkpt>
      <trkpt lat="51.675938" lon="6.163750">
        <ele>14.765493</ele>
        <time>2024-03-31T14:10:18.000Z</time>
      </trkpt>
      <trkpt lat="51.675963" lon="6.163908">
        <ele>14.735559</ele>
        <time>2024-03-31T14:10:20.000Z</time>
      </trkpt>
      <trkpt lat="51.675990" lon="6.164058">
        <ele>14.791757</ele>
        <time>2024-03-31T14:10:22.000Z</time>
      </trkpt>
      <trkpt lat="51.676014" lon="6.164224">
        <ele>14.853085</ele>
        <time>2024-03-31T14:10:24.000Z</time>
      </trkpt>
      <trkpt lat="51.676046" lon="6.164388">
        <ele>14.914944</ele>
        <time>2024-03-31T14:10:26.000Z</time>
      </trkpt>
      <trkpt lat="51.676073" lon="6.164557">
        <ele>14.977735</ele>
        <time>2024-03-31T14:10:28.000Z</time>
      </trkpt>
      <trkpt lat="51.676096" lon="6.164721">
        <ele>15.038232</ele>
        <time>2024-03-31T14:10:30.000Z</time>
      </trkpt>
      <trkpt lat="51.676121" lon="6.164876">
        <ele>15.095856</ele>
        <time>2024-03-31T14:10:32.000Z</time>
      </trkpt>
      <trkpt lat="51.676149" lon="6.165034">
        <ele>15.154980</ele>
        <time>2024-03-31T14:10:34.000Z</time>
      </trkpt>
      <trkpt lat="51.676179" lon="6.165194">
        <ele>15.215121</ele>
        <time>2024-03-31T14:10:36.000Z</time>
      </trkpt>
      <trkpt lat="51.676215" lon="6.165335">
        <ele>15.269985</ele>
        <time>2024-03-31T14:10:38.000Z</time>
      </trkpt>
      <trkpt lat="51.676276" lon="6.165445">
        <ele>15.323079</ele>
        <time>2024-03-31T14:10:39.999Z</time>
      </trkpt>
      <trkpt lat="51.676323" lon="6.165594">
        <ele>15.383226</ele>
        <time>2024-03-31T14:10:43.999Z</time>
      </trkpt>
      <trkpt lat="51.676356" lon="6.165735">
        <ele>15.437450</ele>
        <time>2024-03-31T14:10:47.999Z</time>
      </trkpt>
      <trkpt lat="51.676297" lon="6.165885">
        <ele>15.501361</ele>
        <time>2024-03-31T14:10:52.999Z</time>
      </trkpt>
      <trkpt lat="51.676202" lon="6.165874">
        <ele>15.556624</ele>
        <time>2024-03-31T14:10:55.999Z</time>
      </trkpt>
      <trkpt lat="51.676307" lon="6.165868">
        <ele>15.617585</ele>
        <time>2024-03-31T14:11:03.999Z</time>
      </trkpt>
      <trkpt lat="51.676355" lon="6.165734">
        <ele>15.673263</ele>
        <time>2024-03-31T14:11:07.999Z</time>
      </trkpt>
      <trkpt lat="51.676316" lon="6.165592">
        <ele>15.729141</ele>
        <time>2024-03-31T14:11:11.999Z</time>
      </trkpt>
      <trkpt lat="51.676281" lon="6.165436">
        <ele>15.774226</ele>
        <time>2024-03-31T14:11:17.999Z</time>
      </trkpt>
      <trkpt lat="51.676208" lon="6.165346">
        <ele>15.799307</ele>
        <time>2024-03-31T14:11:23.998Z</time>
      </trkpt>
      <trkpt lat="51.676209" lon="6.165521">
        <ele>15.828927</ele>
        <time>2024-03-31T14:11:34.998Z</time>
      </trkpt>
      <trkpt lat="51.676236" lon="6.165685">
        <ele>15.857646</ele>
        <time>2024-03-31T14:11:38.998Z</time>
      </trkpt>
      <trkpt lat="51.676282" lon="6.165814">
        <ele>15.882832</ele>
        <time>2024-03-31T14:11:42.998Z</time>
      </trkpt>
      <trkpt lat="51.676297" lon="6.166015">
        <ele>15.917096</ele>
        <time>2024-03-31T14:11:46.998Z</time>
      </trkpt>
      <trkpt lat="51.676339" lon="6.166183">
        <ele>15.947754</ele>
        <time>2024-03-31T14:11:48.998Z</time>
      </trkpt>
      <trkpt lat="51.676385" lon="6.166350">
        <ele>15.978682</ele>
        <time>2024-03-31T14:11:51.998Z</time>
      </trkpt>
      <trkpt lat="51.676411" lon="6.166548">
        <ele>16.012937</ele>
        <time>2024-03-31T14:11:54.998Z</time>
      </trkpt>
      <trkpt lat="51.676424" lon="6.166720">
        <ele>16.042263</ele>
        <time>2024-03-31T14:11:57.998Z</time>
      </trkpt>
      <trkpt lat="51.676455" lon="6.166872">
        <ele>16.069345</ele>
        <time>2024-03-31T14:11:59.998Z</time>
      </trkpt>
      <trkpt lat="51.676473" lon="6.167086">
        <ele>16.105896</ele>
        <time>2024-03-31T14:12:02.998Z</time>
      </trkpt>
      <trkpt lat="51.676501" lon="6.167242">
        <ele>16.133383</ele>
        <time>2024-03-31T14:12:04.998Z</time>
      </trkpt>
      <trkpt lat="51.676523" lon="6.167479">
        <ele>16.173942</ele>
        <time>2024-03-31T14:12:07.998Z</time>
      </trkpt>
      <trkpt lat="51.676536" lon="6.167659">
        <ele>16.204613</ele>
        <time>2024-03-31T14:12:09.997Z</time>
      </trkpt>
      <trkpt lat="51.676573" lon="6.167858">
        <ele>16.239775</ele>
        <time>2024-03-31T14:12:12.997Z</time>
      </trkpt>
      <trkpt lat="51.676577" lon="6.168020">
        <ele>16.238172</ele>
        <time>2024-03-31T14:12:14.997Z</time>
      </trkpt>
      <trkpt lat="51.676614" lon="6.168232">
        <ele>16.203466</ele>
        <time>2024-03-31T14:12:17.997Z</time>
      </trkpt>
      <trkpt lat="51.676626" lon="6.168394">
        <ele>16.177755</ele>
        <time>2024-03-31T14:12:19.997Z</time>
      </trkpt>
      <trkpt lat="51.676630" lon="6.168573">
        <ele>16.149529</ele>
        <time>2024-03-31T14:12:22.000Z</time>
      </trkpt>
      <trkpt lat="51.676637" lon="6.168720">
        <ele>16.126295</ele>
        <time>2024-03-31T14:12:24.000Z</time>
      </trkpt>
      <trkpt lat="51.676649" lon="6.168867">
        <ele>16.102930</ele>
        <time>2024-03-31T14:12:26.000Z</time>
      </trkpt>
      <trkpt lat="51.676658" lon="6.169073">
        <ele>16.070387</ele>
        <time>2024-03-31T14:12:29.000Z</time>
      </trkpt>
      <trkpt lat="51.676691" lon="6.169257">
        <ele>16.040203</ele>
        <time>2024-03-31T14:12:32.000Z</time>
      </trkpt>
      <trkpt lat="51.676695" lon="6.169446">
        <ele>16.010402</ele>
        <time>2024-03-31T14:12:35.000Z</time>
      </trkpt>
      <trkpt lat="51.676720" lon="6.169635">
        <ele>15.979948</ele>
        <time>2024-03-31T14:12:38.000Z</time>
      </trkpt>
      <trkpt lat="51.676724" lon="6.169835">
        <ele>15.948414</ele>
        <time>2024-03-31T14:12:41.000Z</time>
      </trkpt>
      <trkpt lat="51.676749" lon="6.170043">
        <ele>15.915026</ele>
        <time>2024-03-31T14:12:43.999Z</time>
      </trkpt>
      <trkpt lat="51.676753" lon="6.170194">
        <ele>15.891209</ele>
        <time>2024-03-31T14:12:45.999Z</time>
      </trkpt>
      <trkpt lat="51.676774" lon="6.170402">
        <ele>15.858000</ele>
        <time>2024-03-31T14:12:48.999Z</time>
      </trkpt>
      <trkpt lat="51.676795" lon="6.170595">
        <ele>15.827121</ele>
        <time>2024-03-31T14:12:51.999Z</time>
      </trkpt>
      <trkpt lat="51.676808" lon="6.170750">
        <ele>15.802473</ele>
        <time>2024-03-31T14:12:53.999Z</time>
      </trkpt>
      <trkpt lat="51.676825" lon="6.170956">
        <ele>15.840028</ele>
        <time>2024-03-31T14:12:56.999Z</time>
      </trkpt>
      <trkpt lat="51.676848" lon="6.171141">
        <ele>15.892721</ele>
        <time>2024-03-31T14:12:59.999Z</time>
      </trkpt>
      <trkpt lat="51.676860" lon="6.171299">
        <ele>15.937175</ele>
        <time>2024-03-31T14:13:02.999Z</time>
      </trkpt>
      <trkpt lat="51.676890" lon="6.171462">
        <ele>15.984658</ele>
        <time>2024-03-31T14:13:05.999Z</time>
      </trkpt>
      <trkpt lat="51.677044" lon="6.171408">
        <ele>16.055634</ele>
        <time>2024-03-31T14:13:08.999Z</time>
      </trkpt>
      <trkpt lat="51.677129" lon="6.171475">
        <ele>16.098243</ele>
        <time>2024-03-31T14:13:43.998Z</time>
      </trkpt>
      <trkpt lat="51.677252" lon="6.171441">
        <ele>16.154446</ele>
        <time>2024-03-31T14:13:47.998Z</time>
      </trkpt>
      <trkpt lat="51.677369" lon="6.171390">
        <ele>16.209029</ele>
        <time>2024-03-31T14:13:50.998Z</time>
      </trkpt>
      <trkpt lat="51.677494" lon="6.171332">
        <ele>16.267608</ele>
        <time>2024-03-31T14:13:53.998Z</time>
      </trkpt>
      <trkpt lat="51.677584" lon="6.171303">
        <ele>16.308942</ele>
        <time>2024-03-31T14:13:55.998Z</time>
      </trkpt>
      <trkpt lat="51.677713" lon="6.171278">
        <ele>16.367456</ele>
        <time>2024-03-31T14:13:58.998Z</time>
      </trkpt>
      <trkpt lat="51.677807" lon="6.171220">
        <ele>16.412783</ele>
        <time>2024-03-31T14:14:00.998Z</time>
      </trkpt>
      <trkpt lat="51.677911" lon="6.171175">
        <ele>16.461277</ele>
        <time>2024-03-31T14:14:02.998Z</time>
      </trkpt>
      <trkpt lat="51.678013" lon="6.171129">
        <ele>16.508977</ele>
        <time>2024-03-31T14:14:04.998Z</time>
      </trkpt>
      <trkpt lat="51.678114" lon="6.171074">
        <ele>16.556986</ele>
        <time>2024-03-31T14:14:06.998Z</time>
      </trkpt>
      <trkpt lat="51.678214" lon="6.171023">
        <ele>16.604221</ele>
        <time>2024-03-31T14:14:08.998Z</time>
      </trkpt>
      <trkpt lat="51.678317" lon="6.170978">
        <ele>16.644891</ele>
        <time>2024-03-31T14:14:10.998Z</time>
      </trkpt>
      <trkpt lat="51.678418" lon="6.170910">
        <ele>16.686458</ele>
        <time>2024-03-31T14:14:12.998Z</time>
      </trkpt>
      <trkpt lat="51.678515" lon="6.170856">
        <ele>16.725430</ele>
        <time>2024-03-31T14:14:14.997Z</time>
      </trkpt>
      <trkpt lat="51.678599" lon="6.170786">
        <ele>16.761339</ele>
        <time>2024-03-31T14:14:16.997Z</time>
      </trkpt>
      <trkpt lat="51.678683" lon="6.170734">
        <ele>16.795511</ele>
        <time>2024-03-31T14:14:18.997Z</time>
      </trkpt>
      <trkpt lat="51.678806" lon="6.170662">
        <ele>16.845207</ele>
        <time>2024-03-31T14:14:21.997Z</time>
      </trkpt>
      <trkpt lat="51.678929" lon="6.170626">
        <ele>16.892683</ele>
        <time>2024-03-31T14:14:24.997Z</time>
      </trkpt>
      <trkpt lat="51.679068" lon="6.170677">
        <ele>16.946823</ele>
        <time>2024-03-31T14:14:28.000Z</time>
      </trkpt>
      <trkpt lat="51.679176" lon="6.170612">
        <ele>16.990603</ele>
        <time>2024-03-31T14:14:30.000Z</time>
      </trkpt>
      <trkpt lat="51.679271" lon="6.170547">
        <ele>17.029795</ele>
        <time>2024-03-31T14:14:32.000Z</time>
      </trkpt>
      <trkpt lat="51.679369" lon="6.170485">
        <ele>17.069776</ele>
        <time>2024-03-31T14:14:34.000Z</time>
      </trkpt>
      <trkpt lat="51.679459" lon="6.170427">
        <ele>17.106584</ele>
        <time>2024-03-31T14:14:36.000Z</time>
      </trkpt>
      <trkpt lat="51.679572" lon="6.170359">
        <ele>17.152390</ele>
        <time>2024-03-31T14:14:39.000Z</time>
      </trkpt>
      <trkpt lat="51.679679" lon="6.170301">
        <ele>17.195261</ele>
        <time>2024-03-31T14:14:42.000Z</time>
      </trkpt>
      <trkpt lat="51.679756" lon="6.170484">
        <ele>17.247341</ele>
        <time>2024-03-31T14:14:45.000Z</time>
      </trkpt>
      <trkpt lat="51.679787" lon="6.170640">
        <ele>17.285918</ele>
        <time>2024-03-31T14:14:47.000Z</time>
      </trkpt>
      <trkpt lat="51.679830" lon="6.170801">
        <ele>17.265107</ele>
        <time>2024-03-31T14:14:49.000Z</time>
      </trkpt>
      <trkpt lat="51.679867" lon="6.170964">
        <ele>17.240861</ele>
        <time>2024-03-31T14:14:50.999Z</time>
      </trkpt>
      <trkpt lat="51.679912" lon="6.171127">
        <ele>17.215939</ele>
        <time>2024-03-31T14:14:52.999Z</time>
      </trkpt>
      <trkpt lat="51.679948" lon="6.171301">
        <ele>17.190317</ele>
        <time>2024-03-31T14:14:54.999Z</time>
      </trkpt>
      <trkpt lat="51.679983" lon="6.171475">
        <ele>17.164765</ele>
        <time>2024-03-31T14:14:56.999Z</time>
      </trkpt>
      <trkpt lat="51.680019" lon="6.171653">
        <ele>17.138612</ele>
        <time>2024-03-31T14:14:58.999Z</time>
      </trkpt>
      <trkpt lat="51.680057" lon="6.171833">
        <ele>17.112052</ele>
        <time>2024-03-31T14:15:00.999Z</time>
      </trkpt>
      <trkpt lat="51.680104" lon="6.172012">
        <ele>17.084900</ele>
        <time>2024-03-31T14:15:02.999Z</time>
      </trkpt>
      <trkpt lat="51.680142" lon="6.172195">
        <ele>17.057943</ele>
        <time>2024-03-31T14:15:04.999Z</time>
      </trkpt>
      <trkpt lat="51.680179" lon="6.172379">
        <ele>17.030924</ele>
        <time>2024-03-31T14:15:06.999Z</time>
      </trkpt>
      <trkpt lat="51.680205" lon="6.172571">
        <ele>17.003473</ele>
        <time>2024-03-31T14:15:08.999Z</time>
      </trkpt>
      <trkpt lat="51.680251" lon="6.172759">
        <ele>16.975242</ele>
        <time>2024-03-31T14:15:10.999Z</time>
      </trkpt>
      <trkpt lat="51.680296" lon="6.172949">
        <ele>16.946833</ele>
        <time>2024-03-31T14:15:12.999Z</time>
      </trkpt>
      <trkpt lat="51.680347" lon="6.173138">
        <ele>16.918041</ele>
        <time>2024-03-31T14:15:14.999Z</time>
      </trkpt>
      <trkpt lat="51.680388" lon="6.173329">
        <ele>16.889809</ele>
        <time>2024-03-31T14:15:16.999Z</time>
      </trkpt>
      <trkpt lat="51.680425" lon="6.173516">
        <ele>16.873701</ele>
        <time>2024-03-31T14:15:18.999Z</time>
      </trkpt>
      <trkpt lat="51.680472" lon="6.173709">
        <ele>16.860603</ele>
        <time>2024-03-31T14:15:20.999Z</time>
      </trkpt>
      <trkpt lat="51.680523" lon="6.173894">
        <ele>16.847814</ele>
        <time>2024-03-31T14:15:22.999Z</time>
      </trkpt>
      <trkpt lat="51.680570" lon="6.174078">
        <ele>16.835243</ele>
        <time>2024-03-31T14:15:24.999Z</time>
      </trkpt>
      <trkpt lat="51.680619" lon="6.174265">
        <ele>16.822419</ele>
        <time>2024-03-31T14:15:26.999Z</time>
      </trkpt>
      <trkpt lat="51.680667" lon="6.174449">
        <ele>16.809810</ele>
        <time>2024-03-31T14:15:28.999Z</time>
      </trkpt>
      <trkpt lat="51.680717" lon="6.174623">
        <ele>16.797696</ele>
        <time>2024-03-31T14:15:30.999Z</time>
      </trkpt>
      <trkpt lat="51.680775" lon="6.174794">
        <ele>16.785383</ele>
        <time>2024-03-31T14:15:32.999Z</time>
      </trkpt>
      <trkpt lat="51.680836" lon="6.174958">
        <ele>16.773303</ele>
        <time>2024-03-31T14:15:34.999Z</time>
      </trkpt>
      <trkpt lat="51.680890" lon="6.175125">
        <ele>16.761406</ele>
        <time>2024-03-31T14:15:36.999Z</time>
      </trkpt>
      <trkpt lat="51.680952" lon="6.175296">
        <ele>16.748893</ele>
        <time>2024-03-31T14:15:38.998Z</time>
      </trkpt>
      <trkpt lat="51.681006" lon="6.175465">
        <ele>16.736884</ele>
        <time>2024-03-31T14:15:40.998Z</time>
      </trkpt>
      <trkpt lat="51.681063" lon="6.175630">
        <ele>16.724952</ele>
        <time>2024-03-31T14:15:42.998Z</time>
      </trkpt>
      <trkpt lat="51.681132" lon="6.175786">
        <ele>16.712848</ele>
        <time>2024-03-31T14:15:44.998Z</time>
      </trkpt>
      <trkpt lat="51.681205" lon="6.175943">
        <ele>16.700452</ele>
        <time>2024-03-31T14:15:46.998Z</time>
      </trkpt>
      <trkpt lat="51.681271" lon="6.176102">
        <ele>16.710662</ele>
        <time>2024-03-31T14:15:48.998Z</time>
      </trkpt>
      <trkpt lat="51.681345" lon="6.176259">
        <ele>16.722498</ele>
        <time>2024-03-31T14:15:50.998Z</time>
      </trkpt>
      <trkpt lat="51.681414" lon="6.176417">
        <ele>16.734096</ele>
        <time>2024-03-31T14:15:52.998Z</time>
      </trkpt>
      <trkpt lat="51.681482" lon="6.176576">
        <ele>16.745688</ele>
        <time>2024-03-31T14:15:54.998Z</time>
      </trkpt>
      <trkpt lat="51.681558" lon="6.176728">
        <ele>16.757407</ele>
        <time>2024-03-31T14:15:56.998Z</time>
      </trkpt>
      <trkpt lat="51.681632" lon="6.176886">
        <ele>16.769291</ele>
        <time>2024-03-31T14:15:58.998Z</time>
      </trkpt>
      <trkpt lat="51.681710" lon="6.177031">
        <ele>16.780811</ele>
        <time>2024-03-31T14:16:00.998Z</time>
      </trkpt>
      <trkpt lat="51.681791" lon="6.177177">
        <ele>16.792569</ele>
        <time>2024-03-31T14:16:02.998Z</time>
      </trkpt>
      <trkpt lat="51.681880" lon="6.177323">
        <ele>16.804856</ele>
        <time>2024-03-31T14:16:04.998Z</time>
      </trkpt>
      <trkpt lat="51.681965" lon="6.177468">
        <ele>16.816832</ele>
        <time>2024-03-31T14:16:06.998Z</time>
      </trkpt>
      <trkpt lat="51.682055" lon="6.177607">
        <ele>16.828893</ele>
        <time>2024-03-31T14:16:08.998Z</time>
      </trkpt>
      <trkpt lat="51.682151" lon="6.177741">
        <ele>16.841182</ele>
        <time>2024-03-31T14:16:10.998Z</time>
      </trkpt>
      <trkpt lat="51.682242" lon="6.177887">
        <ele>16.853606</ele>
        <time>2024-03-31T14:16:12.998Z</time>
      </trkpt>
      <trkpt lat="51.682330" lon="6.178027">
        <ele>16.865570</ele>
        <time>2024-03-31T14:16:14.998Z</time>
      </trkpt>
      <trkpt lat="51.682415" lon="6.178162">
        <ele>16.874848</ele>
        <time>2024-03-31T14:16:16.998Z</time>
      </trkpt>
      <trkpt lat="51.682506" lon="6.178295">
        <ele>16.878365</ele>
        <time>2024-03-31T14:16:18.998Z</time>
      </trkpt>
      <trkpt lat="51.682597" lon="6.178432">
        <ele>16.881930</ele>
        <time>2024-03-31T14:16:20.998Z</time>
      </trkpt>
      <trkpt lat="51.682694" lon="6.178572">
        <ele>16.885658</ele>
        <time>2024-03-31T14:16:22.997Z</time>
      </trkpt>
      <trkpt lat="51.682768" lon="6.178734">
        <ele>16.889231</ele>
        <time>2024-03-31T14:16:24.997Z</time>
      </trkpt>
      <trkpt lat="51.682860" lon="6.178877">
        <ele>16.892891</ele>
        <time>2024-03-31T14:16:26.997Z</time>
      </trkpt>
      <trkpt lat="51.682962" lon="6.179005">
        <ele>16.896592</ele>
        <time>2024-03-31T14:16:28.997Z</time>
      </trkpt>
      <trkpt lat="51.683062" lon="6.179125">
        <ele>16.900162</ele>
        <time>2024-03-31T14:16:30.997Z</time>
      </trkpt>
      <trkpt lat="51.683164" lon="6.179257">
        <ele>16.903907</ele>
        <time>2024-03-31T14:16:33.000Z</time>
      </trkpt>
      <trkpt lat="51.683259" lon="6.179395">
        <ele>16.907569</ele>
        <time>2024-03-31T14:16:35.000Z</time>
      </trkpt>
      <trkpt lat="51.683357" lon="6.179535">
        <ele>16.911318</ele>
        <time>2024-03-31T14:16:37.000Z</time>
      </trkpt>
      <trkpt lat="51.683454" lon="6.179681">
        <ele>16.915118</ele>
        <time>2024-03-31T14:16:39.000Z</time>
      </trkpt>
      <trkpt lat="51.683546" lon="6.179821">
        <ele>16.918740</ele>
        <time>2024-03-31T14:16:41.000Z</time>
      </trkpt>
      <trkpt lat="51.683637" lon="6.179960">
        <ele>16.922330</ele>
        <time>2024-03-31T14:16:43.000Z</time>
      </trkpt>
      <trkpt lat="51.683733" lon="6.180103">
        <ele>16.941601</ele>
        <time>2024-03-31T14:16:45.000Z</time>
      </trkpt>
      <trkpt lat="51.683820" lon="6.180258">
        <ele>17.031990</ele>
        <time>2024-03-31T14:16:47.000Z</time>
      </trkpt>
      <trkpt lat="51.683906" lon="6.180411">
        <ele>17.121270</ele>
        <time>2024-03-31T14:16:49.000Z</time>
      </trkpt>
      <trkpt lat="51.683986" lon="6.180571">
        <ele>17.210130</ele>
        <time>2024-03-31T14:16:51.000Z</time>
      </trkpt>
      <trkpt lat="51.684062" lon="6.180737">
        <ele>17.299339</ele>
        <time>2024-03-31T14:16:53.000Z</time>
      </trkpt>
      <trkpt lat="51.684135" lon="6.180904">
        <ele>17.387674</ele>
        <time>2024-03-31T14:16:55.000Z</time>
      </trkpt>
      <trkpt lat="51.684205" lon="6.181068">
        <ele>17.473749</ele>
        <time>2024-03-31T14:16:57.000Z</time>
      </trkpt>
      <trkpt lat="51.684270" lon="6.181233">
        <ele>17.558261</ele>
        <time>2024-03-31T14:16:58.999Z</time>
      </trkpt>
      <trkpt lat="51.684340" lon="6.181401">
        <ele>17.645766</ele>
        <time>2024-03-31T14:17:00.999Z</time>
      </trkpt>
      <trkpt lat="51.684401" lon="6.181589">
        <ele>17.737497</ele>
        <time>2024-03-31T14:17:02.999Z</time>
      </trkpt>
      <trkpt lat="51.684460" lon="6.181757">
        <ele>17.820967</ele>
        <time>2024-03-31T14:17:04.999Z</time>
      </trkpt>
      <trkpt lat="51.684516" lon="6.181929">
        <ele>17.904952</ele>
        <time>2024-03-31T14:17:06.999Z</time>
      </trkpt>
      <trkpt lat="51.684563" lon="6.182108">
        <ele>17.988989</ele>
        <time>2024-03-31T14:17:08.999Z</time>
      </trkpt>
      <trkpt lat="51.684612" lon="6.182283">
        <ele>18.071999</ele>
        <time>2024-03-31T14:17:10.999Z</time>
      </trkpt>
      <trkpt lat="51.684669" lon="6.182456">
        <ele>18.156693</ele>
        <time>2024-03-31T14:17:12.999Z</time>
      </trkpt>
      <trkpt lat="51.684722" lon="6.182634">
        <ele>18.227601</ele>
        <time>2024-03-31T14:17:14.999Z</time>
      </trkpt>
      <trkpt lat="51.684770" lon="6.182819">
        <ele>18.294246</ele>
        <time>2024-03-31T14:17:16.999Z</time>
      </trkpt>
      <trkpt lat="51.684824" lon="6.182994">
        <ele>18.359205</ele>
        <time>2024-03-31T14:17:18.999Z</time>
      </trkpt>
      <trkpt lat="51.684874" lon="6.183176">
        <ele>18.425358</ele>
        <time>2024-03-31T14:17:20.999Z</time>
      </trkpt>
      <trkpt lat="51.684930" lon="6.183360">
        <ele>18.493473</ele>
        <time>2024-03-31T14:17:22.999Z</time>
      </trkpt>
      <trkpt lat="51.684985" lon="6.183540">
        <ele>18.560160</ele>
        <time>2024-03-31T14:17:24.999Z</time>
      </trkpt>
      <trkpt lat="51.685035" lon="6.183707">
        <ele>18.621788</ele>
        <time>2024-03-31T14:17:26.999Z</time>
      </trkpt>
      <trkpt lat="51.685083" lon="6.183849">
        <ele>18.675534</ele>
        <time>2024-03-31T14:17:28.999Z</time>
      </trkpt>
      <trkpt lat="51.685106" lon="6.184001">
        <ele>18.727528</ele>
        <time>2024-03-31T14:17:30.999Z</time>
      </trkpt>
      <trkpt lat="51.685166" lon="6.184181">
        <ele>18.795441</ele>
        <time>2024-03-31T14:17:33.999Z</time>
      </trkpt>
      <trkpt lat="51.685204" lon="6.184316">
        <ele>18.844710</ele>
        <time>2024-03-31T14:17:35.999Z</time>
      </trkpt>
      <trkpt lat="51.685250" lon="6.184462">
        <ele>18.899133</ele>
        <time>2024-03-31T14:17:37.999Z</time>
      </trkpt>
      <trkpt lat="51.685292" lon="6.184615">
        <ele>18.954737</ele>
        <time>2024-03-31T14:17:39.999Z</time>
      </trkpt>
      <trkpt lat="51.685335" lon="6.184772">
        <ele>19.011774</ele>
        <time>2024-03-31T14:17:41.999Z</time>
      </trkpt>
      <trkpt lat="51.685367" lon="6.184941">
        <ele>19.070495</ele>
        <time>2024-03-31T14:17:43.998Z</time>
      </trkpt>
      <trkpt lat="51.685405" lon="6.185086">
        <ele>19.122808</ele>
        <time>2024-03-31T14:17:45.998Z</time>
      </trkpt>
      <trkpt lat="51.685471" lon="6.185244">
        <ele>19.085627</ele>
        <time>2024-03-31T14:17:47.998Z</time>
      </trkpt>
      <trkpt lat="51.685516" lon="6.185408">
        <ele>19.004263</ele>
        <time>2024-03-31T14:17:49.998Z</time>
      </trkpt>
      <trkpt lat="51.685565" lon="6.185564">
        <ele>18.924924</ele>
        <time>2024-03-31T14:17:51.998Z</time>
      </trkpt>
      <trkpt lat="51.685613" lon="6.185719">
        <ele>18.846320</ele>
        <time>2024-03-31T14:17:53.998Z</time>
      </trkpt>
      <trkpt lat="51.685667" lon="6.185870">
        <ele>18.767236</ele>
        <time>2024-03-31T14:17:55.998Z</time>
      </trkpt>
      <trkpt lat="51.685710" lon="6.186016">
        <ele>18.693905</ele>
        <time>2024-03-31T14:17:57.998Z</time>
      </trkpt>
      <trkpt lat="51.685759" lon="6.186139">
        <ele>18.627576</ele>
        <time>2024-03-31T14:17:59.998Z</time>
      </trkpt>
      <trkpt lat="51.685826" lon="6.186295">
        <ele>18.541480</ele>
        <time>2024-03-31T14:18:02.998Z</time>
      </trkpt>
      <trkpt lat="51.685764" lon="6.186462">
        <ele>18.453171</ele>
        <time>2024-03-31T14:18:05.998Z</time>
      </trkpt>
      <trkpt lat="51.685701" lon="6.186593">
        <ele>18.377955</ele>
        <time>2024-03-31T14:18:07.998Z</time>
      </trkpt>
      <trkpt lat="51.685636" lon="6.186752">
        <ele>18.291551</ele>
        <time>2024-03-31T14:18:09.998Z</time>
      </trkpt>
      <trkpt lat="51.685575" lon="6.186899">
        <ele>18.211301</ele>
        <time>2024-03-31T14:18:11.998Z</time>
      </trkpt>
      <trkpt lat="51.685503" lon="6.187039">
        <ele>18.128778</ele>
        <time>2024-03-31T14:18:13.998Z</time>
      </trkpt>
      <trkpt lat="51.685440" lon="6.187201">
        <ele>18.042020</ele>
        <time>2024-03-31T14:18:15.998Z</time>
      </trkpt>
      <trkpt lat="51.685363" lon="6.187349">
        <ele>17.954366</ele>
        <time>2024-03-31T14:18:17.998Z</time>
      </trkpt>
      <trkpt lat="51.685286" lon="6.187506">
        <ele>17.863547</ele>
        <time>2024-03-31T14:18:19.998Z</time>
      </trkpt>
      <trkpt lat="51.685223" lon="6.187684">
        <ele>17.953270</ele>
        <time>2024-03-31T14:18:21.998Z</time>
      </trkpt>
      <trkpt lat="51.685170" lon="6.187875">
        <ele>18.163221</ele>
        <time>2024-03-31T14:18:23.998Z</time>
      </trkpt>
      <trkpt lat="51.685132" lon="6.188056">
        <ele>18.354950</ele>
        <time>2024-03-31T14:18:25.998Z</time>
      </trkpt>
      <trkpt lat="51.685122" lon="6.188243">
        <ele>18.543266</ele>
        <time>2024-03-31T14:18:27.998Z</time>
      </trkpt>
      <trkpt lat="51.685109" lon="6.188430">
        <ele>18.732061</ele>
        <time>2024-03-31T14:18:29.997Z</time>
      </trkpt>
      <trkpt lat="51.685096" lon="6.188601">
        <ele>18.904913</ele>
        <time>2024-03-31T14:18:31.997Z</time>
      </trkpt>
      <trkpt lat="51.685085" lon="6.188827">
        <ele>19.132359</ele>
        <time>2024-03-31T14:18:34.997Z</time>
      </trkpt>
      <trkpt lat="51.685078" lon="6.189042">
        <ele>19.348369</ele>
        <time>2024-03-31T14:18:36.997Z</time>
      </trkpt>
      <trkpt lat="51.685075" lon="6.189242">
        <ele>19.549091</ele>
        <time>2024-03-31T14:18:39.000Z</time>
      </trkpt>
      <trkpt lat="51.685055" lon="6.189449">
        <ele>19.759284</ele>
        <time>2024-03-31T14:18:41.000Z</time>
      </trkpt>
      <trkpt lat="51.685017" lon="6.189629">
        <ele>19.950063</ele>
        <time>2024-03-31T14:18:43.000Z</time>
      </trkpt>
      <trkpt lat="51.684985" lon="6.189826">
        <ele>20.154388</ele>
        <time>2024-03-31T14:18:45.000Z</time>
      </trkpt>
      <trkpt lat="51.684955" lon="6.190007">
        <ele>20.342365</ele>
        <time>2024-03-31T14:18:47.000Z</time>
      </trkpt>
      <trkpt lat="51.684919" lon="6.190204">
        <ele>20.548426</ele>
        <time>2024-03-31T14:18:49.000Z</time>
      </trkpt>
      <trkpt lat="51.684900" lon="6.190400">
        <ele>20.748473</ele>
        <time>2024-03-31T14:18:51.000Z</time>
      </trkpt>
      <trkpt lat="51.684868" lon="6.190579">
        <ele>20.955666</ele>
        <time>2024-03-31T14:18:53.000Z</time>
      </trkpt>
      <trkpt lat="51.684845" lon="6.190780">
        <ele>21.182992</ele>
        <time>2024-03-31T14:18:55.000Z</time>
      </trkpt>
      <trkpt lat="51.684839" lon="6.191008">
        <ele>21.436799</ele>
        <time>2024-03-31T14:18:57.000Z</time>
      </trkpt>
      <trkpt lat="51.684834" lon="6.191209">
        <ele>21.660529</ele>
        <time>2024-03-31T14:18:59.000Z</time>
      </trkpt>
      <trkpt lat="51.684823" lon="6.191416">
        <ele>21.891597</ele>
        <time>2024-03-31T14:19:01.000Z</time>
      </trkpt>
      <trkpt lat="51.684812" lon="6.191588">
        <ele>22.083909</ele>
        <time>2024-03-31T14:19:02.999Z</time>
      </trkpt>
      <trkpt lat="51.684808" lon="6.191781">
        <ele>22.298681</ele>
        <time>2024-03-31T14:19:04.999Z</time>
      </trkpt>
      <trkpt lat="51.684808" lon="6.191960">
        <ele>22.497763</ele>
        <time>2024-03-31T14:19:06.999Z</time>
      </trkpt>
      <trkpt lat="51.684801" lon="6.192114">
        <ele>22.669501</ele>
        <time>2024-03-31T14:19:08.999Z</time>
      </trkpt>
      <trkpt lat="51.684787" lon="6.192265">
        <ele>22.839309</ele>
        <time>2024-03-31T14:19:10.999Z</time>
      </trkpt>
      <trkpt lat="51.684763" lon="6.192433">
        <ele>23.031053</ele>
        <time>2024-03-31T14:19:12.999Z</time>
      </trkpt>
      <trkpt lat="51.684739" lon="6.192605">
        <ele>23.227135</ele>
        <time>2024-03-31T14:19:14.999Z</time>
      </trkpt>
      <trkpt lat="51.684703" lon="6.192808">
        <ele>23.461965</ele>
        <time>2024-03-31T14:19:16.999Z</time>
      </trkpt>
      <trkpt lat="51.684657" lon="6.192969">
        <ele>23.659127</ele>
        <time>2024-03-31T14:19:18.999Z</time>
      </trkpt>
      <trkpt lat="51.684611" lon="6.193128">
        <ele>23.854272</ele>
        <time>2024-03-31T14:19:20.999Z</time>
      </trkpt>
      <trkpt lat="51.684558" lon="6.193324">
        <ele>23.809096</ele>
        <time>2024-03-31T14:19:22.999Z</time>
      </trkpt>
      <trkpt lat="51.684518" lon="6.193501">
        <ele>23.552966</ele>
        <time>2024-03-31T14:19:24.999Z</time>
      </trkpt>
      <trkpt lat="51.684461" lon="6.193697">
        <ele>23.258632</ele>
        <time>2024-03-31T14:19:26.999Z</time>
      </trkpt>
      <trkpt lat="51.684447" lon="6.193902">
        <ele>22.978236</ele>
        <time>2024-03-31T14:19:28.999Z</time>
      </trkpt>
      <trkpt lat="51.684405" lon="6.194104">
        <ele>22.688571</ele>
        <time>2024-03-31T14:19:30.999Z</time>
      </trkpt>
      <trkpt lat="51.684327" lon="6.194285">
        <ele>22.388884</ele>
        <time>2024-03-31T14:19:32.999Z</time>
      </trkpt>
      <trkpt lat="51.684204" lon="6.194425">
        <ele>22.058763</ele>
        <time>2024-03-31T14:19:34.999Z</time>
      </trkpt>
      <trkpt lat="51.684099" lon="6.194552">
        <ele>21.770962</ele>
        <time>2024-03-31T14:19:36.999Z</time>
      </trkpt>
      <trkpt lat="51.684010" lon="6.194679">
        <ele>21.510379</ele>
        <time>2024-03-31T14:19:38.999Z</time>
      </trkpt>
      <trkpt lat="51.683909" lon="6.194812">
        <ele>21.224458</ele>
        <time>2024-03-31T14:19:40.999Z</time>
      </trkpt>
      <trkpt lat="51.683808" lon="6.194953">
        <ele>20.931537</ele>
        <time>2024-03-31T14:19:42.999Z</time>
      </trkpt>
      <trkpt lat="51.683694" lon="6.195048">
        <ele>20.650154</ele>
        <time>2024-03-31T14:19:44.999Z</time>
      </trkpt>
      <trkpt lat="51.683593" lon="6.195167">
        <ele>20.375873</ele>
        <time>2024-03-31T14:19:46.998Z</time>
      </trkpt>
      <trkpt lat="51.683488" lon="6.195275">
        <ele>20.102785</ele>
        <time>2024-03-31T14:19:48.998Z</time>
      </trkpt>
      <trkpt lat="51.683381" lon="6.195401">
        <ele>19.965015</ele>
        <time>2024-03-31T14:19:50.998Z</time>
      </trkpt>
      <trkpt lat="51.683274" lon="6.195506">
        <ele>19.891779</ele>
        <time>2024-03-31T14:19:52.998Z</time>
      </trkpt>
      <trkpt lat="51.683178" lon="6.195618">
        <ele>19.822498</ele>
        <time>2024-03-31T14:19:54.998Z</time>
      </trkpt>
      <trkpt lat="51.683066" lon="6.195711">
        <ele>19.748839</ele>
        <time>2024-03-31T14:19:56.998Z</time>
      </trkpt>
      <trkpt lat="51.682961" lon="6.195765">
        <ele>19.684396</ele>
        <time>2024-03-31T14:19:58.998Z</time>
      </trkpt>
      <trkpt lat="51.682846" lon="6.195779">
        <ele>19.616961</ele>
        <time>2024-03-31T14:20:00.998Z</time>
      </trkpt>
      <trkpt lat="51.682720" lon="6.195821">
        <ele>19.541728</ele>
        <time>2024-03-31T14:20:03.998Z</time>
      </trkpt>
      <trkpt lat="51.682599" lon="6.195891">
        <ele>19.466562</ele>
        <time>2024-03-31T14:20:05.998Z</time>
      </trkpt>
      <trkpt lat="51.682496" lon="6.195981">
        <ele>19.398064</ele>
        <time>2024-03-31T14:20:07.998Z</time>
      </trkpt>
      <trkpt lat="51.682397" lon="6.196058">
        <ele>19.333796</ele>
        <time>2024-03-31T14:20:09.998Z</time>
      </trkpt>
      <trkpt lat="51.682293" lon="6.196143">
        <ele>19.265621</ele>
        <time>2024-03-31T14:20:11.998Z</time>
      </trkpt>
      <trkpt lat="51.682215" lon="6.196227">
        <ele>19.210780</ele>
        <time>2024-03-31T14:20:13.998Z</time>
      </trkpt>
      <trkpt lat="51.682106" lon="6.196299">
        <ele>19.141906</ele>
        <time>2024-03-31T14:20:16.998Z</time>
      </trkpt>
      <trkpt lat="51.681991" lon="6.196380">
        <ele>19.068529</ele>
        <time>2024-03-31T14:20:20.998Z</time>
      </trkpt>
      <trkpt lat="51.681912" lon="6.196488">
        <ele>19.007973</ele>
        <time>2024-03-31T14:20:46.000Z</time>
      </trkpt>
      <trkpt lat="51.681807" lon="6.196560">
        <ele>19.021630</ele>
        <time>2024-03-31T14:20:50.000Z</time>
      </trkpt>
      <trkpt lat="51.681707" lon="6.196601">
        <ele>19.137147</ele>
        <time>2024-03-31T14:20:53.000Z</time>
      </trkpt>
      <trkpt lat="51.681592" lon="6.196674">
        <ele>19.275510</ele>
        <time>2024-03-31T14:20:56.000Z</time>
      </trkpt>
      <trkpt lat="51.681481" lon="6.196749">
        <ele>19.410246</ele>
        <time>2024-03-31T14:20:59.000Z</time>
      </trkpt>
      <trkpt lat="51.681351" lon="6.196804">
        <ele>19.560713</ele>
        <time>2024-03-31T14:21:02.000Z</time>
      </trkpt>
      <trkpt lat="51.681265" lon="6.196867">
        <ele>19.666461</ele>
        <time>2024-03-31T14:21:04.000Z</time>
      </trkpt>
      <trkpt lat="51.681186" lon="6.196985">
        <ele>19.787010</ele>
        <time>2024-03-31T14:21:08.000Z</time>
      </trkpt>
      <trkpt lat="51.681107" lon="6.197079">
        <ele>19.896921</ele>
        <time>2024-03-31T14:21:09.999Z</time>
      </trkpt>
      <trkpt lat="51.681018" lon="6.197190">
        <ele>20.022879</ele>
        <time>2024-03-31T14:21:12.999Z</time>
      </trkpt>
      <trkpt lat="51.680986" lon="6.197399">
        <ele>20.172319</ele>
        <time>2024-03-31T14:21:15.999Z</time>
      </trkpt>
      <trkpt lat="51.680929" lon="6.197558">
        <ele>20.299812</ele>
        <time>2024-03-31T14:21:18.999Z</time>
      </trkpt>
      <trkpt lat="51.680890" lon="6.197692">
        <ele>20.402569</ele>
        <time>2024-03-31T14:21:21.999Z</time>
      </trkpt>
      <trkpt lat="51.680849" lon="6.197833">
        <ele>20.510676</ele>
        <time>2024-03-31T14:21:23.999Z</time>
      </trkpt>
      <trkpt lat="51.680804" lon="6.197963">
        <ele>20.614029</ele>
        <time>2024-03-31T14:21:25.999Z</time>
      </trkpt>
      <trkpt lat="51.680772" lon="6.198149">
        <ele>20.748024</ele>
        <time>2024-03-31T14:21:28.999Z</time>
      </trkpt>
      <trkpt lat="51.680733" lon="6.198281">
        <ele>20.849526</ele>
        <time>2024-03-31T14:21:31.999Z</time>
      </trkpt>
      <trkpt lat="51.680710" lon="6.198421">
        <ele>20.950064</ele>
        <time>2024-03-31T14:21:34.999Z</time>
      </trkpt>
      <trkpt lat="51.680723" lon="6.198583">
        <ele>20.974776</ele>
        <time>2024-03-31T14:21:38.999Z</time>
      </trkpt>
      <trkpt lat="51.680649" lon="6.198686">
        <ele>20.964305</ele>
        <time>2024-03-31T14:21:42.999Z</time>
      </trkpt>
      <trkpt lat="51.680603" lon="6.198827">
        <ele>20.953723</ele>
        <time>2024-03-31T14:21:52.999Z</time>
      </trkpt>
      <trkpt lat="51.680570" lon="6.198987">
        <ele>20.942523</ele>
        <time>2024-03-31T14:22:00.998Z</time>
      </trkpt>
      <trkpt lat="51.680525" lon="6.199117">
        <ele>20.932634</ele>
        <time>2024-03-31T14:22:12.998Z</time>
      </trkpt>
      <trkpt lat="51.680504" lon="6.199263">
        <ele>20.922679</ele>
        <time>2024-03-31T14:22:39.998Z</time>
      </trkpt>
      <trkpt lat="51.680482" lon="6.199463">
        <ele>20.909187</ele>
        <time>2024-03-31T14:22:44.997Z</time>
      </trkpt>
      <trkpt lat="51.680469" lon="6.199609">
        <ele>20.899390</ele>
        <time>2024-03-31T14:22:47.997Z</time>
      </trkpt>
      <trkpt lat="51.680399" lon="6.199712">
        <ele>20.889240</ele>
        <time>2024-03-31T14:22:49.997Z</time>
      </trkpt>
      <trkpt lat="51.680380" lon="6.199862">
        <ele>20.879071</ele>
        <time>2024-03-31T14:22:52.000Z</time>
      </trkpt>
      <trkpt lat="51.680331" lon="6.200020">
        <ele>20.867337</ele>
        <time>2024-03-31T14:22:54.000Z</time>
      </trkpt>
      <trkpt lat="51.680269" lon="6.200201">
        <ele>20.853602</ele>
        <time>2024-03-31T14:22:58.000Z</time>
      </trkpt>
      <trkpt lat="51.680231" lon="6.200334">
        <ele>20.843875</ele>
        <time>2024-03-31T14:23:01.000Z</time>
      </trkpt>
      <trkpt lat="51.680097" lon="6.200186">
        <ele>20.826477</ele>
        <time>2024-03-31T14:23:04.000Z</time>
      </trkpt>
      <trkpt lat="51.679997" lon="6.200157">
        <ele>20.815593</ele>
        <time>2024-03-31T14:23:06.000Z</time>
      </trkpt>
      <trkpt lat="51.679882" lon="6.200095">
        <ele>20.802604</ele>
        <time>2024-03-31T14:23:08.000Z</time>
      </trkpt>
      <trkpt lat="51.679794" lon="6.200000">
        <ele>20.791260</ele>
        <time>2024-03-31T14:23:10.000Z</time>
      </trkpt>
      <trkpt lat="51.679706" lon="6.199888">
        <ele>20.630238</ele>
        <time>2024-03-31T14:23:12.000Z</time>
      </trkpt>
      <trkpt lat="51.679604" lon="6.199802">
        <ele>20.444479</ele>
        <time>2024-03-31T14:23:14.000Z</time>
      </trkpt>
      <trkpt lat="51.679495" lon="6.199691">
        <ele>20.236426</ele>
        <time>2024-03-31T14:23:15.999Z</time>
      </trkpt>
      <trkpt lat="51.679382" lon="6.199592">
        <ele>20.028881</ele>
        <time>2024-03-31T14:23:17.999Z</time>
      </trkpt>
      <trkpt lat="51.679272" lon="6.199463">
        <ele>19.809375</ele>
        <time>2024-03-31T14:23:19.999Z</time>
      </trkpt>
      <trkpt lat="51.679164" lon="6.199364">
        <ele>19.608883</ele>
        <time>2024-03-31T14:23:21.999Z</time>
      </trkpt>
      <trkpt lat="51.679075" lon="6.199243">
        <ele>19.421014</ele>
        <time>2024-03-31T14:23:23.999Z</time>
      </trkpt>
      <trkpt lat="51.678973" lon="6.199155">
        <ele>19.234318</ele>
        <time>2024-03-31T14:23:25.999Z</time>
      </trkpt>
      <trkpt lat="51.678882" lon="6.199049">
        <ele>19.053148</ele>
        <time>2024-03-31T14:23:27.999Z</time>
      </trkpt>
      <trkpt lat="51.678797" lon="6.198965">
        <ele>18.892258</ele>
        <time>2024-03-31T14:23:29.999Z</time>
      </trkpt>
      <trkpt lat="51.678696" lon="6.198884">
        <ele>18.710209</ele>
        <time>2024-03-31T14:23:31.999Z</time>
      </trkpt>
      <trkpt lat="51.678602" lon="6.198795">
        <ele>18.534287</ele>
        <time>2024-03-31T14:23:33.999Z</time>
      </trkpt>
      <trkpt lat="51.678516" lon="6.198695">
        <ele>18.363174</ele>
        <time>2024-03-31T14:23:35.999Z</time>
      </trkpt>
      <trkpt lat="51.678441" lon="6.198583">
        <ele>18.198206</ele>
        <time>2024-03-31T14:23:37.999Z</time>
      </trkpt>
      <trkpt lat="51.678396" lon="6.198437">
        <ele>18.035041</ele>
        <time>2024-03-31T14:23:39.999Z</time>
      </trkpt>
      <trkpt lat="51.678369" lon="6.198255">
        <ele>17.872918</ele>
        <time>2024-03-31T14:23:41.999Z</time>
      </trkpt>
      <trkpt lat="51.678372" lon="6.198061">
        <ele>17.803295</ele>
        <time>2024-03-31T14:23:43.999Z</time>
      </trkpt>
      <trkpt lat="51.678374" lon="6.197862">
        <ele>17.731891</ele>
        <time>2024-03-31T14:23:45.999Z</time>
      </trkpt>
      <trkpt lat="51.678374" lon="6.197665">
        <ele>17.661213</ele>
        <time>2024-03-31T14:23:47.999Z</time>
      </trkpt>
      <trkpt lat="51.678381" lon="6.197477">
        <ele>17.593643</ele>
        <time>2024-03-31T14:23:49.999Z</time>
      </trkpt>
      <trkpt lat="51.678371" lon="6.197293">
        <ele>17.527377</ele>
        <time>2024-03-31T14:23:51.999Z</time>
      </trkpt>
      <trkpt lat="51.678352" lon="6.197127">
        <ele>17.466815</ele>
        <time>2024-03-31T14:23:53.999Z</time>
      </trkpt>
      <trkpt lat="51.678353" lon="6.196951">
        <ele>17.403669</ele>
        <time>2024-03-31T14:23:55.999Z</time>
      </trkpt>
      <trkpt lat="51.678357" lon="6.196804">
        <ele>17.350879</ele>
        <time>2024-03-31T14:23:57.999Z</time>
      </trkpt>
      <trkpt lat="51.678368" lon="6.196591">
        <ele>17.274196</ele>
        <time>2024-03-31T14:24:00.998Z</time>
      </trkpt>
      <trkpt lat="51.678351" lon="6.196435">
        <ele>17.217371</ele>
        <time>2024-03-31T14:24:02.998Z</time>
      </trkpt>
      <trkpt lat="51.678336" lon="6.196254">
        <ele>17.151856</ele>
        <time>2024-03-31T14:24:04.998Z</time>
      </trkpt>
      <trkpt lat="51.678312" lon="6.196074">
        <ele>17.085801</ele>
        <time>2024-03-31T14:24:06.998Z</time>
      </trkpt>
      <trkpt lat="51.678286" lon="6.195896">
        <ele>17.020192</ele>
        <time>2024-03-31T14:24:08.998Z</time>
      </trkpt>
      <trkpt lat="51.678269" lon="6.195715">
        <ele>16.954514</ele>
        <time>2024-03-31T14:24:10.998Z</time>
      </trkpt>
      <trkpt lat="51.678249" lon="6.195552">
        <ele>16.894901</ele>
        <time>2024-03-31T14:24:12.998Z</time>
      </trkpt>
      <trkpt lat="51.678247" lon="6.195373">
        <ele>16.855355</ele>
        <time>2024-03-31T14:24:14.998Z</time>
      </trkpt>
      <trkpt lat="51.678234" lon="6.195183">
        <ele>16.895099</ele>
        <time>2024-03-31T14:24:16.998Z</time>
      </trkpt>
      <trkpt lat="51.678217" lon="6.194996">
        <ele>16.934395</ele>
        <time>2024-03-31T14:24:18.998Z</time>
      </trkpt>
      <trkpt lat="51.678212" lon="6.194831">
        <ele>16.968742</ele>
        <time>2024-03-31T14:24:20.998Z</time>
      </trkpt>
      <trkpt lat="51.678209" lon="6.194667">
        <ele>17.002855</ele>
        <time>2024-03-31T14:24:22.998Z</time>
      </trkpt>
      <trkpt lat="51.678197" lon="6.194510">
        <ele>17.035745</ele>
        <time>2024-03-31T14:24:24.998Z</time>
      </trkpt>
      <trkpt lat="51.678191" lon="6.194339">
        <ele>17.071355</ele>
        <time>2024-03-31T14:24:26.998Z</time>
      </trkpt>
      <trkpt lat="51.678180" lon="6.194161">
        <ele>17.108548</ele>
        <time>2024-03-31T14:24:28.998Z</time>
      </trkpt>
      <trkpt lat="51.678172" lon="6.193974">
        <ele>17.147520</ele>
        <time>2024-03-31T14:24:30.998Z</time>
      </trkpt>
      <trkpt lat="51.678170" lon="6.193794">
        <ele>17.184951</ele>
        <time>2024-03-31T14:24:32.998Z</time>
      </trkpt>
      <trkpt lat="51.678164" lon="6.193609">
        <ele>17.223468</ele>
        <time>2024-03-31T14:24:34.998Z</time>
      </trkpt>
      <trkpt lat="51.678159" lon="6.193427">
        <ele>17.261346</ele>
        <time>2024-03-31T14:24:36.998Z</time>
      </trkpt>
      <trkpt lat="51.678148" lon="6.193244">
        <ele>17.299573</ele>
        <time>2024-03-31T14:24:38.998Z</time>
      </trkpt>
      <trkpt lat="51.678135" lon="6.193081">
        <ele>17.333742</ele>
        <time>2024-03-31T14:24:40.998Z</time>
      </trkpt>
      <trkpt lat="51.678115" lon="6.192917">
        <ele>17.368494</ele>
        <time>2024-03-31T14:24:42.998Z</time>
      </trkpt>
      <trkpt lat="51.678102" lon="6.192753">
        <ele>17.402869</ele>
        <time>2024-03-31T14:24:44.998Z</time>
      </trkpt>
      <trkpt lat="51.677994" lon="6.192633">
        <ele>17.446845</ele>
        <time>2024-03-31T14:24:47.997Z</time>
      </trkpt>
      <trkpt lat="51.677883" lon="6.192671">
        <ele>17.539138</ele>
        <time>2024-03-31T14:24:49.997Z</time>
      </trkpt>
      <trkpt lat="51.677771" lon="6.192691">
        <ele>17.634657</ele>
        <time>2024-03-31T14:24:51.997Z</time>
      </trkpt>
      <trkpt lat="51.677654" lon="6.192714">
        <ele>17.734568</ele>
        <time>2024-03-31T14:24:53.997Z</time>
      </trkpt>
      <trkpt lat="51.677539" lon="6.192742">
        <ele>17.833155</ele>
        <time>2024-03-31T14:24:55.997Z</time>
      </trkpt>
      <trkpt lat="51.677420" lon="6.192771">
        <ele>17.935173</ele>
        <time>2024-03-31T14:24:58.000Z</time>
      </trkpt>
      <trkpt lat="51.677300" lon="6.192798">
        <ele>18.037878</ele>
        <time>2024-03-31T14:25:00.000Z</time>
      </trkpt>
      <trkpt lat="51.677181" lon="6.192817">
        <ele>18.139244</ele>
        <time>2024-03-31T14:25:02.000Z</time>
      </trkpt>
      <trkpt lat="51.677058" lon="6.192831">
        <ele>18.243766</ele>
        <time>2024-03-31T14:25:04.000Z</time>
      </trkpt>
      <trkpt lat="51.676933" lon="6.192855">
        <ele>18.350473</ele>
        <time>2024-03-31T14:25:06.000Z</time>
      </trkpt>
      <trkpt lat="51.676805" lon="6.192880">
        <ele>18.459767</ele>
        <time>2024-03-31T14:25:08.000Z</time>
      </trkpt>
      <trkpt lat="51.676673" lon="6.192893">
        <ele>18.571868</ele>
        <time>2024-03-31T14:25:10.000Z</time>
      </trkpt>
      <trkpt lat="51.676536" lon="6.192917">
        <ele>18.688681</ele>
        <time>2024-03-31T14:25:12.000Z</time>
      </trkpt>
      <trkpt lat="51.676395" lon="6.192939">
        <ele>18.808760</ele>
        <time>2024-03-31T14:25:14.000Z</time>
      </trkpt>
      <trkpt lat="51.676258" lon="6.192967">
        <ele>18.925820</ele>
        <time>2024-03-31T14:25:16.000Z</time>
      </trkpt>
      <trkpt lat="51.676117" lon="6.193005">
        <ele>18.943159</ele>
        <time>2024-03-31T14:25:18.000Z</time>
      </trkpt>
      <trkpt lat="51.675977" lon="6.193044">
        <ele>18.892171</ele>
        <time>2024-03-31T14:25:20.000Z</time>
      </trkpt>
      <trkpt lat="51.675837" lon="6.193079">
        <ele>18.841328</ele>
        <time>2024-03-31T14:25:22.000Z</time>
      </trkpt>
      <trkpt lat="51.675698" lon="6.193120">
        <ele>18.790616</ele>
        <time>2024-03-31T14:25:23.999Z</time>
      </trkpt>
      <trkpt lat="51.675563" lon="6.193179">
        <ele>18.740419</ele>
        <time>2024-03-31T14:25:25.999Z</time>
      </trkpt>
      <trkpt lat="51.675428" lon="6.193234">
        <ele>18.690448</ele>
        <time>2024-03-31T14:25:27.999Z</time>
      </trkpt>
      <trkpt lat="51.675294" lon="6.193285">
        <ele>18.641037</ele>
        <time>2024-03-31T14:25:29.999Z</time>
      </trkpt>
      <trkpt lat="51.675161" lon="6.193345">
        <ele>18.591473</ele>
        <time>2024-03-31T14:25:31.999Z</time>
      </trkpt>
      <trkpt lat="51.675026" lon="6.193407">
        <ele>18.541098</ele>
        <time>2024-03-31T14:25:33.999Z</time>
      </trkpt>
      <trkpt lat="51.674893" lon="6.193467">
        <ele>18.491534</ele>
        <time>2024-03-31T14:25:35.999Z</time>
      </trkpt>
      <trkpt lat="51.674757" lon="6.193516">
        <ele>18.441523</ele>
        <time>2024-03-31T14:25:37.999Z</time>
      </trkpt>
      <trkpt lat="51.674621" lon="6.193565">
        <ele>18.391511</ele>
        <time>2024-03-31T14:25:39.999Z</time>
      </trkpt>
      <trkpt lat="51.674484" lon="6.193607">
        <ele>18.341464</ele>
        <time>2024-03-31T14:25:41.999Z</time>
      </trkpt>
      <trkpt lat="51.674345" lon="6.193628">
        <ele>18.353028</ele>
        <time>2024-03-31T14:25:43.999Z</time>
      </trkpt>
      <trkpt lat="51.674206" lon="6.193646">
        <ele>18.385976</ele>
        <time>2024-03-31T14:25:45.999Z</time>
      </trkpt>
      <trkpt lat="51.674067" lon="6.193681">
        <ele>18.419217</ele>
        <time>2024-03-31T14:25:47.999Z</time>
      </trkpt>
      <trkpt lat="51.673922" lon="6.193696">
        <ele>18.453547</ele>
        <time>2024-03-31T14:25:49.999Z</time>
      </trkpt>
      <trkpt lat="51.673784" lon="6.193724">
        <ele>18.486410</ele>
        <time>2024-03-31T14:25:51.999Z</time>
      </trkpt>
      <trkpt lat="51.673655" lon="6.193744">
        <ele>18.517030</ele>
        <time>2024-03-31T14:25:53.999Z</time>
      </trkpt>
      <trkpt lat="51.673532" lon="6.193759">
        <ele>18.546175</ele>
        <time>2024-03-31T14:25:55.999Z</time>
      </trkpt>
      <trkpt lat="51.673414" lon="6.193777">
        <ele>18.574180</ele>
        <time>2024-03-31T14:25:57.999Z</time>
      </trkpt>
      <trkpt lat="51.673297" lon="6.193788">
        <ele>18.601871</ele>
        <time>2024-03-31T14:25:59.999Z</time>
      </trkpt>
      <trkpt lat="51.673191" lon="6.193801">
        <ele>18.626989</ele>
        <time>2024-03-31T14:26:01.999Z</time>
      </trkpt>
      <trkpt lat="51.673085" lon="6.193829">
        <ele>18.652368</ele>
        <time>2024-03-31T14:26:03.999Z</time>
      </trkpt>
      <trkpt lat="51.672978" lon="6.193855">
        <ele>18.677935</ele>
        <time>2024-03-31T14:26:05.999Z</time>
      </trkpt>
      <trkpt lat="51.672885" lon="6.193910">
        <ele>18.701339</ele>
        <time>2024-03-31T14:26:07.999Z</time>
      </trkpt>
      <trkpt lat="51.672807" lon="6.194005">
        <ele>18.724435</ele>
        <time>2024-03-31T14:26:09.998Z</time>
      </trkpt>
      <trkpt lat="51.672739" lon="6.194109">
        <ele>18.746579</ele>
        <time>2024-03-31T14:26:11.998Z</time>
      </trkpt>
      <trkpt lat="51.672654" lon="6.194203">
        <ele>18.724336</ele>
        <time>2024-03-31T14:26:13.998Z</time>
      </trkpt>
      <trkpt lat="51.672567" lon="6.194321">
        <ele>18.679307</ele>
        <time>2024-03-31T14:26:15.998Z</time>
      </trkpt>
      <trkpt lat="51.672468" lon="6.194432">
        <ele>18.631546</ele>
        <time>2024-03-31T14:26:17.998Z</time>
      </trkpt>
      <trkpt lat="51.672372" lon="6.194558">
        <ele>18.582518</ele>
        <time>2024-03-31T14:26:19.998Z</time>
      </trkpt>
      <trkpt lat="51.672274" lon="6.194690">
        <ele>18.531940</ele>
        <time>2024-03-31T14:26:21.998Z</time>
      </trkpt>
      <trkpt lat="51.672171" lon="6.194821">
        <ele>18.479980</ele>
        <time>2024-03-31T14:26:23.998Z</time>
      </trkpt>
      <trkpt lat="51.672070" lon="6.194952">
        <ele>18.428639</ele>
        <time>2024-03-31T14:26:25.998Z</time>
      </trkpt>
      <trkpt lat="51.671970" lon="6.195084">
        <ele>18.377451</ele>
        <time>2024-03-31T14:26:27.998Z</time>
      </trkpt>
      <trkpt lat="51.671867" lon="6.195215">
        <ele>18.325490</ele>
        <time>2024-03-31T14:26:29.998Z</time>
      </trkpt>
      <trkpt lat="51.671782" lon="6.195354">
        <ele>18.277539</ele>
        <time>2024-03-31T14:26:31.998Z</time>
      </trkpt>
      <trkpt lat="51.671689" lon="6.195477">
        <ele>18.229897</ele>
        <time>2024-03-31T14:26:33.998Z</time>
      </trkpt>
      <trkpt lat="51.671600" lon="6.195583">
        <ele>18.186071</ele>
        <time>2024-03-31T14:26:35.998Z</time>
      </trkpt>
      <trkpt lat="51.671508" lon="6.195702">
        <ele>18.139355</ele>
        <time>2024-03-31T14:26:37.998Z</time>
      </trkpt>
      <trkpt lat="51.671420" lon="6.195819">
        <ele>18.094179</ele>
        <time>2024-03-31T14:26:39.998Z</time>
      </trkpt>
      <trkpt lat="51.671334" lon="6.195936">
        <ele>18.049610</ele>
        <time>2024-03-31T14:26:41.998Z</time>
      </trkpt>
      <trkpt lat="51.671246" lon="6.196046">
        <ele>18.038624</ele>
        <time>2024-03-31T14:26:43.998Z</time>
      </trkpt>
      <trkpt lat="51.671140" lon="6.196153">
        <ele>18.035182</ele>
        <time>2024-03-31T14:26:45.998Z</time>
      </trkpt>
      <trkpt lat="51.671022" lon="6.196259">
        <ele>18.031464</ele>
        <time>2024-03-31T14:26:47.998Z</time>
      </trkpt>
      <trkpt lat="51.670903" lon="6.196359">
        <ele>18.027770</ele>
        <time>2024-03-31T14:26:49.998Z</time>
      </trkpt>
      <trkpt lat="51.670778" lon="6.196448">
        <ele>18.024008</ele>
        <time>2024-03-31T14:26:51.998Z</time>
      </trkpt>
      <trkpt lat="51.670654" lon="6.196527">
        <ele>18.020338</ele>
        <time>2024-03-31T14:26:53.997Z</time>
      </trkpt>
      <trkpt lat="51.670543" lon="6.196607">
        <ele>18.016991</ele>
        <time>2024-03-31T14:26:55.997Z</time>
      </trkpt>
      <trkpt lat="51.670436" lon="6.196668">
        <ele>18.013867</ele>
        <time>2024-03-31T14:26:57.997Z</time>
      </trkpt>
      <trkpt lat="51.670332" lon="6.196721">
        <ele>18.010865</ele>
        <time>2024-03-31T14:26:59.997Z</time>
      </trkpt>
      <trkpt lat="51.670223" lon="6.196776">
        <ele>18.007721</ele>
        <time>2024-03-31T14:27:01.997Z</time>
      </trkpt>
      <trkpt lat="51.670109" lon="6.196835">
        <ele>18.004425</ele>
        <time>2024-03-31T14:27:04.000Z</time>
      </trkpt>
      <trkpt lat="51.669993" lon="6.196896">
        <ele>18.001066</ele>
        <time>2024-03-31T14:27:06.000Z</time>
      </trkpt>
      <trkpt lat="51.669878" lon="6.196959">
        <ele>17.997723</ele>
        <time>2024-03-31T14:27:08.000Z</time>
      </trkpt>
      <trkpt lat="51.669763" lon="6.196998">
        <ele>17.994488</ele>
        <time>2024-03-31T14:27:10.000Z</time>
      </trkpt>
      <trkpt lat="51.669658" lon="6.197035">
        <ele>17.991535</ele>
        <time>2024-03-31T14:27:12.000Z</time>
      </trkpt>
      <trkpt lat="51.669558" lon="6.197061">
        <ele>17.989018</ele>
        <time>2024-03-31T14:27:14.000Z</time>
      </trkpt>
      <trkpt lat="51.669450" lon="6.197084">
        <ele>17.986311</ele>
        <time>2024-03-31T14:27:16.000Z</time>
      </trkpt>
      <trkpt lat="51.669349" lon="6.197099">
        <ele>17.983791</ele>
        <time>2024-03-31T14:27:18.000Z</time>
      </trkpt>
      <trkpt lat="51.669221" lon="6.197105">
        <ele>17.980609</ele>
        <time>2024-03-31T14:27:21.000Z</time>
      </trkpt>
      <trkpt lat="51.669103" lon="6.197079">
        <ele>17.977650</ele>
        <time>2024-03-31T14:27:24.000Z</time>
      </trkpt>
      <trkpt lat="51.668969" lon="6.197035">
        <ele>17.974252</ele>
        <time>2024-03-31T14:27:27.000Z</time>
      </trkpt>
      <trkpt lat="51.668859" lon="6.197001">
        <ele>17.971469</ele>
        <time>2024-03-31T14:27:28.999Z</time>
      </trkpt>
      <trkpt lat="51.668750" lon="6.196937">
        <ele>17.968587</ele>
        <time>2024-03-31T14:27:30.999Z</time>
      </trkpt>
      <trkpt lat="51.668633" lon="6.196884">
        <ele>17.965567</ele>
        <time>2024-03-31T14:27:32.999Z</time>
      </trkpt>
      <trkpt lat="51.668522" lon="6.196824">
        <ele>17.962658</ele>
        <time>2024-03-31T14:27:34.999Z</time>
      </trkpt>
      <trkpt lat="51.668414" lon="6.196764">
        <ele>17.959820</ele>
        <time>2024-03-31T14:27:36.999Z</time>
      </trkpt>
      <trkpt lat="51.668317" lon="6.196699">
        <ele>17.957210</ele>
        <time>2024-03-31T14:27:38.999Z</time>
      </trkpt>
      <trkpt lat="51.668227" lon="6.196640">
        <ele>17.954796</ele>
        <time>2024-03-31T14:27:40.999Z</time>
      </trkpt>
      <trkpt lat="51.668137" lon="6.196574">
        <ele>17.952339</ele>
        <time>2024-03-31T14:27:42.999Z</time>
      </trkpt>
      <trkpt lat="51.668030" lon="6.196510">
        <ele>17.949503</ele>
        <time>2024-03-31T14:27:45.999Z</time>
      </trkpt>
      <trkpt lat="51.667924" lon="6.196476">
        <ele>17.946899</ele>
        <time>2024-03-31T14:27:49.999Z</time>
      </trkpt>
      <trkpt lat="51.667873" lon="6.196597">
        <ele>17.947041</ele>
        <time>2024-03-31T14:27:53.999Z</time>
      </trkpt>
      <trkpt lat="51.667830" lon="6.196747">
        <ele>17.947201</ele>
        <time>2024-03-31T14:27:56.999Z</time>
      </trkpt>
      <trkpt lat="51.667768" lon="6.196919">
        <ele>17.947394</ele>
        <time>2024-03-31T14:27:59.999Z</time>
      </trkpt>
      <trkpt lat="51.667722" lon="6.197106">
        <ele>17.947589</ele>
        <time>2024-03-31T14:28:02.999Z</time>
      </trkpt>
      <trkpt lat="51.667731" lon="6.197292">
        <ele>17.947770</ele>
        <time>2024-03-31T14:28:06.999Z</time>
      </trkpt>
      <trkpt lat="51.667748" lon="6.197456">
        <ele>17.947931</ele>
        <time>2024-03-31T14:28:10.999Z</time>
      </trkpt>
      <trkpt lat="51.667702" lon="6.197581">
        <ele>17.948071</ele>
        <time>2024-03-31T14:28:13.998Z</time>
      </trkpt>
      <trkpt lat="51.667647" lon="6.197733">
        <ele>17.948242</ele>
        <time>2024-03-31T14:28:17.998Z</time>
      </trkpt>
      <trkpt lat="51.667703" lon="6.197562">
        <ele>17.948429</ele>
        <time>2024-03-31T14:28:31.998Z</time>
      </trkpt>
      <trkpt lat="51.667738" lon="6.197412">
        <ele>17.948584</ele>
        <time>2024-03-31T14:28:34.998Z</time>
      </trkpt>
      <trkpt lat="51.667800" lon="6.197280">
        <ele>17.948745</ele>
        <time>2024-03-31T14:28:37.998Z</time>
      </trkpt>
      <trkpt lat="51.667854" lon="6.197124">
        <ele>17.948918</ele>
        <time>2024-03-31T14:28:40.998Z</time>
      </trkpt>
      <trkpt lat="51.667901" lon="6.196934">
        <ele>17.949116</ele>
        <time>2024-03-31T14:28:43.998Z</time>
      </trkpt>
      <trkpt lat="51.667956" lon="6.196761">
        <ele>17.949304</ele>
        <time>2024-03-31T14:28:46.998Z</time>
      </trkpt>
      <trkpt lat="51.667995" lon="6.196604">
        <ele>17.949468</ele>
        <time>2024-03-31T14:28:49.998Z</time>
      </trkpt>
      <trkpt lat="51.668238" lon="6.196651">
        <ele>18.010073</ele>
        <time>2024-03-31T14:29:22.000Z</time>
      </trkpt>
      <trkpt lat="51.668363" lon="6.196742">
        <ele>18.098283</ele>
        <time>2024-03-31T14:29:25.000Z</time>
      </trkpt>
      <trkpt lat="51.668459" lon="6.196805">
        <ele>18.164944</ele>
        <time>2024-03-31T14:29:27.000Z</time>
      </trkpt>
      <trkpt lat="51.668545" lon="6.196885">
        <ele>18.228800</ele>
        <time>2024-03-31T14:29:29.000Z</time>
      </trkpt>
      <trkpt lat="51.668634" lon="6.196938">
        <ele>18.289821</ele>
        <time>2024-03-31T14:29:31.000Z</time>
      </trkpt>
      <trkpt lat="51.668756" lon="6.197020">
        <ele>18.374830</ele>
        <time>2024-03-31T14:29:33.999Z</time>
      </trkpt>
      <trkpt lat="51.668849" lon="6.197093">
        <ele>18.441355</ele>
        <time>2024-03-31T14:29:36.999Z</time>
      </trkpt>
      <trkpt lat="51.668941" lon="6.197140">
        <ele>18.503424</ele>
        <time>2024-03-31T14:29:44.999Z</time>
      </trkpt>
      <trkpt lat="51.669056" lon="6.197178">
        <ele>18.578924</ele>
        <time>2024-03-31T14:29:49.999Z</time>
      </trkpt>
      <trkpt lat="51.669091" lon="6.197326">
        <ele>18.642106</ele>
        <time>2024-03-31T14:29:53.999Z</time>
      </trkpt>
      <trkpt lat="51.669078" lon="6.197492">
        <ele>18.708847</ele>
        <time>2024-03-31T14:29:56.999Z</time>
      </trkpt>
      <trkpt lat="51.669034" lon="6.197687">
        <ele>18.791617</ele>
        <time>2024-03-31T14:29:59.999Z</time>
      </trkpt>
      <trkpt lat="51.668992" lon="6.197897">
        <ele>18.879632</ele>
        <time>2024-03-31T14:30:02.999Z</time>
      </trkpt>
      <trkpt lat="51.668966" lon="6.198066">
        <ele>18.949087</ele>
        <time>2024-03-31T14:30:04.999Z</time>
      </trkpt>
      <trkpt lat="51.668951" lon="6.198227">
        <ele>19.014028</ele>
        <time>2024-03-31T14:30:06.999Z</time>
      </trkpt>
      <trkpt lat="51.668941" lon="6.198400">
        <ele>19.083335</ele>
        <time>2024-03-31T14:30:08.999Z</time>
      </trkpt>
      <trkpt lat="51.668913" lon="6.198566">
        <ele>18.987733</ele>
        <time>2024-03-31T14:30:10.999Z</time>
      </trkpt>
      <trkpt lat="51.668884" lon="6.198733">
        <ele>18.806927</ele>
        <time>2024-03-31T14:30:12.999Z</time>
      </trkpt>
      <trkpt lat="51.668851" lon="6.198912">
        <ele>18.612236</ele>
        <time>2024-03-31T14:30:14.999Z</time>
      </trkpt>
      <trkpt lat="51.668829" lon="6.199096">
        <ele>18.416870</ele>
        <time>2024-03-31T14:30:16.999Z</time>
      </trkpt>
      <trkpt lat="51.668814" lon="6.199284">
        <ele>18.219251</ele>
        <time>2024-03-31T14:30:18.998Z</time>
      </trkpt>
      <trkpt lat="51.668793" lon="6.199466">
        <ele>18.026246</ele>
        <time>2024-03-31T14:30:20.998Z</time>
      </trkpt>
      <trkpt lat="51.668771" lon="6.199651">
        <ele>17.829856</ele>
        <time>2024-03-31T14:30:22.998Z</time>
      </trkpt>
      <trkpt lat="51.668756" lon="6.199838">
        <ele>17.633270</ele>
        <time>2024-03-31T14:30:24.998Z</time>
      </trkpt>
      <trkpt lat="51.668733" lon="6.200015">
        <ele>17.444727</ele>
        <time>2024-03-31T14:30:26.998Z</time>
      </trkpt>
      <trkpt lat="51.668708" lon="6.200191">
        <ele>17.256483</ele>
        <time>2024-03-31T14:30:28.998Z</time>
      </trkpt>
      <trkpt lat="51.668685" lon="6.200356">
        <ele>17.080166</ele>
        <time>2024-03-31T14:30:30.998Z</time>
      </trkpt>
      <trkpt lat="51.668671" lon="6.200526">
        <ele>16.901372</ele>
        <time>2024-03-31T14:30:32.998Z</time>
      </trkpt>
      <trkpt lat="51.668657" lon="6.200686">
        <ele>16.732907</ele>
        <time>2024-03-31T14:30:34.998Z</time>
      </trkpt>
      <trkpt lat="51.668637" lon="6.200834">
        <ele>16.574986</ele>
        <time>2024-03-31T14:30:36.998Z</time>
      </trkpt>
      <trkpt lat="51.668614" lon="6.201031">
        <ele>16.365990</ele>
        <time>2024-03-31T14:30:39.998Z</time>
      </trkpt>
      <trkpt lat="51.668603" lon="6.201211">
        <ele>16.177417</ele>
        <time>2024-03-31T14:30:42.998Z</time>
      </trkpt>
      <trkpt lat="51.668582" lon="6.201389">
        <ele>16.077305</ele>
        <time>2024-03-31T14:30:45.998Z</time>
      </trkpt>
      <trkpt lat="51.668576" lon="6.201563">
        <ele>16.066416</ele>
        <time>2024-03-31T14:30:49.998Z</time>
      </trkpt>
      <trkpt lat="51.668618" lon="6.201393">
        <ele>16.054983</ele>
        <time>2024-03-31T14:30:56.998Z</time>
      </trkpt>
      <trkpt lat="51.668641" lon="6.201234">
        <ele>16.044781</ele>
        <time>2024-03-31T14:30:59.998Z</time>
      </trkpt>
      <trkpt lat="51.668664" lon="6.201059">
        <ele>16.033604</ele>
        <time>2024-03-31T14:31:02.998Z</time>
      </trkpt>
      <trkpt lat="51.668689" lon="6.200906">
        <ele>16.023718</ele>
        <time>2024-03-31T14:31:05.997Z</time>
      </trkpt>
      <trkpt lat="51.668636" lon="6.200787">
        <ele>16.014564</ele>
        <time>2024-03-31T14:31:10.997Z</time>
      </trkpt>
      <trkpt lat="51.668566" lon="6.200681">
        <ele>16.004890</ele>
        <time>2024-03-31T14:31:16.000Z</time>
      </trkpt>
      <trkpt lat="51.668477" lon="6.200596">
        <ele>15.994469</ele>
        <time>2024-03-31T14:31:20.000Z</time>
      </trkpt>
      <trkpt lat="51.668398" lon="6.200488">
        <ele>15.984034</ele>
        <time>2024-03-31T14:31:24.000Z</time>
      </trkpt>
      <trkpt lat="51.668323" lon="6.200354">
        <ele>15.972756</ele>
        <time>2024-03-31T14:31:28.000Z</time>
      </trkpt>
      <trkpt lat="51.668241" lon="6.200208">
        <ele>15.960449</ele>
        <time>2024-03-31T14:31:32.000Z</time>
      </trkpt>
      <trkpt lat="51.668170" lon="6.200073">
        <ele>15.949390</ele>
        <time>2024-03-31T14:31:35.000Z</time>
      </trkpt>
      <trkpt lat="51.668097" lon="6.199920">
        <ele>15.937328</ele>
        <time>2024-03-31T14:31:38.000Z</time>
      </trkpt>
      <trkpt lat="51.668018" lon="6.199771">
        <ele>15.925080</ele>
        <time>2024-03-31T14:31:40.999Z</time>
      </trkpt>
      <trkpt lat="51.667944" lon="6.199613">
        <ele>15.912709</ele>
        <time>2024-03-31T14:31:43.999Z</time>
      </trkpt>
      <trkpt lat="51.667873" lon="6.199458">
        <ele>15.905511</ele>
        <time>2024-03-31T14:31:46.999Z</time>
      </trkpt>
      <trkpt lat="51.667797" lon="6.199303">
        <ele>15.947770</ele>
        <time>2024-03-31T14:31:49.999Z</time>
      </trkpt>
      <trkpt lat="51.667718" lon="6.199136">
        <ele>15.992690</ele>
        <time>2024-03-31T14:31:52.999Z</time>
      </trkpt>
      <trkpt lat="51.667660" lon="6.199021">
        <ele>16.024392</ele>
        <time>2024-03-31T14:31:54.999Z</time>
      </trkpt>
      <trkpt lat="51.667604" lon="6.198904">
        <ele>16.056000</ele>
        <time>2024-03-31T14:31:56.999Z</time>
      </trkpt>
      <trkpt lat="51.667533" lon="6.198732">
        <ele>16.100189</ele>
        <time>2024-03-31T14:31:59.999Z</time>
      </trkpt>
      <trkpt lat="51.667464" lon="6.198575">
        <ele>16.141344</ele>
        <time>2024-03-31T14:32:02.999Z</time>
      </trkpt>
      <trkpt lat="51.667390" lon="6.198436">
        <ele>16.180523</ele>
        <time>2024-03-31T14:32:05.999Z</time>
      </trkpt>
      <trkpt lat="51.667321" lon="6.198338">
        <ele>16.212232</ele>
        <time>2024-03-31T14:32:08.999Z</time>
      </trkpt>
      <trkpt lat="51.667250" lon="6.198175">
        <ele>16.254832</ele>
        <time>2024-03-31T14:32:11.999Z</time>
      </trkpt>
      <trkpt lat="51.667206" lon="6.197992">
        <ele>16.296810</ele>
        <time>2024-03-31T14:32:14.999Z</time>
      </trkpt>
      <trkpt lat="51.667156" lon="6.197862">
        <ele>16.329526</ele>
        <time>2024-03-31T14:32:16.999Z</time>
      </trkpt>
      <trkpt lat="51.667100" lon="6.197744">
        <ele>16.361305</ele>
        <time>2024-03-31T14:32:18.999Z</time>
      </trkpt>
      <trkpt lat="51.667017" lon="6.197581">
        <ele>16.406411</ele>
        <time>2024-03-31T14:32:21.999Z</time>
      </trkpt>
      <trkpt lat="51.666937" lon="6.197409">
        <ele>16.452393</ele>
        <time>2024-03-31T14:32:24.999Z</time>
      </trkpt>
      <trkpt lat="51.666850" lon="6.197247">
        <ele>16.498225</ele>
        <time>2024-03-31T14:32:27.998Z</time>
      </trkpt>
      <trkpt lat="51.666769" lon="6.197087">
        <ele>16.480564</ele>
        <time>2024-03-31T14:32:30.998Z</time>
      </trkpt>
      <trkpt lat="51.666688" lon="6.196949">
        <ele>16.397985</ele>
        <time>2024-03-31T14:32:33.998Z</time>
      </trkpt>
      <trkpt lat="51.666602" lon="6.196811">
        <ele>16.312959</ele>
        <time>2024-03-31T14:32:36.998Z</time>
      </trkpt>
      <trkpt lat="51.666501" lon="6.196663">
        <ele>16.217318</ele>
        <time>2024-03-31T14:32:39.998Z</time>
      </trkpt>
      <trkpt lat="51.666429" lon="6.196561">
        <ele>16.150154</ele>
        <time>2024-03-31T14:32:41.998Z</time>
      </trkpt>
      <trkpt lat="51.666351" lon="6.196461">
        <ele>16.080320</ele>
        <time>2024-03-31T14:32:43.998Z</time>
      </trkpt>
      <trkpt lat="51.666266" lon="6.196367">
        <ele>16.008091</ele>
        <time>2024-03-31T14:32:45.998Z</time>
      </trkpt>
      <trkpt lat="51.666181" lon="6.196267">
        <ele>15.934354</ele>
        <time>2024-03-31T14:32:47.998Z</time>
      </trkpt>
      <trkpt lat="51.666099" lon="6.196184">
        <ele>15.866507</ele>
        <time>2024-03-31T14:32:49.998Z</time>
      </trkpt>
      <trkpt lat="51.665996" lon="6.196088">
        <ele>15.783136</ele>
        <time>2024-03-31T14:32:52.998Z</time>
      </trkpt>
      <trkpt lat="51.665889" lon="6.195985">
        <ele>15.695807</ele>
        <time>2024-03-31T14:32:55.998Z</time>
      </trkpt>
      <trkpt lat="51.665773" lon="6.195892">
        <ele>15.605024</ele>
        <time>2024-03-31T14:32:58.998Z</time>
      </trkpt>
      <trkpt lat="51.665692" lon="6.195826">
        <ele>15.541425</ele>
        <time>2024-03-31T14:33:00.998Z</time>
      </trkpt>
      <trkpt lat="51.665576" lon="6.195742">
        <ele>15.452315</ele>
        <time>2024-03-31T14:33:03.998Z</time>
      </trkpt>
      <trkpt lat="51.665486" lon="6.195677">
        <ele>15.383208</ele>
        <time>2024-03-31T14:33:07.998Z</time>
      </trkpt>
      <trkpt lat="51.665389" lon="6.195620">
        <ele>15.310860</ele>
        <time>2024-03-31T14:33:11.997Z</time>
      </trkpt>
      <trkpt lat="51.665281" lon="6.195565">
        <ele>15.267373</ele>
        <time>2024-03-31T14:33:15.997Z</time>
      </trkpt>
      <trkpt lat="51.665168" lon="6.195526">
        <ele>15.282920</ele>
        <time>2024-03-31T14:33:19.997Z</time>
      </trkpt>
      <trkpt lat="51.665055" lon="6.195483">
        <ele>15.298540</ele>
        <time>2024-03-31T14:33:24.000Z</time>
      </trkpt>
      <trkpt lat="51.664962" lon="6.195469">
        <ele>15.311107</ele>
        <time>2024-03-31T14:33:27.000Z</time>
      </trkpt>
      <trkpt lat="51.664863" lon="6.195420">
        <ele>15.325040</ele>
        <time>2024-03-31T14:33:31.000Z</time>
      </trkpt>
      <trkpt lat="51.664765" lon="6.195424">
        <ele>15.338228</ele>
        <time>2024-03-31T14:33:35.000Z</time>
      </trkpt>
      <trkpt lat="51.664652" lon="6.195403">
        <ele>15.353532</ele>
        <time>2024-03-31T14:33:39.000Z</time>
      </trkpt>
      <trkpt lat="51.664537" lon="6.195385">
        <ele>15.369077</ele>
        <time>2024-03-31T14:33:43.000Z</time>
      </trkpt>
      <trkpt lat="51.664423" lon="6.195378">
        <ele>15.384425</ele>
        <time>2024-03-31T14:33:47.000Z</time>
      </trkpt>
      <trkpt lat="51.664315" lon="6.195373">
        <ele>15.398961</ele>
        <time>2024-03-31T14:33:50.999Z</time>
      </trkpt>
      <trkpt lat="51.664205" lon="6.195385">
        <ele>15.413794</ele>
        <time>2024-03-31T14:33:54.999Z</time>
      </trkpt>
      <trkpt lat="51.664092" lon="6.195365">
        <ele>15.429088</ele>
        <time>2024-03-31T14:33:58.999Z</time>
      </trkpt>
      <trkpt lat="51.663993" lon="6.195388">
        <ele>15.442545</ele>
        <time>2024-03-31T14:34:01.999Z</time>
      </trkpt>
      <trkpt lat="51.663894" lon="6.195420">
        <ele>15.456129</ele>
        <time>2024-03-31T14:34:04.999Z</time>
      </trkpt>
      <trkpt lat="51.663791" lon="6.195446">
        <ele>15.470156</ele>
        <time>2024-03-31T14:34:07.999Z</time>
      </trkpt>
      <trkpt lat="51.663682" lon="6.195478">
        <ele>15.485061</ele>
        <time>2024-03-31T14:34:10.999Z</time>
      </trkpt>
      <trkpt lat="51.663583" lon="6.195506">
        <ele>15.498584</ele>
        <time>2024-03-31T14:34:13.999Z</time>
      </trkpt>
      <trkpt lat="51.663491" lon="6.195533">
        <ele>15.565922</ele>
        <time>2024-03-31T14:34:16.999Z</time>
      </trkpt>
      <trkpt lat="51.663384" lon="6.195577">
        <ele>15.688019</ele>
        <time>2024-03-31T14:34:19.999Z</time>
      </trkpt>
      <trkpt lat="51.663285" lon="6.195593">
        <ele>15.798031</ele>
        <time>2024-03-31T14:34:21.999Z</time>
      </trkpt>
      <trkpt lat="51.663181" lon="6.195689">
        <ele>15.930539</ele>
        <time>2024-03-31T14:34:24.999Z</time>
      </trkpt>
      <trkpt lat="51.663063" lon="6.195750">
        <ele>16.067554</ele>
        <time>2024-03-31T14:34:27.999Z</time>
      </trkpt>
      <trkpt lat="51.662951" lon="6.195837">
        <ele>16.205017</ele>
        <time>2024-03-31T14:34:30.999Z</time>
      </trkpt>
      <trkpt lat="51.662838" lon="6.195905">
        <ele>16.338381</ele>
        <time>2024-03-31T14:34:33.998Z</time>
      </trkpt>
      <trkpt lat="51.662729" lon="6.195984">
        <ele>16.470521</ele>
        <time>2024-03-31T14:34:36.998Z</time>
      </trkpt>
      <trkpt lat="51.662627" lon="6.196109">
        <ele>16.612188</ele>
        <time>2024-03-31T14:34:39.998Z</time>
      </trkpt>
      <trkpt lat="51.662519" lon="6.196198">
        <ele>16.746299</ele>
        <time>2024-03-31T14:34:42.998Z</time>
      </trkpt>
      <trkpt lat="51.662430" lon="6.196295">
        <ele>16.865084</ele>
        <time>2024-03-31T14:34:45.998Z</time>
      </trkpt>
      <trkpt lat="51.662362" lon="6.196405">
        <ele>16.971597</ele>
        <time>2024-03-31T14:34:48.998Z</time>
      </trkpt>
      <trkpt lat="51.662286" lon="6.196484">
        <ele>17.071583</ele>
        <time>2024-03-31T14:35:01.998Z</time>
      </trkpt>
      <trkpt lat="51.662223" lon="6.196589">
        <ele>17.171776</ele>
        <time>2024-03-31T14:35:10.998Z</time>
      </trkpt>
      <trkpt lat="51.662059" lon="6.196854">
        <ele>17.428517</ele>
        <time>2024-03-31T14:36:50.998Z</time>
      </trkpt>
      <trkpt lat="51.661983" lon="6.196991">
        <ele>17.470632</ele>
        <time>2024-03-31T14:36:54.998Z</time>
      </trkpt>
      <trkpt lat="51.661904" lon="6.197120">
        <ele>17.427293</ele>
        <time>2024-03-31T14:36:58.998Z</time>
      </trkpt>
      <trkpt lat="51.661817" lon="6.197249">
        <ele>17.381735</ele>
        <time>2024-03-31T14:37:02.998Z</time>
      </trkpt>
      <trkpt lat="51.661734" lon="6.197333">
        <ele>17.343965</ele>
        <time>2024-03-31T14:37:05.998Z</time>
      </trkpt>
      <trkpt lat="51.661638" lon="6.197436">
        <ele>17.299519</ele>
        <time>2024-03-31T14:37:08.998Z</time>
      </trkpt>
      <trkpt lat="51.661538" lon="6.197525">
        <ele>17.255494</ele>
        <time>2024-03-31T14:37:11.998Z</time>
      </trkpt>
      <trkpt lat="51.661447" lon="6.197591">
        <ele>17.217035</ele>
        <time>2024-03-31T14:37:15.998Z</time>
      </trkpt>
      <trkpt lat="51.661376" lon="6.197680">
        <ele>17.182371</ele>
        <time>2024-03-31T14:42:03.999Z</time>
      </trkpt>
      <trkpt lat="51.661287" lon="6.197732">
        <ele>17.145886</ele>
        <time>2024-03-31T14:42:07.999Z</time>
      </trkpt>
      <trkpt lat="51.661186" lon="6.197798">
        <ele>17.103882</ele>
        <time>2024-03-31T14:42:10.999Z</time>
      </trkpt>
      <trkpt lat="51.661064" lon="6.197863">
        <ele>17.054360</ele>
        <time>2024-03-31T14:42:13.999Z</time>
      </trkpt>
      <trkpt lat="51.660977" lon="6.197909">
        <ele>17.019071</ele>
        <time>2024-03-31T14:42:15.999Z</time>
      </trkpt>
      <trkpt lat="51.660875" lon="6.197928">
        <ele>16.979497</ele>
        <time>2024-03-31T14:42:18.999Z</time>
      </trkpt>
      <trkpt lat="51.660777" lon="6.197866">
        <ele>16.938921</ele>
        <time>2024-03-31T14:42:21.999Z</time>
      </trkpt>
      <trkpt lat="51.660675" lon="6.197873">
        <ele>16.899573</ele>
        <time>2024-03-31T14:42:24.999Z</time>
      </trkpt>
      <trkpt lat="51.660578" lon="6.197910">
        <ele>16.861155</ele>
        <time>2024-03-31T14:42:27.999Z</time>
      </trkpt>
      <trkpt lat="51.660461" lon="6.197950">
        <ele>16.815058</ele>
        <time>2024-03-31T14:42:31.999Z</time>
      </trkpt>
      <trkpt lat="51.660349" lon="6.197922">
        <ele>16.890101</ele>
        <time>2024-03-31T14:42:34.999Z</time>
      </trkpt>
      <trkpt lat="51.660263" lon="6.197984">
        <ele>17.009283</ele>
        <time>2024-03-31T14:42:37.999Z</time>
      </trkpt>
      <trkpt lat="51.660154" lon="6.197989">
        <ele>17.147234</ele>
        <time>2024-03-31T14:42:40.999Z</time>
      </trkpt>
      <trkpt lat="51.660041" lon="6.198018">
        <ele>17.291989</ele>
        <time>2024-03-31T14:42:43.999Z</time>
      </trkpt>
      <trkpt lat="51.659922" lon="6.198059">
        <ele>17.445935</ele>
        <time>2024-03-31T14:42:46.999Z</time>
      </trkpt>
      <trkpt lat="51.659798" lon="6.198089">
        <ele>17.604563</ele>
        <time>2024-03-31T14:42:49.999Z</time>
      </trkpt>
      <trkpt lat="51.659670" lon="6.198128">
        <ele>17.769361</ele>
        <time>2024-03-31T14:42:52.998Z</time>
      </trkpt>
      <trkpt lat="51.659562" lon="6.198167">
        <ele>17.909377</ele>
        <time>2024-03-31T14:42:55.998Z</time>
      </trkpt>
      <trkpt lat="51.659425" lon="6.198176">
        <ele>18.082838</ele>
        <time>2024-03-31T14:42:58.998Z</time>
      </trkpt>
      <trkpt lat="51.659301" lon="6.198166">
        <ele>18.239905</ele>
        <time>2024-03-31T14:43:01.998Z</time>
      </trkpt>
      <trkpt lat="51.659171" lon="6.198171">
        <ele>18.404414</ele>
        <time>2024-03-31T14:43:04.998Z</time>
      </trkpt>
      <trkpt lat="51.659078" lon="6.198159">
        <ele>18.522444</ele>
        <time>2024-03-31T14:43:06.998Z</time>
      </trkpt>
      <trkpt lat="51.658940" lon="6.198164">
        <ele>18.697070</ele>
        <time>2024-03-31T14:43:09.998Z</time>
      </trkpt>
      <trkpt lat="51.658837" lon="6.198151">
        <ele>18.827773</ele>
        <time>2024-03-31T14:43:11.998Z</time>
      </trkpt>
      <trkpt lat="51.658741" lon="6.198156">
        <ele>18.949285</ele>
        <time>2024-03-31T14:43:13.998Z</time>
      </trkpt>
      <trkpt lat="51.658643" lon="6.198150">
        <ele>19.073353</ele>
        <time>2024-03-31T14:43:15.998Z</time>
      </trkpt>
      <trkpt lat="51.658551" lon="6.198148">
        <ele>18.902636</ele>
        <time>2024-03-31T14:43:17.998Z</time>
      </trkpt>
      <trkpt lat="51.658452" lon="6.198139">
        <ele>18.715454</ele>
        <time>2024-03-31T14:43:19.998Z</time>
      </trkpt>
      <trkpt lat="51.658362" lon="6.198113">
        <ele>18.542851</ele>
        <time>2024-03-31T14:43:21.998Z</time>
      </trkpt>
      <trkpt lat="51.658231" lon="6.198105">
        <ele>18.295380</ele>
        <time>2024-03-31T14:43:24.998Z</time>
      </trkpt>
      <trkpt lat="51.658137" lon="6.198072">
        <ele>18.113774</ele>
        <time>2024-03-31T14:43:26.998Z</time>
      </trkpt>
      <trkpt lat="51.658045" lon="6.198025">
        <ele>17.931590</ele>
        <time>2024-03-31T14:43:28.998Z</time>
      </trkpt>
      <trkpt lat="51.657955" lon="6.197970">
        <ele>17.749894</ele>
        <time>2024-03-31T14:43:30.998Z</time>
      </trkpt>
      <trkpt lat="51.657872" lon="6.197909">
        <ele>17.577696</ele>
        <time>2024-03-31T14:43:32.998Z</time>
      </trkpt>
      <trkpt lat="51.657785" lon="6.197864">
        <ele>17.405216</ele>
        <time>2024-03-31T14:43:34.998Z</time>
      </trkpt>
      <trkpt lat="51.657698" lon="6.197806">
        <ele>17.227492</ele>
        <time>2024-03-31T14:43:36.998Z</time>
      </trkpt>
      <trkpt lat="51.657613" lon="6.197755">
        <ele>17.056280</ele>
        <time>2024-03-31T14:43:38.997Z</time>
      </trkpt>
      <trkpt lat="51.657523" lon="6.197701">
        <ele>16.874996</ele>
        <time>2024-03-31T14:43:40.997Z</time>
      </trkpt>
      <trkpt lat="51.657434" lon="6.197637">
        <ele>16.691028</ele>
        <time>2024-03-31T14:43:42.997Z</time>
      </trkpt>
      <trkpt lat="51.657347" lon="6.197577">
        <ele>16.512396</ele>
        <time>2024-03-31T14:43:44.997Z</time>
      </trkpt>
      <trkpt lat="51.657262" lon="6.197507">
        <ele>16.332211</ele>
        <time>2024-03-31T14:43:46.997Z</time>
      </trkpt>
      <trkpt lat="51.657176" lon="6.197437">
        <ele>16.150343</ele>
        <time>2024-03-31T14:43:48.997Z</time>
      </trkpt>
      <trkpt lat="51.657084" lon="6.197381">
        <ele>15.964702</ele>
        <time>2024-03-31T14:43:51.000Z</time>
      </trkpt>
      <trkpt lat="51.656996" lon="6.197315">
        <ele>15.781480</ele>
        <time>2024-03-31T14:43:53.000Z</time>
      </trkpt>
      <trkpt lat="51.656912" lon="6.197260">
        <ele>15.697059</ele>
        <time>2024-03-31T14:43:55.000Z</time>
      </trkpt>
      <trkpt lat="51.656829" lon="6.197192">
        <ele>15.742682</ele>
        <time>2024-03-31T14:43:57.000Z</time>
      </trkpt>
      <trkpt lat="51.656739" lon="6.197133">
        <ele>15.790292</ele>
        <time>2024-03-31T14:43:59.000Z</time>
      </trkpt>
      <trkpt lat="51.656654" lon="6.197071">
        <ele>15.836009</ele>
        <time>2024-03-31T14:44:01.000Z</time>
      </trkpt>
      <trkpt lat="51.656562" lon="6.197018">
        <ele>15.883883</ele>
        <time>2024-03-31T14:44:03.000Z</time>
      </trkpt>
      <trkpt lat="51.656472" lon="6.196959">
        <ele>15.931492</ele>
        <time>2024-03-31T14:44:05.000Z</time>
      </trkpt>
      <trkpt lat="51.656378" lon="6.196913">
        <ele>15.979629</ele>
        <time>2024-03-31T14:44:07.000Z</time>
      </trkpt>
      <trkpt lat="51.656284" lon="6.196861">
        <ele>16.028328</ele>
        <time>2024-03-31T14:44:09.000Z</time>
      </trkpt>
      <trkpt lat="51.656187" lon="6.196823">
        <ele>16.077243</ele>
        <time>2024-03-31T14:44:11.000Z</time>
      </trkpt>
      <trkpt lat="51.656086" lon="6.196793">
        <ele>16.127568</ele>
        <time>2024-03-31T14:44:13.000Z</time>
      </trkpt>
      <trkpt lat="51.655986" lon="6.196763">
        <ele>16.177411</ele>
        <time>2024-03-31T14:44:14.999Z</time>
      </trkpt>
      <trkpt lat="51.655887" lon="6.196737">
        <ele>16.226562</ele>
        <time>2024-03-31T14:44:16.999Z</time>
      </trkpt>
      <trkpt lat="51.655782" lon="6.196721">
        <ele>16.278243</ele>
        <time>2024-03-31T14:44:18.999Z</time>
      </trkpt>
      <trkpt lat="51.655679" lon="6.196694">
        <ele>16.329378</ele>
        <time>2024-03-31T14:44:20.999Z</time>
      </trkpt>
      <trkpt lat="51.655582" lon="6.196665">
        <ele>16.377720</ele>
        <time>2024-03-31T14:44:22.999Z</time>
      </trkpt>
      <trkpt lat="51.655488" lon="6.196649">
        <ele>16.424038</ele>
        <time>2024-03-31T14:44:24.999Z</time>
      </trkpt>
      <trkpt lat="51.655386" lon="6.196642">
        <ele>16.474065</ele>
        <time>2024-03-31T14:44:26.999Z</time>
      </trkpt>
      <trkpt lat="51.655275" lon="6.196609">
        <ele>16.529374</ele>
        <time>2024-03-31T14:44:28.999Z</time>
      </trkpt>
      <trkpt lat="51.655169" lon="6.196580">
        <ele>16.581599</ele>
        <time>2024-03-31T14:44:30.999Z</time>
      </trkpt>
      <trkpt lat="51.655065" lon="6.196552">
        <ele>16.632162</ele>
        <time>2024-03-31T14:44:32.999Z</time>
      </trkpt>
      <trkpt lat="51.654965" lon="6.196519">
        <ele>16.681110</ele>
        <time>2024-03-31T14:44:34.999Z</time>
      </trkpt>
      <trkpt lat="51.654865" lon="6.196495">
        <ele>16.729592</ele>
        <time>2024-03-31T14:44:36.999Z</time>
      </trkpt>
      <trkpt lat="51.654758" lon="6.196470">
        <ele>16.781439</ele>
        <time>2024-03-31T14:44:38.999Z</time>
      </trkpt>
      <trkpt lat="51.654656" lon="6.196443">
        <ele>16.831007</ele>
        <time>2024-03-31T14:44:40.999Z</time>
      </trkpt>
      <trkpt lat="51.654534" lon="6.196415">
        <ele>16.890100</ele>
        <time>2024-03-31T14:44:43.999Z</time>
      </trkpt>
      <trkpt lat="51.654432" lon="6.196392">
        <ele>16.939489</ele>
        <time>2024-03-31T14:44:45.999Z</time>
      </trkpt>
      <trkpt lat="51.654321" lon="6.196370">
        <ele>16.993119</ele>
        <time>2024-03-31T14:44:47.999Z</time>
      </trkpt>
      <trkpt lat="51.654228" lon="6.196359">
        <ele>17.037836</ele>
        <time>2024-03-31T14:44:49.999Z</time>
      </trkpt>
      <trkpt lat="51.654128" lon="6.196349">
        <ele>17.085881</ele>
        <time>2024-03-31T14:44:51.999Z</time>
      </trkpt>
      <trkpt lat="51.654028" lon="6.196338">
        <ele>17.133947</ele>
        <time>2024-03-31T14:44:53.999Z</time>
      </trkpt>
      <trkpt lat="51.653926" lon="6.196308">
        <ele>17.183667</ele>
        <time>2024-03-31T14:44:55.999Z</time>
      </trkpt>
      <trkpt lat="51.653819" lon="6.196266">
        <ele>17.236477</ele>
        <time>2024-03-31T14:44:57.999Z</time>
      </trkpt>
      <trkpt lat="51.653715" lon="6.196239">
        <ele>17.286992</ele>
        <time>2024-03-31T14:44:59.999Z</time>
      </trkpt>
      <trkpt lat="51.653610" lon="6.196220">
        <ele>17.337659</ele>
        <time>2024-03-31T14:45:01.999Z</time>
      </trkpt>
      <trkpt lat="51.653504" lon="6.196191">
        <ele>17.389217</ele>
        <time>2024-03-31T14:45:03.998Z</time>
      </trkpt>
      <trkpt lat="51.653375" lon="6.196147">
        <ele>17.409029</ele>
        <time>2024-03-31T14:45:06.998Z</time>
      </trkpt>
      <trkpt lat="51.653270" lon="6.196127">
        <ele>17.384808</ele>
        <time>2024-03-31T14:45:08.998Z</time>
      </trkpt>
      <trkpt lat="51.653177" lon="6.196101">
        <ele>17.363186</ele>
        <time>2024-03-31T14:45:10.998Z</time>
      </trkpt>
      <trkpt lat="51.653082" lon="6.196067">
        <ele>17.340893</ele>
        <time>2024-03-31T14:45:12.998Z</time>
      </trkpt>
      <trkpt lat="51.652994" lon="6.196034">
        <ele>17.320196</ele>
        <time>2024-03-31T14:45:14.998Z</time>
      </trkpt>
      <trkpt lat="51.652894" lon="6.196046">
        <ele>17.297224</ele>
        <time>2024-03-31T14:45:16.998Z</time>
      </trkpt>
      <trkpt lat="51.652764" lon="6.196024">
        <ele>17.267280</ele>
        <time>2024-03-31T14:45:18.998Z</time>
      </trkpt>
      <trkpt lat="51.652676" lon="6.195989">
        <ele>17.246517</ele>
        <time>2024-03-31T14:45:20.998Z</time>
      </trkpt>
      <trkpt lat="51.652577" lon="6.195960">
        <ele>17.223466</ele>
        <time>2024-03-31T14:45:22.998Z</time>
      </trkpt>
      <trkpt lat="51.652477" lon="6.195936">
        <ele>17.200306</ele>
        <time>2024-03-31T14:45:24.998Z</time>
      </trkpt>
      <trkpt lat="51.652375" lon="6.195912">
        <ele>17.176692</ele>
        <time>2024-03-31T14:45:26.998Z</time>
      </trkpt>
      <trkpt lat="51.652271" lon="6.195881">
        <ele>17.152464</ele>
        <time>2024-03-31T14:45:28.998Z</time>
      </trkpt>
      <trkpt lat="51.652170" lon="6.195864">
        <ele>17.129201</ele>
        <time>2024-03-31T14:45:30.998Z</time>
      </trkpt>
      <trkpt lat="51.652070" lon="6.195834">
        <ele>17.105899</ele>
        <time>2024-03-31T14:45:32.998Z</time>
      </trkpt>
      <trkpt lat="51.651970" lon="6.195813">
        <ele>17.082798</ele>
        <time>2024-03-31T14:45:34.998Z</time>
      </trkpt>
      <trkpt lat="51.651869" lon="6.195800">
        <ele>17.059587</ele>
        <time>2024-03-31T14:45:36.998Z</time>
      </trkpt>
      <trkpt lat="51.651770" lon="6.195770">
        <ele>17.036511</ele>
        <time>2024-03-31T14:45:38.998Z</time>
      </trkpt>
      <trkpt lat="51.651666" lon="6.195756">
        <ele>17.012603</ele>
        <time>2024-03-31T14:45:40.998Z</time>
      </trkpt>
      <trkpt lat="51.651566" lon="6.195716">
        <ele>16.943795</ele>
        <time>2024-03-31T14:45:42.998Z</time>
      </trkpt>
      <trkpt lat="51.651463" lon="6.195681">
        <ele>16.870203</ele>
        <time>2024-03-31T14:45:44.998Z</time>
      </trkpt>
      <trkpt lat="51.651363" lon="6.195653">
        <ele>16.799245</ele>
        <time>2024-03-31T14:45:46.998Z</time>
      </trkpt>
      <trkpt lat="51.651255" lon="6.195626">
        <ele>16.722838</ele>
        <time>2024-03-31T14:45:48.998Z</time>
      </trkpt>
      <trkpt lat="51.651146" lon="6.195604">
        <ele>16.646039</ele>
        <time>2024-03-31T14:45:50.997Z</time>
      </trkpt>
      <trkpt lat="51.651041" lon="6.195581">
        <ele>16.571957</ele>
        <time>2024-03-31T14:45:52.997Z</time>
      </trkpt>
      <trkpt lat="51.650932" lon="6.195557">
        <ele>16.495046</ele>
        <time>2024-03-31T14:45:54.997Z</time>
      </trkpt>
      <trkpt lat="51.650827" lon="6.195529">
        <ele>16.420641</ele>
        <time>2024-03-31T14:45:57.000Z</time>
      </trkpt>
      <trkpt lat="51.650718" lon="6.195500">
        <ele>16.343407</ele>
        <time>2024-03-31T14:45:59.000Z</time>
      </trkpt>
      <trkpt lat="51.650610" lon="6.195471">
        <ele>16.266862</ele>
        <time>2024-03-31T14:46:01.000Z</time>
      </trkpt>
      <trkpt lat="51.650507" lon="6.195435">
        <ele>16.193180</ele>
        <time>2024-03-31T14:46:03.000Z</time>
      </trkpt>
      <trkpt lat="51.650403" lon="6.195400">
        <ele>16.118904</ele>
        <time>2024-03-31T14:46:05.000Z</time>
      </trkpt>
      <trkpt lat="51.650294" lon="6.195382">
        <ele>16.042301</ele>
        <time>2024-03-31T14:46:07.000Z</time>
      </trkpt>
      <trkpt lat="51.650186" lon="6.195364">
        <ele>15.966394</ele>
        <time>2024-03-31T14:46:09.000Z</time>
      </trkpt>
      <trkpt lat="51.650082" lon="6.195336">
        <ele>15.892679</ele>
        <time>2024-03-31T14:46:11.000Z</time>
      </trkpt>
      <trkpt lat="51.649980" lon="6.195309">
        <ele>15.820414</ele>
        <time>2024-03-31T14:46:13.000Z</time>
      </trkpt>
      <trkpt lat="51.649883" lon="6.195287">
        <ele>15.755871</ele>
        <time>2024-03-31T14:46:15.000Z</time>
      </trkpt>
      <trkpt lat="51.649781" lon="6.195268">
        <ele>15.855977</ele>
        <time>2024-03-31T14:46:17.000Z</time>
      </trkpt>
      <trkpt lat="51.649682" lon="6.195247">
        <ele>15.953328</ele>
        <time>2024-03-31T14:46:19.000Z</time>
      </trkpt>
      <trkpt lat="51.649588" lon="6.195250">
        <ele>16.044989</ele>
        <time>2024-03-31T14:46:21.000Z</time>
      </trkpt>
      <trkpt lat="51.649496" lon="6.195326">
        <ele>16.145779</ele>
        <time>2024-03-31T14:46:23.000Z</time>
      </trkpt>
      <trkpt lat="51.649407" lon="6.195400">
        <ele>16.243415</ele>
        <time>2024-03-31T14:46:24.999Z</time>
      </trkpt>
      <trkpt lat="51.649321" lon="6.195487">
        <ele>16.342408</ele>
        <time>2024-03-31T14:46:26.999Z</time>
      </trkpt>
      <trkpt lat="51.649233" lon="6.195570">
        <ele>16.441814</ele>
        <time>2024-03-31T14:46:28.999Z</time>
      </trkpt>
      <trkpt lat="51.649148" lon="6.195648">
        <ele>16.537175</ele>
        <time>2024-03-31T14:46:30.999Z</time>
      </trkpt>
      <trkpt lat="51.649064" lon="6.195723">
        <ele>16.630797</ele>
        <time>2024-03-31T14:46:32.999Z</time>
      </trkpt>
      <trkpt lat="51.648979" lon="6.195789">
        <ele>16.722783</ele>
        <time>2024-03-31T14:46:34.999Z</time>
      </trkpt>
      <trkpt lat="51.648894" lon="6.195852">
        <ele>16.813995</ele>
        <time>2024-03-31T14:46:36.999Z</time>
      </trkpt>
      <trkpt lat="51.648811" lon="6.195921">
        <ele>16.905046</ele>
        <time>2024-03-31T14:46:38.999Z</time>
      </trkpt>
      <trkpt lat="51.648746" lon="6.196081">
        <ele>17.020735</ele>
        <time>2024-03-31T14:46:41.999Z</time>
      </trkpt>
      <trkpt lat="51.648773" lon="6.196228">
        <ele>17.113473</ele>
        <time>2024-03-31T14:46:43.999Z</time>
      </trkpt>
      <trkpt lat="51.648811" lon="6.196361">
        <ele>17.202049</ele>
        <time>2024-03-31T14:46:45.999Z</time>
      </trkpt>
      <trkpt lat="51.648841" lon="6.196570">
        <ele>17.331818</ele>
        <time>2024-03-31T14:46:48.999Z</time>
      </trkpt>
      <trkpt lat="51.648860" lon="6.196721">
        <ele>17.425021</ele>
        <time>2024-03-31T14:46:50.999Z</time>
      </trkpt>
      <trkpt lat="51.648872" lon="6.196876">
        <ele>17.525048</ele>
        <time>2024-03-31T14:46:52.999Z</time>
      </trkpt>
      <trkpt lat="51.648892" lon="6.197028">
        <ele>17.661098</ele>
        <time>2024-03-31T14:46:54.999Z</time>
      </trkpt>
      <trkpt lat="51.648916" lon="6.197186">
        <ele>17.803527</ele>
        <time>2024-03-31T14:46:56.999Z</time>
      </trkpt>
      <trkpt lat="51.648942" lon="6.197338">
        <ele>17.941582</ele>
        <time>2024-03-31T14:46:58.999Z</time>
      </trkpt>
      <trkpt lat="51.648973" lon="6.197478">
        <ele>18.071737</ele>
        <time>2024-03-31T14:47:00.999Z</time>
      </trkpt>
      <trkpt lat="51.649007" lon="6.197672">
        <ele>18.248248</ele>
        <time>2024-03-31T14:47:03.999Z</time>
      </trkpt>
      <trkpt lat="51.649055" lon="6.197871">
        <ele>18.435194</ele>
        <time>2024-03-31T14:47:06.999Z</time>
      </trkpt>
      <trkpt lat="51.649017" lon="6.198047">
        <ele>18.598361</ele>
        <time>2024-03-31T14:47:09.999Z</time>
      </trkpt>
      <trkpt lat="51.648896" lon="6.198124">
        <ele>18.781940</ele>
        <time>2024-03-31T14:47:12.998Z</time>
      </trkpt>
      <trkpt lat="51.648779" lon="6.198224">
        <ele>18.968826</ele>
        <time>2024-03-31T14:47:15.998Z</time>
      </trkpt>
      <trkpt lat="51.648666" lon="6.198296">
        <ele>19.140297</ele>
        <time>2024-03-31T14:47:17.998Z</time>
      </trkpt>
      <trkpt lat="51.648569" lon="6.198394">
        <ele>19.301852</ele>
        <time>2024-03-31T14:47:19.998Z</time>
      </trkpt>
      <trkpt lat="51.648466" lon="6.198489">
        <ele>19.469320</ele>
        <time>2024-03-31T14:47:21.998Z</time>
      </trkpt>
      <trkpt lat="51.648365" lon="6.198563">
        <ele>19.625884</ele>
        <time>2024-03-31T14:47:23.998Z</time>
      </trkpt>
      <trkpt lat="51.648264" lon="6.198650">
        <ele>19.787492</ele>
        <time>2024-03-31T14:47:25.998Z</time>
      </trkpt>
      <trkpt lat="51.648176" lon="6.198721">
        <ele>19.926366</ele>
        <time>2024-03-31T14:47:27.998Z</time>
      </trkpt>
      <trkpt lat="51.648067" lon="6.198743">
        <ele>20.037899</ele>
        <time>2024-03-31T14:47:29.998Z</time>
      </trkpt>
      <trkpt lat="51.647988" lon="6.198620">
        <ele>20.006059</ele>
        <time>2024-03-31T14:47:31.998Z</time>
      </trkpt>
      <trkpt lat="51.647951" lon="6.198440">
        <ele>19.971953</ele>
        <time>2024-03-31T14:47:33.998Z</time>
      </trkpt>
      <trkpt lat="51.647924" lon="6.198254">
        <ele>19.937596</ele>
        <time>2024-03-31T14:47:35.998Z</time>
      </trkpt>
      <trkpt lat="51.647864" lon="6.198083">
        <ele>19.902262</ele>
        <time>2024-03-31T14:47:37.998Z</time>
      </trkpt>
      <trkpt lat="51.647753" lon="6.198008">
        <ele>19.867373</ele>
        <time>2024-03-31T14:47:39.998Z</time>
      </trkpt>
      <trkpt lat="51.647638" lon="6.198019">
        <ele>19.833979</ele>
        <time>2024-03-31T14:47:41.998Z</time>
      </trkpt>
      <trkpt lat="51.647530" lon="6.198043">
        <ele>19.802377</ele>
        <time>2024-03-31T14:47:43.998Z</time>
      </trkpt>
      <trkpt lat="51.647414" lon="6.198067">
        <ele>19.768476</ele>
        <time>2024-03-31T14:47:45.998Z</time>
      </trkpt>
      <trkpt lat="51.647303" lon="6.198092">
        <ele>19.735988</ele>
        <time>2024-03-31T14:47:47.998Z</time>
      </trkpt>
      <trkpt lat="51.647190" lon="6.198114">
        <ele>19.702995</ele>
        <time>2024-03-31T14:47:49.998Z</time>
      </trkpt>
      <trkpt lat="51.647084" lon="6.198127">
        <ele>19.672179</ele>
        <time>2024-03-31T14:47:51.998Z</time>
      </trkpt>
      <trkpt lat="51.646979" lon="6.198151">
        <ele>19.641438</ele>
        <time>2024-03-31T14:47:53.998Z</time>
      </trkpt>
      <trkpt lat="51.646873" lon="6.198181">
        <ele>19.610242</ele>
        <time>2024-03-31T14:47:55.998Z</time>
      </trkpt>
      <trkpt lat="51.646773" lon="6.198256">
        <ele>19.578270</ele>
        <time>2024-03-31T14:47:57.997Z</time>
      </trkpt>
      <trkpt lat="51.646672" lon="6.198334">
        <ele>19.545805</ele>
        <time>2024-03-31T14:47:59.997Z</time>
      </trkpt>
      <trkpt lat="51.646572" lon="6.198413">
        <ele>19.529988</ele>
        <time>2024-03-31T14:48:01.997Z</time>
      </trkpt>
      <trkpt lat="51.646474" lon="6.198511">
        <ele>19.549417</ele>
        <time>2024-03-31T14:48:04.000Z</time>
      </trkpt>
      <trkpt lat="51.646375" lon="6.198598">
        <ele>19.568413</ele>
        <time>2024-03-31T14:48:06.000Z</time>
      </trkpt>
      <trkpt lat="51.646280" lon="6.198696">
        <ele>19.587414</ele>
        <time>2024-03-31T14:48:08.000Z</time>
      </trkpt>
      <trkpt lat="51.646181" lon="6.198779">
        <ele>19.606214</ele>
        <time>2024-03-31T14:48:10.000Z</time>
      </trkpt>
      <trkpt lat="51.646087" lon="6.198871">
        <ele>19.624740</ele>
        <time>2024-03-31T14:48:12.000Z</time>
      </trkpt>
      <trkpt lat="51.645989" lon="6.198959">
        <ele>19.643639</ele>
        <time>2024-03-31T14:48:14.000Z</time>
      </trkpt>
      <trkpt lat="51.645889" lon="6.199050">
        <ele>19.662985</ele>
        <time>2024-03-31T14:48:16.000Z</time>
      </trkpt>
      <trkpt lat="51.645787" lon="6.199135">
        <ele>19.682329</ele>
        <time>2024-03-31T14:48:18.000Z</time>
      </trkpt>
      <trkpt lat="51.645686" lon="6.199228">
        <ele>19.701925</ele>
        <time>2024-03-31T14:48:20.000Z</time>
      </trkpt>
      <trkpt lat="51.645591" lon="6.199325">
        <ele>19.720871</ele>
        <time>2024-03-31T14:48:22.000Z</time>
      </trkpt>
      <trkpt lat="51.645490" lon="6.199412">
        <ele>19.740163</ele>
        <time>2024-03-31T14:48:24.000Z</time>
      </trkpt>
      <trkpt lat="51.645391" lon="6.199500">
        <ele>19.759209</ele>
        <time>2024-03-31T14:48:26.000Z</time>
      </trkpt>
      <trkpt lat="51.645301" lon="6.199595">
        <ele>19.777333</ele>
        <time>2024-03-31T14:48:28.000Z</time>
      </trkpt>
      <trkpt lat="51.645217" lon="6.199681">
        <ele>19.794098</ele>
        <time>2024-03-31T14:48:29.999Z</time>
      </trkpt>
      <trkpt lat="51.645130" lon="6.199752">
        <ele>19.810526</ele>
        <time>2024-03-31T14:48:31.999Z</time>
      </trkpt>
      <trkpt lat="51.645041" lon="6.199821">
        <ele>19.826427</ele>
        <time>2024-03-31T14:48:33.999Z</time>
      </trkpt>
      <trkpt lat="51.644953" lon="6.199906">
        <ele>19.788381</ele>
        <time>2024-03-31T14:48:35.999Z</time>
      </trkpt>
      <trkpt lat="51.644861" lon="6.199989">
        <ele>19.749282</ele>
        <time>2024-03-31T14:48:37.999Z</time>
      </trkpt>
      <trkpt lat="51.644769" lon="6.200073">
        <ele>19.710070</ele>
        <time>2024-03-31T14:48:39.999Z</time>
      </trkpt>
      <trkpt lat="51.644676" lon="6.200157">
        <ele>19.670535</ele>
        <time>2024-03-31T14:48:41.999Z</time>
      </trkpt>
      <trkpt lat="51.644581" lon="6.200240">
        <ele>19.630461</ele>
        <time>2024-03-31T14:48:43.999Z</time>
      </trkpt>
      <trkpt lat="51.644485" lon="6.200329">
        <ele>19.589391</ele>
        <time>2024-03-31T14:48:45.999Z</time>
      </trkpt>
      <trkpt lat="51.644389" lon="6.200415">
        <ele>19.548660</ele>
        <time>2024-03-31T14:48:47.999Z</time>
      </trkpt>
      <trkpt lat="51.644290" lon="6.200504">
        <ele>19.506621</ele>
        <time>2024-03-31T14:48:49.999Z</time>
      </trkpt>
      <trkpt lat="51.644198" lon="6.200597">
        <ele>19.466348</ele>
        <time>2024-03-31T14:48:51.999Z</time>
      </trkpt>
      <trkpt lat="51.644122" lon="6.200701">
        <ele>19.429374</ele>
        <time>2024-03-31T14:48:53.999Z</time>
      </trkpt>
      <trkpt lat="51.644066" lon="6.200828">
        <ele>19.393522</ele>
        <time>2024-03-31T14:48:55.999Z</time>
      </trkpt>
      <trkpt lat="51.644034" lon="6.200973">
        <ele>19.358108</ele>
        <time>2024-03-31T14:48:57.999Z</time>
      </trkpt>
      <trkpt lat="51.644019" lon="6.201130">
        <ele>19.321553</ele>
        <time>2024-03-31T14:48:59.999Z</time>
      </trkpt>
      <trkpt lat="51.644008" lon="6.201308">
        <ele>19.280389</ele>
        <time>2024-03-31T14:49:01.999Z</time>
      </trkpt>
      <trkpt lat="51.644022" lon="6.201471">
        <ele>19.242523</ele>
        <time>2024-03-31T14:49:03.999Z</time>
      </trkpt>
      <trkpt lat="51.644045" lon="6.201620">
        <ele>19.207190</ele>
        <time>2024-03-31T14:49:05.999Z</time>
      </trkpt>
      <trkpt lat="51.644083" lon="6.201776">
        <ele>19.168625</ele>
        <time>2024-03-31T14:49:07.999Z</time>
      </trkpt>
      <trkpt lat="51.644141" lon="6.201927">
        <ele>19.113904</ele>
        <time>2024-03-31T14:49:09.999Z</time>
      </trkpt>
      <trkpt lat="51.644206" lon="6.202078">
        <ele>19.053406</ele>
        <time>2024-03-31T14:49:11.999Z</time>
      </trkpt>
      <trkpt lat="51.644275" lon="6.202229">
        <ele>18.991674</ele>
        <time>2024-03-31T14:49:13.998Z</time>
      </trkpt>
      <trkpt lat="51.644347" lon="6.202374">
        <ele>18.930539</ele>
        <time>2024-03-31T14:49:15.998Z</time>
      </trkpt>
      <trkpt lat="51.644415" lon="6.202520">
        <ele>18.870445</ele>
        <time>2024-03-31T14:49:17.998Z</time>
      </trkpt>
      <trkpt lat="51.644481" lon="6.202667">
        <ele>18.810715</ele>
        <time>2024-03-31T14:49:19.998Z</time>
      </trkpt>
      <trkpt lat="51.644555" lon="6.202814">
        <ele>18.748402</ele>
        <time>2024-03-31T14:49:21.998Z</time>
      </trkpt>
      <trkpt lat="51.644626" lon="6.202959">
        <ele>18.687598</ele>
        <time>2024-03-31T14:49:23.998Z</time>
      </trkpt>
      <trkpt lat="51.644689" lon="6.203119">
        <ele>18.625218</ele>
        <time>2024-03-31T14:49:25.998Z</time>
      </trkpt>
      <trkpt lat="51.644750" lon="6.203279">
        <ele>18.563400</ele>
        <time>2024-03-31T14:49:27.998Z</time>
      </trkpt>
      <trkpt lat="51.644821" lon="6.203428">
        <ele>18.501557</ele>
        <time>2024-03-31T14:49:29.998Z</time>
      </trkpt>
      <trkpt lat="51.644887" lon="6.203582">
        <ele>18.439946</ele>
        <time>2024-03-31T14:49:31.998Z</time>
      </trkpt>
      <trkpt lat="51.644961" lon="6.203738">
        <ele>18.375306</ele>
        <time>2024-03-31T14:49:33.998Z</time>
      </trkpt>
      <trkpt lat="51.645032" lon="6.203885">
        <ele>18.313983</ele>
        <time>2024-03-31T14:49:35.998Z</time>
      </trkpt>
      <trkpt lat="51.645107" lon="6.204042">
        <ele>18.248759</ele>
        <time>2024-03-31T14:49:37.998Z</time>
      </trkpt>
      <trkpt lat="51.645163" lon="6.204206">
        <ele>18.225011</ele>
        <time>2024-03-31T14:49:39.998Z</time>
      </trkpt>
      <trkpt lat="51.645211" lon="6.204380">
        <ele>18.289832</ele>
        <time>2024-03-31T14:49:41.998Z</time>
      </trkpt>
      <trkpt lat="51.645269" lon="6.204540">
        <ele>18.352910</ele>
        <time>2024-03-31T14:49:43.998Z</time>
      </trkpt>
      <trkpt lat="51.645319" lon="6.204708">
        <ele>18.416336</ele>
        <time>2024-03-31T14:49:45.998Z</time>
      </trkpt>
      <trkpt lat="51.645365" lon="6.204888">
        <ele>18.482603</ele>
        <time>2024-03-31T14:49:47.998Z</time>
      </trkpt>
      <trkpt lat="51.645419" lon="6.205050">
        <ele>18.545202</ele>
        <time>2024-03-31T14:49:49.998Z</time>
      </trkpt>
      <trkpt lat="51.645477" lon="6.205216">
        <ele>18.610051</ele>
        <time>2024-03-31T14:49:51.998Z</time>
      </trkpt>
      <trkpt lat="51.645528" lon="6.205389">
        <ele>18.675249</ele>
        <time>2024-03-31T14:49:53.998Z</time>
      </trkpt>
      <trkpt lat="51.645569" lon="6.205562">
        <ele>18.738289</ele>
        <time>2024-03-31T14:49:55.998Z</time>
      </trkpt>
      <trkpt lat="51.645617" lon="6.205746">
        <ele>18.806233</ele>
        <time>2024-03-31T14:49:57.998Z</time>
      </trkpt>
      <trkpt lat="51.645652" lon="6.205934">
        <ele>18.873048</ele>
        <time>2024-03-31T14:49:59.997Z</time>
      </trkpt>
      <trkpt lat="51.645697" lon="6.206114">
        <ele>18.939107</ele>
        <time>2024-03-31T14:50:01.997Z</time>
      </trkpt>
      <trkpt lat="51.645743" lon="6.206288">
        <ele>19.003489</ele>
        <time>2024-03-31T14:50:03.997Z</time>
      </trkpt>
      <trkpt lat="51.645776" lon="6.206481">
        <ele>19.071636</ele>
        <time>2024-03-31T14:50:05.997Z</time>
      </trkpt>
      <trkpt lat="51.645803" lon="6.206670">
        <ele>19.137655</ele>
        <time>2024-03-31T14:50:07.997Z</time>
      </trkpt>
      <trkpt lat="51.645830" lon="6.206866">
        <ele>19.194567</ele>
        <time>2024-03-31T14:50:10.000Z</time>
      </trkpt>
      <trkpt lat="51.645849" lon="6.207062">
        <ele>19.205099</ele>
        <time>2024-03-31T14:50:12.000Z</time>
      </trkpt>
      <trkpt lat="51.645871" lon="6.207260">
        <ele>19.215777</ele>
        <time>2024-03-31T14:50:14.000Z</time>
      </trkpt>
      <trkpt lat="51.645888" lon="6.207462">
        <ele>19.226599</ele>
        <time>2024-03-31T14:50:16.000Z</time>
      </trkpt>
      <trkpt lat="51.645895" lon="6.207652">
        <ele>19.236704</ele>
        <time>2024-03-31T14:50:18.000Z</time>
      </trkpt>
      <trkpt lat="51.645898" lon="6.207848">
        <ele>19.247112</ele>
        <time>2024-03-31T14:50:20.000Z</time>
      </trkpt>
      <trkpt lat="51.645906" lon="6.208034">
        <ele>19.257010</ele>
        <time>2024-03-31T14:50:22.000Z</time>
      </trkpt>
      <trkpt lat="51.645914" lon="6.208217">
        <ele>19.266749</ele>
        <time>2024-03-31T14:50:24.000Z</time>
      </trkpt>
      <trkpt lat="51.645932" lon="6.208411">
        <ele>19.277163</ele>
        <time>2024-03-31T14:50:26.000Z</time>
      </trkpt>
      <trkpt lat="51.645943" lon="6.208603">
        <ele>19.287399</ele>
        <time>2024-03-31T14:50:28.000Z</time>
      </trkpt>
      <trkpt lat="51.645960" lon="6.208802">
        <ele>19.298063</ele>
        <time>2024-03-31T14:50:30.000Z</time>
      </trkpt>
      <trkpt lat="51.645989" lon="6.209010">
        <ele>19.309381</ele>
        <time>2024-03-31T14:50:32.000Z</time>
      </trkpt>
      <trkpt lat="51.646016" lon="6.209204">
        <ele>19.319936</ele>
        <time>2024-03-31T14:50:34.000Z</time>
      </trkpt>
      <trkpt lat="51.646060" lon="6.209386">
        <ele>19.330305</ele>
        <time>2024-03-31T14:50:35.999Z</time>
      </trkpt>
      <trkpt lat="51.646133" lon="6.209539">
        <ele>19.340551</ele>
        <time>2024-03-31T14:50:37.999Z</time>
      </trkpt>
      <trkpt lat="51.646192" lon="6.209691">
        <ele>19.341254</ele>
        <time>2024-03-31T14:50:39.999Z</time>
      </trkpt>
      <trkpt lat="51.646253" lon="6.209847">
        <ele>19.327926</ele>
        <time>2024-03-31T14:50:41.999Z</time>
      </trkpt>
      <trkpt lat="51.646325" lon="6.209994">
        <ele>19.314391</ele>
        <time>2024-03-31T14:50:43.999Z</time>
      </trkpt>
      <trkpt lat="51.646392" lon="6.210144">
        <ele>19.301033</ele>
        <time>2024-03-31T14:50:45.999Z</time>
      </trkpt>
      <trkpt lat="51.646440" lon="6.210284">
        <ele>19.289472</ele>
        <time>2024-03-31T14:50:47.999Z</time>
      </trkpt>
      <trkpt lat="51.646483" lon="6.210436">
        <ele>19.277398</ele>
        <time>2024-03-31T14:50:49.999Z</time>
      </trkpt>
      <trkpt lat="51.646515" lon="6.210645">
        <ele>19.261839</ele>
        <time>2024-03-31T14:50:52.999Z</time>
      </trkpt>
      <trkpt lat="51.646514" lon="6.210801">
        <ele>19.250564</ele>
        <time>2024-03-31T14:50:54.999Z</time>
      </trkpt>
      <trkpt lat="51.646500" lon="6.210966">
        <ele>19.238527</ele>
        <time>2024-03-31T14:50:56.999Z</time>
      </trkpt>
      <trkpt lat="51.646472" lon="6.211131">
        <ele>19.226164</ele>
        <time>2024-03-31T14:50:58.999Z</time>
      </trkpt>
      <trkpt lat="51.646448" lon="6.211300">
        <ele>19.213633</ele>
        <time>2024-03-31T14:51:00.999Z</time>
      </trkpt>
      <trkpt lat="51.646452" lon="6.211476">
        <ele>19.200904</ele>
        <time>2024-03-31T14:51:02.999Z</time>
      </trkpt>
      <trkpt lat="51.646487" lon="6.211647">
        <ele>19.187890</ele>
        <time>2024-03-31T14:51:04.999Z</time>
      </trkpt>
      <trkpt lat="51.646561" lon="6.211786">
        <ele>19.174652</ele>
        <time>2024-03-31T14:51:06.999Z</time>
      </trkpt>
      <trkpt lat="51.646642" lon="6.211915">
        <ele>19.161388</ele>
        <time>2024-03-31T14:51:08.999Z</time>
      </trkpt>
      <trkpt lat="51.646721" lon="6.212042">
        <ele>19.148391</ele>
        <time>2024-03-31T14:51:10.999Z</time>
      </trkpt>
      <trkpt lat="51.646739" lon="6.212207">
        <ele>19.135090</ele>
        <time>2024-03-31T14:51:12.999Z</time>
      </trkpt>
      <trkpt lat="51.646701" lon="6.212386">
        <ele>19.091786</ele>
        <time>2024-03-31T14:51:14.999Z</time>
      </trkpt>
      <trkpt lat="51.646657" lon="6.212528">
        <ele>19.055455</ele>
        <time>2024-03-31T14:51:16.999Z</time>
      </trkpt>
      <trkpt lat="51.646581" lon="6.212681">
        <ele>19.010595</ele>
        <time>2024-03-31T14:51:19.998Z</time>
      </trkpt>
      <trkpt lat="51.646665" lon="6.212518">
        <ele>18.962095</ele>
        <time>2024-03-31T14:51:30.998Z</time>
      </trkpt>
      <trkpt lat="51.646721" lon="6.212336">
        <ele>18.915595</ele>
        <time>2024-03-31T14:51:33.998Z</time>
      </trkpt>
      <trkpt lat="51.646732" lon="6.212140">
        <ele>18.870548</ele>
        <time>2024-03-31T14:51:36.998Z</time>
      </trkpt>
      <trkpt lat="51.646679" lon="6.211971">
        <ele>18.827204</ele>
        <time>2024-03-31T14:51:40.998Z</time>
      </trkpt>
      <trkpt lat="51.646593" lon="6.211837">
        <ele>18.783077</ele>
        <time>2024-03-31T14:51:43.998Z</time>
      </trkpt>
      <trkpt lat="51.646509" lon="6.211690">
        <ele>18.737335</ele>
        <time>2024-03-31T14:51:46.998Z</time>
      </trkpt>
      <trkpt lat="51.646400" lon="6.211645">
        <ele>18.695828</ele>
        <time>2024-03-31T14:51:49.998Z</time>
      </trkpt>
      <trkpt lat="51.646269" lon="6.211679">
        <ele>18.646881</ele>
        <time>2024-03-31T14:51:52.998Z</time>
      </trkpt>
      <trkpt lat="51.646182" lon="6.211595">
        <ele>18.609469</ele>
        <time>2024-03-31T14:51:54.998Z</time>
      </trkpt>
      <trkpt lat="51.646091" lon="6.211501">
        <ele>18.569597</ele>
        <time>2024-03-31T14:51:56.998Z</time>
      </trkpt>
      <trkpt lat="51.645994" lon="6.211399">
        <ele>18.526871</ele>
        <time>2024-03-31T14:51:58.998Z</time>
      </trkpt>
      <trkpt lat="51.645897" lon="6.211312">
        <ele>18.485921</ele>
        <time>2024-03-31T14:52:00.998Z</time>
      </trkpt>
      <trkpt lat="51.645798" lon="6.211252">
        <ele>18.401306</ele>
        <time>2024-03-31T14:52:02.998Z</time>
      </trkpt>
      <trkpt lat="51.645693" lon="6.211228">
        <ele>18.294703</ele>
        <time>2024-03-31T14:52:04.998Z</time>
      </trkpt>
      <trkpt lat="51.645573" lon="6.211200">
        <ele>18.172821</ele>
        <time>2024-03-31T14:52:07.997Z</time>
      </trkpt>
      <trkpt lat="51.645549" lon="6.210992">
        <ele>18.040856</ele>
        <time>2024-03-31T14:52:10.997Z</time>
      </trkpt>
      <trkpt lat="51.645609" lon="6.210827">
        <ele>17.921567</ele>
        <time>2024-03-31T14:52:12.997Z</time>
      </trkpt>
      <trkpt lat="51.645652" lon="6.210654">
        <ele>17.805323</ele>
        <time>2024-03-31T14:52:15.000Z</time>
      </trkpt>
      <trkpt lat="51.645682" lon="6.210474">
        <ele>17.689068</ele>
        <time>2024-03-31T14:52:17.000Z</time>
      </trkpt>
      <trkpt lat="51.645710" lon="6.210293">
        <ele>17.572714</ele>
        <time>2024-03-31T14:52:19.000Z</time>
      </trkpt>
      <trkpt lat="51.645731" lon="6.210110">
        <ele>17.456632</ele>
        <time>2024-03-31T14:52:21.000Z</time>
      </trkpt>
      <trkpt lat="51.645695" lon="6.209946">
        <ele>17.348125</ele>
        <time>2024-03-31T14:52:23.000Z</time>
      </trkpt>
      <trkpt lat="51.645597" lon="6.209841">
        <ele>17.229830</ele>
        <time>2024-03-31T14:52:25.000Z</time>
      </trkpt>
      <trkpt lat="51.645502" lon="6.209722">
        <ele>17.108880</ele>
        <time>2024-03-31T14:52:27.000Z</time>
      </trkpt>
      <trkpt lat="51.645415" lon="6.209602">
        <ele>16.993769</ele>
        <time>2024-03-31T14:52:29.000Z</time>
      </trkpt>
      <trkpt lat="51.645333" lon="6.209498">
        <ele>16.888877</ele>
        <time>2024-03-31T14:52:31.000Z</time>
      </trkpt>
      <trkpt lat="51.645254" lon="6.209396">
        <ele>16.787122</ele>
        <time>2024-03-31T14:52:33.000Z</time>
      </trkpt>
      <trkpt lat="51.645177" lon="6.209296">
        <ele>16.687716</ele>
        <time>2024-03-31T14:52:35.000Z</time>
      </trkpt>
      <trkpt lat="51.645103" lon="6.209200">
        <ele>16.655140</ele>
        <time>2024-03-31T14:52:37.000Z</time>
      </trkpt>
      <trkpt lat="51.645006" lon="6.209197">
        <ele>16.641539</ele>
        <time>2024-03-31T14:52:39.000Z</time>
      </trkpt>
      <trkpt lat="51.644953" lon="6.209372">
        <ele>16.624601</ele>
        <time>2024-03-31T14:52:42.000Z</time>
      </trkpt>
      <trkpt lat="51.644948" lon="6.209524">
        <ele>16.611360</ele>
        <time>2024-03-31T14:52:43.999Z</time>
      </trkpt>
      <trkpt lat="51.644886" lon="6.209705">
        <ele>16.593376</ele>
        <time>2024-03-31T14:52:46.999Z</time>
      </trkpt>
      <trkpt lat="51.644831" lon="6.209840">
        <ele>16.579328</ele>
        <time>2024-03-31T14:52:48.999Z</time>
      </trkpt>
      <trkpt lat="51.644750" lon="6.209943">
        <ele>16.564864</ele>
        <time>2024-03-31T14:52:50.999Z</time>
      </trkpt>
      <trkpt lat="51.644670" lon="6.210070">
        <ele>16.549122</ele>
        <time>2024-03-31T14:52:52.999Z</time>
      </trkpt>
      <trkpt lat="51.644578" lon="6.210156">
        <ele>16.534213</ele>
        <time>2024-03-31T14:52:54.999Z</time>
      </trkpt>
      <trkpt lat="51.644493" lon="6.210240">
        <ele>16.520235</ele>
        <time>2024-03-31T14:52:56.999Z</time>
      </trkpt>
      <trkpt lat="51.644399" lon="6.210335">
        <ele>16.504681</ele>
        <time>2024-03-31T14:52:58.999Z</time>
      </trkpt>
      <trkpt lat="51.644305" lon="6.210412">
        <ele>16.489900</ele>
        <time>2024-03-31T14:53:00.999Z</time>
      </trkpt>
      <trkpt lat="51.644218" lon="6.210501">
        <ele>16.475454</ele>
        <time>2024-03-31T14:53:02.999Z</time>
      </trkpt>
      <trkpt lat="51.644129" lon="6.210588">
        <ele>16.460862</ele>
        <time>2024-03-31T14:53:04.999Z</time>
      </trkpt>
      <trkpt lat="51.644042" lon="6.210672">
        <ele>16.446645</ele>
        <time>2024-03-31T14:53:06.999Z</time>
      </trkpt>
      <trkpt lat="51.643947" lon="6.210761">
        <ele>16.431241</ele>
        <time>2024-03-31T14:53:08.999Z</time>
      </trkpt>
      <trkpt lat="51.643848" lon="6.210819">
        <ele>16.416474</ele>
        <time>2024-03-31T14:53:10.999Z</time>
      </trkpt>
      <trkpt lat="51.643732" lon="6.210870">
        <ele>16.382925</ele>
        <time>2024-03-31T14:53:12.999Z</time>
      </trkpt>
      <trkpt lat="51.643640" lon="6.210940">
        <ele>16.351133</ele>
        <time>2024-03-31T14:53:14.999Z</time>
      </trkpt>
      <trkpt lat="51.643536" lon="6.210994">
        <ele>16.316990</ele>
        <time>2024-03-31T14:53:16.999Z</time>
      </trkpt>
      <trkpt lat="51.643444" lon="6.211029">
        <ele>16.287451</ele>
        <time>2024-03-31T14:53:18.999Z</time>
      </trkpt>
      <trkpt lat="51.643341" lon="6.211056">
        <ele>16.254842</ele>
        <time>2024-03-31T14:53:20.999Z</time>
      </trkpt>
      <trkpt lat="51.643233" lon="6.211116">
        <ele>16.219144</ele>
        <time>2024-03-31T14:53:22.999Z</time>
      </trkpt>
      <trkpt lat="51.643138" lon="6.211135">
        <ele>16.189230</ele>
        <time>2024-03-31T14:53:24.999Z</time>
      </trkpt>
      <trkpt lat="51.643035" lon="6.211155">
        <ele>16.156811</ele>
        <time>2024-03-31T14:53:26.999Z</time>
      </trkpt>
      <trkpt lat="51.642937" lon="6.211174">
        <ele>16.125967</ele>
        <time>2024-03-31T14:53:28.998Z</time>
      </trkpt>
      <trkpt lat="51.642831" lon="6.211224">
        <ele>16.091453</ele>
        <time>2024-03-31T14:53:30.998Z</time>
      </trkpt>
      <trkpt lat="51.642733" lon="6.211278">
        <ele>16.059089</ele>
        <time>2024-03-31T14:53:32.998Z</time>
      </trkpt>
      <trkpt lat="51.642624" lon="6.211268">
        <ele>16.024973</ele>
        <time>2024-03-31T14:53:34.998Z</time>
      </trkpt>
      <trkpt lat="51.642512" lon="6.211245">
        <ele>15.989692</ele>
        <time>2024-03-31T14:53:36.998Z</time>
      </trkpt>
      <trkpt lat="51.642401" lon="6.211209">
        <ele>15.954310</ele>
        <time>2024-03-31T14:53:38.998Z</time>
      </trkpt>
      <trkpt lat="51.642283" lon="6.211169">
        <ele>15.916630</ele>
        <time>2024-03-31T14:53:40.998Z</time>
      </trkpt>
      <trkpt lat="51.642166" lon="6.211135">
        <ele>15.879479</ele>
        <time>2024-03-31T14:53:42.998Z</time>
      </trkpt>
      <trkpt lat="51.642055" lon="6.211092">
        <ele>15.858666</ele>
        <time>2024-03-31T14:53:44.998Z</time>
      </trkpt>
      <trkpt lat="51.641948" lon="6.211042">
        <ele>15.894285</ele>
        <time>2024-03-31T14:53:46.998Z</time>
      </trkpt>
      <trkpt lat="51.641847" lon="6.210999">
        <ele>15.927686</ele>
        <time>2024-03-31T14:53:48.998Z</time>
      </trkpt>
      <trkpt lat="51.641748" lon="6.210942">
        <ele>15.961298</ele>
        <time>2024-03-31T14:53:50.998Z</time>
      </trkpt>
      <trkpt lat="51.641649" lon="6.210881">
        <ele>15.995186</ele>
        <time>2024-03-31T14:53:52.998Z</time>
      </trkpt>
      <trkpt lat="51.641549" lon="6.210810">
        <ele>16.030124</ele>
        <time>2024-03-31T14:53:54.998Z</time>
      </trkpt>
      <trkpt lat="51.641447" lon="6.210730">
        <ele>16.066394</ele>
        <time>2024-03-31T14:53:56.998Z</time>
      </trkpt>
      <trkpt lat="51.641344" lon="6.210643">
        <ele>16.103576</ele>
        <time>2024-03-31T14:53:58.998Z</time>
      </trkpt>
      <trkpt lat="51.641242" lon="6.210548">
        <ele>16.141243</ele>
        <time>2024-03-31T14:54:00.998Z</time>
      </trkpt>
      <trkpt lat="51.641147" lon="6.210447">
        <ele>16.177632</ele>
        <time>2024-03-31T14:54:02.998Z</time>
      </trkpt>
      <trkpt lat="51.641060" lon="6.210353">
        <ele>16.211123</ele>
        <time>2024-03-31T14:54:04.998Z</time>
      </trkpt>
      <trkpt lat="51.640952" lon="6.210211">
        <ele>16.255689</ele>
        <time>2024-03-31T14:54:07.998Z</time>
      </trkpt>
      <trkpt lat="51.640850" lon="6.210084">
        <ele>16.296902</ele>
        <time>2024-03-31T14:54:10.998Z</time>
      </trkpt>
      <trkpt lat="51.640755" lon="6.209941">
        <ele>16.338467</ele>
        <time>2024-03-31T14:54:13.997Z</time>
      </trkpt>
      <trkpt lat="51.640674" lon="6.209807">
        <ele>16.375583</ele>
        <time>2024-03-31T14:54:16.997Z</time>
      </trkpt>
      <trkpt lat="51.640588" lon="6.209683">
        <ele>16.412480</ele>
        <time>2024-03-31T14:54:19.997Z</time>
      </trkpt>
      <trkpt lat="51.640492" lon="6.209663">
        <ele>16.379089</ele>
        <time>2024-03-31T14:54:23.000Z</time>
      </trkpt>
      <trkpt lat="51.640385" lon="6.209597">
        <ele>16.278763</ele>
        <time>2024-03-31T14:54:26.000Z</time>
      </trkpt>
      <trkpt lat="51.640290" lon="6.209497">
        <ele>16.179398</ele>
        <time>2024-03-31T14:54:29.000Z</time>
      </trkpt>
      <trkpt lat="51.640275" lon="6.209311">
        <ele>16.077470</ele>
        <time>2024-03-31T14:54:33.000Z</time>
      </trkpt>
      <trkpt lat="51.640259" lon="6.209153">
        <ele>15.990472</ele>
        <time>2024-03-31T14:54:35.000Z</time>
      </trkpt>
      <trkpt lat="51.640235" lon="6.208961">
        <ele>15.884037</ele>
        <time>2024-03-31T14:54:37.000Z</time>
      </trkpt>
      <trkpt lat="51.640174" lon="6.208814">
        <ele>15.787940</ele>
        <time>2024-03-31T14:54:39.000Z</time>
      </trkpt>
      <trkpt lat="51.640115" lon="6.208675">
        <ele>15.696424</ele>
        <time>2024-03-31T14:54:41.000Z</time>
      </trkpt>
      <trkpt lat="51.640062" lon="6.208542">
        <ele>15.610530</ele>
        <time>2024-03-31T14:54:43.000Z</time>
      </trkpt>
      <trkpt lat="51.640010" lon="6.208396">
        <ele>15.519051</ele>
        <time>2024-03-31T14:54:44.999Z</time>
      </trkpt>
      <trkpt lat="51.639951" lon="6.208247">
        <ele>15.423001</ele>
        <time>2024-03-31T14:54:46.999Z</time>
      </trkpt>
      <trkpt lat="51.639900" lon="6.208116">
        <ele>15.338962</ele>
        <time>2024-03-31T14:54:48.999Z</time>
      </trkpt>
      <trkpt lat="51.639846" lon="6.207979">
        <ele>15.250765</ele>
        <time>2024-03-31T14:54:50.999Z</time>
      </trkpt>
      <trkpt lat="51.639790" lon="6.207837">
        <ele>15.159334</ele>
        <time>2024-03-31T14:54:52.999Z</time>
      </trkpt>
      <trkpt lat="51.639735" lon="6.207688">
        <ele>15.065121</ele>
        <time>2024-03-31T14:54:54.999Z</time>
      </trkpt>
      <trkpt lat="51.639679" lon="6.207538">
        <ele>14.969993</ele>
        <time>2024-03-31T14:54:56.999Z</time>
      </trkpt>
      <trkpt lat="51.639622" lon="6.207385">
        <ele>14.873016</ele>
        <time>2024-03-31T14:54:58.999Z</time>
      </trkpt>
      <trkpt lat="51.639563" lon="6.207232">
        <ele>14.854669</ele>
        <time>2024-03-31T14:55:00.999Z</time>
      </trkpt>
      <trkpt lat="51.639503" lon="6.207078">
        <ele>14.859148</ele>
        <time>2024-03-31T14:55:02.999Z</time>
      </trkpt>
      <trkpt lat="51.639439" lon="6.206923">
        <ele>14.863734</ele>
        <time>2024-03-31T14:55:04.999Z</time>
      </trkpt>
      <trkpt lat="51.639377" lon="6.206761">
        <ele>14.868423</ele>
        <time>2024-03-31T14:55:06.999Z</time>
      </trkpt>
      <trkpt lat="51.639313" lon="6.206596">
        <ele>14.873216</ele>
        <time>2024-03-31T14:55:08.999Z</time>
      </trkpt>
      <trkpt lat="51.639251" lon="6.206417">
        <ele>14.878266</ele>
        <time>2024-03-31T14:55:10.999Z</time>
      </trkpt>
      <trkpt lat="51.639189" lon="6.206249">
        <ele>14.883081</ele>
        <time>2024-03-31T14:55:12.999Z</time>
      </trkpt>
      <trkpt lat="51.639126" lon="6.206089">
        <ele>14.887749</ele>
        <time>2024-03-31T14:55:14.999Z</time>
      </trkpt>
      <trkpt lat="51.639067" lon="6.205933">
        <ele>14.892249</ele>
        <time>2024-03-31T14:55:16.999Z</time>
      </trkpt>
      <trkpt lat="51.639004" lon="6.205777">
        <ele>14.896834</ele>
        <time>2024-03-31T14:55:18.999Z</time>
      </trkpt>
      <trkpt lat="51.638943" lon="6.205613">
        <ele>14.901544</ele>
        <time>2024-03-31T14:55:20.999Z</time>
      </trkpt>
      <trkpt lat="51.638887" lon="6.205450">
        <ele>14.906133</ele>
        <time>2024-03-31T14:55:22.999Z</time>
      </trkpt>
      <trkpt lat="51.638824" lon="6.205286">
        <ele>14.910885</ele>
        <time>2024-03-31T14:55:24.999Z</time>
      </trkpt>
      <trkpt lat="51.638762" lon="6.205116">
        <ele>14.915742</ele>
        <time>2024-03-31T14:55:26.999Z</time>
      </trkpt>
      <trkpt lat="51.638696" lon="6.204951">
        <ele>14.920578</ele>
        <time>2024-03-31T14:55:28.999Z</time>
      </trkpt>
      <trkpt lat="51.638632" lon="6.204776">
        <ele>15.006399</ele>
        <time>2024-03-31T14:55:30.998Z</time>
      </trkpt>
      <trkpt lat="51.638567" lon="6.204602">
        <ele>15.147629</ele>
        <time>2024-03-31T14:55:32.998Z</time>
      </trkpt>
      <trkpt lat="51.638499" lon="6.204423">
        <ele>15.293576</ele>
        <time>2024-03-31T14:55:34.998Z</time>
      </trkpt>
      <trkpt lat="51.638436" lon="6.204249">
        <ele>15.433664</ele>
        <time>2024-03-31T14:55:36.998Z</time>
      </trkpt>
      <trkpt lat="51.638366" lon="6.204082">
        <ele>15.573804</ele>
        <time>2024-03-31T14:55:38.998Z</time>
      </trkpt>
      <trkpt lat="51.638312" lon="6.203902">
        <ele>15.712836</ele>
        <time>2024-03-31T14:55:40.998Z</time>
      </trkpt>
      <trkpt lat="51.638245" lon="6.203757">
        <ele>15.838549</ele>
        <time>2024-03-31T14:55:42.998Z</time>
      </trkpt>
      <trkpt lat="51.638179" lon="6.203634">
        <ele>15.951623</ele>
        <time>2024-03-31T14:55:44.998Z</time>
      </trkpt>
      <trkpt lat="51.638105" lon="6.203503">
        <ele>16.074807</ele>
        <time>2024-03-31T14:55:46.998Z</time>
      </trkpt>
      <trkpt lat="51.638033" lon="6.203373">
        <ele>16.195975</ele>
        <time>2024-03-31T14:55:48.998Z</time>
      </trkpt>
      <trkpt lat="51.637961" lon="6.203258">
        <ele>16.309573</ele>
        <time>2024-03-31T14:55:50.998Z</time>
      </trkpt>
      <trkpt lat="51.637867" lon="6.203231">
        <ele>16.416561</ele>
        <time>2024-03-31T14:55:52.998Z</time>
      </trkpt>
      <trkpt lat="51.637787" lon="6.203337">
        <ele>16.532619</ele>
        <time>2024-03-31T14:55:54.998Z</time>
      </trkpt>
      <trkpt lat="51.637706" lon="6.203443">
        <ele>16.649544</ele>
        <time>2024-03-31T14:55:56.998Z</time>
      </trkpt>
      <trkpt lat="51.637620" lon="6.203545">
        <ele>16.769200</ele>
        <time>2024-03-31T14:55:58.998Z</time>
      </trkpt>
      <trkpt lat="51.637532" lon="6.203651">
        <ele>16.892313</ele>
        <time>2024-03-31T14:56:00.998Z</time>
      </trkpt>
      <trkpt lat="51.637441" lon="6.203749">
        <ele>17.048464</ele>
        <time>2024-03-31T14:56:02.998Z</time>
      </trkpt>
      <trkpt lat="51.637356" lon="6.203860">
        <ele>17.224445</ele>
        <time>2024-03-31T14:56:04.998Z</time>
      </trkpt>
      <trkpt lat="51.637267" lon="6.203958">
        <ele>17.397830</ele>
        <time>2024-03-31T14:56:06.998Z</time>
      </trkpt>
      <trkpt lat="51.637191" lon="6.204067">
        <ele>17.561482</ele>
        <time>2024-03-31T14:56:08.998Z</time>
      </trkpt>
      <trkpt lat="51.637056" lon="6.204087">
        <ele>17.779536</ele>
        <time>2024-03-31T14:56:11.998Z</time>
      </trkpt>
      <trkpt lat="51.636982" lon="6.203975">
        <ele>17.942836</ele>
        <time>2024-03-31T14:56:13.998Z</time>
      </trkpt>
      <trkpt lat="51.636894" lon="6.203889">
        <ele>18.108378</ele>
        <time>2024-03-31T14:56:15.997Z</time>
      </trkpt>
      <trkpt lat="51.636808" lon="6.203803">
        <ele>18.271179</ele>
        <time>2024-03-31T14:56:17.997Z</time>
      </trkpt>
      <trkpt lat="51.636717" lon="6.203707">
        <ele>18.446128</ele>
        <time>2024-03-31T14:56:19.997Z</time>
      </trkpt>
      <trkpt lat="51.636627" lon="6.203633">
        <ele>18.608645</ele>
        <time>2024-03-31T14:56:21.997Z</time>
      </trkpt>
      <trkpt lat="51.636537" lon="6.203538">
        <ele>18.781702</ele>
        <time>2024-03-31T14:56:23.997Z</time>
      </trkpt>
      <trkpt lat="51.636441" lon="6.203430">
        <ele>18.970026</ele>
        <time>2024-03-31T14:56:25.997Z</time>
      </trkpt>
      <trkpt lat="51.636365" lon="6.203311">
        <ele>19.140480</ele>
        <time>2024-03-31T14:56:28.000Z</time>
      </trkpt>
      <trkpt lat="51.636276" lon="6.203198">
        <ele>19.322735</ele>
        <time>2024-03-31T14:56:30.000Z</time>
      </trkpt>
      <trkpt lat="51.636194" lon="6.203103">
        <ele>19.485182</ele>
        <time>2024-03-31T14:56:32.000Z</time>
      </trkpt>
      <trkpt lat="51.636119" lon="6.202996">
        <ele>19.646308</ele>
        <time>2024-03-31T14:56:34.000Z</time>
      </trkpt>
      <trkpt lat="51.636038" lon="6.202900">
        <ele>19.808042</ele>
        <time>2024-03-31T14:56:36.000Z</time>
      </trkpt>
      <trkpt lat="51.635964" lon="6.202811">
        <ele>19.835881</ele>
        <time>2024-03-31T14:56:38.000Z</time>
      </trkpt>
      <trkpt lat="51.635884" lon="6.202725">
        <ele>19.841900</ele>
        <time>2024-03-31T14:56:40.000Z</time>
      </trkpt>
      <trkpt lat="51.635782" lon="6.202617">
        <ele>19.849540</ele>
        <time>2024-03-31T14:56:43.000Z</time>
      </trkpt>
      <trkpt lat="51.635689" lon="6.202523">
        <ele>19.856411</ele>
        <time>2024-03-31T14:56:45.000Z</time>
      </trkpt>
      <trkpt lat="51.635582" lon="6.202470">
        <ele>19.863417</ele>
        <time>2024-03-31T14:56:47.000Z</time>
      </trkpt>
      <trkpt lat="51.635480" lon="6.202417">
        <ele>19.870125</ele>
        <time>2024-03-31T14:56:49.000Z</time>
      </trkpt>
      <trkpt lat="51.635381" lon="6.202366">
        <ele>19.876631</ele>
        <time>2024-03-31T14:56:51.000Z</time>
      </trkpt>
      <trkpt lat="51.635287" lon="6.202318">
        <ele>19.882802</ele>
        <time>2024-03-31T14:56:52.999Z</time>
      </trkpt>
      <trkpt lat="51.635186" lon="6.202233">
        <ele>19.889934</ele>
        <time>2024-03-31T14:56:54.999Z</time>
      </trkpt>
      <trkpt lat="51.635086" lon="6.202136">
        <ele>19.897240</ele>
        <time>2024-03-31T14:56:56.999Z</time>
      </trkpt>
      <trkpt lat="51.634987" lon="6.202044">
        <ele>19.904393</ele>
        <time>2024-03-31T14:56:58.999Z</time>
      </trkpt>
      <trkpt lat="51.634887" lon="6.201973">
        <ele>19.911233</ele>
        <time>2024-03-31T14:57:00.999Z</time>
      </trkpt>
      <trkpt lat="51.634791" lon="6.201892">
        <ele>19.918015</ele>
        <time>2024-03-31T14:57:02.999Z</time>
      </trkpt>
      <trkpt lat="51.634729" lon="6.201754">
        <ele>19.924634</ele>
        <time>2024-03-31T14:57:04.999Z</time>
      </trkpt>
      <trkpt lat="51.634659" lon="6.201652">
        <ele>19.930541</ele>
        <time>2024-03-31T14:57:06.999Z</time>
      </trkpt>
      <trkpt lat="51.634568" lon="6.201564">
        <ele>19.937184</ele>
        <time>2024-03-31T14:57:08.999Z</time>
      </trkpt>
      <trkpt lat="51.634451" lon="6.201496">
        <ele>19.948278</ele>
        <time>2024-03-31T14:57:10.999Z</time>
      </trkpt>
      <trkpt lat="51.634346" lon="6.201429">
        <ele>19.972076</ele>
        <time>2024-03-31T14:57:12.999Z</time>
      </trkpt>
      <trkpt lat="51.634239" lon="6.201368">
        <ele>19.995993</ele>
        <time>2024-03-31T14:57:14.999Z</time>
      </trkpt>
      <trkpt lat="51.634132" lon="6.201296">
        <ele>20.020428</ele>
        <time>2024-03-31T14:57:16.999Z</time>
      </trkpt>
      <trkpt lat="51.634025" lon="6.201205">
        <ele>20.045924</ele>
        <time>2024-03-31T14:57:18.999Z</time>
      </trkpt>
      <trkpt lat="51.633922" lon="6.201138">
        <ele>20.069331</ele>
        <time>2024-03-31T14:57:20.999Z</time>
      </trkpt>
      <trkpt lat="51.633812" lon="6.201097">
        <ele>20.093123</ele>
        <time>2024-03-31T14:57:22.999Z</time>
      </trkpt>
      <trkpt lat="51.633714" lon="6.201052">
        <ele>20.114596</ele>
        <time>2024-03-31T14:57:24.999Z</time>
      </trkpt>
      <trkpt lat="51.633614" lon="6.200966">
        <ele>20.138483</ele>
        <time>2024-03-31T14:57:26.999Z</time>
      </trkpt>
      <trkpt lat="51.633495" lon="6.200904">
        <ele>20.164837</ele>
        <time>2024-03-31T14:57:28.999Z</time>
      </trkpt>
      <trkpt lat="51.633407" lon="6.200868">
        <ele>20.183969</ele>
        <time>2024-03-31T14:57:30.999Z</time>
      </trkpt>
      <trkpt lat="51.633316" lon="6.200803">
        <ele>20.204945</ele>
        <time>2024-03-31T14:57:32.999Z</time>
      </trkpt>
      <trkpt lat="51.633218" lon="6.200750">
        <ele>20.226729</ele>
        <time>2024-03-31T14:57:34.999Z</time>
      </trkpt>
      <trkpt lat="51.633123" lon="6.200704">
        <ele>20.247632</ele>
        <time>2024-03-31T14:57:36.999Z</time>
      </trkpt>
      <trkpt lat="51.633024" lon="6.200654">
        <ele>20.269495</ele>
        <time>2024-03-31T14:57:38.998Z</time>
      </trkpt>
      <trkpt lat="51.632923" lon="6.200621">
        <ele>20.291211</ele>
        <time>2024-03-31T14:57:40.998Z</time>
      </trkpt>
      <trkpt lat="51.632801" lon="6.200564">
        <ele>20.317979</ele>
        <time>2024-03-31T14:57:43.998Z</time>
      </trkpt>
      <trkpt lat="51.632711" lon="6.200542">
        <ele>20.338138</ele>
        <time>2024-03-31T14:57:45.998Z</time>
      </trkpt>
      <trkpt lat="51.632580" lon="6.200526">
        <ele>20.367679</ele>
        <time>2024-03-31T14:57:48.998Z</time>
      </trkpt>
      <trkpt lat="51.632471" lon="6.200505">
        <ele>20.392363</ele>
        <time>2024-03-31T14:57:51.998Z</time>
      </trkpt>
      <trkpt lat="51.632401" lon="6.200374">
        <ele>20.416488</ele>
        <time>2024-03-31T14:57:56.998Z</time>
      </trkpt>
      <trkpt lat="51.632402" lon="6.200218">
        <ele>20.438262</ele>
        <time>2024-03-31T14:57:58.998Z</time>
      </trkpt>
      <trkpt lat="51.632325" lon="6.200137">
        <ele>20.458940</ele>
        <time>2024-03-31T14:58:00.998Z</time>
      </trkpt>
      <trkpt lat="51.632233" lon="6.200102">
        <ele>20.480196</ele>
        <time>2024-03-31T14:58:02.998Z</time>
      </trkpt>
      <trkpt lat="51.632148" lon="6.200044">
        <ele>20.500952</ele>
        <time>2024-03-31T14:58:04.998Z</time>
      </trkpt>
      <trkpt lat="51.632059" lon="6.199984">
        <ele>20.522646</ele>
        <time>2024-03-31T14:58:06.998Z</time>
      </trkpt>
      <trkpt lat="51.631927" lon="6.199986">
        <ele>20.552328</ele>
        <time>2024-03-31T14:58:09.998Z</time>
      </trkpt>
      <trkpt lat="51.631838" lon="6.200021">
        <ele>20.572928</ele>
        <time>2024-03-31T14:58:11.998Z</time>
      </trkpt>
      <trkpt lat="51.631703" lon="6.200102">
        <ele>20.605320</ele>
        <time>2024-03-31T14:58:14.998Z</time>
      </trkpt>
      <trkpt lat="51.631603" lon="6.200171">
        <ele>20.629781</ele>
        <time>2024-03-31T14:58:16.998Z</time>
      </trkpt>
      <trkpt lat="51.631491" lon="6.200207">
        <ele>20.655461</ele>
        <time>2024-03-31T14:58:18.998Z</time>
      </trkpt>
      <trkpt lat="51.631368" lon="6.200190">
        <ele>20.683220</ele>
        <time>2024-03-31T14:58:20.998Z</time>
      </trkpt>
      <trkpt lat="51.631241" lon="6.200140">
        <ele>20.712617</ele>
        <time>2024-03-31T14:58:22.997Z</time>
      </trkpt>
      <trkpt lat="51.631135" lon="6.200152">
        <ele>20.696111</ele>
        <time>2024-03-31T14:58:24.997Z</time>
      </trkpt>
      <trkpt lat="51.631038" lon="6.200160">
        <ele>20.624966</ele>
        <time>2024-03-31T14:58:26.997Z</time>
      </trkpt>
      <trkpt lat="51.630942" lon="6.200150">
        <ele>20.554500</ele>
        <time>2024-03-31T14:58:28.997Z</time>
      </trkpt>
      <trkpt lat="51.630807" lon="6.200142">
        <ele>20.455547</ele>
        <time>2024-03-31T14:58:31.997Z</time>
      </trkpt>
      <trkpt lat="51.630700" lon="6.200144">
        <ele>20.377165</ele>
        <time>2024-03-31T14:58:35.000Z</time>
      </trkpt>
      <trkpt lat="51.630607" lon="6.200139">
        <ele>20.309005</ele>
        <time>2024-03-31T14:58:38.000Z</time>
      </trkpt>
      <trkpt lat="51.630503" lon="6.200077">
        <ele>20.227777</ele>
        <time>2024-03-31T14:58:42.000Z</time>
      </trkpt>
      <trkpt lat="51.630427" lon="6.199994">
        <ele>20.160522</ele>
        <time>2024-03-31T14:58:46.000Z</time>
      </trkpt>
      <trkpt lat="51.630339" lon="6.199945">
        <ele>20.092321</ele>
        <time>2024-03-31T14:58:50.000Z</time>
      </trkpt>
      <trkpt lat="51.630246" lon="6.199992">
        <ele>20.020925</ele>
        <time>2024-03-31T14:58:53.000Z</time>
      </trkpt>
      <trkpt lat="51.630167" lon="6.200077">
        <ele>19.951339</ele>
        <time>2024-03-31T14:58:56.000Z</time>
      </trkpt>
      <trkpt lat="51.630068" lon="6.199963">
        <ele>19.862202</ele>
        <time>2024-03-31T14:58:58.999Z</time>
      </trkpt>
      <trkpt lat="51.629990" lon="6.199817">
        <ele>19.774617</ele>
        <time>2024-03-31T14:59:01.999Z</time>
      </trkpt>
      <trkpt lat="51.629907" lon="6.199665">
        <ele>19.682569</ele>
        <time>2024-03-31T14:59:04.999Z</time>
      </trkpt>
      <trkpt lat="51.629837" lon="6.199512">
        <ele>19.596148</ele>
        <time>2024-03-31T14:59:07.999Z</time>
      </trkpt>
      <trkpt lat="51.629784" lon="6.199385">
        <ele>19.526565</ele>
        <time>2024-03-31T14:59:09.999Z</time>
      </trkpt>
      <trkpt lat="51.629724" lon="6.199256">
        <ele>19.453272</ele>
        <time>2024-03-31T14:59:11.999Z</time>
      </trkpt>
      <trkpt lat="51.629658" lon="6.199140">
        <ele>19.394474</ele>
        <time>2024-03-31T14:59:13.999Z</time>
      </trkpt>
      <trkpt lat="51.629574" lon="6.199030">
        <ele>19.351542</ele>
        <time>2024-03-31T14:59:15.999Z</time>
      </trkpt>
      <trkpt lat="51.629492" lon="6.198904">
        <ele>19.306599</ele>
        <time>2024-03-31T14:59:17.999Z</time>
      </trkpt>
      <trkpt lat="51.629414" lon="6.198771">
        <ele>19.261554</ele>
        <time>2024-03-31T14:59:19.999Z</time>
      </trkpt>
      <trkpt lat="51.629343" lon="6.198658">
        <ele>19.221971</ele>
        <time>2024-03-31T14:59:21.999Z</time>
      </trkpt>
      <trkpt lat="51.629268" lon="6.198547">
        <ele>19.181579</ele>
        <time>2024-03-31T14:59:23.999Z</time>
      </trkpt>
      <trkpt lat="51.629203" lon="6.198443">
        <ele>19.145246</ele>
        <time>2024-03-31T14:59:25.999Z</time>
      </trkpt>
      <trkpt lat="51.629094" lon="6.198355">
        <ele>19.096892</ele>
        <time>2024-03-31T14:59:28.999Z</time>
      </trkpt>
      <trkpt lat="51.629011" lon="6.198439">
        <ele>19.058017</ele>
        <time>2024-03-31T14:59:30.999Z</time>
      </trkpt>
      <trkpt lat="51.628951" lon="6.198573">
        <ele>19.017341</ele>
        <time>2024-03-31T14:59:32.999Z</time>
      </trkpt>
      <trkpt lat="51.628886" lon="6.198718">
        <ele>18.973309</ele>
        <time>2024-03-31T14:59:34.999Z</time>
      </trkpt>
      <trkpt lat="51.628811" lon="6.198846">
        <ele>18.929975</ele>
        <time>2024-03-31T14:59:36.999Z</time>
      </trkpt>
      <trkpt lat="51.628780" lon="6.199007">
        <ele>18.888476</ele>
        <time>2024-03-31T14:59:38.999Z</time>
      </trkpt>
      <trkpt lat="51.628759" lon="6.199154">
        <ele>18.851340</ele>
        <time>2024-03-31T14:59:40.999Z</time>
      </trkpt>
      <trkpt lat="51.628734" lon="6.199362">
        <ele>18.799181</ele>
        <time>2024-03-31T14:59:43.998Z</time>
      </trkpt>
      <trkpt lat="51.628718" lon="6.199563">
        <ele>18.749292</ele>
        <time>2024-03-31T14:59:46.998Z</time>
      </trkpt>
      <trkpt lat="51.628689" lon="6.199772">
        <ele>18.696568</ele>
        <time>2024-03-31T14:59:49.998Z</time>
      </trkpt>
      <trkpt lat="51.628620" lon="6.199909">
        <ele>18.691769</ele>
        <time>2024-03-31T14:59:51.998Z</time>
      </trkpt>
      <trkpt lat="51.628534" lon="6.200071">
        <ele>18.686383</ele>
        <time>2024-03-31T14:59:54.998Z</time>
      </trkpt>
      <trkpt lat="51.628410" lon="6.200053">
        <ele>18.681314</ele>
        <time>2024-03-31T14:59:56.998Z</time>
      </trkpt>
      <trkpt lat="51.628293" lon="6.200082">
        <ele>18.676495</ele>
        <time>2024-03-31T14:59:59.998Z</time>
      </trkpt>
      <trkpt lat="51.628201" lon="6.200107">
        <ele>18.672697</ele>
        <time>2024-03-31T15:00:01.998Z</time>
      </trkpt>
      <trkpt lat="51.628109" lon="6.200040">
        <ele>18.668587</ele>
        <time>2024-03-31T15:00:03.998Z</time>
      </trkpt>
      <trkpt lat="51.628022" lon="6.199960">
        <ele>18.664509</ele>
        <time>2024-03-31T15:00:05.998Z</time>
      </trkpt>
      <trkpt lat="51.627941" lon="6.199869">
        <ele>18.660488</ele>
        <time>2024-03-31T15:00:07.998Z</time>
      </trkpt>
      <trkpt lat="51.627867" lon="6.199782">
        <ele>18.656759</ele>
        <time>2024-03-31T15:00:09.998Z</time>
      </trkpt>
      <trkpt lat="51.627827" lon="6.199651">
        <ele>18.653069</ele>
        <time>2024-03-31T15:00:11.998Z</time>
      </trkpt>
      <trkpt lat="51.627761" lon="6.199483">
        <ele>18.648045</ele>
        <time>2024-03-31T15:00:14.998Z</time>
      </trkpt>
      <trkpt lat="51.627655" lon="6.199448">
        <ele>18.643640</ele>
        <time>2024-03-31T15:00:16.998Z</time>
      </trkpt>
      <trkpt lat="51.627582" lon="6.199343">
        <ele>18.639656</ele>
        <time>2024-03-31T15:00:18.998Z</time>
      </trkpt>
      <trkpt lat="51.627477" lon="6.199269">
        <ele>18.634990</ele>
        <time>2024-03-31T15:00:21.998Z</time>
      </trkpt>
      <trkpt lat="51.627321" lon="6.199313">
        <ele>18.628543</ele>
        <time>2024-03-31T15:00:23.998Z</time>
      </trkpt>
      <trkpt lat="51.627297" lon="6.199116">
        <ele>18.623470</ele>
        <time>2024-03-31T15:00:25.997Z</time>
      </trkpt>
      <trkpt lat="51.627226" lon="6.199026">
        <ele>18.642457</ele>
        <time>2024-03-31T15:00:27.997Z</time>
      </trkpt>
      <trkpt lat="51.627149" lon="6.198930">
        <ele>18.666790</ele>
        <time>2024-03-31T15:00:29.997Z</time>
      </trkpt>
      <trkpt lat="51.627072" lon="6.198851">
        <ele>18.689605</ele>
        <time>2024-03-31T15:00:31.997Z</time>
      </trkpt>
      <trkpt lat="51.626955" lon="6.198784">
        <ele>18.720638</ele>
        <time>2024-03-31T15:00:34.997Z</time>
      </trkpt>
      <trkpt lat="51.626840" lon="6.198732">
        <ele>18.750489</ele>
        <time>2024-03-31T15:00:37.997Z</time>
      </trkpt>
      <trkpt lat="51.626738" lon="6.198851">
        <ele>18.781964</ele>
        <time>2024-03-31T15:00:41.000Z</time>
      </trkpt>
      <trkpt lat="51.626749" lon="6.199059">
        <ele>18.814351</ele>
        <time>2024-03-31T15:00:44.000Z</time>
      </trkpt>
      <trkpt lat="51.626817" lon="6.199185">
        <ele>18.840253</ele>
        <time>2024-03-31T15:00:46.000Z</time>
      </trkpt>
      <trkpt lat="51.626874" lon="6.199348">
        <ele>18.869278</ele>
        <time>2024-03-31T15:00:49.000Z</time>
      </trkpt>
      <trkpt lat="51.626903" lon="6.199499">
        <ele>18.893800</ele>
        <time>2024-03-31T15:00:51.000Z</time>
      </trkpt>
      <trkpt lat="51.626950" lon="6.199692">
        <ele>18.925964</ele>
        <time>2024-03-31T15:00:54.000Z</time>
      </trkpt>
      <trkpt lat="51.626985" lon="6.199830">
        <ele>18.949092</ele>
        <time>2024-03-31T15:00:56.000Z</time>
      </trkpt>
      <trkpt lat="51.627023" lon="6.199977">
        <ele>18.973796</ele>
        <time>2024-03-31T15:00:58.000Z</time>
      </trkpt>
      <trkpt lat="51.627065" lon="6.200115">
        <ele>18.997640</ele>
        <time>2024-03-31T15:01:00.000Z</time>
      </trkpt>
      <trkpt lat="51.627110" lon="6.200251">
        <ele>19.021550</ele>
        <time>2024-03-31T15:01:02.000Z</time>
      </trkpt>
      <trkpt lat="51.627182" lon="6.200421">
        <ele>19.053477</ele>
        <time>2024-03-31T15:01:04.999Z</time>
      </trkpt>
      <trkpt lat="51.627289" lon="6.200527">
        <ele>19.069735</ele>
        <time>2024-03-31T15:01:07.999Z</time>
      </trkpt>
      <trkpt lat="51.627409" lon="6.200429">
        <ele>19.062297</ele>
        <time>2024-03-31T15:01:10.999Z</time>
      </trkpt>
      <trkpt lat="51.627493" lon="6.200279">
        <ele>19.055364</ele>
        <time>2024-03-31T15:01:13.999Z</time>
      </trkpt>
      <trkpt lat="51.627571" lon="6.200182">
        <ele>19.049916</ele>
        <time>2024-03-31T15:01:15.999Z</time>
      </trkpt>
      <trkpt lat="51.627666" lon="6.200272">
        <ele>19.043823</ele>
        <time>2024-03-31T15:01:18.999Z</time>
      </trkpt>
      <trkpt lat="51.627730" lon="6.200405">
        <ele>19.038048</ele>
        <time>2024-03-31T15:01:21.999Z</time>
      </trkpt>
      <trkpt lat="51.627707" lon="6.200606">
        <ele>19.031034</ele>
        <time>2024-03-31T15:01:24.999Z</time>
      </trkpt>
      <trkpt lat="51.627638" lon="6.200727">
        <ele>19.025395</ele>
        <time>2024-03-31T15:01:26.999Z</time>
      </trkpt>
      <trkpt lat="51.627567" lon="6.200854">
        <ele>19.019529</ele>
        <time>2024-03-31T15:01:28.999Z</time>
      </trkpt>
      <trkpt lat="51.627492" lon="6.200986">
        <ele>19.013388</ele>
        <time>2024-03-31T15:01:30.999Z</time>
      </trkpt>
      <trkpt lat="51.627425" lon="6.201114">
        <ele>19.007642</ele>
        <time>2024-03-31T15:01:32.999Z</time>
      </trkpt>
      <trkpt lat="51.627350" lon="6.201255">
        <ele>19.001270</ele>
        <time>2024-03-31T15:01:34.999Z</time>
      </trkpt>
      <trkpt lat="51.627278" lon="6.201390">
        <ele>18.995162</ele>
        <time>2024-03-31T15:01:36.999Z</time>
      </trkpt>
      <trkpt lat="51.627200" lon="6.201537">
        <ele>18.988525</ele>
        <time>2024-03-31T15:01:38.999Z</time>
      </trkpt>
      <trkpt lat="51.627123" lon="6.201676">
        <ele>18.982131</ele>
        <time>2024-03-31T15:01:40.999Z</time>
      </trkpt>
      <trkpt lat="51.627044" lon="6.201823">
        <ele>18.975458</ele>
        <time>2024-03-31T15:01:42.999Z</time>
      </trkpt>
      <trkpt lat="51.626967" lon="6.201969">
        <ele>19.005747</ele>
        <time>2024-03-31T15:01:44.999Z</time>
      </trkpt>
      <trkpt lat="51.626895" lon="6.202123">
        <ele>19.057825</ele>
        <time>2024-03-31T15:01:46.999Z</time>
      </trkpt>
      <trkpt lat="51.626828" lon="6.202279">
        <ele>19.109066</ele>
        <time>2024-03-31T15:01:48.998Z</time>
      </trkpt>
      <trkpt lat="51.626773" lon="6.202441">
        <ele>19.158943</ele>
        <time>2024-03-31T15:01:50.998Z</time>
      </trkpt>
      <trkpt lat="51.626722" lon="6.202615">
        <ele>19.210921</ele>
        <time>2024-03-31T15:01:52.998Z</time>
      </trkpt>
      <trkpt lat="51.626683" lon="6.202799">
        <ele>19.263441</ele>
        <time>2024-03-31T15:01:54.998Z</time>
      </trkpt>
      <trkpt lat="51.626641" lon="6.202961">
        <ele>19.310865</ele>
        <time>2024-03-31T15:01:56.998Z</time>
      </trkpt>
      <trkpt lat="51.626591" lon="6.203133">
        <ele>19.362169</ele>
        <time>2024-03-31T15:01:58.998Z</time>
      </trkpt>
      <trkpt lat="51.626547" lon="6.203296">
        <ele>19.410182</ele>
        <time>2024-03-31T15:02:00.998Z</time>
      </trkpt>
      <trkpt lat="51.626503" lon="6.203470">
        <ele>19.460934</ele>
        <time>2024-03-31T15:02:02.998Z</time>
      </trkpt>
      <trkpt lat="51.626454" lon="6.203634">
        <ele>19.510099</ele>
        <time>2024-03-31T15:02:04.998Z</time>
      </trkpt>
      <trkpt lat="51.626408" lon="6.203796">
        <ele>19.558220</ele>
        <time>2024-03-31T15:02:06.998Z</time>
      </trkpt>
      <trkpt lat="51.626367" lon="6.203974">
        <ele>19.609506</ele>
        <time>2024-03-31T15:02:08.998Z</time>
      </trkpt>
      <trkpt lat="51.626336" lon="6.204151">
        <ele>19.659185</ele>
        <time>2024-03-31T15:02:10.998Z</time>
      </trkpt>
      <trkpt lat="51.626306" lon="6.204327">
        <ele>19.708487</ele>
        <time>2024-03-31T15:02:12.998Z</time>
      </trkpt>
      <trkpt lat="51.626281" lon="6.204484">
        <ele>19.752270</ele>
        <time>2024-03-31T15:02:14.998Z</time>
      </trkpt>
      <trkpt lat="51.626283" lon="6.204638">
        <ele>19.783625</ele>
        <time>2024-03-31T15:02:16.998Z</time>
      </trkpt>
      <trkpt lat="51.626295" lon="6.204803">
        <ele>19.816450</ele>
        <time>2024-03-31T15:02:18.998Z</time>
      </trkpt>
      <trkpt lat="51.626300" lon="6.204965">
        <ele>19.848498</ele>
        <time>2024-03-31T15:02:20.998Z</time>
      </trkpt>
      <trkpt lat="51.626308" lon="6.205145">
        <ele>19.884154</ele>
        <time>2024-03-31T15:02:22.998Z</time>
      </trkpt>
      <trkpt lat="51.626290" lon="6.205316">
        <ele>19.918424</ele>
        <time>2024-03-31T15:02:24.998Z</time>
      </trkpt>
      <trkpt lat="51.626289" lon="6.205498">
        <ele>19.954386</ele>
        <time>2024-03-31T15:02:26.998Z</time>
      </trkpt>
      <trkpt lat="51.626274" lon="6.205679">
        <ele>19.990466</ele>
        <time>2024-03-31T15:02:28.998Z</time>
      </trkpt>
      <trkpt lat="51.626260" lon="6.205865">
        <ele>20.027486</ele>
        <time>2024-03-31T15:02:30.998Z</time>
      </trkpt>
      <trkpt lat="51.626241" lon="6.206048">
        <ele>20.064146</ele>
        <time>2024-03-31T15:02:32.997Z</time>
      </trkpt>
      <trkpt lat="51.626228" lon="6.206237">
        <ele>20.101718</ele>
        <time>2024-03-31T15:02:34.997Z</time>
      </trkpt>
      <trkpt lat="51.626215" lon="6.206420">
        <ele>20.138112</ele>
        <time>2024-03-31T15:02:36.997Z</time>
      </trkpt>
      <trkpt lat="51.626206" lon="6.206593">
        <ele>20.172414</ele>
        <time>2024-03-31T15:02:38.997Z</time>
      </trkpt>
      <trkpt lat="51.626200" lon="6.206780">
        <ele>20.209412</ele>
        <time>2024-03-31T15:02:40.997Z</time>
      </trkpt>
      <trkpt lat="51.626207" lon="6.206962">
        <ele>20.245442</ele>
        <time>2024-03-31T15:02:42.997Z</time>
      </trkpt>
      <trkpt lat="51.626218" lon="6.207143">
        <ele>20.281376</ele>
        <time>2024-03-31T15:02:45.000Z</time>
      </trkpt>
      <trkpt lat="51.626223" lon="6.207345">
        <ele>20.321320</ele>
        <time>2024-03-31T15:02:47.000Z</time>
      </trkpt>
      <trkpt lat="51.626215" lon="6.207534">
        <ele>20.366376</ele>
        <time>2024-03-31T15:02:49.000Z</time>
      </trkpt>
      <trkpt lat="51.626214" lon="6.207708">
        <ele>20.409331</ele>
        <time>2024-03-31T15:02:51.000Z</time>
      </trkpt>
      <trkpt lat="51.626201" lon="6.207860">
        <ele>20.447208</ele>
        <time>2024-03-31T15:02:53.000Z</time>
      </trkpt>
      <trkpt lat="51.626240" lon="6.208046">
        <ele>20.495672</ele>
        <time>2024-03-31T15:02:55.000Z</time>
      </trkpt>
      <trkpt lat="51.626263" lon="6.208217">
        <ele>20.538864</ele>
        <time>2024-03-31T15:02:57.000Z</time>
      </trkpt>
      <trkpt lat="51.626292" lon="6.208384">
        <ele>20.581672</ele>
        <time>2024-03-31T15:02:59.000Z</time>
      </trkpt>
      <trkpt lat="51.626305" lon="6.208555">
        <ele>20.624200</ele>
        <time>2024-03-31T15:03:01.000Z</time>
      </trkpt>
      <trkpt lat="51.626331" lon="6.208713">
        <ele>20.664551</ele>
        <time>2024-03-31T15:03:03.000Z</time>
      </trkpt>
      <trkpt lat="51.626393" lon="6.208861">
        <ele>20.708626</ele>
        <time>2024-03-31T15:03:05.000Z</time>
      </trkpt>
      <trkpt lat="51.626451" lon="6.209027">
        <ele>20.755649</ele>
        <time>2024-03-31T15:03:07.000Z</time>
      </trkpt>
      <trkpt lat="51.626490" lon="6.209210">
        <ele>20.803412</ele>
        <time>2024-03-31T15:03:08.999Z</time>
      </trkpt>
      <trkpt lat="51.626514" lon="6.209410">
        <ele>20.853697</ele>
        <time>2024-03-31T15:03:10.999Z</time>
      </trkpt>
      <trkpt lat="51.626536" lon="6.209611">
        <ele>20.904081</ele>
        <time>2024-03-31T15:03:12.999Z</time>
      </trkpt>
      <trkpt lat="51.626553" lon="6.209794">
        <ele>20.949759</ele>
        <time>2024-03-31T15:03:14.999Z</time>
      </trkpt>
      <trkpt lat="51.626552" lon="6.209974">
        <ele>20.994195</ele>
        <time>2024-03-31T15:03:16.999Z</time>
      </trkpt>
      <trkpt lat="51.626553" lon="6.210159">
        <ele>21.039865</ele>
        <time>2024-03-31T15:03:18.999Z</time>
      </trkpt>
      <trkpt lat="51.626561" lon="6.210336">
        <ele>20.973586</ele>
        <time>2024-03-31T15:03:20.999Z</time>
      </trkpt>
      <trkpt lat="51.626565" lon="6.210532">
        <ele>20.889646</ele>
        <time>2024-03-31T15:03:22.999Z</time>
      </trkpt>
      <trkpt lat="51.626545" lon="6.210722">
        <ele>20.807160</ele>
        <time>2024-03-31T15:03:24.999Z</time>
      </trkpt>
      <trkpt lat="51.626541" lon="6.210901">
        <ele>20.730492</ele>
        <time>2024-03-31T15:03:26.999Z</time>
      </trkpt>
      <trkpt lat="51.626514" lon="6.211090">
        <ele>20.647480</ele>
        <time>2024-03-31T15:03:28.999Z</time>
      </trkpt>
      <trkpt lat="51.626492" lon="6.211261">
        <ele>20.572731</ele>
        <time>2024-03-31T15:03:30.999Z</time>
      </trkpt>
      <trkpt lat="51.626441" lon="6.211421">
        <ele>20.495746</ele>
        <time>2024-03-31T15:03:32.999Z</time>
      </trkpt>
      <trkpt lat="51.626419" lon="6.211603">
        <ele>20.416381</ele>
        <time>2024-03-31T15:03:34.999Z</time>
      </trkpt>
      <trkpt lat="51.626386" lon="6.211787">
        <ele>20.334402</ele>
        <time>2024-03-31T15:03:36.999Z</time>
      </trkpt>
      <trkpt lat="51.626355" lon="6.211961">
        <ele>20.256918</ele>
        <time>2024-03-31T15:03:38.999Z</time>
      </trkpt>
      <trkpt lat="51.626337" lon="6.212127">
        <ele>20.184789</ele>
        <time>2024-03-31T15:03:40.999Z</time>
      </trkpt>
      <trkpt lat="51.626343" lon="6.212285">
        <ele>20.117033</ele>
        <time>2024-03-31T15:03:42.999Z</time>
      </trkpt>
      <trkpt lat="51.626424" lon="6.212438">
        <ele>20.030963</ele>
        <time>2024-03-31T15:03:45.999Z</time>
      </trkpt>
      <trkpt lat="51.626486" lon="6.212546">
        <ele>19.967999</ele>
        <time>2024-03-31T15:03:48.999Z</time>
      </trkpt>
      <trkpt lat="51.626533" lon="6.212700">
        <ele>19.894547</ele>
        <time>2024-03-31T15:03:52.998Z</time>
      </trkpt>
      <trkpt lat="51.626448" lon="6.212779">
        <ele>19.826884</ele>
        <time>2024-03-31T15:03:54.998Z</time>
      </trkpt>
      <trkpt lat="51.626370" lon="6.212856">
        <ele>19.766148</ele>
        <time>2024-03-31T15:03:56.998Z</time>
      </trkpt>
      <trkpt lat="51.626292" lon="6.212956">
        <ele>19.701492</ele>
        <time>2024-03-31T15:03:58.998Z</time>
      </trkpt>
      <trkpt lat="51.626210" lon="6.213059">
        <ele>19.634050</ele>
        <time>2024-03-31T15:04:00.998Z</time>
      </trkpt>
      <trkpt lat="51.626117" lon="6.213144">
        <ele>19.564700</ele>
        <time>2024-03-31T15:04:02.998Z</time>
      </trkpt>
      <trkpt lat="51.626022" lon="6.213230">
        <ele>19.494021</ele>
        <time>2024-03-31T15:04:04.998Z</time>
      </trkpt>
      <trkpt lat="51.625928" lon="6.213307">
        <ele>19.425625</ele>
        <time>2024-03-31T15:04:06.998Z</time>
      </trkpt>
      <trkpt lat="51.625825" lon="6.213357">
        <ele>19.355853</ele>
        <time>2024-03-31T15:04:08.998Z</time>
      </trkpt>
      <trkpt lat="51.625710" lon="6.213404">
        <ele>19.278903</ele>
        <time>2024-03-31T15:04:10.998Z</time>
      </trkpt>
      <trkpt lat="51.625573" lon="6.213457">
        <ele>19.187521</ele>
        <time>2024-03-31T15:04:12.998Z</time>
      </trkpt>
      <trkpt lat="51.625443" lon="6.213518">
        <ele>19.099701</ele>
        <time>2024-03-31T15:04:14.998Z</time>
      </trkpt>
      <trkpt lat="51.625319" lon="6.213558">
        <ele>19.017680</ele>
        <time>2024-03-31T15:04:16.998Z</time>
      </trkpt>
      <trkpt lat="51.625198" lon="6.213576">
        <ele>18.938868</ele>
        <time>2024-03-31T15:04:18.998Z</time>
      </trkpt>
      <trkpt lat="51.625080" lon="6.213616">
        <ele>18.860659</ele>
        <time>2024-03-31T15:04:20.998Z</time>
      </trkpt>
      <trkpt lat="51.624967" lon="6.213667">
        <ele>18.784547</ele>
        <time>2024-03-31T15:04:22.998Z</time>
      </trkpt>
      <trkpt lat="51.624849" lon="6.213691">
        <ele>18.707407</ele>
        <time>2024-03-31T15:04:24.998Z</time>
      </trkpt>
      <trkpt lat="51.624725" lon="6.213690">
        <ele>18.634261</ele>
        <time>2024-03-31T15:04:26.998Z</time>
      </trkpt>
      <trkpt lat="51.624590" lon="6.213686">
        <ele>18.612452</ele>
        <time>2024-03-31T15:04:28.998Z</time>
      </trkpt>
      <trkpt lat="51.624460" lon="6.213706">
        <ele>18.591359</ele>
        <time>2024-03-31T15:04:30.998Z</time>
      </trkpt>
      <trkpt lat="51.624338" lon="6.213754">
        <ele>18.571074</ele>
        <time>2024-03-31T15:04:32.998Z</time>
      </trkpt>
      <trkpt lat="51.624225" lon="6.213823">
        <ele>18.551555</ele>
        <time>2024-03-31T15:04:34.998Z</time>
      </trkpt>
      <trkpt lat="51.624114" lon="6.213882">
        <ele>18.532675</ele>
        <time>2024-03-31T15:04:36.997Z</time>
      </trkpt>
      <trkpt lat="51.624012" lon="6.213991">
        <ele>18.512904</ele>
        <time>2024-03-31T15:04:38.997Z</time>
      </trkpt>
      <trkpt lat="51.623917" lon="6.214108">
        <ele>18.493588</ele>
        <time>2024-03-31T15:04:40.997Z</time>
      </trkpt>
      <trkpt lat="51.623831" lon="6.214216">
        <ele>18.475975</ele>
        <time>2024-03-31T15:04:42.997Z</time>
      </trkpt>
      <trkpt lat="51.623753" lon="6.214340">
        <ele>18.458273</ele>
        <time>2024-03-31T15:04:44.997Z</time>
      </trkpt>
      <trkpt lat="51.623683" lon="6.214471">
        <ele>18.440942</ele>
        <time>2024-03-31T15:04:46.997Z</time>
      </trkpt>
      <trkpt lat="51.623601" lon="6.214662">
        <ele>18.417655</ele>
        <time>2024-03-31T15:04:48.997Z</time>
      </trkpt>
      <trkpt lat="51.623555" lon="6.214846">
        <ele>18.397765</ele>
        <time>2024-03-31T15:04:51.000Z</time>
      </trkpt>
      <trkpt lat="51.623522" lon="6.215023">
        <ele>18.379233</ele>
        <time>2024-03-31T15:04:53.000Z</time>
      </trkpt>
      <trkpt lat="51.623485" lon="6.215196">
        <ele>18.360884</ele>
        <time>2024-03-31T15:04:55.000Z</time>
      </trkpt>
      <trkpt lat="51.623434" lon="6.215348">
        <ele>18.340875</ele>
        <time>2024-03-31T15:04:57.000Z</time>
      </trkpt>
      <trkpt lat="51.623364" lon="6.215478">
        <ele>18.305793</ele>
        <time>2024-03-31T15:04:59.000Z</time>
      </trkpt>
      <trkpt lat="51.623310" lon="6.215637">
        <ele>18.268846</ele>
        <time>2024-03-31T15:05:01.000Z</time>
      </trkpt>
      <trkpt lat="51.623253" lon="6.215810">
        <ele>18.228918</ele>
        <time>2024-03-31T15:05:03.000Z</time>
      </trkpt>
      <trkpt lat="51.623195" lon="6.215982">
        <ele>18.189015</ele>
        <time>2024-03-31T15:05:05.000Z</time>
      </trkpt>
      <trkpt lat="51.623142" lon="6.216146">
        <ele>18.151323</ele>
        <time>2024-03-31T15:05:07.000Z</time>
      </trkpt>
      <trkpt lat="51.623091" lon="6.216315">
        <ele>18.113015</ele>
        <time>2024-03-31T15:05:09.000Z</time>
      </trkpt>
      <trkpt lat="51.623032" lon="6.216489">
        <ele>18.072597</ele>
        <time>2024-03-31T15:05:11.000Z</time>
      </trkpt>
      <trkpt lat="51.622982" lon="6.216670">
        <ele>18.032209</ele>
        <time>2024-03-31T15:05:13.000Z</time>
      </trkpt>
      <trkpt lat="51.622933" lon="6.216842">
        <ele>17.993629</ele>
        <time>2024-03-31T15:05:15.000Z</time>
      </trkpt>
      <trkpt lat="51.622887" lon="6.217025">
        <ele>17.953380</ele>
        <time>2024-03-31T15:05:16.999Z</time>
      </trkpt>
      <trkpt lat="51.622827" lon="6.217181">
        <ele>17.915969</ele>
        <time>2024-03-31T15:05:18.999Z</time>
      </trkpt>
      <trkpt lat="51.622760" lon="6.217342">
        <ele>17.876455</ele>
        <time>2024-03-31T15:05:20.999Z</time>
      </trkpt>
      <trkpt lat="51.622691" lon="6.217490">
        <ele>17.838722</ele>
        <time>2024-03-31T15:05:22.999Z</time>
      </trkpt>
      <trkpt lat="51.622605" lon="6.217638">
        <ele>17.797396</ele>
        <time>2024-03-31T15:05:24.999Z</time>
      </trkpt>
      <trkpt lat="51.622535" lon="6.217755">
        <ele>17.764271</ele>
        <time>2024-03-31T15:05:26.999Z</time>
      </trkpt>
      <trkpt lat="51.622469" lon="6.217899">
        <ele>17.737070</ele>
        <time>2024-03-31T15:05:28.999Z</time>
      </trkpt>
      <trkpt lat="51.622387" lon="6.218034">
        <ele>17.711456</ele>
        <time>2024-03-31T15:05:30.999Z</time>
      </trkpt>
      <trkpt lat="51.622285" lon="6.218166">
        <ele>17.682873</ele>
        <time>2024-03-31T15:05:32.999Z</time>
      </trkpt>
      <trkpt lat="51.622190" lon="6.218277">
        <ele>17.657235</ele>
        <time>2024-03-31T15:05:34.999Z</time>
      </trkpt>
      <trkpt lat="51.622107" lon="6.218371">
        <ele>17.635070</ele>
        <time>2024-03-31T15:05:36.999Z</time>
      </trkpt>
      <trkpt lat="51.622019" lon="6.218463">
        <ele>17.612152</ele>
        <time>2024-03-31T15:05:38.999Z</time>
      </trkpt>
      <trkpt lat="51.621920" lon="6.218517">
        <ele>17.589319</ele>
        <time>2024-03-31T15:05:40.999Z</time>
      </trkpt>
      <trkpt lat="51.621819" lon="6.218579">
        <ele>17.565707</ele>
        <time>2024-03-31T15:05:42.999Z</time>
      </trkpt>
      <trkpt lat="51.621707" lon="6.218651">
        <ele>17.539364</ele>
        <time>2024-03-31T15:05:44.999Z</time>
      </trkpt>
      <trkpt lat="51.621601" lon="6.218733">
        <ele>17.513676</ele>
        <time>2024-03-31T15:05:46.999Z</time>
      </trkpt>
      <trkpt lat="51.621492" lon="6.218795">
        <ele>17.488424</ele>
        <time>2024-03-31T15:05:48.999Z</time>
      </trkpt>
      <trkpt lat="51.621385" lon="6.218890">
        <ele>17.461734</ele>
        <time>2024-03-31T15:05:50.999Z</time>
      </trkpt>
      <trkpt lat="51.621273" lon="6.218963">
        <ele>17.435340</ele>
        <time>2024-03-31T15:05:52.999Z</time>
      </trkpt>
      <trkpt lat="51.621162" lon="6.219028">
        <ele>17.409539</ele>
        <time>2024-03-31T15:05:54.999Z</time>
      </trkpt>
      <trkpt lat="51.621058" lon="6.219105">
        <ele>17.384535</ele>
        <time>2024-03-31T15:05:56.999Z</time>
      </trkpt>
      <trkpt lat="51.620951" lon="6.219179">
        <ele>17.356134</ele>
        <time>2024-03-31T15:05:58.999Z</time>
      </trkpt>
      <trkpt lat="51.620840" lon="6.219255">
        <ele>17.307601</ele>
        <time>2024-03-31T15:06:00.998Z</time>
      </trkpt>
      <trkpt lat="51.620728" lon="6.219325">
        <ele>17.259260</ele>
        <time>2024-03-31T15:06:02.998Z</time>
      </trkpt>
      <trkpt lat="51.620622" lon="6.219400">
        <ele>17.212673</ele>
        <time>2024-03-31T15:06:04.998Z</time>
      </trkpt>
      <trkpt lat="51.620514" lon="6.219469">
        <ele>17.165921</ele>
        <time>2024-03-31T15:06:06.998Z</time>
      </trkpt>
      <trkpt lat="51.620403" lon="6.219537">
        <ele>17.118135</ele>
        <time>2024-03-31T15:06:08.998Z</time>
      </trkpt>
      <trkpt lat="51.620295" lon="6.219604">
        <ele>17.071565</ele>
        <time>2024-03-31T15:06:10.998Z</time>
      </trkpt>
      <trkpt lat="51.620187" lon="6.219679">
        <ele>17.024240</ele>
        <time>2024-03-31T15:06:12.998Z</time>
      </trkpt>
      <trkpt lat="51.620085" lon="6.219755">
        <ele>16.979018</ele>
        <time>2024-03-31T15:06:14.998Z</time>
      </trkpt>
      <trkpt lat="51.619975" lon="6.219826">
        <ele>16.931334</ele>
        <time>2024-03-31T15:06:16.998Z</time>
      </trkpt>
      <trkpt lat="51.619865" lon="6.219896">
        <ele>16.883742</ele>
        <time>2024-03-31T15:06:18.998Z</time>
      </trkpt>
      <trkpt lat="51.619756" lon="6.219959">
        <ele>16.837143</ele>
        <time>2024-03-31T15:06:20.998Z</time>
      </trkpt>
      <trkpt lat="51.619646" lon="6.220023">
        <ele>16.790082</ele>
        <time>2024-03-31T15:06:22.998Z</time>
      </trkpt>
      <trkpt lat="51.619533" lon="6.220093">
        <ele>16.741365</ele>
        <time>2024-03-31T15:06:24.998Z</time>
      </trkpt>
      <trkpt lat="51.619418" lon="6.220179">
        <ele>16.690346</ele>
        <time>2024-03-31T15:06:26.998Z</time>
      </trkpt>
      <trkpt lat="51.619307" lon="6.220258">
        <ele>16.641515</ele>
        <time>2024-03-31T15:06:28.998Z</time>
      </trkpt>
      <trkpt lat="51.619193" lon="6.220337">
        <ele>16.674791</ele>
        <time>2024-03-31T15:06:30.998Z</time>
      </trkpt>
      <trkpt lat="51.619079" lon="6.220412">
        <ele>16.712427</ele>
        <time>2024-03-31T15:06:32.998Z</time>
      </trkpt>
      <trkpt lat="51.618967" lon="6.220474">
        <ele>16.748623</ele>
        <time>2024-03-31T15:06:34.998Z</time>
      </trkpt>
      <trkpt lat="51.618853" lon="6.220544">
        <ele>16.785910</ele>
        <time>2024-03-31T15:06:36.998Z</time>
      </trkpt>
      <trkpt lat="51.618738" lon="6.220634">
        <ele>16.824987</ele>
        <time>2024-03-31T15:06:38.998Z</time>
      </trkpt>
      <trkpt lat="51.618627" lon="6.220706">
        <ele>16.861560</ele>
        <time>2024-03-31T15:06:40.998Z</time>
      </trkpt>
      <trkpt lat="51.618514" lon="6.220777">
        <ele>16.898631</ele>
        <time>2024-03-31T15:06:42.998Z</time>
      </trkpt>
      <trkpt lat="51.618395" lon="6.220841">
        <ele>16.936975</ele>
        <time>2024-03-31T15:06:44.998Z</time>
      </trkpt>
      <trkpt lat="51.618285" lon="6.220924">
        <ele>16.974101</ele>
        <time>2024-03-31T15:06:46.997Z</time>
      </trkpt>
      <trkpt lat="51.618171" lon="6.221001">
        <ele>17.011882</ele>
        <time>2024-03-31T15:06:48.997Z</time>
      </trkpt>
      <trkpt lat="51.618059" lon="6.221074">
        <ele>17.048809</ele>
        <time>2024-03-31T15:06:50.997Z</time>
      </trkpt>
      <trkpt lat="51.617943" lon="6.221151">
        <ele>17.087155</ele>
        <time>2024-03-31T15:06:52.997Z</time>
      </trkpt>
      <trkpt lat="51.617829" lon="6.221229">
        <ele>17.125010</ele>
        <time>2024-03-31T15:06:54.997Z</time>
      </trkpt>
      <trkpt lat="51.617718" lon="6.221307">
        <ele>17.162024</ele>
        <time>2024-03-31T15:06:57.000Z</time>
      </trkpt>
      <trkpt lat="51.617603" lon="6.221380">
        <ele>17.203276</ele>
        <time>2024-03-31T15:06:59.000Z</time>
      </trkpt>
      <trkpt lat="51.617491" lon="6.221450">
        <ele>17.251365</ele>
        <time>2024-03-31T15:07:01.000Z</time>
      </trkpt>
      <trkpt lat="51.617378" lon="6.221529">
        <ele>17.300675</ele>
        <time>2024-03-31T15:07:03.000Z</time>
      </trkpt>
      <trkpt lat="51.617266" lon="6.221613">
        <ele>17.350129</ele>
        <time>2024-03-31T15:07:05.000Z</time>
      </trkpt>
      <trkpt lat="51.617156" lon="6.221709">
        <ele>17.400210</ele>
        <time>2024-03-31T15:07:07.000Z</time>
      </trkpt>
      <trkpt lat="51.617049" lon="6.221806">
        <ele>17.449359</ele>
        <time>2024-03-31T15:07:09.000Z</time>
      </trkpt>
      <trkpt lat="51.616946" lon="6.221914">
        <ele>17.498556</ele>
        <time>2024-03-31T15:07:11.000Z</time>
      </trkpt>
      <trkpt lat="51.616842" lon="6.222018">
        <ele>17.547558</ele>
        <time>2024-03-31T15:07:13.000Z</time>
      </trkpt>
      <trkpt lat="51.616735" lon="6.222128">
        <ele>17.598370</ele>
        <time>2024-03-31T15:07:15.000Z</time>
      </trkpt>
      <trkpt lat="51.616631" lon="6.222235">
        <ele>17.647769</ele>
        <time>2024-03-31T15:07:17.000Z</time>
      </trkpt>
      <trkpt lat="51.616524" lon="6.222345">
        <ele>17.698581</ele>
        <time>2024-03-31T15:07:19.000Z</time>
      </trkpt>
      <trkpt lat="51.616428" lon="6.222464">
        <ele>17.747073</ele>
        <time>2024-03-31T15:07:21.000Z</time>
      </trkpt>
      <trkpt lat="51.616330" lon="6.222578">
        <ele>17.795463</ele>
        <time>2024-03-31T15:07:22.999Z</time>
      </trkpt>
      <trkpt lat="51.616236" lon="6.222675">
        <ele>17.840151</ele>
        <time>2024-03-31T15:07:24.999Z</time>
      </trkpt>
      <trkpt lat="51.616155" lon="6.222768">
        <ele>17.879970</ele>
        <time>2024-03-31T15:07:26.999Z</time>
      </trkpt>
      <trkpt lat="51.616074" lon="6.222849">
        <ele>17.905599</ele>
        <time>2024-03-31T15:07:28.999Z</time>
      </trkpt>
      <trkpt lat="51.615999" lon="6.222945">
        <ele>17.893787</ele>
        <time>2024-03-31T15:07:30.999Z</time>
      </trkpt>
      <trkpt lat="51.615913" lon="6.223031">
        <ele>17.881306</ele>
        <time>2024-03-31T15:07:32.999Z</time>
      </trkpt>
      <trkpt lat="51.615826" lon="6.223126">
        <ele>17.868346</ele>
        <time>2024-03-31T15:07:34.999Z</time>
      </trkpt>
      <trkpt lat="51.615736" lon="6.223226">
        <ele>17.854864</ele>
        <time>2024-03-31T15:07:36.999Z</time>
      </trkpt>
      <trkpt lat="51.615643" lon="6.223326">
        <ele>17.841077</ele>
        <time>2024-03-31T15:07:38.999Z</time>
      </trkpt>
      <trkpt lat="51.615551" lon="6.223426">
        <ele>17.827392</ele>
        <time>2024-03-31T15:07:40.999Z</time>
      </trkpt>
      <trkpt lat="51.615459" lon="6.223531">
        <ele>17.813489</ele>
        <time>2024-03-31T15:07:42.999Z</time>
      </trkpt>
      <trkpt lat="51.615365" lon="6.223639">
        <ele>17.799252</ele>
        <time>2024-03-31T15:07:44.999Z</time>
      </trkpt>
      <trkpt lat="51.615284" lon="6.223737">
        <ele>17.786761</ele>
        <time>2024-03-31T15:07:46.999Z</time>
      </trkpt>
      <trkpt lat="51.615203" lon="6.223843">
        <ele>17.773892</ele>
        <time>2024-03-31T15:07:48.999Z</time>
      </trkpt>
      <trkpt lat="51.615101" lon="6.223940">
        <ele>17.759287</ele>
        <time>2024-03-31T15:07:50.999Z</time>
      </trkpt>
      <trkpt lat="51.615009" lon="6.224037">
        <ele>17.745729</ele>
        <time>2024-03-31T15:07:52.999Z</time>
      </trkpt>
      <trkpt lat="51.614919" lon="6.224140">
        <ele>17.732116</ele>
        <time>2024-03-31T15:07:54.999Z</time>
      </trkpt>
      <trkpt lat="51.614814" lon="6.224232">
        <ele>17.717378</ele>
        <time>2024-03-31T15:07:56.999Z</time>
      </trkpt>
      <trkpt lat="51.614721" lon="6.224340">
        <ele>17.703241</ele>
        <time>2024-03-31T15:07:58.999Z</time>
      </trkpt>
      <trkpt lat="51.614627" lon="6.224450">
        <ele>17.688915</ele>
        <time>2024-03-31T15:08:00.999Z</time>
      </trkpt>
      <trkpt lat="51.614531" lon="6.224560">
        <ele>17.769179</ele>
        <time>2024-03-31T15:08:02.999Z</time>
      </trkpt>
      <trkpt lat="51.614448" lon="6.224652">
        <ele>17.851743</ele>
        <time>2024-03-31T15:08:04.998Z</time>
      </trkpt>
      <trkpt lat="51.614359" lon="6.224769">
        <ele>17.945884</ele>
        <time>2024-03-31T15:08:06.998Z</time>
      </trkpt>
      <trkpt lat="51.614265" lon="6.224882">
        <ele>18.042002</ele>
        <time>2024-03-31T15:08:08.998Z</time>
      </trkpt>
      <trkpt lat="51.614180" lon="6.225015">
        <ele>18.139115</ele>
        <time>2024-03-31T15:08:10.998Z</time>
      </trkpt>
      <trkpt lat="51.614104" lon="6.225131">
        <ele>18.224917</ele>
        <time>2024-03-31T15:08:12.998Z</time>
      </trkpt>
      <trkpt lat="51.614027" lon="6.225242">
        <ele>18.309597</ele>
        <time>2024-03-31T15:08:14.998Z</time>
      </trkpt>
      <trkpt lat="51.613959" lon="6.225338">
        <ele>18.383697</ele>
        <time>2024-03-31T15:08:16.998Z</time>
      </trkpt>
      <trkpt lat="51.613877" lon="6.225466">
        <ele>18.477274</ele>
        <time>2024-03-31T15:08:19.998Z</time>
      </trkpt>
      <trkpt lat="51.613795" lon="6.225586">
        <ele>18.568065</ele>
        <time>2024-03-31T15:08:22.998Z</time>
      </trkpt>
      <trkpt lat="51.613723" lon="6.225717">
        <ele>18.657080</ele>
        <time>2024-03-31T15:08:25.998Z</time>
      </trkpt>
      <trkpt lat="51.613636" lon="6.225822">
        <ele>18.746167</ele>
        <time>2024-03-31T15:08:28.998Z</time>
      </trkpt>
      <trkpt lat="51.613555" lon="6.225916">
        <ele>18.827978</ele>
        <time>2024-03-31T15:08:31.998Z</time>
      </trkpt>
      <trkpt lat="51.613457" lon="6.225946">
        <ele>18.909719</ele>
        <time>2024-03-31T15:08:34.998Z</time>
      </trkpt>
      <trkpt lat="51.613364" lon="6.226056">
        <ele>19.004271</ele>
        <time>2024-03-31T15:08:37.998Z</time>
      </trkpt>
      <trkpt lat="51.613305" lon="6.226215">
        <ele>19.098519</ele>
        <time>2024-03-31T15:08:40.998Z</time>
      </trkpt>
      <trkpt lat="51.613362" lon="6.226393">
        <ele>19.184544</ele>
        <time>2024-03-31T15:08:43.998Z</time>
      </trkpt>
      <trkpt lat="51.613434" lon="6.226565">
        <ele>19.247980</ele>
        <time>2024-03-31T15:08:46.998Z</time>
      </trkpt>
      <trkpt lat="51.613475" lon="6.226717">
        <ele>19.298659</ele>
        <time>2024-03-31T15:08:48.998Z</time>
      </trkpt>
      <trkpt lat="51.613521" lon="6.226863">
        <ele>19.348727</ele>
        <time>2024-03-31T15:08:50.997Z</time>
      </trkpt>
      <trkpt lat="51.613562" lon="6.227019">
        <ele>19.400530</ele>
        <time>2024-03-31T15:08:52.997Z</time>
      </trkpt>
      <trkpt lat="51.613586" lon="6.227173">
        <ele>19.449086</ele>
        <time>2024-03-31T15:08:54.997Z</time>
      </trkpt>
      <trkpt lat="51.613599" lon="6.227323">
        <ele>19.495403</ele>
        <time>2024-03-31T15:08:56.997Z</time>
      </trkpt>
      <trkpt lat="51.613576" lon="6.227469">
        <ele>19.541466</ele>
        <time>2024-03-31T15:08:58.997Z</time>
      </trkpt>
      <trkpt lat="51.613554" lon="6.227640">
        <ele>19.594870</ele>
        <time>2024-03-31T15:09:01.997Z</time>
      </trkpt>
      <trkpt lat="51.613558" lon="6.227847">
        <ele>19.658204</ele>
        <time>2024-03-31T15:09:05.000Z</time>
      </trkpt>
      <trkpt lat="51.613573" lon="6.228046">
        <ele>19.719508</ele>
        <time>2024-03-31T15:09:08.000Z</time>
      </trkpt>
      <trkpt lat="51.613616" lon="6.228228">
        <ele>19.779058</ele>
        <time>2024-03-31T15:09:11.000Z</time>
      </trkpt>
      <trkpt lat="51.613711" lon="6.228270">
        <ele>19.827575</ele>
        <time>2024-03-31T15:09:13.000Z</time>
      </trkpt>
      <trkpt lat="51.613749" lon="6.228439">
        <ele>19.882541</ele>
        <time>2024-03-31T15:09:16.000Z</time>
      </trkpt>
      <trkpt lat="51.613730" lon="6.228595">
        <ele>19.931157</ele>
        <time>2024-03-31T15:09:18.000Z</time>
      </trkpt>
      <trkpt lat="51.613748" lon="6.228758">
        <ele>19.981786</ele>
        <time>2024-03-31T15:09:20.000Z</time>
      </trkpt>
      <trkpt lat="51.613754" lon="6.228915">
        <ele>20.029890</ele>
        <time>2024-03-31T15:09:22.000Z</time>
      </trkpt>
      <trkpt lat="51.613734" lon="6.229094">
        <ele>20.131067</ele>
        <time>2024-03-31T15:09:24.000Z</time>
      </trkpt>
      <trkpt lat="51.613721" lon="6.229250">
        <ele>20.235305</ele>
        <time>2024-03-31T15:09:26.000Z</time>
      </trkpt>
      <trkpt lat="51.613758" lon="6.229484">
        <ele>20.395217</ele>
        <time>2024-03-31T15:09:28.999Z</time>
      </trkpt>
      <trkpt lat="51.613770" lon="6.229663">
        <ele>20.514449</ele>
        <time>2024-03-31T15:09:30.999Z</time>
      </trkpt>
      <trkpt lat="51.613773" lon="6.229833">
        <ele>20.627077</ele>
        <time>2024-03-31T15:09:32.999Z</time>
      </trkpt>
      <trkpt lat="51.613772" lon="6.230009">
        <ele>20.743639</ele>
        <time>2024-03-31T15:09:34.999Z</time>
      </trkpt>
      <trkpt lat="51.613782" lon="6.230183">
        <ele>20.859363</ele>
        <time>2024-03-31T15:09:36.999Z</time>
      </trkpt>
      <trkpt lat="51.613790" lon="6.230351">
        <ele>20.970948</ele>
        <time>2024-03-31T15:09:38.999Z</time>
      </trkpt>
      <trkpt lat="51.613797" lon="6.230530">
        <ele>21.089726</ele>
        <time>2024-03-31T15:09:40.999Z</time>
      </trkpt>
      <trkpt lat="51.613842" lon="6.230716">
        <ele>21.221924</ele>
        <time>2024-03-31T15:09:42.999Z</time>
      </trkpt>
      <trkpt lat="51.613839" lon="6.230886">
        <ele>21.334552</ele>
        <time>2024-03-31T15:09:44.999Z</time>
      </trkpt>
      <trkpt lat="51.613861" lon="6.231085">
        <ele>21.468412</ele>
        <time>2024-03-31T15:09:46.999Z</time>
      </trkpt>
      <trkpt lat="51.613892" lon="6.231282">
        <ele>21.603000</ele>
        <time>2024-03-31T15:09:48.999Z</time>
      </trkpt>
      <trkpt lat="51.613909" lon="6.231474">
        <ele>21.731438</ele>
        <time>2024-03-31T15:09:50.999Z</time>
      </trkpt>
      <trkpt lat="51.613904" lon="6.231688">
        <ele>21.873260</ele>
        <time>2024-03-31T15:09:52.999Z</time>
      </trkpt>
      <trkpt lat="51.613894" lon="6.231868">
        <ele>21.943041</ele>
        <time>2024-03-31T15:09:54.999Z</time>
      </trkpt>
      <trkpt lat="51.613898" lon="6.232041">
        <ele>21.855309</ele>
        <time>2024-03-31T15:09:56.999Z</time>
      </trkpt>
      <trkpt lat="51.613900" lon="6.232229">
        <ele>21.760023</ele>
        <time>2024-03-31T15:09:58.999Z</time>
      </trkpt>
      <trkpt lat="51.613894" lon="6.232379">
        <ele>21.683850</ele>
        <time>2024-03-31T15:10:00.999Z</time>
      </trkpt>
      <trkpt lat="51.613874" lon="6.232592">
        <ele>21.574682</ele>
        <time>2024-03-31T15:10:02.999Z</time>
      </trkpt>
      <trkpt lat="51.613856" lon="6.232777">
        <ele>21.479786</ele>
        <time>2024-03-31T15:10:04.999Z</time>
      </trkpt>
      <trkpt lat="51.613844" lon="6.232957">
        <ele>21.388043</ele>
        <time>2024-03-31T15:10:06.999Z</time>
      </trkpt>
      <trkpt lat="51.613823" lon="6.233136">
        <ele>21.295727</ele>
        <time>2024-03-31T15:10:08.999Z</time>
      </trkpt>
      <trkpt lat="51.613793" lon="6.233315">
        <ele>21.201769</ele>
        <time>2024-03-31T15:10:10.998Z</time>
      </trkpt>
      <trkpt lat="51.613786" lon="6.233500">
        <ele>21.107843</ele>
        <time>2024-03-31T15:10:12.998Z</time>
      </trkpt>
      <trkpt lat="51.613777" lon="6.233676">
        <ele>21.018350</ele>
        <time>2024-03-31T15:10:14.998Z</time>
      </trkpt>
      <trkpt lat="51.613741" lon="6.233866">
        <ele>20.917681</ele>
        <time>2024-03-31T15:10:16.998Z</time>
      </trkpt>
      <trkpt lat="51.613720" lon="6.234067">
        <ele>20.814389</ele>
        <time>2024-03-31T15:10:18.998Z</time>
      </trkpt>
      <trkpt lat="51.613704" lon="6.234268">
        <ele>20.711695</ele>
        <time>2024-03-31T15:10:20.998Z</time>
      </trkpt>
      <trkpt lat="51.613708" lon="6.234474">
        <ele>20.607249</ele>
        <time>2024-03-31T15:10:22.998Z</time>
      </trkpt>
      <trkpt lat="51.613732" lon="6.234674">
        <ele>20.504020</ele>
        <time>2024-03-31T15:10:24.998Z</time>
      </trkpt>
      <trkpt lat="51.613757" lon="6.234864">
        <ele>20.510273</ele>
        <time>2024-03-31T15:10:26.998Z</time>
      </trkpt>
      <trkpt lat="51.613787" lon="6.235055">
        <ele>20.525037</ele>
        <time>2024-03-31T15:10:28.998Z</time>
      </trkpt>
      <trkpt lat="51.613823" lon="6.235246">
        <ele>20.539996</ele>
        <time>2024-03-31T15:10:30.998Z</time>
      </trkpt>
      <trkpt lat="51.613850" lon="6.235442">
        <ele>20.555041</ele>
        <time>2024-03-31T15:10:32.998Z</time>
      </trkpt>
      <trkpt lat="51.613877" lon="6.235635">
        <ele>20.569866</ele>
        <time>2024-03-31T15:10:34.998Z</time>
      </trkpt>
      <trkpt lat="51.613907" lon="6.235813">
        <ele>20.583688</ele>
        <time>2024-03-31T15:10:36.998Z</time>
      </trkpt>
      <trkpt lat="51.613925" lon="6.235987">
        <ele>20.596907</ele>
        <time>2024-03-31T15:10:38.998Z</time>
      </trkpt>
      <trkpt lat="51.613950" lon="6.236135">
        <ele>20.608401</ele>
        <time>2024-03-31T15:10:40.998Z</time>
      </trkpt>
      <trkpt lat="51.613963" lon="6.236282">
        <ele>20.619528</ele>
        <time>2024-03-31T15:10:42.998Z</time>
      </trkpt>
      <trkpt lat="51.613988" lon="6.236426">
        <ele>20.630733</ele>
        <time>2024-03-31T15:10:44.998Z</time>
      </trkpt>
      <trkpt lat="51.614012" lon="6.236579">
        <ele>20.642558</ele>
        <time>2024-03-31T15:10:46.998Z</time>
      </trkpt>
      <trkpt lat="51.614033" lon="6.236732">
        <ele>20.654301</ele>
        <time>2024-03-31T15:10:48.998Z</time>
      </trkpt>
      <trkpt lat="51.614057" lon="6.236895">
        <ele>20.666854</ele>
        <time>2024-03-31T15:10:50.998Z</time>
      </trkpt>
      <trkpt lat="51.614078" lon="6.237070">
        <ele>20.680211</ele>
        <time>2024-03-31T15:10:52.998Z</time>
      </trkpt>
      <trkpt lat="51.614104" lon="6.237244">
        <ele>20.693622</ele>
        <time>2024-03-31T15:10:54.997Z</time>
      </trkpt>
      <trkpt lat="51.614125" lon="6.237420">
        <ele>20.707053</ele>
        <time>2024-03-31T15:10:56.997Z</time>
      </trkpt>
      <trkpt lat="51.614144" lon="6.237598">
        <ele>20.665201</ele>
        <time>2024-03-31T15:10:58.997Z</time>
      </trkpt>
      <trkpt lat="51.614151" lon="6.237765">
        <ele>20.574602</ele>
        <time>2024-03-31T15:11:00.997Z</time>
      </trkpt>
      <trkpt lat="51.614175" lon="6.237918">
        <ele>20.489185</ele>
        <time>2024-03-31T15:11:02.997Z</time>
      </trkpt>
      <trkpt lat="51.614189" lon="6.238062">
        <ele>20.410292</ele>
        <time>2024-03-31T15:11:04.997Z</time>
      </trkpt>
      <trkpt lat="51.614199" lon="6.238257">
        <ele>20.304384</ele>
        <time>2024-03-31T15:11:07.997Z</time>
      </trkpt>
      <trkpt lat="51.614205" lon="6.238416">
        <ele>20.218162</ele>
        <time>2024-03-31T15:11:10.000Z</time>
      </trkpt>
      <trkpt lat="51.614221" lon="6.238573">
        <ele>20.132044</ele>
        <time>2024-03-31T15:11:12.000Z</time>
      </trkpt>
      <trkpt lat="51.614237" lon="6.238746">
        <ele>20.037371</ele>
        <time>2024-03-31T15:11:14.000Z</time>
      </trkpt>
      <trkpt lat="51.614257" lon="6.238910">
        <ele>19.946906</ele>
        <time>2024-03-31T15:11:16.000Z</time>
      </trkpt>
      <trkpt lat="51.614270" lon="6.239072">
        <ele>19.858490</ele>
        <time>2024-03-31T15:11:18.000Z</time>
      </trkpt>
      <trkpt lat="51.614283" lon="6.239245">
        <ele>19.764166</ele>
        <time>2024-03-31T15:11:20.000Z</time>
      </trkpt>
      <trkpt lat="51.614301" lon="6.239415">
        <ele>19.670821</ele>
        <time>2024-03-31T15:11:22.000Z</time>
      </trkpt>
      <trkpt lat="51.614328" lon="6.239581">
        <ele>19.577938</ele>
        <time>2024-03-31T15:11:24.000Z</time>
      </trkpt>
      <trkpt lat="51.614358" lon="6.239731">
        <ele>19.492639</ele>
        <time>2024-03-31T15:11:26.000Z</time>
      </trkpt>
      <trkpt lat="51.614388" lon="6.239869">
        <ele>19.413498</ele>
        <time>2024-03-31T15:11:28.000Z</time>
      </trkpt>
      <trkpt lat="51.614417" lon="6.240010">
        <ele>19.333101</ele>
        <time>2024-03-31T15:11:30.000Z</time>
      </trkpt>
      <trkpt lat="51.614439" lon="6.240188">
        <ele>19.234864</ele>
        <time>2024-03-31T15:11:33.000Z</time>
      </trkpt>
      <trkpt lat="51.614357" lon="6.240263">
        <ele>19.152662</ele>
        <time>2024-03-31T15:11:35.999Z</time>
      </trkpt>
      <trkpt lat="51.614280" lon="6.240379">
        <ele>19.060920</ele>
        <time>2024-03-31T15:11:39.999Z</time>
      </trkpt>
      <trkpt lat="51.614181" lon="6.240403">
        <ele>18.973822</ele>
        <time>2024-03-31T15:11:41.999Z</time>
      </trkpt>
      <trkpt lat="51.614110" lon="6.240527">
        <ele>18.882704</ele>
        <time>2024-03-31T15:11:43.999Z</time>
      </trkpt>
      <trkpt lat="51.614140" lon="6.240704">
        <ele>18.783588</ele>
        <time>2024-03-31T15:11:45.999Z</time>
      </trkpt>
      <trkpt lat="51.614148" lon="6.240870">
        <ele>18.693643</ele>
        <time>2024-03-31T15:11:47.999Z</time>
      </trkpt>
      <trkpt lat="51.614167" lon="6.241044">
        <ele>18.598204</ele>
        <time>2024-03-31T15:11:49.999Z</time>
      </trkpt>
      <trkpt lat="51.614170" lon="6.241213">
        <ele>18.506871</ele>
        <time>2024-03-31T15:11:51.999Z</time>
      </trkpt>
      <trkpt lat="51.614162" lon="6.241380">
        <ele>18.416387</ele>
        <time>2024-03-31T15:11:53.999Z</time>
      </trkpt>
      <trkpt lat="51.614170" lon="6.241550">
        <ele>18.324288</ele>
        <time>2024-03-31T15:11:55.999Z</time>
      </trkpt>
      <trkpt lat="51.614174" lon="6.241720">
        <ele>18.232385</ele>
        <time>2024-03-31T15:11:57.999Z</time>
      </trkpt>
      <trkpt lat="51.614179" lon="6.241893">
        <ele>18.138827</ele>
        <time>2024-03-31T15:11:59.999Z</time>
      </trkpt>
      <trkpt lat="51.614181" lon="6.242065">
        <ele>18.045895</ele>
        <time>2024-03-31T15:12:01.999Z</time>
      </trkpt>
      <trkpt lat="51.614191" lon="6.242232">
        <ele>17.955261</ele>
        <time>2024-03-31T15:12:03.999Z</time>
      </trkpt>
      <trkpt lat="51.614190" lon="6.242415">
        <ele>17.856398</ele>
        <time>2024-03-31T15:12:05.999Z</time>
      </trkpt>
      <trkpt lat="51.614195" lon="6.242592">
        <ele>17.760681</ele>
        <time>2024-03-31T15:12:07.999Z</time>
      </trkpt>
      <trkpt lat="51.614200" lon="6.242797">
        <ele>17.649852</ele>
        <time>2024-03-31T15:12:09.999Z</time>
      </trkpt>
      <trkpt lat="51.614194" lon="6.242998">
        <ele>17.652476</ele>
        <time>2024-03-31T15:12:11.999Z</time>
      </trkpt>
      <trkpt lat="51.614191" lon="6.243188">
        <ele>17.834973</ele>
        <time>2024-03-31T15:12:13.999Z</time>
      </trkpt>
      <trkpt lat="51.614190" lon="6.243376">
        <ele>18.015498</ele>
        <time>2024-03-31T15:12:15.999Z</time>
      </trkpt>
      <trkpt lat="51.614208" lon="6.243548">
        <ele>18.182981</ele>
        <time>2024-03-31T15:12:17.999Z</time>
      </trkpt>
      <trkpt lat="51.614302" lon="6.243629">
        <ele>18.347837</ele>
        <time>2024-03-31T15:12:19.998Z</time>
      </trkpt>
      <trkpt lat="51.614413" lon="6.243641">
        <ele>18.519866</ele>
        <time>2024-03-31T15:12:21.998Z</time>
      </trkpt>
      <trkpt lat="51.614517" lon="6.243667">
        <ele>18.682611</ele>
        <time>2024-03-31T15:12:23.998Z</time>
      </trkpt>
      <trkpt lat="51.614623" lon="6.243697">
        <ele>18.849034</ele>
        <time>2024-03-31T15:12:25.998Z</time>
      </trkpt>
      <trkpt lat="51.614718" lon="6.243725">
        <ele>18.998375</ele>
        <time>2024-03-31T15:12:27.998Z</time>
      </trkpt>
      <trkpt lat="51.614828" lon="6.243773">
        <ele>19.174605</ele>
        <time>2024-03-31T15:12:30.998Z</time>
      </trkpt>
      <trkpt lat="51.614899" lon="6.243865">
        <ele>19.315521</ele>
        <time>2024-03-31T15:12:34.998Z</time>
      </trkpt>
      <trkpt lat="51.614908" lon="6.244049">
        <ele>19.492742</ele>
        <time>2024-03-31T15:12:37.998Z</time>
      </trkpt>
      <trkpt lat="51.614861" lon="6.244184">
        <ele>19.641352</ele>
        <time>2024-03-31T15:12:39.998Z</time>
      </trkpt>
      <trkpt lat="51.614805" lon="6.244316">
        <ele>19.794854</ele>
        <time>2024-03-31T15:12:41.998Z</time>
      </trkpt>
      <trkpt lat="51.614740" lon="6.244430">
        <ele>19.943462</ele>
        <time>2024-03-31T15:12:43.998Z</time>
      </trkpt>
      <trkpt lat="51.614677" lon="6.244556">
        <ele>20.098792</ele>
        <time>2024-03-31T15:12:45.998Z</time>
      </trkpt>
      <trkpt lat="51.614615" lon="6.244683">
        <ele>20.253911</ele>
        <time>2024-03-31T15:12:47.998Z</time>
      </trkpt>
      <trkpt lat="51.614550" lon="6.244809">
        <ele>20.363563</ele>
        <time>2024-03-31T15:12:49.998Z</time>
      </trkpt>
      <trkpt lat="51.614481" lon="6.244935">
        <ele>20.366991</ele>
        <time>2024-03-31T15:12:51.998Z</time>
      </trkpt>
      <trkpt lat="51.614418" lon="6.245050">
        <ele>20.370121</ele>
        <time>2024-03-31T15:12:53.998Z</time>
      </trkpt>
      <trkpt lat="51.614349" lon="6.245167">
        <ele>20.373413</ele>
        <time>2024-03-31T15:12:55.998Z</time>
      </trkpt>
      <trkpt lat="51.614277" lon="6.245290">
        <ele>20.376863</ele>
        <time>2024-03-31T15:12:57.998Z</time>
      </trkpt>
      <trkpt lat="51.614208" lon="6.245411">
        <ele>20.380215</ele>
        <time>2024-03-31T15:12:59.998Z</time>
      </trkpt>
      <trkpt lat="51.614133" lon="6.245541">
        <ele>20.383836</ele>
        <time>2024-03-31T15:13:01.998Z</time>
      </trkpt>
      <trkpt lat="51.614059" lon="6.245664">
        <ele>20.387331</ele>
        <time>2024-03-31T15:13:03.997Z</time>
      </trkpt>
      <trkpt lat="51.613987" lon="6.245791">
        <ele>20.390840</ele>
        <time>2024-03-31T15:13:05.997Z</time>
      </trkpt>
      <trkpt lat="51.613914" lon="6.245906">
        <ele>20.394196</ele>
        <time>2024-03-31T15:13:07.997Z</time>
      </trkpt>
      <trkpt lat="51.613840" lon="6.246011">
        <ele>20.397437</ele>
        <time>2024-03-31T15:13:09.997Z</time>
      </trkpt>
      <trkpt lat="51.613767" lon="6.246120">
        <ele>20.400709</ele>
        <time>2024-03-31T15:13:11.997Z</time>
      </trkpt>
      <trkpt lat="51.613690" lon="6.246231">
        <ele>20.404105</ele>
        <time>2024-03-31T15:13:13.997Z</time>
      </trkpt>
      <trkpt lat="51.613614" lon="6.246352">
        <ele>20.407617</ele>
        <time>2024-03-31T15:13:16.000Z</time>
      </trkpt>
      <trkpt lat="51.613538" lon="6.246465">
        <ele>20.411016</ele>
        <time>2024-03-31T15:13:18.000Z</time>
      </trkpt>
      <trkpt lat="51.613465" lon="6.246568">
        <ele>20.414206</ele>
        <time>2024-03-31T15:13:20.000Z</time>
      </trkpt>
      <trkpt lat="51.613373" lon="6.246714">
        <ele>20.418451</ele>
        <time>2024-03-31T15:13:23.000Z</time>
      </trkpt>
      <trkpt lat="51.613283" lon="6.246842">
        <ele>20.418538</ele>
        <time>2024-03-31T15:13:26.000Z</time>
      </trkpt>
      <trkpt lat="51.613249" lon="6.247006">
        <ele>20.404141</ele>
        <time>2024-03-31T15:13:29.000Z</time>
      </trkpt>
      <trkpt lat="51.613118" lon="6.247125">
        <ele>20.383973</ele>
        <time>2024-03-31T15:13:31.000Z</time>
      </trkpt>
      <trkpt lat="51.613038" lon="6.247234">
        <ele>20.369921</ele>
        <time>2024-03-31T15:13:33.000Z</time>
      </trkpt>
      <trkpt lat="51.612960" lon="6.247343">
        <ele>20.356073</ele>
        <time>2024-03-31T15:13:35.000Z</time>
      </trkpt>
      <trkpt lat="51.612881" lon="6.247453">
        <ele>20.342069</ele>
        <time>2024-03-31T15:13:37.000Z</time>
      </trkpt>
      <trkpt lat="51.612802" lon="6.247563">
        <ele>20.328065</ele>
        <time>2024-03-31T15:13:38.999Z</time>
      </trkpt>
      <trkpt lat="51.612728" lon="6.247680">
        <ele>20.314159</ele>
        <time>2024-03-31T15:13:40.999Z</time>
      </trkpt>
      <trkpt lat="51.612654" lon="6.247796">
        <ele>20.300311</ele>
        <time>2024-03-31T15:13:42.999Z</time>
      </trkpt>
      <trkpt lat="51.612577" lon="6.247904">
        <ele>20.286619</ele>
        <time>2024-03-31T15:13:44.999Z</time>
      </trkpt>
      <trkpt lat="51.612505" lon="6.248012">
        <ele>20.273425</ele>
        <time>2024-03-31T15:13:46.999Z</time>
      </trkpt>
      <trkpt lat="51.612432" lon="6.248132">
        <ele>20.259437</ele>
        <time>2024-03-31T15:13:49.000Z</time>
      </trkpt>
      <trkpt lat="51.612352" lon="6.248239">
        <ele>20.245492</ele>
        <time>2024-03-31T15:13:50.999Z</time>
      </trkpt>
      <trkpt lat="51.612270" lon="6.248345">
        <ele>20.231392</ele>
        <time>2024-03-31T15:13:52.999Z</time>
      </trkpt>
      <trkpt lat="51.612198" lon="6.248441">
        <ele>20.218858</ele>
        <time>2024-03-31T15:13:54.999Z</time>
      </trkpt>
      <trkpt lat="51.612099" lon="6.248558">
        <ele>20.202391</ele>
        <time>2024-03-31T15:13:57.999Z</time>
      </trkpt>
      <trkpt lat="51.612005" lon="6.248664">
        <ele>20.187004</ele>
        <time>2024-03-31T15:14:00.999Z</time>
      </trkpt>
      <trkpt lat="51.611896" lon="6.248780">
        <ele>20.196250</ele>
        <time>2024-03-31T15:14:03.999Z</time>
      </trkpt>
      <trkpt lat="51.611804" lon="6.248845">
        <ele>20.215652</ele>
        <time>2024-03-31T15:14:05.999Z</time>
      </trkpt>
      <trkpt lat="51.611708" lon="6.248898">
        <ele>20.235251</ele>
        <time>2024-03-31T15:14:07.999Z</time>
      </trkpt>
      <trkpt lat="51.611614" lon="6.248933">
        <ele>20.253883</ele>
        <time>2024-03-31T15:14:09.999Z</time>
      </trkpt>
      <trkpt lat="51.611516" lon="6.248958">
        <ele>20.273044</ele>
        <time>2024-03-31T15:14:11.999Z</time>
      </trkpt>
      <trkpt lat="51.611418" lon="6.248962">
        <ele>20.291976</ele>
        <time>2024-03-31T15:14:13.999Z</time>
      </trkpt>
      <trkpt lat="51.611313" lon="6.248957">
        <ele>20.312262</ele>
        <time>2024-03-31T15:14:15.999Z</time>
      </trkpt>
      <trkpt lat="51.611213" lon="6.248950">
        <ele>20.331592</ele>
        <time>2024-03-31T15:14:17.999Z</time>
      </trkpt>
      <trkpt lat="51.611107" lon="6.248930">
        <ele>20.352203</ele>
        <time>2024-03-31T15:14:19.999Z</time>
      </trkpt>
      <trkpt lat="51.610998" lon="6.248917">
        <ele>20.373311</ele>
        <time>2024-03-31T15:14:21.998Z</time>
      </trkpt>
      <trkpt lat="51.610889" lon="6.248882">
        <ele>20.394775</ele>
        <time>2024-03-31T15:14:23.998Z</time>
      </trkpt>
      <trkpt lat="51.610776" lon="6.248845">
        <ele>20.417044</ele>
        <time>2024-03-31T15:14:25.998Z</time>
      </trkpt>
      <trkpt lat="51.610657" lon="6.248809">
        <ele>20.440427</ele>
        <time>2024-03-31T15:14:27.998Z</time>
      </trkpt>
      <trkpt lat="51.610545" lon="6.248762">
        <ele>20.462779</ele>
        <time>2024-03-31T15:14:29.998Z</time>
      </trkpt>
      <trkpt lat="51.610420" lon="6.248731">
        <ele>20.487203</ele>
        <time>2024-03-31T15:14:31.998Z</time>
      </trkpt>
      <trkpt lat="51.610299" lon="6.248710">
        <ele>20.510706</ele>
        <time>2024-03-31T15:14:33.998Z</time>
      </trkpt>
      <trkpt lat="51.610181" lon="6.248681">
        <ele>20.529623</ele>
        <time>2024-03-31T15:14:35.998Z</time>
      </trkpt>
      <trkpt lat="51.610060" lon="6.248664">
        <ele>20.536788</ele>
        <time>2024-03-31T15:14:37.998Z</time>
      </trkpt>
      <trkpt lat="51.609942" lon="6.248666">
        <ele>20.543750</ele>
        <time>2024-03-31T15:14:39.998Z</time>
      </trkpt>
      <trkpt lat="51.609825" lon="6.248677">
        <ele>20.550665</ele>
        <time>2024-03-31T15:14:41.998Z</time>
      </trkpt>
      <trkpt lat="51.609709" lon="6.248695">
        <ele>20.557540</ele>
        <time>2024-03-31T15:14:43.998Z</time>
      </trkpt>
      <trkpt lat="51.609592" lon="6.248718">
        <ele>20.564494</ele>
        <time>2024-03-31T15:14:45.998Z</time>
      </trkpt>
      <trkpt lat="51.609474" lon="6.248742">
        <ele>20.571511</ele>
        <time>2024-03-31T15:14:47.998Z</time>
      </trkpt>
      <trkpt lat="51.609358" lon="6.248772">
        <ele>20.578442</ele>
        <time>2024-03-31T15:14:49.998Z</time>
      </trkpt>
      <trkpt lat="51.609245" lon="6.248801">
        <ele>20.585193</ele>
        <time>2024-03-31T15:14:51.998Z</time>
      </trkpt>
      <trkpt lat="51.609129" lon="6.248838">
        <ele>20.592169</ele>
        <time>2024-03-31T15:14:53.998Z</time>
      </trkpt>
      <trkpt lat="51.609013" lon="6.248874">
        <ele>20.599139</ele>
        <time>2024-03-31T15:14:55.998Z</time>
      </trkpt>
      <trkpt lat="51.608902" lon="6.248924">
        <ele>20.605939</ele>
        <time>2024-03-31T15:14:57.998Z</time>
      </trkpt>
      <trkpt lat="51.608790" lon="6.248959">
        <ele>20.612670</ele>
        <time>2024-03-31T15:14:59.998Z</time>
      </trkpt>
      <trkpt lat="51.608685" lon="6.248976">
        <ele>20.618896</ele>
        <time>2024-03-31T15:15:01.998Z</time>
      </trkpt>
      <trkpt lat="51.608586" lon="6.249003">
        <ele>20.624819</ele>
        <time>2024-03-31T15:15:03.998Z</time>
      </trkpt>
      <trkpt lat="51.608490" lon="6.249020">
        <ele>20.630517</ele>
        <time>2024-03-31T15:15:05.998Z</time>
      </trkpt>
      <trkpt lat="51.608390" lon="6.249038">
        <ele>20.683566</ele>
        <time>2024-03-31T15:15:07.997Z</time>
      </trkpt>
      <trkpt lat="51.608269" lon="6.249053">
        <ele>20.823732</ele>
        <time>2024-03-31T15:15:09.997Z</time>
      </trkpt>
      <trkpt lat="51.608160" lon="6.249072">
        <ele>20.950359</ele>
        <time>2024-03-31T15:15:11.997Z</time>
      </trkpt>
      <trkpt lat="51.608047" lon="6.249115">
        <ele>21.084466</ele>
        <time>2024-03-31T15:15:13.997Z</time>
      </trkpt>
      <trkpt lat="51.607932" lon="6.249172">
        <ele>21.223438</ele>
        <time>2024-03-31T15:15:15.997Z</time>
      </trkpt>
      <trkpt lat="51.607826" lon="6.249246">
        <ele>21.356877</ele>
        <time>2024-03-31T15:15:17.997Z</time>
      </trkpt>
      <trkpt lat="51.607736" lon="6.249215">
        <ele>21.463176</ele>
        <time>2024-03-31T15:15:19.997Z</time>
      </trkpt>
      <trkpt lat="51.607649" lon="6.249171">
        <ele>21.568498</ele>
        <time>2024-03-31T15:15:22.000Z</time>
      </trkpt>
      <trkpt lat="51.607529" lon="6.249148">
        <ele>21.708074</ele>
        <time>2024-03-31T15:15:24.000Z</time>
      </trkpt>
      <trkpt lat="51.607397" lon="6.249172">
        <ele>21.861499</ele>
        <time>2024-03-31T15:15:26.000Z</time>
      </trkpt>
      <trkpt lat="51.607275" lon="6.249175">
        <ele>22.002422</ele>
        <time>2024-03-31T15:15:28.000Z</time>
      </trkpt>
      <trkpt lat="51.607148" lon="6.249159">
        <ele>22.149552</ele>
        <time>2024-03-31T15:15:30.000Z</time>
      </trkpt>
      <trkpt lat="51.607053" lon="6.249121">
        <ele>22.262609</ele>
        <time>2024-03-31T15:15:32.000Z</time>
      </trkpt>
      <trkpt lat="51.606956" lon="6.249085">
        <ele>22.377579</ele>
        <time>2024-03-31T15:15:34.000Z</time>
      </trkpt>
      <trkpt lat="51.606839" lon="6.249041">
        <ele>22.516348</ele>
        <time>2024-03-31T15:15:36.000Z</time>
      </trkpt>
      <trkpt lat="51.606751" lon="6.248990">
        <ele>22.624369</ele>
        <time>2024-03-31T15:15:38.000Z</time>
      </trkpt>
      <trkpt lat="51.606650" lon="6.248929">
        <ele>22.694269</ele>
        <time>2024-03-31T15:15:40.000Z</time>
      </trkpt>
      <trkpt lat="51.606553" lon="6.248887">
        <ele>22.641791</ele>
        <time>2024-03-31T15:15:41.000Z</time>
      </trkpt>
      <trkpt lat="51.606423" lon="6.248853">
        <ele>22.572983</ele>
        <time>2024-03-31T15:15:43.000Z</time>
      </trkpt>
      <trkpt lat="51.606291" lon="6.248770">
        <ele>22.498948</ele>
        <time>2024-03-31T15:15:45.000Z</time>
      </trkpt>
      <trkpt lat="51.606186" lon="6.248684">
        <ele>22.437402</ele>
        <time>2024-03-31T15:15:46.999Z</time>
      </trkpt>
      <trkpt lat="51.606079" lon="6.248639">
        <ele>22.379624</ele>
        <time>2024-03-31T15:15:48.999Z</time>
      </trkpt>
      <trkpt lat="51.605971" lon="6.248610">
        <ele>22.322421</ele>
        <time>2024-03-31T15:15:50.999Z</time>
      </trkpt>
      <trkpt lat="51.605843" lon="6.248571">
        <ele>22.254361</ele>
        <time>2024-03-31T15:15:52.999Z</time>
      </trkpt>
      <trkpt lat="51.605725" lon="6.248510">
        <ele>22.189612</ele>
        <time>2024-03-31T15:15:54.999Z</time>
      </trkpt>
      <trkpt lat="51.605611" lon="6.248456">
        <ele>22.127530</ele>
        <time>2024-03-31T15:15:56.999Z</time>
      </trkpt>
      <trkpt lat="51.605495" lon="6.248394">
        <ele>22.063674</ele>
        <time>2024-03-31T15:15:58.999Z</time>
      </trkpt>
      <trkpt lat="51.605380" lon="6.248341">
        <ele>22.001180</ele>
        <time>2024-03-31T15:16:00.999Z</time>
      </trkpt>
      <trkpt lat="51.605267" lon="6.248288">
        <ele>21.939689</ele>
        <time>2024-03-31T15:16:02.999Z</time>
      </trkpt>
      <trkpt lat="51.605156" lon="6.248223">
        <ele>21.877981</ele>
        <time>2024-03-31T15:16:04.999Z</time>
      </trkpt>
      <trkpt lat="51.605074" lon="6.248069">
        <ele>21.812161</ele>
        <time>2024-03-31T15:16:06.999Z</time>
      </trkpt>
      <trkpt lat="51.605047" lon="6.247881">
        <ele>21.810543</ele>
        <time>2024-03-31T15:16:08.999Z</time>
      </trkpt>
      <trkpt lat="51.605023" lon="6.247699">
        <ele>21.917119</ele>
        <time>2024-03-31T15:16:10.999Z</time>
      </trkpt>
      <trkpt lat="51.604969" lon="6.247538">
        <ele>22.021931</ele>
        <time>2024-03-31T15:16:12.999Z</time>
      </trkpt>
      <trkpt lat="51.604866" lon="6.247425">
        <ele>22.136883</ele>
        <time>2024-03-31T15:16:14.999Z</time>
      </trkpt>
      <trkpt lat="51.604746" lon="6.247364">
        <ele>22.252942</ele>
        <time>2024-03-31T15:16:16.999Z</time>
      </trkpt>
      <trkpt lat="51.604620" lon="6.247323">
        <ele>22.371500</ele>
        <time>2024-03-31T15:16:18.999Z</time>
      </trkpt>
      <trkpt lat="51.604506" lon="6.247272">
        <ele>22.480624</ele>
        <time>2024-03-31T15:16:20.999Z</time>
      </trkpt>
      <trkpt lat="51.604388" lon="6.247229">
        <ele>22.592207</ele>
        <time>2024-03-31T15:16:22.999Z</time>
      </trkpt>
      <trkpt lat="51.604270" lon="6.247178">
        <ele>22.704890</ele>
        <time>2024-03-31T15:16:24.999Z</time>
      </trkpt>
      <trkpt lat="51.604156" lon="6.247129">
        <ele>22.813713</ele>
        <time>2024-03-31T15:16:26.999Z</time>
      </trkpt>
      <trkpt lat="51.604044" lon="6.247074">
        <ele>22.921707</ele>
        <time>2024-03-31T15:16:28.999Z</time>
      </trkpt>
      <trkpt lat="51.603938" lon="6.247015">
        <ele>23.025146</ele>
        <time>2024-03-31T15:16:30.999Z</time>
      </trkpt>
      <trkpt lat="51.603831" lon="6.246955">
        <ele>23.129645</ele>
        <time>2024-03-31T15:16:32.998Z</time>
      </trkpt>
      <trkpt lat="51.603749" lon="6.246889">
        <ele>23.214196</ele>
        <time>2024-03-31T15:16:34.998Z</time>
      </trkpt>
      <trkpt lat="51.603646" lon="6.246792">
        <ele>23.324249</ele>
        <time>2024-03-31T15:16:37.998Z</time>
      </trkpt>
      <trkpt lat="51.603539" lon="6.246722">
        <ele>23.430302</ele>
        <time>2024-03-31T15:16:41.998Z</time>
      </trkpt>
      <trkpt lat="51.603442" lon="6.246726">
        <ele>23.378301</ele>
        <time>2024-03-31T15:16:43.998Z</time>
      </trkpt>
      <trkpt lat="51.603346" lon="6.246734">
        <ele>23.326784</ele>
        <time>2024-03-31T15:16:45.998Z</time>
      </trkpt>
      <trkpt lat="51.603243" lon="6.246757">
        <ele>23.271057</ele>
        <time>2024-03-31T15:16:47.998Z</time>
      </trkpt>
      <trkpt lat="51.603149" lon="6.246753">
        <ele>23.220663</ele>
        <time>2024-03-31T15:16:49.998Z</time>
      </trkpt>
      <trkpt lat="51.603053" lon="6.246755">
        <ele>23.169211</ele>
        <time>2024-03-31T15:16:51.998Z</time>
      </trkpt>
      <trkpt lat="51.602956" lon="6.246788">
        <ele>23.116079</ele>
        <time>2024-03-31T15:16:53.998Z</time>
      </trkpt>
      <trkpt lat="51.602859" lon="6.246837">
        <ele>23.061597</ele>
        <time>2024-03-31T15:16:55.998Z</time>
      </trkpt>
      <trkpt lat="51.602763" lon="6.246918">
        <ele>23.003512</ele>
        <time>2024-03-31T15:16:57.998Z</time>
      </trkpt>
      <trkpt lat="51.602671" lon="6.247006">
        <ele>22.946163</ele>
        <time>2024-03-31T15:16:59.998Z</time>
      </trkpt>
      <trkpt lat="51.602580" lon="6.247101">
        <ele>22.888040</ele>
        <time>2024-03-31T15:17:01.998Z</time>
      </trkpt>
      <trkpt lat="51.602487" lon="6.247195">
        <ele>22.829192</ele>
        <time>2024-03-31T15:17:03.998Z</time>
      </trkpt>
      <trkpt lat="51.602404" lon="6.247273">
        <ele>22.777688</ele>
        <time>2024-03-31T15:17:05.998Z</time>
      </trkpt>
      <trkpt lat="51.602312" lon="6.247369">
        <ele>22.718934</ele>
        <time>2024-03-31T15:17:07.998Z</time>
      </trkpt>
      <trkpt lat="51.602226" lon="6.247458">
        <ele>22.664145</ele>
        <time>2024-03-31T15:17:09.998Z</time>
      </trkpt>
      <trkpt lat="51.602144" lon="6.247551">
        <ele>22.610391</ele>
        <time>2024-03-31T15:17:11.998Z</time>
      </trkpt>
      <trkpt lat="51.602058" lon="6.247644">
        <ele>22.554871</ele>
        <time>2024-03-31T15:17:13.998Z</time>
      </trkpt>
      <trkpt lat="51.601972" lon="6.247739">
        <ele>22.498976</ele>
        <time>2024-03-31T15:17:15.997Z</time>
      </trkpt>
      <trkpt lat="51.601892" lon="6.247831">
        <ele>22.460910</ele>
        <time>2024-03-31T15:17:17.997Z</time>
      </trkpt>
      <trkpt lat="51.601805" lon="6.247926">
        <ele>22.445224</ele>
        <time>2024-03-31T15:17:19.997Z</time>
      </trkpt>
      <trkpt lat="51.601725" lon="6.248023">
        <ele>22.430280</ele>
        <time>2024-03-31T15:17:21.997Z</time>
      </trkpt>
      <trkpt lat="51.601641" lon="6.248120">
        <ele>22.414855</ele>
        <time>2024-03-31T15:17:23.997Z</time>
      </trkpt>
      <trkpt lat="51.601563" lon="6.248233">
        <ele>22.399197</ele>
        <time>2024-03-31T15:17:25.997Z</time>
      </trkpt>
      <trkpt lat="51.601483" lon="6.248298">
        <ele>22.385826</ele>
        <time>2024-03-31T15:17:28.000Z</time>
      </trkpt>
      <trkpt lat="51.601375" lon="6.248327">
        <ele>22.369488</ele>
        <time>2024-03-31T15:17:30.000Z</time>
      </trkpt>
      <trkpt lat="51.601256" lon="6.248343">
        <ele>22.351669</ele>
        <time>2024-03-31T15:17:32.000Z</time>
      </trkpt>
      <trkpt lat="51.601148" lon="6.248374">
        <ele>22.335299</ele>
        <time>2024-03-31T15:17:34.000Z</time>
      </trkpt>
      <trkpt lat="51.601046" lon="6.248393">
        <ele>22.319977</ele>
        <time>2024-03-31T15:17:36.000Z</time>
      </trkpt>
      <trkpt lat="51.600950" lon="6.248402">
        <ele>22.305628</ele>
        <time>2024-03-31T15:17:38.000Z</time>
      </trkpt>
      <trkpt lat="51.600855" lon="6.248360">
        <ele>22.290928</ele>
        <time>2024-03-31T15:17:40.000Z</time>
      </trkpt>
      <trkpt lat="51.600747" lon="6.248393">
        <ele>22.274524</ele>
        <time>2024-03-31T15:17:42.000Z</time>
      </trkpt>
      <trkpt lat="51.600634" lon="6.248358">
        <ele>22.257354</ele>
        <time>2024-03-31T15:17:44.000Z</time>
      </trkpt>
      <trkpt lat="51.600522" lon="6.248315">
        <ele>22.240173</ele>
        <time>2024-03-31T15:17:46.000Z</time>
      </trkpt>
      <trkpt lat="51.600407" lon="6.248282">
        <ele>22.222742</ele>
        <time>2024-03-31T15:17:48.000Z</time>
      </trkpt>
      <trkpt lat="51.600300" lon="6.248248">
        <ele>22.206468</ele>
        <time>2024-03-31T15:17:49.999Z</time>
      </trkpt>
      <trkpt lat="51.600183" lon="6.248210">
        <ele>22.284733</ele>
        <time>2024-03-31T15:17:51.999Z</time>
      </trkpt>
      <trkpt lat="51.600068" lon="6.248190">
        <ele>22.441943</ele>
        <time>2024-03-31T15:17:53.999Z</time>
      </trkpt>
      <trkpt lat="51.599958" lon="6.248156">
        <ele>22.594178</ele>
        <time>2024-03-31T15:17:55.999Z</time>
      </trkpt>
      <trkpt lat="51.599844" lon="6.248131">
        <ele>22.750550</ele>
        <time>2024-03-31T15:17:57.999Z</time>
      </trkpt>
      <trkpt lat="51.599747" lon="6.248101">
        <ele>22.884797</ele>
        <time>2024-03-31T15:17:59.999Z</time>
      </trkpt>
      <trkpt lat="51.599617" lon="6.248063">
        <ele>23.064373</ele>
        <time>2024-03-31T15:18:01.999Z</time>
      </trkpt>
      <trkpt lat="51.599492" lon="6.248030">
        <ele>23.236534</ele>
        <time>2024-03-31T15:18:03.999Z</time>
      </trkpt>
      <trkpt lat="51.599367" lon="6.247992">
        <ele>23.409428</ele>
        <time>2024-03-31T15:18:05.999Z</time>
      </trkpt>
      <trkpt lat="51.599253" lon="6.247968">
        <ele>23.565688</ele>
        <time>2024-03-31T15:18:07.999Z</time>
      </trkpt>
      <trkpt lat="51.599144" lon="6.247932">
        <ele>23.716919</ele>
        <time>2024-03-31T15:18:09.999Z</time>
      </trkpt>
      <trkpt lat="51.599031" lon="6.247895">
        <ele>23.873646</ele>
        <time>2024-03-31T15:18:11.999Z</time>
      </trkpt>
      <trkpt lat="51.598927" lon="6.247870">
        <ele>24.016563</ele>
        <time>2024-03-31T15:18:13.999Z</time>
      </trkpt>
      <trkpt lat="51.598823" lon="6.247821">
        <ele>24.163842</ele>
        <time>2024-03-31T15:18:15.999Z</time>
      </trkpt>
      <trkpt lat="51.598714" lon="6.247809">
        <ele>24.312334</ele>
        <time>2024-03-31T15:18:17.999Z</time>
      </trkpt>
      <trkpt lat="51.598612" lon="6.247799">
        <ele>24.451222</ele>
        <time>2024-03-31T15:18:19.999Z</time>
      </trkpt>
      <trkpt lat="51.598520" lon="6.247811">
        <ele>24.576672</ele>
        <time>2024-03-31T15:18:21.999Z</time>
      </trkpt>
      <trkpt lat="51.598426" lon="6.247812">
        <ele>24.580107</ele>
        <time>2024-03-31T15:18:23.999Z</time>
      </trkpt>
      <trkpt lat="51.598319" lon="6.247823">
        <ele>24.432075</ele>
        <time>2024-03-31T15:18:25.999Z</time>
      </trkpt>
      <trkpt lat="51.598213" lon="6.247802">
        <ele>24.284620</ele>
        <time>2024-03-31T15:18:27.999Z</time>
      </trkpt>
      <trkpt lat="51.598107" lon="6.247824">
        <ele>24.137058</ele>
        <time>2024-03-31T15:18:29.999Z</time>
      </trkpt>
      <trkpt lat="51.597992" lon="6.247832">
        <ele>23.978133</ele>
        <time>2024-03-31T15:18:31.999Z</time>
      </trkpt>
      <trkpt lat="51.597881" lon="6.247850">
        <ele>23.824103</ele>
        <time>2024-03-31T15:18:33.998Z</time>
      </trkpt>
      <trkpt lat="51.597774" lon="6.247861">
        <ele>23.676071</ele>
        <time>2024-03-31T15:18:35.998Z</time>
      </trkpt>
      <trkpt lat="51.597681" lon="6.247860">
        <ele>23.547666</ele>
        <time>2024-03-31T15:18:37.998Z</time>
      </trkpt>
      <trkpt lat="51.597564" lon="6.247881">
        <ele>23.385127</ele>
        <time>2024-03-31T15:18:40.998Z</time>
      </trkpt>
      <trkpt lat="51.597429" lon="6.247910">
        <ele>23.197084</ele>
        <time>2024-03-31T15:18:43.998Z</time>
      </trkpt>
      <trkpt lat="51.597327" lon="6.247928">
        <ele>23.055413</ele>
        <time>2024-03-31T15:18:45.998Z</time>
      </trkpt>
      <trkpt lat="51.597221" lon="6.247977">
        <ele>22.903148</ele>
        <time>2024-03-31T15:18:47.998Z</time>
      </trkpt>
      <trkpt lat="51.597116" lon="6.248038">
        <ele>22.749026</ele>
        <time>2024-03-31T15:18:49.998Z</time>
      </trkpt>
      <trkpt lat="51.597006" lon="6.248099">
        <ele>22.588394</ele>
        <time>2024-03-31T15:18:51.998Z</time>
      </trkpt>
      <trkpt lat="51.596906" lon="6.248187">
        <ele>22.431045</ele>
        <time>2024-03-31T15:18:53.998Z</time>
      </trkpt>
      <trkpt lat="51.596800" lon="6.248267">
        <ele>22.269409</ele>
        <time>2024-03-31T15:18:55.998Z</time>
      </trkpt>
      <trkpt lat="51.596697" lon="6.248343">
        <ele>22.153756</ele>
        <time>2024-03-31T15:18:57.998Z</time>
      </trkpt>
      <trkpt lat="51.596594" lon="6.248426">
        <ele>22.134336</ele>
        <time>2024-03-31T15:18:59.998Z</time>
      </trkpt>
      <trkpt lat="51.596487" lon="6.248502">
        <ele>22.114617</ele>
        <time>2024-03-31T15:19:01.998Z</time>
      </trkpt>
      <trkpt lat="51.596378" lon="6.248571">
        <ele>22.094869</ele>
        <time>2024-03-31T15:19:03.998Z</time>
      </trkpt>
      <trkpt lat="51.596273" lon="6.248651">
        <ele>22.075283</ele>
        <time>2024-03-31T15:19:05.998Z</time>
      </trkpt>
      <trkpt lat="51.596167" lon="6.248726">
        <ele>22.055761</ele>
        <time>2024-03-31T15:19:07.998Z</time>
      </trkpt>
      <trkpt lat="51.596058" lon="6.248805">
        <ele>22.035606</ele>
        <time>2024-03-31T15:19:09.998Z</time>
      </trkpt>
      <trkpt lat="51.595962" lon="6.248877">
        <ele>22.017749</ele>
        <time>2024-03-31T15:19:11.998Z</time>
      </trkpt>
      <trkpt lat="51.595868" lon="6.248935">
        <ele>22.000776</ele>
        <time>2024-03-31T15:19:13.998Z</time>
      </trkpt>
      <trkpt lat="51.595754" lon="6.249029">
        <ele>21.979180</ele>
        <time>2024-03-31T15:19:16.998Z</time>
      </trkpt>
      <trkpt lat="51.595641" lon="6.249103">
        <ele>21.958612</ele>
        <time>2024-03-31T15:19:19.997Z</time>
      </trkpt>
      <trkpt lat="51.595551" lon="6.249168">
        <ele>21.941980</ele>
        <time>2024-03-31T15:19:21.997Z</time>
      </trkpt>
      <trkpt lat="51.595465" lon="6.249241">
        <ele>21.925587</ele>
        <time>2024-03-31T15:19:23.997Z</time>
      </trkpt>
      <trkpt lat="51.595372" lon="6.249307">
        <ele>21.908451</ele>
        <time>2024-03-31T15:19:25.997Z</time>
      </trkpt>
      <trkpt lat="51.595281" lon="6.249380">
        <ele>21.891308</ele>
        <time>2024-03-31T15:19:27.997Z</time>
      </trkpt>
      <trkpt lat="51.595185" lon="6.249431">
        <ele>21.874264</ele>
        <time>2024-03-31T15:19:29.997Z</time>
      </trkpt>
      <trkpt lat="51.595096" lon="6.249496">
        <ele>21.857785</ele>
        <time>2024-03-31T15:19:31.997Z</time>
      </trkpt>
      <trkpt lat="51.595013" lon="6.249562">
        <ele>21.865843</ele>
        <time>2024-03-31T15:19:34.000Z</time>
      </trkpt>
      <trkpt lat="51.594897" lon="6.249600">
        <ele>21.879644</ele>
        <time>2024-03-31T15:19:37.000Z</time>
      </trkpt>
      <trkpt lat="51.594793" lon="6.249729">
        <ele>21.894950</ele>
        <time>2024-03-31T15:19:40.000Z</time>
      </trkpt>
      <trkpt lat="51.594700" lon="6.249761">
        <ele>21.906036</ele>
        <time>2024-03-31T15:19:42.000Z</time>
      </trkpt>
      <trkpt lat="51.594612" lon="6.249829">
        <ele>21.917416</ele>
        <time>2024-03-31T15:19:44.000Z</time>
      </trkpt>
      <trkpt lat="51.594524" lon="6.249903">
        <ele>21.928990</ele>
        <time>2024-03-31T15:19:46.000Z</time>
      </trkpt>
      <trkpt lat="51.594435" lon="6.249978">
        <ele>21.940701</ele>
        <time>2024-03-31T15:19:48.000Z</time>
      </trkpt>
      <trkpt lat="51.594340" lon="6.250051">
        <ele>21.952974</ele>
        <time>2024-03-31T15:19:50.000Z</time>
      </trkpt>
      <trkpt lat="51.594259" lon="6.250139">
        <ele>21.964366</ele>
        <time>2024-03-31T15:19:52.000Z</time>
      </trkpt>
      <trkpt lat="51.594164" lon="6.250216">
        <ele>21.976765</ele>
        <time>2024-03-31T15:19:53.999Z</time>
      </trkpt>
      <trkpt lat="51.594076" lon="6.250307">
        <ele>21.988959</ele>
        <time>2024-03-31T15:19:55.999Z</time>
      </trkpt>
      <trkpt lat="51.593983" lon="6.250402">
        <ele>22.001799</ele>
        <time>2024-03-31T15:19:57.999Z</time>
      </trkpt>
      <trkpt lat="51.593884" lon="6.250488">
        <ele>22.014914</ele>
        <time>2024-03-31T15:19:59.999Z</time>
      </trkpt>
      <trkpt lat="51.593781" lon="6.250576">
        <ele>22.028508</ele>
        <time>2024-03-31T15:20:01.999Z</time>
      </trkpt>
      <trkpt lat="51.593685" lon="6.250644">
        <ele>22.040735</ele>
        <time>2024-03-31T15:20:03.999Z</time>
      </trkpt>
      <trkpt lat="51.593586" lon="6.250707">
        <ele>22.053146</ele>
        <time>2024-03-31T15:20:05.999Z</time>
      </trkpt>
      <trkpt lat="51.593482" lon="6.250768">
        <ele>22.064628</ele>
        <time>2024-03-31T15:20:07.999Z</time>
      </trkpt>
      <trkpt lat="51.593377" lon="6.250830">
        <ele>21.983985</ele>
        <time>2024-03-31T15:20:09.999Z</time>
      </trkpt>
      <trkpt lat="51.593280" lon="6.250900">
        <ele>21.907337</ele>
        <time>2024-03-31T15:20:11.999Z</time>
      </trkpt>
      <trkpt lat="51.593180" lon="6.250972">
        <ele>21.828348</ele>
        <time>2024-03-31T15:20:13.999Z</time>
      </trkpt>
      <trkpt lat="51.593079" lon="6.251044">
        <ele>21.748700</ele>
        <time>2024-03-31T15:20:15.999Z</time>
      </trkpt>
      <trkpt lat="51.592985" lon="6.251143">
        <ele>21.667703</ele>
        <time>2024-03-31T15:20:17.999Z</time>
      </trkpt>
      <trkpt lat="51.592887" lon="6.251245">
        <ele>21.583555</ele>
        <time>2024-03-31T15:20:19.999Z</time>
      </trkpt>
      <trkpt lat="51.592796" lon="6.251330">
        <ele>21.507693</ele>
        <time>2024-03-31T15:20:21.999Z</time>
      </trkpt>
      <trkpt lat="51.592699" lon="6.251414">
        <ele>21.428272</ele>
        <time>2024-03-31T15:20:23.999Z</time>
      </trkpt>
      <trkpt lat="51.592601" lon="6.251492">
        <ele>21.349443</ele>
        <time>2024-03-31T15:20:25.999Z</time>
      </trkpt>
      <trkpt lat="51.592507" lon="6.251575">
        <ele>21.272137</ele>
        <time>2024-03-31T15:20:27.999Z</time>
      </trkpt>
      <trkpt lat="51.592415" lon="6.251660">
        <ele>21.195650</ele>
        <time>2024-03-31T15:20:29.999Z</time>
      </trkpt>
      <trkpt lat="51.592309" lon="6.251742">
        <ele>21.110851</ele>
        <time>2024-03-31T15:20:31.999Z</time>
      </trkpt>
      <trkpt lat="51.592198" lon="6.251819">
        <ele>21.023698</ele>
        <time>2024-03-31T15:20:33.999Z</time>
      </trkpt>
      <trkpt lat="51.592094" lon="6.251918">
        <ele>20.936578</ele>
        <time>2024-03-31T15:20:35.999Z</time>
      </trkpt>
      <trkpt lat="51.591995" lon="6.252017">
        <ele>20.852540</ele>
        <time>2024-03-31T15:20:37.999Z</time>
      </trkpt>
      <trkpt lat="51.591899" lon="6.252091">
        <ele>20.775792</ele>
        <time>2024-03-31T15:20:39.998Z</time>
      </trkpt>
      <trkpt lat="51.591798" lon="6.252178">
        <ele>20.813212</ele>
        <time>2024-03-31T15:20:41.998Z</time>
      </trkpt>
      <trkpt lat="51.591696" lon="6.252237">
        <ele>20.858880</ele>
        <time>2024-03-31T15:20:43.998Z</time>
      </trkpt>
      <trkpt lat="51.591595" lon="6.252327">
        <ele>20.907522</ele>
        <time>2024-03-31T15:20:45.998Z</time>
      </trkpt>
      <trkpt lat="51.591495" lon="6.252395">
        <ele>20.953262</ele>
        <time>2024-03-31T15:20:47.998Z</time>
      </trkpt>
      <trkpt lat="51.591411" lon="6.252503">
        <ele>20.998560</ele>
        <time>2024-03-31T15:20:49.998Z</time>
      </trkpt>
      <trkpt lat="51.591324" lon="6.252583">
        <ele>21.040777</ele>
        <time>2024-03-31T15:20:51.998Z</time>
      </trkpt>
      <trkpt lat="51.591247" lon="6.252681">
        <ele>21.082137</ele>
        <time>2024-03-31T15:20:53.998Z</time>
      </trkpt>
      <trkpt lat="51.591160" lon="6.252785">
        <ele>21.127798</ele>
        <time>2024-03-31T15:20:55.998Z</time>
      </trkpt>
      <trkpt lat="51.591094" lon="6.252924">
        <ele>21.173594</ele>
        <time>2024-03-31T15:20:57.998Z</time>
      </trkpt>
      <trkpt lat="51.591032" lon="6.253067">
        <ele>21.219241</ele>
        <time>2024-03-31T15:20:59.998Z</time>
      </trkpt>
      <trkpt lat="51.590977" lon="6.253229">
        <ele>21.267566</ele>
        <time>2024-03-31T15:21:01.998Z</time>
      </trkpt>
      <trkpt lat="51.590932" lon="6.253381">
        <ele>21.311642</ele>
        <time>2024-03-31T15:21:03.998Z</time>
      </trkpt>
      <trkpt lat="51.590904" lon="6.253540">
        <ele>21.354903</ele>
        <time>2024-03-31T15:21:05.998Z</time>
      </trkpt>
      <trkpt lat="51.590871" lon="6.253697">
        <ele>21.398289</ele>
        <time>2024-03-31T15:21:07.998Z</time>
      </trkpt>
      <trkpt lat="51.590836" lon="6.253839">
        <ele>21.438279</ele>
        <time>2024-03-31T15:21:09.998Z</time>
      </trkpt>
      <trkpt lat="51.590803" lon="6.253993">
        <ele>21.480922</ele>
        <time>2024-03-31T15:21:11.998Z</time>
      </trkpt>
      <trkpt lat="51.590777" lon="6.254151">
        <ele>21.523708</ele>
        <time>2024-03-31T15:21:13.998Z</time>
      </trkpt>
      <trkpt lat="51.590746" lon="6.254353">
        <ele>21.520544</ele>
        <time>2024-03-31T15:21:16.998Z</time>
      </trkpt>
      <trkpt lat="51.590708" lon="6.254505">
        <ele>21.515325</ele>
        <time>2024-03-31T15:21:19.998Z</time>
      </trkpt>
      <trkpt lat="51.590579" lon="6.254525">
        <ele>21.508681</ele>
        <time>2024-03-31T15:21:22.998Z</time>
      </trkpt>
      <trkpt lat="51.590475" lon="6.254541">
        <ele>21.503325</ele>
        <time>2024-03-31T15:21:24.997Z</time>
      </trkpt>
      <trkpt lat="51.590355" lon="6.254569">
        <ele>21.497108</ele>
        <time>2024-03-31T15:21:27.997Z</time>
      </trkpt>
      <trkpt lat="51.590267" lon="6.254609">
        <ele>21.492420</ele>
        <time>2024-03-31T15:21:29.997Z</time>
      </trkpt>
      <trkpt lat="51.590168" lon="6.254617">
        <ele>21.487339</ele>
        <time>2024-03-31T15:21:31.997Z</time>
      </trkpt>
      <trkpt lat="51.590068" lon="6.254612">
        <ele>21.482209</ele>
        <time>2024-03-31T15:21:33.997Z</time>
      </trkpt>
      <trkpt lat="51.589963" lon="6.254627">
        <ele>21.476805</ele>
        <time>2024-03-31T15:21:35.997Z</time>
      </trkpt>
      <trkpt lat="51.589864" lon="6.254599">
        <ele>21.471652</ele>
        <time>2024-03-31T15:21:37.997Z</time>
      </trkpt>
      <trkpt lat="51.589750" lon="6.254612">
        <ele>21.465793</ele>
        <time>2024-03-31T15:21:40.000Z</time>
      </trkpt>
      <trkpt lat="51.589653" lon="6.254567">
        <ele>21.460617</ele>
        <time>2024-03-31T15:21:42.000Z</time>
      </trkpt>
      <trkpt lat="51.589562" lon="6.254548">
        <ele>21.455913</ele>
        <time>2024-03-31T15:21:44.000Z</time>
      </trkpt>
      <trkpt lat="51.589472" lon="6.254533">
        <ele>21.451274</ele>
        <time>2024-03-31T15:21:46.000Z</time>
      </trkpt>
      <trkpt lat="51.589346" lon="6.254498">
        <ele>21.444719</ele>
        <time>2024-03-31T15:21:49.000Z</time>
      </trkpt>
      <trkpt lat="51.589254" lon="6.254479">
        <ele>21.439964</ele>
        <time>2024-03-31T15:21:51.000Z</time>
      </trkpt>
      <trkpt lat="51.589158" lon="6.254431">
        <ele>21.434810</ele>
        <time>2024-03-31T15:21:53.000Z</time>
      </trkpt>
      <trkpt lat="51.589059" lon="6.254393">
        <ele>21.411898</ele>
        <time>2024-03-31T15:21:55.000Z</time>
      </trkpt>
      <trkpt lat="51.588956" lon="6.254360">
        <ele>21.387426</ele>
        <time>2024-03-31T15:21:57.000Z</time>
      </trkpt>
      <trkpt lat="51.588843" lon="6.254314">
        <ele>21.360266</ele>
        <time>2024-03-31T15:21:59.000Z</time>
      </trkpt>
      <trkpt lat="51.588729" lon="6.254240">
        <ele>21.331624</ele>
        <time>2024-03-31T15:22:00.999Z</time>
      </trkpt>
      <trkpt lat="51.588623" lon="6.254147">
        <ele>21.303493</ele>
        <time>2024-03-31T15:22:02.999Z</time>
      </trkpt>
      <trkpt lat="51.588518" lon="6.254063">
        <ele>21.276170</ele>
        <time>2024-03-31T15:22:04.999Z</time>
      </trkpt>
      <trkpt lat="51.588416" lon="6.253977">
        <ele>21.249339</ele>
        <time>2024-03-31T15:22:06.999Z</time>
      </trkpt>
      <trkpt lat="51.588319" lon="6.253885">
        <ele>21.223104</ele>
        <time>2024-03-31T15:22:08.999Z</time>
      </trkpt>
      <trkpt lat="51.588224" lon="6.253797">
        <ele>21.197563</ele>
        <time>2024-03-31T15:22:10.999Z</time>
      </trkpt>
      <trkpt lat="51.588138" lon="6.253719">
        <ele>21.174561</ele>
        <time>2024-03-31T15:22:12.999Z</time>
      </trkpt>
      <trkpt lat="51.588055" lon="6.253645">
        <ele>21.152452</ele>
        <time>2024-03-31T15:22:14.999Z</time>
      </trkpt>
      <trkpt lat="51.587966" lon="6.253563">
        <ele>21.128556</ele>
        <time>2024-03-31T15:22:16.999Z</time>
      </trkpt>
      <trkpt lat="51.587870" lon="6.253489">
        <ele>21.103753</ele>
        <time>2024-03-31T15:22:18.999Z</time>
      </trkpt>
      <trkpt lat="51.587771" lon="6.253426">
        <ele>21.078947</ele>
        <time>2024-03-31T15:22:20.999Z</time>
      </trkpt>
      <trkpt lat="51.587672" lon="6.253353">
        <ele>21.053572</ele>
        <time>2024-03-31T15:22:22.999Z</time>
      </trkpt>
      <trkpt lat="51.587589" lon="6.253279">
        <ele>21.031463</ele>
        <time>2024-03-31T15:22:24.999Z</time>
      </trkpt>
      <trkpt lat="51.587482" lon="6.253198">
        <ele>21.058371</ele>
        <time>2024-03-31T15:22:26.999Z</time>
      </trkpt>
      <trkpt lat="51.587391" lon="6.253132">
        <ele>21.144674</ele>
        <time>2024-03-31T15:22:28.999Z</time>
      </trkpt>
      <trkpt lat="51.587270" lon="6.253041">
        <ele>21.260154</ele>
        <time>2024-03-31T15:22:31.999Z</time>
      </trkpt>
      <trkpt lat="51.587177" lon="6.252993">
        <ele>21.344600</ele>
        <time>2024-03-31T15:22:33.999Z</time>
      </trkpt>
      <trkpt lat="51.587080" lon="6.252928">
        <ele>21.435450</ele>
        <time>2024-03-31T15:22:35.999Z</time>
      </trkpt>
      <trkpt lat="51.586994" lon="6.252853">
        <ele>21.520024</ele>
        <time>2024-03-31T15:22:37.999Z</time>
      </trkpt>
      <trkpt lat="51.586900" lon="6.252787">
        <ele>21.608698</ele>
        <time>2024-03-31T15:22:39.999Z</time>
      </trkpt>
      <trkpt lat="51.586803" lon="6.252726">
        <ele>21.698744</ele>
        <time>2024-03-31T15:22:41.999Z</time>
      </trkpt>
      <trkpt lat="51.586705" lon="6.252653">
        <ele>21.792115</ele>
        <time>2024-03-31T15:22:43.999Z</time>
      </trkpt>
      <trkpt lat="51.586611" lon="6.252566">
        <ele>21.885872</ele>
        <time>2024-03-31T15:22:45.998Z</time>
      </trkpt>
      <trkpt lat="51.586509" lon="6.252501">
        <ele>21.980728</ele>
        <time>2024-03-31T15:22:47.998Z</time>
      </trkpt>
      <trkpt lat="51.586409" lon="6.252425">
        <ele>22.076348</ele>
        <time>2024-03-31T15:22:49.998Z</time>
      </trkpt>
      <trkpt lat="51.586311" lon="6.252347">
        <ele>22.170878</ele>
        <time>2024-03-31T15:22:51.998Z</time>
      </trkpt>
      <trkpt lat="51.586210" lon="6.252275">
        <ele>22.266391</ele>
        <time>2024-03-31T15:22:53.998Z</time>
      </trkpt>
      <trkpt lat="51.586103" lon="6.252206">
        <ele>22.366058</ele>
        <time>2024-03-31T15:22:55.998Z</time>
      </trkpt>
      <trkpt lat="51.585998" lon="6.252135">
        <ele>22.464533</ele>
        <time>2024-03-31T15:22:57.998Z</time>
      </trkpt>
      <trkpt lat="51.585897" lon="6.252059">
        <ele>22.560936</ele>
        <time>2024-03-31T15:22:59.998Z</time>
      </trkpt>
      <trkpt lat="51.585805" lon="6.251983">
        <ele>22.508617</ele>
        <time>2024-03-31T15:23:01.998Z</time>
      </trkpt>
      <trkpt lat="51.585712" lon="6.251933">
        <ele>22.442608</ele>
        <time>2024-03-31T15:23:03.998Z</time>
      </trkpt>
      <trkpt lat="51.585590" lon="6.251872">
        <ele>22.356604</ele>
        <time>2024-03-31T15:23:06.998Z</time>
      </trkpt>
      <trkpt lat="51.585492" lon="6.251767">
        <ele>22.277348</ele>
        <time>2024-03-31T15:23:09.998Z</time>
      </trkpt>
      <trkpt lat="51.585420" lon="6.251676">
        <ele>22.215717</ele>
        <time>2024-03-31T15:23:17.998Z</time>
      </trkpt>
      <trkpt lat="51.585271" lon="6.251584">
        <ele>22.108281</ele>
        <time>2024-03-31T15:23:48.000Z</time>
      </trkpt>
      <trkpt lat="51.585167" lon="6.251637">
        <ele>22.034841</ele>
        <time>2024-03-31T15:23:51.000Z</time>
      </trkpt>
      <trkpt lat="51.585076" lon="6.251619">
        <ele>21.973119</ele>
        <time>2024-03-31T15:23:53.000Z</time>
      </trkpt>
      <trkpt lat="51.584977" lon="6.251605">
        <ele>21.906215</ele>
        <time>2024-03-31T15:23:55.000Z</time>
      </trkpt>
      <trkpt lat="51.584872" lon="6.251599">
        <ele>21.835484</ele>
        <time>2024-03-31T15:23:57.000Z</time>
      </trkpt>
      <trkpt lat="51.584776" lon="6.251558">
        <ele>21.768619</ele>
        <time>2024-03-31T15:23:59.000Z</time>
      </trkpt>
      <trkpt lat="51.584676" lon="6.251542">
        <ele>21.700967</ele>
        <time>2024-03-31T15:24:01.000Z</time>
      </trkpt>
      <trkpt lat="51.584575" lon="6.251544">
        <ele>21.632968</ele>
        <time>2024-03-31T15:24:03.000Z</time>
      </trkpt>
      <trkpt lat="51.584480" lon="6.251521">
        <ele>21.568294</ele>
        <time>2024-03-31T15:24:05.000Z</time>
      </trkpt>
      <trkpt lat="51.584376" lon="6.251511">
        <ele>21.498156</ele>
        <time>2024-03-31T15:24:07.000Z</time>
      </trkpt>
      <trkpt lat="51.584268" lon="6.251490">
        <ele>21.424921</ele>
        <time>2024-03-31T15:24:08.999Z</time>
      </trkpt>
      <trkpt lat="51.584159" lon="6.251433">
        <ele>21.366915</ele>
        <time>2024-03-31T15:24:10.999Z</time>
      </trkpt>
      <trkpt lat="51.584060" lon="6.251324">
        <ele>21.414588</ele>
        <time>2024-03-31T15:24:12.999Z</time>
      </trkpt>
      <trkpt lat="51.583984" lon="6.251167">
        <ele>21.463737</ele>
        <time>2024-03-31T15:24:14.999Z</time>
      </trkpt>
      <trkpt lat="51.583911" lon="6.251030">
        <ele>21.508306</ele>
        <time>2024-03-31T15:24:16.999Z</time>
      </trkpt>
      <trkpt lat="51.583817" lon="6.250887">
        <ele>21.559714</ele>
        <time>2024-03-31T15:24:18.999Z</time>
      </trkpt>
      <trkpt lat="51.583727" lon="6.250757">
        <ele>21.607778</ele>
        <time>2024-03-31T15:24:20.999Z</time>
      </trkpt>
      <trkpt lat="51.583628" lon="6.250648">
        <ele>21.655451</ele>
        <time>2024-03-31T15:24:22.999Z</time>
      </trkpt>
      <trkpt lat="51.583515" lon="6.250562">
        <ele>21.705130</ele>
        <time>2024-03-31T15:24:24.999Z</time>
      </trkpt>
      <trkpt lat="51.583407" lon="6.250476">
        <ele>21.753020</ele>
        <time>2024-03-31T15:24:26.999Z</time>
      </trkpt>
      <trkpt lat="51.583305" lon="6.250404">
        <ele>21.797287</ele>
        <time>2024-03-31T15:24:28.999Z</time>
      </trkpt>
      <trkpt lat="51.583220" lon="6.250315">
        <ele>21.837590</ele>
        <time>2024-03-31T15:24:30.999Z</time>
      </trkpt>
      <trkpt lat="51.583139" lon="6.250241">
        <ele>21.874608</ele>
        <time>2024-03-31T15:24:32.999Z</time>
      </trkpt>
      <trkpt lat="51.583046" lon="6.250167">
        <ele>21.915841</ele>
        <time>2024-03-31T15:24:34.999Z</time>
      </trkpt>
      <trkpt lat="51.582965" lon="6.250067">
        <ele>21.956415</ele>
        <time>2024-03-31T15:24:36.999Z</time>
      </trkpt>
      <trkpt lat="51.582909" lon="6.249941">
        <ele>21.994672</ele>
        <time>2024-03-31T15:24:38.999Z</time>
      </trkpt>
      <trkpt lat="51.582830" lon="6.249848">
        <ele>22.033573</ele>
        <time>2024-03-31T15:24:40.999Z</time>
      </trkpt>
      <trkpt lat="51.582728" lon="6.249861">
        <ele>22.074239</ele>
        <time>2024-03-31T15:24:42.999Z</time>
      </trkpt>
      <trkpt lat="51.582635" lon="6.249972">
        <ele>22.043490</ele>
        <time>2024-03-31T15:24:44.999Z</time>
      </trkpt>
      <trkpt lat="51.582549" lon="6.250090">
        <ele>22.012795</ele>
        <time>2024-03-31T15:24:46.999Z</time>
      </trkpt>
      <trkpt lat="51.582457" lon="6.250192">
        <ele>21.982451</ele>
        <time>2024-03-31T15:24:48.999Z</time>
      </trkpt>
      <trkpt lat="51.582369" lon="6.250301">
        <ele>21.952290</ele>
        <time>2024-03-31T15:24:50.999Z</time>
      </trkpt>
      <trkpt lat="51.582279" lon="6.250414">
        <ele>21.921286</ele>
        <time>2024-03-31T15:24:52.999Z</time>
      </trkpt>
      <trkpt lat="51.582187" lon="6.250518">
        <ele>21.890750</ele>
        <time>2024-03-31T15:24:54.998Z</time>
      </trkpt>
      <trkpt lat="51.582090" lon="6.250624">
        <ele>21.858904</ele>
        <time>2024-03-31T15:24:56.998Z</time>
      </trkpt>
      <trkpt lat="51.581993" lon="6.250731">
        <ele>21.826963</ele>
        <time>2024-03-31T15:24:58.998Z</time>
      </trkpt>
      <trkpt lat="51.581897" lon="6.250835">
        <ele>21.795531</ele>
        <time>2024-03-31T15:25:00.998Z</time>
      </trkpt>
      <trkpt lat="51.581798" lon="6.250928">
        <ele>21.764396</ele>
        <time>2024-03-31T15:25:02.998Z</time>
      </trkpt>
      <trkpt lat="51.581692" lon="6.251004">
        <ele>21.732878</ele>
        <time>2024-03-31T15:25:04.998Z</time>
      </trkpt>
      <trkpt lat="51.581586" lon="6.251069">
        <ele>21.702069</ele>
        <time>2024-03-31T15:25:06.998Z</time>
      </trkpt>
      <trkpt lat="51.581483" lon="6.251116">
        <ele>21.672990</ele>
        <time>2024-03-31T15:25:08.998Z</time>
      </trkpt>
      <trkpt lat="51.581381" lon="6.251186">
        <ele>21.642873</ele>
        <time>2024-03-31T15:25:10.998Z</time>
      </trkpt>
      <trkpt lat="51.581272" lon="6.251270">
        <ele>21.610048</ele>
        <time>2024-03-31T15:25:12.998Z</time>
      </trkpt>
      <trkpt lat="51.581181" lon="6.251365">
        <ele>21.595210</ele>
        <time>2024-03-31T15:25:14.998Z</time>
      </trkpt>
      <trkpt lat="51.581110" lon="6.251468">
        <ele>21.637706</ele>
        <time>2024-03-31T15:25:16.998Z</time>
      </trkpt>
      <trkpt lat="51.581036" lon="6.251557">
        <ele>21.678776</ele>
        <time>2024-03-31T15:25:18.998Z</time>
      </trkpt>
      <trkpt lat="51.580919" lon="6.251643">
        <ele>21.735959</ele>
        <time>2024-03-31T15:25:21.998Z</time>
      </trkpt>
      <trkpt lat="51.580813" lon="6.251649">
        <ele>21.783112</ele>
        <time>2024-03-31T15:25:23.998Z</time>
      </trkpt>
      <trkpt lat="51.580706" lon="6.251765">
        <ele>21.840468</ele>
        <time>2024-03-31T15:25:25.998Z</time>
      </trkpt>
      <trkpt lat="51.580606" lon="6.251861">
        <ele>21.892234</ele>
        <time>2024-03-31T15:25:27.998Z</time>
      </trkpt>
      <trkpt lat="51.580512" lon="6.251979">
        <ele>21.945233</ele>
        <time>2024-03-31T15:25:29.998Z</time>
      </trkpt>
      <trkpt lat="51.580412" lon="6.252094">
        <ele>21.999875</ele>
        <time>2024-03-31T15:25:31.998Z</time>
      </trkpt>
      <trkpt lat="51.580334" lon="6.252241">
        <ele>22.053275</ele>
        <time>2024-03-31T15:25:33.998Z</time>
      </trkpt>
      <trkpt lat="51.580261" lon="6.252379">
        <ele>22.103341</ele>
        <time>2024-03-31T15:25:35.998Z</time>
      </trkpt>
      <trkpt lat="51.580179" lon="6.252526">
        <ele>22.157913</ele>
        <time>2024-03-31T15:25:37.998Z</time>
      </trkpt>
      <trkpt lat="51.580096" lon="6.252664">
        <ele>22.210969</ele>
        <time>2024-03-31T15:25:39.997Z</time>
      </trkpt>
      <trkpt lat="51.580024" lon="6.252803">
        <ele>22.260960</ele>
        <time>2024-03-31T15:25:41.997Z</time>
      </trkpt>
      <trkpt lat="51.579947" lon="6.252946">
        <ele>22.313233</ele>
        <time>2024-03-31T15:25:43.997Z</time>
      </trkpt>
      <trkpt lat="51.579848" lon="6.253060">
        <ele>22.367352</ele>
        <time>2024-03-31T15:25:45.997Z</time>
      </trkpt>
      <trkpt lat="51.579747" lon="6.253172">
        <ele>22.397136</ele>
        <time>2024-03-31T15:25:47.997Z</time>
      </trkpt>
      <trkpt lat="51.579647" lon="6.253286">
        <ele>22.414313</ele>
        <time>2024-03-31T15:25:49.997Z</time>
      </trkpt>
      <trkpt lat="51.579551" lon="6.253399">
        <ele>22.430983</ele>
        <time>2024-03-31T15:25:52.000Z</time>
      </trkpt>
      <trkpt lat="51.579453" lon="6.253510">
        <ele>22.447780</ele>
        <time>2024-03-31T15:25:54.000Z</time>
      </trkpt>
      <trkpt lat="51.579356" lon="6.253623">
        <ele>22.464564</ele>
        <time>2024-03-31T15:25:56.000Z</time>
      </trkpt>
      <trkpt lat="51.579266" lon="6.253739">
        <ele>22.480725</ele>
        <time>2024-03-31T15:25:58.000Z</time>
      </trkpt>
      <trkpt lat="51.579178" lon="6.253821">
        <ele>22.494978</ele>
        <time>2024-03-31T15:26:00.000Z</time>
      </trkpt>
      <trkpt lat="51.579091" lon="6.253897">
        <ele>22.508852</ele>
        <time>2024-03-31T15:26:02.000Z</time>
      </trkpt>
      <trkpt lat="51.579013" lon="6.253980">
        <ele>22.521959</ele>
        <time>2024-03-31T15:26:04.000Z</time>
      </trkpt>
      <trkpt lat="51.578918" lon="6.254086">
        <ele>22.538162</ele>
        <time>2024-03-31T15:26:07.000Z</time>
      </trkpt>
      <trkpt lat="51.578848" lon="6.254184">
        <ele>22.551166</ele>
        <time>2024-03-31T15:26:09.000Z</time>
      </trkpt>
      <trkpt lat="51.578765" lon="6.254286">
        <ele>22.565803</ele>
        <time>2024-03-31T15:26:11.000Z</time>
      </trkpt>
      <trkpt lat="51.578684" lon="6.254393">
        <ele>22.580492</ele>
        <time>2024-03-31T15:26:13.000Z</time>
      </trkpt>
      <trkpt lat="51.578589" lon="6.254504">
        <ele>22.596946</ele>
        <time>2024-03-31T15:26:14.999Z</time>
      </trkpt>
      <trkpt lat="51.578496" lon="6.254612">
        <ele>22.613021</ele>
        <time>2024-03-31T15:26:16.999Z</time>
      </trkpt>
      <trkpt lat="51.578403" lon="6.254711">
        <ele>22.628650</ele>
        <time>2024-03-31T15:26:18.999Z</time>
      </trkpt>
      <trkpt lat="51.578309" lon="6.254816">
        <ele>22.661248</ele>
        <time>2024-03-31T15:26:20.999Z</time>
      </trkpt>
      <trkpt lat="51.578219" lon="6.254945">
        <ele>22.718973</ele>
        <time>2024-03-31T15:26:22.999Z</time>
      </trkpt>
      <trkpt lat="51.578123" lon="6.255044">
        <ele>22.773583</ele>
        <time>2024-03-31T15:26:24.999Z</time>
      </trkpt>
      <trkpt lat="51.578024" lon="6.255140">
        <ele>22.828942</ele>
        <time>2024-03-31T15:26:26.999Z</time>
      </trkpt>
      <trkpt lat="51.577950" lon="6.255248">
        <ele>22.876789</ele>
        <time>2024-03-31T15:26:28.999Z</time>
      </trkpt>
      <trkpt lat="51.577873" lon="6.255349">
        <ele>22.924367</ele>
        <time>2024-03-31T15:26:30.999Z</time>
      </trkpt>
      <trkpt lat="51.577790" lon="6.255423">
        <ele>22.969813</ele>
        <time>2024-03-31T15:26:32.999Z</time>
      </trkpt>
      <trkpt lat="51.577658" lon="6.255436">
        <ele>23.033152</ele>
        <time>2024-03-31T15:26:35.999Z</time>
      </trkpt>
      <trkpt lat="51.577569" lon="6.255523">
        <ele>23.083026</ele>
        <time>2024-03-31T15:26:37.999Z</time>
      </trkpt>
      <trkpt lat="51.577490" lon="6.255649">
        <ele>23.136299</ele>
        <time>2024-03-31T15:26:39.999Z</time>
      </trkpt>
      <trkpt lat="51.577407" lon="6.255770">
        <ele>23.189939</ele>
        <time>2024-03-31T15:26:41.999Z</time>
      </trkpt>
      <trkpt lat="51.577337" lon="6.255913">
        <ele>23.244120</ele>
        <time>2024-03-31T15:26:43.999Z</time>
      </trkpt>
      <trkpt lat="51.577267" lon="6.256052">
        <ele>23.297370</ele>
        <time>2024-03-31T15:26:45.999Z</time>
      </trkpt>
      <trkpt lat="51.577202" lon="6.256200">
        <ele>23.351311</ele>
        <time>2024-03-31T15:26:47.999Z</time>
      </trkpt>
      <trkpt lat="51.577133" lon="6.256336">
        <ele>23.403567</ele>
        <time>2024-03-31T15:26:49.999Z</time>
      </trkpt>
      <trkpt lat="51.577052" lon="6.256475">
        <ele>23.460283</ele>
        <time>2024-03-31T15:26:51.999Z</time>
      </trkpt>
      <trkpt lat="51.576972" lon="6.256593">
        <ele>23.513933</ele>
        <time>2024-03-31T15:26:53.999Z</time>
      </trkpt>
      <trkpt lat="51.576891" lon="6.256727">
        <ele>23.576744</ele>
        <time>2024-03-31T15:26:55.999Z</time>
      </trkpt>
      <trkpt lat="51.576803" lon="6.256838">
        <ele>23.637199</ele>
        <time>2024-03-31T15:26:57.998Z</time>
      </trkpt>
      <trkpt lat="51.576717" lon="6.256958">
        <ele>23.698744</ele>
        <time>2024-03-31T15:26:59.998Z</time>
      </trkpt>
      <trkpt lat="51.576631" lon="6.257070">
        <ele>23.758563</ele>
        <time>2024-03-31T15:27:01.998Z</time>
      </trkpt>
      <trkpt lat="51.576544" lon="6.257184">
        <ele>23.819225</ele>
        <time>2024-03-31T15:27:03.998Z</time>
      </trkpt>
      <trkpt lat="51.576451" lon="6.257297">
        <ele>23.882233</ele>
        <time>2024-03-31T15:27:05.998Z</time>
      </trkpt>
      <trkpt lat="51.576363" lon="6.257394">
        <ele>23.939905</ele>
        <time>2024-03-31T15:27:07.998Z</time>
      </trkpt>
      <trkpt lat="51.576272" lon="6.257510">
        <ele>24.002674</ele>
        <time>2024-03-31T15:27:09.998Z</time>
      </trkpt>
      <trkpt lat="51.576182" lon="6.257613">
        <ele>24.062387</ele>
        <time>2024-03-31T15:27:11.998Z</time>
      </trkpt>
      <trkpt lat="51.576099" lon="6.257715">
        <ele>24.118854</ele>
        <time>2024-03-31T15:27:13.998Z</time>
      </trkpt>
      <trkpt lat="51.576010" lon="6.257833">
        <ele>24.181205</ele>
        <time>2024-03-31T15:27:15.998Z</time>
      </trkpt>
      <trkpt lat="51.575921" lon="6.257914">
        <ele>24.236489</ele>
        <time>2024-03-31T15:27:17.998Z</time>
      </trkpt>
      <trkpt lat="51.575834" lon="6.258049">
        <ele>24.301836</ele>
        <time>2024-03-31T15:27:19.998Z</time>
      </trkpt>
      <trkpt lat="51.575745" lon="6.258146">
        <ele>24.359956</ele>
        <time>2024-03-31T15:27:21.998Z</time>
      </trkpt>
      <trkpt lat="51.575667" lon="6.258238">
        <ele>24.412245</ele>
        <time>2024-03-31T15:27:23.998Z</time>
      </trkpt>
      <trkpt lat="51.575594" lon="6.258328">
        <ele>24.461967</ele>
        <time>2024-03-31T15:27:25.998Z</time>
      </trkpt>
      <trkpt lat="51.575498" lon="6.258461">
        <ele>24.500896</ele>
        <time>2024-03-31T15:27:28.998Z</time>
      </trkpt>
      <trkpt lat="51.575409" lon="6.258570">
        <ele>24.530916</ele>
        <time>2024-03-31T15:27:31.998Z</time>
      </trkpt>
      <trkpt lat="51.575333" lon="6.258657">
        <ele>24.555951</ele>
        <time>2024-03-31T15:27:33.998Z</time>
      </trkpt>
      <trkpt lat="51.575237" lon="6.258764">
        <ele>24.587295</ele>
        <time>2024-03-31T15:27:36.998Z</time>
      </trkpt>
      <trkpt lat="51.575152" lon="6.258828">
        <ele>24.612483</ele>
        <time>2024-03-31T15:27:38.998Z</time>
      </trkpt>
      <trkpt lat="51.575067" lon="6.258707">
        <ele>24.642944</ele>
        <time>2024-03-31T15:27:41.998Z</time>
      </trkpt>
      <trkpt lat="51.574993" lon="6.258572">
        <ele>24.672971</ele>
        <time>2024-03-31T15:27:44.997Z</time>
      </trkpt>
      <trkpt lat="51.574919" lon="6.258475">
        <ele>24.698589</ele>
        <time>2024-03-31T15:27:47.997Z</time>
      </trkpt>
      <trkpt lat="51.574804" lon="6.258516">
        <ele>24.730204</ele>
        <time>2024-03-31T15:27:51.997Z</time>
      </trkpt>
      <trkpt lat="51.574741" lon="6.258640">
        <ele>24.756920</ele>
        <time>2024-03-31T15:27:53.997Z</time>
      </trkpt>
      <trkpt lat="51.574664" lon="6.258758">
        <ele>24.785461</ele>
        <time>2024-03-31T15:27:55.997Z</time>
      </trkpt>
      <trkpt lat="51.574589" lon="6.258878">
        <ele>24.813849</ele>
        <time>2024-03-31T15:27:58.000Z</time>
      </trkpt>
      <trkpt lat="51.574507" lon="6.259001">
        <ele>24.843939</ele>
        <time>2024-03-31T15:28:00.000Z</time>
      </trkpt>
      <trkpt lat="51.574427" lon="6.259122">
        <ele>24.873408</ele>
        <time>2024-03-31T15:28:02.000Z</time>
      </trkpt>
      <trkpt lat="51.574341" lon="6.259241">
        <ele>24.903852</ele>
        <time>2024-03-31T15:28:04.000Z</time>
      </trkpt>
      <trkpt lat="51.574262" lon="6.259368">
        <ele>24.933826</ele>
        <time>2024-03-31T15:28:06.000Z</time>
      </trkpt>
      <trkpt lat="51.574173" lon="6.259492">
        <ele>24.942886</ele>
        <time>2024-03-31T15:28:08.000Z</time>
      </trkpt>
      <trkpt lat="51.574092" lon="6.259607">
        <ele>24.912003</ele>
        <time>2024-03-31T15:28:10.000Z</time>
      </trkpt>
      <trkpt lat="51.574004" lon="6.259712">
        <ele>24.880684</ele>
        <time>2024-03-31T15:28:12.000Z</time>
      </trkpt>
      <trkpt lat="51.573907" lon="6.259831">
        <ele>24.845812</ele>
        <time>2024-03-31T15:28:14.000Z</time>
      </trkpt>
      <trkpt lat="51.573815" lon="6.259956">
        <ele>24.811388</ele>
        <time>2024-03-31T15:28:16.000Z</time>
      </trkpt>
      <trkpt lat="51.573723" lon="6.260067">
        <ele>24.778514</ele>
        <time>2024-03-31T15:28:18.000Z</time>
      </trkpt>
      <trkpt lat="51.573626" lon="6.260168">
        <ele>24.745484</ele>
        <time>2024-03-31T15:28:20.000Z</time>
      </trkpt>
      <trkpt lat="51.573523" lon="6.260250">
        <ele>24.712631</ele>
        <time>2024-03-31T15:28:21.999Z</time>
      </trkpt>
      <trkpt lat="51.573425" lon="6.260348">
        <ele>24.679645</ele>
        <time>2024-03-31T15:28:23.999Z</time>
      </trkpt>
      <trkpt lat="51.573324" lon="6.260430">
        <ele>24.647303</ele>
        <time>2024-03-31T15:28:25.999Z</time>
      </trkpt>
      <trkpt lat="51.573218" lon="6.260513">
        <ele>24.613602</ele>
        <time>2024-03-31T15:28:27.999Z</time>
      </trkpt>
      <trkpt lat="51.573120" lon="6.260602">
        <ele>24.581431</ele>
        <time>2024-03-31T15:28:29.999Z</time>
      </trkpt>
      <trkpt lat="51.573025" lon="6.260675">
        <ele>24.551334</ele>
        <time>2024-03-31T15:28:31.999Z</time>
      </trkpt>
      <trkpt lat="51.572922" lon="6.260763">
        <ele>24.517995</ele>
        <time>2024-03-31T15:28:33.999Z</time>
      </trkpt>
      <trkpt lat="51.572823" lon="6.260848">
        <ele>24.485915</ele>
        <time>2024-03-31T15:28:35.999Z</time>
      </trkpt>
      <trkpt lat="51.572699" lon="6.260946">
        <ele>24.446420</ele>
        <time>2024-03-31T15:28:37.999Z</time>
      </trkpt>
      <trkpt lat="51.572570" lon="6.261017">
        <ele>24.359779</ele>
        <time>2024-03-31T15:28:39.999Z</time>
      </trkpt>
      <trkpt lat="51.572482" lon="6.261122">
        <ele>24.283042</ele>
        <time>2024-03-31T15:28:41.999Z</time>
      </trkpt>
      <trkpt lat="51.572382" lon="6.261208">
        <ele>24.203621</ele>
        <time>2024-03-31T15:28:43.999Z</time>
      </trkpt>
      <trkpt lat="51.572278" lon="6.261300">
        <ele>24.120493</ele>
        <time>2024-03-31T15:28:45.999Z</time>
      </trkpt>
      <trkpt lat="51.572176" lon="6.261389">
        <ele>24.039220</ele>
        <time>2024-03-31T15:28:47.999Z</time>
      </trkpt>
      <trkpt lat="51.572072" lon="6.261468">
        <ele>23.958665</ele>
        <time>2024-03-31T15:28:49.999Z</time>
      </trkpt>
      <trkpt lat="51.571972" lon="6.261552">
        <ele>23.879651</ele>
        <time>2024-03-31T15:28:51.999Z</time>
      </trkpt>
      <trkpt lat="51.571868" lon="6.261629">
        <ele>23.799464</ele>
        <time>2024-03-31T15:28:53.999Z</time>
      </trkpt>
      <trkpt lat="51.571770" lon="6.261724">
        <ele>23.719326</ele>
        <time>2024-03-31T15:28:55.999Z</time>
      </trkpt>
      <trkpt lat="51.571673" lon="6.261813">
        <ele>23.641113</ele>
        <time>2024-03-31T15:28:57.999Z</time>
      </trkpt>
      <trkpt lat="51.571575" lon="6.261895">
        <ele>23.563744</ele>
        <time>2024-03-31T15:28:59.999Z</time>
      </trkpt>
      <trkpt lat="51.571481" lon="6.261979">
        <ele>23.488430</ele>
        <time>2024-03-31T15:29:01.999Z</time>
      </trkpt>
      <trkpt lat="51.571377" lon="6.262064">
        <ele>23.406726</ele>
        <time>2024-03-31T15:29:03.999Z</time>
      </trkpt>
      <trkpt lat="51.571278" lon="6.262143">
        <ele>23.329323</ele>
        <time>2024-03-31T15:29:05.999Z</time>
      </trkpt>
      <trkpt lat="51.571179" lon="6.262227">
        <ele>23.250929</ele>
        <time>2024-03-31T15:29:07.998Z</time>
      </trkpt>
      <trkpt lat="51.571081" lon="6.262305">
        <ele>23.180668</ele>
        <time>2024-03-31T15:29:09.998Z</time>
      </trkpt>
      <trkpt lat="51.570982" lon="6.262385">
        <ele>23.182810</ele>
        <time>2024-03-31T15:29:11.998Z</time>
      </trkpt>
      <trkpt lat="51.570886" lon="6.262466">
        <ele>23.184907</ele>
        <time>2024-03-31T15:29:13.998Z</time>
      </trkpt>
      <trkpt lat="51.570783" lon="6.262542">
        <ele>23.187099</ele>
        <time>2024-03-31T15:29:15.998Z</time>
      </trkpt>
      <trkpt lat="51.570686" lon="6.262625">
        <ele>23.189223</ele>
        <time>2024-03-31T15:29:17.998Z</time>
      </trkpt>
      <trkpt lat="51.570586" lon="6.262708">
        <ele>23.191400</ele>
        <time>2024-03-31T15:29:19.998Z</time>
      </trkpt>
      <trkpt lat="51.570485" lon="6.262788">
        <ele>23.193577</ele>
        <time>2024-03-31T15:29:21.998Z</time>
      </trkpt>
      <trkpt lat="51.570380" lon="6.262851">
        <ele>23.195744</ele>
        <time>2024-03-31T15:29:23.998Z</time>
      </trkpt>
      <trkpt lat="51.570274" lon="6.262921">
        <ele>23.197960</ele>
        <time>2024-03-31T15:29:25.998Z</time>
      </trkpt>
      <trkpt lat="51.570162" lon="6.262964">
        <ele>23.200187</ele>
        <time>2024-03-31T15:29:27.998Z</time>
      </trkpt>
      <trkpt lat="51.570044" lon="6.262993">
        <ele>23.202496</ele>
        <time>2024-03-31T15:29:29.998Z</time>
      </trkpt>
      <trkpt lat="51.569937" lon="6.263024">
        <ele>23.204598</ele>
        <time>2024-03-31T15:29:31.998Z</time>
      </trkpt>
      <trkpt lat="51.569827" lon="6.263041">
        <ele>23.206736</ele>
        <time>2024-03-31T15:29:33.998Z</time>
      </trkpt>
      <trkpt lat="51.569718" lon="6.263068">
        <ele>23.208869</ele>
        <time>2024-03-31T15:29:35.998Z</time>
      </trkpt>
      <trkpt lat="51.569618" lon="6.263090">
        <ele>23.210821</ele>
        <time>2024-03-31T15:29:37.998Z</time>
      </trkpt>
      <trkpt lat="51.569525" lon="6.263095">
        <ele>23.212620</ele>
        <time>2024-03-31T15:29:39.998Z</time>
      </trkpt>
      <trkpt lat="51.569391" lon="6.263131">
        <ele>23.215248</ele>
        <time>2024-03-31T15:29:42.998Z</time>
      </trkpt>
      <trkpt lat="51.569290" lon="6.263152">
        <ele>23.250421</ele>
        <time>2024-03-31T15:29:44.998Z</time>
      </trkpt>
      <trkpt lat="51.569183" lon="6.263168">
        <ele>23.288198</ele>
        <time>2024-03-31T15:29:46.998Z</time>
      </trkpt>
      <trkpt lat="51.569073" lon="6.263176">
        <ele>23.326907</ele>
        <time>2024-03-31T15:29:48.998Z</time>
      </trkpt>
      <trkpt lat="51.568963" lon="6.263207">
        <ele>23.366164</ele>
        <time>2024-03-31T15:29:50.998Z</time>
      </trkpt>
      <trkpt lat="51.568844" lon="6.263229">
        <ele>23.408272</ele>
        <time>2024-03-31T15:29:52.997Z</time>
      </trkpt>
      <trkpt lat="51.568726" lon="6.263254">
        <ele>23.450112</ele>
        <time>2024-03-31T15:29:54.997Z</time>
      </trkpt>
      <trkpt lat="51.568607" lon="6.263273">
        <ele>23.492150</ele>
        <time>2024-03-31T15:29:56.997Z</time>
      </trkpt>
      <trkpt lat="51.568489" lon="6.263292">
        <ele>23.533839</ele>
        <time>2024-03-31T15:29:58.997Z</time>
      </trkpt>
      <trkpt lat="51.568371" lon="6.263316">
        <ele>23.575650</ele>
        <time>2024-03-31T15:30:00.997Z</time>
      </trkpt>
      <trkpt lat="51.568260" lon="6.263336">
        <ele>23.614915</ele>
        <time>2024-03-31T15:30:03.000Z</time>
      </trkpt>
      <trkpt lat="51.568139" lon="6.263353">
        <ele>23.657613</ele>
        <time>2024-03-31T15:30:05.000Z</time>
      </trkpt>
      <trkpt lat="51.568019" lon="6.263378">
        <ele>23.700149</ele>
        <time>2024-03-31T15:30:07.000Z</time>
      </trkpt>
      <trkpt lat="51.567898" lon="6.263400">
        <ele>23.742956</ele>
        <time>2024-03-31T15:30:09.000Z</time>
      </trkpt>
      <trkpt lat="51.567778" lon="6.263421">
        <ele>23.785389</ele>
        <time>2024-03-31T15:30:11.000Z</time>
      </trkpt>
      <trkpt lat="51.567655" lon="6.263440">
        <ele>23.828827</ele>
        <time>2024-03-31T15:30:13.000Z</time>
      </trkpt>
      <trkpt lat="51.567537" lon="6.263459">
        <ele>23.858750</ele>
        <time>2024-03-31T15:30:15.000Z</time>
      </trkpt>
      <trkpt lat="51.567422" lon="6.263487">
        <ele>23.878670</ele>
        <time>2024-03-31T15:30:17.000Z</time>
      </trkpt>
      <trkpt lat="51.567316" lon="6.263557">
        <ele>23.898293</ele>
        <time>2024-03-31T15:30:19.000Z</time>
      </trkpt>
      <trkpt lat="51.567234" lon="6.263693">
        <ele>23.918463</ele>
        <time>2024-03-31T15:30:21.000Z</time>
      </trkpt>
      <trkpt lat="51.567179" lon="6.263847">
        <ele>23.937370</ele>
        <time>2024-03-31T15:30:23.000Z</time>
      </trkpt>
      <trkpt lat="51.567160" lon="6.264007">
        <ele>23.954711</ele>
        <time>2024-03-31T15:30:25.000Z</time>
      </trkpt>
      <trkpt lat="51.567084" lon="6.264112">
        <ele>23.971868</ele>
        <time>2024-03-31T15:30:27.000Z</time>
      </trkpt>
      <trkpt lat="51.566973" lon="6.264110">
        <ele>23.990879</ele>
        <time>2024-03-31T15:30:28.999Z</time>
      </trkpt>
      <trkpt lat="51.566860" lon="6.264107">
        <ele>24.010234</ele>
        <time>2024-03-31T15:30:30.999Z</time>
      </trkpt>
      <trkpt lat="51.566739" lon="6.264101">
        <ele>24.030967</ele>
        <time>2024-03-31T15:30:32.999Z</time>
      </trkpt>
      <trkpt lat="51.566616" lon="6.264095">
        <ele>24.052041</ele>
        <time>2024-03-31T15:30:34.999Z</time>
      </trkpt>
      <trkpt lat="51.566499" lon="6.264105">
        <ele>24.072107</ele>
        <time>2024-03-31T15:30:36.999Z</time>
      </trkpt>
      <trkpt lat="51.566384" lon="6.264104">
        <ele>24.091802</ele>
        <time>2024-03-31T15:30:38.999Z</time>
      </trkpt>
      <trkpt lat="51.566279" lon="6.264099">
        <ele>24.109793</ele>
        <time>2024-03-31T15:30:40.999Z</time>
      </trkpt>
      <trkpt lat="51.566172" lon="6.264108">
        <ele>24.128143</ele>
        <time>2024-03-31T15:30:42.999Z</time>
      </trkpt>
      <trkpt lat="51.566063" lon="6.264109">
        <ele>24.146810</ele>
        <time>2024-03-31T15:30:44.999Z</time>
      </trkpt>
      <trkpt lat="51.565947" lon="6.264111">
        <ele>24.172873</ele>
        <time>2024-03-31T15:30:46.999Z</time>
      </trkpt>
      <trkpt lat="51.565830" lon="6.264119">
        <ele>24.204154</ele>
        <time>2024-03-31T15:30:48.999Z</time>
      </trkpt>
      <trkpt lat="51.565714" lon="6.264119">
        <ele>24.235141</ele>
        <time>2024-03-31T15:30:50.999Z</time>
      </trkpt>
      <trkpt lat="51.565594" lon="6.264122">
        <ele>24.267199</ele>
        <time>2024-03-31T15:30:52.999Z</time>
      </trkpt>
      <trkpt lat="51.565480" lon="6.264121">
        <ele>24.297652</ele>
        <time>2024-03-31T15:30:54.999Z</time>
      </trkpt>
      <trkpt lat="51.565365" lon="6.264127">
        <ele>24.328387</ele>
        <time>2024-03-31T15:30:56.999Z</time>
      </trkpt>
      <trkpt lat="51.565247" lon="6.264131">
        <ele>24.359915</ele>
        <time>2024-03-31T15:30:58.999Z</time>
      </trkpt>
      <trkpt lat="51.565131" lon="6.264133">
        <ele>24.390903</ele>
        <time>2024-03-31T15:31:00.999Z</time>
      </trkpt>
      <trkpt lat="51.565016" lon="6.264145">
        <ele>24.421687</ele>
        <time>2024-03-31T15:31:02.999Z</time>
      </trkpt>
      <trkpt lat="51.564898" lon="6.264143">
        <ele>24.453209</ele>
        <time>2024-03-31T15:31:04.999Z</time>
      </trkpt>
      <trkpt lat="51.564781" lon="6.264147">
        <ele>24.484470</ele>
        <time>2024-03-31T15:31:06.999Z</time>
      </trkpt>
      <trkpt lat="51.564669" lon="6.264146">
        <ele>24.514388</ele>
        <time>2024-03-31T15:31:08.999Z</time>
      </trkpt>
      <trkpt lat="51.564562" lon="6.264155">
        <ele>24.543009</ele>
        <time>2024-03-31T15:31:10.999Z</time>
      </trkpt>
      <trkpt lat="51.564452" lon="6.264157">
        <ele>24.572395</ele>
        <time>2024-03-31T15:31:12.999Z</time>
      </trkpt>
      <trkpt lat="51.564340" lon="6.264164">
        <ele>24.602335</ele>
        <time>2024-03-31T15:31:14.998Z</time>
      </trkpt>
      <trkpt lat="51.564226" lon="6.264179">
        <ele>24.632889</ele>
        <time>2024-03-31T15:31:16.998Z</time>
      </trkpt>
      <trkpt lat="51.564111" lon="6.264184">
        <ele>24.631215</ele>
        <time>2024-03-31T15:31:18.998Z</time>
      </trkpt>
      <trkpt lat="51.563995" lon="6.264191">
        <ele>24.625751</ele>
        <time>2024-03-31T15:31:20.998Z</time>
      </trkpt>
      <trkpt lat="51.563880" lon="6.264194">
        <ele>24.620337</ele>
        <time>2024-03-31T15:31:22.998Z</time>
      </trkpt>
      <trkpt lat="51.563766" lon="6.264204">
        <ele>24.614963</ele>
        <time>2024-03-31T15:31:24.998Z</time>
      </trkpt>
      <trkpt lat="51.563650" lon="6.264215">
        <ele>24.609493</ele>
        <time>2024-03-31T15:31:26.998Z</time>
      </trkpt>
      <trkpt lat="51.563536" lon="6.264230">
        <ele>24.604108</ele>
        <time>2024-03-31T15:31:28.998Z</time>
      </trkpt>
      <trkpt lat="51.563422" lon="6.264245">
        <ele>24.598724</ele>
        <time>2024-03-31T15:31:30.998Z</time>
      </trkpt>
      <trkpt lat="51.563303" lon="6.264258">
        <ele>24.593110</ele>
        <time>2024-03-31T15:31:32.998Z</time>
      </trkpt>
      <trkpt lat="51.563184" lon="6.264278">
        <ele>24.587478</ele>
        <time>2024-03-31T15:31:34.998Z</time>
      </trkpt>
      <trkpt lat="51.563066" lon="6.264292">
        <ele>24.581908</ele>
        <time>2024-03-31T15:31:36.998Z</time>
      </trkpt>
      <trkpt lat="51.562950" lon="6.264314">
        <ele>24.576410</ele>
        <time>2024-03-31T15:31:38.998Z</time>
      </trkpt>
      <trkpt lat="51.562835" lon="6.264320">
        <ele>24.570993</ele>
        <time>2024-03-31T15:31:40.998Z</time>
      </trkpt>
      <trkpt lat="51.562726" lon="6.264349">
        <ele>24.565793</ele>
        <time>2024-03-31T15:31:42.998Z</time>
      </trkpt>
      <trkpt lat="51.562622" lon="6.264353">
        <ele>24.560896</ele>
        <time>2024-03-31T15:31:44.998Z</time>
      </trkpt>
      <trkpt lat="51.562520" lon="6.264367">
        <ele>24.556077</ele>
        <time>2024-03-31T15:31:46.998Z</time>
      </trkpt>
      <trkpt lat="51.562410" lon="6.264388">
        <ele>24.547119</ele>
        <time>2024-03-31T15:31:48.998Z</time>
      </trkpt>
      <trkpt lat="51.562299" lon="6.264408">
        <ele>24.505425</ele>
        <time>2024-03-31T15:31:50.998Z</time>
      </trkpt>
      <trkpt lat="51.562186" lon="6.264433">
        <ele>24.462847</ele>
        <time>2024-03-31T15:31:52.998Z</time>
      </trkpt>
      <trkpt lat="51.562079" lon="6.264464">
        <ele>24.422263</ele>
        <time>2024-03-31T15:31:54.998Z</time>
      </trkpt>
      <trkpt lat="51.561978" lon="6.264483">
        <ele>24.384305</ele>
        <time>2024-03-31T15:31:56.998Z</time>
      </trkpt>
      <trkpt lat="51.561883" lon="6.264503">
        <ele>24.348541</ele>
        <time>2024-03-31T15:31:58.998Z</time>
      </trkpt>
      <trkpt lat="51.561757" lon="6.264544">
        <ele>24.300554</ele>
        <time>2024-03-31T15:32:01.997Z</time>
      </trkpt>
      <trkpt lat="51.561641" lon="6.264553">
        <ele>24.257203</ele>
        <time>2024-03-31T15:32:04.997Z</time>
      </trkpt>
      <trkpt lat="51.561541" lon="6.264572">
        <ele>24.219616</ele>
        <time>2024-03-31T15:32:07.997Z</time>
      </trkpt>
      <trkpt lat="51.561451" lon="6.264569">
        <ele>24.186013</ele>
        <time>2024-03-31T15:32:11.000Z</time>
      </trkpt>
      <trkpt lat="51.561220" lon="6.264611">
        <ele>24.099236</ele>
        <time>2024-03-31T15:32:42.999Z</time>
      </trkpt>
      <trkpt lat="51.561116" lon="6.264650">
        <ele>24.059373</ele>
        <time>2024-03-31T15:32:46.999Z</time>
      </trkpt>
      <trkpt lat="51.561251" lon="6.264911">
        <ele>23.980583</ele>
        <time>2024-03-31T15:33:20.998Z</time>
      </trkpt>
      <trkpt lat="51.561351" lon="6.264990">
        <ele>23.938996</ele>
        <time>2024-03-31T15:33:22.998Z</time>
      </trkpt>
      <trkpt lat="51.561405" lon="6.265176">
        <ele>23.891358</ele>
        <time>2024-03-31T15:33:25.998Z</time>
      </trkpt>
      <trkpt lat="51.561431" lon="6.265319">
        <ele>23.897831</ele>
        <time>2024-03-31T15:33:27.998Z</time>
      </trkpt>
      <trkpt lat="51.561471" lon="6.265454">
        <ele>23.924481</ele>
        <time>2024-03-31T15:33:29.998Z</time>
      </trkpt>
      <trkpt lat="51.561504" lon="6.265600">
        <ele>23.952165</ele>
        <time>2024-03-31T15:33:31.998Z</time>
      </trkpt>
      <trkpt lat="51.561536" lon="6.265750">
        <ele>23.980425</ele>
        <time>2024-03-31T15:33:33.998Z</time>
      </trkpt>
      <trkpt lat="51.561570" lon="6.265897">
        <ele>24.008374</ele>
        <time>2024-03-31T15:33:35.998Z</time>
      </trkpt>
      <trkpt lat="51.561606" lon="6.266048">
        <ele>24.037193</ele>
        <time>2024-03-31T15:33:37.998Z</time>
      </trkpt>
      <trkpt lat="51.561636" lon="6.266197">
        <ele>24.065103</ele>
        <time>2024-03-31T15:33:39.998Z</time>
      </trkpt>
      <trkpt lat="51.561673" lon="6.266346">
        <ele>24.093694</ele>
        <time>2024-03-31T15:33:41.998Z</time>
      </trkpt>
      <trkpt lat="51.561707" lon="6.266497">
        <ele>24.122313</ele>
        <time>2024-03-31T15:33:43.998Z</time>
      </trkpt>
      <trkpt lat="51.561740" lon="6.266655">
        <ele>24.152015</ele>
        <time>2024-03-31T15:33:45.998Z</time>
      </trkpt>
      <trkpt lat="51.561772" lon="6.266814">
        <ele>24.181796</ele>
        <time>2024-03-31T15:33:47.998Z</time>
      </trkpt>
      <trkpt lat="51.561795" lon="6.266976">
        <ele>24.211408</ele>
        <time>2024-03-31T15:33:49.998Z</time>
      </trkpt>
      <trkpt lat="51.561825" lon="6.267135">
        <ele>24.241018</ele>
        <time>2024-03-31T15:33:51.998Z</time>
      </trkpt>
      <trkpt lat="51.561850" lon="6.267275">
        <ele>24.266974</ele>
        <time>2024-03-31T15:33:53.998Z</time>
      </trkpt>
      <trkpt lat="51.561885" lon="6.267476">
        <ele>24.304171</ele>
        <time>2024-03-31T15:33:56.998Z</time>
      </trkpt>
      <trkpt lat="51.561917" lon="6.267646">
        <ele>24.335823</ele>
        <time>2024-03-31T15:33:59.998Z</time>
      </trkpt>
      <trkpt lat="51.561860" lon="6.267796">
        <ele>24.367151</ele>
        <time>2024-03-31T15:34:02.997Z</time>
      </trkpt>
      <trkpt lat="51.561764" lon="6.267814">
        <ele>24.394855</ele>
        <time>2024-03-31T15:34:04.997Z</time>
      </trkpt>
      <trkpt lat="51.561676" lon="6.267848">
        <ele>24.444917</ele>
        <time>2024-03-31T15:34:06.997Z</time>
      </trkpt>
      <trkpt lat="51.561584" lon="6.267885">
        <ele>24.498095</ele>
        <time>2024-03-31T15:34:08.997Z</time>
      </trkpt>
      <trkpt lat="51.561487" lon="6.267909">
        <ele>24.553128</ele>
        <time>2024-03-31T15:34:10.997Z</time>
      </trkpt>
      <trkpt lat="51.561389" lon="6.267956">
        <ele>24.610473</ele>
        <time>2024-03-31T15:34:12.997Z</time>
      </trkpt>
      <trkpt lat="51.561288" lon="6.268000">
        <ele>24.669150</ele>
        <time>2024-03-31T15:34:15.000Z</time>
      </trkpt>
      <trkpt lat="51.561186" lon="6.268041">
        <ele>24.728106</ele>
        <time>2024-03-31T15:34:17.000Z</time>
      </trkpt>
      <trkpt lat="51.561082" lon="6.268085">
        <ele>24.788408</ele>
        <time>2024-03-31T15:34:19.000Z</time>
      </trkpt>
      <trkpt lat="51.560979" lon="6.268129">
        <ele>24.848168</ele>
        <time>2024-03-31T15:34:21.000Z</time>
      </trkpt>
      <trkpt lat="51.560875" lon="6.268179">
        <ele>24.909036</ele>
        <time>2024-03-31T15:34:23.000Z</time>
      </trkpt>
      <trkpt lat="51.560770" lon="6.268230">
        <ele>24.970541</ele>
        <time>2024-03-31T15:34:25.000Z</time>
      </trkpt>
      <trkpt lat="51.560667" lon="6.268287">
        <ele>25.031622</ele>
        <time>2024-03-31T15:34:27.000Z</time>
      </trkpt>
      <trkpt lat="51.560563" lon="6.268341">
        <ele>25.092904</ele>
        <time>2024-03-31T15:34:29.000Z</time>
      </trkpt>
      <trkpt lat="51.560459" lon="6.268403">
        <ele>25.155099</ele>
        <time>2024-03-31T15:34:31.000Z</time>
      </trkpt>
      <trkpt lat="51.560356" lon="6.268468">
        <ele>25.217143</ele>
        <time>2024-03-31T15:34:33.000Z</time>
      </trkpt>
      <trkpt lat="51.560249" lon="6.268527">
        <ele>25.280571</ele>
        <time>2024-03-31T15:34:35.000Z</time>
      </trkpt>
      <trkpt lat="51.560152" lon="6.268613">
        <ele>25.342680</ele>
        <time>2024-03-31T15:34:37.000Z</time>
      </trkpt>
      <trkpt lat="51.560054" lon="6.268704">
        <ele>25.404128</ele>
        <time>2024-03-31T15:34:38.999Z</time>
      </trkpt>
      <trkpt lat="51.559949" lon="6.268773">
        <ele>25.402543</ele>
        <time>2024-03-31T15:34:40.999Z</time>
      </trkpt>
      <trkpt lat="51.559850" lon="6.268855">
        <ele>25.400988</ele>
        <time>2024-03-31T15:34:42.999Z</time>
      </trkpt>
      <trkpt lat="51.559743" lon="6.268938">
        <ele>25.399328</ele>
        <time>2024-03-31T15:34:44.999Z</time>
      </trkpt>
      <trkpt lat="51.559634" lon="6.269027">
        <ele>25.397620</ele>
        <time>2024-03-31T15:34:46.999Z</time>
      </trkpt>
      <trkpt lat="51.559526" lon="6.269117">
        <ele>25.395921</ele>
        <time>2024-03-31T15:34:48.999Z</time>
      </trkpt>
      <trkpt lat="51.559424" lon="6.269196">
        <ele>25.394340</ele>
        <time>2024-03-31T15:34:50.999Z</time>
      </trkpt>
      <trkpt lat="51.559321" lon="6.269272">
        <ele>25.392757</ele>
        <time>2024-03-31T15:34:52.999Z</time>
      </trkpt>
      <trkpt lat="51.559225" lon="6.269350">
        <ele>25.391254</ele>
        <time>2024-03-31T15:34:54.999Z</time>
      </trkpt>
      <trkpt lat="51.559125" lon="6.269426">
        <ele>25.389709</ele>
        <time>2024-03-31T15:34:56.999Z</time>
      </trkpt>
      <trkpt lat="51.559026" lon="6.269513">
        <ele>25.388133</ele>
        <time>2024-03-31T15:34:58.999Z</time>
      </trkpt>
      <trkpt lat="51.558925" lon="6.269587">
        <ele>25.386583</ele>
        <time>2024-03-31T15:35:00.999Z</time>
      </trkpt>
      <trkpt lat="51.558823" lon="6.269658">
        <ele>25.385030</ele>
        <time>2024-03-31T15:35:02.999Z</time>
      </trkpt>
      <trkpt lat="51.558723" lon="6.269733">
        <ele>25.383489</ele>
        <time>2024-03-31T15:35:04.999Z</time>
      </trkpt>
      <trkpt lat="51.558621" lon="6.269819">
        <ele>25.381880</ele>
        <time>2024-03-31T15:35:06.999Z</time>
      </trkpt>
      <trkpt lat="51.558516" lon="6.269899">
        <ele>25.380257</ele>
        <time>2024-03-31T15:35:08.999Z</time>
      </trkpt>
      <trkpt lat="51.558409" lon="6.269984">
        <ele>25.379050</ele>
        <time>2024-03-31T15:35:10.999Z</time>
      </trkpt>
      <trkpt lat="51.558302" lon="6.270070">
        <ele>25.379050</ele>
        <time>2024-03-31T15:35:12.999Z</time>
      </trkpt>
      <trkpt lat="51.558197" lon="6.270172">
        <ele>25.379050</ele>
        <time>2024-03-31T15:35:14.999Z</time>
      </trkpt>
      <trkpt lat="51.558088" lon="6.270275">
        <ele>25.379050</ele>
        <time>2024-03-31T15:35:16.999Z</time>
      </trkpt>
      <trkpt lat="51.557976" lon="6.270370">
        <ele>25.379050</ele>
        <time>2024-03-31T15:35:18.999Z</time>
      </trkpt>
      <trkpt lat="51.557857" lon="6.270446">
        <ele>25.379050</ele>
        <time>2024-03-31T15:35:20.999Z</time>
      </trkpt>
      <trkpt lat="51.557738" lon="6.270521">
        <ele>25.379050</ele>
        <time>2024-03-31T15:35:22.998Z</time>
      </trkpt>
      <trkpt lat="51.557616" lon="6.270592">
        <ele>25.379050</ele>
        <time>2024-03-31T15:35:24.998Z</time>
      </trkpt>
      <trkpt lat="51.557495" lon="6.270666">
        <ele>25.379050</ele>
        <time>2024-03-31T15:35:26.998Z</time>
      </trkpt>
      <trkpt lat="51.557376" lon="6.270727">
        <ele>25.379050</ele>
        <time>2024-03-31T15:35:28.998Z</time>
      </trkpt>
      <trkpt lat="51.557263" lon="6.270786">
        <ele>25.379050</ele>
        <time>2024-03-31T15:35:30.998Z</time>
      </trkpt>
      <trkpt lat="51.557153" lon="6.270858">
        <ele>25.379050</ele>
        <time>2024-03-31T15:35:32.998Z</time>
      </trkpt>
      <trkpt lat="51.557045" lon="6.270926">
        <ele>25.379050</ele>
        <time>2024-03-31T15:35:34.998Z</time>
      </trkpt>
      <trkpt lat="51.556943" lon="6.270988">
        <ele>25.379050</ele>
        <time>2024-03-31T15:35:36.998Z</time>
      </trkpt>
      <trkpt lat="51.556849" lon="6.271039">
        <ele>25.379050</ele>
        <time>2024-03-31T15:35:38.998Z</time>
      </trkpt>
      <trkpt lat="51.556762" lon="6.271095">
        <ele>25.379050</ele>
        <time>2024-03-31T15:35:40.998Z</time>
      </trkpt>
      <trkpt lat="51.556640" lon="6.271172">
        <ele>25.379050</ele>
        <time>2024-03-31T15:35:43.998Z</time>
      </trkpt>
      <trkpt lat="51.556516" lon="6.271232">
        <ele>25.379050</ele>
        <time>2024-03-31T15:35:46.998Z</time>
      </trkpt>
      <trkpt lat="51.556410" lon="6.271323">
        <ele>25.379050</ele>
        <time>2024-03-31T15:35:49.998Z</time>
      </trkpt>
      <trkpt lat="51.556411" lon="6.271468">
        <ele>25.379050</ele>
        <time>2024-03-31T15:35:51.998Z</time>
      </trkpt>
      <trkpt lat="51.556439" lon="6.271644">
        <ele>25.379050</ele>
        <time>2024-03-31T15:35:54.998Z</time>
      </trkpt>
      <trkpt lat="51.556447" lon="6.271806">
        <ele>25.379050</ele>
        <time>2024-03-31T15:35:57.998Z</time>
      </trkpt>
      <trkpt lat="51.556449" lon="6.271960">
        <ele>25.379050</ele>
        <time>2024-03-31T15:36:00.998Z</time>
      </trkpt>
      <trkpt lat="51.556500" lon="6.272082">
        <ele>25.379050</ele>
        <time>2024-03-31T15:36:08.998Z</time>
      </trkpt>
    </trkseg>
  </trk>
</gpx>